<?xml version="1.0" encoding="UTF-8" standalone="no" ?>
<gpx xmlns="http://www.topografix.com/GPX/1/1" xmlns:xsi="http://www.w3.org/2001/XMLSchema-instance" xsi:schemaLocation="http://www.topografix.com/GPX/1/1 http://www.topografix.com/GPX/1/1/gpx.xsd" version="1.1" creator="VisuGPX - https://www.visugpx.com">
  <metadata>
    <name>Autour Saint Pierreville</name>
  </metadata>
  <trk>
    <name><![CDATA[2020-05-22-St_Sauveur_Lachamp_Raphael]]></name>
    <extensions>
      <line xmlns="http://www.topografix.com/GPX/gpx_style/0/2">
        <color>0000FF</color>
        <width>4</width>
      </line>
    </extensions>
    <trkseg>
      <trkpt lat="44.8184" lon="4.59476">
        <ele>176.4</ele>
        <time>2020-05-22T06:43:35.000Z</time>
      </trkpt>
      <trkpt lat="44.81838" lon="4.5949">
        <ele>176.9</ele>
        <time>2020-05-22T06:43:45.000Z</time>
      </trkpt>
      <trkpt lat="44.81831" lon="4.59498">
        <ele>176.8</ele>
        <time>2020-05-22T06:43:50.000Z</time>
      </trkpt>
      <trkpt lat="44.81827" lon="4.59495">
        <ele>177.2</ele>
        <time>2020-05-22T06:43:58.000Z</time>
      </trkpt>
      <trkpt lat="44.81818" lon="4.59502">
        <ele>178</ele>
        <time>2020-05-22T06:44:11.000Z</time>
      </trkpt>
      <trkpt lat="44.81812" lon="4.59513">
        <ele>178.1</ele>
        <time>2020-05-22T06:44:14.000Z</time>
      </trkpt>
      <trkpt lat="44.81804" lon="4.59525">
        <ele>178.1</ele>
        <time>2020-05-22T06:44:17.000Z</time>
      </trkpt>
      <trkpt lat="44.81797" lon="4.59538">
        <ele>178.1</ele>
        <time>2020-05-22T06:44:20.000Z</time>
      </trkpt>
      <trkpt lat="44.8179" lon="4.59552">
        <ele>178.2</ele>
        <time>2020-05-22T06:44:23.000Z</time>
      </trkpt>
      <trkpt lat="44.81782" lon="4.59566">
        <ele>178.3</ele>
        <time>2020-05-22T06:44:26.000Z</time>
      </trkpt>
      <trkpt lat="44.81777" lon="4.59577">
        <ele>178.3</ele>
        <time>2020-05-22T06:44:28.000Z</time>
      </trkpt>
      <trkpt lat="44.8177" lon="4.59587">
        <ele>178.4</ele>
        <time>2020-05-22T06:44:30.000Z</time>
      </trkpt>
      <trkpt lat="44.81765" lon="4.59598">
        <ele>178.4</ele>
        <time>2020-05-22T06:44:32.000Z</time>
      </trkpt>
      <trkpt lat="44.81759" lon="4.59609">
        <ele>178.5</ele>
        <time>2020-05-22T06:44:34.000Z</time>
      </trkpt>
      <trkpt lat="44.81753" lon="4.59619">
        <ele>178.6</ele>
        <time>2020-05-22T06:44:36.000Z</time>
      </trkpt>
      <trkpt lat="44.81748" lon="4.5963">
        <ele>178.7</ele>
        <time>2020-05-22T06:44:38.000Z</time>
      </trkpt>
      <trkpt lat="44.8174" lon="4.59645">
        <ele>178.8</ele>
        <time>2020-05-22T06:44:41.000Z</time>
      </trkpt>
      <trkpt lat="44.81729" lon="4.59648">
        <ele>178.9</ele>
        <time>2020-05-22T06:44:44.000Z</time>
      </trkpt>
      <trkpt lat="44.8172" lon="4.59638">
        <ele>179.1</ele>
        <time>2020-05-22T06:44:47.000Z</time>
      </trkpt>
      <trkpt lat="44.8171" lon="4.59633">
        <ele>179.4</ele>
        <time>2020-05-22T06:44:50.000Z</time>
      </trkpt>
      <trkpt lat="44.81701" lon="4.59627">
        <ele>179.8</ele>
        <time>2020-05-22T06:44:53.000Z</time>
      </trkpt>
      <trkpt lat="44.81692" lon="4.59624">
        <ele>180.4</ele>
        <time>2020-05-22T06:44:56.000Z</time>
      </trkpt>
      <trkpt lat="44.81683" lon="4.59618">
        <ele>181</ele>
        <time>2020-05-22T06:44:59.000Z</time>
      </trkpt>
      <trkpt lat="44.81675" lon="4.59611">
        <ele>181.6</ele>
        <time>2020-05-22T06:45:02.000Z</time>
      </trkpt>
      <trkpt lat="44.81667" lon="4.59604">
        <ele>182.3</ele>
        <time>2020-05-22T06:45:05.000Z</time>
      </trkpt>
      <trkpt lat="44.81658" lon="4.59598">
        <ele>183.3</ele>
        <time>2020-05-22T06:45:08.000Z</time>
      </trkpt>
      <trkpt lat="44.81649" lon="4.59589">
        <ele>184.4</ele>
        <time>2020-05-22T06:45:12.000Z</time>
      </trkpt>
      <trkpt lat="44.81641" lon="4.59583">
        <ele>185</ele>
        <time>2020-05-22T06:45:15.000Z</time>
      </trkpt>
      <trkpt lat="44.81632" lon="4.59577">
        <ele>185.6</ele>
        <time>2020-05-22T06:45:18.000Z</time>
      </trkpt>
      <trkpt lat="44.81622" lon="4.59571">
        <ele>186.5</ele>
        <time>2020-05-22T06:45:22.000Z</time>
      </trkpt>
      <trkpt lat="44.81612" lon="4.59563">
        <ele>187.4</ele>
        <time>2020-05-22T06:45:26.000Z</time>
      </trkpt>
      <trkpt lat="44.81602" lon="4.59554">
        <ele>188</ele>
        <time>2020-05-22T06:45:30.000Z</time>
      </trkpt>
      <trkpt lat="44.81592" lon="4.59546">
        <ele>188.6</ele>
        <time>2020-05-22T06:45:34.000Z</time>
      </trkpt>
      <trkpt lat="44.81585" lon="4.59539">
        <ele>189</ele>
        <time>2020-05-22T06:45:37.000Z</time>
      </trkpt>
      <trkpt lat="44.81576" lon="4.59527">
        <ele>189.6</ele>
        <time>2020-05-22T06:45:41.000Z</time>
      </trkpt>
      <trkpt lat="44.8157" lon="4.59518">
        <ele>190</ele>
        <time>2020-05-22T06:45:44.000Z</time>
      </trkpt>
      <trkpt lat="44.81563" lon="4.59509">
        <ele>190.4</ele>
        <time>2020-05-22T06:45:47.000Z</time>
      </trkpt>
      <trkpt lat="44.81555" lon="4.595">
        <ele>190.8</ele>
        <time>2020-05-22T06:45:50.000Z</time>
      </trkpt>
      <trkpt lat="44.81546" lon="4.59493">
        <ele>191.3</ele>
        <time>2020-05-22T06:45:53.000Z</time>
      </trkpt>
      <trkpt lat="44.81537" lon="4.59487">
        <ele>191.9</ele>
        <time>2020-05-22T06:45:56.000Z</time>
      </trkpt>
      <trkpt lat="44.81528" lon="4.59481">
        <ele>192.2</ele>
        <time>2020-05-22T06:45:59.000Z</time>
      </trkpt>
      <trkpt lat="44.81518" lon="4.59474">
        <ele>192.6</ele>
        <time>2020-05-22T06:46:02.000Z</time>
      </trkpt>
      <trkpt lat="44.8151" lon="4.59468">
        <ele>193.1</ele>
        <time>2020-05-22T06:46:05.000Z</time>
      </trkpt>
      <trkpt lat="44.815" lon="4.5946">
        <ele>193.6</ele>
        <time>2020-05-22T06:46:08.000Z</time>
      </trkpt>
      <trkpt lat="44.81491" lon="4.59452">
        <ele>194</ele>
        <time>2020-05-22T06:46:11.000Z</time>
      </trkpt>
      <trkpt lat="44.81482" lon="4.59445">
        <ele>194.5</ele>
        <time>2020-05-22T06:46:14.000Z</time>
      </trkpt>
      <trkpt lat="44.81473" lon="4.59437">
        <ele>194.9</ele>
        <time>2020-05-22T06:46:17.000Z</time>
      </trkpt>
      <trkpt lat="44.81464" lon="4.59429">
        <ele>195.4</ele>
        <time>2020-05-22T06:46:20.000Z</time>
      </trkpt>
      <trkpt lat="44.81456" lon="4.59421">
        <ele>195.9</ele>
        <time>2020-05-22T06:46:23.000Z</time>
      </trkpt>
      <trkpt lat="44.81448" lon="4.59414">
        <ele>196.4</ele>
        <time>2020-05-22T06:46:26.000Z</time>
      </trkpt>
      <trkpt lat="44.81439" lon="4.59407">
        <ele>196.9</ele>
        <time>2020-05-22T06:46:29.000Z</time>
      </trkpt>
      <trkpt lat="44.81433" lon="4.59398">
        <ele>197.3</ele>
        <time>2020-05-22T06:46:32.000Z</time>
      </trkpt>
      <trkpt lat="44.81428" lon="4.59383">
        <ele>197.8</ele>
        <time>2020-05-22T06:46:35.000Z</time>
      </trkpt>
      <trkpt lat="44.81422" lon="4.5937">
        <ele>198.3</ele>
        <time>2020-05-22T06:46:38.000Z</time>
      </trkpt>
      <trkpt lat="44.81419" lon="4.59357">
        <ele>198.7</ele>
        <time>2020-05-22T06:46:41.000Z</time>
      </trkpt>
      <trkpt lat="44.81418" lon="4.59342">
        <ele>199.1</ele>
        <time>2020-05-22T06:46:44.000Z</time>
      </trkpt>
      <trkpt lat="44.8142" lon="4.59326">
        <ele>199.6</ele>
        <time>2020-05-22T06:46:47.000Z</time>
      </trkpt>
      <trkpt lat="44.81423" lon="4.59312">
        <ele>200.2</ele>
        <time>2020-05-22T06:46:50.000Z</time>
      </trkpt>
      <trkpt lat="44.81425" lon="4.59297">
        <ele>200.7</ele>
        <time>2020-05-22T06:46:53.000Z</time>
      </trkpt>
      <trkpt lat="44.81424" lon="4.59283">
        <ele>201.4</ele>
        <time>2020-05-22T06:46:56.000Z</time>
      </trkpt>
      <trkpt lat="44.8142" lon="4.59269">
        <ele>202.1</ele>
        <time>2020-05-22T06:46:59.000Z</time>
      </trkpt>
      <trkpt lat="44.81414" lon="4.59254">
        <ele>202.8</ele>
        <time>2020-05-22T06:47:02.000Z</time>
      </trkpt>
      <trkpt lat="44.81412" lon="4.59241">
        <ele>203.4</ele>
        <time>2020-05-22T06:47:05.000Z</time>
      </trkpt>
      <trkpt lat="44.81414" lon="4.59227">
        <ele>203.8</ele>
        <time>2020-05-22T06:47:08.000Z</time>
      </trkpt>
      <trkpt lat="44.81417" lon="4.59212">
        <ele>204.3</ele>
        <time>2020-05-22T06:47:11.000Z</time>
      </trkpt>
      <trkpt lat="44.8142" lon="4.59197">
        <ele>204.7</ele>
        <time>2020-05-22T06:47:14.000Z</time>
      </trkpt>
      <trkpt lat="44.81422" lon="4.5918">
        <ele>205.1</ele>
        <time>2020-05-22T06:47:17.000Z</time>
      </trkpt>
      <trkpt lat="44.81423" lon="4.59165">
        <ele>205.6</ele>
        <time>2020-05-22T06:47:20.000Z</time>
      </trkpt>
      <trkpt lat="44.81425" lon="4.59149">
        <ele>206.2</ele>
        <time>2020-05-22T06:47:23.000Z</time>
      </trkpt>
      <trkpt lat="44.81424" lon="4.59135">
        <ele>206.6</ele>
        <time>2020-05-22T06:47:26.000Z</time>
      </trkpt>
      <trkpt lat="44.81424" lon="4.5912">
        <ele>207.1</ele>
        <time>2020-05-22T06:47:29.000Z</time>
      </trkpt>
      <trkpt lat="44.81424" lon="4.59106">
        <ele>207.5</ele>
        <time>2020-05-22T06:47:32.000Z</time>
      </trkpt>
      <trkpt lat="44.81423" lon="4.59092">
        <ele>207.9</ele>
        <time>2020-05-22T06:47:35.000Z</time>
      </trkpt>
      <trkpt lat="44.81423" lon="4.59078">
        <ele>208.3</ele>
        <time>2020-05-22T06:47:38.000Z</time>
      </trkpt>
      <trkpt lat="44.81421" lon="4.59065">
        <ele>208.8</ele>
        <time>2020-05-22T06:47:41.000Z</time>
      </trkpt>
      <trkpt lat="44.81418" lon="4.59052">
        <ele>209.2</ele>
        <time>2020-05-22T06:47:44.000Z</time>
      </trkpt>
      <trkpt lat="44.81412" lon="4.59042">
        <ele>209.7</ele>
        <time>2020-05-22T06:47:47.000Z</time>
      </trkpt>
      <trkpt lat="44.81404" lon="4.59035">
        <ele>210.1</ele>
        <time>2020-05-22T06:47:50.000Z</time>
      </trkpt>
      <trkpt lat="44.81395" lon="4.59031">
        <ele>210.4</ele>
        <time>2020-05-22T06:47:53.000Z</time>
      </trkpt>
      <trkpt lat="44.81386" lon="4.59026">
        <ele>210.9</ele>
        <time>2020-05-22T06:47:56.000Z</time>
      </trkpt>
      <trkpt lat="44.81377" lon="4.59022">
        <ele>211.3</ele>
        <time>2020-05-22T06:47:59.000Z</time>
      </trkpt>
      <trkpt lat="44.81367" lon="4.59017">
        <ele>211.8</ele>
        <time>2020-05-22T06:48:02.000Z</time>
      </trkpt>
      <trkpt lat="44.81357" lon="4.59014">
        <ele>212.6</ele>
        <time>2020-05-22T06:48:05.000Z</time>
      </trkpt>
      <trkpt lat="44.81348" lon="4.59009">
        <ele>213.3</ele>
        <time>2020-05-22T06:48:08.000Z</time>
      </trkpt>
      <trkpt lat="44.81338" lon="4.59004">
        <ele>214</ele>
        <time>2020-05-22T06:48:11.000Z</time>
      </trkpt>
      <trkpt lat="44.8133" lon="4.58996">
        <ele>214.6</ele>
        <time>2020-05-22T06:48:14.000Z</time>
      </trkpt>
      <trkpt lat="44.81322" lon="4.58986">
        <ele>215.1</ele>
        <time>2020-05-22T06:48:17.000Z</time>
      </trkpt>
      <trkpt lat="44.81315" lon="4.58974">
        <ele>215.5</ele>
        <time>2020-05-22T06:48:20.000Z</time>
      </trkpt>
      <trkpt lat="44.81309" lon="4.58962">
        <ele>216</ele>
        <time>2020-05-22T06:48:23.000Z</time>
      </trkpt>
      <trkpt lat="44.81303" lon="4.5895">
        <ele>216.3</ele>
        <time>2020-05-22T06:48:26.000Z</time>
      </trkpt>
      <trkpt lat="44.81297" lon="4.58937">
        <ele>216.6</ele>
        <time>2020-05-22T06:48:29.000Z</time>
      </trkpt>
      <trkpt lat="44.81289" lon="4.58924">
        <ele>216.9</ele>
        <time>2020-05-22T06:48:32.000Z</time>
      </trkpt>
      <trkpt lat="44.81281" lon="4.58915">
        <ele>217.1</ele>
        <time>2020-05-22T06:48:35.000Z</time>
      </trkpt>
      <trkpt lat="44.81272" lon="4.58906">
        <ele>217.4</ele>
        <time>2020-05-22T06:48:38.000Z</time>
      </trkpt>
      <trkpt lat="44.81263" lon="4.58896">
        <ele>217.6</ele>
        <time>2020-05-22T06:48:41.000Z</time>
      </trkpt>
      <trkpt lat="44.81255" lon="4.58886">
        <ele>217.7</ele>
        <time>2020-05-22T06:48:44.000Z</time>
      </trkpt>
      <trkpt lat="44.81248" lon="4.58874">
        <ele>217.8</ele>
        <time>2020-05-22T06:48:47.000Z</time>
      </trkpt>
      <trkpt lat="44.81245" lon="4.58859">
        <ele>218.1</ele>
        <time>2020-05-22T06:48:50.000Z</time>
      </trkpt>
      <trkpt lat="44.81243" lon="4.58844">
        <ele>218.3</ele>
        <time>2020-05-22T06:48:53.000Z</time>
      </trkpt>
      <trkpt lat="44.81242" lon="4.58827">
        <ele>218.6</ele>
        <time>2020-05-22T06:48:56.000Z</time>
      </trkpt>
      <trkpt lat="44.8124" lon="4.58811">
        <ele>218.9</ele>
        <time>2020-05-22T06:48:59.000Z</time>
      </trkpt>
      <trkpt lat="44.81239" lon="4.58797">
        <ele>219.4</ele>
        <time>2020-05-22T06:49:02.000Z</time>
      </trkpt>
      <trkpt lat="44.81237" lon="4.58783">
        <ele>219.8</ele>
        <time>2020-05-22T06:49:05.000Z</time>
      </trkpt>
      <trkpt lat="44.8124" lon="4.58765">
        <ele>220.2</ele>
        <time>2020-05-22T06:49:08.000Z</time>
      </trkpt>
      <trkpt lat="44.81239" lon="4.58749">
        <ele>220.6</ele>
        <time>2020-05-22T06:49:11.000Z</time>
      </trkpt>
      <trkpt lat="44.81233" lon="4.58734">
        <ele>221</ele>
        <time>2020-05-22T06:49:14.000Z</time>
      </trkpt>
      <trkpt lat="44.81227" lon="4.58719">
        <ele>221.3</ele>
        <time>2020-05-22T06:49:17.000Z</time>
      </trkpt>
      <trkpt lat="44.81222" lon="4.58703">
        <ele>221.6</ele>
        <time>2020-05-22T06:49:20.000Z</time>
      </trkpt>
      <trkpt lat="44.81218" lon="4.58687">
        <ele>221.9</ele>
        <time>2020-05-22T06:49:23.000Z</time>
      </trkpt>
      <trkpt lat="44.81214" lon="4.58671">
        <ele>222.2</ele>
        <time>2020-05-22T06:49:26.000Z</time>
      </trkpt>
      <trkpt lat="44.8121" lon="4.58655">
        <ele>222.5</ele>
        <time>2020-05-22T06:49:29.000Z</time>
      </trkpt>
      <trkpt lat="44.81205" lon="4.58639">
        <ele>222.8</ele>
        <time>2020-05-22T06:49:32.000Z</time>
      </trkpt>
      <trkpt lat="44.812" lon="4.58625">
        <ele>223.2</ele>
        <time>2020-05-22T06:49:35.000Z</time>
      </trkpt>
      <trkpt lat="44.81194" lon="4.5861">
        <ele>223.4</ele>
        <time>2020-05-22T06:49:38.000Z</time>
      </trkpt>
      <trkpt lat="44.8119" lon="4.58593">
        <ele>223.7</ele>
        <time>2020-05-22T06:49:41.000Z</time>
      </trkpt>
      <trkpt lat="44.81188" lon="4.58574">
        <ele>223.9</ele>
        <time>2020-05-22T06:49:44.000Z</time>
      </trkpt>
      <trkpt lat="44.81188" lon="4.58554">
        <ele>224.1</ele>
        <time>2020-05-22T06:49:47.000Z</time>
      </trkpt>
      <trkpt lat="44.81188" lon="4.58538">
        <ele>224.1</ele>
        <time>2020-05-22T06:49:49.000Z</time>
      </trkpt>
      <trkpt lat="44.81189" lon="4.58523">
        <ele>224.1</ele>
        <time>2020-05-22T06:49:51.000Z</time>
      </trkpt>
      <trkpt lat="44.81191" lon="4.58506">
        <ele>223.9</ele>
        <time>2020-05-22T06:49:53.000Z</time>
      </trkpt>
      <trkpt lat="44.81192" lon="4.5849">
        <ele>223.8</ele>
        <time>2020-05-22T06:49:55.000Z</time>
      </trkpt>
      <trkpt lat="44.81194" lon="4.58474">
        <ele>223.6</ele>
        <time>2020-05-22T06:49:57.000Z</time>
      </trkpt>
      <trkpt lat="44.81197" lon="4.58457">
        <ele>223.4</ele>
        <time>2020-05-22T06:49:59.000Z</time>
      </trkpt>
      <trkpt lat="44.81201" lon="4.58439">
        <ele>223.2</ele>
        <time>2020-05-22T06:50:01.000Z</time>
      </trkpt>
      <trkpt lat="44.81208" lon="4.58424">
        <ele>223</ele>
        <time>2020-05-22T06:50:03.000Z</time>
      </trkpt>
      <trkpt lat="44.81213" lon="4.58409">
        <ele>222.9</ele>
        <time>2020-05-22T06:50:05.000Z</time>
      </trkpt>
      <trkpt lat="44.81221" lon="4.58395">
        <ele>222.8</ele>
        <time>2020-05-22T06:50:07.000Z</time>
      </trkpt>
      <trkpt lat="44.81229" lon="4.58382">
        <ele>222.7</ele>
        <time>2020-05-22T06:50:09.000Z</time>
      </trkpt>
      <trkpt lat="44.81239" lon="4.58372">
        <ele>222.6</ele>
        <time>2020-05-22T06:50:11.000Z</time>
      </trkpt>
      <trkpt lat="44.81247" lon="4.58362">
        <ele>222.5</ele>
        <time>2020-05-22T06:50:13.000Z</time>
      </trkpt>
      <trkpt lat="44.81249" lon="4.58348">
        <ele>222.4</ele>
        <time>2020-05-22T06:50:15.000Z</time>
      </trkpt>
      <trkpt lat="44.81246" lon="4.58334">
        <ele>222.5</ele>
        <time>2020-05-22T06:50:17.000Z</time>
      </trkpt>
      <trkpt lat="44.81242" lon="4.58316">
        <ele>222.5</ele>
        <time>2020-05-22T06:50:20.000Z</time>
      </trkpt>
      <trkpt lat="44.8124" lon="4.58298">
        <ele>222.7</ele>
        <time>2020-05-22T06:50:23.000Z</time>
      </trkpt>
      <trkpt lat="44.81242" lon="4.5828">
        <ele>223</ele>
        <time>2020-05-22T06:50:26.000Z</time>
      </trkpt>
      <trkpt lat="44.81242" lon="4.58266">
        <ele>223.2</ele>
        <time>2020-05-22T06:50:28.000Z</time>
      </trkpt>
      <trkpt lat="44.81239" lon="4.58253">
        <ele>223.6</ele>
        <time>2020-05-22T06:50:31.000Z</time>
      </trkpt>
      <trkpt lat="44.81241" lon="4.5824">
        <ele>223.9</ele>
        <time>2020-05-22T06:50:33.000Z</time>
      </trkpt>
      <trkpt lat="44.81245" lon="4.58227">
        <ele>224.2</ele>
        <time>2020-05-22T06:50:35.000Z</time>
      </trkpt>
      <trkpt lat="44.81251" lon="4.5821">
        <ele>224.6</ele>
        <time>2020-05-22T06:50:38.000Z</time>
      </trkpt>
      <trkpt lat="44.81256" lon="4.58199">
        <ele>224.8</ele>
        <time>2020-05-22T06:50:40.000Z</time>
      </trkpt>
      <trkpt lat="44.81261" lon="4.58187">
        <ele>225.1</ele>
        <time>2020-05-22T06:50:42.000Z</time>
      </trkpt>
      <trkpt lat="44.81268" lon="4.58176">
        <ele>225.3</ele>
        <time>2020-05-22T06:50:44.000Z</time>
      </trkpt>
      <trkpt lat="44.81275" lon="4.58165">
        <ele>225.6</ele>
        <time>2020-05-22T06:50:46.000Z</time>
      </trkpt>
      <trkpt lat="44.81281" lon="4.58153">
        <ele>225.9</ele>
        <time>2020-05-22T06:50:48.000Z</time>
      </trkpt>
      <trkpt lat="44.81288" lon="4.58142">
        <ele>226.1</ele>
        <time>2020-05-22T06:50:50.000Z</time>
      </trkpt>
      <trkpt lat="44.81295" lon="4.58131">
        <ele>226.3</ele>
        <time>2020-05-22T06:50:52.000Z</time>
      </trkpt>
      <trkpt lat="44.81301" lon="4.58117">
        <ele>226.5</ele>
        <time>2020-05-22T06:50:54.000Z</time>
      </trkpt>
      <trkpt lat="44.81308" lon="4.58105">
        <ele>226.7</ele>
        <time>2020-05-22T06:50:56.000Z</time>
      </trkpt>
      <trkpt lat="44.81315" lon="4.58093">
        <ele>226.8</ele>
        <time>2020-05-22T06:50:58.000Z</time>
      </trkpt>
      <trkpt lat="44.81322" lon="4.58082">
        <ele>227</ele>
        <time>2020-05-22T06:51:00.000Z</time>
      </trkpt>
      <trkpt lat="44.81329" lon="4.58073">
        <ele>227.1</ele>
        <time>2020-05-22T06:51:02.000Z</time>
      </trkpt>
      <trkpt lat="44.81335" lon="4.58062">
        <ele>227.1</ele>
        <time>2020-05-22T06:51:04.000Z</time>
      </trkpt>
      <trkpt lat="44.81341" lon="4.58051">
        <ele>227.2</ele>
        <time>2020-05-22T06:51:06.000Z</time>
      </trkpt>
      <trkpt lat="44.81346" lon="4.5804">
        <ele>227.2</ele>
        <time>2020-05-22T06:51:08.000Z</time>
      </trkpt>
      <trkpt lat="44.81358" lon="4.5803">
        <ele>227.3</ele>
        <time>2020-05-22T06:51:11.000Z</time>
      </trkpt>
      <trkpt lat="44.81368" lon="4.58025">
        <ele>227.4</ele>
        <time>2020-05-22T06:51:13.000Z</time>
      </trkpt>
      <trkpt lat="44.81375" lon="4.58015">
        <ele>227.5</ele>
        <time>2020-05-22T06:51:15.000Z</time>
      </trkpt>
      <trkpt lat="44.81381" lon="4.58001">
        <ele>227.5</ele>
        <time>2020-05-22T06:51:17.000Z</time>
      </trkpt>
      <trkpt lat="44.81386" lon="4.57987">
        <ele>227.6</ele>
        <time>2020-05-22T06:51:19.000Z</time>
      </trkpt>
      <trkpt lat="44.8139" lon="4.57972">
        <ele>227.6</ele>
        <time>2020-05-22T06:51:21.000Z</time>
      </trkpt>
      <trkpt lat="44.81393" lon="4.57957">
        <ele>227.6</ele>
        <time>2020-05-22T06:51:23.000Z</time>
      </trkpt>
      <trkpt lat="44.81396" lon="4.57943">
        <ele>227.6</ele>
        <time>2020-05-22T06:51:25.000Z</time>
      </trkpt>
      <trkpt lat="44.81399" lon="4.57929">
        <ele>227.6</ele>
        <time>2020-05-22T06:51:27.000Z</time>
      </trkpt>
      <trkpt lat="44.814" lon="4.57915">
        <ele>227.7</ele>
        <time>2020-05-22T06:51:29.000Z</time>
      </trkpt>
      <trkpt lat="44.81403" lon="4.57901">
        <ele>227.7</ele>
        <time>2020-05-22T06:51:31.000Z</time>
      </trkpt>
      <trkpt lat="44.81404" lon="4.57887">
        <ele>227.8</ele>
        <time>2020-05-22T06:51:33.000Z</time>
      </trkpt>
      <trkpt lat="44.81407" lon="4.57873">
        <ele>227.8</ele>
        <time>2020-05-22T06:51:35.000Z</time>
      </trkpt>
      <trkpt lat="44.81409" lon="4.57859">
        <ele>227.9</ele>
        <time>2020-05-22T06:51:37.000Z</time>
      </trkpt>
      <trkpt lat="44.81413" lon="4.57846">
        <ele>228</ele>
        <time>2020-05-22T06:51:39.000Z</time>
      </trkpt>
      <trkpt lat="44.81418" lon="4.57834">
        <ele>228</ele>
        <time>2020-05-22T06:51:41.000Z</time>
      </trkpt>
      <trkpt lat="44.81424" lon="4.57822">
        <ele>228</ele>
        <time>2020-05-22T06:51:43.000Z</time>
      </trkpt>
      <trkpt lat="44.81426" lon="4.57808">
        <ele>228.1</ele>
        <time>2020-05-22T06:51:45.000Z</time>
      </trkpt>
      <trkpt lat="44.81424" lon="4.57795">
        <ele>228.1</ele>
        <time>2020-05-22T06:51:47.000Z</time>
      </trkpt>
      <trkpt lat="44.8142" lon="4.57783">
        <ele>228.4</ele>
        <time>2020-05-22T06:51:49.000Z</time>
      </trkpt>
      <trkpt lat="44.81414" lon="4.57772">
        <ele>228.5</ele>
        <time>2020-05-22T06:51:51.000Z</time>
      </trkpt>
      <trkpt lat="44.81407" lon="4.57757">
        <ele>228.7</ele>
        <time>2020-05-22T06:51:54.000Z</time>
      </trkpt>
      <trkpt lat="44.814" lon="4.57743">
        <ele>228.9</ele>
        <time>2020-05-22T06:51:57.000Z</time>
      </trkpt>
      <trkpt lat="44.81395" lon="4.57727">
        <ele>229.2</ele>
        <time>2020-05-22T06:52:00.000Z</time>
      </trkpt>
      <trkpt lat="44.8139" lon="4.57711">
        <ele>229.7</ele>
        <time>2020-05-22T06:52:03.000Z</time>
      </trkpt>
      <trkpt lat="44.81385" lon="4.57697">
        <ele>230.1</ele>
        <time>2020-05-22T06:52:06.000Z</time>
      </trkpt>
      <trkpt lat="44.81377" lon="4.57686">
        <ele>230.5</ele>
        <time>2020-05-22T06:52:09.000Z</time>
      </trkpt>
      <trkpt lat="44.81368" lon="4.57677">
        <ele>230.8</ele>
        <time>2020-05-22T06:52:12.000Z</time>
      </trkpt>
      <trkpt lat="44.81359" lon="4.57667">
        <ele>231.2</ele>
        <time>2020-05-22T06:52:15.000Z</time>
      </trkpt>
      <trkpt lat="44.8135" lon="4.5766">
        <ele>231.5</ele>
        <time>2020-05-22T06:52:18.000Z</time>
      </trkpt>
      <trkpt lat="44.8134" lon="4.57654">
        <ele>231.8</ele>
        <time>2020-05-22T06:52:21.000Z</time>
      </trkpt>
      <trkpt lat="44.81329" lon="4.57649">
        <ele>232.3</ele>
        <time>2020-05-22T06:52:24.000Z</time>
      </trkpt>
      <trkpt lat="44.81318" lon="4.57646">
        <ele>232.7</ele>
        <time>2020-05-22T06:52:27.000Z</time>
      </trkpt>
      <trkpt lat="44.81307" lon="4.57641">
        <ele>233</ele>
        <time>2020-05-22T06:52:30.000Z</time>
      </trkpt>
      <trkpt lat="44.81294" lon="4.57637">
        <ele>233.2</ele>
        <time>2020-05-22T06:52:33.000Z</time>
      </trkpt>
      <trkpt lat="44.81282" lon="4.57632">
        <ele>233.4</ele>
        <time>2020-05-22T06:52:36.000Z</time>
      </trkpt>
      <trkpt lat="44.8127" lon="4.57628">
        <ele>233.6</ele>
        <time>2020-05-22T06:52:39.000Z</time>
      </trkpt>
      <trkpt lat="44.81258" lon="4.57624">
        <ele>233.9</ele>
        <time>2020-05-22T06:52:42.000Z</time>
      </trkpt>
      <trkpt lat="44.81247" lon="4.5762">
        <ele>234.1</ele>
        <time>2020-05-22T06:52:45.000Z</time>
      </trkpt>
      <trkpt lat="44.81234" lon="4.57618">
        <ele>234.4</ele>
        <time>2020-05-22T06:52:48.000Z</time>
      </trkpt>
      <trkpt lat="44.81223" lon="4.57618">
        <ele>234.7</ele>
        <time>2020-05-22T06:52:51.000Z</time>
      </trkpt>
      <trkpt lat="44.81212" lon="4.57616">
        <ele>235</ele>
        <time>2020-05-22T06:52:54.000Z</time>
      </trkpt>
      <trkpt lat="44.812" lon="4.57613">
        <ele>235.3</ele>
        <time>2020-05-22T06:52:57.000Z</time>
      </trkpt>
      <trkpt lat="44.81189" lon="4.57606">
        <ele>235.5</ele>
        <time>2020-05-22T06:53:00.000Z</time>
      </trkpt>
      <trkpt lat="44.81178" lon="4.57597">
        <ele>235.7</ele>
        <time>2020-05-22T06:53:03.000Z</time>
      </trkpt>
      <trkpt lat="44.81166" lon="4.57596">
        <ele>236.1</ele>
        <time>2020-05-22T06:53:06.000Z</time>
      </trkpt>
      <trkpt lat="44.81153" lon="4.576">
        <ele>236.5</ele>
        <time>2020-05-22T06:53:09.000Z</time>
      </trkpt>
      <trkpt lat="44.81141" lon="4.57594">
        <ele>237</ele>
        <time>2020-05-22T06:53:12.000Z</time>
      </trkpt>
      <trkpt lat="44.8113" lon="4.57583">
        <ele>237.4</ele>
        <time>2020-05-22T06:53:15.000Z</time>
      </trkpt>
      <trkpt lat="44.8112" lon="4.57572">
        <ele>237.9</ele>
        <time>2020-05-22T06:53:18.000Z</time>
      </trkpt>
      <trkpt lat="44.81112" lon="4.57561">
        <ele>238.2</ele>
        <time>2020-05-22T06:53:21.000Z</time>
      </trkpt>
      <trkpt lat="44.81101" lon="4.57552">
        <ele>238.5</ele>
        <time>2020-05-22T06:53:24.000Z</time>
      </trkpt>
      <trkpt lat="44.81091" lon="4.57542">
        <ele>238.9</ele>
        <time>2020-05-22T06:53:27.000Z</time>
      </trkpt>
      <trkpt lat="44.81082" lon="4.57529">
        <ele>239.3</ele>
        <time>2020-05-22T06:53:30.000Z</time>
      </trkpt>
      <trkpt lat="44.81073" lon="4.57515">
        <ele>239.6</ele>
        <time>2020-05-22T06:53:33.000Z</time>
      </trkpt>
      <trkpt lat="44.81065" lon="4.57502">
        <ele>239.9</ele>
        <time>2020-05-22T06:53:36.000Z</time>
      </trkpt>
      <trkpt lat="44.81058" lon="4.57488">
        <ele>240.2</ele>
        <time>2020-05-22T06:53:39.000Z</time>
      </trkpt>
      <trkpt lat="44.81053" lon="4.57473">
        <ele>240.5</ele>
        <time>2020-05-22T06:53:42.000Z</time>
      </trkpt>
      <trkpt lat="44.81047" lon="4.57458">
        <ele>240.9</ele>
        <time>2020-05-22T06:53:45.000Z</time>
      </trkpt>
      <trkpt lat="44.81042" lon="4.57442">
        <ele>241.2</ele>
        <time>2020-05-22T06:53:48.000Z</time>
      </trkpt>
      <trkpt lat="44.81039" lon="4.57426">
        <ele>241.5</ele>
        <time>2020-05-22T06:53:51.000Z</time>
      </trkpt>
      <trkpt lat="44.81035" lon="4.5741">
        <ele>241.7</ele>
        <time>2020-05-22T06:53:54.000Z</time>
      </trkpt>
      <trkpt lat="44.81029" lon="4.57395">
        <ele>241.8</ele>
        <time>2020-05-22T06:53:57.000Z</time>
      </trkpt>
      <trkpt lat="44.81022" lon="4.5738">
        <ele>242</ele>
        <time>2020-05-22T06:54:00.000Z</time>
      </trkpt>
      <trkpt lat="44.81015" lon="4.57365">
        <ele>242</ele>
        <time>2020-05-22T06:54:03.000Z</time>
      </trkpt>
      <trkpt lat="44.81007" lon="4.57353">
        <ele>242.1</ele>
        <time>2020-05-22T06:54:06.000Z</time>
      </trkpt>
      <trkpt lat="44.80996" lon="4.57344">
        <ele>242.2</ele>
        <time>2020-05-22T06:54:09.000Z</time>
      </trkpt>
      <trkpt lat="44.80985" lon="4.57334">
        <ele>242.3</ele>
        <time>2020-05-22T06:54:12.000Z</time>
      </trkpt>
      <trkpt lat="44.80974" lon="4.57324">
        <ele>242.6</ele>
        <time>2020-05-22T06:54:15.000Z</time>
      </trkpt>
      <trkpt lat="44.80964" lon="4.57314">
        <ele>243</ele>
        <time>2020-05-22T06:54:18.000Z</time>
      </trkpt>
      <trkpt lat="44.80954" lon="4.57303">
        <ele>243.3</ele>
        <time>2020-05-22T06:54:21.000Z</time>
      </trkpt>
      <trkpt lat="44.80945" lon="4.57291">
        <ele>243.6</ele>
        <time>2020-05-22T06:54:24.000Z</time>
      </trkpt>
      <trkpt lat="44.80936" lon="4.57278">
        <ele>243.8</ele>
        <time>2020-05-22T06:54:27.000Z</time>
      </trkpt>
      <trkpt lat="44.8093" lon="4.57262">
        <ele>244.1</ele>
        <time>2020-05-22T06:54:30.000Z</time>
      </trkpt>
      <trkpt lat="44.80925" lon="4.57245">
        <ele>244.3</ele>
        <time>2020-05-22T06:54:33.000Z</time>
      </trkpt>
      <trkpt lat="44.80919" lon="4.57229">
        <ele>244.4</ele>
        <time>2020-05-22T06:54:36.000Z</time>
      </trkpt>
      <trkpt lat="44.80913" lon="4.57213">
        <ele>244.5</ele>
        <time>2020-05-22T06:54:39.000Z</time>
      </trkpt>
      <trkpt lat="44.80908" lon="4.57197">
        <ele>244.6</ele>
        <time>2020-05-22T06:54:42.000Z</time>
      </trkpt>
      <trkpt lat="44.80903" lon="4.5718">
        <ele>244.8</ele>
        <time>2020-05-22T06:54:45.000Z</time>
      </trkpt>
      <trkpt lat="44.80898" lon="4.57164">
        <ele>245.2</ele>
        <time>2020-05-22T06:54:48.000Z</time>
      </trkpt>
      <trkpt lat="44.80893" lon="4.57149">
        <ele>245.8</ele>
        <time>2020-05-22T06:54:51.000Z</time>
      </trkpt>
      <trkpt lat="44.80889" lon="4.57134">
        <ele>246.4</ele>
        <time>2020-05-22T06:54:54.000Z</time>
      </trkpt>
      <trkpt lat="44.80883" lon="4.5712">
        <ele>247</ele>
        <time>2020-05-22T06:54:57.000Z</time>
      </trkpt>
      <trkpt lat="44.80877" lon="4.57105">
        <ele>247.5</ele>
        <time>2020-05-22T06:55:00.000Z</time>
      </trkpt>
      <trkpt lat="44.8087" lon="4.5709">
        <ele>247.9</ele>
        <time>2020-05-22T06:55:03.000Z</time>
      </trkpt>
      <trkpt lat="44.80864" lon="4.57076">
        <ele>248.3</ele>
        <time>2020-05-22T06:55:06.000Z</time>
      </trkpt>
      <trkpt lat="44.80859" lon="4.57062">
        <ele>248.7</ele>
        <time>2020-05-22T06:55:09.000Z</time>
      </trkpt>
      <trkpt lat="44.80856" lon="4.57045">
        <ele>249.1</ele>
        <time>2020-05-22T06:55:12.000Z</time>
      </trkpt>
      <trkpt lat="44.80849" lon="4.57032">
        <ele>249.5</ele>
        <time>2020-05-22T06:55:15.000Z</time>
      </trkpt>
      <trkpt lat="44.80843" lon="4.57018">
        <ele>249.9</ele>
        <time>2020-05-22T06:55:18.000Z</time>
      </trkpt>
      <trkpt lat="44.80842" lon="4.57">
        <ele>250.4</ele>
        <time>2020-05-22T06:55:21.000Z</time>
      </trkpt>
      <trkpt lat="44.80844" lon="4.56985">
        <ele>250.8</ele>
        <time>2020-05-22T06:55:24.000Z</time>
      </trkpt>
      <trkpt lat="44.80847" lon="4.56972">
        <ele>251.3</ele>
        <time>2020-05-22T06:55:27.000Z</time>
      </trkpt>
      <trkpt lat="44.80846" lon="4.56956">
        <ele>251.9</ele>
        <time>2020-05-22T06:55:30.000Z</time>
      </trkpt>
      <trkpt lat="44.80841" lon="4.56945">
        <ele>252.6</ele>
        <time>2020-05-22T06:55:33.000Z</time>
      </trkpt>
      <trkpt lat="44.80829" lon="4.56939">
        <ele>253.3</ele>
        <time>2020-05-22T06:55:36.000Z</time>
      </trkpt>
      <trkpt lat="44.80819" lon="4.56933">
        <ele>253.9</ele>
        <time>2020-05-22T06:55:39.000Z</time>
      </trkpt>
      <trkpt lat="44.8081" lon="4.56926">
        <ele>254.5</ele>
        <time>2020-05-22T06:55:42.000Z</time>
      </trkpt>
      <trkpt lat="44.80805" lon="4.56913">
        <ele>255</ele>
        <time>2020-05-22T06:55:45.000Z</time>
      </trkpt>
      <trkpt lat="44.80801" lon="4.56898">
        <ele>255.5</ele>
        <time>2020-05-22T06:55:48.000Z</time>
      </trkpt>
      <trkpt lat="44.80797" lon="4.56884">
        <ele>255.9</ele>
        <time>2020-05-22T06:55:51.000Z</time>
      </trkpt>
      <trkpt lat="44.8079" lon="4.56873">
        <ele>256.4</ele>
        <time>2020-05-22T06:55:54.000Z</time>
      </trkpt>
      <trkpt lat="44.80779" lon="4.56867">
        <ele>257</ele>
        <time>2020-05-22T06:55:57.000Z</time>
      </trkpt>
      <trkpt lat="44.80771" lon="4.56857">
        <ele>257.4</ele>
        <time>2020-05-22T06:56:00.000Z</time>
      </trkpt>
      <trkpt lat="44.80764" lon="4.56844">
        <ele>257.8</ele>
        <time>2020-05-22T06:56:03.000Z</time>
      </trkpt>
      <trkpt lat="44.80759" lon="4.5683">
        <ele>257.9</ele>
        <time>2020-05-22T06:56:06.000Z</time>
      </trkpt>
      <trkpt lat="44.80755" lon="4.56815">
        <ele>258.1</ele>
        <time>2020-05-22T06:56:09.000Z</time>
      </trkpt>
      <trkpt lat="44.8075" lon="4.56801">
        <ele>258.3</ele>
        <time>2020-05-22T06:56:12.000Z</time>
      </trkpt>
      <trkpt lat="44.80744" lon="4.56788">
        <ele>258.6</ele>
        <time>2020-05-22T06:56:15.000Z</time>
      </trkpt>
      <trkpt lat="44.80737" lon="4.56775">
        <ele>259</ele>
        <time>2020-05-22T06:56:18.000Z</time>
      </trkpt>
      <trkpt lat="44.80731" lon="4.56761">
        <ele>259.3</ele>
        <time>2020-05-22T06:56:21.000Z</time>
      </trkpt>
      <trkpt lat="44.80729" lon="4.56746">
        <ele>259.6</ele>
        <time>2020-05-22T06:56:24.000Z</time>
      </trkpt>
      <trkpt lat="44.80729" lon="4.5673">
        <ele>260</ele>
        <time>2020-05-22T06:56:27.000Z</time>
      </trkpt>
      <trkpt lat="44.80733" lon="4.56714">
        <ele>260.3</ele>
        <time>2020-05-22T06:56:30.000Z</time>
      </trkpt>
      <trkpt lat="44.80741" lon="4.567">
        <ele>260.7</ele>
        <time>2020-05-22T06:56:33.000Z</time>
      </trkpt>
      <trkpt lat="44.80751" lon="4.56691">
        <ele>261.1</ele>
        <time>2020-05-22T06:56:36.000Z</time>
      </trkpt>
      <trkpt lat="44.80761" lon="4.56681">
        <ele>261.6</ele>
        <time>2020-05-22T06:56:39.000Z</time>
      </trkpt>
      <trkpt lat="44.8077" lon="4.56672">
        <ele>262</ele>
        <time>2020-05-22T06:56:42.000Z</time>
      </trkpt>
      <trkpt lat="44.80779" lon="4.56661">
        <ele>262.6</ele>
        <time>2020-05-22T06:56:45.000Z</time>
      </trkpt>
      <trkpt lat="44.80786" lon="4.56649">
        <ele>263.3</ele>
        <time>2020-05-22T06:56:48.000Z</time>
      </trkpt>
      <trkpt lat="44.80793" lon="4.56636">
        <ele>263.8</ele>
        <time>2020-05-22T06:56:51.000Z</time>
      </trkpt>
      <trkpt lat="44.80798" lon="4.56623">
        <ele>264.3</ele>
        <time>2020-05-22T06:56:54.000Z</time>
      </trkpt>
      <trkpt lat="44.80802" lon="4.56608">
        <ele>264.7</ele>
        <time>2020-05-22T06:56:57.000Z</time>
      </trkpt>
      <trkpt lat="44.80802" lon="4.56591">
        <ele>265.2</ele>
        <time>2020-05-22T06:57:00.000Z</time>
      </trkpt>
      <trkpt lat="44.80803" lon="4.56575">
        <ele>265.8</ele>
        <time>2020-05-22T06:57:03.000Z</time>
      </trkpt>
      <trkpt lat="44.80804" lon="4.56559">
        <ele>266.4</ele>
        <time>2020-05-22T06:57:06.000Z</time>
      </trkpt>
      <trkpt lat="44.80804" lon="4.56542">
        <ele>266.9</ele>
        <time>2020-05-22T06:57:09.000Z</time>
      </trkpt>
      <trkpt lat="44.80802" lon="4.56526">
        <ele>267.4</ele>
        <time>2020-05-22T06:57:12.000Z</time>
      </trkpt>
      <trkpt lat="44.80798" lon="4.56511">
        <ele>267.8</ele>
        <time>2020-05-22T06:57:15.000Z</time>
      </trkpt>
      <trkpt lat="44.80794" lon="4.56495">
        <ele>268.3</ele>
        <time>2020-05-22T06:57:18.000Z</time>
      </trkpt>
      <trkpt lat="44.8079" lon="4.5648">
        <ele>268.8</ele>
        <time>2020-05-22T06:57:21.000Z</time>
      </trkpt>
      <trkpt lat="44.80787" lon="4.56465">
        <ele>269.2</ele>
        <time>2020-05-22T06:57:24.000Z</time>
      </trkpt>
      <trkpt lat="44.80786" lon="4.56448">
        <ele>269.6</ele>
        <time>2020-05-22T06:57:27.000Z</time>
      </trkpt>
      <trkpt lat="44.80785" lon="4.56431">
        <ele>270</ele>
        <time>2020-05-22T06:57:30.000Z</time>
      </trkpt>
      <trkpt lat="44.80778" lon="4.56418">
        <ele>270.4</ele>
        <time>2020-05-22T06:57:33.000Z</time>
      </trkpt>
      <trkpt lat="44.80766" lon="4.56415">
        <ele>270.8</ele>
        <time>2020-05-22T06:57:36.000Z</time>
      </trkpt>
      <trkpt lat="44.80755" lon="4.56409">
        <ele>271.1</ele>
        <time>2020-05-22T06:57:39.000Z</time>
      </trkpt>
      <trkpt lat="44.80747" lon="4.56399">
        <ele>271.3</ele>
        <time>2020-05-22T06:57:43.000Z</time>
      </trkpt>
      <trkpt lat="44.80738" lon="4.56391">
        <ele>271.3</ele>
        <time>2020-05-22T06:57:47.000Z</time>
      </trkpt>
      <trkpt lat="44.80727" lon="4.56384">
        <ele>271</ele>
        <time>2020-05-22T06:57:50.000Z</time>
      </trkpt>
      <trkpt lat="44.80715" lon="4.56376">
        <ele>270.8</ele>
        <time>2020-05-22T06:57:53.000Z</time>
      </trkpt>
      <trkpt lat="44.80706" lon="4.56371">
        <ele>270.7</ele>
        <time>2020-05-22T06:57:55.000Z</time>
      </trkpt>
      <trkpt lat="44.80697" lon="4.56366">
        <ele>270.6</ele>
        <time>2020-05-22T06:57:57.000Z</time>
      </trkpt>
      <trkpt lat="44.80689" lon="4.56361">
        <ele>270.6</ele>
        <time>2020-05-22T06:57:59.000Z</time>
      </trkpt>
      <trkpt lat="44.8068" lon="4.56354">
        <ele>270.7</ele>
        <time>2020-05-22T06:58:01.000Z</time>
      </trkpt>
      <trkpt lat="44.80672" lon="4.56346">
        <ele>270.7</ele>
        <time>2020-05-22T06:58:03.000Z</time>
      </trkpt>
      <trkpt lat="44.80665" lon="4.56336">
        <ele>270.8</ele>
        <time>2020-05-22T06:58:05.000Z</time>
      </trkpt>
      <trkpt lat="44.8066" lon="4.56324">
        <ele>270.8</ele>
        <time>2020-05-22T06:58:07.000Z</time>
      </trkpt>
      <trkpt lat="44.80656" lon="4.56311">
        <ele>270.9</ele>
        <time>2020-05-22T06:58:09.000Z</time>
      </trkpt>
      <trkpt lat="44.80656" lon="4.56296">
        <ele>271</ele>
        <time>2020-05-22T06:58:11.000Z</time>
      </trkpt>
      <trkpt lat="44.8065" lon="4.56284">
        <ele>271.1</ele>
        <time>2020-05-22T06:58:13.000Z</time>
      </trkpt>
      <trkpt lat="44.8064" lon="4.56279">
        <ele>271.2</ele>
        <time>2020-05-22T06:58:15.000Z</time>
      </trkpt>
      <trkpt lat="44.8063" lon="4.56279">
        <ele>271.3</ele>
        <time>2020-05-22T06:58:17.000Z</time>
      </trkpt>
      <trkpt lat="44.8062" lon="4.56281">
        <ele>271.5</ele>
        <time>2020-05-22T06:58:19.000Z</time>
      </trkpt>
      <trkpt lat="44.80611" lon="4.56273">
        <ele>271.6</ele>
        <time>2020-05-22T06:58:21.000Z</time>
      </trkpt>
      <trkpt lat="44.80608" lon="4.5626">
        <ele>271.6</ele>
        <time>2020-05-22T06:58:23.000Z</time>
      </trkpt>
      <trkpt lat="44.80606" lon="4.56246">
        <ele>271.7</ele>
        <time>2020-05-22T06:58:25.000Z</time>
      </trkpt>
      <trkpt lat="44.80605" lon="4.56232">
        <ele>271.8</ele>
        <time>2020-05-22T06:58:27.000Z</time>
      </trkpt>
      <trkpt lat="44.80603" lon="4.56218">
        <ele>272</ele>
        <time>2020-05-22T06:58:29.000Z</time>
      </trkpt>
      <trkpt lat="44.80599" lon="4.56205">
        <ele>272.1</ele>
        <time>2020-05-22T06:58:31.000Z</time>
      </trkpt>
      <trkpt lat="44.80596" lon="4.56192">
        <ele>272.3</ele>
        <time>2020-05-22T06:58:33.000Z</time>
      </trkpt>
      <trkpt lat="44.80591" lon="4.5618">
        <ele>272.5</ele>
        <time>2020-05-22T06:58:35.000Z</time>
      </trkpt>
      <trkpt lat="44.80586" lon="4.56169">
        <ele>272.7</ele>
        <time>2020-05-22T06:58:37.000Z</time>
      </trkpt>
      <trkpt lat="44.80579" lon="4.56158">
        <ele>272.8</ele>
        <time>2020-05-22T06:58:39.000Z</time>
      </trkpt>
      <trkpt lat="44.80571" lon="4.56148">
        <ele>273</ele>
        <time>2020-05-22T06:58:41.000Z</time>
      </trkpt>
      <trkpt lat="44.80564" lon="4.56137">
        <ele>273.2</ele>
        <time>2020-05-22T06:58:43.000Z</time>
      </trkpt>
      <trkpt lat="44.80559" lon="4.56124">
        <ele>273.3</ele>
        <time>2020-05-22T06:58:45.000Z</time>
      </trkpt>
      <trkpt lat="44.80555" lon="4.5611">
        <ele>273.3</ele>
        <time>2020-05-22T06:58:47.000Z</time>
      </trkpt>
      <trkpt lat="44.8055" lon="4.56096">
        <ele>273.4</ele>
        <time>2020-05-22T06:58:49.000Z</time>
      </trkpt>
      <trkpt lat="44.80543" lon="4.56085">
        <ele>273.4</ele>
        <time>2020-05-22T06:58:51.000Z</time>
      </trkpt>
      <trkpt lat="44.80532" lon="4.56081">
        <ele>273.5</ele>
        <time>2020-05-22T06:58:53.000Z</time>
      </trkpt>
      <trkpt lat="44.80521" lon="4.56084">
        <ele>273.5</ele>
        <time>2020-05-22T06:58:55.000Z</time>
      </trkpt>
      <trkpt lat="44.80511" lon="4.56088">
        <ele>273.6</ele>
        <time>2020-05-22T06:58:57.000Z</time>
      </trkpt>
      <trkpt lat="44.805" lon="4.5609">
        <ele>273.6</ele>
        <time>2020-05-22T06:58:59.000Z</time>
      </trkpt>
      <trkpt lat="44.8049" lon="4.56083">
        <ele>273.6</ele>
        <time>2020-05-22T06:59:01.000Z</time>
      </trkpt>
      <trkpt lat="44.80484" lon="4.56072">
        <ele>273.7</ele>
        <time>2020-05-22T06:59:03.000Z</time>
      </trkpt>
      <trkpt lat="44.80479" lon="4.56059">
        <ele>273.7</ele>
        <time>2020-05-22T06:59:05.000Z</time>
      </trkpt>
      <trkpt lat="44.80475" lon="4.56047">
        <ele>273.9</ele>
        <time>2020-05-22T06:59:07.000Z</time>
      </trkpt>
      <trkpt lat="44.80471" lon="4.56035">
        <ele>274.2</ele>
        <time>2020-05-22T06:59:09.000Z</time>
      </trkpt>
      <trkpt lat="44.80467" lon="4.56023">
        <ele>274.5</ele>
        <time>2020-05-22T06:59:11.000Z</time>
      </trkpt>
      <trkpt lat="44.80463" lon="4.56011">
        <ele>274.8</ele>
        <time>2020-05-22T06:59:13.000Z</time>
      </trkpt>
      <trkpt lat="44.80457" lon="4.55995">
        <ele>275.2</ele>
        <time>2020-05-22T06:59:16.000Z</time>
      </trkpt>
      <trkpt lat="44.80452" lon="4.55978">
        <ele>275.6</ele>
        <time>2020-05-22T06:59:19.000Z</time>
      </trkpt>
      <trkpt lat="44.80447" lon="4.55962">
        <ele>275.9</ele>
        <time>2020-05-22T06:59:22.000Z</time>
      </trkpt>
      <trkpt lat="44.80442" lon="4.55945">
        <ele>276.3</ele>
        <time>2020-05-22T06:59:25.000Z</time>
      </trkpt>
      <trkpt lat="44.80436" lon="4.55934">
        <ele>276.5</ele>
        <time>2020-05-22T06:59:27.000Z</time>
      </trkpt>
      <trkpt lat="44.8043" lon="4.55925">
        <ele>276.7</ele>
        <time>2020-05-22T06:59:29.000Z</time>
      </trkpt>
      <trkpt lat="44.80423" lon="4.55916">
        <ele>276.9</ele>
        <time>2020-05-22T06:59:31.000Z</time>
      </trkpt>
      <trkpt lat="44.80416" lon="4.55907">
        <ele>277.1</ele>
        <time>2020-05-22T06:59:33.000Z</time>
      </trkpt>
      <trkpt lat="44.8041" lon="4.55897">
        <ele>277.2</ele>
        <time>2020-05-22T06:59:35.000Z</time>
      </trkpt>
      <trkpt lat="44.80404" lon="4.55887">
        <ele>277.3</ele>
        <time>2020-05-22T06:59:37.000Z</time>
      </trkpt>
      <trkpt lat="44.80402" lon="4.55874">
        <ele>277.4</ele>
        <time>2020-05-22T06:59:39.000Z</time>
      </trkpt>
      <trkpt lat="44.80401" lon="4.55861">
        <ele>277.4</ele>
        <time>2020-05-22T06:59:41.000Z</time>
      </trkpt>
      <trkpt lat="44.80402" lon="4.55848">
        <ele>277.4</ele>
        <time>2020-05-22T06:59:43.000Z</time>
      </trkpt>
      <trkpt lat="44.80404" lon="4.55835">
        <ele>277.4</ele>
        <time>2020-05-22T06:59:45.000Z</time>
      </trkpt>
      <trkpt lat="44.80406" lon="4.55822">
        <ele>277.5</ele>
        <time>2020-05-22T06:59:47.000Z</time>
      </trkpt>
      <trkpt lat="44.80408" lon="4.55808">
        <ele>277.5</ele>
        <time>2020-05-22T06:59:49.000Z</time>
      </trkpt>
      <trkpt lat="44.80411" lon="4.55794">
        <ele>277.5</ele>
        <time>2020-05-22T06:59:51.000Z</time>
      </trkpt>
      <trkpt lat="44.80413" lon="4.5578">
        <ele>277.6</ele>
        <time>2020-05-22T06:59:53.000Z</time>
      </trkpt>
      <trkpt lat="44.80416" lon="4.55766">
        <ele>277.7</ele>
        <time>2020-05-22T06:59:55.000Z</time>
      </trkpt>
      <trkpt lat="44.80418" lon="4.5575">
        <ele>277.7</ele>
        <time>2020-05-22T06:59:57.000Z</time>
      </trkpt>
      <trkpt lat="44.80415" lon="4.55736">
        <ele>277.8</ele>
        <time>2020-05-22T06:59:59.000Z</time>
      </trkpt>
      <trkpt lat="44.80411" lon="4.55722">
        <ele>278</ele>
        <time>2020-05-22T07:00:01.000Z</time>
      </trkpt>
      <trkpt lat="44.80407" lon="4.55707">
        <ele>278.1</ele>
        <time>2020-05-22T07:00:03.000Z</time>
      </trkpt>
      <trkpt lat="44.80401" lon="4.55694">
        <ele>278.2</ele>
        <time>2020-05-22T07:00:05.000Z</time>
      </trkpt>
      <trkpt lat="44.80394" lon="4.55681">
        <ele>278.3</ele>
        <time>2020-05-22T07:00:07.000Z</time>
      </trkpt>
      <trkpt lat="44.80388" lon="4.55668">
        <ele>278.4</ele>
        <time>2020-05-22T07:00:09.000Z</time>
      </trkpt>
      <trkpt lat="44.80381" lon="4.55655">
        <ele>278.5</ele>
        <time>2020-05-22T07:00:11.000Z</time>
      </trkpt>
      <trkpt lat="44.80372" lon="4.55645">
        <ele>278.6</ele>
        <time>2020-05-22T07:00:13.000Z</time>
      </trkpt>
      <trkpt lat="44.80364" lon="4.55636">
        <ele>278.6</ele>
        <time>2020-05-22T07:00:15.000Z</time>
      </trkpt>
      <trkpt lat="44.80357" lon="4.55626">
        <ele>278.7</ele>
        <time>2020-05-22T07:00:17.000Z</time>
      </trkpt>
      <trkpt lat="44.80352" lon="4.55613">
        <ele>278.7</ele>
        <time>2020-05-22T07:00:19.000Z</time>
      </trkpt>
      <trkpt lat="44.80347" lon="4.556">
        <ele>278.8</ele>
        <time>2020-05-22T07:00:21.000Z</time>
      </trkpt>
      <trkpt lat="44.80341" lon="4.55589">
        <ele>279</ele>
        <time>2020-05-22T07:00:23.000Z</time>
      </trkpt>
      <trkpt lat="44.80332" lon="4.55582">
        <ele>279.1</ele>
        <time>2020-05-22T07:00:25.000Z</time>
      </trkpt>
      <trkpt lat="44.80322" lon="4.5558">
        <ele>279.2</ele>
        <time>2020-05-22T07:00:27.000Z</time>
      </trkpt>
      <trkpt lat="44.80312" lon="4.55576">
        <ele>279.3</ele>
        <time>2020-05-22T07:00:29.000Z</time>
      </trkpt>
      <trkpt lat="44.80304" lon="4.55569">
        <ele>279.5</ele>
        <time>2020-05-22T07:00:31.000Z</time>
      </trkpt>
      <trkpt lat="44.80296" lon="4.55559">
        <ele>279.8</ele>
        <time>2020-05-22T07:00:33.000Z</time>
      </trkpt>
      <trkpt lat="44.8029" lon="4.55547">
        <ele>279.9</ele>
        <time>2020-05-22T07:00:35.000Z</time>
      </trkpt>
      <trkpt lat="44.80285" lon="4.55535">
        <ele>280</ele>
        <time>2020-05-22T07:00:37.000Z</time>
      </trkpt>
      <trkpt lat="44.80279" lon="4.55523">
        <ele>280.2</ele>
        <time>2020-05-22T07:00:39.000Z</time>
      </trkpt>
      <trkpt lat="44.80272" lon="4.55511">
        <ele>280.3</ele>
        <time>2020-05-22T07:00:41.000Z</time>
      </trkpt>
      <trkpt lat="44.80265" lon="4.55501">
        <ele>280.5</ele>
        <time>2020-05-22T07:00:43.000Z</time>
      </trkpt>
      <trkpt lat="44.80258" lon="4.5549">
        <ele>280.6</ele>
        <time>2020-05-22T07:00:45.000Z</time>
      </trkpt>
      <trkpt lat="44.80252" lon="4.55478">
        <ele>280.8</ele>
        <time>2020-05-22T07:00:47.000Z</time>
      </trkpt>
      <trkpt lat="44.80246" lon="4.55465">
        <ele>281</ele>
        <time>2020-05-22T07:00:49.000Z</time>
      </trkpt>
      <trkpt lat="44.80242" lon="4.55451">
        <ele>281.3</ele>
        <time>2020-05-22T07:00:51.000Z</time>
      </trkpt>
      <trkpt lat="44.80239" lon="4.55437">
        <ele>281.4</ele>
        <time>2020-05-22T07:00:53.000Z</time>
      </trkpt>
      <trkpt lat="44.80239" lon="4.55422">
        <ele>281.6</ele>
        <time>2020-05-22T07:00:55.000Z</time>
      </trkpt>
      <trkpt lat="44.80236" lon="4.55408">
        <ele>281.7</ele>
        <time>2020-05-22T07:00:57.000Z</time>
      </trkpt>
      <trkpt lat="44.8023" lon="4.55395">
        <ele>281.8</ele>
        <time>2020-05-22T07:00:59.000Z</time>
      </trkpt>
      <trkpt lat="44.80223" lon="4.55385">
        <ele>282</ele>
        <time>2020-05-22T07:01:01.000Z</time>
      </trkpt>
      <trkpt lat="44.80218" lon="4.55374">
        <ele>282.2</ele>
        <time>2020-05-22T07:01:03.000Z</time>
      </trkpt>
      <trkpt lat="44.80214" lon="4.5536">
        <ele>282.3</ele>
        <time>2020-05-22T07:01:05.000Z</time>
      </trkpt>
      <trkpt lat="44.80213" lon="4.55347">
        <ele>282.4</ele>
        <time>2020-05-22T07:01:07.000Z</time>
      </trkpt>
      <trkpt lat="44.80212" lon="4.55333">
        <ele>282.5</ele>
        <time>2020-05-22T07:01:09.000Z</time>
      </trkpt>
      <trkpt lat="44.80211" lon="4.55319">
        <ele>282.5</ele>
        <time>2020-05-22T07:01:11.000Z</time>
      </trkpt>
      <trkpt lat="44.80208" lon="4.55306">
        <ele>282.6</ele>
        <time>2020-05-22T07:01:13.000Z</time>
      </trkpt>
      <trkpt lat="44.80201" lon="4.55295">
        <ele>282.6</ele>
        <time>2020-05-22T07:01:15.000Z</time>
      </trkpt>
      <trkpt lat="44.80195" lon="4.55285">
        <ele>282.7</ele>
        <time>2020-05-22T07:01:17.000Z</time>
      </trkpt>
      <trkpt lat="44.80186" lon="4.55277">
        <ele>282.9</ele>
        <time>2020-05-22T07:01:19.000Z</time>
      </trkpt>
      <trkpt lat="44.80178" lon="4.55268">
        <ele>283.1</ele>
        <time>2020-05-22T07:01:21.000Z</time>
      </trkpt>
      <trkpt lat="44.80173" lon="4.55257">
        <ele>283.3</ele>
        <time>2020-05-22T07:01:23.000Z</time>
      </trkpt>
      <trkpt lat="44.8017" lon="4.55245">
        <ele>283.5</ele>
        <time>2020-05-22T07:01:25.000Z</time>
      </trkpt>
      <trkpt lat="44.80165" lon="4.55235">
        <ele>283.7</ele>
        <time>2020-05-22T07:01:27.000Z</time>
      </trkpt>
      <trkpt lat="44.80157" lon="4.55226">
        <ele>284</ele>
        <time>2020-05-22T07:01:29.000Z</time>
      </trkpt>
      <trkpt lat="44.80149" lon="4.55221">
        <ele>284.1</ele>
        <time>2020-05-22T07:01:31.000Z</time>
      </trkpt>
      <trkpt lat="44.8014" lon="4.55215">
        <ele>284.3</ele>
        <time>2020-05-22T07:01:33.000Z</time>
      </trkpt>
      <trkpt lat="44.80132" lon="4.55207">
        <ele>284.4</ele>
        <time>2020-05-22T07:01:35.000Z</time>
      </trkpt>
      <trkpt lat="44.80126" lon="4.55195">
        <ele>284.5</ele>
        <time>2020-05-22T07:01:37.000Z</time>
      </trkpt>
      <trkpt lat="44.80122" lon="4.5518">
        <ele>284.6</ele>
        <time>2020-05-22T07:01:39.000Z</time>
      </trkpt>
      <trkpt lat="44.8012" lon="4.55165">
        <ele>284.6</ele>
        <time>2020-05-22T07:01:41.000Z</time>
      </trkpt>
      <trkpt lat="44.80118" lon="4.5515">
        <ele>284.6</ele>
        <time>2020-05-22T07:01:43.000Z</time>
      </trkpt>
      <trkpt lat="44.80117" lon="4.55136">
        <ele>284.6</ele>
        <time>2020-05-22T07:01:45.000Z</time>
      </trkpt>
      <trkpt lat="44.80119" lon="4.55122">
        <ele>284.6</ele>
        <time>2020-05-22T07:01:47.000Z</time>
      </trkpt>
      <trkpt lat="44.80122" lon="4.55109">
        <ele>284.6</ele>
        <time>2020-05-22T07:01:49.000Z</time>
      </trkpt>
      <trkpt lat="44.80116" lon="4.55092">
        <ele>284.7</ele>
        <time>2020-05-22T07:01:52.000Z</time>
      </trkpt>
      <trkpt lat="44.801" lon="4.55101">
        <ele>285</ele>
        <time>2020-05-22T07:01:56.000Z</time>
      </trkpt>
      <trkpt lat="44.80088" lon="4.5512">
        <ele>285.3</ele>
        <time>2020-05-22T07:01:59.000Z</time>
      </trkpt>
      <trkpt lat="44.80082" lon="4.55134">
        <ele>285.4</ele>
        <time>2020-05-22T07:02:01.000Z</time>
      </trkpt>
      <trkpt lat="44.80072" lon="4.55141">
        <ele>285.5</ele>
        <time>2020-05-22T07:02:03.000Z</time>
      </trkpt>
      <trkpt lat="44.8006" lon="4.55143">
        <ele>285.7</ele>
        <time>2020-05-22T07:02:05.000Z</time>
      </trkpt>
      <trkpt lat="44.80048" lon="4.55143">
        <ele>286</ele>
        <time>2020-05-22T07:02:07.000Z</time>
      </trkpt>
      <trkpt lat="44.80036" lon="4.55142">
        <ele>286.2</ele>
        <time>2020-05-22T07:02:09.000Z</time>
      </trkpt>
      <trkpt lat="44.80024" lon="4.55142">
        <ele>286.4</ele>
        <time>2020-05-22T07:02:11.000Z</time>
      </trkpt>
      <trkpt lat="44.80013" lon="4.55142">
        <ele>286.6</ele>
        <time>2020-05-22T07:02:13.000Z</time>
      </trkpt>
      <trkpt lat="44.80001" lon="4.55141">
        <ele>286.7</ele>
        <time>2020-05-22T07:02:15.000Z</time>
      </trkpt>
      <trkpt lat="44.7999" lon="4.55141">
        <ele>286.8</ele>
        <time>2020-05-22T07:02:17.000Z</time>
      </trkpt>
      <trkpt lat="44.79978" lon="4.55139">
        <ele>286.8</ele>
        <time>2020-05-22T07:02:19.000Z</time>
      </trkpt>
      <trkpt lat="44.79966" lon="4.55135">
        <ele>286.9</ele>
        <time>2020-05-22T07:02:21.000Z</time>
      </trkpt>
      <trkpt lat="44.79955" lon="4.55129">
        <ele>286.9</ele>
        <time>2020-05-22T07:02:23.000Z</time>
      </trkpt>
      <trkpt lat="44.79945" lon="4.55122">
        <ele>286.9</ele>
        <time>2020-05-22T07:02:25.000Z</time>
      </trkpt>
      <trkpt lat="44.79935" lon="4.55112">
        <ele>287</ele>
        <time>2020-05-22T07:02:27.000Z</time>
      </trkpt>
      <trkpt lat="44.79927" lon="4.551">
        <ele>287</ele>
        <time>2020-05-22T07:02:29.000Z</time>
      </trkpt>
      <trkpt lat="44.7992" lon="4.55086">
        <ele>287.1</ele>
        <time>2020-05-22T07:02:31.000Z</time>
      </trkpt>
      <trkpt lat="44.79914" lon="4.55072">
        <ele>287.2</ele>
        <time>2020-05-22T07:02:33.000Z</time>
      </trkpt>
      <trkpt lat="44.79909" lon="4.55058">
        <ele>287.3</ele>
        <time>2020-05-22T07:02:35.000Z</time>
      </trkpt>
      <trkpt lat="44.79903" lon="4.55044">
        <ele>287.4</ele>
        <time>2020-05-22T07:02:37.000Z</time>
      </trkpt>
      <trkpt lat="44.79899" lon="4.55029">
        <ele>287.5</ele>
        <time>2020-05-22T07:02:39.000Z</time>
      </trkpt>
      <trkpt lat="44.79896" lon="4.55014">
        <ele>287.5</ele>
        <time>2020-05-22T07:02:41.000Z</time>
      </trkpt>
      <trkpt lat="44.79891" lon="4.54999">
        <ele>287.5</ele>
        <time>2020-05-22T07:02:43.000Z</time>
      </trkpt>
      <trkpt lat="44.79889" lon="4.54983">
        <ele>287.5</ele>
        <time>2020-05-22T07:02:45.000Z</time>
      </trkpt>
      <trkpt lat="44.79887" lon="4.54966">
        <ele>287.5</ele>
        <time>2020-05-22T07:02:47.000Z</time>
      </trkpt>
      <trkpt lat="44.79884" lon="4.54952">
        <ele>287.6</ele>
        <time>2020-05-22T07:02:49.000Z</time>
      </trkpt>
      <trkpt lat="44.79885" lon="4.54936">
        <ele>287.6</ele>
        <time>2020-05-22T07:02:51.000Z</time>
      </trkpt>
      <trkpt lat="44.79887" lon="4.54919">
        <ele>287.7</ele>
        <time>2020-05-22T07:02:53.000Z</time>
      </trkpt>
      <trkpt lat="44.79887" lon="4.54903">
        <ele>287.7</ele>
        <time>2020-05-22T07:02:55.000Z</time>
      </trkpt>
      <trkpt lat="44.79887" lon="4.54887">
        <ele>287.8</ele>
        <time>2020-05-22T07:02:57.000Z</time>
      </trkpt>
      <trkpt lat="44.79886" lon="4.54871">
        <ele>287.9</ele>
        <time>2020-05-22T07:02:59.000Z</time>
      </trkpt>
      <trkpt lat="44.79884" lon="4.54854">
        <ele>288</ele>
        <time>2020-05-22T07:03:01.000Z</time>
      </trkpt>
      <trkpt lat="44.79882" lon="4.54839">
        <ele>288.1</ele>
        <time>2020-05-22T07:03:03.000Z</time>
      </trkpt>
      <trkpt lat="44.79882" lon="4.54822">
        <ele>288.2</ele>
        <time>2020-05-22T07:03:05.000Z</time>
      </trkpt>
      <trkpt lat="44.79882" lon="4.54806">
        <ele>288.3</ele>
        <time>2020-05-22T07:03:07.000Z</time>
      </trkpt>
      <trkpt lat="44.79879" lon="4.5479">
        <ele>288.4</ele>
        <time>2020-05-22T07:03:09.000Z</time>
      </trkpt>
      <trkpt lat="44.79874" lon="4.54777">
        <ele>288.5</ele>
        <time>2020-05-22T07:03:11.000Z</time>
      </trkpt>
      <trkpt lat="44.79869" lon="4.54763">
        <ele>288.6</ele>
        <time>2020-05-22T07:03:13.000Z</time>
      </trkpt>
      <trkpt lat="44.79863" lon="4.54749">
        <ele>288.7</ele>
        <time>2020-05-22T07:03:15.000Z</time>
      </trkpt>
      <trkpt lat="44.79858" lon="4.54735">
        <ele>288.9</ele>
        <time>2020-05-22T07:03:17.000Z</time>
      </trkpt>
      <trkpt lat="44.79857" lon="4.54717">
        <ele>289</ele>
        <time>2020-05-22T07:03:19.000Z</time>
      </trkpt>
      <trkpt lat="44.79851" lon="4.54704">
        <ele>289.2</ele>
        <time>2020-05-22T07:03:21.000Z</time>
      </trkpt>
      <trkpt lat="44.7984" lon="4.54696">
        <ele>289.3</ele>
        <time>2020-05-22T07:03:23.000Z</time>
      </trkpt>
      <trkpt lat="44.79828" lon="4.5469">
        <ele>289.4</ele>
        <time>2020-05-22T07:03:25.000Z</time>
      </trkpt>
      <trkpt lat="44.79816" lon="4.54682">
        <ele>289.4</ele>
        <time>2020-05-22T07:03:27.000Z</time>
      </trkpt>
      <trkpt lat="44.79803" lon="4.54676">
        <ele>289.5</ele>
        <time>2020-05-22T07:03:29.000Z</time>
      </trkpt>
      <trkpt lat="44.7979" lon="4.54669">
        <ele>289.5</ele>
        <time>2020-05-22T07:03:31.000Z</time>
      </trkpt>
      <trkpt lat="44.79779" lon="4.5466">
        <ele>289.5</ele>
        <time>2020-05-22T07:03:33.000Z</time>
      </trkpt>
      <trkpt lat="44.79767" lon="4.54653">
        <ele>289.5</ele>
        <time>2020-05-22T07:03:35.000Z</time>
      </trkpt>
      <trkpt lat="44.79754" lon="4.54649">
        <ele>289.4</ele>
        <time>2020-05-22T07:03:37.000Z</time>
      </trkpt>
      <trkpt lat="44.79741" lon="4.54647">
        <ele>289.2</ele>
        <time>2020-05-22T07:03:39.000Z</time>
      </trkpt>
      <trkpt lat="44.79727" lon="4.54643">
        <ele>288.9</ele>
        <time>2020-05-22T07:03:41.000Z</time>
      </trkpt>
      <trkpt lat="44.79718" lon="4.54631">
        <ele>288.7</ele>
        <time>2020-05-22T07:03:43.000Z</time>
      </trkpt>
      <trkpt lat="44.79707" lon="4.54622">
        <ele>288.5</ele>
        <time>2020-05-22T07:03:45.000Z</time>
      </trkpt>
      <trkpt lat="44.79695" lon="4.54626">
        <ele>288.3</ele>
        <time>2020-05-22T07:03:47.000Z</time>
      </trkpt>
      <trkpt lat="44.79683" lon="4.54633">
        <ele>288.1</ele>
        <time>2020-05-22T07:03:49.000Z</time>
      </trkpt>
      <trkpt lat="44.79671" lon="4.54635">
        <ele>288</ele>
        <time>2020-05-22T07:03:51.000Z</time>
      </trkpt>
      <trkpt lat="44.79659" lon="4.54634">
        <ele>287.8</ele>
        <time>2020-05-22T07:03:53.000Z</time>
      </trkpt>
      <trkpt lat="44.79647" lon="4.54632">
        <ele>287.8</ele>
        <time>2020-05-22T07:03:55.000Z</time>
      </trkpt>
      <trkpt lat="44.79635" lon="4.5463">
        <ele>287.8</ele>
        <time>2020-05-22T07:03:57.000Z</time>
      </trkpt>
      <trkpt lat="44.79623" lon="4.54627">
        <ele>287.7</ele>
        <time>2020-05-22T07:03:59.000Z</time>
      </trkpt>
      <trkpt lat="44.79612" lon="4.54624">
        <ele>287.8</ele>
        <time>2020-05-22T07:04:01.000Z</time>
      </trkpt>
      <trkpt lat="44.79599" lon="4.54621">
        <ele>287.9</ele>
        <time>2020-05-22T07:04:03.000Z</time>
      </trkpt>
      <trkpt lat="44.79588" lon="4.54619">
        <ele>288</ele>
        <time>2020-05-22T07:04:05.000Z</time>
      </trkpt>
      <trkpt lat="44.79576" lon="4.54618">
        <ele>288.2</ele>
        <time>2020-05-22T07:04:07.000Z</time>
      </trkpt>
      <trkpt lat="44.79566" lon="4.54614">
        <ele>288.3</ele>
        <time>2020-05-22T07:04:09.000Z</time>
      </trkpt>
      <trkpt lat="44.79555" lon="4.5461">
        <ele>288.4</ele>
        <time>2020-05-22T07:04:11.000Z</time>
      </trkpt>
      <trkpt lat="44.79545" lon="4.54604">
        <ele>288.4</ele>
        <time>2020-05-22T07:04:13.000Z</time>
      </trkpt>
      <trkpt lat="44.79533" lon="4.54597">
        <ele>288.2</ele>
        <time>2020-05-22T07:04:15.000Z</time>
      </trkpt>
      <trkpt lat="44.79521" lon="4.54587">
        <ele>287.9</ele>
        <time>2020-05-22T07:04:17.000Z</time>
      </trkpt>
      <trkpt lat="44.79507" lon="4.54578">
        <ele>287.3</ele>
        <time>2020-05-22T07:04:19.000Z</time>
      </trkpt>
      <trkpt lat="44.79493" lon="4.54569">
        <ele>286.7</ele>
        <time>2020-05-22T07:04:21.000Z</time>
      </trkpt>
      <trkpt lat="44.79478" lon="4.54562">
        <ele>286</ele>
        <time>2020-05-22T07:04:23.000Z</time>
      </trkpt>
      <trkpt lat="44.79465" lon="4.54554">
        <ele>285.5</ele>
        <time>2020-05-22T07:04:25.000Z</time>
      </trkpt>
      <trkpt lat="44.79452" lon="4.54547">
        <ele>285</ele>
        <time>2020-05-22T07:04:27.000Z</time>
      </trkpt>
      <trkpt lat="44.79441" lon="4.5454">
        <ele>284.7</ele>
        <time>2020-05-22T07:04:29.000Z</time>
      </trkpt>
      <trkpt lat="44.79431" lon="4.54532">
        <ele>284.4</ele>
        <time>2020-05-22T07:04:31.000Z</time>
      </trkpt>
      <trkpt lat="44.79421" lon="4.54522">
        <ele>284.1</ele>
        <time>2020-05-22T07:04:33.000Z</time>
      </trkpt>
      <trkpt lat="44.79413" lon="4.5451">
        <ele>284</ele>
        <time>2020-05-22T07:04:35.000Z</time>
      </trkpt>
      <trkpt lat="44.79407" lon="4.54495">
        <ele>283.9</ele>
        <time>2020-05-22T07:04:37.000Z</time>
      </trkpt>
      <trkpt lat="44.79401" lon="4.54481">
        <ele>283.9</ele>
        <time>2020-05-22T07:04:39.000Z</time>
      </trkpt>
      <trkpt lat="44.79395" lon="4.54466">
        <ele>284.1</ele>
        <time>2020-05-22T07:04:41.000Z</time>
      </trkpt>
      <trkpt lat="44.79389" lon="4.54453">
        <ele>284.2</ele>
        <time>2020-05-22T07:04:43.000Z</time>
      </trkpt>
      <trkpt lat="44.79384" lon="4.54438">
        <ele>284.5</ele>
        <time>2020-05-22T07:04:45.000Z</time>
      </trkpt>
      <trkpt lat="44.79379" lon="4.54424">
        <ele>284.7</ele>
        <time>2020-05-22T07:04:47.000Z</time>
      </trkpt>
      <trkpt lat="44.79377" lon="4.5441">
        <ele>284.9</ele>
        <time>2020-05-22T07:04:49.000Z</time>
      </trkpt>
      <trkpt lat="44.79373" lon="4.54396">
        <ele>285.1</ele>
        <time>2020-05-22T07:04:51.000Z</time>
      </trkpt>
      <trkpt lat="44.79371" lon="4.54381">
        <ele>285.5</ele>
        <time>2020-05-22T07:04:53.000Z</time>
      </trkpt>
      <trkpt lat="44.79368" lon="4.54368">
        <ele>285.8</ele>
        <time>2020-05-22T07:04:55.000Z</time>
      </trkpt>
      <trkpt lat="44.79364" lon="4.54354">
        <ele>286</ele>
        <time>2020-05-22T07:04:57.000Z</time>
      </trkpt>
      <trkpt lat="44.79357" lon="4.54342">
        <ele>286.3</ele>
        <time>2020-05-22T07:04:59.000Z</time>
      </trkpt>
      <trkpt lat="44.7935" lon="4.54331">
        <ele>286.5</ele>
        <time>2020-05-22T07:05:01.000Z</time>
      </trkpt>
      <trkpt lat="44.79344" lon="4.54321">
        <ele>286.8</ele>
        <time>2020-05-22T07:05:03.000Z</time>
      </trkpt>
      <trkpt lat="44.79337" lon="4.54311">
        <ele>287</ele>
        <time>2020-05-22T07:05:05.000Z</time>
      </trkpt>
      <trkpt lat="44.79329" lon="4.54301">
        <ele>287.2</ele>
        <time>2020-05-22T07:05:07.000Z</time>
      </trkpt>
      <trkpt lat="44.79322" lon="4.54292">
        <ele>287.3</ele>
        <time>2020-05-22T07:05:09.000Z</time>
      </trkpt>
      <trkpt lat="44.79314" lon="4.54283">
        <ele>287.5</ele>
        <time>2020-05-22T07:05:11.000Z</time>
      </trkpt>
      <trkpt lat="44.79306" lon="4.54275">
        <ele>287.6</ele>
        <time>2020-05-22T07:05:13.000Z</time>
      </trkpt>
      <trkpt lat="44.79298" lon="4.54267">
        <ele>287.8</ele>
        <time>2020-05-22T07:05:15.000Z</time>
      </trkpt>
      <trkpt lat="44.7929" lon="4.54258">
        <ele>287.9</ele>
        <time>2020-05-22T07:05:17.000Z</time>
      </trkpt>
      <trkpt lat="44.79282" lon="4.54249">
        <ele>288.1</ele>
        <time>2020-05-22T07:05:19.000Z</time>
      </trkpt>
      <trkpt lat="44.79274" lon="4.5424">
        <ele>288.2</ele>
        <time>2020-05-22T07:05:21.000Z</time>
      </trkpt>
      <trkpt lat="44.79267" lon="4.5423">
        <ele>288.3</ele>
        <time>2020-05-22T07:05:23.000Z</time>
      </trkpt>
      <trkpt lat="44.79261" lon="4.5422">
        <ele>288.5</ele>
        <time>2020-05-22T07:05:25.000Z</time>
      </trkpt>
      <trkpt lat="44.79255" lon="4.54209">
        <ele>288.7</ele>
        <time>2020-05-22T07:05:27.000Z</time>
      </trkpt>
      <trkpt lat="44.79249" lon="4.54199">
        <ele>288.9</ele>
        <time>2020-05-22T07:05:29.000Z</time>
      </trkpt>
      <trkpt lat="44.79243" lon="4.54188">
        <ele>289.1</ele>
        <time>2020-05-22T07:05:31.000Z</time>
      </trkpt>
      <trkpt lat="44.79238" lon="4.54177">
        <ele>289.2</ele>
        <time>2020-05-22T07:05:33.000Z</time>
      </trkpt>
      <trkpt lat="44.79233" lon="4.54166">
        <ele>289.4</ele>
        <time>2020-05-22T07:05:35.000Z</time>
      </trkpt>
      <trkpt lat="44.79227" lon="4.54155">
        <ele>289.4</ele>
        <time>2020-05-22T07:05:37.000Z</time>
      </trkpt>
      <trkpt lat="44.79221" lon="4.54144">
        <ele>289.4</ele>
        <time>2020-05-22T07:05:39.000Z</time>
      </trkpt>
      <trkpt lat="44.79216" lon="4.54133">
        <ele>289.5</ele>
        <time>2020-05-22T07:05:41.000Z</time>
      </trkpt>
      <trkpt lat="44.79209" lon="4.54122">
        <ele>289.6</ele>
        <time>2020-05-22T07:05:43.000Z</time>
      </trkpt>
      <trkpt lat="44.79203" lon="4.54112">
        <ele>289.7</ele>
        <time>2020-05-22T07:05:45.000Z</time>
      </trkpt>
      <trkpt lat="44.79196" lon="4.54102">
        <ele>289.7</ele>
        <time>2020-05-22T07:05:47.000Z</time>
      </trkpt>
      <trkpt lat="44.79189" lon="4.54092">
        <ele>289.8</ele>
        <time>2020-05-22T07:05:49.000Z</time>
      </trkpt>
      <trkpt lat="44.79182" lon="4.54082">
        <ele>289.8</ele>
        <time>2020-05-22T07:05:51.000Z</time>
      </trkpt>
      <trkpt lat="44.79175" lon="4.54071">
        <ele>289.9</ele>
        <time>2020-05-22T07:05:53.000Z</time>
      </trkpt>
      <trkpt lat="44.79169" lon="4.5406">
        <ele>289.9</ele>
        <time>2020-05-22T07:05:55.000Z</time>
      </trkpt>
      <trkpt lat="44.79163" lon="4.54049">
        <ele>290</ele>
        <time>2020-05-22T07:05:57.000Z</time>
      </trkpt>
      <trkpt lat="44.79158" lon="4.54037">
        <ele>290.2</ele>
        <time>2020-05-22T07:05:59.000Z</time>
      </trkpt>
      <trkpt lat="44.79154" lon="4.54024">
        <ele>290.3</ele>
        <time>2020-05-22T07:06:01.000Z</time>
      </trkpt>
      <trkpt lat="44.79148" lon="4.54013">
        <ele>290.4</ele>
        <time>2020-05-22T07:06:03.000Z</time>
      </trkpt>
      <trkpt lat="44.7914" lon="4.54004">
        <ele>290.5</ele>
        <time>2020-05-22T07:06:05.000Z</time>
      </trkpt>
      <trkpt lat="44.79132" lon="4.53997">
        <ele>290.6</ele>
        <time>2020-05-22T07:06:07.000Z</time>
      </trkpt>
      <trkpt lat="44.79124" lon="4.53991">
        <ele>290.6</ele>
        <time>2020-05-22T07:06:09.000Z</time>
      </trkpt>
      <trkpt lat="44.79111" lon="4.53984">
        <ele>290.9</ele>
        <time>2020-05-22T07:06:12.000Z</time>
      </trkpt>
      <trkpt lat="44.79101" lon="4.53976">
        <ele>291.6</ele>
        <time>2020-05-22T07:06:15.000Z</time>
      </trkpt>
      <trkpt lat="44.79091" lon="4.53967">
        <ele>292.3</ele>
        <time>2020-05-22T07:06:18.000Z</time>
      </trkpt>
      <trkpt lat="44.7908" lon="4.5396">
        <ele>293</ele>
        <time>2020-05-22T07:06:21.000Z</time>
      </trkpt>
      <trkpt lat="44.79069" lon="4.53953">
        <ele>293.7</ele>
        <time>2020-05-22T07:06:24.000Z</time>
      </trkpt>
      <trkpt lat="44.79058" lon="4.53948">
        <ele>294.3</ele>
        <time>2020-05-22T07:06:27.000Z</time>
      </trkpt>
      <trkpt lat="44.79047" lon="4.53944">
        <ele>294.8</ele>
        <time>2020-05-22T07:06:30.000Z</time>
      </trkpt>
      <trkpt lat="44.79036" lon="4.53941">
        <ele>295.2</ele>
        <time>2020-05-22T07:06:33.000Z</time>
      </trkpt>
      <trkpt lat="44.79025" lon="4.53939">
        <ele>295.6</ele>
        <time>2020-05-22T07:06:36.000Z</time>
      </trkpt>
      <trkpt lat="44.79014" lon="4.53937">
        <ele>296</ele>
        <time>2020-05-22T07:06:39.000Z</time>
      </trkpt>
      <trkpt lat="44.79003" lon="4.53934">
        <ele>296.5</ele>
        <time>2020-05-22T07:06:42.000Z</time>
      </trkpt>
      <trkpt lat="44.78992" lon="4.5393">
        <ele>296.9</ele>
        <time>2020-05-22T07:06:45.000Z</time>
      </trkpt>
      <trkpt lat="44.78981" lon="4.53924">
        <ele>297.3</ele>
        <time>2020-05-22T07:06:48.000Z</time>
      </trkpt>
      <trkpt lat="44.78971" lon="4.53917">
        <ele>297.6</ele>
        <time>2020-05-22T07:06:51.000Z</time>
      </trkpt>
      <trkpt lat="44.78961" lon="4.5391">
        <ele>298</ele>
        <time>2020-05-22T07:06:54.000Z</time>
      </trkpt>
      <trkpt lat="44.78951" lon="4.53904">
        <ele>298.3</ele>
        <time>2020-05-22T07:06:57.000Z</time>
      </trkpt>
      <trkpt lat="44.78941" lon="4.53898">
        <ele>298.7</ele>
        <time>2020-05-22T07:07:00.000Z</time>
      </trkpt>
      <trkpt lat="44.78931" lon="4.5389">
        <ele>299</ele>
        <time>2020-05-22T07:07:03.000Z</time>
      </trkpt>
      <trkpt lat="44.78922" lon="4.5388">
        <ele>299.3</ele>
        <time>2020-05-22T07:07:06.000Z</time>
      </trkpt>
      <trkpt lat="44.78915" lon="4.53869">
        <ele>299.7</ele>
        <time>2020-05-22T07:07:09.000Z</time>
      </trkpt>
      <trkpt lat="44.78907" lon="4.53858">
        <ele>300</ele>
        <time>2020-05-22T07:07:12.000Z</time>
      </trkpt>
      <trkpt lat="44.78899" lon="4.53846">
        <ele>300.4</ele>
        <time>2020-05-22T07:07:15.000Z</time>
      </trkpt>
      <trkpt lat="44.78892" lon="4.53833">
        <ele>300.7</ele>
        <time>2020-05-22T07:07:18.000Z</time>
      </trkpt>
      <trkpt lat="44.78887" lon="4.5382">
        <ele>301</ele>
        <time>2020-05-22T07:07:21.000Z</time>
      </trkpt>
      <trkpt lat="44.78885" lon="4.53805">
        <ele>301.3</ele>
        <time>2020-05-22T07:07:24.000Z</time>
      </trkpt>
      <trkpt lat="44.78886" lon="4.53789">
        <ele>301.7</ele>
        <time>2020-05-22T07:07:27.000Z</time>
      </trkpt>
      <trkpt lat="44.78874" lon="4.53774">
        <ele>302</ele>
        <time>2020-05-22T07:07:31.000Z</time>
      </trkpt>
      <trkpt lat="44.78871" lon="4.53757">
        <ele>302.6</ele>
        <time>2020-05-22T07:07:34.000Z</time>
      </trkpt>
      <trkpt lat="44.78868" lon="4.53741">
        <ele>302.9</ele>
        <time>2020-05-22T07:07:37.000Z</time>
      </trkpt>
      <trkpt lat="44.78871" lon="4.53728">
        <ele>303.1</ele>
        <time>2020-05-22T07:07:39.000Z</time>
      </trkpt>
      <trkpt lat="44.78869" lon="4.53713">
        <ele>303.5</ele>
        <time>2020-05-22T07:07:42.000Z</time>
      </trkpt>
      <trkpt lat="44.78867" lon="4.53698">
        <ele>304.1</ele>
        <time>2020-05-22T07:07:45.000Z</time>
      </trkpt>
      <trkpt lat="44.78864" lon="4.53683">
        <ele>304.8</ele>
        <time>2020-05-22T07:07:48.000Z</time>
      </trkpt>
      <trkpt lat="44.78862" lon="4.5367">
        <ele>305.4</ele>
        <time>2020-05-22T07:07:51.000Z</time>
      </trkpt>
      <trkpt lat="44.7886" lon="4.53654">
        <ele>305.9</ele>
        <time>2020-05-22T07:07:54.000Z</time>
      </trkpt>
      <trkpt lat="44.78859" lon="4.53639">
        <ele>306.4</ele>
        <time>2020-05-22T07:07:57.000Z</time>
      </trkpt>
      <trkpt lat="44.78858" lon="4.53624">
        <ele>306.9</ele>
        <time>2020-05-22T07:08:00.000Z</time>
      </trkpt>
      <trkpt lat="44.78857" lon="4.53607">
        <ele>307.4</ele>
        <time>2020-05-22T07:08:03.000Z</time>
      </trkpt>
      <trkpt lat="44.78855" lon="4.53591">
        <ele>307.8</ele>
        <time>2020-05-22T07:08:06.000Z</time>
      </trkpt>
      <trkpt lat="44.78853" lon="4.53574">
        <ele>308.1</ele>
        <time>2020-05-22T07:08:09.000Z</time>
      </trkpt>
      <trkpt lat="44.7885" lon="4.53558">
        <ele>308.5</ele>
        <time>2020-05-22T07:08:12.000Z</time>
      </trkpt>
      <trkpt lat="44.78846" lon="4.53542">
        <ele>308.8</ele>
        <time>2020-05-22T07:08:15.000Z</time>
      </trkpt>
      <trkpt lat="44.78843" lon="4.53526">
        <ele>309.2</ele>
        <time>2020-05-22T07:08:18.000Z</time>
      </trkpt>
      <trkpt lat="44.78842" lon="4.53509">
        <ele>309.4</ele>
        <time>2020-05-22T07:08:21.000Z</time>
      </trkpt>
      <trkpt lat="44.78843" lon="4.53491">
        <ele>309.6</ele>
        <time>2020-05-22T07:08:24.000Z</time>
      </trkpt>
      <trkpt lat="44.78848" lon="4.53473">
        <ele>309.7</ele>
        <time>2020-05-22T07:08:27.000Z</time>
      </trkpt>
      <trkpt lat="44.78851" lon="4.53461">
        <ele>309.9</ele>
        <time>2020-05-22T07:08:29.000Z</time>
      </trkpt>
      <trkpt lat="44.78853" lon="4.53448">
        <ele>310</ele>
        <time>2020-05-22T07:08:31.000Z</time>
      </trkpt>
      <trkpt lat="44.78852" lon="4.53434">
        <ele>310</ele>
        <time>2020-05-22T07:08:33.000Z</time>
      </trkpt>
      <trkpt lat="44.78851" lon="4.5342">
        <ele>310.1</ele>
        <time>2020-05-22T07:08:35.000Z</time>
      </trkpt>
      <trkpt lat="44.78851" lon="4.53398">
        <ele>310</ele>
        <time>2020-05-22T07:08:38.000Z</time>
      </trkpt>
      <trkpt lat="44.78851" lon="4.53374">
        <ele>310.2</ele>
        <time>2020-05-22T07:08:41.000Z</time>
      </trkpt>
      <trkpt lat="44.78848" lon="4.5336">
        <ele>310.3</ele>
        <time>2020-05-22T07:08:43.000Z</time>
      </trkpt>
      <trkpt lat="44.78845" lon="4.53348">
        <ele>310.4</ele>
        <time>2020-05-22T07:08:45.000Z</time>
      </trkpt>
      <trkpt lat="44.78842" lon="4.53336">
        <ele>310.5</ele>
        <time>2020-05-22T07:08:47.000Z</time>
      </trkpt>
      <trkpt lat="44.78839" lon="4.53323">
        <ele>310.6</ele>
        <time>2020-05-22T07:08:49.000Z</time>
      </trkpt>
      <trkpt lat="44.78838" lon="4.53311">
        <ele>310.7</ele>
        <time>2020-05-22T07:08:51.000Z</time>
      </trkpt>
      <trkpt lat="44.78833" lon="4.533">
        <ele>310.7</ele>
        <time>2020-05-22T07:08:53.000Z</time>
      </trkpt>
      <trkpt lat="44.78826" lon="4.53286">
        <ele>310.9</ele>
        <time>2020-05-22T07:08:56.000Z</time>
      </trkpt>
      <trkpt lat="44.78816" lon="4.53274">
        <ele>311.2</ele>
        <time>2020-05-22T07:08:59.000Z</time>
      </trkpt>
      <trkpt lat="44.78808" lon="4.53262">
        <ele>311.6</ele>
        <time>2020-05-22T07:09:02.000Z</time>
      </trkpt>
      <trkpt lat="44.78799" lon="4.53251">
        <ele>312.1</ele>
        <time>2020-05-22T07:09:05.000Z</time>
      </trkpt>
      <trkpt lat="44.78792" lon="4.53238">
        <ele>312.5</ele>
        <time>2020-05-22T07:09:08.000Z</time>
      </trkpt>
      <trkpt lat="44.78786" lon="4.53222">
        <ele>312.8</ele>
        <time>2020-05-22T07:09:11.000Z</time>
      </trkpt>
      <trkpt lat="44.78781" lon="4.53206">
        <ele>313</ele>
        <time>2020-05-22T07:09:14.000Z</time>
      </trkpt>
      <trkpt lat="44.78773" lon="4.53201">
        <ele>313.1</ele>
        <time>2020-05-22T07:09:16.000Z</time>
      </trkpt>
      <trkpt lat="44.78759" lon="4.532">
        <ele>313.2</ele>
        <time>2020-05-22T07:09:19.000Z</time>
      </trkpt>
      <trkpt lat="44.78751" lon="4.53196">
        <ele>313.3</ele>
        <time>2020-05-22T07:09:21.000Z</time>
      </trkpt>
      <trkpt lat="44.7874" lon="4.53186">
        <ele>313.4</ele>
        <time>2020-05-22T07:09:24.000Z</time>
      </trkpt>
      <trkpt lat="44.78731" lon="4.53176">
        <ele>313.7</ele>
        <time>2020-05-22T07:09:27.000Z</time>
      </trkpt>
      <trkpt lat="44.78722" lon="4.53167">
        <ele>314.1</ele>
        <time>2020-05-22T07:09:30.000Z</time>
      </trkpt>
      <trkpt lat="44.78715" lon="4.53156">
        <ele>314.6</ele>
        <time>2020-05-22T07:09:33.000Z</time>
      </trkpt>
      <trkpt lat="44.78709" lon="4.53145">
        <ele>315.1</ele>
        <time>2020-05-22T07:09:36.000Z</time>
      </trkpt>
      <trkpt lat="44.78704" lon="4.53133">
        <ele>315.7</ele>
        <time>2020-05-22T07:09:39.000Z</time>
      </trkpt>
      <trkpt lat="44.78699" lon="4.53121">
        <ele>316.4</ele>
        <time>2020-05-22T07:09:42.000Z</time>
      </trkpt>
      <trkpt lat="44.78694" lon="4.5311">
        <ele>317</ele>
        <time>2020-05-22T07:09:45.000Z</time>
      </trkpt>
      <trkpt lat="44.78688" lon="4.531">
        <ele>317.7</ele>
        <time>2020-05-22T07:09:48.000Z</time>
      </trkpt>
      <trkpt lat="44.78682" lon="4.53091">
        <ele>318.3</ele>
        <time>2020-05-22T07:09:51.000Z</time>
      </trkpt>
      <trkpt lat="44.78674" lon="4.53079">
        <ele>319.2</ele>
        <time>2020-05-22T07:09:55.000Z</time>
      </trkpt>
      <trkpt lat="44.78667" lon="4.53071">
        <ele>319.8</ele>
        <time>2020-05-22T07:09:58.000Z</time>
      </trkpt>
      <trkpt lat="44.78658" lon="4.5306">
        <ele>320.5</ele>
        <time>2020-05-22T07:10:02.000Z</time>
      </trkpt>
      <trkpt lat="44.78651" lon="4.5305">
        <ele>321.1</ele>
        <time>2020-05-22T07:10:05.000Z</time>
      </trkpt>
      <trkpt lat="44.78647" lon="4.53039">
        <ele>321.6</ele>
        <time>2020-05-22T07:10:08.000Z</time>
      </trkpt>
      <trkpt lat="44.78643" lon="4.53027">
        <ele>322.1</ele>
        <time>2020-05-22T07:10:11.000Z</time>
      </trkpt>
      <trkpt lat="44.7864" lon="4.53013">
        <ele>322.6</ele>
        <time>2020-05-22T07:10:14.000Z</time>
      </trkpt>
      <trkpt lat="44.78642" lon="4.52998">
        <ele>323</ele>
        <time>2020-05-22T07:10:17.000Z</time>
      </trkpt>
      <trkpt lat="44.78648" lon="4.52988">
        <ele>323.4</ele>
        <time>2020-05-22T07:10:20.000Z</time>
      </trkpt>
      <trkpt lat="44.78658" lon="4.52983">
        <ele>323.8</ele>
        <time>2020-05-22T07:10:23.000Z</time>
      </trkpt>
      <trkpt lat="44.78665" lon="4.52971">
        <ele>324.2</ele>
        <time>2020-05-22T07:10:26.000Z</time>
      </trkpt>
      <trkpt lat="44.7867" lon="4.52959">
        <ele>324.6</ele>
        <time>2020-05-22T07:10:29.000Z</time>
      </trkpt>
      <trkpt lat="44.78677" lon="4.52948">
        <ele>325</ele>
        <time>2020-05-22T07:10:32.000Z</time>
      </trkpt>
      <trkpt lat="44.78683" lon="4.52936">
        <ele>325.4</ele>
        <time>2020-05-22T07:10:35.000Z</time>
      </trkpt>
      <trkpt lat="44.78686" lon="4.52922">
        <ele>325.7</ele>
        <time>2020-05-22T07:10:38.000Z</time>
      </trkpt>
      <trkpt lat="44.78687" lon="4.52907">
        <ele>326.1</ele>
        <time>2020-05-22T07:10:41.000Z</time>
      </trkpt>
      <trkpt lat="44.78687" lon="4.52891">
        <ele>326.5</ele>
        <time>2020-05-22T07:10:44.000Z</time>
      </trkpt>
      <trkpt lat="44.78682" lon="4.52877">
        <ele>326.8</ele>
        <time>2020-05-22T07:10:47.000Z</time>
      </trkpt>
      <trkpt lat="44.78677" lon="4.52864">
        <ele>327.1</ele>
        <time>2020-05-22T07:10:50.000Z</time>
      </trkpt>
      <trkpt lat="44.7867" lon="4.52851">
        <ele>327.5</ele>
        <time>2020-05-22T07:10:53.000Z</time>
      </trkpt>
      <trkpt lat="44.78663" lon="4.52838">
        <ele>327.8</ele>
        <time>2020-05-22T07:10:56.000Z</time>
      </trkpt>
      <trkpt lat="44.78657" lon="4.52824">
        <ele>328.1</ele>
        <time>2020-05-22T07:10:59.000Z</time>
      </trkpt>
      <trkpt lat="44.7865" lon="4.52812">
        <ele>328.4</ele>
        <time>2020-05-22T07:11:02.000Z</time>
      </trkpt>
      <trkpt lat="44.78641" lon="4.52802">
        <ele>328.7</ele>
        <time>2020-05-22T07:11:05.000Z</time>
      </trkpt>
      <trkpt lat="44.78633" lon="4.52793">
        <ele>329</ele>
        <time>2020-05-22T07:11:08.000Z</time>
      </trkpt>
      <trkpt lat="44.78624" lon="4.52783">
        <ele>329.3</ele>
        <time>2020-05-22T07:11:11.000Z</time>
      </trkpt>
      <trkpt lat="44.78616" lon="4.52773">
        <ele>329.7</ele>
        <time>2020-05-22T07:11:14.000Z</time>
      </trkpt>
      <trkpt lat="44.78609" lon="4.5276">
        <ele>330</ele>
        <time>2020-05-22T07:11:17.000Z</time>
      </trkpt>
      <trkpt lat="44.78605" lon="4.52746">
        <ele>330.4</ele>
        <time>2020-05-22T07:11:20.000Z</time>
      </trkpt>
      <trkpt lat="44.78597" lon="4.52733">
        <ele>330.7</ele>
        <time>2020-05-22T07:11:23.000Z</time>
      </trkpt>
      <trkpt lat="44.78587" lon="4.52724">
        <ele>331.2</ele>
        <time>2020-05-22T07:11:26.000Z</time>
      </trkpt>
      <trkpt lat="44.78579" lon="4.52714">
        <ele>331.9</ele>
        <time>2020-05-22T07:11:29.000Z</time>
      </trkpt>
      <trkpt lat="44.78574" lon="4.527">
        <ele>332.4</ele>
        <time>2020-05-22T07:11:32.000Z</time>
      </trkpt>
      <trkpt lat="44.78572" lon="4.52685">
        <ele>333.1</ele>
        <time>2020-05-22T07:11:35.000Z</time>
      </trkpt>
      <trkpt lat="44.78569" lon="4.52668">
        <ele>333.6</ele>
        <time>2020-05-22T07:11:38.000Z</time>
      </trkpt>
      <trkpt lat="44.78564" lon="4.52654">
        <ele>334.1</ele>
        <time>2020-05-22T07:11:41.000Z</time>
      </trkpt>
      <trkpt lat="44.78557" lon="4.52642">
        <ele>334.5</ele>
        <time>2020-05-22T07:11:44.000Z</time>
      </trkpt>
      <trkpt lat="44.78551" lon="4.52631">
        <ele>334.9</ele>
        <time>2020-05-22T07:11:47.000Z</time>
      </trkpt>
      <trkpt lat="44.78544" lon="4.52619">
        <ele>335.3</ele>
        <time>2020-05-22T07:11:50.000Z</time>
      </trkpt>
      <trkpt lat="44.78536" lon="4.52606">
        <ele>335.8</ele>
        <time>2020-05-22T07:11:53.000Z</time>
      </trkpt>
      <trkpt lat="44.78529" lon="4.52593">
        <ele>336.1</ele>
        <time>2020-05-22T07:11:56.000Z</time>
      </trkpt>
      <trkpt lat="44.78527" lon="4.52576">
        <ele>336.6</ele>
        <time>2020-05-22T07:11:59.000Z</time>
      </trkpt>
      <trkpt lat="44.78532" lon="4.52558">
        <ele>337.1</ele>
        <time>2020-05-22T07:12:02.000Z</time>
      </trkpt>
      <trkpt lat="44.78538" lon="4.52546">
        <ele>337.6</ele>
        <time>2020-05-22T07:12:05.000Z</time>
      </trkpt>
      <trkpt lat="44.78547" lon="4.52535">
        <ele>338.2</ele>
        <time>2020-05-22T07:12:08.000Z</time>
      </trkpt>
      <trkpt lat="44.78556" lon="4.52525">
        <ele>338.7</ele>
        <time>2020-05-22T07:12:11.000Z</time>
      </trkpt>
      <trkpt lat="44.78566" lon="4.52515">
        <ele>339.2</ele>
        <time>2020-05-22T07:12:14.000Z</time>
      </trkpt>
      <trkpt lat="44.78572" lon="4.52499">
        <ele>339.6</ele>
        <time>2020-05-22T07:12:17.000Z</time>
      </trkpt>
      <trkpt lat="44.78564" lon="4.52484">
        <ele>340</ele>
        <time>2020-05-22T07:12:20.000Z</time>
      </trkpt>
      <trkpt lat="44.78556" lon="4.52478">
        <ele>340.4</ele>
        <time>2020-05-22T07:12:23.000Z</time>
      </trkpt>
      <trkpt lat="44.78546" lon="4.52484">
        <ele>340.7</ele>
        <time>2020-05-22T07:12:27.000Z</time>
      </trkpt>
      <trkpt lat="44.78537" lon="4.52489">
        <ele>341</ele>
        <time>2020-05-22T07:12:30.000Z</time>
      </trkpt>
      <trkpt lat="44.78525" lon="4.52494">
        <ele>341.4</ele>
        <time>2020-05-22T07:12:33.000Z</time>
      </trkpt>
      <trkpt lat="44.78513" lon="4.52493">
        <ele>341.7</ele>
        <time>2020-05-22T07:12:36.000Z</time>
      </trkpt>
      <trkpt lat="44.78502" lon="4.52486">
        <ele>342.2</ele>
        <time>2020-05-22T07:12:39.000Z</time>
      </trkpt>
      <trkpt lat="44.78491" lon="4.52481">
        <ele>342.5</ele>
        <time>2020-05-22T07:12:42.000Z</time>
      </trkpt>
      <trkpt lat="44.78482" lon="4.52472">
        <ele>342.8</ele>
        <time>2020-05-22T07:12:45.000Z</time>
      </trkpt>
      <trkpt lat="44.78475" lon="4.52459">
        <ele>343.2</ele>
        <time>2020-05-22T07:12:48.000Z</time>
      </trkpt>
      <trkpt lat="44.78469" lon="4.52445">
        <ele>343.6</ele>
        <time>2020-05-22T07:12:51.000Z</time>
      </trkpt>
      <trkpt lat="44.78463" lon="4.52431">
        <ele>344.1</ele>
        <time>2020-05-22T07:12:54.000Z</time>
      </trkpt>
      <trkpt lat="44.78457" lon="4.52418">
        <ele>344.5</ele>
        <time>2020-05-22T07:12:57.000Z</time>
      </trkpt>
      <trkpt lat="44.7845" lon="4.52405">
        <ele>344.7</ele>
        <time>2020-05-22T07:13:00.000Z</time>
      </trkpt>
      <trkpt lat="44.78442" lon="4.52395">
        <ele>345</ele>
        <time>2020-05-22T07:13:03.000Z</time>
      </trkpt>
      <trkpt lat="44.78435" lon="4.52385">
        <ele>345.4</ele>
        <time>2020-05-22T07:13:06.000Z</time>
      </trkpt>
      <trkpt lat="44.78429" lon="4.52372">
        <ele>345.8</ele>
        <time>2020-05-22T07:13:09.000Z</time>
      </trkpt>
      <trkpt lat="44.78425" lon="4.52357">
        <ele>346.1</ele>
        <time>2020-05-22T07:13:12.000Z</time>
      </trkpt>
      <trkpt lat="44.7842" lon="4.52342">
        <ele>346.5</ele>
        <time>2020-05-22T07:13:15.000Z</time>
      </trkpt>
      <trkpt lat="44.78416" lon="4.52329">
        <ele>347.1</ele>
        <time>2020-05-22T07:13:18.000Z</time>
      </trkpt>
      <trkpt lat="44.78412" lon="4.52317">
        <ele>347.8</ele>
        <time>2020-05-22T07:13:21.000Z</time>
      </trkpt>
      <trkpt lat="44.78407" lon="4.52303">
        <ele>348.5</ele>
        <time>2020-05-22T07:13:24.000Z</time>
      </trkpt>
      <trkpt lat="44.78403" lon="4.52287">
        <ele>349.1</ele>
        <time>2020-05-22T07:13:27.000Z</time>
      </trkpt>
      <trkpt lat="44.78402" lon="4.52269">
        <ele>349.6</ele>
        <time>2020-05-22T07:13:30.000Z</time>
      </trkpt>
      <trkpt lat="44.78399" lon="4.5225">
        <ele>350</ele>
        <time>2020-05-22T07:13:33.000Z</time>
      </trkpt>
      <trkpt lat="44.78397" lon="4.52238">
        <ele>350.2</ele>
        <time>2020-05-22T07:13:35.000Z</time>
      </trkpt>
      <trkpt lat="44.78392" lon="4.5222">
        <ele>350.5</ele>
        <time>2020-05-22T07:13:38.000Z</time>
      </trkpt>
      <trkpt lat="44.78387" lon="4.52209">
        <ele>350.7</ele>
        <time>2020-05-22T07:13:40.000Z</time>
      </trkpt>
      <trkpt lat="44.78381" lon="4.52193">
        <ele>350.9</ele>
        <time>2020-05-22T07:13:43.000Z</time>
      </trkpt>
      <trkpt lat="44.7837" lon="4.52181">
        <ele>351</ele>
        <time>2020-05-22T07:13:46.000Z</time>
      </trkpt>
      <trkpt lat="44.78363" lon="4.52174">
        <ele>351</ele>
        <time>2020-05-22T07:13:48.000Z</time>
      </trkpt>
      <trkpt lat="44.78356" lon="4.52165">
        <ele>351</ele>
        <time>2020-05-22T07:13:50.000Z</time>
      </trkpt>
      <trkpt lat="44.78347" lon="4.52152">
        <ele>351.1</ele>
        <time>2020-05-22T07:13:53.000Z</time>
      </trkpt>
      <trkpt lat="44.7834" lon="4.52136">
        <ele>351.2</ele>
        <time>2020-05-22T07:13:56.000Z</time>
      </trkpt>
      <trkpt lat="44.78333" lon="4.52126">
        <ele>351.3</ele>
        <time>2020-05-22T07:13:58.000Z</time>
      </trkpt>
      <trkpt lat="44.78327" lon="4.52116">
        <ele>351.5</ele>
        <time>2020-05-22T07:14:00.000Z</time>
      </trkpt>
      <trkpt lat="44.78322" lon="4.52105">
        <ele>351.7</ele>
        <time>2020-05-22T07:14:02.000Z</time>
      </trkpt>
      <trkpt lat="44.78317" lon="4.52093">
        <ele>351.9</ele>
        <time>2020-05-22T07:14:04.000Z</time>
      </trkpt>
      <trkpt lat="44.7831" lon="4.52082">
        <ele>352</ele>
        <time>2020-05-22T07:14:06.000Z</time>
      </trkpt>
      <trkpt lat="44.78304" lon="4.52071">
        <ele>352.2</ele>
        <time>2020-05-22T07:14:08.000Z</time>
      </trkpt>
      <trkpt lat="44.78297" lon="4.52062">
        <ele>352.3</ele>
        <time>2020-05-22T07:14:10.000Z</time>
      </trkpt>
      <trkpt lat="44.78292" lon="4.5205">
        <ele>352.4</ele>
        <time>2020-05-22T07:14:12.000Z</time>
      </trkpt>
      <trkpt lat="44.78286" lon="4.5204">
        <ele>352.4</ele>
        <time>2020-05-22T07:14:14.000Z</time>
      </trkpt>
      <trkpt lat="44.7828" lon="4.52029">
        <ele>352.5</ele>
        <time>2020-05-22T07:14:16.000Z</time>
      </trkpt>
      <trkpt lat="44.78273" lon="4.52018">
        <ele>352.5</ele>
        <time>2020-05-22T07:14:18.000Z</time>
      </trkpt>
      <trkpt lat="44.78266" lon="4.52009">
        <ele>352.6</ele>
        <time>2020-05-22T07:14:20.000Z</time>
      </trkpt>
      <trkpt lat="44.7826" lon="4.51997">
        <ele>352.6</ele>
        <time>2020-05-22T07:14:22.000Z</time>
      </trkpt>
      <trkpt lat="44.78259" lon="4.51984">
        <ele>352.7</ele>
        <time>2020-05-22T07:14:24.000Z</time>
      </trkpt>
      <trkpt lat="44.78262" lon="4.5197">
        <ele>352.7</ele>
        <time>2020-05-22T07:14:26.000Z</time>
      </trkpt>
      <trkpt lat="44.78265" lon="4.51956">
        <ele>352.7</ele>
        <time>2020-05-22T07:14:28.000Z</time>
      </trkpt>
      <trkpt lat="44.78261" lon="4.51944">
        <ele>352.8</ele>
        <time>2020-05-22T07:14:30.000Z</time>
      </trkpt>
      <trkpt lat="44.78252" lon="4.51936">
        <ele>352.9</ele>
        <time>2020-05-22T07:14:32.000Z</time>
      </trkpt>
      <trkpt lat="44.78243" lon="4.51928">
        <ele>353</ele>
        <time>2020-05-22T07:14:34.000Z</time>
      </trkpt>
      <trkpt lat="44.78237" lon="4.51915">
        <ele>353.1</ele>
        <time>2020-05-22T07:14:36.000Z</time>
      </trkpt>
      <trkpt lat="44.7823" lon="4.51902">
        <ele>353.2</ele>
        <time>2020-05-22T07:14:38.000Z</time>
      </trkpt>
      <trkpt lat="44.78223" lon="4.51889">
        <ele>353.3</ele>
        <time>2020-05-22T07:14:40.000Z</time>
      </trkpt>
      <trkpt lat="44.78217" lon="4.51875">
        <ele>353.4</ele>
        <time>2020-05-22T07:14:42.000Z</time>
      </trkpt>
      <trkpt lat="44.7821" lon="4.51864">
        <ele>353.5</ele>
        <time>2020-05-22T07:14:44.000Z</time>
      </trkpt>
      <trkpt lat="44.78203" lon="4.51853">
        <ele>353.5</ele>
        <time>2020-05-22T07:14:46.000Z</time>
      </trkpt>
      <trkpt lat="44.78195" lon="4.51844">
        <ele>353.5</ele>
        <time>2020-05-22T07:14:48.000Z</time>
      </trkpt>
      <trkpt lat="44.78185" lon="4.51836">
        <ele>353.5</ele>
        <time>2020-05-22T07:14:50.000Z</time>
      </trkpt>
      <trkpt lat="44.78175" lon="4.51828">
        <ele>353.5</ele>
        <time>2020-05-22T07:14:52.000Z</time>
      </trkpt>
      <trkpt lat="44.78172" lon="4.51813">
        <ele>353.5</ele>
        <time>2020-05-22T07:14:54.000Z</time>
      </trkpt>
      <trkpt lat="44.78174" lon="4.51798">
        <ele>353.4</ele>
        <time>2020-05-22T07:14:56.000Z</time>
      </trkpt>
      <trkpt lat="44.78175" lon="4.51784">
        <ele>353.4</ele>
        <time>2020-05-22T07:14:58.000Z</time>
      </trkpt>
      <trkpt lat="44.78169" lon="4.51771">
        <ele>353.4</ele>
        <time>2020-05-22T07:15:00.000Z</time>
      </trkpt>
      <trkpt lat="44.78159" lon="4.51765">
        <ele>353.3</ele>
        <time>2020-05-22T07:15:02.000Z</time>
      </trkpt>
      <trkpt lat="44.78147" lon="4.51769">
        <ele>353.3</ele>
        <time>2020-05-22T07:15:04.000Z</time>
      </trkpt>
      <trkpt lat="44.78137" lon="4.51773">
        <ele>353.3</ele>
        <time>2020-05-22T07:15:06.000Z</time>
      </trkpt>
      <trkpt lat="44.78126" lon="4.51769">
        <ele>353.3</ele>
        <time>2020-05-22T07:15:08.000Z</time>
      </trkpt>
      <trkpt lat="44.78111" lon="4.51758">
        <ele>353</ele>
        <time>2020-05-22T07:15:11.000Z</time>
      </trkpt>
      <trkpt lat="44.78094" lon="4.5174">
        <ele>353</ele>
        <time>2020-05-22T07:15:15.000Z</time>
      </trkpt>
      <trkpt lat="44.78078" lon="4.51718">
        <ele>353</ele>
        <time>2020-05-22T07:15:19.000Z</time>
      </trkpt>
      <trkpt lat="44.78065" lon="4.51692">
        <ele>353</ele>
        <time>2020-05-22T07:15:23.000Z</time>
      </trkpt>
      <trkpt lat="44.78058" lon="4.51662">
        <ele>353</ele>
        <time>2020-05-22T07:15:27.000Z</time>
      </trkpt>
      <trkpt lat="44.78052" lon="4.51629">
        <ele>354</ele>
        <time>2020-05-22T07:15:31.000Z</time>
      </trkpt>
      <trkpt lat="44.78041" lon="4.516">
        <ele>354</ele>
        <time>2020-05-22T07:15:35.000Z</time>
      </trkpt>
      <trkpt lat="44.7803" lon="4.51571">
        <ele>354</ele>
        <time>2020-05-22T07:15:39.000Z</time>
      </trkpt>
      <trkpt lat="44.7802" lon="4.51542">
        <ele>354</ele>
        <time>2020-05-22T07:15:43.000Z</time>
      </trkpt>
      <trkpt lat="44.78008" lon="4.51523">
        <ele>354.6</ele>
        <time>2020-05-22T07:15:46.000Z</time>
      </trkpt>
      <trkpt lat="44.78003" lon="4.51508">
        <ele>354.7</ele>
        <time>2020-05-22T07:15:48.000Z</time>
      </trkpt>
      <trkpt lat="44.77999" lon="4.51492">
        <ele>354.8</ele>
        <time>2020-05-22T07:15:50.000Z</time>
      </trkpt>
      <trkpt lat="44.77996" lon="4.51476">
        <ele>355</ele>
        <time>2020-05-22T07:15:52.000Z</time>
      </trkpt>
      <trkpt lat="44.77991" lon="4.5146">
        <ele>355.2</ele>
        <time>2020-05-22T07:15:54.000Z</time>
      </trkpt>
      <trkpt lat="44.77986" lon="4.51445">
        <ele>355.4</ele>
        <time>2020-05-22T07:15:56.000Z</time>
      </trkpt>
      <trkpt lat="44.77978" lon="4.51433">
        <ele>355.6</ele>
        <time>2020-05-22T07:15:58.000Z</time>
      </trkpt>
      <trkpt lat="44.7797" lon="4.51419">
        <ele>355.7</ele>
        <time>2020-05-22T07:16:00.000Z</time>
      </trkpt>
      <trkpt lat="44.77965" lon="4.51404">
        <ele>355.8</ele>
        <time>2020-05-22T07:16:02.000Z</time>
      </trkpt>
      <trkpt lat="44.77961" lon="4.51388">
        <ele>355.8</ele>
        <time>2020-05-22T07:16:04.000Z</time>
      </trkpt>
      <trkpt lat="44.77957" lon="4.51371">
        <ele>355.9</ele>
        <time>2020-05-22T07:16:06.000Z</time>
      </trkpt>
      <trkpt lat="44.77954" lon="4.51354">
        <ele>355.9</ele>
        <time>2020-05-22T07:16:08.000Z</time>
      </trkpt>
      <trkpt lat="44.77949" lon="4.51338">
        <ele>356</ele>
        <time>2020-05-22T07:16:10.000Z</time>
      </trkpt>
      <trkpt lat="44.77946" lon="4.51323">
        <ele>355</ele>
        <time>2020-05-22T07:16:12.000Z</time>
      </trkpt>
      <trkpt lat="44.7794" lon="4.51292">
        <ele>356</ele>
        <time>2020-05-22T07:16:16.000Z</time>
      </trkpt>
      <trkpt lat="44.77935" lon="4.51261">
        <ele>356</ele>
        <time>2020-05-22T07:16:20.000Z</time>
      </trkpt>
      <trkpt lat="44.77928" lon="4.51228">
        <ele>356</ele>
        <time>2020-05-22T07:16:24.000Z</time>
      </trkpt>
      <trkpt lat="44.77918" lon="4.51196">
        <ele>356</ele>
        <time>2020-05-22T07:16:28.000Z</time>
      </trkpt>
      <trkpt lat="44.77909" lon="4.51165">
        <ele>356</ele>
        <time>2020-05-22T07:16:32.000Z</time>
      </trkpt>
      <trkpt lat="44.77899" lon="4.51134">
        <ele>356</ele>
        <time>2020-05-22T07:16:36.000Z</time>
      </trkpt>
      <trkpt lat="44.77888" lon="4.51102">
        <ele>356</ele>
        <time>2020-05-22T07:16:40.000Z</time>
      </trkpt>
      <trkpt lat="44.77877" lon="4.5107">
        <ele>356</ele>
        <time>2020-05-22T07:16:44.000Z</time>
      </trkpt>
      <trkpt lat="44.77868" lon="4.51039">
        <ele>356</ele>
        <time>2020-05-22T07:16:48.000Z</time>
      </trkpt>
      <trkpt lat="44.77859" lon="4.51009">
        <ele>356</ele>
        <time>2020-05-22T07:16:52.000Z</time>
      </trkpt>
      <trkpt lat="44.77852" lon="4.50978">
        <ele>357</ele>
        <time>2020-05-22T07:16:56.000Z</time>
      </trkpt>
      <trkpt lat="44.77845" lon="4.50947">
        <ele>357</ele>
        <time>2020-05-22T07:17:00.000Z</time>
      </trkpt>
      <trkpt lat="44.77842" lon="4.50917">
        <ele>357</ele>
        <time>2020-05-22T07:17:04.000Z</time>
      </trkpt>
      <trkpt lat="44.7784" lon="4.50889">
        <ele>358</ele>
        <time>2020-05-22T07:17:08.000Z</time>
      </trkpt>
      <trkpt lat="44.77834" lon="4.50864">
        <ele>358</ele>
        <time>2020-05-22T07:17:12.000Z</time>
      </trkpt>
      <trkpt lat="44.77829" lon="4.5084">
        <ele>359</ele>
        <time>2020-05-22T07:17:16.000Z</time>
      </trkpt>
      <trkpt lat="44.77822" lon="4.50818">
        <ele>360</ele>
        <time>2020-05-22T07:17:20.000Z</time>
      </trkpt>
      <trkpt lat="44.77811" lon="4.508">
        <ele>360</ele>
        <time>2020-05-22T07:17:24.000Z</time>
      </trkpt>
      <trkpt lat="44.77801" lon="4.50782">
        <ele>361</ele>
        <time>2020-05-22T07:17:28.000Z</time>
      </trkpt>
      <trkpt lat="44.77791" lon="4.50763">
        <ele>362</ele>
        <time>2020-05-22T07:17:32.000Z</time>
      </trkpt>
      <trkpt lat="44.77783" lon="4.5075">
        <ele>362.5</ele>
        <time>2020-05-22T07:17:35.000Z</time>
      </trkpt>
      <trkpt lat="44.77769" lon="4.50725">
        <ele>363</ele>
        <time>2020-05-22T07:17:41.000Z</time>
      </trkpt>
      <trkpt lat="44.77721" lon="4.50477">
        <ele>369.3</ele>
        <time>2020-05-22T07:18:31.000Z</time>
      </trkpt>
      <trkpt lat="44.77727" lon="4.50465">
        <ele>369.6</ele>
        <time>2020-05-22T07:18:33.000Z</time>
      </trkpt>
      <trkpt lat="44.7773" lon="4.5045">
        <ele>370.1</ele>
        <time>2020-05-22T07:18:36.000Z</time>
      </trkpt>
      <trkpt lat="44.77733" lon="4.50437">
        <ele>370.6</ele>
        <time>2020-05-22T07:18:39.000Z</time>
      </trkpt>
      <trkpt lat="44.77735" lon="4.50423">
        <ele>371.1</ele>
        <time>2020-05-22T07:18:42.000Z</time>
      </trkpt>
      <trkpt lat="44.7774" lon="4.5041">
        <ele>371.4</ele>
        <time>2020-05-22T07:18:44.000Z</time>
      </trkpt>
      <trkpt lat="44.77744" lon="4.50394">
        <ele>371.8</ele>
        <time>2020-05-22T07:18:47.000Z</time>
      </trkpt>
      <trkpt lat="44.77749" lon="4.50378">
        <ele>372.3</ele>
        <time>2020-05-22T07:18:50.000Z</time>
      </trkpt>
      <trkpt lat="44.77755" lon="4.50363">
        <ele>372.8</ele>
        <time>2020-05-22T07:18:53.000Z</time>
      </trkpt>
      <trkpt lat="44.7776" lon="4.50349">
        <ele>373.3</ele>
        <time>2020-05-22T07:18:56.000Z</time>
      </trkpt>
      <trkpt lat="44.77758" lon="4.50334">
        <ele>373.8</ele>
        <time>2020-05-22T07:18:59.000Z</time>
      </trkpt>
      <trkpt lat="44.77752" lon="4.50323">
        <ele>374.3</ele>
        <time>2020-05-22T07:19:02.000Z</time>
      </trkpt>
      <trkpt lat="44.77745" lon="4.50311">
        <ele>374.8</ele>
        <time>2020-05-22T07:19:05.000Z</time>
      </trkpt>
      <trkpt lat="44.77737" lon="4.50301">
        <ele>375.2</ele>
        <time>2020-05-22T07:19:08.000Z</time>
      </trkpt>
      <trkpt lat="44.7773" lon="4.50292">
        <ele>375.6</ele>
        <time>2020-05-22T07:19:11.000Z</time>
      </trkpt>
      <trkpt lat="44.77721" lon="4.50281">
        <ele>376.3</ele>
        <time>2020-05-22T07:19:15.000Z</time>
      </trkpt>
      <trkpt lat="44.77713" lon="4.50275">
        <ele>376.8</ele>
        <time>2020-05-22T07:19:18.000Z</time>
      </trkpt>
      <trkpt lat="44.77705" lon="4.5027">
        <ele>377.2</ele>
        <time>2020-05-22T07:19:21.000Z</time>
      </trkpt>
      <trkpt lat="44.77696" lon="4.50266">
        <ele>377.7</ele>
        <time>2020-05-22T07:19:24.000Z</time>
      </trkpt>
      <trkpt lat="44.77687" lon="4.50265">
        <ele>378.1</ele>
        <time>2020-05-22T07:19:27.000Z</time>
      </trkpt>
      <trkpt lat="44.77677" lon="4.50266">
        <ele>378.4</ele>
        <time>2020-05-22T07:19:30.000Z</time>
      </trkpt>
      <trkpt lat="44.77668" lon="4.50267">
        <ele>378.7</ele>
        <time>2020-05-22T07:19:33.000Z</time>
      </trkpt>
      <trkpt lat="44.77658" lon="4.5027">
        <ele>379</ele>
        <time>2020-05-22T07:19:36.000Z</time>
      </trkpt>
      <trkpt lat="44.77649" lon="4.50273">
        <ele>379.2</ele>
        <time>2020-05-22T07:19:39.000Z</time>
      </trkpt>
      <trkpt lat="44.7764" lon="4.50277">
        <ele>379.6</ele>
        <time>2020-05-22T07:19:42.000Z</time>
      </trkpt>
      <trkpt lat="44.7763" lon="4.50284">
        <ele>380</ele>
        <time>2020-05-22T07:19:46.000Z</time>
      </trkpt>
      <trkpt lat="44.77622" lon="4.5029">
        <ele>380.3</ele>
        <time>2020-05-22T07:19:49.000Z</time>
      </trkpt>
      <trkpt lat="44.77611" lon="4.50297">
        <ele>380.8</ele>
        <time>2020-05-22T07:19:53.000Z</time>
      </trkpt>
      <trkpt lat="44.77602" lon="4.50301">
        <ele>381.1</ele>
        <time>2020-05-22T07:19:56.000Z</time>
      </trkpt>
      <trkpt lat="44.77593" lon="4.50304">
        <ele>381.5</ele>
        <time>2020-05-22T07:19:59.000Z</time>
      </trkpt>
      <trkpt lat="44.77583" lon="4.50306">
        <ele>381.8</ele>
        <time>2020-05-22T07:20:02.000Z</time>
      </trkpt>
      <trkpt lat="44.77573" lon="4.50305">
        <ele>382.3</ele>
        <time>2020-05-22T07:20:05.000Z</time>
      </trkpt>
      <trkpt lat="44.77563" lon="4.50305">
        <ele>382.7</ele>
        <time>2020-05-22T07:20:08.000Z</time>
      </trkpt>
      <trkpt lat="44.77553" lon="4.50304">
        <ele>383.1</ele>
        <time>2020-05-22T07:20:11.000Z</time>
      </trkpt>
      <trkpt lat="44.77543" lon="4.50303">
        <ele>383.6</ele>
        <time>2020-05-22T07:20:14.000Z</time>
      </trkpt>
      <trkpt lat="44.77533" lon="4.503">
        <ele>383.9</ele>
        <time>2020-05-22T07:20:17.000Z</time>
      </trkpt>
      <trkpt lat="44.77523" lon="4.50296">
        <ele>384.2</ele>
        <time>2020-05-22T07:20:20.000Z</time>
      </trkpt>
      <trkpt lat="44.77514" lon="4.50292">
        <ele>384.7</ele>
        <time>2020-05-22T07:20:23.000Z</time>
      </trkpt>
      <trkpt lat="44.77506" lon="4.50283">
        <ele>385</ele>
        <time>2020-05-22T07:20:26.000Z</time>
      </trkpt>
      <trkpt lat="44.77507" lon="4.50268">
        <ele>385.4</ele>
        <time>2020-05-22T07:20:29.000Z</time>
      </trkpt>
      <trkpt lat="44.77515" lon="4.50253">
        <ele>385.8</ele>
        <time>2020-05-22T07:20:32.000Z</time>
      </trkpt>
      <trkpt lat="44.77522" lon="4.50243">
        <ele>386.1</ele>
        <time>2020-05-22T07:20:34.000Z</time>
      </trkpt>
      <trkpt lat="44.77529" lon="4.50234">
        <ele>386.2</ele>
        <time>2020-05-22T07:20:36.000Z</time>
      </trkpt>
      <trkpt lat="44.77536" lon="4.50226">
        <ele>386.3</ele>
        <time>2020-05-22T07:20:38.000Z</time>
      </trkpt>
      <trkpt lat="44.77544" lon="4.50218">
        <ele>386.3</ele>
        <time>2020-05-22T07:20:40.000Z</time>
      </trkpt>
      <trkpt lat="44.77551" lon="4.5021">
        <ele>386.2</ele>
        <time>2020-05-22T07:20:42.000Z</time>
      </trkpt>
      <trkpt lat="44.77558" lon="4.50201">
        <ele>386.3</ele>
        <time>2020-05-22T07:20:44.000Z</time>
      </trkpt>
      <trkpt lat="44.77567" lon="4.5019">
        <ele>386.4</ele>
        <time>2020-05-22T07:20:47.000Z</time>
      </trkpt>
      <trkpt lat="44.77574" lon="4.50178">
        <ele>386.6</ele>
        <time>2020-05-22T07:20:50.000Z</time>
      </trkpt>
      <trkpt lat="44.7758" lon="4.50167">
        <ele>386.8</ele>
        <time>2020-05-22T07:20:53.000Z</time>
      </trkpt>
      <trkpt lat="44.77589" lon="4.50156">
        <ele>387</ele>
        <time>2020-05-22T07:20:55.000Z</time>
      </trkpt>
      <trkpt lat="44.77596" lon="4.50147">
        <ele>387.3</ele>
        <time>2020-05-22T07:20:57.000Z</time>
      </trkpt>
      <trkpt lat="44.77605" lon="4.50117">
        <ele>388</ele>
        <time>2020-05-22T07:21:02.000Z</time>
      </trkpt>
      <trkpt lat="44.77605" lon="4.50104">
        <ele>388.2</ele>
        <time>2020-05-22T07:21:04.000Z</time>
      </trkpt>
      <trkpt lat="44.77605" lon="4.50091">
        <ele>388.4</ele>
        <time>2020-05-22T07:21:06.000Z</time>
      </trkpt>
      <trkpt lat="44.77605" lon="4.50078">
        <ele>388.7</ele>
        <time>2020-05-22T07:21:08.000Z</time>
      </trkpt>
      <trkpt lat="44.77605" lon="4.50064">
        <ele>388.9</ele>
        <time>2020-05-22T07:21:10.000Z</time>
      </trkpt>
      <trkpt lat="44.77605" lon="4.50051">
        <ele>389</ele>
        <time>2020-05-22T07:21:12.000Z</time>
      </trkpt>
      <trkpt lat="44.77604" lon="4.50038">
        <ele>389.3</ele>
        <time>2020-05-22T07:21:14.000Z</time>
      </trkpt>
      <trkpt lat="44.77603" lon="4.50025">
        <ele>389.6</ele>
        <time>2020-05-22T07:21:16.000Z</time>
      </trkpt>
      <trkpt lat="44.77601" lon="4.50012">
        <ele>389</ele>
        <time>2020-05-22T07:21:18.000Z</time>
      </trkpt>
      <trkpt lat="44.776" lon="4.49988">
        <ele>390</ele>
        <time>2020-05-22T07:21:22.000Z</time>
      </trkpt>
      <trkpt lat="44.77594" lon="4.49949">
        <ele>391</ele>
        <time>2020-05-22T07:21:29.000Z</time>
      </trkpt>
      <trkpt lat="44.77588" lon="4.49918">
        <ele>391</ele>
        <time>2020-05-22T07:21:35.000Z</time>
      </trkpt>
      <trkpt lat="44.77583" lon="4.49898">
        <ele>392</ele>
        <time>2020-05-22T07:21:39.000Z</time>
      </trkpt>
      <trkpt lat="44.77579" lon="4.49877">
        <ele>393</ele>
        <time>2020-05-22T07:21:43.000Z</time>
      </trkpt>
      <trkpt lat="44.7757" lon="4.49836">
        <ele>394</ele>
        <time>2020-05-22T07:21:51.000Z</time>
      </trkpt>
      <trkpt lat="44.77565" lon="4.49811">
        <ele>394.7</ele>
        <time>2020-05-22T07:21:56.000Z</time>
      </trkpt>
      <trkpt lat="44.77562" lon="4.49796">
        <ele>395</ele>
        <time>2020-05-22T07:21:59.000Z</time>
      </trkpt>
      <trkpt lat="44.77558" lon="4.49781">
        <ele>395.3</ele>
        <time>2020-05-22T07:22:02.000Z</time>
      </trkpt>
      <trkpt lat="44.77556" lon="4.49765">
        <ele>395.8</ele>
        <time>2020-05-22T07:22:05.000Z</time>
      </trkpt>
      <trkpt lat="44.77552" lon="4.49749">
        <ele>396.2</ele>
        <time>2020-05-22T07:22:08.000Z</time>
      </trkpt>
      <trkpt lat="44.77547" lon="4.49735">
        <ele>396.7</ele>
        <time>2020-05-22T07:22:11.000Z</time>
      </trkpt>
      <trkpt lat="44.77543" lon="4.49719">
        <ele>397.2</ele>
        <time>2020-05-22T07:22:14.000Z</time>
      </trkpt>
      <trkpt lat="44.77538" lon="4.49705">
        <ele>397.6</ele>
        <time>2020-05-22T07:22:17.000Z</time>
      </trkpt>
      <trkpt lat="44.77532" lon="4.49691">
        <ele>398.1</ele>
        <time>2020-05-22T07:22:20.000Z</time>
      </trkpt>
      <trkpt lat="44.77527" lon="4.49677">
        <ele>398.6</ele>
        <time>2020-05-22T07:22:23.000Z</time>
      </trkpt>
      <trkpt lat="44.77522" lon="4.49663">
        <ele>399.2</ele>
        <time>2020-05-22T07:22:26.000Z</time>
      </trkpt>
      <trkpt lat="44.77519" lon="4.49648">
        <ele>399.6</ele>
        <time>2020-05-22T07:22:29.000Z</time>
      </trkpt>
      <trkpt lat="44.77516" lon="4.49634">
        <ele>400.1</ele>
        <time>2020-05-22T07:22:32.000Z</time>
      </trkpt>
      <trkpt lat="44.7751" lon="4.49621">
        <ele>400.5</ele>
        <time>2020-05-22T07:22:35.000Z</time>
      </trkpt>
      <trkpt lat="44.77506" lon="4.49608">
        <ele>401</ele>
        <time>2020-05-22T07:22:38.000Z</time>
      </trkpt>
      <trkpt lat="44.77501" lon="4.49594">
        <ele>401.5</ele>
        <time>2020-05-22T07:22:41.000Z</time>
      </trkpt>
      <trkpt lat="44.77497" lon="4.49579">
        <ele>402.1</ele>
        <time>2020-05-22T07:22:44.000Z</time>
      </trkpt>
      <trkpt lat="44.77494" lon="4.49564">
        <ele>402.7</ele>
        <time>2020-05-22T07:22:47.000Z</time>
      </trkpt>
      <trkpt lat="44.77493" lon="4.4955">
        <ele>403.2</ele>
        <time>2020-05-22T07:22:50.000Z</time>
      </trkpt>
      <trkpt lat="44.77493" lon="4.49535">
        <ele>403.8</ele>
        <time>2020-05-22T07:22:53.000Z</time>
      </trkpt>
      <trkpt lat="44.77489" lon="4.49523">
        <ele>404.3</ele>
        <time>2020-05-22T07:22:56.000Z</time>
      </trkpt>
      <trkpt lat="44.77483" lon="4.49511">
        <ele>404.7</ele>
        <time>2020-05-22T07:22:59.000Z</time>
      </trkpt>
      <trkpt lat="44.7748" lon="4.49499">
        <ele>405.1</ele>
        <time>2020-05-22T07:23:02.000Z</time>
      </trkpt>
      <trkpt lat="44.77476" lon="4.49487">
        <ele>405.5</ele>
        <time>2020-05-22T07:23:05.000Z</time>
      </trkpt>
      <trkpt lat="44.77475" lon="4.49473">
        <ele>405.8</ele>
        <time>2020-05-22T07:23:08.000Z</time>
      </trkpt>
      <trkpt lat="44.77474" lon="4.49459">
        <ele>406.2</ele>
        <time>2020-05-22T07:23:11.000Z</time>
      </trkpt>
      <trkpt lat="44.77471" lon="4.49446">
        <ele>406.8</ele>
        <time>2020-05-22T07:23:14.000Z</time>
      </trkpt>
      <trkpt lat="44.77469" lon="4.49433">
        <ele>407.3</ele>
        <time>2020-05-22T07:23:17.000Z</time>
      </trkpt>
      <trkpt lat="44.77463" lon="4.49421">
        <ele>407.8</ele>
        <time>2020-05-22T07:23:20.000Z</time>
      </trkpt>
      <trkpt lat="44.77461" lon="4.49408">
        <ele>408.4</ele>
        <time>2020-05-22T07:23:23.000Z</time>
      </trkpt>
      <trkpt lat="44.7746" lon="4.49395">
        <ele>409</ele>
        <time>2020-05-22T07:23:26.000Z</time>
      </trkpt>
      <trkpt lat="44.77458" lon="4.49382">
        <ele>409.4</ele>
        <time>2020-05-22T07:23:29.000Z</time>
      </trkpt>
      <trkpt lat="44.77457" lon="4.49365">
        <ele>410</ele>
        <time>2020-05-22T07:23:33.000Z</time>
      </trkpt>
      <trkpt lat="44.77456" lon="4.49349">
        <ele>410.5</ele>
        <time>2020-05-22T07:23:37.000Z</time>
      </trkpt>
      <trkpt lat="44.77453" lon="4.49336">
        <ele>411</ele>
        <time>2020-05-22T07:23:40.000Z</time>
      </trkpt>
      <trkpt lat="44.77451" lon="4.49323">
        <ele>411.6</ele>
        <time>2020-05-22T07:23:43.000Z</time>
      </trkpt>
      <trkpt lat="44.77447" lon="4.49311">
        <ele>412.1</ele>
        <time>2020-05-22T07:23:46.000Z</time>
      </trkpt>
      <trkpt lat="44.77444" lon="4.49299">
        <ele>412.6</ele>
        <time>2020-05-22T07:23:49.000Z</time>
      </trkpt>
      <trkpt lat="44.77439" lon="4.49287">
        <ele>413</ele>
        <time>2020-05-22T07:23:52.000Z</time>
      </trkpt>
      <trkpt lat="44.77435" lon="4.4927">
        <ele>413</ele>
        <time>2020-05-22T07:23:56.000Z</time>
      </trkpt>
      <trkpt lat="44.7743" lon="4.49257">
        <ele>414.2</ele>
        <time>2020-05-22T07:23:59.000Z</time>
      </trkpt>
      <trkpt lat="44.77427" lon="4.49244">
        <ele>414.8</ele>
        <time>2020-05-22T07:24:02.000Z</time>
      </trkpt>
      <trkpt lat="44.77426" lon="4.4923">
        <ele>415.4</ele>
        <time>2020-05-22T07:24:05.000Z</time>
      </trkpt>
      <trkpt lat="44.77426" lon="4.49216">
        <ele>416</ele>
        <time>2020-05-22T07:24:08.000Z</time>
      </trkpt>
      <trkpt lat="44.77426" lon="4.492">
        <ele>416.6</ele>
        <time>2020-05-22T07:24:11.000Z</time>
      </trkpt>
      <trkpt lat="44.77422" lon="4.49184">
        <ele>417</ele>
        <time>2020-05-22T07:24:14.000Z</time>
      </trkpt>
      <trkpt lat="44.77417" lon="4.49169">
        <ele>417.4</ele>
        <time>2020-05-22T07:24:17.000Z</time>
      </trkpt>
      <trkpt lat="44.77412" lon="4.49153">
        <ele>417.8</ele>
        <time>2020-05-22T07:24:20.000Z</time>
      </trkpt>
      <trkpt lat="44.7741" lon="4.49137">
        <ele>418.1</ele>
        <time>2020-05-22T07:24:23.000Z</time>
      </trkpt>
      <trkpt lat="44.77409" lon="4.49123">
        <ele>418.6</ele>
        <time>2020-05-22T07:24:26.000Z</time>
      </trkpt>
      <trkpt lat="44.77408" lon="4.49108">
        <ele>419</ele>
        <time>2020-05-22T07:24:29.000Z</time>
      </trkpt>
      <trkpt lat="44.77406" lon="4.49094">
        <ele>419.3</ele>
        <time>2020-05-22T07:24:32.000Z</time>
      </trkpt>
      <trkpt lat="44.77403" lon="4.4908">
        <ele>419.6</ele>
        <time>2020-05-22T07:24:35.000Z</time>
      </trkpt>
      <trkpt lat="44.77401" lon="4.49066">
        <ele>419.9</ele>
        <time>2020-05-22T07:24:38.000Z</time>
      </trkpt>
      <trkpt lat="44.77399" lon="4.49052">
        <ele>420.2</ele>
        <time>2020-05-22T07:24:41.000Z</time>
      </trkpt>
      <trkpt lat="44.77397" lon="4.49039">
        <ele>420.6</ele>
        <time>2020-05-22T07:24:44.000Z</time>
      </trkpt>
      <trkpt lat="44.77399" lon="4.49025">
        <ele>420.9</ele>
        <time>2020-05-22T07:24:47.000Z</time>
      </trkpt>
      <trkpt lat="44.77401" lon="4.49011">
        <ele>421.3</ele>
        <time>2020-05-22T07:24:50.000Z</time>
      </trkpt>
      <trkpt lat="44.77404" lon="4.48997">
        <ele>421.7</ele>
        <time>2020-05-22T07:24:53.000Z</time>
      </trkpt>
      <trkpt lat="44.77405" lon="4.48982">
        <ele>422.1</ele>
        <time>2020-05-22T07:24:56.000Z</time>
      </trkpt>
      <trkpt lat="44.77402" lon="4.4897">
        <ele>422.6</ele>
        <time>2020-05-22T07:24:59.000Z</time>
      </trkpt>
      <trkpt lat="44.77401" lon="4.48955">
        <ele>423.1</ele>
        <time>2020-05-22T07:25:02.000Z</time>
      </trkpt>
      <trkpt lat="44.77401" lon="4.48941">
        <ele>423.6</ele>
        <time>2020-05-22T07:25:05.000Z</time>
      </trkpt>
      <trkpt lat="44.77399" lon="4.48927">
        <ele>424</ele>
        <time>2020-05-22T07:25:08.000Z</time>
      </trkpt>
      <trkpt lat="44.77397" lon="4.48914">
        <ele>424.5</ele>
        <time>2020-05-22T07:25:11.000Z</time>
      </trkpt>
      <trkpt lat="44.77392" lon="4.48902">
        <ele>424.9</ele>
        <time>2020-05-22T07:25:14.000Z</time>
      </trkpt>
      <trkpt lat="44.77389" lon="4.48889">
        <ele>425.3</ele>
        <time>2020-05-22T07:25:17.000Z</time>
      </trkpt>
      <trkpt lat="44.77388" lon="4.48877">
        <ele>425.7</ele>
        <time>2020-05-22T07:25:20.000Z</time>
      </trkpt>
      <trkpt lat="44.77389" lon="4.48863">
        <ele>426.2</ele>
        <time>2020-05-22T07:25:23.000Z</time>
      </trkpt>
      <trkpt lat="44.77391" lon="4.48849">
        <ele>426.6</ele>
        <time>2020-05-22T07:25:26.000Z</time>
      </trkpt>
      <trkpt lat="44.77395" lon="4.48836">
        <ele>427.1</ele>
        <time>2020-05-22T07:25:29.000Z</time>
      </trkpt>
      <trkpt lat="44.77402" lon="4.48825">
        <ele>427.6</ele>
        <time>2020-05-22T07:25:32.000Z</time>
      </trkpt>
      <trkpt lat="44.77411" lon="4.48818">
        <ele>428.1</ele>
        <time>2020-05-22T07:25:35.000Z</time>
      </trkpt>
      <trkpt lat="44.77423" lon="4.48814">
        <ele>428.5</ele>
        <time>2020-05-22T07:25:38.000Z</time>
      </trkpt>
      <trkpt lat="44.77435" lon="4.48815">
        <ele>428.9</ele>
        <time>2020-05-22T07:25:41.000Z</time>
      </trkpt>
      <trkpt lat="44.77444" lon="4.4882">
        <ele>429.2</ele>
        <time>2020-05-22T07:25:44.000Z</time>
      </trkpt>
      <trkpt lat="44.77453" lon="4.48825">
        <ele>429.5</ele>
        <time>2020-05-22T07:25:47.000Z</time>
      </trkpt>
      <trkpt lat="44.77462" lon="4.48827">
        <ele>429.8</ele>
        <time>2020-05-22T07:25:50.000Z</time>
      </trkpt>
      <trkpt lat="44.77472" lon="4.48824">
        <ele>430.2</ele>
        <time>2020-05-22T07:25:53.000Z</time>
      </trkpt>
      <trkpt lat="44.77481" lon="4.48816">
        <ele>430.6</ele>
        <time>2020-05-22T07:25:56.000Z</time>
      </trkpt>
      <trkpt lat="44.7749" lon="4.48807">
        <ele>431.2</ele>
        <time>2020-05-22T07:25:59.000Z</time>
      </trkpt>
      <trkpt lat="44.77497" lon="4.48795">
        <ele>431.9</ele>
        <time>2020-05-22T07:26:02.000Z</time>
      </trkpt>
      <trkpt lat="44.77503" lon="4.48785">
        <ele>432.5</ele>
        <time>2020-05-22T07:26:05.000Z</time>
      </trkpt>
      <trkpt lat="44.77509" lon="4.48774">
        <ele>433.1</ele>
        <time>2020-05-22T07:26:08.000Z</time>
      </trkpt>
      <trkpt lat="44.77515" lon="4.48763">
        <ele>433.6</ele>
        <time>2020-05-22T07:26:11.000Z</time>
      </trkpt>
      <trkpt lat="44.77523" lon="4.4875">
        <ele>434.2</ele>
        <time>2020-05-22T07:26:15.000Z</time>
      </trkpt>
      <trkpt lat="44.77529" lon="4.48738">
        <ele>434.5</ele>
        <time>2020-05-22T07:26:18.000Z</time>
      </trkpt>
      <trkpt lat="44.77533" lon="4.48727">
        <ele>434.8</ele>
        <time>2020-05-22T07:26:21.000Z</time>
      </trkpt>
      <trkpt lat="44.77534" lon="4.48711">
        <ele>435.1</ele>
        <time>2020-05-22T07:26:24.000Z</time>
      </trkpt>
      <trkpt lat="44.77533" lon="4.48696">
        <ele>435.5</ele>
        <time>2020-05-22T07:26:27.000Z</time>
      </trkpt>
      <trkpt lat="44.77533" lon="4.48682">
        <ele>435.9</ele>
        <time>2020-05-22T07:26:30.000Z</time>
      </trkpt>
      <trkpt lat="44.77533" lon="4.48666">
        <ele>436.3</ele>
        <time>2020-05-22T07:26:33.000Z</time>
      </trkpt>
      <trkpt lat="44.77532" lon="4.48652">
        <ele>436.6</ele>
        <time>2020-05-22T07:26:36.000Z</time>
      </trkpt>
      <trkpt lat="44.77531" lon="4.48637">
        <ele>437</ele>
        <time>2020-05-22T07:26:39.000Z</time>
      </trkpt>
      <trkpt lat="44.77532" lon="4.48622">
        <ele>437.5</ele>
        <time>2020-05-22T07:26:42.000Z</time>
      </trkpt>
      <trkpt lat="44.77535" lon="4.48606">
        <ele>438</ele>
        <time>2020-05-22T07:26:45.000Z</time>
      </trkpt>
      <trkpt lat="44.77537" lon="4.4859">
        <ele>438.3</ele>
        <time>2020-05-22T07:26:48.000Z</time>
      </trkpt>
      <trkpt lat="44.7754" lon="4.48573">
        <ele>438.6</ele>
        <time>2020-05-22T07:26:51.000Z</time>
      </trkpt>
      <trkpt lat="44.7754" lon="4.48555">
        <ele>438.7</ele>
        <time>2020-05-22T07:26:54.000Z</time>
      </trkpt>
      <trkpt lat="44.7754" lon="4.48542">
        <ele>438.8</ele>
        <time>2020-05-22T07:26:56.000Z</time>
      </trkpt>
      <trkpt lat="44.77546" lon="4.48528">
        <ele>438.9</ele>
        <time>2020-05-22T07:26:58.000Z</time>
      </trkpt>
      <trkpt lat="44.77553" lon="4.48514">
        <ele>438.9</ele>
        <time>2020-05-22T07:27:00.000Z</time>
      </trkpt>
      <trkpt lat="44.77562" lon="4.48501">
        <ele>438.9</ele>
        <time>2020-05-22T07:27:02.000Z</time>
      </trkpt>
      <trkpt lat="44.77572" lon="4.48498">
        <ele>438.9</ele>
        <time>2020-05-22T07:27:04.000Z</time>
      </trkpt>
      <trkpt lat="44.77583" lon="4.485">
        <ele>439</ele>
        <time>2020-05-22T07:27:06.000Z</time>
      </trkpt>
      <trkpt lat="44.77593" lon="4.48499">
        <ele>439</ele>
        <time>2020-05-22T07:27:08.000Z</time>
      </trkpt>
      <trkpt lat="44.77603" lon="4.48502">
        <ele>439</ele>
        <time>2020-05-22T07:27:10.000Z</time>
      </trkpt>
      <trkpt lat="44.77616" lon="4.48497">
        <ele>439.1</ele>
        <time>2020-05-22T07:27:13.000Z</time>
      </trkpt>
      <trkpt lat="44.77623" lon="4.48486">
        <ele>439.1</ele>
        <time>2020-05-22T07:27:15.000Z</time>
      </trkpt>
      <trkpt lat="44.77625" lon="4.48473">
        <ele>439.1</ele>
        <time>2020-05-22T07:27:17.000Z</time>
      </trkpt>
      <trkpt lat="44.77625" lon="4.48458">
        <ele>439.2</ele>
        <time>2020-05-22T07:27:19.000Z</time>
      </trkpt>
      <trkpt lat="44.77627" lon="4.48444">
        <ele>439.3</ele>
        <time>2020-05-22T07:27:21.000Z</time>
      </trkpt>
      <trkpt lat="44.77633" lon="4.48434">
        <ele>439.5</ele>
        <time>2020-05-22T07:27:23.000Z</time>
      </trkpt>
      <trkpt lat="44.77642" lon="4.48428">
        <ele>439.7</ele>
        <time>2020-05-22T07:27:25.000Z</time>
      </trkpt>
      <trkpt lat="44.77651" lon="4.48425">
        <ele>439.9</ele>
        <time>2020-05-22T07:27:27.000Z</time>
      </trkpt>
      <trkpt lat="44.77661" lon="4.48419">
        <ele>440.3</ele>
        <time>2020-05-22T07:27:30.000Z</time>
      </trkpt>
      <trkpt lat="44.77672" lon="4.48414">
        <ele>440.7</ele>
        <time>2020-05-22T07:27:33.000Z</time>
      </trkpt>
      <trkpt lat="44.77679" lon="4.48406">
        <ele>441.1</ele>
        <time>2020-05-22T07:27:36.000Z</time>
      </trkpt>
      <trkpt lat="44.77686" lon="4.48398">
        <ele>441.6</ele>
        <time>2020-05-22T07:27:39.000Z</time>
      </trkpt>
      <trkpt lat="44.77694" lon="4.48389">
        <ele>441.9</ele>
        <time>2020-05-22T07:27:42.000Z</time>
      </trkpt>
      <trkpt lat="44.77703" lon="4.48383">
        <ele>442.4</ele>
        <time>2020-05-22T07:27:45.000Z</time>
      </trkpt>
      <trkpt lat="44.77712" lon="4.48377">
        <ele>443</ele>
        <time>2020-05-22T07:27:48.000Z</time>
      </trkpt>
      <trkpt lat="44.77721" lon="4.4837">
        <ele>443.6</ele>
        <time>2020-05-22T07:27:51.000Z</time>
      </trkpt>
      <trkpt lat="44.77731" lon="4.48364">
        <ele>444.2</ele>
        <time>2020-05-22T07:27:54.000Z</time>
      </trkpt>
      <trkpt lat="44.77739" lon="4.48356">
        <ele>444.9</ele>
        <time>2020-05-22T07:27:57.000Z</time>
      </trkpt>
      <trkpt lat="44.77748" lon="4.48347">
        <ele>445.5</ele>
        <time>2020-05-22T07:28:01.000Z</time>
      </trkpt>
      <trkpt lat="44.77759" lon="4.4834">
        <ele>446.1</ele>
        <time>2020-05-22T07:28:05.000Z</time>
      </trkpt>
      <trkpt lat="44.77769" lon="4.48334">
        <ele>446.7</ele>
        <time>2020-05-22T07:28:09.000Z</time>
      </trkpt>
      <trkpt lat="44.77778" lon="4.4833">
        <ele>447.1</ele>
        <time>2020-05-22T07:28:12.000Z</time>
      </trkpt>
      <trkpt lat="44.77784" lon="4.4832">
        <ele>447.9</ele>
        <time>2020-05-22T07:28:16.000Z</time>
      </trkpt>
      <trkpt lat="44.77789" lon="4.48308">
        <ele>448.4</ele>
        <time>2020-05-22T07:28:19.000Z</time>
      </trkpt>
      <trkpt lat="44.77794" lon="4.48296">
        <ele>448.9</ele>
        <time>2020-05-22T07:28:22.000Z</time>
      </trkpt>
      <trkpt lat="44.77799" lon="4.48285">
        <ele>449.3</ele>
        <time>2020-05-22T07:28:25.000Z</time>
      </trkpt>
      <trkpt lat="44.77803" lon="4.48272">
        <ele>449.8</ele>
        <time>2020-05-22T07:28:28.000Z</time>
      </trkpt>
      <trkpt lat="44.77806" lon="4.48256">
        <ele>450.6</ele>
        <time>2020-05-22T07:28:32.000Z</time>
      </trkpt>
      <trkpt lat="44.77808" lon="4.48243">
        <ele>451.2</ele>
        <time>2020-05-22T07:28:35.000Z</time>
      </trkpt>
      <trkpt lat="44.77809" lon="4.4823">
        <ele>451.7</ele>
        <time>2020-05-22T07:28:38.000Z</time>
      </trkpt>
      <trkpt lat="44.77809" lon="4.48217">
        <ele>452.1</ele>
        <time>2020-05-22T07:28:41.000Z</time>
      </trkpt>
      <trkpt lat="44.77807" lon="4.48205">
        <ele>452.8</ele>
        <time>2020-05-22T07:28:44.000Z</time>
      </trkpt>
      <trkpt lat="44.77805" lon="4.48189">
        <ele>453.3</ele>
        <time>2020-05-22T07:28:48.000Z</time>
      </trkpt>
      <trkpt lat="44.77799" lon="4.48178">
        <ele>453.7</ele>
        <time>2020-05-22T07:28:51.000Z</time>
      </trkpt>
      <trkpt lat="44.77792" lon="4.48169">
        <ele>454.1</ele>
        <time>2020-05-22T07:28:54.000Z</time>
      </trkpt>
      <trkpt lat="44.77786" lon="4.4816">
        <ele>454.4</ele>
        <time>2020-05-22T07:28:57.000Z</time>
      </trkpt>
      <trkpt lat="44.77777" lon="4.48148">
        <ele>454.9</ele>
        <time>2020-05-22T07:29:01.000Z</time>
      </trkpt>
      <trkpt lat="44.77771" lon="4.48135">
        <ele>455.6</ele>
        <time>2020-05-22T07:29:05.000Z</time>
      </trkpt>
      <trkpt lat="44.77769" lon="4.48119">
        <ele>456.2</ele>
        <time>2020-05-22T07:29:09.000Z</time>
      </trkpt>
      <trkpt lat="44.77772" lon="4.48106">
        <ele>456.6</ele>
        <time>2020-05-22T07:29:12.000Z</time>
      </trkpt>
      <trkpt lat="44.77774" lon="4.48092">
        <ele>457.1</ele>
        <time>2020-05-22T07:29:15.000Z</time>
      </trkpt>
      <trkpt lat="44.7778" lon="4.4808">
        <ele>457.6</ele>
        <time>2020-05-22T07:29:18.000Z</time>
      </trkpt>
      <trkpt lat="44.77785" lon="4.48067">
        <ele>458.2</ele>
        <time>2020-05-22T07:29:21.000Z</time>
      </trkpt>
      <trkpt lat="44.77791" lon="4.48056">
        <ele>458.8</ele>
        <time>2020-05-22T07:29:24.000Z</time>
      </trkpt>
      <trkpt lat="44.77796" lon="4.48044">
        <ele>459.3</ele>
        <time>2020-05-22T07:29:27.000Z</time>
      </trkpt>
      <trkpt lat="44.778" lon="4.48028">
        <ele>460</ele>
        <time>2020-05-22T07:29:31.000Z</time>
      </trkpt>
      <trkpt lat="44.77806" lon="4.48015">
        <ele>460.6</ele>
        <time>2020-05-22T07:29:35.000Z</time>
      </trkpt>
      <trkpt lat="44.77811" lon="4.48003">
        <ele>461.3</ele>
        <time>2020-05-22T07:29:39.000Z</time>
      </trkpt>
      <trkpt lat="44.77817" lon="4.47991">
        <ele>462</ele>
        <time>2020-05-22T07:29:43.000Z</time>
      </trkpt>
      <trkpt lat="44.77825" lon="4.47982">
        <ele>462.4</ele>
        <time>2020-05-22T07:29:46.000Z</time>
      </trkpt>
      <trkpt lat="44.77833" lon="4.47974">
        <ele>463</ele>
        <time>2020-05-22T07:29:49.000Z</time>
      </trkpt>
      <trkpt lat="44.77839" lon="4.47964">
        <ele>463.5</ele>
        <time>2020-05-22T07:29:52.000Z</time>
      </trkpt>
      <trkpt lat="44.77845" lon="4.4795">
        <ele>464.3</ele>
        <time>2020-05-22T07:29:56.000Z</time>
      </trkpt>
      <trkpt lat="44.77849" lon="4.47935">
        <ele>465</ele>
        <time>2020-05-22T07:30:00.000Z</time>
      </trkpt>
      <trkpt lat="44.77844" lon="4.47921">
        <ele>465.7</ele>
        <time>2020-05-22T07:30:05.000Z</time>
      </trkpt>
      <trkpt lat="44.77835" lon="4.47918">
        <ele>466.2</ele>
        <time>2020-05-22T07:30:09.000Z</time>
      </trkpt>
      <trkpt lat="44.77826" lon="4.47918">
        <ele>466.7</ele>
        <time>2020-05-22T07:30:13.000Z</time>
      </trkpt>
      <trkpt lat="44.77817" lon="4.4792">
        <ele>467.1</ele>
        <time>2020-05-22T07:30:16.000Z</time>
      </trkpt>
      <trkpt lat="44.77805" lon="4.47924">
        <ele>467.8</ele>
        <time>2020-05-22T07:30:20.000Z</time>
      </trkpt>
      <trkpt lat="44.77796" lon="4.47928">
        <ele>468.4</ele>
        <time>2020-05-22T07:30:23.000Z</time>
      </trkpt>
      <trkpt lat="44.77789" lon="4.47937">
        <ele>468.9</ele>
        <time>2020-05-22T07:30:26.000Z</time>
      </trkpt>
      <trkpt lat="44.7778" lon="4.47949">
        <ele>469.5</ele>
        <time>2020-05-22T07:30:30.000Z</time>
      </trkpt>
      <trkpt lat="44.77771" lon="4.47959">
        <ele>470</ele>
        <time>2020-05-22T07:30:34.000Z</time>
      </trkpt>
      <trkpt lat="44.77763" lon="4.47968">
        <ele>470.4</ele>
        <time>2020-05-22T07:30:37.000Z</time>
      </trkpt>
      <trkpt lat="44.77756" lon="4.47978">
        <ele>470.8</ele>
        <time>2020-05-22T07:30:40.000Z</time>
      </trkpt>
      <trkpt lat="44.77749" lon="4.4799">
        <ele>471.4</ele>
        <time>2020-05-22T07:30:44.000Z</time>
      </trkpt>
      <trkpt lat="44.7774" lon="4.47992">
        <ele>472</ele>
        <time>2020-05-22T07:30:48.000Z</time>
      </trkpt>
      <trkpt lat="44.77731" lon="4.47988">
        <ele>472.6</ele>
        <time>2020-05-22T07:30:52.000Z</time>
      </trkpt>
      <trkpt lat="44.7772" lon="4.47989">
        <ele>473</ele>
        <time>2020-05-22T07:30:55.000Z</time>
      </trkpt>
      <trkpt lat="44.77709" lon="4.47992">
        <ele>473.6</ele>
        <time>2020-05-22T07:30:59.000Z</time>
      </trkpt>
      <trkpt lat="44.77701" lon="4.47988">
        <ele>474.1</ele>
        <time>2020-05-22T07:31:02.000Z</time>
      </trkpt>
      <trkpt lat="44.77692" lon="4.47978">
        <ele>474.7</ele>
        <time>2020-05-22T07:31:05.000Z</time>
      </trkpt>
      <trkpt lat="44.77682" lon="4.47972">
        <ele>475.1</ele>
        <time>2020-05-22T07:31:07.000Z</time>
      </trkpt>
      <trkpt lat="44.77673" lon="4.47963">
        <ele>475.5</ele>
        <time>2020-05-22T07:31:10.000Z</time>
      </trkpt>
      <trkpt lat="44.77663" lon="4.47952">
        <ele>475.9</ele>
        <time>2020-05-22T07:31:13.000Z</time>
      </trkpt>
      <trkpt lat="44.77655" lon="4.47942">
        <ele>476.2</ele>
        <time>2020-05-22T07:31:16.000Z</time>
      </trkpt>
      <trkpt lat="44.77647" lon="4.4793">
        <ele>476.6</ele>
        <time>2020-05-22T07:31:20.000Z</time>
      </trkpt>
      <trkpt lat="44.77641" lon="4.47917">
        <ele>476.9</ele>
        <time>2020-05-22T07:31:24.000Z</time>
      </trkpt>
      <trkpt lat="44.77638" lon="4.47905">
        <ele>477</ele>
        <time>2020-05-22T07:31:27.000Z</time>
      </trkpt>
      <trkpt lat="44.77632" lon="4.47895">
        <ele>477.1</ele>
        <time>2020-05-22T07:31:30.000Z</time>
      </trkpt>
      <trkpt lat="44.77626" lon="4.47884">
        <ele>477.2</ele>
        <time>2020-05-22T07:31:32.000Z</time>
      </trkpt>
      <trkpt lat="44.77622" lon="4.47872">
        <ele>477.4</ele>
        <time>2020-05-22T07:31:35.000Z</time>
      </trkpt>
      <trkpt lat="44.77616" lon="4.47862">
        <ele>477.4</ele>
        <time>2020-05-22T07:31:37.000Z</time>
      </trkpt>
      <trkpt lat="44.77609" lon="4.47846">
        <ele>477.7</ele>
        <time>2020-05-22T07:31:40.000Z</time>
      </trkpt>
      <trkpt lat="44.77602" lon="4.47833">
        <ele>478.1</ele>
        <time>2020-05-22T07:31:43.000Z</time>
      </trkpt>
      <trkpt lat="44.77599" lon="4.47816">
        <ele>478.5</ele>
        <time>2020-05-22T07:31:46.000Z</time>
      </trkpt>
      <trkpt lat="44.77592" lon="4.47809">
        <ele>478.8</ele>
        <time>2020-05-22T07:31:48.000Z</time>
      </trkpt>
      <trkpt lat="44.77584" lon="4.47801">
        <ele>479</ele>
        <time>2020-05-22T07:31:50.000Z</time>
      </trkpt>
      <trkpt lat="44.77578" lon="4.47789">
        <ele>479.3</ele>
        <time>2020-05-22T07:31:53.000Z</time>
      </trkpt>
      <trkpt lat="44.77573" lon="4.47776">
        <ele>479.6</ele>
        <time>2020-05-22T07:31:57.000Z</time>
      </trkpt>
      <trkpt lat="44.77566" lon="4.47765">
        <ele>479.8</ele>
        <time>2020-05-22T07:32:00.000Z</time>
      </trkpt>
      <trkpt lat="44.77558" lon="4.47756">
        <ele>480.2</ele>
        <time>2020-05-22T07:32:03.000Z</time>
      </trkpt>
      <trkpt lat="44.77551" lon="4.47739">
        <ele>480.5</ele>
        <time>2020-05-22T07:32:07.000Z</time>
      </trkpt>
      <trkpt lat="44.7754" lon="4.47729">
        <ele>480.7</ele>
        <time>2020-05-22T07:32:10.000Z</time>
      </trkpt>
      <trkpt lat="44.77533" lon="4.4772">
        <ele>480.9</ele>
        <time>2020-05-22T07:32:13.000Z</time>
      </trkpt>
      <trkpt lat="44.77524" lon="4.47715">
        <ele>481</ele>
        <time>2020-05-22T07:32:15.000Z</time>
      </trkpt>
      <trkpt lat="44.77518" lon="4.47705">
        <ele>481.1</ele>
        <time>2020-05-22T07:32:17.000Z</time>
      </trkpt>
      <trkpt lat="44.77517" lon="4.47691">
        <ele>481.1</ele>
        <time>2020-05-22T07:32:19.000Z</time>
      </trkpt>
      <trkpt lat="44.77514" lon="4.47675">
        <ele>481</ele>
        <time>2020-05-22T07:32:21.000Z</time>
      </trkpt>
      <trkpt lat="44.7751" lon="4.47663">
        <ele>481.1</ele>
        <time>2020-05-22T07:32:23.000Z</time>
      </trkpt>
      <trkpt lat="44.77504" lon="4.47654">
        <ele>481.1</ele>
        <time>2020-05-22T07:32:25.000Z</time>
      </trkpt>
      <trkpt lat="44.77495" lon="4.47643">
        <ele>481.2</ele>
        <time>2020-05-22T07:32:27.000Z</time>
      </trkpt>
      <trkpt lat="44.77486" lon="4.47633">
        <ele>481.4</ele>
        <time>2020-05-22T07:32:29.000Z</time>
      </trkpt>
      <trkpt lat="44.7748" lon="4.47622">
        <ele>481.5</ele>
        <time>2020-05-22T07:32:31.000Z</time>
      </trkpt>
      <trkpt lat="44.7748" lon="4.47604">
        <ele>481.7</ele>
        <time>2020-05-22T07:32:33.000Z</time>
      </trkpt>
      <trkpt lat="44.7748" lon="4.47585">
        <ele>481.8</ele>
        <time>2020-05-22T07:32:35.000Z</time>
      </trkpt>
      <trkpt lat="44.77482" lon="4.47568">
        <ele>481.9</ele>
        <time>2020-05-22T07:32:37.000Z</time>
      </trkpt>
      <trkpt lat="44.77482" lon="4.47553">
        <ele>482</ele>
        <time>2020-05-22T07:32:39.000Z</time>
      </trkpt>
      <trkpt lat="44.77484" lon="4.47538">
        <ele>482.1</ele>
        <time>2020-05-22T07:32:41.000Z</time>
      </trkpt>
      <trkpt lat="44.77486" lon="4.47523">
        <ele>482.3</ele>
        <time>2020-05-22T07:32:43.000Z</time>
      </trkpt>
      <trkpt lat="44.77488" lon="4.4751">
        <ele>482.5</ele>
        <time>2020-05-22T07:32:45.000Z</time>
      </trkpt>
      <trkpt lat="44.77489" lon="4.47492">
        <ele>482.9</ele>
        <time>2020-05-22T07:32:48.000Z</time>
      </trkpt>
      <trkpt lat="44.77488" lon="4.47478">
        <ele>483.5</ele>
        <time>2020-05-22T07:32:51.000Z</time>
      </trkpt>
      <trkpt lat="44.77486" lon="4.47463">
        <ele>483.9</ele>
        <time>2020-05-22T07:32:54.000Z</time>
      </trkpt>
      <trkpt lat="44.77485" lon="4.47448">
        <ele>484.4</ele>
        <time>2020-05-22T07:32:57.000Z</time>
      </trkpt>
      <trkpt lat="44.77487" lon="4.47434">
        <ele>484.7</ele>
        <time>2020-05-22T07:33:00.000Z</time>
      </trkpt>
      <trkpt lat="44.77489" lon="4.47419">
        <ele>485.1</ele>
        <time>2020-05-22T07:33:04.000Z</time>
      </trkpt>
      <trkpt lat="44.77492" lon="4.47405">
        <ele>485.4</ele>
        <time>2020-05-22T07:33:08.000Z</time>
      </trkpt>
      <trkpt lat="44.77497" lon="4.47393">
        <ele>485.8</ele>
        <time>2020-05-22T07:33:11.000Z</time>
      </trkpt>
      <trkpt lat="44.77502" lon="4.4738">
        <ele>486</ele>
        <time>2020-05-22T07:33:14.000Z</time>
      </trkpt>
      <trkpt lat="44.77502" lon="4.47365">
        <ele>486.5</ele>
        <time>2020-05-22T07:33:18.000Z</time>
      </trkpt>
      <trkpt lat="44.77504" lon="4.47352">
        <ele>486.9</ele>
        <time>2020-05-22T07:33:21.000Z</time>
      </trkpt>
      <trkpt lat="44.7751" lon="4.47341">
        <ele>487.3</ele>
        <time>2020-05-22T07:33:24.000Z</time>
      </trkpt>
      <trkpt lat="44.77516" lon="4.4733">
        <ele>487.7</ele>
        <time>2020-05-22T07:33:27.000Z</time>
      </trkpt>
      <trkpt lat="44.77522" lon="4.47321">
        <ele>488.1</ele>
        <time>2020-05-22T07:33:30.000Z</time>
      </trkpt>
      <trkpt lat="44.77531" lon="4.47311">
        <ele>488.5</ele>
        <time>2020-05-22T07:33:33.000Z</time>
      </trkpt>
      <trkpt lat="44.77539" lon="4.47302">
        <ele>489.1</ele>
        <time>2020-05-22T07:33:36.000Z</time>
      </trkpt>
      <trkpt lat="44.77545" lon="4.47292">
        <ele>489.6</ele>
        <time>2020-05-22T07:33:39.000Z</time>
      </trkpt>
      <trkpt lat="44.7755" lon="4.4728">
        <ele>490</ele>
        <time>2020-05-22T07:33:42.000Z</time>
      </trkpt>
      <trkpt lat="44.77553" lon="4.47267">
        <ele>490.4</ele>
        <time>2020-05-22T07:33:45.000Z</time>
      </trkpt>
      <trkpt lat="44.77552" lon="4.47254">
        <ele>490.8</ele>
        <time>2020-05-22T07:33:48.000Z</time>
      </trkpt>
      <trkpt lat="44.77551" lon="4.47241">
        <ele>491.3</ele>
        <time>2020-05-22T07:33:51.000Z</time>
      </trkpt>
      <trkpt lat="44.77548" lon="4.47228">
        <ele>491.8</ele>
        <time>2020-05-22T07:33:54.000Z</time>
      </trkpt>
      <trkpt lat="44.77546" lon="4.47212">
        <ele>492.6</ele>
        <time>2020-05-22T07:33:58.000Z</time>
      </trkpt>
      <trkpt lat="44.77542" lon="4.47197">
        <ele>493.4</ele>
        <time>2020-05-22T07:34:02.000Z</time>
      </trkpt>
      <trkpt lat="44.77538" lon="4.47182">
        <ele>494.3</ele>
        <time>2020-05-22T07:34:06.000Z</time>
      </trkpt>
      <trkpt lat="44.77537" lon="4.47168">
        <ele>495</ele>
        <time>2020-05-22T07:34:10.000Z</time>
      </trkpt>
      <trkpt lat="44.77535" lon="4.47152">
        <ele>495.6</ele>
        <time>2020-05-22T07:34:14.000Z</time>
      </trkpt>
      <trkpt lat="44.77534" lon="4.47139">
        <ele>496.1</ele>
        <time>2020-05-22T07:34:17.000Z</time>
      </trkpt>
      <trkpt lat="44.77531" lon="4.47127">
        <ele>496.7</ele>
        <time>2020-05-22T07:34:20.000Z</time>
      </trkpt>
      <trkpt lat="44.77528" lon="4.47115">
        <ele>497.3</ele>
        <time>2020-05-22T07:34:23.000Z</time>
      </trkpt>
      <trkpt lat="44.77523" lon="4.47099">
        <ele>498</ele>
        <time>2020-05-22T07:34:27.000Z</time>
      </trkpt>
      <trkpt lat="44.77518" lon="4.47088">
        <ele>498.6</ele>
        <time>2020-05-22T07:34:30.000Z</time>
      </trkpt>
      <trkpt lat="44.77513" lon="4.47077">
        <ele>499.1</ele>
        <time>2020-05-22T07:34:33.000Z</time>
      </trkpt>
      <trkpt lat="44.77506" lon="4.47064">
        <ele>499.7</ele>
        <time>2020-05-22T07:34:37.000Z</time>
      </trkpt>
      <trkpt lat="44.77498" lon="4.47051">
        <ele>500.3</ele>
        <time>2020-05-22T07:34:41.000Z</time>
      </trkpt>
      <trkpt lat="44.77489" lon="4.47041">
        <ele>500.9</ele>
        <time>2020-05-22T07:34:45.000Z</time>
      </trkpt>
      <trkpt lat="44.77482" lon="4.47031">
        <ele>501.4</ele>
        <time>2020-05-22T07:34:48.000Z</time>
      </trkpt>
      <trkpt lat="44.77478" lon="4.47017">
        <ele>501.9</ele>
        <time>2020-05-22T07:34:51.000Z</time>
      </trkpt>
      <trkpt lat="44.77476" lon="4.47005">
        <ele>502.5</ele>
        <time>2020-05-22T07:34:54.000Z</time>
      </trkpt>
      <trkpt lat="44.77473" lon="4.46992">
        <ele>503</ele>
        <time>2020-05-22T07:34:57.000Z</time>
      </trkpt>
      <trkpt lat="44.7747" lon="4.46979">
        <ele>503.4</ele>
        <time>2020-05-22T07:35:00.000Z</time>
      </trkpt>
      <trkpt lat="44.7747" lon="4.46963">
        <ele>504.1</ele>
        <time>2020-05-22T07:35:04.000Z</time>
      </trkpt>
      <trkpt lat="44.7747" lon="4.46949">
        <ele>504.6</ele>
        <time>2020-05-22T07:35:07.000Z</time>
      </trkpt>
      <trkpt lat="44.77471" lon="4.46936">
        <ele>505.3</ele>
        <time>2020-05-22T07:35:10.000Z</time>
      </trkpt>
      <trkpt lat="44.77473" lon="4.46923">
        <ele>505.8</ele>
        <time>2020-05-22T07:35:13.000Z</time>
      </trkpt>
      <trkpt lat="44.77475" lon="4.46906">
        <ele>506.5</ele>
        <time>2020-05-22T07:35:17.000Z</time>
      </trkpt>
      <trkpt lat="44.77476" lon="4.46893">
        <ele>507.1</ele>
        <time>2020-05-22T07:35:20.000Z</time>
      </trkpt>
      <trkpt lat="44.77475" lon="4.46877">
        <ele>507.6</ele>
        <time>2020-05-22T07:35:24.000Z</time>
      </trkpt>
      <trkpt lat="44.77476" lon="4.46861">
        <ele>508.2</ele>
        <time>2020-05-22T07:35:28.000Z</time>
      </trkpt>
      <trkpt lat="44.77474" lon="4.46844">
        <ele>508.8</ele>
        <time>2020-05-22T07:35:32.000Z</time>
      </trkpt>
      <trkpt lat="44.77472" lon="4.46828">
        <ele>509.5</ele>
        <time>2020-05-22T07:35:36.000Z</time>
      </trkpt>
      <trkpt lat="44.77468" lon="4.46817">
        <ele>510</ele>
        <time>2020-05-22T07:35:39.000Z</time>
      </trkpt>
      <trkpt lat="44.77463" lon="4.46806">
        <ele>510.5</ele>
        <time>2020-05-22T07:35:42.000Z</time>
      </trkpt>
      <trkpt lat="44.77456" lon="4.46792">
        <ele>511.1</ele>
        <time>2020-05-22T07:35:46.000Z</time>
      </trkpt>
      <trkpt lat="44.77449" lon="4.4678">
        <ele>511.7</ele>
        <time>2020-05-22T07:35:50.000Z</time>
      </trkpt>
      <trkpt lat="44.77439" lon="4.4677">
        <ele>512.3</ele>
        <time>2020-05-22T07:35:54.000Z</time>
      </trkpt>
      <trkpt lat="44.77432" lon="4.46762">
        <ele>512.7</ele>
        <time>2020-05-22T07:35:57.000Z</time>
      </trkpt>
      <trkpt lat="44.77426" lon="4.46751">
        <ele>513</ele>
        <time>2020-05-22T07:36:00.000Z</time>
      </trkpt>
      <trkpt lat="44.77423" lon="4.46739">
        <ele>513.5</ele>
        <time>2020-05-22T07:36:03.000Z</time>
      </trkpt>
      <trkpt lat="44.77421" lon="4.46723">
        <ele>514.4</ele>
        <time>2020-05-22T07:36:08.000Z</time>
      </trkpt>
      <trkpt lat="44.77424" lon="4.46708">
        <ele>515.4</ele>
        <time>2020-05-22T07:36:13.000Z</time>
      </trkpt>
      <trkpt lat="44.7742" lon="4.46695">
        <ele>515.9</ele>
        <time>2020-05-22T07:36:16.000Z</time>
      </trkpt>
      <trkpt lat="44.77414" lon="4.46684">
        <ele>516.5</ele>
        <time>2020-05-22T07:36:19.000Z</time>
      </trkpt>
      <trkpt lat="44.77408" lon="4.46673">
        <ele>517.3</ele>
        <time>2020-05-22T07:36:23.000Z</time>
      </trkpt>
      <trkpt lat="44.77404" lon="4.46661">
        <ele>518</ele>
        <time>2020-05-22T07:36:27.000Z</time>
      </trkpt>
      <trkpt lat="44.774" lon="4.4665">
        <ele>518.6</ele>
        <time>2020-05-22T07:36:30.000Z</time>
      </trkpt>
      <trkpt lat="44.77393" lon="4.46638">
        <ele>519.1</ele>
        <time>2020-05-22T07:36:33.000Z</time>
      </trkpt>
      <trkpt lat="44.77387" lon="4.46627">
        <ele>519.8</ele>
        <time>2020-05-22T07:36:37.000Z</time>
      </trkpt>
      <trkpt lat="44.77379" lon="4.46619">
        <ele>520.4</ele>
        <time>2020-05-22T07:36:40.000Z</time>
      </trkpt>
      <trkpt lat="44.77371" lon="4.46608">
        <ele>520.9</ele>
        <time>2020-05-22T07:36:43.000Z</time>
      </trkpt>
      <trkpt lat="44.77364" lon="4.46599">
        <ele>521.3</ele>
        <time>2020-05-22T07:36:46.000Z</time>
      </trkpt>
      <trkpt lat="44.77358" lon="4.46587">
        <ele>521.8</ele>
        <time>2020-05-22T07:36:50.000Z</time>
      </trkpt>
      <trkpt lat="44.77352" lon="4.46575">
        <ele>522.4</ele>
        <time>2020-05-22T07:36:54.000Z</time>
      </trkpt>
      <trkpt lat="44.77344" lon="4.46564">
        <ele>522.9</ele>
        <time>2020-05-22T07:36:57.000Z</time>
      </trkpt>
      <trkpt lat="44.77338" lon="4.46553">
        <ele>523.2</ele>
        <time>2020-05-22T07:37:00.000Z</time>
      </trkpt>
      <trkpt lat="44.77332" lon="4.46542">
        <ele>523.6</ele>
        <time>2020-05-22T07:37:03.000Z</time>
      </trkpt>
      <trkpt lat="44.77325" lon="4.4653">
        <ele>523.8</ele>
        <time>2020-05-22T07:37:06.000Z</time>
      </trkpt>
      <trkpt lat="44.77321" lon="4.46518">
        <ele>524</ele>
        <time>2020-05-22T07:37:09.000Z</time>
      </trkpt>
      <trkpt lat="44.77316" lon="4.46505">
        <ele>524.3</ele>
        <time>2020-05-22T07:37:12.000Z</time>
      </trkpt>
      <trkpt lat="44.77314" lon="4.46491">
        <ele>524.7</ele>
        <time>2020-05-22T07:37:15.000Z</time>
      </trkpt>
      <trkpt lat="44.7731" lon="4.46479">
        <ele>524.9</ele>
        <time>2020-05-22T07:37:18.000Z</time>
      </trkpt>
      <trkpt lat="44.77302" lon="4.46466">
        <ele>525.5</ele>
        <time>2020-05-22T07:37:22.000Z</time>
      </trkpt>
      <trkpt lat="44.77297" lon="4.4645">
        <ele>525.9</ele>
        <time>2020-05-22T07:37:26.000Z</time>
      </trkpt>
      <trkpt lat="44.77295" lon="4.46435">
        <ele>526.3</ele>
        <time>2020-05-22T07:37:29.000Z</time>
      </trkpt>
      <trkpt lat="44.77292" lon="4.46422">
        <ele>526.6</ele>
        <time>2020-05-22T07:37:32.000Z</time>
      </trkpt>
      <trkpt lat="44.77285" lon="4.46407">
        <ele>527</ele>
        <time>2020-05-22T07:37:35.000Z</time>
      </trkpt>
      <trkpt lat="44.77278" lon="4.46397">
        <ele>527.4</ele>
        <time>2020-05-22T07:37:38.000Z</time>
      </trkpt>
      <trkpt lat="44.77269" lon="4.4639">
        <ele>527.9</ele>
        <time>2020-05-22T07:37:41.000Z</time>
      </trkpt>
      <trkpt lat="44.77259" lon="4.46382">
        <ele>528.5</ele>
        <time>2020-05-22T07:37:44.000Z</time>
      </trkpt>
      <trkpt lat="44.77253" lon="4.4637">
        <ele>529</ele>
        <time>2020-05-22T07:37:47.000Z</time>
      </trkpt>
      <trkpt lat="44.7725" lon="4.46356">
        <ele>529.4</ele>
        <time>2020-05-22T07:37:50.000Z</time>
      </trkpt>
      <trkpt lat="44.77249" lon="4.46339">
        <ele>530.1</ele>
        <time>2020-05-22T07:37:54.000Z</time>
      </trkpt>
      <trkpt lat="44.77247" lon="4.46327">
        <ele>530.6</ele>
        <time>2020-05-22T07:37:57.000Z</time>
      </trkpt>
      <trkpt lat="44.77242" lon="4.46314">
        <ele>531.1</ele>
        <time>2020-05-22T07:38:00.000Z</time>
      </trkpt>
      <trkpt lat="44.77237" lon="4.46304">
        <ele>531.6</ele>
        <time>2020-05-22T07:38:03.000Z</time>
      </trkpt>
      <trkpt lat="44.77229" lon="4.46292">
        <ele>532.4</ele>
        <time>2020-05-22T07:38:07.000Z</time>
      </trkpt>
      <trkpt lat="44.77221" lon="4.46284">
        <ele>532.9</ele>
        <time>2020-05-22T07:38:10.000Z</time>
      </trkpt>
      <trkpt lat="44.77212" lon="4.46276">
        <ele>533.3</ele>
        <time>2020-05-22T07:38:13.000Z</time>
      </trkpt>
      <trkpt lat="44.77204" lon="4.46268">
        <ele>533.8</ele>
        <time>2020-05-22T07:38:16.000Z</time>
      </trkpt>
      <trkpt lat="44.77198" lon="4.46259">
        <ele>534.3</ele>
        <time>2020-05-22T07:38:19.000Z</time>
      </trkpt>
      <trkpt lat="44.77192" lon="4.46248">
        <ele>534.7</ele>
        <time>2020-05-22T07:38:22.000Z</time>
      </trkpt>
      <trkpt lat="44.77187" lon="4.46233">
        <ele>535.3</ele>
        <time>2020-05-22T07:38:26.000Z</time>
      </trkpt>
      <trkpt lat="44.77183" lon="4.46219">
        <ele>535.8</ele>
        <time>2020-05-22T07:38:30.000Z</time>
      </trkpt>
      <trkpt lat="44.77178" lon="4.46204">
        <ele>536.4</ele>
        <time>2020-05-22T07:38:34.000Z</time>
      </trkpt>
      <trkpt lat="44.77174" lon="4.46189">
        <ele>537</ele>
        <time>2020-05-22T07:38:38.000Z</time>
      </trkpt>
      <trkpt lat="44.77171" lon="4.46175">
        <ele>537.3</ele>
        <time>2020-05-22T07:38:41.000Z</time>
      </trkpt>
      <trkpt lat="44.77167" lon="4.46164">
        <ele>537.8</ele>
        <time>2020-05-22T07:38:44.000Z</time>
      </trkpt>
      <trkpt lat="44.77159" lon="4.46154">
        <ele>538.2</ele>
        <time>2020-05-22T07:38:47.000Z</time>
      </trkpt>
      <trkpt lat="44.7715" lon="4.46148">
        <ele>538.7</ele>
        <time>2020-05-22T07:38:50.000Z</time>
      </trkpt>
      <trkpt lat="44.77142" lon="4.46143">
        <ele>539.2</ele>
        <time>2020-05-22T07:38:53.000Z</time>
      </trkpt>
      <trkpt lat="44.77134" lon="4.46135">
        <ele>539.7</ele>
        <time>2020-05-22T07:38:56.000Z</time>
      </trkpt>
      <trkpt lat="44.77129" lon="4.46124">
        <ele>540.1</ele>
        <time>2020-05-22T07:38:59.000Z</time>
      </trkpt>
      <trkpt lat="44.7713" lon="4.4611">
        <ele>540.8</ele>
        <time>2020-05-22T07:39:03.000Z</time>
      </trkpt>
      <trkpt lat="44.77134" lon="4.46096">
        <ele>541.6</ele>
        <time>2020-05-22T07:39:07.000Z</time>
      </trkpt>
      <trkpt lat="44.77139" lon="4.46084">
        <ele>542.4</ele>
        <time>2020-05-22T07:39:10.000Z</time>
      </trkpt>
      <trkpt lat="44.77141" lon="4.46067">
        <ele>543.4</ele>
        <time>2020-05-22T07:39:14.000Z</time>
      </trkpt>
      <trkpt lat="44.77139" lon="4.46051">
        <ele>544.2</ele>
        <time>2020-05-22T07:39:18.000Z</time>
      </trkpt>
      <trkpt lat="44.77137" lon="4.46035">
        <ele>545.1</ele>
        <time>2020-05-22T07:39:22.000Z</time>
      </trkpt>
      <trkpt lat="44.77134" lon="4.46019">
        <ele>545.8</ele>
        <time>2020-05-22T07:39:26.000Z</time>
      </trkpt>
      <trkpt lat="44.7713" lon="4.46007">
        <ele>546.2</ele>
        <time>2020-05-22T07:39:29.000Z</time>
      </trkpt>
      <trkpt lat="44.77124" lon="4.45995">
        <ele>546.6</ele>
        <time>2020-05-22T07:39:32.000Z</time>
      </trkpt>
      <trkpt lat="44.77117" lon="4.45985">
        <ele>547</ele>
        <time>2020-05-22T07:39:35.000Z</time>
      </trkpt>
      <trkpt lat="44.77109" lon="4.45976">
        <ele>547.3</ele>
        <time>2020-05-22T07:39:38.000Z</time>
      </trkpt>
      <trkpt lat="44.771" lon="4.45968">
        <ele>547.7</ele>
        <time>2020-05-22T07:39:41.000Z</time>
      </trkpt>
      <trkpt lat="44.77092" lon="4.45961">
        <ele>548.1</ele>
        <time>2020-05-22T07:39:44.000Z</time>
      </trkpt>
      <trkpt lat="44.77084" lon="4.4595">
        <ele>548.5</ele>
        <time>2020-05-22T07:39:47.000Z</time>
      </trkpt>
      <trkpt lat="44.77079" lon="4.45937">
        <ele>548.9</ele>
        <time>2020-05-22T07:39:50.000Z</time>
      </trkpt>
      <trkpt lat="44.77075" lon="4.45922">
        <ele>549.4</ele>
        <time>2020-05-22T07:39:54.000Z</time>
      </trkpt>
      <trkpt lat="44.77071" lon="4.45909">
        <ele>550.1</ele>
        <time>2020-05-22T07:39:58.000Z</time>
      </trkpt>
      <trkpt lat="44.77066" lon="4.45894">
        <ele>550.7</ele>
        <time>2020-05-22T07:40:02.000Z</time>
      </trkpt>
      <trkpt lat="44.7706" lon="4.45882">
        <ele>551</ele>
        <time>2020-05-22T07:40:05.000Z</time>
      </trkpt>
      <trkpt lat="44.77058" lon="4.45869">
        <ele>551.4</ele>
        <time>2020-05-22T07:40:08.000Z</time>
      </trkpt>
      <trkpt lat="44.77059" lon="4.45856">
        <ele>551.8</ele>
        <time>2020-05-22T07:40:11.000Z</time>
      </trkpt>
      <trkpt lat="44.77053" lon="4.45845">
        <ele>552.2</ele>
        <time>2020-05-22T07:40:14.000Z</time>
      </trkpt>
      <trkpt lat="44.77046" lon="4.45832">
        <ele>552.8</ele>
        <time>2020-05-22T07:40:18.000Z</time>
      </trkpt>
      <trkpt lat="44.77037" lon="4.4582">
        <ele>553.3</ele>
        <time>2020-05-22T07:40:22.000Z</time>
      </trkpt>
      <trkpt lat="44.77033" lon="4.45804">
        <ele>554</ele>
        <time>2020-05-22T07:40:26.000Z</time>
      </trkpt>
      <trkpt lat="44.7703" lon="4.45792">
        <ele>554.4</ele>
        <time>2020-05-22T07:40:29.000Z</time>
      </trkpt>
      <trkpt lat="44.77029" lon="4.45779">
        <ele>554.9</ele>
        <time>2020-05-22T07:40:32.000Z</time>
      </trkpt>
      <trkpt lat="44.77029" lon="4.45766">
        <ele>555.4</ele>
        <time>2020-05-22T07:40:35.000Z</time>
      </trkpt>
      <trkpt lat="44.77027" lon="4.45752">
        <ele>556.2</ele>
        <time>2020-05-22T07:40:39.000Z</time>
      </trkpt>
      <trkpt lat="44.77024" lon="4.45735">
        <ele>557.2</ele>
        <time>2020-05-22T07:40:43.000Z</time>
      </trkpt>
      <trkpt lat="44.77021" lon="4.45723">
        <ele>557.7</ele>
        <time>2020-05-22T07:40:46.000Z</time>
      </trkpt>
      <trkpt lat="44.77018" lon="4.45708">
        <ele>558.3</ele>
        <time>2020-05-22T07:40:50.000Z</time>
      </trkpt>
      <trkpt lat="44.77009" lon="4.45696">
        <ele>559</ele>
        <time>2020-05-22T07:40:54.000Z</time>
      </trkpt>
      <trkpt lat="44.77001" lon="4.45689">
        <ele>559.4</ele>
        <time>2020-05-22T07:40:57.000Z</time>
      </trkpt>
      <trkpt lat="44.76989" lon="4.45683">
        <ele>560</ele>
        <time>2020-05-22T07:41:01.000Z</time>
      </trkpt>
      <trkpt lat="44.7698" lon="4.45677">
        <ele>560.5</ele>
        <time>2020-05-22T07:41:04.000Z</time>
      </trkpt>
      <trkpt lat="44.76973" lon="4.45667">
        <ele>560.9</ele>
        <time>2020-05-22T07:41:07.000Z</time>
      </trkpt>
      <trkpt lat="44.76972" lon="4.45651">
        <ele>561.2</ele>
        <time>2020-05-22T07:41:11.000Z</time>
      </trkpt>
      <trkpt lat="44.7697" lon="4.45636">
        <ele>561.6</ele>
        <time>2020-05-22T07:41:14.000Z</time>
      </trkpt>
      <trkpt lat="44.7697" lon="4.45623">
        <ele>562</ele>
        <time>2020-05-22T07:41:17.000Z</time>
      </trkpt>
      <trkpt lat="44.76969" lon="4.4561">
        <ele>562.6</ele>
        <time>2020-05-22T07:41:20.000Z</time>
      </trkpt>
      <trkpt lat="44.76969" lon="4.45597">
        <ele>563.1</ele>
        <time>2020-05-22T07:41:23.000Z</time>
      </trkpt>
      <trkpt lat="44.76968" lon="4.45584">
        <ele>563.5</ele>
        <time>2020-05-22T07:41:26.000Z</time>
      </trkpt>
      <trkpt lat="44.76966" lon="4.45571">
        <ele>563.9</ele>
        <time>2020-05-22T07:41:29.000Z</time>
      </trkpt>
      <trkpt lat="44.76961" lon="4.45556">
        <ele>564.6</ele>
        <time>2020-05-22T07:41:34.000Z</time>
      </trkpt>
      <trkpt lat="44.76953" lon="4.45551">
        <ele>565.1</ele>
        <time>2020-05-22T07:41:37.000Z</time>
      </trkpt>
      <trkpt lat="44.76944" lon="4.45544">
        <ele>565.6</ele>
        <time>2020-05-22T07:41:40.000Z</time>
      </trkpt>
      <trkpt lat="44.76932" lon="4.45536">
        <ele>566</ele>
        <time>2020-05-22T07:41:44.000Z</time>
      </trkpt>
      <trkpt lat="44.76922" lon="4.45528">
        <ele>566.5</ele>
        <time>2020-05-22T07:41:47.000Z</time>
      </trkpt>
      <trkpt lat="44.76913" lon="4.4552">
        <ele>567.2</ele>
        <time>2020-05-22T07:41:52.000Z</time>
      </trkpt>
      <trkpt lat="44.76903" lon="4.45511">
        <ele>568</ele>
        <time>2020-05-22T07:41:57.000Z</time>
      </trkpt>
      <trkpt lat="44.76894" lon="4.45504">
        <ele>568.3</ele>
        <time>2020-05-22T07:42:00.000Z</time>
      </trkpt>
      <trkpt lat="44.76883" lon="4.45498">
        <ele>568.9</ele>
        <time>2020-05-22T07:42:03.000Z</time>
      </trkpt>
      <trkpt lat="44.76873" lon="4.45497">
        <ele>569.9</ele>
        <time>2020-05-22T07:42:07.000Z</time>
      </trkpt>
      <trkpt lat="44.76862" lon="4.45494">
        <ele>570.6</ele>
        <time>2020-05-22T07:42:10.000Z</time>
      </trkpt>
      <trkpt lat="44.76851" lon="4.4549">
        <ele>571.2</ele>
        <time>2020-05-22T07:42:14.000Z</time>
      </trkpt>
      <trkpt lat="44.76843" lon="4.45482">
        <ele>571.8</ele>
        <time>2020-05-22T07:42:19.000Z</time>
      </trkpt>
      <trkpt lat="44.7683" lon="4.45472">
        <ele>572.6</ele>
        <time>2020-05-22T07:42:25.000Z</time>
      </trkpt>
      <trkpt lat="44.76823" lon="4.4546">
        <ele>572.8</ele>
        <time>2020-05-22T07:42:27.000Z</time>
      </trkpt>
      <trkpt lat="44.76811" lon="4.45452">
        <ele>573.2</ele>
        <time>2020-05-22T07:42:30.000Z</time>
      </trkpt>
      <trkpt lat="44.76804" lon="4.4544">
        <ele>573.5</ele>
        <time>2020-05-22T07:42:33.000Z</time>
      </trkpt>
      <trkpt lat="44.76794" lon="4.45435">
        <ele>573.9</ele>
        <time>2020-05-22T07:42:36.000Z</time>
      </trkpt>
      <trkpt lat="44.76783" lon="4.45428">
        <ele>574.5</ele>
        <time>2020-05-22T07:42:40.000Z</time>
      </trkpt>
      <trkpt lat="44.76774" lon="4.4542">
        <ele>574.9</ele>
        <time>2020-05-22T07:42:43.000Z</time>
      </trkpt>
      <trkpt lat="44.76765" lon="4.45413">
        <ele>575.4</ele>
        <time>2020-05-22T07:42:46.000Z</time>
      </trkpt>
      <trkpt lat="44.76755" lon="4.45405">
        <ele>576</ele>
        <time>2020-05-22T07:42:50.000Z</time>
      </trkpt>
      <trkpt lat="44.76754" lon="4.45392">
        <ele>576.5</ele>
        <time>2020-05-22T07:42:54.000Z</time>
      </trkpt>
      <trkpt lat="44.76755" lon="4.45379">
        <ele>577</ele>
        <time>2020-05-22T07:42:57.000Z</time>
      </trkpt>
      <trkpt lat="44.76763" lon="4.45366">
        <ele>577.3</ele>
        <time>2020-05-22T07:43:00.000Z</time>
      </trkpt>
      <trkpt lat="44.76769" lon="4.45353">
        <ele>577.8</ele>
        <time>2020-05-22T07:43:03.000Z</time>
      </trkpt>
      <trkpt lat="44.76775" lon="4.45341">
        <ele>578.3</ele>
        <time>2020-05-22T07:43:06.000Z</time>
      </trkpt>
      <trkpt lat="44.76778" lon="4.45327">
        <ele>578.8</ele>
        <time>2020-05-22T07:43:09.000Z</time>
      </trkpt>
      <trkpt lat="44.76778" lon="4.45312">
        <ele>579.4</ele>
        <time>2020-05-22T07:43:12.000Z</time>
      </trkpt>
      <trkpt lat="44.76772" lon="4.45298">
        <ele>580</ele>
        <time>2020-05-22T07:43:15.000Z</time>
      </trkpt>
      <trkpt lat="44.76765" lon="4.45283">
        <ele>580.6</ele>
        <time>2020-05-22T07:43:18.000Z</time>
      </trkpt>
      <trkpt lat="44.7676" lon="4.45267">
        <ele>581.1</ele>
        <time>2020-05-22T07:43:21.000Z</time>
      </trkpt>
      <trkpt lat="44.76756" lon="4.45253">
        <ele>581.6</ele>
        <time>2020-05-22T07:43:24.000Z</time>
      </trkpt>
      <trkpt lat="44.76753" lon="4.45239">
        <ele>582.1</ele>
        <time>2020-05-22T07:43:27.000Z</time>
      </trkpt>
      <trkpt lat="44.76752" lon="4.45226">
        <ele>582.5</ele>
        <time>2020-05-22T07:43:30.000Z</time>
      </trkpt>
      <trkpt lat="44.76749" lon="4.45213">
        <ele>583</ele>
        <time>2020-05-22T07:43:33.000Z</time>
      </trkpt>
      <trkpt lat="44.76748" lon="4.45199">
        <ele>583.4</ele>
        <time>2020-05-22T07:43:36.000Z</time>
      </trkpt>
      <trkpt lat="44.76745" lon="4.45186">
        <ele>583.9</ele>
        <time>2020-05-22T07:43:39.000Z</time>
      </trkpt>
      <trkpt lat="44.76746" lon="4.4517">
        <ele>584.3</ele>
        <time>2020-05-22T07:43:42.000Z</time>
      </trkpt>
      <trkpt lat="44.76754" lon="4.45159">
        <ele>584.6</ele>
        <time>2020-05-22T07:43:45.000Z</time>
      </trkpt>
      <trkpt lat="44.76764" lon="4.45159">
        <ele>584.9</ele>
        <time>2020-05-22T07:43:48.000Z</time>
      </trkpt>
      <trkpt lat="44.76774" lon="4.45164">
        <ele>585.2</ele>
        <time>2020-05-22T07:43:51.000Z</time>
      </trkpt>
      <trkpt lat="44.76783" lon="4.45172">
        <ele>585.5</ele>
        <time>2020-05-22T07:43:54.000Z</time>
      </trkpt>
      <trkpt lat="44.76789" lon="4.45183">
        <ele>585.6</ele>
        <time>2020-05-22T07:43:57.000Z</time>
      </trkpt>
      <trkpt lat="44.76798" lon="4.45188">
        <ele>585.8</ele>
        <time>2020-05-22T07:44:01.000Z</time>
      </trkpt>
      <trkpt lat="44.76809" lon="4.45183">
        <ele>586</ele>
        <time>2020-05-22T07:44:05.000Z</time>
      </trkpt>
      <trkpt lat="44.76819" lon="4.45177">
        <ele>586.4</ele>
        <time>2020-05-22T07:44:09.000Z</time>
      </trkpt>
      <trkpt lat="44.7683" lon="4.4517">
        <ele>586.8</ele>
        <time>2020-05-22T07:44:13.000Z</time>
      </trkpt>
      <trkpt lat="44.76841" lon="4.45164">
        <ele>587.3</ele>
        <time>2020-05-22T07:44:17.000Z</time>
      </trkpt>
      <trkpt lat="44.76851" lon="4.45158">
        <ele>587.8</ele>
        <time>2020-05-22T07:44:21.000Z</time>
      </trkpt>
      <trkpt lat="44.76861" lon="4.45149">
        <ele>588.4</ele>
        <time>2020-05-22T07:44:25.000Z</time>
      </trkpt>
      <trkpt lat="44.76866" lon="4.45135">
        <ele>589</ele>
        <time>2020-05-22T07:44:29.000Z</time>
      </trkpt>
      <trkpt lat="44.76866" lon="4.45119">
        <ele>589.8</ele>
        <time>2020-05-22T07:44:33.000Z</time>
      </trkpt>
      <trkpt lat="44.76862" lon="4.45104">
        <ele>590.7</ele>
        <time>2020-05-22T07:44:37.000Z</time>
      </trkpt>
      <trkpt lat="44.76859" lon="4.45092">
        <ele>591.3</ele>
        <time>2020-05-22T07:44:40.000Z</time>
      </trkpt>
      <trkpt lat="44.76857" lon="4.45076">
        <ele>592</ele>
        <time>2020-05-22T07:44:44.000Z</time>
      </trkpt>
      <trkpt lat="44.76856" lon="4.4506">
        <ele>592.5</ele>
        <time>2020-05-22T07:44:48.000Z</time>
      </trkpt>
      <trkpt lat="44.76853" lon="4.45043">
        <ele>593</ele>
        <time>2020-05-22T07:44:52.000Z</time>
      </trkpt>
      <trkpt lat="44.76852" lon="4.45031">
        <ele>593.6</ele>
        <time>2020-05-22T07:44:55.000Z</time>
      </trkpt>
      <trkpt lat="44.76851" lon="4.45016">
        <ele>594.1</ele>
        <time>2020-05-22T07:44:58.000Z</time>
      </trkpt>
      <trkpt lat="44.76852" lon="4.45002">
        <ele>594.6</ele>
        <time>2020-05-22T07:45:01.000Z</time>
      </trkpt>
      <trkpt lat="44.76855" lon="4.44989">
        <ele>595</ele>
        <time>2020-05-22T07:45:04.000Z</time>
      </trkpt>
      <trkpt lat="44.76858" lon="4.44977">
        <ele>595.4</ele>
        <time>2020-05-22T07:45:07.000Z</time>
      </trkpt>
      <trkpt lat="44.76863" lon="4.44965">
        <ele>595.8</ele>
        <time>2020-05-22T07:45:10.000Z</time>
      </trkpt>
      <trkpt lat="44.76865" lon="4.4495">
        <ele>596.4</ele>
        <time>2020-05-22T07:45:14.000Z</time>
      </trkpt>
      <trkpt lat="44.76866" lon="4.44937">
        <ele>596.9</ele>
        <time>2020-05-22T07:45:17.000Z</time>
      </trkpt>
      <trkpt lat="44.76864" lon="4.44924">
        <ele>597.4</ele>
        <time>2020-05-22T07:45:20.000Z</time>
      </trkpt>
      <trkpt lat="44.76861" lon="4.44912">
        <ele>597.9</ele>
        <time>2020-05-22T07:45:23.000Z</time>
      </trkpt>
      <trkpt lat="44.76855" lon="4.449">
        <ele>598.6</ele>
        <time>2020-05-22T07:45:27.000Z</time>
      </trkpt>
      <trkpt lat="44.76846" lon="4.44892">
        <ele>599</ele>
        <time>2020-05-22T07:45:30.000Z</time>
      </trkpt>
      <trkpt lat="44.76837" lon="4.44886">
        <ele>599.4</ele>
        <time>2020-05-22T07:45:33.000Z</time>
      </trkpt>
      <trkpt lat="44.76828" lon="4.44881">
        <ele>599.9</ele>
        <time>2020-05-22T07:45:36.000Z</time>
      </trkpt>
      <trkpt lat="44.76819" lon="4.44876">
        <ele>600.4</ele>
        <time>2020-05-22T07:45:39.000Z</time>
      </trkpt>
      <trkpt lat="44.7681" lon="4.44871">
        <ele>601.5</ele>
        <time>2020-05-22T07:45:43.000Z</time>
      </trkpt>
      <trkpt lat="44.76802" lon="4.44863">
        <ele>602.4</ele>
        <time>2020-05-22T07:45:47.000Z</time>
      </trkpt>
      <trkpt lat="44.76797" lon="4.44848">
        <ele>603.3</ele>
        <time>2020-05-22T07:45:51.000Z</time>
      </trkpt>
      <trkpt lat="44.76796" lon="4.44835">
        <ele>603.9</ele>
        <time>2020-05-22T07:45:54.000Z</time>
      </trkpt>
      <trkpt lat="44.76799" lon="4.44819">
        <ele>604.7</ele>
        <time>2020-05-22T07:45:58.000Z</time>
      </trkpt>
      <trkpt lat="44.76796" lon="4.44804">
        <ele>605.6</ele>
        <time>2020-05-22T07:46:02.000Z</time>
      </trkpt>
      <trkpt lat="44.76793" lon="4.44789">
        <ele>606.4</ele>
        <time>2020-05-22T07:46:06.000Z</time>
      </trkpt>
      <trkpt lat="44.76787" lon="4.44778">
        <ele>607.4</ele>
        <time>2020-05-22T07:46:11.000Z</time>
      </trkpt>
      <trkpt lat="44.76778" lon="4.44769">
        <ele>608</ele>
        <time>2020-05-22T07:46:14.000Z</time>
      </trkpt>
      <trkpt lat="44.76769" lon="4.44761">
        <ele>608.8</ele>
        <time>2020-05-22T07:46:18.000Z</time>
      </trkpt>
      <trkpt lat="44.76761" lon="4.44753">
        <ele>609.4</ele>
        <time>2020-05-22T07:46:21.000Z</time>
      </trkpt>
      <trkpt lat="44.76754" lon="4.44744">
        <ele>609.9</ele>
        <time>2020-05-22T07:46:24.000Z</time>
      </trkpt>
      <trkpt lat="44.76747" lon="4.44735">
        <ele>610.3</ele>
        <time>2020-05-22T07:46:27.000Z</time>
      </trkpt>
      <trkpt lat="44.76743" lon="4.44723">
        <ele>610.7</ele>
        <time>2020-05-22T07:46:31.000Z</time>
      </trkpt>
      <trkpt lat="44.76736" lon="4.44712">
        <ele>611.2</ele>
        <time>2020-05-22T07:46:35.000Z</time>
      </trkpt>
      <trkpt lat="44.76731" lon="4.44701">
        <ele>611.7</ele>
        <time>2020-05-22T07:46:38.000Z</time>
      </trkpt>
      <trkpt lat="44.76726" lon="4.4469">
        <ele>612.2</ele>
        <time>2020-05-22T07:46:41.000Z</time>
      </trkpt>
      <trkpt lat="44.76722" lon="4.44674">
        <ele>612.7</ele>
        <time>2020-05-22T07:46:45.000Z</time>
      </trkpt>
      <trkpt lat="44.7672" lon="4.44661">
        <ele>613.2</ele>
        <time>2020-05-22T07:46:48.000Z</time>
      </trkpt>
      <trkpt lat="44.76717" lon="4.44648">
        <ele>613.7</ele>
        <time>2020-05-22T07:46:51.000Z</time>
      </trkpt>
      <trkpt lat="44.76714" lon="4.44634">
        <ele>614.2</ele>
        <time>2020-05-22T07:46:54.000Z</time>
      </trkpt>
      <trkpt lat="44.76711" lon="4.44621">
        <ele>614.6</ele>
        <time>2020-05-22T07:46:57.000Z</time>
      </trkpt>
      <trkpt lat="44.76709" lon="4.44608">
        <ele>615.2</ele>
        <time>2020-05-22T07:47:00.000Z</time>
      </trkpt>
      <trkpt lat="44.76707" lon="4.44595">
        <ele>615.8</ele>
        <time>2020-05-22T07:47:03.000Z</time>
      </trkpt>
      <trkpt lat="44.76705" lon="4.44578">
        <ele>616.6</ele>
        <time>2020-05-22T07:47:07.000Z</time>
      </trkpt>
      <trkpt lat="44.767" lon="4.44563">
        <ele>617.3</ele>
        <time>2020-05-22T07:47:11.000Z</time>
      </trkpt>
      <trkpt lat="44.76694" lon="4.44553">
        <ele>617.8</ele>
        <time>2020-05-22T07:47:14.000Z</time>
      </trkpt>
      <trkpt lat="44.76687" lon="4.44543">
        <ele>618.6</ele>
        <time>2020-05-22T07:47:18.000Z</time>
      </trkpt>
      <trkpt lat="44.76679" lon="4.44534">
        <ele>619.1</ele>
        <time>2020-05-22T07:47:21.000Z</time>
      </trkpt>
      <trkpt lat="44.76672" lon="4.44526">
        <ele>619.5</ele>
        <time>2020-05-22T07:47:24.000Z</time>
      </trkpt>
      <trkpt lat="44.76664" lon="4.4452">
        <ele>620</ele>
        <time>2020-05-22T07:47:27.000Z</time>
      </trkpt>
      <trkpt lat="44.76654" lon="4.44517">
        <ele>620.5</ele>
        <time>2020-05-22T07:47:30.000Z</time>
      </trkpt>
      <trkpt lat="44.76642" lon="4.44523">
        <ele>621.1</ele>
        <time>2020-05-22T07:47:34.000Z</time>
      </trkpt>
      <trkpt lat="44.76634" lon="4.44528">
        <ele>621.7</ele>
        <time>2020-05-22T07:47:37.000Z</time>
      </trkpt>
      <trkpt lat="44.76625" lon="4.44533">
        <ele>622.4</ele>
        <time>2020-05-22T07:47:40.000Z</time>
      </trkpt>
      <trkpt lat="44.76616" lon="4.44535">
        <ele>623.1</ele>
        <time>2020-05-22T07:47:44.000Z</time>
      </trkpt>
      <trkpt lat="44.76607" lon="4.44527">
        <ele>623.6</ele>
        <time>2020-05-22T07:47:48.000Z</time>
      </trkpt>
      <trkpt lat="44.76603" lon="4.44511">
        <ele>624</ele>
        <time>2020-05-22T07:47:52.000Z</time>
      </trkpt>
      <trkpt lat="44.76609" lon="4.44497">
        <ele>624.5</ele>
        <time>2020-05-22T07:47:56.000Z</time>
      </trkpt>
      <trkpt lat="44.76618" lon="4.44486">
        <ele>624.9</ele>
        <time>2020-05-22T07:48:00.000Z</time>
      </trkpt>
      <trkpt lat="44.76625" lon="4.44474">
        <ele>625.5</ele>
        <time>2020-05-22T07:48:04.000Z</time>
      </trkpt>
      <trkpt lat="44.76634" lon="4.44464">
        <ele>626.1</ele>
        <time>2020-05-22T07:48:08.000Z</time>
      </trkpt>
      <trkpt lat="44.76642" lon="4.44453">
        <ele>626.8</ele>
        <time>2020-05-22T07:48:12.000Z</time>
      </trkpt>
      <trkpt lat="44.7665" lon="4.44445">
        <ele>627.3</ele>
        <time>2020-05-22T07:48:16.000Z</time>
      </trkpt>
      <trkpt lat="44.76659" lon="4.4444">
        <ele>627.7</ele>
        <time>2020-05-22T07:48:19.000Z</time>
      </trkpt>
      <trkpt lat="44.76669" lon="4.44438">
        <ele>628.1</ele>
        <time>2020-05-22T07:48:22.000Z</time>
      </trkpt>
      <trkpt lat="44.76679" lon="4.44439">
        <ele>628.5</ele>
        <time>2020-05-22T07:48:25.000Z</time>
      </trkpt>
      <trkpt lat="44.76688" lon="4.44441">
        <ele>628.9</ele>
        <time>2020-05-22T07:48:28.000Z</time>
      </trkpt>
      <trkpt lat="44.76697" lon="4.44441">
        <ele>628.7</ele>
        <time>2020-05-22T07:48:31.000Z</time>
      </trkpt>
      <trkpt lat="44.76706" lon="4.44437">
        <ele>629.7</ele>
        <time>2020-05-22T07:48:34.000Z</time>
      </trkpt>
      <trkpt lat="44.76715" lon="4.44432">
        <ele>630.2</ele>
        <time>2020-05-22T07:48:37.000Z</time>
      </trkpt>
      <trkpt lat="44.76726" lon="4.44432">
        <ele>630.6</ele>
        <time>2020-05-22T07:48:41.000Z</time>
      </trkpt>
      <trkpt lat="44.76735" lon="4.44439">
        <ele>630.9</ele>
        <time>2020-05-22T07:48:44.000Z</time>
      </trkpt>
      <trkpt lat="44.76743" lon="4.44447">
        <ele>631.1</ele>
        <time>2020-05-22T07:48:47.000Z</time>
      </trkpt>
      <trkpt lat="44.76751" lon="4.44455">
        <ele>631.5</ele>
        <time>2020-05-22T07:48:50.000Z</time>
      </trkpt>
      <trkpt lat="44.7676" lon="4.44463">
        <ele>631.9</ele>
        <time>2020-05-22T07:48:53.000Z</time>
      </trkpt>
      <trkpt lat="44.7677" lon="4.44466">
        <ele>632.3</ele>
        <time>2020-05-22T07:48:56.000Z</time>
      </trkpt>
      <trkpt lat="44.76781" lon="4.4447">
        <ele>632.7</ele>
        <time>2020-05-22T07:48:59.000Z</time>
      </trkpt>
      <trkpt lat="44.76792" lon="4.44475">
        <ele>633</ele>
        <time>2020-05-22T07:49:02.000Z</time>
      </trkpt>
      <trkpt lat="44.76802" lon="4.44478">
        <ele>633.2</ele>
        <time>2020-05-22T07:49:05.000Z</time>
      </trkpt>
      <trkpt lat="44.76814" lon="4.44473">
        <ele>633.2</ele>
        <time>2020-05-22T07:49:08.000Z</time>
      </trkpt>
      <trkpt lat="44.7682" lon="4.44459">
        <ele>633</ele>
        <time>2020-05-22T07:49:11.000Z</time>
      </trkpt>
      <trkpt lat="44.76821" lon="4.44445">
        <ele>633.1</ele>
        <time>2020-05-22T07:49:15.000Z</time>
      </trkpt>
      <trkpt lat="44.76824" lon="4.4443">
        <ele>634</ele>
        <time>2020-05-22T07:49:20.000Z</time>
      </trkpt>
      <trkpt lat="44.76827" lon="4.44418">
        <ele>634.9</ele>
        <time>2020-05-22T07:49:24.000Z</time>
      </trkpt>
      <trkpt lat="44.76829" lon="4.44405">
        <ele>635.9</ele>
        <time>2020-05-22T07:49:28.000Z</time>
      </trkpt>
      <trkpt lat="44.76828" lon="4.44389">
        <ele>636.9</ele>
        <time>2020-05-22T07:49:33.000Z</time>
      </trkpt>
      <trkpt lat="44.76828" lon="4.44374">
        <ele>638.2</ele>
        <time>2020-05-22T07:49:38.000Z</time>
      </trkpt>
      <trkpt lat="44.76826" lon="4.4436">
        <ele>639.5</ele>
        <time>2020-05-22T07:49:43.000Z</time>
      </trkpt>
      <trkpt lat="44.76818" lon="4.44352">
        <ele>640.8</ele>
        <time>2020-05-22T07:49:48.000Z</time>
      </trkpt>
      <trkpt lat="44.76808" lon="4.4436">
        <ele>642.2</ele>
        <time>2020-05-22T07:49:53.000Z</time>
      </trkpt>
      <trkpt lat="44.76801" lon="4.44366">
        <ele>643.3</ele>
        <time>2020-05-22T07:49:57.000Z</time>
      </trkpt>
      <trkpt lat="44.76793" lon="4.44377">
        <ele>644.3</ele>
        <time>2020-05-22T07:50:02.000Z</time>
      </trkpt>
      <trkpt lat="44.76785" lon="4.44387">
        <ele>645</ele>
        <time>2020-05-22T07:50:07.000Z</time>
      </trkpt>
      <trkpt lat="44.76777" lon="4.44397">
        <ele>645.7</ele>
        <time>2020-05-22T07:50:12.000Z</time>
      </trkpt>
      <trkpt lat="44.76768" lon="4.44402">
        <ele>646.4</ele>
        <time>2020-05-22T07:50:16.000Z</time>
      </trkpt>
      <trkpt lat="44.76759" lon="4.44398">
        <ele>647.1</ele>
        <time>2020-05-22T07:50:20.000Z</time>
      </trkpt>
      <trkpt lat="44.76752" lon="4.44388">
        <ele>647.9</ele>
        <time>2020-05-22T07:50:24.000Z</time>
      </trkpt>
      <trkpt lat="44.76746" lon="4.44377">
        <ele>648.9</ele>
        <time>2020-05-22T07:50:28.000Z</time>
      </trkpt>
      <trkpt lat="44.76738" lon="4.44368">
        <ele>649.8</ele>
        <time>2020-05-22T07:50:32.000Z</time>
      </trkpt>
      <trkpt lat="44.76729" lon="4.44359">
        <ele>651.1</ele>
        <time>2020-05-22T07:50:38.000Z</time>
      </trkpt>
      <trkpt lat="44.7672" lon="4.44361">
        <ele>651.7</ele>
        <time>2020-05-22T07:50:42.000Z</time>
      </trkpt>
      <trkpt lat="44.76712" lon="4.44368">
        <ele>652.2</ele>
        <time>2020-05-22T07:50:46.000Z</time>
      </trkpt>
      <trkpt lat="44.76702" lon="4.44375">
        <ele>652.9</ele>
        <time>2020-05-22T07:50:50.000Z</time>
      </trkpt>
      <trkpt lat="44.76691" lon="4.44378">
        <ele>653.6</ele>
        <time>2020-05-22T07:50:54.000Z</time>
      </trkpt>
      <trkpt lat="44.76682" lon="4.44379">
        <ele>654.1</ele>
        <time>2020-05-22T07:50:57.000Z</time>
      </trkpt>
      <trkpt lat="44.76671" lon="4.44379">
        <ele>655.1</ele>
        <time>2020-05-22T07:51:01.000Z</time>
      </trkpt>
      <trkpt lat="44.7666" lon="4.44381">
        <ele>656.1</ele>
        <time>2020-05-22T07:51:05.000Z</time>
      </trkpt>
      <trkpt lat="44.7665" lon="4.44383">
        <ele>657.1</ele>
        <time>2020-05-22T07:51:09.000Z</time>
      </trkpt>
      <trkpt lat="44.7664" lon="4.44387">
        <ele>657.8</ele>
        <time>2020-05-22T07:51:13.000Z</time>
      </trkpt>
      <trkpt lat="44.7663" lon="4.44391">
        <ele>658.6</ele>
        <time>2020-05-22T07:51:17.000Z</time>
      </trkpt>
      <trkpt lat="44.7662" lon="4.44395">
        <ele>659.2</ele>
        <time>2020-05-22T07:51:21.000Z</time>
      </trkpt>
      <trkpt lat="44.76615" lon="4.44398">
        <ele>660.5</ele>
        <time>2020-05-22T07:51:28.000Z</time>
      </trkpt>
      <trkpt lat="44.76606" lon="4.44392">
        <ele>661.8</ele>
        <time>2020-05-22T07:54:11.000Z</time>
      </trkpt>
      <trkpt lat="44.76615" lon="4.44381">
        <ele>662.1</ele>
        <time>2020-05-22T07:54:17.000Z</time>
      </trkpt>
      <trkpt lat="44.76625" lon="4.44377">
        <ele>662.7</ele>
        <time>2020-05-22T07:54:21.000Z</time>
      </trkpt>
      <trkpt lat="44.76636" lon="4.44372">
        <ele>663.5</ele>
        <time>2020-05-22T07:54:25.000Z</time>
      </trkpt>
      <trkpt lat="44.76645" lon="4.44367">
        <ele>664.5</ele>
        <time>2020-05-22T07:54:29.000Z</time>
      </trkpt>
      <trkpt lat="44.76655" lon="4.44362">
        <ele>665.3</ele>
        <time>2020-05-22T07:54:33.000Z</time>
      </trkpt>
      <trkpt lat="44.76666" lon="4.44357">
        <ele>666.3</ele>
        <time>2020-05-22T07:54:37.000Z</time>
      </trkpt>
      <trkpt lat="44.76676" lon="4.44352">
        <ele>667.4</ele>
        <time>2020-05-22T07:54:41.000Z</time>
      </trkpt>
      <trkpt lat="44.76684" lon="4.44343">
        <ele>668.5</ele>
        <time>2020-05-22T07:54:45.000Z</time>
      </trkpt>
      <trkpt lat="44.7669" lon="4.44333">
        <ele>669.5</ele>
        <time>2020-05-22T07:54:49.000Z</time>
      </trkpt>
      <trkpt lat="44.76696" lon="4.4432">
        <ele>670.5</ele>
        <time>2020-05-22T07:54:53.000Z</time>
      </trkpt>
      <trkpt lat="44.76702" lon="4.44309">
        <ele>671.5</ele>
        <time>2020-05-22T07:54:57.000Z</time>
      </trkpt>
      <trkpt lat="44.76711" lon="4.44303">
        <ele>672.4</ele>
        <time>2020-05-22T07:55:01.000Z</time>
      </trkpt>
      <trkpt lat="44.76721" lon="4.44301">
        <ele>673</ele>
        <time>2020-05-22T07:55:05.000Z</time>
      </trkpt>
      <trkpt lat="44.7673" lon="4.443">
        <ele>673.6</ele>
        <time>2020-05-22T07:55:08.000Z</time>
      </trkpt>
      <trkpt lat="44.7674" lon="4.44294">
        <ele>674.3</ele>
        <time>2020-05-22T07:55:12.000Z</time>
      </trkpt>
      <trkpt lat="44.76748" lon="4.44284">
        <ele>675.1</ele>
        <time>2020-05-22T07:55:16.000Z</time>
      </trkpt>
      <trkpt lat="44.76752" lon="4.44272">
        <ele>676.2</ele>
        <time>2020-05-22T07:55:20.000Z</time>
      </trkpt>
      <trkpt lat="44.76755" lon="4.44257">
        <ele>677.2</ele>
        <time>2020-05-22T07:55:24.000Z</time>
      </trkpt>
      <trkpt lat="44.76754" lon="4.44242">
        <ele>678</ele>
        <time>2020-05-22T07:55:28.000Z</time>
      </trkpt>
      <trkpt lat="44.76753" lon="4.44228">
        <ele>678.9</ele>
        <time>2020-05-22T07:55:32.000Z</time>
      </trkpt>
      <trkpt lat="44.76751" lon="4.44214">
        <ele>679.6</ele>
        <time>2020-05-22T07:55:36.000Z</time>
      </trkpt>
      <trkpt lat="44.76747" lon="4.442">
        <ele>680.5</ele>
        <time>2020-05-22T07:55:40.000Z</time>
      </trkpt>
      <trkpt lat="44.76741" lon="4.44187">
        <ele>681.3</ele>
        <time>2020-05-22T07:55:44.000Z</time>
      </trkpt>
      <trkpt lat="44.76733" lon="4.44177">
        <ele>682.2</ele>
        <time>2020-05-22T07:55:48.000Z</time>
      </trkpt>
      <trkpt lat="44.76726" lon="4.44166">
        <ele>683</ele>
        <time>2020-05-22T07:55:52.000Z</time>
      </trkpt>
      <trkpt lat="44.7672" lon="4.44153">
        <ele>683.8</ele>
        <time>2020-05-22T07:55:56.000Z</time>
      </trkpt>
      <trkpt lat="44.76716" lon="4.4414">
        <ele>684.6</ele>
        <time>2020-05-22T07:56:00.000Z</time>
      </trkpt>
      <trkpt lat="44.7671" lon="4.44128">
        <ele>685.4</ele>
        <time>2020-05-22T07:56:04.000Z</time>
      </trkpt>
      <trkpt lat="44.76704" lon="4.44116">
        <ele>686.1</ele>
        <time>2020-05-22T07:56:08.000Z</time>
      </trkpt>
      <trkpt lat="44.76698" lon="4.44103">
        <ele>687</ele>
        <time>2020-05-22T07:56:12.000Z</time>
      </trkpt>
      <trkpt lat="44.76695" lon="4.44089">
        <ele>687.7</ele>
        <time>2020-05-22T07:56:16.000Z</time>
      </trkpt>
      <trkpt lat="44.76694" lon="4.44074">
        <ele>688.4</ele>
        <time>2020-05-22T07:56:20.000Z</time>
      </trkpt>
      <trkpt lat="44.76694" lon="4.44061">
        <ele>689.1</ele>
        <time>2020-05-22T07:56:23.000Z</time>
      </trkpt>
      <trkpt lat="44.7669" lon="4.44046">
        <ele>689.9</ele>
        <time>2020-05-22T07:56:27.000Z</time>
      </trkpt>
      <trkpt lat="44.76685" lon="4.44032">
        <ele>690.8</ele>
        <time>2020-05-22T07:56:31.000Z</time>
      </trkpt>
      <trkpt lat="44.7668" lon="4.44019">
        <ele>691.9</ele>
        <time>2020-05-22T07:56:36.000Z</time>
      </trkpt>
      <trkpt lat="44.76673" lon="4.44008">
        <ele>692.7</ele>
        <time>2020-05-22T07:56:40.000Z</time>
      </trkpt>
      <trkpt lat="44.76662" lon="4.44001">
        <ele>693.5</ele>
        <time>2020-05-22T07:56:44.000Z</time>
      </trkpt>
      <trkpt lat="44.76652" lon="4.43997">
        <ele>694.4</ele>
        <time>2020-05-22T07:56:48.000Z</time>
      </trkpt>
      <trkpt lat="44.7664" lon="4.43997">
        <ele>695.2</ele>
        <time>2020-05-22T07:56:52.000Z</time>
      </trkpt>
      <trkpt lat="44.7663" lon="4.43993">
        <ele>696</ele>
        <time>2020-05-22T07:56:56.000Z</time>
      </trkpt>
      <trkpt lat="44.76622" lon="4.43985">
        <ele>696.9</ele>
        <time>2020-05-22T07:57:01.000Z</time>
      </trkpt>
      <trkpt lat="44.76614" lon="4.43974">
        <ele>697.6</ele>
        <time>2020-05-22T07:57:05.000Z</time>
      </trkpt>
      <trkpt lat="44.76607" lon="4.43962">
        <ele>698.3</ele>
        <time>2020-05-22T07:57:09.000Z</time>
      </trkpt>
      <trkpt lat="44.76605" lon="4.43949">
        <ele>698.8</ele>
        <time>2020-05-22T07:57:12.000Z</time>
      </trkpt>
      <trkpt lat="44.76606" lon="4.43936">
        <ele>699.5</ele>
        <time>2020-05-22T07:57:15.000Z</time>
      </trkpt>
      <trkpt lat="44.76605" lon="4.4392">
        <ele>700.4</ele>
        <time>2020-05-22T07:57:19.000Z</time>
      </trkpt>
      <trkpt lat="44.76604" lon="4.43904">
        <ele>701.2</ele>
        <time>2020-05-22T07:57:23.000Z</time>
      </trkpt>
      <trkpt lat="44.766" lon="4.43889">
        <ele>701.9</ele>
        <time>2020-05-22T07:57:27.000Z</time>
      </trkpt>
      <trkpt lat="44.76596" lon="4.43878">
        <ele>702.3</ele>
        <time>2020-05-22T07:57:30.000Z</time>
      </trkpt>
      <trkpt lat="44.76589" lon="4.43869">
        <ele>702.8</ele>
        <time>2020-05-22T07:57:33.000Z</time>
      </trkpt>
      <trkpt lat="44.76579" lon="4.4386">
        <ele>703.5</ele>
        <time>2020-05-22T07:57:37.000Z</time>
      </trkpt>
      <trkpt lat="44.76568" lon="4.43857">
        <ele>704.2</ele>
        <time>2020-05-22T07:57:41.000Z</time>
      </trkpt>
      <trkpt lat="44.76557" lon="4.43855">
        <ele>705</ele>
        <time>2020-05-22T07:57:45.000Z</time>
      </trkpt>
      <trkpt lat="44.76547" lon="4.43856">
        <ele>705.4</ele>
        <time>2020-05-22T07:57:49.000Z</time>
      </trkpt>
      <trkpt lat="44.76537" lon="4.43856">
        <ele>705.7</ele>
        <time>2020-05-22T07:57:53.000Z</time>
      </trkpt>
      <trkpt lat="44.76527" lon="4.43858">
        <ele>706</ele>
        <time>2020-05-22T07:57:57.000Z</time>
      </trkpt>
      <trkpt lat="44.76515" lon="4.43859">
        <ele>706.5</ele>
        <time>2020-05-22T07:58:01.000Z</time>
      </trkpt>
      <trkpt lat="44.76504" lon="4.43861">
        <ele>707.1</ele>
        <time>2020-05-22T07:58:05.000Z</time>
      </trkpt>
      <trkpt lat="44.76493" lon="4.43863">
        <ele>707.7</ele>
        <time>2020-05-22T07:58:09.000Z</time>
      </trkpt>
      <trkpt lat="44.76482" lon="4.43864">
        <ele>708.4</ele>
        <time>2020-05-22T07:58:13.000Z</time>
      </trkpt>
      <trkpt lat="44.76472" lon="4.43864">
        <ele>709.3</ele>
        <time>2020-05-22T07:58:17.000Z</time>
      </trkpt>
      <trkpt lat="44.76462" lon="4.43859">
        <ele>710.4</ele>
        <time>2020-05-22T07:58:22.000Z</time>
      </trkpt>
      <trkpt lat="44.76455" lon="4.43852">
        <ele>711.3</ele>
        <time>2020-05-22T07:58:26.000Z</time>
      </trkpt>
      <trkpt lat="44.76444" lon="4.43844">
        <ele>712.4</ele>
        <time>2020-05-22T07:58:30.000Z</time>
      </trkpt>
      <trkpt lat="44.76434" lon="4.43835">
        <ele>713.6</ele>
        <time>2020-05-22T07:58:35.000Z</time>
      </trkpt>
      <trkpt lat="44.76424" lon="4.43828">
        <ele>714.6</ele>
        <time>2020-05-22T07:58:39.000Z</time>
      </trkpt>
      <trkpt lat="44.76415" lon="4.43821">
        <ele>715.4</ele>
        <time>2020-05-22T07:58:43.000Z</time>
      </trkpt>
      <trkpt lat="44.76407" lon="4.4381">
        <ele>716.3</ele>
        <time>2020-05-22T07:58:48.000Z</time>
      </trkpt>
      <trkpt lat="44.76398" lon="4.43802">
        <ele>717.1</ele>
        <time>2020-05-22T07:58:52.000Z</time>
      </trkpt>
      <trkpt lat="44.76389" lon="4.43794">
        <ele>717.8</ele>
        <time>2020-05-22T07:58:56.000Z</time>
      </trkpt>
      <trkpt lat="44.7638" lon="4.43785">
        <ele>718.2</ele>
        <time>2020-05-22T07:58:59.000Z</time>
      </trkpt>
      <trkpt lat="44.76372" lon="4.43778">
        <ele>718.8</ele>
        <time>2020-05-22T07:59:02.000Z</time>
      </trkpt>
      <trkpt lat="44.76363" lon="4.4377">
        <ele>719.3</ele>
        <time>2020-05-22T07:59:05.000Z</time>
      </trkpt>
      <trkpt lat="44.76353" lon="4.43763">
        <ele>719.7</ele>
        <time>2020-05-22T07:59:08.000Z</time>
      </trkpt>
      <trkpt lat="44.76345" lon="4.43753">
        <ele>720.3</ele>
        <time>2020-05-22T07:59:12.000Z</time>
      </trkpt>
      <trkpt lat="44.76337" lon="4.43744">
        <ele>721</ele>
        <time>2020-05-22T07:59:16.000Z</time>
      </trkpt>
      <trkpt lat="44.76328" lon="4.43735">
        <ele>721.6</ele>
        <time>2020-05-22T07:59:20.000Z</time>
      </trkpt>
      <trkpt lat="44.76319" lon="4.43728">
        <ele>722.2</ele>
        <time>2020-05-22T07:59:24.000Z</time>
      </trkpt>
      <trkpt lat="44.7631" lon="4.4372">
        <ele>722.8</ele>
        <time>2020-05-22T07:59:28.000Z</time>
      </trkpt>
      <trkpt lat="44.76302" lon="4.43714">
        <ele>723.3</ele>
        <time>2020-05-22T07:59:32.000Z</time>
      </trkpt>
      <trkpt lat="44.76291" lon="4.43707">
        <ele>723.9</ele>
        <time>2020-05-22T07:59:36.000Z</time>
      </trkpt>
      <trkpt lat="44.7628" lon="4.437">
        <ele>724.7</ele>
        <time>2020-05-22T07:59:40.000Z</time>
      </trkpt>
      <trkpt lat="44.76271" lon="4.43693">
        <ele>725.3</ele>
        <time>2020-05-22T07:59:44.000Z</time>
      </trkpt>
      <trkpt lat="44.76261" lon="4.43686">
        <ele>726</ele>
        <time>2020-05-22T07:59:48.000Z</time>
      </trkpt>
      <trkpt lat="44.76254" lon="4.43678">
        <ele>726.8</ele>
        <time>2020-05-22T07:59:52.000Z</time>
      </trkpt>
      <trkpt lat="44.76246" lon="4.43669">
        <ele>727.5</ele>
        <time>2020-05-22T07:59:56.000Z</time>
      </trkpt>
      <trkpt lat="44.76238" lon="4.4366">
        <ele>728.2</ele>
        <time>2020-05-22T08:00:00.000Z</time>
      </trkpt>
      <trkpt lat="44.76229" lon="4.43654">
        <ele>728.9</ele>
        <time>2020-05-22T08:00:04.000Z</time>
      </trkpt>
      <trkpt lat="44.76222" lon="4.43662">
        <ele>729.9</ele>
        <time>2020-05-22T08:00:08.000Z</time>
      </trkpt>
      <trkpt lat="44.7623" lon="4.43674">
        <ele>731.2</ele>
        <time>2020-05-22T08:00:12.000Z</time>
      </trkpt>
      <trkpt lat="44.76239" lon="4.4368">
        <ele>732.1</ele>
        <time>2020-05-22T08:00:15.000Z</time>
      </trkpt>
      <trkpt lat="44.76247" lon="4.43688">
        <ele>732.8</ele>
        <time>2020-05-22T08:00:18.000Z</time>
      </trkpt>
      <trkpt lat="44.76255" lon="4.43696">
        <ele>733.3</ele>
        <time>2020-05-22T08:00:21.000Z</time>
      </trkpt>
      <trkpt lat="44.76264" lon="4.43705">
        <ele>733.8</ele>
        <time>2020-05-22T08:00:24.000Z</time>
      </trkpt>
      <trkpt lat="44.76274" lon="4.43712">
        <ele>734.2</ele>
        <time>2020-05-22T08:00:27.000Z</time>
      </trkpt>
      <trkpt lat="44.76285" lon="4.43722">
        <ele>734.4</ele>
        <time>2020-05-22T08:00:30.000Z</time>
      </trkpt>
      <trkpt lat="44.76293" lon="4.4373">
        <ele>734.5</ele>
        <time>2020-05-22T08:00:32.000Z</time>
      </trkpt>
      <trkpt lat="44.76301" lon="4.43738">
        <ele>734.5</ele>
        <time>2020-05-22T08:00:34.000Z</time>
      </trkpt>
      <trkpt lat="44.76307" lon="4.43749">
        <ele>734.5</ele>
        <time>2020-05-22T08:00:36.000Z</time>
      </trkpt>
      <trkpt lat="44.76314" lon="4.43758">
        <ele>734.4</ele>
        <time>2020-05-22T08:00:38.000Z</time>
      </trkpt>
      <trkpt lat="44.7632" lon="4.4377">
        <ele>734.4</ele>
        <time>2020-05-22T08:00:40.000Z</time>
      </trkpt>
      <trkpt lat="44.76325" lon="4.43782">
        <ele>734.5</ele>
        <time>2020-05-22T08:00:42.000Z</time>
      </trkpt>
      <trkpt lat="44.76333" lon="4.43797">
        <ele>734.8</ele>
        <time>2020-05-22T08:00:45.000Z</time>
      </trkpt>
      <trkpt lat="44.76342" lon="4.43809">
        <ele>735.3</ele>
        <time>2020-05-22T08:00:48.000Z</time>
      </trkpt>
      <trkpt lat="44.7635" lon="4.43821">
        <ele>735.8</ele>
        <time>2020-05-22T08:00:51.000Z</time>
      </trkpt>
      <trkpt lat="44.76358" lon="4.43832">
        <ele>736.3</ele>
        <time>2020-05-22T08:00:54.000Z</time>
      </trkpt>
      <trkpt lat="44.76367" lon="4.43842">
        <ele>736.8</ele>
        <time>2020-05-22T08:00:57.000Z</time>
      </trkpt>
      <trkpt lat="44.76376" lon="4.43849">
        <ele>737.2</ele>
        <time>2020-05-22T08:01:00.000Z</time>
      </trkpt>
      <trkpt lat="44.76384" lon="4.43859">
        <ele>737.7</ele>
        <time>2020-05-22T08:01:04.000Z</time>
      </trkpt>
      <trkpt lat="44.76389" lon="4.43873">
        <ele>738.5</ele>
        <time>2020-05-22T08:01:09.000Z</time>
      </trkpt>
      <trkpt lat="44.76396" lon="4.43886">
        <ele>739.2</ele>
        <time>2020-05-22T08:01:13.000Z</time>
      </trkpt>
      <trkpt lat="44.76401" lon="4.43899">
        <ele>739.8</ele>
        <time>2020-05-22T08:01:17.000Z</time>
      </trkpt>
      <trkpt lat="44.76403" lon="4.43913">
        <ele>740.5</ele>
        <time>2020-05-22T08:01:21.000Z</time>
      </trkpt>
      <trkpt lat="44.76407" lon="4.43925">
        <ele>741</ele>
        <time>2020-05-22T08:01:24.000Z</time>
      </trkpt>
      <trkpt lat="44.76416" lon="4.43936">
        <ele>741.4</ele>
        <time>2020-05-22T08:01:26.000Z</time>
      </trkpt>
      <trkpt lat="44.76424" lon="4.43944">
        <ele>741.6</ele>
        <time>2020-05-22T08:01:27.000Z</time>
      </trkpt>
      <trkpt lat="44.76428" lon="4.43958">
        <ele>742</ele>
        <time>2020-05-22T08:01:29.000Z</time>
      </trkpt>
      <trkpt lat="44.76436" lon="4.4397">
        <ele>742.8</ele>
        <time>2020-05-22T08:01:32.000Z</time>
      </trkpt>
      <trkpt lat="44.76444" lon="4.43977">
        <ele>743.5</ele>
        <time>2020-05-22T08:01:35.000Z</time>
      </trkpt>
      <trkpt lat="44.76454" lon="4.43974">
        <ele>744.5</ele>
        <time>2020-05-22T08:01:39.000Z</time>
      </trkpt>
      <trkpt lat="44.76463" lon="4.43971">
        <ele>745.3</ele>
        <time>2020-05-22T08:01:43.000Z</time>
      </trkpt>
      <trkpt lat="44.76474" lon="4.43971">
        <ele>746</ele>
        <time>2020-05-22T08:01:47.000Z</time>
      </trkpt>
      <trkpt lat="44.76483" lon="4.43982">
        <ele>746.4</ele>
        <time>2020-05-22T08:01:51.000Z</time>
      </trkpt>
      <trkpt lat="44.76486" lon="4.43996">
        <ele>746.9</ele>
        <time>2020-05-22T08:01:54.000Z</time>
      </trkpt>
      <trkpt lat="44.76483" lon="4.4401">
        <ele>747.4</ele>
        <time>2020-05-22T08:01:57.000Z</time>
      </trkpt>
      <trkpt lat="44.76476" lon="4.44021">
        <ele>747.8</ele>
        <time>2020-05-22T08:02:00.000Z</time>
      </trkpt>
      <trkpt lat="44.76464" lon="4.44024">
        <ele>748.5</ele>
        <time>2020-05-22T08:02:04.000Z</time>
      </trkpt>
      <trkpt lat="44.76453" lon="4.44024">
        <ele>749.5</ele>
        <time>2020-05-22T08:02:08.000Z</time>
      </trkpt>
      <trkpt lat="44.76441" lon="4.44026">
        <ele>750.1</ele>
        <time>2020-05-22T08:02:11.000Z</time>
      </trkpt>
      <trkpt lat="44.76431" lon="4.44033">
        <ele>750.7</ele>
        <time>2020-05-22T08:02:14.000Z</time>
      </trkpt>
      <trkpt lat="44.76422" lon="4.44041">
        <ele>751.2</ele>
        <time>2020-05-22T08:02:17.000Z</time>
      </trkpt>
      <trkpt lat="44.76413" lon="4.44051">
        <ele>751.6</ele>
        <time>2020-05-22T08:02:20.000Z</time>
      </trkpt>
      <trkpt lat="44.76404" lon="4.4406">
        <ele>752</ele>
        <time>2020-05-22T08:02:23.000Z</time>
      </trkpt>
      <trkpt lat="44.76396" lon="4.44071">
        <ele>752.3</ele>
        <time>2020-05-22T08:02:26.000Z</time>
      </trkpt>
      <trkpt lat="44.76384" lon="4.44082">
        <ele>752.4</ele>
        <time>2020-05-22T08:02:29.000Z</time>
      </trkpt>
      <trkpt lat="44.76375" lon="4.44091">
        <ele>752.4</ele>
        <time>2020-05-22T08:02:31.000Z</time>
      </trkpt>
      <trkpt lat="44.76364" lon="4.441">
        <ele>752.3</ele>
        <time>2020-05-22T08:02:33.000Z</time>
      </trkpt>
      <trkpt lat="44.76353" lon="4.44109">
        <ele>752.2</ele>
        <time>2020-05-22T08:02:35.000Z</time>
      </trkpt>
      <trkpt lat="44.76342" lon="4.44118">
        <ele>752</ele>
        <time>2020-05-22T08:02:37.000Z</time>
      </trkpt>
      <trkpt lat="44.76332" lon="4.44129">
        <ele>751.7</ele>
        <time>2020-05-22T08:02:39.000Z</time>
      </trkpt>
      <trkpt lat="44.76322" lon="4.44139">
        <ele>751.5</ele>
        <time>2020-05-22T08:02:41.000Z</time>
      </trkpt>
      <trkpt lat="44.76312" lon="4.4415">
        <ele>751.2</ele>
        <time>2020-05-22T08:02:43.000Z</time>
      </trkpt>
      <trkpt lat="44.76302" lon="4.4416">
        <ele>750.8</ele>
        <time>2020-05-22T08:02:45.000Z</time>
      </trkpt>
      <trkpt lat="44.76293" lon="4.4417">
        <ele>750.6</ele>
        <time>2020-05-22T08:02:47.000Z</time>
      </trkpt>
      <trkpt lat="44.76285" lon="4.44177">
        <ele>750.5</ele>
        <time>2020-05-22T08:02:49.000Z</time>
      </trkpt>
      <trkpt lat="44.76277" lon="4.4419">
        <ele>750.7</ele>
        <time>2020-05-22T08:02:52.000Z</time>
      </trkpt>
      <trkpt lat="44.7627" lon="4.44202">
        <ele>751.1</ele>
        <time>2020-05-22T08:02:55.000Z</time>
      </trkpt>
      <trkpt lat="44.76266" lon="4.44216">
        <ele>751.7</ele>
        <time>2020-05-22T08:02:58.000Z</time>
      </trkpt>
      <trkpt lat="44.7626" lon="4.4423">
        <ele>752.5</ele>
        <time>2020-05-22T08:03:02.000Z</time>
      </trkpt>
      <trkpt lat="44.76248" lon="4.44234">
        <ele>753.5</ele>
        <time>2020-05-22T08:03:06.000Z</time>
      </trkpt>
      <trkpt lat="44.76237" lon="4.44236">
        <ele>754.4</ele>
        <time>2020-05-22T08:03:10.000Z</time>
      </trkpt>
      <trkpt lat="44.76227" lon="4.44235">
        <ele>755.4</ele>
        <time>2020-05-22T08:03:14.000Z</time>
      </trkpt>
      <trkpt lat="44.76217" lon="4.44235">
        <ele>756.3</ele>
        <time>2020-05-22T08:03:18.000Z</time>
      </trkpt>
      <trkpt lat="44.76207" lon="4.44232">
        <ele>757.2</ele>
        <time>2020-05-22T08:03:22.000Z</time>
      </trkpt>
      <trkpt lat="44.76197" lon="4.44229">
        <ele>757.9</ele>
        <time>2020-05-22T08:03:26.000Z</time>
      </trkpt>
      <trkpt lat="44.76187" lon="4.44225">
        <ele>758.7</ele>
        <time>2020-05-22T08:03:30.000Z</time>
      </trkpt>
      <trkpt lat="44.76177" lon="4.44223">
        <ele>759.6</ele>
        <time>2020-05-22T08:03:34.000Z</time>
      </trkpt>
      <trkpt lat="44.76167" lon="4.4422">
        <ele>760.5</ele>
        <time>2020-05-22T08:03:38.000Z</time>
      </trkpt>
      <trkpt lat="44.76157" lon="4.44217">
        <ele>761.5</ele>
        <time>2020-05-22T08:03:42.000Z</time>
      </trkpt>
      <trkpt lat="44.76148" lon="4.44215">
        <ele>762.5</ele>
        <time>2020-05-22T08:03:46.000Z</time>
      </trkpt>
      <trkpt lat="44.76138" lon="4.44211">
        <ele>763.3</ele>
        <time>2020-05-22T08:03:50.000Z</time>
      </trkpt>
      <trkpt lat="44.76128" lon="4.44205">
        <ele>764.2</ele>
        <time>2020-05-22T08:03:54.000Z</time>
      </trkpt>
      <trkpt lat="44.76121" lon="4.44196">
        <ele>765</ele>
        <time>2020-05-22T08:03:58.000Z</time>
      </trkpt>
      <trkpt lat="44.76113" lon="4.44185">
        <ele>765.8</ele>
        <time>2020-05-22T08:04:02.000Z</time>
      </trkpt>
      <trkpt lat="44.76106" lon="4.44175">
        <ele>766.6</ele>
        <time>2020-05-22T08:04:06.000Z</time>
      </trkpt>
      <trkpt lat="44.76099" lon="4.44166">
        <ele>767.4</ele>
        <time>2020-05-22T08:04:10.000Z</time>
      </trkpt>
      <trkpt lat="44.76091" lon="4.44155">
        <ele>768.4</ele>
        <time>2020-05-22T08:04:15.000Z</time>
      </trkpt>
      <trkpt lat="44.76082" lon="4.44146">
        <ele>769.3</ele>
        <time>2020-05-22T08:04:20.000Z</time>
      </trkpt>
      <trkpt lat="44.76074" lon="4.44139">
        <ele>770</ele>
        <time>2020-05-22T08:04:24.000Z</time>
      </trkpt>
      <trkpt lat="44.76064" lon="4.44133">
        <ele>770.7</ele>
        <time>2020-05-22T08:04:29.000Z</time>
      </trkpt>
      <trkpt lat="44.76054" lon="4.44129">
        <ele>771.3</ele>
        <time>2020-05-22T08:04:33.000Z</time>
      </trkpt>
      <trkpt lat="44.76045" lon="4.4413">
        <ele>772</ele>
        <time>2020-05-22T08:04:37.000Z</time>
      </trkpt>
      <trkpt lat="44.76036" lon="4.44136">
        <ele>772.8</ele>
        <time>2020-05-22T08:04:41.000Z</time>
      </trkpt>
      <trkpt lat="44.76024" lon="4.44137">
        <ele>773.7</ele>
        <time>2020-05-22T08:04:45.000Z</time>
      </trkpt>
      <trkpt lat="44.76012" lon="4.44137">
        <ele>774.7</ele>
        <time>2020-05-22T08:04:49.000Z</time>
      </trkpt>
      <trkpt lat="44.76001" lon="4.44137">
        <ele>775.7</ele>
        <time>2020-05-22T08:04:53.000Z</time>
      </trkpt>
      <trkpt lat="44.75991" lon="4.44132">
        <ele>776.6</ele>
        <time>2020-05-22T08:04:57.000Z</time>
      </trkpt>
      <trkpt lat="44.75981" lon="4.44125">
        <ele>777.2</ele>
        <time>2020-05-22T08:05:01.000Z</time>
      </trkpt>
      <trkpt lat="44.75972" lon="4.44117">
        <ele>777.8</ele>
        <time>2020-05-22T08:05:05.000Z</time>
      </trkpt>
      <trkpt lat="44.75963" lon="4.4411">
        <ele>778.3</ele>
        <time>2020-05-22T08:05:09.000Z</time>
      </trkpt>
      <trkpt lat="44.75953" lon="4.44102">
        <ele>777.6</ele>
        <time>2020-05-22T08:05:13.000Z</time>
      </trkpt>
      <trkpt lat="44.75945" lon="4.44094">
        <ele>778.9</ele>
        <time>2020-05-22T08:05:17.000Z</time>
      </trkpt>
      <trkpt lat="44.75938" lon="4.44085">
        <ele>779.6</ele>
        <time>2020-05-22T08:05:20.000Z</time>
      </trkpt>
      <trkpt lat="44.75929" lon="4.44076">
        <ele>780.4</ele>
        <time>2020-05-22T08:05:24.000Z</time>
      </trkpt>
      <trkpt lat="44.75921" lon="4.44066">
        <ele>781</ele>
        <time>2020-05-22T08:05:28.000Z</time>
      </trkpt>
      <trkpt lat="44.75913" lon="4.44057">
        <ele>781.6</ele>
        <time>2020-05-22T08:05:32.000Z</time>
      </trkpt>
      <trkpt lat="44.75904" lon="4.44046">
        <ele>782.3</ele>
        <time>2020-05-22T08:05:36.000Z</time>
      </trkpt>
      <trkpt lat="44.75896" lon="4.44037">
        <ele>783</ele>
        <time>2020-05-22T08:05:40.000Z</time>
      </trkpt>
      <trkpt lat="44.75887" lon="4.44028">
        <ele>783.8</ele>
        <time>2020-05-22T08:05:44.000Z</time>
      </trkpt>
      <trkpt lat="44.75878" lon="4.44021">
        <ele>784.6</ele>
        <time>2020-05-22T08:05:48.000Z</time>
      </trkpt>
      <trkpt lat="44.75869" lon="4.44013">
        <ele>785.3</ele>
        <time>2020-05-22T08:05:52.000Z</time>
      </trkpt>
      <trkpt lat="44.7586" lon="4.44006">
        <ele>785.8</ele>
        <time>2020-05-22T08:05:56.000Z</time>
      </trkpt>
      <trkpt lat="44.75852" lon="4.43996">
        <ele>786.4</ele>
        <time>2020-05-22T08:06:00.000Z</time>
      </trkpt>
      <trkpt lat="44.75843" lon="4.43987">
        <ele>786.9</ele>
        <time>2020-05-22T08:06:04.000Z</time>
      </trkpt>
      <trkpt lat="44.75834" lon="4.43979">
        <ele>787.3</ele>
        <time>2020-05-22T08:06:08.000Z</time>
      </trkpt>
      <trkpt lat="44.75824" lon="4.43972">
        <ele>787.8</ele>
        <time>2020-05-22T08:06:12.000Z</time>
      </trkpt>
      <trkpt lat="44.75816" lon="4.43966">
        <ele>788.4</ele>
        <time>2020-05-22T08:06:16.000Z</time>
      </trkpt>
      <trkpt lat="44.75807" lon="4.43968">
        <ele>789.3</ele>
        <time>2020-05-22T08:06:20.000Z</time>
      </trkpt>
      <trkpt lat="44.758" lon="4.43979">
        <ele>790</ele>
        <time>2020-05-22T08:06:24.000Z</time>
      </trkpt>
      <trkpt lat="44.75799" lon="4.43993">
        <ele>790.8</ele>
        <time>2020-05-22T08:06:28.000Z</time>
      </trkpt>
      <trkpt lat="44.75798" lon="4.44009">
        <ele>791.7</ele>
        <time>2020-05-22T08:06:33.000Z</time>
      </trkpt>
      <trkpt lat="44.758" lon="4.44025">
        <ele>792.4</ele>
        <time>2020-05-22T08:06:37.000Z</time>
      </trkpt>
      <trkpt lat="44.75801" lon="4.44038">
        <ele>792.8</ele>
        <time>2020-05-22T08:06:40.000Z</time>
      </trkpt>
      <trkpt lat="44.75804" lon="4.44052">
        <ele>793.4</ele>
        <time>2020-05-22T08:06:44.000Z</time>
      </trkpt>
      <trkpt lat="44.75807" lon="4.44067">
        <ele>794.2</ele>
        <time>2020-05-22T08:06:49.000Z</time>
      </trkpt>
      <trkpt lat="44.7581" lon="4.44081">
        <ele>795</ele>
        <time>2020-05-22T08:06:53.000Z</time>
      </trkpt>
      <trkpt lat="44.75812" lon="4.44095">
        <ele>795.9</ele>
        <time>2020-05-22T08:06:57.000Z</time>
      </trkpt>
      <trkpt lat="44.75814" lon="4.44109">
        <ele>796.7</ele>
        <time>2020-05-22T08:07:01.000Z</time>
      </trkpt>
      <trkpt lat="44.75813" lon="4.44123">
        <ele>797.5</ele>
        <time>2020-05-22T08:07:05.000Z</time>
      </trkpt>
      <trkpt lat="44.75813" lon="4.44137">
        <ele>798.4</ele>
        <time>2020-05-22T08:07:09.000Z</time>
      </trkpt>
      <trkpt lat="44.75811" lon="4.44151">
        <ele>799.3</ele>
        <time>2020-05-22T08:07:13.000Z</time>
      </trkpt>
      <trkpt lat="44.75808" lon="4.44165">
        <ele>800</ele>
        <time>2020-05-22T08:07:17.000Z</time>
      </trkpt>
      <trkpt lat="44.75802" lon="4.44177">
        <ele>800.6</ele>
        <time>2020-05-22T08:07:21.000Z</time>
      </trkpt>
      <trkpt lat="44.75795" lon="4.44187">
        <ele>801.3</ele>
        <time>2020-05-22T08:07:25.000Z</time>
      </trkpt>
      <trkpt lat="44.75786" lon="4.44193">
        <ele>802</ele>
        <time>2020-05-22T08:07:29.000Z</time>
      </trkpt>
      <trkpt lat="44.75775" lon="4.44194">
        <ele>803</ele>
        <time>2020-05-22T08:07:33.000Z</time>
      </trkpt>
      <trkpt lat="44.75765" lon="4.44192">
        <ele>803.8</ele>
        <time>2020-05-22T08:07:37.000Z</time>
      </trkpt>
      <trkpt lat="44.75754" lon="4.44192">
        <ele>805.3</ele>
        <time>2020-05-22T08:07:42.000Z</time>
      </trkpt>
      <trkpt lat="44.75745" lon="4.44191">
        <ele>806.4</ele>
        <time>2020-05-22T08:07:46.000Z</time>
      </trkpt>
      <trkpt lat="44.75734" lon="4.44188">
        <ele>807.6</ele>
        <time>2020-05-22T08:07:51.000Z</time>
      </trkpt>
      <trkpt lat="44.75724" lon="4.44187">
        <ele>808.5</ele>
        <time>2020-05-22T08:07:55.000Z</time>
      </trkpt>
      <trkpt lat="44.75714" lon="4.44186">
        <ele>809.5</ele>
        <time>2020-05-22T08:08:00.000Z</time>
      </trkpt>
      <trkpt lat="44.75702" lon="4.44185">
        <ele>810.3</ele>
        <time>2020-05-22T08:08:05.000Z</time>
      </trkpt>
      <trkpt lat="44.75693" lon="4.44185">
        <ele>811</ele>
        <time>2020-05-22T08:08:09.000Z</time>
      </trkpt>
      <trkpt lat="44.75681" lon="4.44188">
        <ele>811.5</ele>
        <time>2020-05-22T08:08:13.000Z</time>
      </trkpt>
      <trkpt lat="44.7567" lon="4.44189">
        <ele>812</ele>
        <time>2020-05-22T08:08:17.000Z</time>
      </trkpt>
      <trkpt lat="44.75659" lon="4.4419">
        <ele>812.2</ele>
        <time>2020-05-22T08:08:21.000Z</time>
      </trkpt>
      <trkpt lat="44.75649" lon="4.44191">
        <ele>812.6</ele>
        <time>2020-05-22T08:08:25.000Z</time>
      </trkpt>
      <trkpt lat="44.75639" lon="4.44191">
        <ele>813</ele>
        <time>2020-05-22T08:08:29.000Z</time>
      </trkpt>
      <trkpt lat="44.75629" lon="4.44191">
        <ele>813.5</ele>
        <time>2020-05-22T08:08:33.000Z</time>
      </trkpt>
      <trkpt lat="44.75619" lon="4.44189">
        <ele>813.9</ele>
        <time>2020-05-22T08:08:37.000Z</time>
      </trkpt>
      <trkpt lat="44.75609" lon="4.44188">
        <ele>814.3</ele>
        <time>2020-05-22T08:08:41.000Z</time>
      </trkpt>
      <trkpt lat="44.756" lon="4.44185">
        <ele>814.7</ele>
        <time>2020-05-22T08:08:45.000Z</time>
      </trkpt>
      <trkpt lat="44.75589" lon="4.44183">
        <ele>815.2</ele>
        <time>2020-05-22T08:08:49.000Z</time>
      </trkpt>
      <trkpt lat="44.7558" lon="4.44179">
        <ele>815.6</ele>
        <time>2020-05-22T08:08:53.000Z</time>
      </trkpt>
      <trkpt lat="44.7557" lon="4.44176">
        <ele>816.1</ele>
        <time>2020-05-22T08:08:57.000Z</time>
      </trkpt>
      <trkpt lat="44.7556" lon="4.44172">
        <ele>816.6</ele>
        <time>2020-05-22T08:09:01.000Z</time>
      </trkpt>
      <trkpt lat="44.75551" lon="4.44168">
        <ele>817</ele>
        <time>2020-05-22T08:09:05.000Z</time>
      </trkpt>
      <trkpt lat="44.7554" lon="4.44163">
        <ele>817.8</ele>
        <time>2020-05-22T08:09:09.000Z</time>
      </trkpt>
      <trkpt lat="44.7553" lon="4.44159">
        <ele>818.6</ele>
        <time>2020-05-22T08:09:13.000Z</time>
      </trkpt>
      <trkpt lat="44.75519" lon="4.44156">
        <ele>819.6</ele>
        <time>2020-05-22T08:09:17.000Z</time>
      </trkpt>
      <trkpt lat="44.75509" lon="4.44159">
        <ele>820.3</ele>
        <time>2020-05-22T08:09:21.000Z</time>
      </trkpt>
      <trkpt lat="44.75501" lon="4.44168">
        <ele>821</ele>
        <time>2020-05-22T08:09:25.000Z</time>
      </trkpt>
      <trkpt lat="44.75498" lon="4.44182">
        <ele>821.5</ele>
        <time>2020-05-22T08:09:29.000Z</time>
      </trkpt>
      <trkpt lat="44.75498" lon="4.44197">
        <ele>822</ele>
        <time>2020-05-22T08:09:33.000Z</time>
      </trkpt>
      <trkpt lat="44.75498" lon="4.4421">
        <ele>822.4</ele>
        <time>2020-05-22T08:09:36.000Z</time>
      </trkpt>
      <trkpt lat="44.75498" lon="4.44223">
        <ele>822.7</ele>
        <time>2020-05-22T08:09:39.000Z</time>
      </trkpt>
      <trkpt lat="44.75498" lon="4.44236">
        <ele>823.1</ele>
        <time>2020-05-22T08:09:42.000Z</time>
      </trkpt>
      <trkpt lat="44.75498" lon="4.4425">
        <ele>823.5</ele>
        <time>2020-05-22T08:09:45.000Z</time>
      </trkpt>
      <trkpt lat="44.75497" lon="4.44265">
        <ele>824.1</ele>
        <time>2020-05-22T08:09:48.000Z</time>
      </trkpt>
      <trkpt lat="44.75497" lon="4.44279">
        <ele>824.7</ele>
        <time>2020-05-22T08:09:51.000Z</time>
      </trkpt>
      <trkpt lat="44.75497" lon="4.44293">
        <ele>825.2</ele>
        <time>2020-05-22T08:09:54.000Z</time>
      </trkpt>
      <trkpt lat="44.75499" lon="4.44306">
        <ele>825.7</ele>
        <time>2020-05-22T08:09:57.000Z</time>
      </trkpt>
      <trkpt lat="44.755" lon="4.44319">
        <ele>826.1</ele>
        <time>2020-05-22T08:10:00.000Z</time>
      </trkpt>
      <trkpt lat="44.75499" lon="4.44335">
        <ele>826.7</ele>
        <time>2020-05-22T08:10:04.000Z</time>
      </trkpt>
      <trkpt lat="44.7549" lon="4.44329">
        <ele>827.4</ele>
        <time>2020-05-22T08:10:09.000Z</time>
      </trkpt>
      <trkpt lat="44.75488" lon="4.44316">
        <ele>827.9</ele>
        <time>2020-05-22T08:10:12.000Z</time>
      </trkpt>
      <trkpt lat="44.75485" lon="4.443">
        <ele>828.6</ele>
        <time>2020-05-22T08:10:16.000Z</time>
      </trkpt>
      <trkpt lat="44.75483" lon="4.44287">
        <ele>829.2</ele>
        <time>2020-05-22T08:10:19.000Z</time>
      </trkpt>
      <trkpt lat="44.7548" lon="4.44274">
        <ele>829.9</ele>
        <time>2020-05-22T08:10:22.000Z</time>
      </trkpt>
      <trkpt lat="44.75478" lon="4.4426">
        <ele>830.7</ele>
        <time>2020-05-22T08:10:25.000Z</time>
      </trkpt>
      <trkpt lat="44.75476" lon="4.44247">
        <ele>831.6</ele>
        <time>2020-05-22T08:10:28.000Z</time>
      </trkpt>
      <trkpt lat="44.75474" lon="4.44234">
        <ele>832.3</ele>
        <time>2020-05-22T08:10:31.000Z</time>
      </trkpt>
      <trkpt lat="44.75472" lon="4.44222">
        <ele>833.1</ele>
        <time>2020-05-22T08:10:34.000Z</time>
      </trkpt>
      <trkpt lat="44.7547" lon="4.44209">
        <ele>833.8</ele>
        <time>2020-05-22T08:10:37.000Z</time>
      </trkpt>
      <trkpt lat="44.75468" lon="4.44197">
        <ele>834.4</ele>
        <time>2020-05-22T08:10:40.000Z</time>
      </trkpt>
      <trkpt lat="44.75466" lon="4.44184">
        <ele>835.1</ele>
        <time>2020-05-22T08:10:43.000Z</time>
      </trkpt>
      <trkpt lat="44.75464" lon="4.44172">
        <ele>835.7</ele>
        <time>2020-05-22T08:10:46.000Z</time>
      </trkpt>
      <trkpt lat="44.75463" lon="4.44158">
        <ele>836.2</ele>
        <time>2020-05-22T08:10:49.000Z</time>
      </trkpt>
      <trkpt lat="44.75461" lon="4.44145">
        <ele>836.7</ele>
        <time>2020-05-22T08:10:52.000Z</time>
      </trkpt>
      <trkpt lat="44.75459" lon="4.44132">
        <ele>837.2</ele>
        <time>2020-05-22T08:10:55.000Z</time>
      </trkpt>
      <trkpt lat="44.75458" lon="4.44119">
        <ele>837.7</ele>
        <time>2020-05-22T08:10:58.000Z</time>
      </trkpt>
      <trkpt lat="44.75459" lon="4.44106">
        <ele>838.2</ele>
        <time>2020-05-22T08:11:01.000Z</time>
      </trkpt>
      <trkpt lat="44.75464" lon="4.44094">
        <ele>838.5</ele>
        <time>2020-05-22T08:11:04.000Z</time>
      </trkpt>
      <trkpt lat="44.7547" lon="4.44083">
        <ele>839</ele>
        <time>2020-05-22T08:11:07.000Z</time>
      </trkpt>
      <trkpt lat="44.75478" lon="4.44075">
        <ele>839.6</ele>
        <time>2020-05-22T08:11:10.000Z</time>
      </trkpt>
      <trkpt lat="44.75488" lon="4.4407">
        <ele>840.2</ele>
        <time>2020-05-22T08:11:13.000Z</time>
      </trkpt>
      <trkpt lat="44.75497" lon="4.44067">
        <ele>840.8</ele>
        <time>2020-05-22T08:11:16.000Z</time>
      </trkpt>
      <trkpt lat="44.75506" lon="4.44064">
        <ele>841.4</ele>
        <time>2020-05-22T08:11:19.000Z</time>
      </trkpt>
      <trkpt lat="44.75516" lon="4.44061">
        <ele>841.8</ele>
        <time>2020-05-22T08:11:22.000Z</time>
      </trkpt>
      <trkpt lat="44.75526" lon="4.44058">
        <ele>842.2</ele>
        <time>2020-05-22T08:11:25.000Z</time>
      </trkpt>
      <trkpt lat="44.75536" lon="4.44055">
        <ele>842.4</ele>
        <time>2020-05-22T08:11:28.000Z</time>
      </trkpt>
      <trkpt lat="44.75546" lon="4.44051">
        <ele>842.8</ele>
        <time>2020-05-22T08:11:31.000Z</time>
      </trkpt>
      <trkpt lat="44.75556" lon="4.44048">
        <ele>843</ele>
        <time>2020-05-22T08:11:34.000Z</time>
      </trkpt>
      <trkpt lat="44.75566" lon="4.44045">
        <ele>843.4</ele>
        <time>2020-05-22T08:11:37.000Z</time>
      </trkpt>
      <trkpt lat="44.75576" lon="4.44042">
        <ele>843.6</ele>
        <time>2020-05-22T08:11:40.000Z</time>
      </trkpt>
      <trkpt lat="44.75585" lon="4.44037">
        <ele>843.9</ele>
        <time>2020-05-22T08:11:43.000Z</time>
      </trkpt>
      <trkpt lat="44.75594" lon="4.4403">
        <ele>844.1</ele>
        <time>2020-05-22T08:11:46.000Z</time>
      </trkpt>
      <trkpt lat="44.75603" lon="4.44021">
        <ele>844.3</ele>
        <time>2020-05-22T08:11:49.000Z</time>
      </trkpt>
      <trkpt lat="44.7561" lon="4.44008">
        <ele>844.5</ele>
        <time>2020-05-22T08:11:52.000Z</time>
      </trkpt>
      <trkpt lat="44.75616" lon="4.43994">
        <ele>844.7</ele>
        <time>2020-05-22T08:11:55.000Z</time>
      </trkpt>
      <trkpt lat="44.7562" lon="4.43978">
        <ele>845.2</ele>
        <time>2020-05-22T08:11:58.000Z</time>
      </trkpt>
      <trkpt lat="44.75621" lon="4.43962">
        <ele>845.8</ele>
        <time>2020-05-22T08:12:01.000Z</time>
      </trkpt>
      <trkpt lat="44.75619" lon="4.43945">
        <ele>846.5</ele>
        <time>2020-05-22T08:12:04.000Z</time>
      </trkpt>
      <trkpt lat="44.75616" lon="4.43932">
        <ele>847.3</ele>
        <time>2020-05-22T08:12:07.000Z</time>
      </trkpt>
      <trkpt lat="44.75611" lon="4.43919">
        <ele>848</ele>
        <time>2020-05-22T08:12:10.000Z</time>
      </trkpt>
      <trkpt lat="44.75605" lon="4.43909">
        <ele>848.9</ele>
        <time>2020-05-22T08:12:13.000Z</time>
      </trkpt>
      <trkpt lat="44.75599" lon="4.43899">
        <ele>849.6</ele>
        <time>2020-05-22T08:12:16.000Z</time>
      </trkpt>
      <trkpt lat="44.75592" lon="4.43889">
        <ele>850.3</ele>
        <time>2020-05-22T08:12:19.000Z</time>
      </trkpt>
      <trkpt lat="44.75586" lon="4.43879">
        <ele>850.9</ele>
        <time>2020-05-22T08:12:22.000Z</time>
      </trkpt>
      <trkpt lat="44.75579" lon="4.4387">
        <ele>851.5</ele>
        <time>2020-05-22T08:12:25.000Z</time>
      </trkpt>
      <trkpt lat="44.75572" lon="4.4386">
        <ele>852</ele>
        <time>2020-05-22T08:12:28.000Z</time>
      </trkpt>
      <trkpt lat="44.75565" lon="4.4385">
        <ele>852.4</ele>
        <time>2020-05-22T08:12:31.000Z</time>
      </trkpt>
      <trkpt lat="44.75559" lon="4.4384">
        <ele>852.8</ele>
        <time>2020-05-22T08:12:34.000Z</time>
      </trkpt>
      <trkpt lat="44.75552" lon="4.4383">
        <ele>853.1</ele>
        <time>2020-05-22T08:12:37.000Z</time>
      </trkpt>
      <trkpt lat="44.75545" lon="4.4382">
        <ele>853.5</ele>
        <time>2020-05-22T08:12:40.000Z</time>
      </trkpt>
      <trkpt lat="44.75538" lon="4.43809">
        <ele>854.1</ele>
        <time>2020-05-22T08:12:43.000Z</time>
      </trkpt>
      <trkpt lat="44.75531" lon="4.43799">
        <ele>854.7</ele>
        <time>2020-05-22T08:12:46.000Z</time>
      </trkpt>
      <trkpt lat="44.75525" lon="4.43787">
        <ele>855.3</ele>
        <time>2020-05-22T08:12:49.000Z</time>
      </trkpt>
      <trkpt lat="44.75521" lon="4.43775">
        <ele>855.8</ele>
        <time>2020-05-22T08:12:52.000Z</time>
      </trkpt>
      <trkpt lat="44.75519" lon="4.43761">
        <ele>856.4</ele>
        <time>2020-05-22T08:12:55.000Z</time>
      </trkpt>
      <trkpt lat="44.75518" lon="4.43746">
        <ele>856.9</ele>
        <time>2020-05-22T08:12:58.000Z</time>
      </trkpt>
      <trkpt lat="44.7552" lon="4.43732">
        <ele>857.5</ele>
        <time>2020-05-22T08:13:01.000Z</time>
      </trkpt>
      <trkpt lat="44.75522" lon="4.43718">
        <ele>858</ele>
        <time>2020-05-22T08:13:04.000Z</time>
      </trkpt>
      <trkpt lat="44.75525" lon="4.43705">
        <ele>858.5</ele>
        <time>2020-05-22T08:13:07.000Z</time>
      </trkpt>
      <trkpt lat="44.75528" lon="4.43693">
        <ele>859</ele>
        <time>2020-05-22T08:13:10.000Z</time>
      </trkpt>
      <trkpt lat="44.75532" lon="4.43681">
        <ele>859.5</ele>
        <time>2020-05-22T08:13:13.000Z</time>
      </trkpt>
      <trkpt lat="44.75537" lon="4.43668">
        <ele>860</ele>
        <time>2020-05-22T08:13:16.000Z</time>
      </trkpt>
      <trkpt lat="44.75541" lon="4.43656">
        <ele>860.5</ele>
        <time>2020-05-22T08:13:19.000Z</time>
      </trkpt>
      <trkpt lat="44.75545" lon="4.43643">
        <ele>861</ele>
        <time>2020-05-22T08:13:22.000Z</time>
      </trkpt>
      <trkpt lat="44.75551" lon="4.43629">
        <ele>861.5</ele>
        <time>2020-05-22T08:13:25.000Z</time>
      </trkpt>
      <trkpt lat="44.75555" lon="4.43615">
        <ele>862</ele>
        <time>2020-05-22T08:13:28.000Z</time>
      </trkpt>
      <trkpt lat="44.75561" lon="4.43602">
        <ele>862.4</ele>
        <time>2020-05-22T08:13:31.000Z</time>
      </trkpt>
      <trkpt lat="44.75566" lon="4.43589">
        <ele>862.9</ele>
        <time>2020-05-22T08:13:34.000Z</time>
      </trkpt>
      <trkpt lat="44.75571" lon="4.43576">
        <ele>863.2</ele>
        <time>2020-05-22T08:13:37.000Z</time>
      </trkpt>
      <trkpt lat="44.75578" lon="4.43563">
        <ele>863.5</ele>
        <time>2020-05-22T08:13:40.000Z</time>
      </trkpt>
      <trkpt lat="44.75585" lon="4.43549">
        <ele>863.8</ele>
        <time>2020-05-22T08:13:43.000Z</time>
      </trkpt>
      <trkpt lat="44.75591" lon="4.43535">
        <ele>864.1</ele>
        <time>2020-05-22T08:13:46.000Z</time>
      </trkpt>
      <trkpt lat="44.75597" lon="4.43522">
        <ele>864.5</ele>
        <time>2020-05-22T08:13:49.000Z</time>
      </trkpt>
      <trkpt lat="44.75603" lon="4.43509">
        <ele>864.8</ele>
        <time>2020-05-22T08:13:52.000Z</time>
      </trkpt>
      <trkpt lat="44.75607" lon="4.43494">
        <ele>865.1</ele>
        <time>2020-05-22T08:13:55.000Z</time>
      </trkpt>
      <trkpt lat="44.7561" lon="4.43479">
        <ele>865.5</ele>
        <time>2020-05-22T08:13:58.000Z</time>
      </trkpt>
      <trkpt lat="44.75613" lon="4.43462">
        <ele>865.8</ele>
        <time>2020-05-22T08:14:01.000Z</time>
      </trkpt>
      <trkpt lat="44.75619" lon="4.43445">
        <ele>866.1</ele>
        <time>2020-05-22T08:14:04.000Z</time>
      </trkpt>
      <trkpt lat="44.75622" lon="4.43432">
        <ele>866.3</ele>
        <time>2020-05-22T08:14:06.000Z</time>
      </trkpt>
      <trkpt lat="44.75628" lon="4.43415">
        <ele>866.5</ele>
        <time>2020-05-22T08:14:09.000Z</time>
      </trkpt>
      <trkpt lat="44.75632" lon="4.43403">
        <ele>866.6</ele>
        <time>2020-05-22T08:14:11.000Z</time>
      </trkpt>
      <trkpt lat="44.75638" lon="4.43387">
        <ele>866.8</ele>
        <time>2020-05-22T08:14:14.000Z</time>
      </trkpt>
      <trkpt lat="44.75644" lon="4.43371">
        <ele>867</ele>
        <time>2020-05-22T08:14:17.000Z</time>
      </trkpt>
      <trkpt lat="44.7565" lon="4.43354">
        <ele>867.3</ele>
        <time>2020-05-22T08:14:20.000Z</time>
      </trkpt>
      <trkpt lat="44.75656" lon="4.43338">
        <ele>867.6</ele>
        <time>2020-05-22T08:14:23.000Z</time>
      </trkpt>
      <trkpt lat="44.75663" lon="4.43322">
        <ele>867.9</ele>
        <time>2020-05-22T08:14:26.000Z</time>
      </trkpt>
      <trkpt lat="44.75669" lon="4.43306">
        <ele>868.2</ele>
        <time>2020-05-22T08:14:29.000Z</time>
      </trkpt>
      <trkpt lat="44.75673" lon="4.43295">
        <ele>868.5</ele>
        <time>2020-05-22T08:14:31.000Z</time>
      </trkpt>
      <trkpt lat="44.75678" lon="4.43283">
        <ele>868.7</ele>
        <time>2020-05-22T08:14:33.000Z</time>
      </trkpt>
      <trkpt lat="44.75682" lon="4.43272">
        <ele>869</ele>
        <time>2020-05-22T08:14:35.000Z</time>
      </trkpt>
      <trkpt lat="44.75686" lon="4.4326">
        <ele>869.3</ele>
        <time>2020-05-22T08:14:37.000Z</time>
      </trkpt>
      <trkpt lat="44.75689" lon="4.43249">
        <ele>869.5</ele>
        <time>2020-05-22T08:14:39.000Z</time>
      </trkpt>
      <trkpt lat="44.75691" lon="4.43235">
        <ele>869.8</ele>
        <time>2020-05-22T08:14:41.000Z</time>
      </trkpt>
      <trkpt lat="44.7569" lon="4.43222">
        <ele>870.1</ele>
        <time>2020-05-22T08:14:43.000Z</time>
      </trkpt>
      <trkpt lat="44.7569" lon="4.43207">
        <ele>870.3</ele>
        <time>2020-05-22T08:14:45.000Z</time>
      </trkpt>
      <trkpt lat="44.75689" lon="4.43192">
        <ele>870.4</ele>
        <time>2020-05-22T08:14:47.000Z</time>
      </trkpt>
      <trkpt lat="44.75688" lon="4.43178">
        <ele>870.6</ele>
        <time>2020-05-22T08:14:49.000Z</time>
      </trkpt>
      <trkpt lat="44.75688" lon="4.43164">
        <ele>870.7</ele>
        <time>2020-05-22T08:14:51.000Z</time>
      </trkpt>
      <trkpt lat="44.75691" lon="4.43152">
        <ele>870.9</ele>
        <time>2020-05-22T08:14:53.000Z</time>
      </trkpt>
      <trkpt lat="44.75698" lon="4.43141">
        <ele>871</ele>
        <time>2020-05-22T08:14:55.000Z</time>
      </trkpt>
      <trkpt lat="44.75706" lon="4.43135">
        <ele>871.1</ele>
        <time>2020-05-22T08:14:57.000Z</time>
      </trkpt>
      <trkpt lat="44.75716" lon="4.43134">
        <ele>871.3</ele>
        <time>2020-05-22T08:14:59.000Z</time>
      </trkpt>
      <trkpt lat="44.75725" lon="4.43134">
        <ele>871.4</ele>
        <time>2020-05-22T08:15:01.000Z</time>
      </trkpt>
      <trkpt lat="44.75735" lon="4.43135">
        <ele>871.5</ele>
        <time>2020-05-22T08:15:03.000Z</time>
      </trkpt>
      <trkpt lat="44.75745" lon="4.43137">
        <ele>871.5</ele>
        <time>2020-05-22T08:15:05.000Z</time>
      </trkpt>
      <trkpt lat="44.75755" lon="4.43138">
        <ele>871.5</ele>
        <time>2020-05-22T08:15:07.000Z</time>
      </trkpt>
      <trkpt lat="44.75764" lon="4.4314">
        <ele>871.6</ele>
        <time>2020-05-22T08:15:09.000Z</time>
      </trkpt>
      <trkpt lat="44.75774" lon="4.43141">
        <ele>871.6</ele>
        <time>2020-05-22T08:15:11.000Z</time>
      </trkpt>
      <trkpt lat="44.75783" lon="4.43141">
        <ele>871.6</ele>
        <time>2020-05-22T08:15:13.000Z</time>
      </trkpt>
      <trkpt lat="44.75793" lon="4.43142">
        <ele>871.7</ele>
        <time>2020-05-22T08:15:15.000Z</time>
      </trkpt>
      <trkpt lat="44.75803" lon="4.43141">
        <ele>871.7</ele>
        <time>2020-05-22T08:15:17.000Z</time>
      </trkpt>
      <trkpt lat="44.75813" lon="4.4314">
        <ele>871.8</ele>
        <time>2020-05-22T08:15:19.000Z</time>
      </trkpt>
      <trkpt lat="44.75824" lon="4.43138">
        <ele>871.9</ele>
        <time>2020-05-22T08:15:21.000Z</time>
      </trkpt>
      <trkpt lat="44.75834" lon="4.43136">
        <ele>872</ele>
        <time>2020-05-22T08:15:23.000Z</time>
      </trkpt>
      <trkpt lat="44.75845" lon="4.43132">
        <ele>872.1</ele>
        <time>2020-05-22T08:15:25.000Z</time>
      </trkpt>
      <trkpt lat="44.75855" lon="4.43129">
        <ele>872.3</ele>
        <time>2020-05-22T08:15:27.000Z</time>
      </trkpt>
      <trkpt lat="44.75866" lon="4.43125">
        <ele>872.4</ele>
        <time>2020-05-22T08:15:29.000Z</time>
      </trkpt>
      <trkpt lat="44.75878" lon="4.43121">
        <ele>872.6</ele>
        <time>2020-05-22T08:15:31.000Z</time>
      </trkpt>
      <trkpt lat="44.75889" lon="4.43118">
        <ele>872.7</ele>
        <time>2020-05-22T08:15:33.000Z</time>
      </trkpt>
      <trkpt lat="44.75899" lon="4.43116">
        <ele>872.9</ele>
        <time>2020-05-22T08:15:35.000Z</time>
      </trkpt>
      <trkpt lat="44.7591" lon="4.43117">
        <ele>873.2</ele>
        <time>2020-05-22T08:15:37.000Z</time>
      </trkpt>
      <trkpt lat="44.7592" lon="4.43121">
        <ele>873.4</ele>
        <time>2020-05-22T08:15:39.000Z</time>
      </trkpt>
      <trkpt lat="44.75929" lon="4.43127">
        <ele>873.7</ele>
        <time>2020-05-22T08:15:41.000Z</time>
      </trkpt>
      <trkpt lat="44.75937" lon="4.43135">
        <ele>874.1</ele>
        <time>2020-05-22T08:15:43.000Z</time>
      </trkpt>
      <trkpt lat="44.75944" lon="4.43145">
        <ele>874.4</ele>
        <time>2020-05-22T08:15:45.000Z</time>
      </trkpt>
      <trkpt lat="44.75951" lon="4.43155">
        <ele>874.4</ele>
        <time>2020-05-22T08:15:47.000Z</time>
      </trkpt>
      <trkpt lat="44.75958" lon="4.43165">
        <ele>874.6</ele>
        <time>2020-05-22T08:15:49.000Z</time>
      </trkpt>
      <trkpt lat="44.75964" lon="4.43176">
        <ele>874.8</ele>
        <time>2020-05-22T08:15:51.000Z</time>
      </trkpt>
      <trkpt lat="44.75971" lon="4.43186">
        <ele>875</ele>
        <time>2020-05-22T08:15:53.000Z</time>
      </trkpt>
      <trkpt lat="44.75978" lon="4.43195">
        <ele>875.1</ele>
        <time>2020-05-22T08:15:55.000Z</time>
      </trkpt>
      <trkpt lat="44.75988" lon="4.43201">
        <ele>875.3</ele>
        <time>2020-05-22T08:15:57.000Z</time>
      </trkpt>
      <trkpt lat="44.75998" lon="4.43203">
        <ele>875.5</ele>
        <time>2020-05-22T08:15:59.000Z</time>
      </trkpt>
      <trkpt lat="44.76009" lon="4.43203">
        <ele>875.7</ele>
        <time>2020-05-22T08:16:01.000Z</time>
      </trkpt>
      <trkpt lat="44.76021" lon="4.43199">
        <ele>875.8</ele>
        <time>2020-05-22T08:16:03.000Z</time>
      </trkpt>
      <trkpt lat="44.76031" lon="4.43191">
        <ele>875.9</ele>
        <time>2020-05-22T08:16:05.000Z</time>
      </trkpt>
      <trkpt lat="44.76041" lon="4.43182">
        <ele>876.1</ele>
        <time>2020-05-22T08:16:07.000Z</time>
      </trkpt>
      <trkpt lat="44.7605" lon="4.43172">
        <ele>876.3</ele>
        <time>2020-05-22T08:16:09.000Z</time>
      </trkpt>
      <trkpt lat="44.76058" lon="4.43162">
        <ele>876.6</ele>
        <time>2020-05-22T08:16:11.000Z</time>
      </trkpt>
      <trkpt lat="44.76066" lon="4.43152">
        <ele>876.9</ele>
        <time>2020-05-22T08:16:13.000Z</time>
      </trkpt>
      <trkpt lat="44.76074" lon="4.43143">
        <ele>877.2</ele>
        <time>2020-05-22T08:16:15.000Z</time>
      </trkpt>
      <trkpt lat="44.76081" lon="4.43134">
        <ele>877.5</ele>
        <time>2020-05-22T08:16:17.000Z</time>
      </trkpt>
      <trkpt lat="44.76088" lon="4.43125">
        <ele>877.8</ele>
        <time>2020-05-22T08:16:19.000Z</time>
      </trkpt>
      <trkpt lat="44.76096" lon="4.43117">
        <ele>878</ele>
        <time>2020-05-22T08:16:21.000Z</time>
      </trkpt>
      <trkpt lat="44.76103" lon="4.43108">
        <ele>878.3</ele>
        <time>2020-05-22T08:16:23.000Z</time>
      </trkpt>
      <trkpt lat="44.7611" lon="4.431">
        <ele>878.5</ele>
        <time>2020-05-22T08:16:25.000Z</time>
      </trkpt>
      <trkpt lat="44.76118" lon="4.43092">
        <ele>878.8</ele>
        <time>2020-05-22T08:16:27.000Z</time>
      </trkpt>
      <trkpt lat="44.76125" lon="4.43084">
        <ele>879</ele>
        <time>2020-05-22T08:16:29.000Z</time>
      </trkpt>
      <trkpt lat="44.76132" lon="4.43074">
        <ele>879.3</ele>
        <time>2020-05-22T08:16:31.000Z</time>
      </trkpt>
      <trkpt lat="44.76137" lon="4.43062">
        <ele>879.5</ele>
        <time>2020-05-22T08:16:33.000Z</time>
      </trkpt>
      <trkpt lat="44.76139" lon="4.43049">
        <ele>879.8</ele>
        <time>2020-05-22T08:16:35.000Z</time>
      </trkpt>
      <trkpt lat="44.76137" lon="4.43034">
        <ele>879.9</ele>
        <time>2020-05-22T08:16:37.000Z</time>
      </trkpt>
      <trkpt lat="44.76133" lon="4.43021">
        <ele>880.3</ele>
        <time>2020-05-22T08:16:39.000Z</time>
      </trkpt>
      <trkpt lat="44.76128" lon="4.43008">
        <ele>880.6</ele>
        <time>2020-05-22T08:16:41.000Z</time>
      </trkpt>
      <trkpt lat="44.76123" lon="4.42997">
        <ele>881.1</ele>
        <time>2020-05-22T08:16:43.000Z</time>
      </trkpt>
      <trkpt lat="44.76118" lon="4.42985">
        <ele>881.4</ele>
        <time>2020-05-22T08:16:45.000Z</time>
      </trkpt>
      <trkpt lat="44.76112" lon="4.42974">
        <ele>881.8</ele>
        <time>2020-05-22T08:16:47.000Z</time>
      </trkpt>
      <trkpt lat="44.76108" lon="4.42963">
        <ele>882.1</ele>
        <time>2020-05-22T08:16:49.000Z</time>
      </trkpt>
      <trkpt lat="44.76103" lon="4.42952">
        <ele>882.4</ele>
        <time>2020-05-22T08:16:51.000Z</time>
      </trkpt>
      <trkpt lat="44.76098" lon="4.4294">
        <ele>882.8</ele>
        <time>2020-05-22T08:16:53.000Z</time>
      </trkpt>
      <trkpt lat="44.76095" lon="4.42922">
        <ele>883.2</ele>
        <time>2020-05-22T08:16:56.000Z</time>
      </trkpt>
      <trkpt lat="44.76097" lon="4.42909">
        <ele>883.5</ele>
        <time>2020-05-22T08:16:58.000Z</time>
      </trkpt>
      <trkpt lat="44.76101" lon="4.42897">
        <ele>883.6</ele>
        <time>2020-05-22T08:17:00.000Z</time>
      </trkpt>
      <trkpt lat="44.76104" lon="4.42885">
        <ele>883.7</ele>
        <time>2020-05-22T08:17:02.000Z</time>
      </trkpt>
      <trkpt lat="44.76109" lon="4.42873">
        <ele>883.8</ele>
        <time>2020-05-22T08:17:04.000Z</time>
      </trkpt>
      <trkpt lat="44.76113" lon="4.42861">
        <ele>883.8</ele>
        <time>2020-05-22T08:17:06.000Z</time>
      </trkpt>
      <trkpt lat="44.76118" lon="4.42848">
        <ele>883.9</ele>
        <time>2020-05-22T08:17:08.000Z</time>
      </trkpt>
      <trkpt lat="44.76124" lon="4.42835">
        <ele>884</ele>
        <time>2020-05-22T08:17:10.000Z</time>
      </trkpt>
      <trkpt lat="44.76129" lon="4.42821">
        <ele>884.1</ele>
        <time>2020-05-22T08:17:12.000Z</time>
      </trkpt>
      <trkpt lat="44.76134" lon="4.42807">
        <ele>884.2</ele>
        <time>2020-05-22T08:17:14.000Z</time>
      </trkpt>
      <trkpt lat="44.76139" lon="4.42793">
        <ele>884.4</ele>
        <time>2020-05-22T08:17:16.000Z</time>
      </trkpt>
      <trkpt lat="44.76142" lon="4.42778">
        <ele>884.6</ele>
        <time>2020-05-22T08:17:18.000Z</time>
      </trkpt>
      <trkpt lat="44.76144" lon="4.42763">
        <ele>884.9</ele>
        <time>2020-05-22T08:17:20.000Z</time>
      </trkpt>
      <trkpt lat="44.76145" lon="4.42748">
        <ele>885.1</ele>
        <time>2020-05-22T08:17:22.000Z</time>
      </trkpt>
      <trkpt lat="44.76144" lon="4.42734">
        <ele>885.3</ele>
        <time>2020-05-22T08:17:24.000Z</time>
      </trkpt>
      <trkpt lat="44.76142" lon="4.4272">
        <ele>885.6</ele>
        <time>2020-05-22T08:17:26.000Z</time>
      </trkpt>
      <trkpt lat="44.7614" lon="4.42707">
        <ele>885.9</ele>
        <time>2020-05-22T08:17:28.000Z</time>
      </trkpt>
      <trkpt lat="44.76137" lon="4.42694">
        <ele>886.1</ele>
        <time>2020-05-22T08:17:30.000Z</time>
      </trkpt>
      <trkpt lat="44.76134" lon="4.42682">
        <ele>886.2</ele>
        <time>2020-05-22T08:17:32.000Z</time>
      </trkpt>
      <trkpt lat="44.76129" lon="4.42665">
        <ele>886.4</ele>
        <time>2020-05-22T08:17:35.000Z</time>
      </trkpt>
      <trkpt lat="44.76126" lon="4.42653">
        <ele>886.5</ele>
        <time>2020-05-22T08:17:37.000Z</time>
      </trkpt>
      <trkpt lat="44.76122" lon="4.42641">
        <ele>886.6</ele>
        <time>2020-05-22T08:17:39.000Z</time>
      </trkpt>
      <trkpt lat="44.76119" lon="4.42629">
        <ele>886.7</ele>
        <time>2020-05-22T08:17:41.000Z</time>
      </trkpt>
      <trkpt lat="44.76113" lon="4.42611">
        <ele>887</ele>
        <time>2020-05-22T08:17:44.000Z</time>
      </trkpt>
      <trkpt lat="44.76111" lon="4.42598">
        <ele>887.1</ele>
        <time>2020-05-22T08:17:46.000Z</time>
      </trkpt>
      <trkpt lat="44.76109" lon="4.42586">
        <ele>887.2</ele>
        <time>2020-05-22T08:17:48.000Z</time>
      </trkpt>
      <trkpt lat="44.76107" lon="4.42573">
        <ele>887.5</ele>
        <time>2020-05-22T08:17:50.000Z</time>
      </trkpt>
      <trkpt lat="44.76103" lon="4.42555">
        <ele>887.8</ele>
        <time>2020-05-22T08:17:53.000Z</time>
      </trkpt>
      <trkpt lat="44.76098" lon="4.42538">
        <ele>888.2</ele>
        <time>2020-05-22T08:17:56.000Z</time>
      </trkpt>
      <trkpt lat="44.76095" lon="4.4252">
        <ele>888.7</ele>
        <time>2020-05-22T08:17:59.000Z</time>
      </trkpt>
      <trkpt lat="44.76091" lon="4.42502">
        <ele>889.1</ele>
        <time>2020-05-22T08:18:02.000Z</time>
      </trkpt>
      <trkpt lat="44.76088" lon="4.42484">
        <ele>889.4</ele>
        <time>2020-05-22T08:18:05.000Z</time>
      </trkpt>
      <trkpt lat="44.76086" lon="4.42467">
        <ele>889.8</ele>
        <time>2020-05-22T08:18:08.000Z</time>
      </trkpt>
      <trkpt lat="44.76085" lon="4.4245">
        <ele>890.1</ele>
        <time>2020-05-22T08:18:11.000Z</time>
      </trkpt>
      <trkpt lat="44.76085" lon="4.42432">
        <ele>890.4</ele>
        <time>2020-05-22T08:18:14.000Z</time>
      </trkpt>
      <trkpt lat="44.76085" lon="4.42414">
        <ele>890.6</ele>
        <time>2020-05-22T08:18:17.000Z</time>
      </trkpt>
      <trkpt lat="44.7609" lon="4.42397">
        <ele>891</ele>
        <time>2020-05-22T08:18:20.000Z</time>
      </trkpt>
      <trkpt lat="44.76096" lon="4.42382">
        <ele>891.2</ele>
        <time>2020-05-22T08:18:23.000Z</time>
      </trkpt>
      <trkpt lat="44.76105" lon="4.42368">
        <ele>891.5</ele>
        <time>2020-05-22T08:18:26.000Z</time>
      </trkpt>
      <trkpt lat="44.76112" lon="4.4236">
        <ele>891.7</ele>
        <time>2020-05-22T08:18:28.000Z</time>
      </trkpt>
      <trkpt lat="44.76123" lon="4.4235">
        <ele>891.9</ele>
        <time>2020-05-22T08:18:31.000Z</time>
      </trkpt>
      <trkpt lat="44.76131" lon="4.42343">
        <ele>892</ele>
        <time>2020-05-22T08:18:33.000Z</time>
      </trkpt>
      <trkpt lat="44.7614" lon="4.42337">
        <ele>892.1</ele>
        <time>2020-05-22T08:18:35.000Z</time>
      </trkpt>
      <trkpt lat="44.76148" lon="4.42331">
        <ele>892.2</ele>
        <time>2020-05-22T08:18:37.000Z</time>
      </trkpt>
      <trkpt lat="44.76157" lon="4.42326">
        <ele>892.3</ele>
        <time>2020-05-22T08:18:39.000Z</time>
      </trkpt>
      <trkpt lat="44.76166" lon="4.42321">
        <ele>892.4</ele>
        <time>2020-05-22T08:18:41.000Z</time>
      </trkpt>
      <trkpt lat="44.76174" lon="4.42317">
        <ele>892.5</ele>
        <time>2020-05-22T08:18:43.000Z</time>
      </trkpt>
      <trkpt lat="44.76187" lon="4.4231">
        <ele>892.6</ele>
        <time>2020-05-22T08:18:46.000Z</time>
      </trkpt>
      <trkpt lat="44.76199" lon="4.42304">
        <ele>892.6</ele>
        <time>2020-05-22T08:18:49.000Z</time>
      </trkpt>
      <trkpt lat="44.76211" lon="4.42296">
        <ele>892.6</ele>
        <time>2020-05-22T08:18:52.000Z</time>
      </trkpt>
      <trkpt lat="44.76219" lon="4.42289">
        <ele>892.8</ele>
        <time>2020-05-22T08:18:54.000Z</time>
      </trkpt>
      <trkpt lat="44.76226" lon="4.42281">
        <ele>892.9</ele>
        <time>2020-05-22T08:18:56.000Z</time>
      </trkpt>
      <trkpt lat="44.76232" lon="4.42271">
        <ele>893</ele>
        <time>2020-05-22T08:18:58.000Z</time>
      </trkpt>
      <trkpt lat="44.76237" lon="4.4226">
        <ele>893.2</ele>
        <time>2020-05-22T08:19:00.000Z</time>
      </trkpt>
      <trkpt lat="44.76241" lon="4.42248">
        <ele>893.4</ele>
        <time>2020-05-22T08:19:02.000Z</time>
      </trkpt>
      <trkpt lat="44.76244" lon="4.42236">
        <ele>893.6</ele>
        <time>2020-05-22T08:19:04.000Z</time>
      </trkpt>
      <trkpt lat="44.76248" lon="4.42218">
        <ele>894</ele>
        <time>2020-05-22T08:19:07.000Z</time>
      </trkpt>
      <trkpt lat="44.76249" lon="4.422">
        <ele>894.5</ele>
        <time>2020-05-22T08:19:10.000Z</time>
      </trkpt>
      <trkpt lat="44.76251" lon="4.42182">
        <ele>894.9</ele>
        <time>2020-05-22T08:19:13.000Z</time>
      </trkpt>
      <trkpt lat="44.76254" lon="4.42164">
        <ele>895.2</ele>
        <time>2020-05-22T08:19:16.000Z</time>
      </trkpt>
      <trkpt lat="44.76256" lon="4.42147">
        <ele>895.7</ele>
        <time>2020-05-22T08:19:19.000Z</time>
      </trkpt>
      <trkpt lat="44.76259" lon="4.4213">
        <ele>896.1</ele>
        <time>2020-05-22T08:19:22.000Z</time>
      </trkpt>
      <trkpt lat="44.76262" lon="4.42113">
        <ele>896.4</ele>
        <time>2020-05-22T08:19:25.000Z</time>
      </trkpt>
      <trkpt lat="44.76263" lon="4.421">
        <ele>896.5</ele>
        <time>2020-05-22T08:19:27.000Z</time>
      </trkpt>
      <trkpt lat="44.76266" lon="4.42087">
        <ele>896.7</ele>
        <time>2020-05-22T08:19:29.000Z</time>
      </trkpt>
      <trkpt lat="44.7627" lon="4.42075">
        <ele>896.8</ele>
        <time>2020-05-22T08:19:31.000Z</time>
      </trkpt>
      <trkpt lat="44.76275" lon="4.42064">
        <ele>896.9</ele>
        <time>2020-05-22T08:19:33.000Z</time>
      </trkpt>
      <trkpt lat="44.76282" lon="4.42055">
        <ele>897.1</ele>
        <time>2020-05-22T08:19:35.000Z</time>
      </trkpt>
      <trkpt lat="44.76288" lon="4.42046">
        <ele>897.2</ele>
        <time>2020-05-22T08:19:37.000Z</time>
      </trkpt>
      <trkpt lat="44.76299" lon="4.42034">
        <ele>897.5</ele>
        <time>2020-05-22T08:19:40.000Z</time>
      </trkpt>
      <trkpt lat="44.76309" lon="4.42022">
        <ele>897.7</ele>
        <time>2020-05-22T08:19:43.000Z</time>
      </trkpt>
      <trkpt lat="44.76316" lon="4.42013">
        <ele>897.8</ele>
        <time>2020-05-22T08:19:45.000Z</time>
      </trkpt>
      <trkpt lat="44.76323" lon="4.42004">
        <ele>897.9</ele>
        <time>2020-05-22T08:19:47.000Z</time>
      </trkpt>
      <trkpt lat="44.76329" lon="4.41995">
        <ele>898.1</ele>
        <time>2020-05-22T08:19:49.000Z</time>
      </trkpt>
      <trkpt lat="44.76336" lon="4.41986">
        <ele>898.3</ele>
        <time>2020-05-22T08:19:51.000Z</time>
      </trkpt>
      <trkpt lat="44.76342" lon="4.41977">
        <ele>898.5</ele>
        <time>2020-05-22T08:19:53.000Z</time>
      </trkpt>
      <trkpt lat="44.76349" lon="4.41967">
        <ele>898.7</ele>
        <time>2020-05-22T08:19:55.000Z</time>
      </trkpt>
      <trkpt lat="44.76356" lon="4.41958">
        <ele>898.8</ele>
        <time>2020-05-22T08:19:57.000Z</time>
      </trkpt>
      <trkpt lat="44.76364" lon="4.41949">
        <ele>899</ele>
        <time>2020-05-22T08:19:59.000Z</time>
      </trkpt>
      <trkpt lat="44.76371" lon="4.4194">
        <ele>899.2</ele>
        <time>2020-05-22T08:20:01.000Z</time>
      </trkpt>
      <trkpt lat="44.76379" lon="4.41931">
        <ele>899.3</ele>
        <time>2020-05-22T08:20:03.000Z</time>
      </trkpt>
      <trkpt lat="44.76387" lon="4.41923">
        <ele>899.4</ele>
        <time>2020-05-22T08:20:05.000Z</time>
      </trkpt>
      <trkpt lat="44.76396" lon="4.41917">
        <ele>899.5</ele>
        <time>2020-05-22T08:20:07.000Z</time>
      </trkpt>
      <trkpt lat="44.76405" lon="4.41914">
        <ele>899.5</ele>
        <time>2020-05-22T08:20:09.000Z</time>
      </trkpt>
      <trkpt lat="44.76415" lon="4.41916">
        <ele>899.5</ele>
        <time>2020-05-22T08:20:11.000Z</time>
      </trkpt>
      <trkpt lat="44.76424" lon="4.41921">
        <ele>899.4</ele>
        <time>2020-05-22T08:20:13.000Z</time>
      </trkpt>
      <trkpt lat="44.76431" lon="4.4193">
        <ele>899.4</ele>
        <time>2020-05-22T08:20:15.000Z</time>
      </trkpt>
      <trkpt lat="44.76437" lon="4.4194">
        <ele>899.4</ele>
        <time>2020-05-22T08:20:17.000Z</time>
      </trkpt>
      <trkpt lat="44.76444" lon="4.4195">
        <ele>899.3</ele>
        <time>2020-05-22T08:20:19.000Z</time>
      </trkpt>
      <trkpt lat="44.76451" lon="4.41959">
        <ele>899.3</ele>
        <time>2020-05-22T08:20:21.000Z</time>
      </trkpt>
      <trkpt lat="44.76461" lon="4.41965">
        <ele>899.3</ele>
        <time>2020-05-22T08:20:23.000Z</time>
      </trkpt>
      <trkpt lat="44.76471" lon="4.41965">
        <ele>899.3</ele>
        <time>2020-05-22T08:20:25.000Z</time>
      </trkpt>
      <trkpt lat="44.76481" lon="4.41961">
        <ele>899.4</ele>
        <time>2020-05-22T08:20:27.000Z</time>
      </trkpt>
      <trkpt lat="44.76489" lon="4.41952">
        <ele>899.4</ele>
        <time>2020-05-22T08:20:29.000Z</time>
      </trkpt>
      <trkpt lat="44.76496" lon="4.41941">
        <ele>899.6</ele>
        <time>2020-05-22T08:20:31.000Z</time>
      </trkpt>
      <trkpt lat="44.76502" lon="4.4193">
        <ele>899.8</ele>
        <time>2020-05-22T08:20:33.000Z</time>
      </trkpt>
      <trkpt lat="44.76508" lon="4.41919">
        <ele>900.1</ele>
        <time>2020-05-22T08:20:35.000Z</time>
      </trkpt>
      <trkpt lat="44.76515" lon="4.41907">
        <ele>900.4</ele>
        <time>2020-05-22T08:20:37.000Z</time>
      </trkpt>
      <trkpt lat="44.76522" lon="4.41895">
        <ele>900.7</ele>
        <time>2020-05-22T08:20:39.000Z</time>
      </trkpt>
      <trkpt lat="44.76531" lon="4.41879">
        <ele>901.1</ele>
        <time>2020-05-22T08:20:42.000Z</time>
      </trkpt>
      <trkpt lat="44.76536" lon="4.41862">
        <ele>901.5</ele>
        <time>2020-05-22T08:20:45.000Z</time>
      </trkpt>
      <trkpt lat="44.7654" lon="4.4185">
        <ele>901.8</ele>
        <time>2020-05-22T08:20:47.000Z</time>
      </trkpt>
      <trkpt lat="44.76542" lon="4.41837">
        <ele>902</ele>
        <time>2020-05-22T08:20:49.000Z</time>
      </trkpt>
      <trkpt lat="44.76547" lon="4.41824">
        <ele>902.2</ele>
        <time>2020-05-22T08:20:51.000Z</time>
      </trkpt>
      <trkpt lat="44.76557" lon="4.4181">
        <ele>902.4</ele>
        <time>2020-05-22T08:20:53.000Z</time>
      </trkpt>
      <trkpt lat="44.76568" lon="4.41797">
        <ele>902.8</ele>
        <time>2020-05-22T08:20:55.000Z</time>
      </trkpt>
      <trkpt lat="44.76573" lon="4.41784">
        <ele>903.2</ele>
        <time>2020-05-22T08:20:57.000Z</time>
      </trkpt>
      <trkpt lat="44.76579" lon="4.41772">
        <ele>903.6</ele>
        <time>2020-05-22T08:20:59.000Z</time>
      </trkpt>
      <trkpt lat="44.76583" lon="4.41759">
        <ele>904</ele>
        <time>2020-05-22T08:21:01.000Z</time>
      </trkpt>
      <trkpt lat="44.76588" lon="4.41747">
        <ele>904.3</ele>
        <time>2020-05-22T08:21:03.000Z</time>
      </trkpt>
      <trkpt lat="44.76592" lon="4.41734">
        <ele>904.7</ele>
        <time>2020-05-22T08:21:05.000Z</time>
      </trkpt>
      <trkpt lat="44.76593" lon="4.41721">
        <ele>905.1</ele>
        <time>2020-05-22T08:21:07.000Z</time>
      </trkpt>
      <trkpt lat="44.76595" lon="4.41708">
        <ele>905.4</ele>
        <time>2020-05-22T08:21:09.000Z</time>
      </trkpt>
      <trkpt lat="44.76597" lon="4.41695">
        <ele>905.6</ele>
        <time>2020-05-22T08:21:11.000Z</time>
      </trkpt>
      <trkpt lat="44.76602" lon="4.41684">
        <ele>905.8</ele>
        <time>2020-05-22T08:21:13.000Z</time>
      </trkpt>
      <trkpt lat="44.7661" lon="4.41675">
        <ele>906.1</ele>
        <time>2020-05-22T08:21:15.000Z</time>
      </trkpt>
      <trkpt lat="44.76618" lon="4.41667">
        <ele>906.3</ele>
        <time>2020-05-22T08:21:17.000Z</time>
      </trkpt>
      <trkpt lat="44.76627" lon="4.41661">
        <ele>906.5</ele>
        <time>2020-05-22T08:21:19.000Z</time>
      </trkpt>
      <trkpt lat="44.76635" lon="4.41653">
        <ele>906.7</ele>
        <time>2020-05-22T08:21:21.000Z</time>
      </trkpt>
      <trkpt lat="44.76641" lon="4.41643">
        <ele>906.9</ele>
        <time>2020-05-22T08:21:23.000Z</time>
      </trkpt>
      <trkpt lat="44.76645" lon="4.4163">
        <ele>907</ele>
        <time>2020-05-22T08:21:25.000Z</time>
      </trkpt>
      <trkpt lat="44.76647" lon="4.41617">
        <ele>907.2</ele>
        <time>2020-05-22T08:21:27.000Z</time>
      </trkpt>
      <trkpt lat="44.76651" lon="4.41605">
        <ele>907.3</ele>
        <time>2020-05-22T08:21:29.000Z</time>
      </trkpt>
      <trkpt lat="44.7666" lon="4.41598">
        <ele>907.5</ele>
        <time>2020-05-22T08:21:31.000Z</time>
      </trkpt>
      <trkpt lat="44.76671" lon="4.41599">
        <ele>907.6</ele>
        <time>2020-05-22T08:21:33.000Z</time>
      </trkpt>
      <trkpt lat="44.76682" lon="4.41608">
        <ele>907.7</ele>
        <time>2020-05-22T08:21:35.000Z</time>
      </trkpt>
      <trkpt lat="44.7669" lon="4.4162">
        <ele>907.7</ele>
        <time>2020-05-22T08:21:37.000Z</time>
      </trkpt>
      <trkpt lat="44.76697" lon="4.41634">
        <ele>907.8</ele>
        <time>2020-05-22T08:21:39.000Z</time>
      </trkpt>
      <trkpt lat="44.76702" lon="4.41646">
        <ele>907.9</ele>
        <time>2020-05-22T08:21:41.000Z</time>
      </trkpt>
      <trkpt lat="44.76707" lon="4.41658">
        <ele>908.1</ele>
        <time>2020-05-22T08:21:43.000Z</time>
      </trkpt>
      <trkpt lat="44.76712" lon="4.4167">
        <ele>908.2</ele>
        <time>2020-05-22T08:21:45.000Z</time>
      </trkpt>
      <trkpt lat="44.76717" lon="4.41683">
        <ele>908.2</ele>
        <time>2020-05-22T08:21:47.000Z</time>
      </trkpt>
      <trkpt lat="44.76722" lon="4.41695">
        <ele>908.1</ele>
        <time>2020-05-22T08:21:49.000Z</time>
      </trkpt>
      <trkpt lat="44.76727" lon="4.41707">
        <ele>908.1</ele>
        <time>2020-05-22T08:21:51.000Z</time>
      </trkpt>
      <trkpt lat="44.76731" lon="4.41718">
        <ele>908.1</ele>
        <time>2020-05-22T08:21:53.000Z</time>
      </trkpt>
      <trkpt lat="44.76737" lon="4.41733">
        <ele>908.1</ele>
        <time>2020-05-22T08:21:56.000Z</time>
      </trkpt>
      <trkpt lat="44.76746" lon="4.41746">
        <ele>908</ele>
        <time>2020-05-22T08:21:59.000Z</time>
      </trkpt>
      <trkpt lat="44.76752" lon="4.41761">
        <ele>908.1</ele>
        <time>2020-05-22T08:22:02.000Z</time>
      </trkpt>
      <trkpt lat="44.76756" lon="4.41773">
        <ele>908.2</ele>
        <time>2020-05-22T08:22:04.000Z</time>
      </trkpt>
      <trkpt lat="44.76761" lon="4.41786">
        <ele>908.4</ele>
        <time>2020-05-22T08:22:06.000Z</time>
      </trkpt>
      <trkpt lat="44.76766" lon="4.41798">
        <ele>908.6</ele>
        <time>2020-05-22T08:22:08.000Z</time>
      </trkpt>
      <trkpt lat="44.76776" lon="4.41803">
        <ele>908.9</ele>
        <time>2020-05-22T08:22:10.000Z</time>
      </trkpt>
      <trkpt lat="44.76786" lon="4.41803">
        <ele>909.2</ele>
        <time>2020-05-22T08:22:12.000Z</time>
      </trkpt>
      <trkpt lat="44.76796" lon="4.41801">
        <ele>909.5</ele>
        <time>2020-05-22T08:22:14.000Z</time>
      </trkpt>
      <trkpt lat="44.76805" lon="4.418">
        <ele>909.7</ele>
        <time>2020-05-22T08:22:16.000Z</time>
      </trkpt>
      <trkpt lat="44.76815" lon="4.41798">
        <ele>910</ele>
        <time>2020-05-22T08:22:18.000Z</time>
      </trkpt>
      <trkpt lat="44.76824" lon="4.41796">
        <ele>910.3</ele>
        <time>2020-05-22T08:22:20.000Z</time>
      </trkpt>
      <trkpt lat="44.76834" lon="4.41795">
        <ele>910.4</ele>
        <time>2020-05-22T08:22:22.000Z</time>
      </trkpt>
      <trkpt lat="44.76845" lon="4.41794">
        <ele>910.7</ele>
        <time>2020-05-22T08:22:25.000Z</time>
      </trkpt>
      <trkpt lat="44.76856" lon="4.41796">
        <ele>910.8</ele>
        <time>2020-05-22T08:22:27.000Z</time>
      </trkpt>
      <trkpt lat="44.76866" lon="4.41798">
        <ele>911</ele>
        <time>2020-05-22T08:22:29.000Z</time>
      </trkpt>
      <trkpt lat="44.76877" lon="4.41796">
        <ele>911</ele>
        <time>2020-05-22T08:22:31.000Z</time>
      </trkpt>
      <trkpt lat="44.76888" lon="4.41793">
        <ele>911.1</ele>
        <time>2020-05-22T08:22:33.000Z</time>
      </trkpt>
      <trkpt lat="44.76898" lon="4.41787">
        <ele>911.2</ele>
        <time>2020-05-22T08:22:35.000Z</time>
      </trkpt>
      <trkpt lat="44.76907" lon="4.4178">
        <ele>911.3</ele>
        <time>2020-05-22T08:22:37.000Z</time>
      </trkpt>
      <trkpt lat="44.76916" lon="4.41773">
        <ele>911.5</ele>
        <time>2020-05-22T08:22:39.000Z</time>
      </trkpt>
      <trkpt lat="44.76924" lon="4.41763">
        <ele>911.7</ele>
        <time>2020-05-22T08:22:41.000Z</time>
      </trkpt>
      <trkpt lat="44.76931" lon="4.41754">
        <ele>912</ele>
        <time>2020-05-22T08:22:43.000Z</time>
      </trkpt>
      <trkpt lat="44.76938" lon="4.41745">
        <ele>912.3</ele>
        <time>2020-05-22T08:22:45.000Z</time>
      </trkpt>
      <trkpt lat="44.76946" lon="4.41736">
        <ele>912.7</ele>
        <time>2020-05-22T08:22:47.000Z</time>
      </trkpt>
      <trkpt lat="44.76953" lon="4.41726">
        <ele>913.2</ele>
        <time>2020-05-22T08:22:49.000Z</time>
      </trkpt>
      <trkpt lat="44.76958" lon="4.41715">
        <ele>913.6</ele>
        <time>2020-05-22T08:22:51.000Z</time>
      </trkpt>
      <trkpt lat="44.76964" lon="4.41704">
        <ele>913.9</ele>
        <time>2020-05-22T08:22:53.000Z</time>
      </trkpt>
      <trkpt lat="44.76971" lon="4.41691">
        <ele>914.3</ele>
        <time>2020-05-22T08:22:55.000Z</time>
      </trkpt>
      <trkpt lat="44.76978" lon="4.4168">
        <ele>914.6</ele>
        <time>2020-05-22T08:22:57.000Z</time>
      </trkpt>
      <trkpt lat="44.76985" lon="4.41665">
        <ele>915.2</ele>
        <time>2020-05-22T08:23:00.000Z</time>
      </trkpt>
      <trkpt lat="44.7699" lon="4.41654">
        <ele>915.4</ele>
        <time>2020-05-22T08:23:02.000Z</time>
      </trkpt>
      <trkpt lat="44.76995" lon="4.41642">
        <ele>915.6</ele>
        <time>2020-05-22T08:23:04.000Z</time>
      </trkpt>
      <trkpt lat="44.77001" lon="4.4163">
        <ele>915.8</ele>
        <time>2020-05-22T08:23:06.000Z</time>
      </trkpt>
      <trkpt lat="44.77006" lon="4.41618">
        <ele>915.9</ele>
        <time>2020-05-22T08:23:08.000Z</time>
      </trkpt>
      <trkpt lat="44.77011" lon="4.41606">
        <ele>916.1</ele>
        <time>2020-05-22T08:23:10.000Z</time>
      </trkpt>
      <trkpt lat="44.77015" lon="4.41594">
        <ele>916.2</ele>
        <time>2020-05-22T08:23:12.000Z</time>
      </trkpt>
      <trkpt lat="44.77024" lon="4.41581">
        <ele>916.3</ele>
        <time>2020-05-22T08:23:14.000Z</time>
      </trkpt>
      <trkpt lat="44.7703" lon="4.4157">
        <ele>916.5</ele>
        <time>2020-05-22T08:23:16.000Z</time>
      </trkpt>
      <trkpt lat="44.77037" lon="4.41554">
        <ele>916.7</ele>
        <time>2020-05-22T08:23:19.000Z</time>
      </trkpt>
      <trkpt lat="44.77043" lon="4.41543">
        <ele>916.8</ele>
        <time>2020-05-22T08:23:21.000Z</time>
      </trkpt>
      <trkpt lat="44.7705" lon="4.41533">
        <ele>917</ele>
        <time>2020-05-22T08:23:23.000Z</time>
      </trkpt>
      <trkpt lat="44.77058" lon="4.41521">
        <ele>917.3</ele>
        <time>2020-05-22T08:23:26.000Z</time>
      </trkpt>
      <trkpt lat="44.77066" lon="4.41509">
        <ele>917.6</ele>
        <time>2020-05-22T08:23:29.000Z</time>
      </trkpt>
      <trkpt lat="44.77078" lon="4.41502">
        <ele>918</ele>
        <time>2020-05-22T08:23:32.000Z</time>
      </trkpt>
      <trkpt lat="44.77089" lon="4.41504">
        <ele>918.2</ele>
        <time>2020-05-22T08:23:34.000Z</time>
      </trkpt>
      <trkpt lat="44.771" lon="4.41513">
        <ele>918.3</ele>
        <time>2020-05-22T08:23:36.000Z</time>
      </trkpt>
      <trkpt lat="44.77112" lon="4.41523">
        <ele>918.5</ele>
        <time>2020-05-22T08:23:38.000Z</time>
      </trkpt>
      <trkpt lat="44.77121" lon="4.41533">
        <ele>918.7</ele>
        <time>2020-05-22T08:23:40.000Z</time>
      </trkpt>
      <trkpt lat="44.77129" lon="4.41543">
        <ele>918.8</ele>
        <time>2020-05-22T08:23:42.000Z</time>
      </trkpt>
      <trkpt lat="44.77136" lon="4.41554">
        <ele>919</ele>
        <time>2020-05-22T08:23:44.000Z</time>
      </trkpt>
      <trkpt lat="44.77142" lon="4.41565">
        <ele>919.1</ele>
        <time>2020-05-22T08:23:46.000Z</time>
      </trkpt>
      <trkpt lat="44.77149" lon="4.41576">
        <ele>919.2</ele>
        <time>2020-05-22T08:23:48.000Z</time>
      </trkpt>
      <trkpt lat="44.77157" lon="4.41588">
        <ele>919.2</ele>
        <time>2020-05-22T08:23:50.000Z</time>
      </trkpt>
      <trkpt lat="44.77164" lon="4.41599">
        <ele>919.3</ele>
        <time>2020-05-22T08:23:52.000Z</time>
      </trkpt>
      <trkpt lat="44.77172" lon="4.41611">
        <ele>919.3</ele>
        <time>2020-05-22T08:23:54.000Z</time>
      </trkpt>
      <trkpt lat="44.77179" lon="4.41622">
        <ele>919.4</ele>
        <time>2020-05-22T08:23:56.000Z</time>
      </trkpt>
      <trkpt lat="44.77187" lon="4.41633">
        <ele>919.4</ele>
        <time>2020-05-22T08:23:58.000Z</time>
      </trkpt>
      <trkpt lat="44.77195" lon="4.41644">
        <ele>919.5</ele>
        <time>2020-05-22T08:24:00.000Z</time>
      </trkpt>
      <trkpt lat="44.77203" lon="4.41654">
        <ele>919.6</ele>
        <time>2020-05-22T08:24:02.000Z</time>
      </trkpt>
      <trkpt lat="44.77211" lon="4.41664">
        <ele>919.8</ele>
        <time>2020-05-22T08:24:04.000Z</time>
      </trkpt>
      <trkpt lat="44.77219" lon="4.41675">
        <ele>920</ele>
        <time>2020-05-22T08:24:06.000Z</time>
      </trkpt>
      <trkpt lat="44.77228" lon="4.41683">
        <ele>920.1</ele>
        <time>2020-05-22T08:24:08.000Z</time>
      </trkpt>
      <trkpt lat="44.7724" lon="4.41686">
        <ele>920.3</ele>
        <time>2020-05-22T08:24:10.000Z</time>
      </trkpt>
      <trkpt lat="44.77251" lon="4.41684">
        <ele>920.4</ele>
        <time>2020-05-22T08:24:12.000Z</time>
      </trkpt>
      <trkpt lat="44.77262" lon="4.4168">
        <ele>920.6</ele>
        <time>2020-05-22T08:24:14.000Z</time>
      </trkpt>
      <trkpt lat="44.77271" lon="4.41674">
        <ele>920.9</ele>
        <time>2020-05-22T08:24:16.000Z</time>
      </trkpt>
      <trkpt lat="44.7728" lon="4.41668">
        <ele>921.2</ele>
        <time>2020-05-22T08:24:18.000Z</time>
      </trkpt>
      <trkpt lat="44.77289" lon="4.41662">
        <ele>921.7</ele>
        <time>2020-05-22T08:24:20.000Z</time>
      </trkpt>
      <trkpt lat="44.77298" lon="4.41655">
        <ele>922.1</ele>
        <time>2020-05-22T08:24:22.000Z</time>
      </trkpt>
      <trkpt lat="44.77305" lon="4.41649">
        <ele>922.6</ele>
        <time>2020-05-22T08:24:24.000Z</time>
      </trkpt>
      <trkpt lat="44.77317" lon="4.4164">
        <ele>923.2</ele>
        <time>2020-05-22T08:24:27.000Z</time>
      </trkpt>
      <trkpt lat="44.77328" lon="4.41629">
        <ele>923.7</ele>
        <time>2020-05-22T08:24:30.000Z</time>
      </trkpt>
      <trkpt lat="44.77338" lon="4.41618">
        <ele>924.3</ele>
        <time>2020-05-22T08:24:33.000Z</time>
      </trkpt>
      <trkpt lat="44.77346" lon="4.41606">
        <ele>924.8</ele>
        <time>2020-05-22T08:24:36.000Z</time>
      </trkpt>
      <trkpt lat="44.77355" lon="4.41596">
        <ele>925.2</ele>
        <time>2020-05-22T08:24:39.000Z</time>
      </trkpt>
      <trkpt lat="44.7736" lon="4.41583">
        <ele>925.7</ele>
        <time>2020-05-22T08:24:42.000Z</time>
      </trkpt>
      <trkpt lat="44.77366" lon="4.41568">
        <ele>926.4</ele>
        <time>2020-05-22T08:24:45.000Z</time>
      </trkpt>
      <trkpt lat="44.77367" lon="4.41552">
        <ele>927.1</ele>
        <time>2020-05-22T08:24:48.000Z</time>
      </trkpt>
      <trkpt lat="44.77368" lon="4.41536">
        <ele>927.8</ele>
        <time>2020-05-22T08:24:51.000Z</time>
      </trkpt>
      <trkpt lat="44.77367" lon="4.41521">
        <ele>928.4</ele>
        <time>2020-05-22T08:24:54.000Z</time>
      </trkpt>
      <trkpt lat="44.77366" lon="4.41506">
        <ele>929</ele>
        <time>2020-05-22T08:24:57.000Z</time>
      </trkpt>
      <trkpt lat="44.77365" lon="4.41491">
        <ele>929.6</ele>
        <time>2020-05-22T08:25:00.000Z</time>
      </trkpt>
      <trkpt lat="44.77365" lon="4.41476">
        <ele>930.1</ele>
        <time>2020-05-22T08:25:03.000Z</time>
      </trkpt>
      <trkpt lat="44.77366" lon="4.41461">
        <ele>930.5</ele>
        <time>2020-05-22T08:25:06.000Z</time>
      </trkpt>
      <trkpt lat="44.77366" lon="4.41447">
        <ele>931</ele>
        <time>2020-05-22T08:25:09.000Z</time>
      </trkpt>
      <trkpt lat="44.77365" lon="4.41431">
        <ele>931.5</ele>
        <time>2020-05-22T08:25:12.000Z</time>
      </trkpt>
      <trkpt lat="44.77369" lon="4.41417">
        <ele>932</ele>
        <time>2020-05-22T08:25:15.000Z</time>
      </trkpt>
      <trkpt lat="44.77378" lon="4.41407">
        <ele>932.4</ele>
        <time>2020-05-22T08:25:18.000Z</time>
      </trkpt>
      <trkpt lat="44.77388" lon="4.414">
        <ele>932.9</ele>
        <time>2020-05-22T08:25:21.000Z</time>
      </trkpt>
      <trkpt lat="44.77398" lon="4.41393">
        <ele>933.2</ele>
        <time>2020-05-22T08:25:24.000Z</time>
      </trkpt>
      <trkpt lat="44.77409" lon="4.41386">
        <ele>933.5</ele>
        <time>2020-05-22T08:25:27.000Z</time>
      </trkpt>
      <trkpt lat="44.77421" lon="4.41381">
        <ele>933.8</ele>
        <time>2020-05-22T08:25:30.000Z</time>
      </trkpt>
      <trkpt lat="44.77433" lon="4.41375">
        <ele>934</ele>
        <time>2020-05-22T08:25:33.000Z</time>
      </trkpt>
      <trkpt lat="44.77442" lon="4.41369">
        <ele>934.3</ele>
        <time>2020-05-22T08:25:36.000Z</time>
      </trkpt>
      <trkpt lat="44.77452" lon="4.41363">
        <ele>934.6</ele>
        <time>2020-05-22T08:25:39.000Z</time>
      </trkpt>
      <trkpt lat="44.77462" lon="4.41356">
        <ele>935</ele>
        <time>2020-05-22T08:25:42.000Z</time>
      </trkpt>
      <trkpt lat="44.77471" lon="4.41349">
        <ele>935.4</ele>
        <time>2020-05-22T08:25:45.000Z</time>
      </trkpt>
      <trkpt lat="44.77479" lon="4.41339">
        <ele>935.9</ele>
        <time>2020-05-22T08:25:48.000Z</time>
      </trkpt>
      <trkpt lat="44.77487" lon="4.41329">
        <ele>936.4</ele>
        <time>2020-05-22T08:25:51.000Z</time>
      </trkpt>
      <trkpt lat="44.77492" lon="4.41317">
        <ele>936.9</ele>
        <time>2020-05-22T08:25:54.000Z</time>
      </trkpt>
      <trkpt lat="44.77498" lon="4.41304">
        <ele>937.5</ele>
        <time>2020-05-22T08:25:57.000Z</time>
      </trkpt>
      <trkpt lat="44.77501" lon="4.41289">
        <ele>938.1</ele>
        <time>2020-05-22T08:26:00.000Z</time>
      </trkpt>
      <trkpt lat="44.77503" lon="4.41274">
        <ele>938.7</ele>
        <time>2020-05-22T08:26:03.000Z</time>
      </trkpt>
      <trkpt lat="44.77503" lon="4.41259">
        <ele>939.2</ele>
        <time>2020-05-22T08:26:06.000Z</time>
      </trkpt>
      <trkpt lat="44.77502" lon="4.41243">
        <ele>939.6</ele>
        <time>2020-05-22T08:26:09.000Z</time>
      </trkpt>
      <trkpt lat="44.77501" lon="4.41228">
        <ele>940.1</ele>
        <time>2020-05-22T08:26:12.000Z</time>
      </trkpt>
      <trkpt lat="44.775" lon="4.41213">
        <ele>940.6</ele>
        <time>2020-05-22T08:26:15.000Z</time>
      </trkpt>
      <trkpt lat="44.77498" lon="4.41199">
        <ele>941</ele>
        <time>2020-05-22T08:26:18.000Z</time>
      </trkpt>
      <trkpt lat="44.77496" lon="4.41185">
        <ele>941.4</ele>
        <time>2020-05-22T08:26:21.000Z</time>
      </trkpt>
      <trkpt lat="44.77493" lon="4.41169">
        <ele>941.8</ele>
        <time>2020-05-22T08:26:24.000Z</time>
      </trkpt>
      <trkpt lat="44.77492" lon="4.41155">
        <ele>942.3</ele>
        <time>2020-05-22T08:26:27.000Z</time>
      </trkpt>
      <trkpt lat="44.77488" lon="4.41141">
        <ele>942.7</ele>
        <time>2020-05-22T08:26:30.000Z</time>
      </trkpt>
      <trkpt lat="44.77487" lon="4.41128">
        <ele>943.3</ele>
        <time>2020-05-22T08:26:33.000Z</time>
      </trkpt>
      <trkpt lat="44.77484" lon="4.41115">
        <ele>943.8</ele>
        <time>2020-05-22T08:26:36.000Z</time>
      </trkpt>
      <trkpt lat="44.77484" lon="4.411">
        <ele>944.4</ele>
        <time>2020-05-22T08:26:40.000Z</time>
      </trkpt>
      <trkpt lat="44.77484" lon="4.41086">
        <ele>945</ele>
        <time>2020-05-22T08:26:44.000Z</time>
      </trkpt>
      <trkpt lat="44.77481" lon="4.41072">
        <ele>945.5</ele>
        <time>2020-05-22T08:26:47.000Z</time>
      </trkpt>
      <trkpt lat="44.77477" lon="4.4106">
        <ele>946</ele>
        <time>2020-05-22T08:26:50.000Z</time>
      </trkpt>
      <trkpt lat="44.77472" lon="4.41046">
        <ele>946.4</ele>
        <time>2020-05-22T08:26:53.000Z</time>
      </trkpt>
      <trkpt lat="44.77468" lon="4.41034">
        <ele>946.8</ele>
        <time>2020-05-22T08:26:56.000Z</time>
      </trkpt>
      <trkpt lat="44.77461" lon="4.41023">
        <ele>947.2</ele>
        <time>2020-05-22T08:26:59.000Z</time>
      </trkpt>
      <trkpt lat="44.77455" lon="4.41014">
        <ele>947.5</ele>
        <time>2020-05-22T08:27:02.000Z</time>
      </trkpt>
      <trkpt lat="44.77446" lon="4.41004">
        <ele>948</ele>
        <time>2020-05-22T08:27:06.000Z</time>
      </trkpt>
      <trkpt lat="44.77438" lon="4.40997">
        <ele>948.4</ele>
        <time>2020-05-22T08:27:09.000Z</time>
      </trkpt>
      <trkpt lat="44.7743" lon="4.40991">
        <ele>948.7</ele>
        <time>2020-05-22T08:27:12.000Z</time>
      </trkpt>
      <trkpt lat="44.7742" lon="4.40984">
        <ele>949.1</ele>
        <time>2020-05-22T08:27:16.000Z</time>
      </trkpt>
      <trkpt lat="44.77409" lon="4.40979">
        <ele>949.5</ele>
        <time>2020-05-22T08:27:20.000Z</time>
      </trkpt>
      <trkpt lat="44.774" lon="4.40974">
        <ele>950</ele>
        <time>2020-05-22T08:27:24.000Z</time>
      </trkpt>
      <trkpt lat="44.77391" lon="4.40966">
        <ele>950.5</ele>
        <time>2020-05-22T08:27:28.000Z</time>
      </trkpt>
      <trkpt lat="44.77383" lon="4.40959">
        <ele>950.8</ele>
        <time>2020-05-22T08:27:31.000Z</time>
      </trkpt>
      <trkpt lat="44.77376" lon="4.40947">
        <ele>951.3</ele>
        <time>2020-05-22T08:27:35.000Z</time>
      </trkpt>
      <trkpt lat="44.77372" lon="4.40934">
        <ele>951.7</ele>
        <time>2020-05-22T08:27:38.000Z</time>
      </trkpt>
      <trkpt lat="44.77373" lon="4.4092">
        <ele>952</ele>
        <time>2020-05-22T08:27:41.000Z</time>
      </trkpt>
      <trkpt lat="44.7738" lon="4.40911">
        <ele>952.5</ele>
        <time>2020-05-22T08:27:44.000Z</time>
      </trkpt>
      <trkpt lat="44.77388" lon="4.40903">
        <ele>953.3</ele>
        <time>2020-05-22T08:27:49.000Z</time>
      </trkpt>
      <trkpt lat="44.77397" lon="4.40894">
        <ele>954.1</ele>
        <time>2020-05-22T08:27:55.000Z</time>
      </trkpt>
      <trkpt lat="44.77406" lon="4.40889">
        <ele>954.4</ele>
        <time>2020-05-22T08:27:57.000Z</time>
      </trkpt>
      <trkpt lat="44.77416" lon="4.40883">
        <ele>954.7</ele>
        <time>2020-05-22T08:28:00.000Z</time>
      </trkpt>
      <trkpt lat="44.77427" lon="4.40877">
        <ele>954.9</ele>
        <time>2020-05-22T08:28:03.000Z</time>
      </trkpt>
      <trkpt lat="44.77438" lon="4.40871">
        <ele>955.3</ele>
        <time>2020-05-22T08:28:06.000Z</time>
      </trkpt>
      <trkpt lat="44.77448" lon="4.40863">
        <ele>955.6</ele>
        <time>2020-05-22T08:28:09.000Z</time>
      </trkpt>
      <trkpt lat="44.77454" lon="4.40853">
        <ele>956</ele>
        <time>2020-05-22T08:28:12.000Z</time>
      </trkpt>
      <trkpt lat="44.77466" lon="4.40844">
        <ele>956.5</ele>
        <time>2020-05-22T08:28:15.000Z</time>
      </trkpt>
      <trkpt lat="44.77475" lon="4.40833">
        <ele>957.1</ele>
        <time>2020-05-22T08:28:18.000Z</time>
      </trkpt>
      <trkpt lat="44.77482" lon="4.40823">
        <ele>957.7</ele>
        <time>2020-05-22T08:28:21.000Z</time>
      </trkpt>
      <trkpt lat="44.77489" lon="4.40811">
        <ele>958.2</ele>
        <time>2020-05-22T08:28:24.000Z</time>
      </trkpt>
      <trkpt lat="44.77496" lon="4.40798">
        <ele>958.7</ele>
        <time>2020-05-22T08:28:27.000Z</time>
      </trkpt>
      <trkpt lat="44.77501" lon="4.40787">
        <ele>959.3</ele>
        <time>2020-05-22T08:28:30.000Z</time>
      </trkpt>
      <trkpt lat="44.77508" lon="4.40775">
        <ele>959.7</ele>
        <time>2020-05-22T08:28:33.000Z</time>
      </trkpt>
      <trkpt lat="44.77514" lon="4.40762">
        <ele>960.1</ele>
        <time>2020-05-22T08:28:36.000Z</time>
      </trkpt>
      <trkpt lat="44.77519" lon="4.4075">
        <ele>960.4</ele>
        <time>2020-05-22T08:28:39.000Z</time>
      </trkpt>
      <trkpt lat="44.77526" lon="4.40737">
        <ele>960.7</ele>
        <time>2020-05-22T08:28:42.000Z</time>
      </trkpt>
      <trkpt lat="44.77532" lon="4.40724">
        <ele>961</ele>
        <time>2020-05-22T08:28:45.000Z</time>
      </trkpt>
      <trkpt lat="44.77537" lon="4.40711">
        <ele>961.3</ele>
        <time>2020-05-22T08:28:48.000Z</time>
      </trkpt>
      <trkpt lat="44.77541" lon="4.40698">
        <ele>961.7</ele>
        <time>2020-05-22T08:28:51.000Z</time>
      </trkpt>
      <trkpt lat="44.77544" lon="4.40684">
        <ele>962.1</ele>
        <time>2020-05-22T08:28:54.000Z</time>
      </trkpt>
      <trkpt lat="44.77548" lon="4.4067">
        <ele>962.5</ele>
        <time>2020-05-22T08:28:57.000Z</time>
      </trkpt>
      <trkpt lat="44.77554" lon="4.40656">
        <ele>962.9</ele>
        <time>2020-05-22T08:29:00.000Z</time>
      </trkpt>
      <trkpt lat="44.77557" lon="4.40642">
        <ele>963.4</ele>
        <time>2020-05-22T08:29:03.000Z</time>
      </trkpt>
      <trkpt lat="44.77561" lon="4.4063">
        <ele>963.8</ele>
        <time>2020-05-22T08:29:06.000Z</time>
      </trkpt>
      <trkpt lat="44.77569" lon="4.40618">
        <ele>964.2</ele>
        <time>2020-05-22T08:29:09.000Z</time>
      </trkpt>
      <trkpt lat="44.77578" lon="4.40612">
        <ele>964.5</ele>
        <time>2020-05-22T08:29:11.000Z</time>
      </trkpt>
      <trkpt lat="44.77586" lon="4.40605">
        <ele>964.9</ele>
        <time>2020-05-22T08:29:14.000Z</time>
      </trkpt>
      <trkpt lat="44.77595" lon="4.40601">
        <ele>965.4</ele>
        <time>2020-05-22T08:29:17.000Z</time>
      </trkpt>
      <trkpt lat="44.77606" lon="4.40597">
        <ele>966</ele>
        <time>2020-05-22T08:29:21.000Z</time>
      </trkpt>
      <trkpt lat="44.77616" lon="4.40598">
        <ele>966.3</ele>
        <time>2020-05-22T08:29:23.000Z</time>
      </trkpt>
      <trkpt lat="44.77627" lon="4.40606">
        <ele>966.6</ele>
        <time>2020-05-22T08:29:26.000Z</time>
      </trkpt>
      <trkpt lat="44.77637" lon="4.40617">
        <ele>967</ele>
        <time>2020-05-22T08:29:29.000Z</time>
      </trkpt>
      <trkpt lat="44.77645" lon="4.40632">
        <ele>967.3</ele>
        <time>2020-05-22T08:29:32.000Z</time>
      </trkpt>
      <trkpt lat="44.7765" lon="4.40644">
        <ele>967.7</ele>
        <time>2020-05-22T08:29:35.000Z</time>
      </trkpt>
      <trkpt lat="44.77657" lon="4.40656">
        <ele>968.1</ele>
        <time>2020-05-22T08:29:38.000Z</time>
      </trkpt>
      <trkpt lat="44.77664" lon="4.40667">
        <ele>968.5</ele>
        <time>2020-05-22T08:29:41.000Z</time>
      </trkpt>
      <trkpt lat="44.77672" lon="4.40678">
        <ele>968.9</ele>
        <time>2020-05-22T08:29:44.000Z</time>
      </trkpt>
      <trkpt lat="44.7768" lon="4.40688">
        <ele>969.3</ele>
        <time>2020-05-22T08:29:47.000Z</time>
      </trkpt>
      <trkpt lat="44.77688" lon="4.40698">
        <ele>969.5</ele>
        <time>2020-05-22T08:29:50.000Z</time>
      </trkpt>
      <trkpt lat="44.77696" lon="4.40708">
        <ele>969.7</ele>
        <time>2020-05-22T08:29:53.000Z</time>
      </trkpt>
      <trkpt lat="44.77703" lon="4.40719">
        <ele>970</ele>
        <time>2020-05-22T08:29:56.000Z</time>
      </trkpt>
      <trkpt lat="44.7771" lon="4.40732">
        <ele>970.2</ele>
        <time>2020-05-22T08:29:59.000Z</time>
      </trkpt>
      <trkpt lat="44.77716" lon="4.40745">
        <ele>970.5</ele>
        <time>2020-05-22T08:30:02.000Z</time>
      </trkpt>
      <trkpt lat="44.7772" lon="4.40761">
        <ele>970.9</ele>
        <time>2020-05-22T08:30:05.000Z</time>
      </trkpt>
      <trkpt lat="44.77723" lon="4.40776">
        <ele>971.2</ele>
        <time>2020-05-22T08:30:08.000Z</time>
      </trkpt>
      <trkpt lat="44.77727" lon="4.40792">
        <ele>971.6</ele>
        <time>2020-05-22T08:30:11.000Z</time>
      </trkpt>
      <trkpt lat="44.77733" lon="4.40806">
        <ele>972</ele>
        <time>2020-05-22T08:30:14.000Z</time>
      </trkpt>
      <trkpt lat="44.77739" lon="4.4082">
        <ele>972.3</ele>
        <time>2020-05-22T08:30:17.000Z</time>
      </trkpt>
      <trkpt lat="44.77746" lon="4.40832">
        <ele>972.8</ele>
        <time>2020-05-22T08:30:20.000Z</time>
      </trkpt>
      <trkpt lat="44.77753" lon="4.40845">
        <ele>973.2</ele>
        <time>2020-05-22T08:30:23.000Z</time>
      </trkpt>
      <trkpt lat="44.7776" lon="4.40858">
        <ele>973.5</ele>
        <time>2020-05-22T08:30:26.000Z</time>
      </trkpt>
      <trkpt lat="44.77768" lon="4.4087">
        <ele>974.1</ele>
        <time>2020-05-22T08:30:29.000Z</time>
      </trkpt>
      <trkpt lat="44.77777" lon="4.40882">
        <ele>974.5</ele>
        <time>2020-05-22T08:30:32.000Z</time>
      </trkpt>
      <trkpt lat="44.77787" lon="4.40893">
        <ele>974.8</ele>
        <time>2020-05-22T08:30:35.000Z</time>
      </trkpt>
      <trkpt lat="44.77797" lon="4.40901">
        <ele>975</ele>
        <time>2020-05-22T08:30:38.000Z</time>
      </trkpt>
      <trkpt lat="44.77807" lon="4.40909">
        <ele>975.3</ele>
        <time>2020-05-22T08:30:41.000Z</time>
      </trkpt>
      <trkpt lat="44.77819" lon="4.40915">
        <ele>975.7</ele>
        <time>2020-05-22T08:30:44.000Z</time>
      </trkpt>
      <trkpt lat="44.7783" lon="4.40919">
        <ele>976.1</ele>
        <time>2020-05-22T08:30:47.000Z</time>
      </trkpt>
      <trkpt lat="44.77842" lon="4.40922">
        <ele>976.3</ele>
        <time>2020-05-22T08:30:50.000Z</time>
      </trkpt>
      <trkpt lat="44.77854" lon="4.40925">
        <ele>976.6</ele>
        <time>2020-05-22T08:30:53.000Z</time>
      </trkpt>
      <trkpt lat="44.77866" lon="4.40927">
        <ele>976.9</ele>
        <time>2020-05-22T08:30:56.000Z</time>
      </trkpt>
      <trkpt lat="44.77878" lon="4.40927">
        <ele>977.3</ele>
        <time>2020-05-22T08:30:59.000Z</time>
      </trkpt>
      <trkpt lat="44.7789" lon="4.40927">
        <ele>977.8</ele>
        <time>2020-05-22T08:31:02.000Z</time>
      </trkpt>
      <trkpt lat="44.77901" lon="4.40925">
        <ele>978.2</ele>
        <time>2020-05-22T08:31:05.000Z</time>
      </trkpt>
      <trkpt lat="44.77913" lon="4.40922">
        <ele>978.6</ele>
        <time>2020-05-22T08:31:08.000Z</time>
      </trkpt>
      <trkpt lat="44.77925" lon="4.40918">
        <ele>979.1</ele>
        <time>2020-05-22T08:31:11.000Z</time>
      </trkpt>
      <trkpt lat="44.77937" lon="4.40912">
        <ele>979.7</ele>
        <time>2020-05-22T08:31:14.000Z</time>
      </trkpt>
      <trkpt lat="44.77948" lon="4.40906">
        <ele>980.3</ele>
        <time>2020-05-22T08:31:17.000Z</time>
      </trkpt>
      <trkpt lat="44.7796" lon="4.40899">
        <ele>980.8</ele>
        <time>2020-05-22T08:31:20.000Z</time>
      </trkpt>
      <trkpt lat="44.7797" lon="4.4089">
        <ele>981.4</ele>
        <time>2020-05-22T08:31:23.000Z</time>
      </trkpt>
      <trkpt lat="44.7798" lon="4.4088">
        <ele>982.1</ele>
        <time>2020-05-22T08:31:26.000Z</time>
      </trkpt>
      <trkpt lat="44.77989" lon="4.4087">
        <ele>982.6</ele>
        <time>2020-05-22T08:31:29.000Z</time>
      </trkpt>
      <trkpt lat="44.77998" lon="4.40859">
        <ele>983.4</ele>
        <time>2020-05-22T08:31:32.000Z</time>
      </trkpt>
      <trkpt lat="44.78007" lon="4.40845">
        <ele>984.6</ele>
        <time>2020-05-22T08:31:35.000Z</time>
      </trkpt>
      <trkpt lat="44.78014" lon="4.40831">
        <ele>985.7</ele>
        <time>2020-05-22T08:31:38.000Z</time>
      </trkpt>
      <trkpt lat="44.7802" lon="4.40816">
        <ele>986.7</ele>
        <time>2020-05-22T08:31:41.000Z</time>
      </trkpt>
      <trkpt lat="44.78026" lon="4.40801">
        <ele>987.5</ele>
        <time>2020-05-22T08:31:44.000Z</time>
      </trkpt>
      <trkpt lat="44.7803" lon="4.40785">
        <ele>988.3</ele>
        <time>2020-05-22T08:31:47.000Z</time>
      </trkpt>
      <trkpt lat="44.78034" lon="4.40769">
        <ele>989</ele>
        <time>2020-05-22T08:31:50.000Z</time>
      </trkpt>
      <trkpt lat="44.78036" lon="4.40753">
        <ele>989.6</ele>
        <time>2020-05-22T08:31:53.000Z</time>
      </trkpt>
      <trkpt lat="44.78037" lon="4.40736">
        <ele>990.2</ele>
        <time>2020-05-22T08:31:56.000Z</time>
      </trkpt>
      <trkpt lat="44.78039" lon="4.4072">
        <ele>990.6</ele>
        <time>2020-05-22T08:31:59.000Z</time>
      </trkpt>
      <trkpt lat="44.78039" lon="4.40704">
        <ele>991</ele>
        <time>2020-05-22T08:32:02.000Z</time>
      </trkpt>
      <trkpt lat="44.78041" lon="4.40689">
        <ele>991.3</ele>
        <time>2020-05-22T08:32:05.000Z</time>
      </trkpt>
      <trkpt lat="44.78043" lon="4.40673">
        <ele>991.7</ele>
        <time>2020-05-22T08:32:08.000Z</time>
      </trkpt>
      <trkpt lat="44.78044" lon="4.40658">
        <ele>992.1</ele>
        <time>2020-05-22T08:32:11.000Z</time>
      </trkpt>
      <trkpt lat="44.78047" lon="4.40642">
        <ele>992.7</ele>
        <time>2020-05-22T08:32:14.000Z</time>
      </trkpt>
      <trkpt lat="44.7805" lon="4.40627">
        <ele>993.1</ele>
        <time>2020-05-22T08:32:17.000Z</time>
      </trkpt>
      <trkpt lat="44.78054" lon="4.40611">
        <ele>993.6</ele>
        <time>2020-05-22T08:32:20.000Z</time>
      </trkpt>
      <trkpt lat="44.78058" lon="4.40595">
        <ele>994.1</ele>
        <time>2020-05-22T08:32:23.000Z</time>
      </trkpt>
      <trkpt lat="44.78062" lon="4.40579">
        <ele>994.7</ele>
        <time>2020-05-22T08:32:26.000Z</time>
      </trkpt>
      <trkpt lat="44.78066" lon="4.40563">
        <ele>995.3</ele>
        <time>2020-05-22T08:32:29.000Z</time>
      </trkpt>
      <trkpt lat="44.78069" lon="4.40549">
        <ele>995.8</ele>
        <time>2020-05-22T08:32:32.000Z</time>
      </trkpt>
      <trkpt lat="44.78071" lon="4.40536">
        <ele>996.2</ele>
        <time>2020-05-22T08:32:35.000Z</time>
      </trkpt>
      <trkpt lat="44.78074" lon="4.40521">
        <ele>996.5</ele>
        <time>2020-05-22T08:32:38.000Z</time>
      </trkpt>
      <trkpt lat="44.78075" lon="4.40508">
        <ele>996.9</ele>
        <time>2020-05-22T08:32:41.000Z</time>
      </trkpt>
      <trkpt lat="44.78077" lon="4.40494">
        <ele>997.3</ele>
        <time>2020-05-22T08:32:44.000Z</time>
      </trkpt>
      <trkpt lat="44.78079" lon="4.40481">
        <ele>997.8</ele>
        <time>2020-05-22T08:32:47.000Z</time>
      </trkpt>
      <trkpt lat="44.7808" lon="4.40466">
        <ele>998.3</ele>
        <time>2020-05-22T08:32:50.000Z</time>
      </trkpt>
      <trkpt lat="44.78079" lon="4.40451">
        <ele>998.7</ele>
        <time>2020-05-22T08:32:53.000Z</time>
      </trkpt>
      <trkpt lat="44.78078" lon="4.40436">
        <ele>999.3</ele>
        <time>2020-05-22T08:32:56.000Z</time>
      </trkpt>
      <trkpt lat="44.78077" lon="4.40423">
        <ele>1000.1</ele>
        <time>2020-05-22T08:32:59.000Z</time>
      </trkpt>
      <trkpt lat="44.78074" lon="4.40411">
        <ele>1000.7</ele>
        <time>2020-05-22T08:33:02.000Z</time>
      </trkpt>
      <trkpt lat="44.7807" lon="4.40399">
        <ele>1001.3</ele>
        <time>2020-05-22T08:33:05.000Z</time>
      </trkpt>
      <trkpt lat="44.78066" lon="4.40383">
        <ele>1001.8</ele>
        <time>2020-05-22T08:33:09.000Z</time>
      </trkpt>
      <trkpt lat="44.78064" lon="4.4037">
        <ele>1002.1</ele>
        <time>2020-05-22T08:33:12.000Z</time>
      </trkpt>
      <trkpt lat="44.78066" lon="4.40357">
        <ele>1002.3</ele>
        <time>2020-05-22T08:33:15.000Z</time>
      </trkpt>
      <trkpt lat="44.78073" lon="4.40348">
        <ele>1002.5</ele>
        <time>2020-05-22T08:33:18.000Z</time>
      </trkpt>
      <trkpt lat="44.78083" lon="4.40345">
        <ele>1002.9</ele>
        <time>2020-05-22T08:33:22.000Z</time>
      </trkpt>
      <trkpt lat="44.78092" lon="4.40345">
        <ele>1003.2</ele>
        <time>2020-05-22T08:33:25.000Z</time>
      </trkpt>
      <trkpt lat="44.78102" lon="4.40346">
        <ele>1003.5</ele>
        <time>2020-05-22T08:33:28.000Z</time>
      </trkpt>
      <trkpt lat="44.78112" lon="4.40348">
        <ele>1003.7</ele>
        <time>2020-05-22T08:33:31.000Z</time>
      </trkpt>
      <trkpt lat="44.78121" lon="4.4035">
        <ele>1003.9</ele>
        <time>2020-05-22T08:33:34.000Z</time>
      </trkpt>
      <trkpt lat="44.78133" lon="4.40351">
        <ele>1004.1</ele>
        <time>2020-05-22T08:33:38.000Z</time>
      </trkpt>
      <trkpt lat="44.78142" lon="4.40354">
        <ele>1004.4</ele>
        <time>2020-05-22T08:33:41.000Z</time>
      </trkpt>
      <trkpt lat="44.78152" lon="4.40357">
        <ele>1004.8</ele>
        <time>2020-05-22T08:33:44.000Z</time>
      </trkpt>
      <trkpt lat="44.78162" lon="4.40359">
        <ele>1005.1</ele>
        <time>2020-05-22T08:33:47.000Z</time>
      </trkpt>
      <trkpt lat="44.78172" lon="4.40361">
        <ele>1005.5</ele>
        <time>2020-05-22T08:33:50.000Z</time>
      </trkpt>
      <trkpt lat="44.78181" lon="4.40363">
        <ele>1005.9</ele>
        <time>2020-05-22T08:33:53.000Z</time>
      </trkpt>
      <trkpt lat="44.78191" lon="4.40363">
        <ele>1006.4</ele>
        <time>2020-05-22T08:33:56.000Z</time>
      </trkpt>
      <trkpt lat="44.782" lon="4.40359">
        <ele>1006.7</ele>
        <time>2020-05-22T08:33:59.000Z</time>
      </trkpt>
      <trkpt lat="44.78209" lon="4.40351">
        <ele>1007</ele>
        <time>2020-05-22T08:34:02.000Z</time>
      </trkpt>
      <trkpt lat="44.78216" lon="4.40342">
        <ele>1007.3</ele>
        <time>2020-05-22T08:34:05.000Z</time>
      </trkpt>
      <trkpt lat="44.78222" lon="4.40332">
        <ele>1007.7</ele>
        <time>2020-05-22T08:34:08.000Z</time>
      </trkpt>
      <trkpt lat="44.78225" lon="4.40319">
        <ele>1008.3</ele>
        <time>2020-05-22T08:34:11.000Z</time>
      </trkpt>
      <trkpt lat="44.78226" lon="4.40305">
        <ele>1008.9</ele>
        <time>2020-05-22T08:34:14.000Z</time>
      </trkpt>
      <trkpt lat="44.78226" lon="4.40291">
        <ele>1009.7</ele>
        <time>2020-05-22T08:34:17.000Z</time>
      </trkpt>
      <trkpt lat="44.78226" lon="4.40278">
        <ele>1010.4</ele>
        <time>2020-05-22T08:34:20.000Z</time>
      </trkpt>
      <trkpt lat="44.78226" lon="4.40265">
        <ele>1011</ele>
        <time>2020-05-22T08:34:23.000Z</time>
      </trkpt>
      <trkpt lat="44.78225" lon="4.40252">
        <ele>1011.6</ele>
        <time>2020-05-22T08:34:26.000Z</time>
      </trkpt>
      <trkpt lat="44.78225" lon="4.40238">
        <ele>1012.1</ele>
        <time>2020-05-22T08:34:29.000Z</time>
      </trkpt>
      <trkpt lat="44.78224" lon="4.40225">
        <ele>1012.4</ele>
        <time>2020-05-22T08:34:32.000Z</time>
      </trkpt>
      <trkpt lat="44.78224" lon="4.40211">
        <ele>1012.7</ele>
        <time>2020-05-22T08:34:35.000Z</time>
      </trkpt>
      <trkpt lat="44.78224" lon="4.40197">
        <ele>1013</ele>
        <time>2020-05-22T08:34:38.000Z</time>
      </trkpt>
      <trkpt lat="44.78226" lon="4.40184">
        <ele>1013.3</ele>
        <time>2020-05-22T08:34:41.000Z</time>
      </trkpt>
      <trkpt lat="44.78235" lon="4.40172">
        <ele>1013.7</ele>
        <time>2020-05-22T08:34:45.000Z</time>
      </trkpt>
      <trkpt lat="44.78245" lon="4.40169">
        <ele>1014.1</ele>
        <time>2020-05-22T08:34:48.000Z</time>
      </trkpt>
      <trkpt lat="44.78253" lon="4.40176">
        <ele>1014.4</ele>
        <time>2020-05-22T08:34:51.000Z</time>
      </trkpt>
      <trkpt lat="44.78261" lon="4.40185">
        <ele>1014.8</ele>
        <time>2020-05-22T08:34:54.000Z</time>
      </trkpt>
      <trkpt lat="44.78269" lon="4.40196">
        <ele>1015.1</ele>
        <time>2020-05-22T08:34:57.000Z</time>
      </trkpt>
      <trkpt lat="44.78276" lon="4.40205">
        <ele>1015.3</ele>
        <time>2020-05-22T08:35:00.000Z</time>
      </trkpt>
      <trkpt lat="44.78284" lon="4.40216">
        <ele>1015.5</ele>
        <time>2020-05-22T08:35:03.000Z</time>
      </trkpt>
      <trkpt lat="44.78292" lon="4.40227">
        <ele>1015.7</ele>
        <time>2020-05-22T08:35:06.000Z</time>
      </trkpt>
      <trkpt lat="44.78301" lon="4.40237">
        <ele>1015.8</ele>
        <time>2020-05-22T08:35:09.000Z</time>
      </trkpt>
      <trkpt lat="44.7831" lon="4.40245">
        <ele>1016</ele>
        <time>2020-05-22T08:35:12.000Z</time>
      </trkpt>
      <trkpt lat="44.7832" lon="4.40253">
        <ele>1016.4</ele>
        <time>2020-05-22T08:35:15.000Z</time>
      </trkpt>
      <trkpt lat="44.78329" lon="4.40261">
        <ele>1016.7</ele>
        <time>2020-05-22T08:35:18.000Z</time>
      </trkpt>
      <trkpt lat="44.78339" lon="4.40269">
        <ele>1017</ele>
        <time>2020-05-22T08:35:21.000Z</time>
      </trkpt>
      <trkpt lat="44.78348" lon="4.40278">
        <ele>1017.3</ele>
        <time>2020-05-22T08:35:24.000Z</time>
      </trkpt>
      <trkpt lat="44.78357" lon="4.40289">
        <ele>1017.7</ele>
        <time>2020-05-22T08:35:27.000Z</time>
      </trkpt>
      <trkpt lat="44.78364" lon="4.40301">
        <ele>1018.1</ele>
        <time>2020-05-22T08:35:30.000Z</time>
      </trkpt>
      <trkpt lat="44.78371" lon="4.40315">
        <ele>1018.7</ele>
        <time>2020-05-22T08:35:33.000Z</time>
      </trkpt>
      <trkpt lat="44.78378" lon="4.40329">
        <ele>1019.3</ele>
        <time>2020-05-22T08:35:36.000Z</time>
      </trkpt>
      <trkpt lat="44.78384" lon="4.40343">
        <ele>1020</ele>
        <time>2020-05-22T08:35:39.000Z</time>
      </trkpt>
      <trkpt lat="44.78391" lon="4.40357">
        <ele>1020.6</ele>
        <time>2020-05-22T08:35:42.000Z</time>
      </trkpt>
      <trkpt lat="44.78397" lon="4.40371">
        <ele>1021.2</ele>
        <time>2020-05-22T08:35:45.000Z</time>
      </trkpt>
      <trkpt lat="44.78404" lon="4.40386">
        <ele>1021.7</ele>
        <time>2020-05-22T08:35:48.000Z</time>
      </trkpt>
      <trkpt lat="44.7841" lon="4.404">
        <ele>1022.2</ele>
        <time>2020-05-22T08:35:51.000Z</time>
      </trkpt>
      <trkpt lat="44.78414" lon="4.40415">
        <ele>1022.6</ele>
        <time>2020-05-22T08:35:54.000Z</time>
      </trkpt>
      <trkpt lat="44.78417" lon="4.4043">
        <ele>1023</ele>
        <time>2020-05-22T08:35:57.000Z</time>
      </trkpt>
      <trkpt lat="44.78419" lon="4.40445">
        <ele>1023.2</ele>
        <time>2020-05-22T08:36:00.000Z</time>
      </trkpt>
      <trkpt lat="44.78421" lon="4.4046">
        <ele>1023.5</ele>
        <time>2020-05-22T08:36:03.000Z</time>
      </trkpt>
      <trkpt lat="44.78423" lon="4.40475">
        <ele>1023.9</ele>
        <time>2020-05-22T08:36:06.000Z</time>
      </trkpt>
      <trkpt lat="44.78425" lon="4.4049">
        <ele>1024.3</ele>
        <time>2020-05-22T08:36:09.000Z</time>
      </trkpt>
      <trkpt lat="44.78427" lon="4.40505">
        <ele>1024.7</ele>
        <time>2020-05-22T08:36:12.000Z</time>
      </trkpt>
      <trkpt lat="44.78429" lon="4.4052">
        <ele>1025.2</ele>
        <time>2020-05-22T08:36:15.000Z</time>
      </trkpt>
      <trkpt lat="44.78431" lon="4.40536">
        <ele>1025.6</ele>
        <time>2020-05-22T08:36:18.000Z</time>
      </trkpt>
      <trkpt lat="44.78433" lon="4.40553">
        <ele>1025.9</ele>
        <time>2020-05-22T08:36:21.000Z</time>
      </trkpt>
      <trkpt lat="44.78437" lon="4.40571">
        <ele>1026.3</ele>
        <time>2020-05-22T08:36:24.000Z</time>
      </trkpt>
      <trkpt lat="44.78441" lon="4.40587">
        <ele>1026.7</ele>
        <time>2020-05-22T08:36:27.000Z</time>
      </trkpt>
      <trkpt lat="44.78446" lon="4.40602">
        <ele>1027.1</ele>
        <time>2020-05-22T08:36:30.000Z</time>
      </trkpt>
      <trkpt lat="44.78452" lon="4.40616">
        <ele>1027.4</ele>
        <time>2020-05-22T08:36:33.000Z</time>
      </trkpt>
      <trkpt lat="44.78458" lon="4.40629">
        <ele>1027.7</ele>
        <time>2020-05-22T08:36:36.000Z</time>
      </trkpt>
      <trkpt lat="44.78465" lon="4.40642">
        <ele>1028</ele>
        <time>2020-05-22T08:36:39.000Z</time>
      </trkpt>
      <trkpt lat="44.78471" lon="4.40654">
        <ele>1028.5</ele>
        <time>2020-05-22T08:36:42.000Z</time>
      </trkpt>
      <trkpt lat="44.78476" lon="4.40666">
        <ele>1028.9</ele>
        <time>2020-05-22T08:36:45.000Z</time>
      </trkpt>
      <trkpt lat="44.78482" lon="4.40678">
        <ele>1029.4</ele>
        <time>2020-05-22T08:36:48.000Z</time>
      </trkpt>
      <trkpt lat="44.78487" lon="4.4069">
        <ele>1030</ele>
        <time>2020-05-22T08:36:51.000Z</time>
      </trkpt>
      <trkpt lat="44.78491" lon="4.40702">
        <ele>1030.6</ele>
        <time>2020-05-22T08:36:54.000Z</time>
      </trkpt>
      <trkpt lat="44.78495" lon="4.40715">
        <ele>1031.2</ele>
        <time>2020-05-22T08:36:57.000Z</time>
      </trkpt>
      <trkpt lat="44.78498" lon="4.40728">
        <ele>1031.7</ele>
        <time>2020-05-22T08:37:00.000Z</time>
      </trkpt>
      <trkpt lat="44.78502" lon="4.40742">
        <ele>1032.2</ele>
        <time>2020-05-22T08:37:03.000Z</time>
      </trkpt>
      <trkpt lat="44.78505" lon="4.40755">
        <ele>1032.7</ele>
        <time>2020-05-22T08:37:06.000Z</time>
      </trkpt>
      <trkpt lat="44.78508" lon="4.40767">
        <ele>1033.1</ele>
        <time>2020-05-22T08:37:09.000Z</time>
      </trkpt>
      <trkpt lat="44.78511" lon="4.40781">
        <ele>1033.5</ele>
        <time>2020-05-22T08:37:12.000Z</time>
      </trkpt>
      <trkpt lat="44.78514" lon="4.40794">
        <ele>1034.1</ele>
        <time>2020-05-22T08:37:15.000Z</time>
      </trkpt>
      <trkpt lat="44.78517" lon="4.40809">
        <ele>1034.4</ele>
        <time>2020-05-22T08:37:18.000Z</time>
      </trkpt>
      <trkpt lat="44.78519" lon="4.40823">
        <ele>1034.7</ele>
        <time>2020-05-22T08:37:21.000Z</time>
      </trkpt>
      <trkpt lat="44.78522" lon="4.40839">
        <ele>1035.1</ele>
        <time>2020-05-22T08:37:24.000Z</time>
      </trkpt>
      <trkpt lat="44.78524" lon="4.40856">
        <ele>1035.6</ele>
        <time>2020-05-22T08:37:27.000Z</time>
      </trkpt>
      <trkpt lat="44.78526" lon="4.40871">
        <ele>1036.1</ele>
        <time>2020-05-22T08:37:30.000Z</time>
      </trkpt>
      <trkpt lat="44.78529" lon="4.40885">
        <ele>1036.6</ele>
        <time>2020-05-22T08:37:33.000Z</time>
      </trkpt>
      <trkpt lat="44.78531" lon="4.40899">
        <ele>1037.2</ele>
        <time>2020-05-22T08:37:36.000Z</time>
      </trkpt>
      <trkpt lat="44.78533" lon="4.40913">
        <ele>1037.9</ele>
        <time>2020-05-22T08:37:39.000Z</time>
      </trkpt>
      <trkpt lat="44.78536" lon="4.40927">
        <ele>1038.4</ele>
        <time>2020-05-22T08:37:42.000Z</time>
      </trkpt>
      <trkpt lat="44.78538" lon="4.40941">
        <ele>1038.8</ele>
        <time>2020-05-22T08:37:45.000Z</time>
      </trkpt>
      <trkpt lat="44.78541" lon="4.40955">
        <ele>1039</ele>
        <time>2020-05-22T08:37:48.000Z</time>
      </trkpt>
      <trkpt lat="44.78545" lon="4.40968">
        <ele>1039.3</ele>
        <time>2020-05-22T08:37:51.000Z</time>
      </trkpt>
      <trkpt lat="44.78551" lon="4.40978">
        <ele>1039.6</ele>
        <time>2020-05-22T08:37:54.000Z</time>
      </trkpt>
      <trkpt lat="44.78559" lon="4.40986">
        <ele>1039.8</ele>
        <time>2020-05-22T08:37:57.000Z</time>
      </trkpt>
      <trkpt lat="44.78568" lon="4.40987">
        <ele>1040.2</ele>
        <time>2020-05-22T08:38:00.000Z</time>
      </trkpt>
      <trkpt lat="44.78577" lon="4.40983">
        <ele>1040.5</ele>
        <time>2020-05-22T08:38:03.000Z</time>
      </trkpt>
      <trkpt lat="44.78586" lon="4.40976">
        <ele>1040.8</ele>
        <time>2020-05-22T08:38:06.000Z</time>
      </trkpt>
      <trkpt lat="44.78593" lon="4.40965">
        <ele>1041.3</ele>
        <time>2020-05-22T08:38:09.000Z</time>
      </trkpt>
      <trkpt lat="44.78599" lon="4.40955">
        <ele>1041.8</ele>
        <time>2020-05-22T08:38:12.000Z</time>
      </trkpt>
      <trkpt lat="44.78606" lon="4.40945">
        <ele>1042.3</ele>
        <time>2020-05-22T08:38:15.000Z</time>
      </trkpt>
      <trkpt lat="44.78613" lon="4.40934">
        <ele>1043.1</ele>
        <time>2020-05-22T08:38:18.000Z</time>
      </trkpt>
      <trkpt lat="44.7862" lon="4.40924">
        <ele>1043.8</ele>
        <time>2020-05-22T08:38:21.000Z</time>
      </trkpt>
      <trkpt lat="44.78627" lon="4.40913">
        <ele>1044.4</ele>
        <time>2020-05-22T08:38:24.000Z</time>
      </trkpt>
      <trkpt lat="44.78634" lon="4.40903">
        <ele>1045.1</ele>
        <time>2020-05-22T08:38:27.000Z</time>
      </trkpt>
      <trkpt lat="44.7864" lon="4.40892">
        <ele>1045.7</ele>
        <time>2020-05-22T08:38:30.000Z</time>
      </trkpt>
      <trkpt lat="44.78645" lon="4.4088">
        <ele>1046.4</ele>
        <time>2020-05-22T08:38:33.000Z</time>
      </trkpt>
      <trkpt lat="44.78648" lon="4.40865">
        <ele>1047</ele>
        <time>2020-05-22T08:38:36.000Z</time>
      </trkpt>
      <trkpt lat="44.7865" lon="4.4085">
        <ele>1047.5</ele>
        <time>2020-05-22T08:38:39.000Z</time>
      </trkpt>
      <trkpt lat="44.78653" lon="4.40835">
        <ele>1047.9</ele>
        <time>2020-05-22T08:38:42.000Z</time>
      </trkpt>
      <trkpt lat="44.78656" lon="4.40819">
        <ele>1048.4</ele>
        <time>2020-05-22T08:38:45.000Z</time>
      </trkpt>
      <trkpt lat="44.78657" lon="4.40803">
        <ele>1049.1</ele>
        <time>2020-05-22T08:38:48.000Z</time>
      </trkpt>
      <trkpt lat="44.7866" lon="4.40787">
        <ele>1049.6</ele>
        <time>2020-05-22T08:38:51.000Z</time>
      </trkpt>
      <trkpt lat="44.78663" lon="4.40769">
        <ele>1050.1</ele>
        <time>2020-05-22T08:38:54.000Z</time>
      </trkpt>
      <trkpt lat="44.78666" lon="4.40752">
        <ele>1050.7</ele>
        <time>2020-05-22T08:38:57.000Z</time>
      </trkpt>
      <trkpt lat="44.78669" lon="4.40736">
        <ele>1051.1</ele>
        <time>2020-05-22T08:39:00.000Z</time>
      </trkpt>
      <trkpt lat="44.78671" lon="4.4072">
        <ele>1051.6</ele>
        <time>2020-05-22T08:39:03.000Z</time>
      </trkpt>
      <trkpt lat="44.78673" lon="4.40701">
        <ele>1052.3</ele>
        <time>2020-05-22T08:39:06.000Z</time>
      </trkpt>
      <trkpt lat="44.78674" lon="4.40689">
        <ele>1052.7</ele>
        <time>2020-05-22T08:39:08.000Z</time>
      </trkpt>
      <trkpt lat="44.78676" lon="4.40671">
        <ele>1053.2</ele>
        <time>2020-05-22T08:39:11.000Z</time>
      </trkpt>
      <trkpt lat="44.78677" lon="4.40654">
        <ele>1053.7</ele>
        <time>2020-05-22T08:39:14.000Z</time>
      </trkpt>
      <trkpt lat="44.78677" lon="4.40638">
        <ele>1054.2</ele>
        <time>2020-05-22T08:39:17.000Z</time>
      </trkpt>
      <trkpt lat="44.78679" lon="4.40622">
        <ele>1054.7</ele>
        <time>2020-05-22T08:39:20.000Z</time>
      </trkpt>
      <trkpt lat="44.7868" lon="4.40608">
        <ele>1055.2</ele>
        <time>2020-05-22T08:39:23.000Z</time>
      </trkpt>
      <trkpt lat="44.78682" lon="4.40595">
        <ele>1055.6</ele>
        <time>2020-05-22T08:39:26.000Z</time>
      </trkpt>
      <trkpt lat="44.78684" lon="4.40581">
        <ele>1055.9</ele>
        <time>2020-05-22T08:39:29.000Z</time>
      </trkpt>
      <trkpt lat="44.78687" lon="4.40567">
        <ele>1056.2</ele>
        <time>2020-05-22T08:39:32.000Z</time>
      </trkpt>
      <trkpt lat="44.7869" lon="4.40553">
        <ele>1056.6</ele>
        <time>2020-05-22T08:39:35.000Z</time>
      </trkpt>
      <trkpt lat="44.78689" lon="4.40539">
        <ele>1057.1</ele>
        <time>2020-05-22T08:39:38.000Z</time>
      </trkpt>
      <trkpt lat="44.78692" lon="4.40524">
        <ele>1057.6</ele>
        <time>2020-05-22T08:39:41.000Z</time>
      </trkpt>
      <trkpt lat="44.78695" lon="4.40509">
        <ele>1058</ele>
        <time>2020-05-22T08:39:44.000Z</time>
      </trkpt>
      <trkpt lat="44.78697" lon="4.40493">
        <ele>1058.3</ele>
        <time>2020-05-22T08:39:47.000Z</time>
      </trkpt>
      <trkpt lat="44.78697" lon="4.40478">
        <ele>1058.9</ele>
        <time>2020-05-22T08:39:50.000Z</time>
      </trkpt>
      <trkpt lat="44.78697" lon="4.40463">
        <ele>1059.4</ele>
        <time>2020-05-22T08:39:53.000Z</time>
      </trkpt>
      <trkpt lat="44.78698" lon="4.40449">
        <ele>1059.9</ele>
        <time>2020-05-22T08:39:56.000Z</time>
      </trkpt>
      <trkpt lat="44.787" lon="4.40435">
        <ele>1060.5</ele>
        <time>2020-05-22T08:39:59.000Z</time>
      </trkpt>
      <trkpt lat="44.787" lon="4.40423">
        <ele>1061</ele>
        <time>2020-05-22T08:40:02.000Z</time>
      </trkpt>
      <trkpt lat="44.78701" lon="4.40408">
        <ele>1061.4</ele>
        <time>2020-05-22T08:40:05.000Z</time>
      </trkpt>
      <trkpt lat="44.787" lon="4.40393">
        <ele>1061.8</ele>
        <time>2020-05-22T08:40:08.000Z</time>
      </trkpt>
      <trkpt lat="44.78701" lon="4.40378">
        <ele>1062.1</ele>
        <time>2020-05-22T08:40:11.000Z</time>
      </trkpt>
      <trkpt lat="44.78701" lon="4.40364">
        <ele>1062.5</ele>
        <time>2020-05-22T08:40:14.000Z</time>
      </trkpt>
      <trkpt lat="44.78702" lon="4.40351">
        <ele>1062.9</ele>
        <time>2020-05-22T08:40:17.000Z</time>
      </trkpt>
      <trkpt lat="44.78698" lon="4.40336">
        <ele>1063.4</ele>
        <time>2020-05-22T08:40:21.000Z</time>
      </trkpt>
      <trkpt lat="44.787" lon="4.4032">
        <ele>1064</ele>
        <time>2020-05-22T08:40:25.000Z</time>
      </trkpt>
      <trkpt lat="44.787" lon="4.40303">
        <ele>1064.4</ele>
        <time>2020-05-22T08:40:29.000Z</time>
      </trkpt>
      <trkpt lat="44.78703" lon="4.40287">
        <ele>1064.7</ele>
        <time>2020-05-22T08:40:32.000Z</time>
      </trkpt>
      <trkpt lat="44.7871" lon="4.40272">
        <ele>1065</ele>
        <time>2020-05-22T08:40:35.000Z</time>
      </trkpt>
      <trkpt lat="44.78715" lon="4.40257">
        <ele>1065.4</ele>
        <time>2020-05-22T08:40:38.000Z</time>
      </trkpt>
      <trkpt lat="44.78718" lon="4.40243">
        <ele>1065.8</ele>
        <time>2020-05-22T08:40:41.000Z</time>
      </trkpt>
      <trkpt lat="44.78719" lon="4.40228">
        <ele>1066.3</ele>
        <time>2020-05-22T08:40:44.000Z</time>
      </trkpt>
      <trkpt lat="44.7872" lon="4.40213">
        <ele>1066.7</ele>
        <time>2020-05-22T08:40:47.000Z</time>
      </trkpt>
      <trkpt lat="44.78724" lon="4.40199">
        <ele>1067.2</ele>
        <time>2020-05-22T08:40:50.000Z</time>
      </trkpt>
      <trkpt lat="44.78729" lon="4.40186">
        <ele>1067.5</ele>
        <time>2020-05-22T08:40:53.000Z</time>
      </trkpt>
      <trkpt lat="44.78728" lon="4.4017">
        <ele>1068</ele>
        <time>2020-05-22T08:40:57.000Z</time>
      </trkpt>
      <trkpt lat="44.78728" lon="4.40152">
        <ele>1068.4</ele>
        <time>2020-05-22T08:41:00.000Z</time>
      </trkpt>
      <trkpt lat="44.78729" lon="4.40135">
        <ele>1069</ele>
        <time>2020-05-22T08:41:03.000Z</time>
      </trkpt>
      <trkpt lat="44.78728" lon="4.40121">
        <ele>1069.6</ele>
        <time>2020-05-22T08:41:06.000Z</time>
      </trkpt>
      <trkpt lat="44.7873" lon="4.40104">
        <ele>1070.2</ele>
        <time>2020-05-22T08:41:09.000Z</time>
      </trkpt>
      <trkpt lat="44.78732" lon="4.40088">
        <ele>1070.8</ele>
        <time>2020-05-22T08:41:12.000Z</time>
      </trkpt>
      <trkpt lat="44.78739" lon="4.40074">
        <ele>1071.2</ele>
        <time>2020-05-22T08:41:14.000Z</time>
      </trkpt>
      <trkpt lat="44.78743" lon="4.40057">
        <ele>1071.7</ele>
        <time>2020-05-22T08:41:17.000Z</time>
      </trkpt>
      <trkpt lat="44.78743" lon="4.40043">
        <ele>1072.3</ele>
        <time>2020-05-22T08:41:20.000Z</time>
      </trkpt>
      <trkpt lat="44.78746" lon="4.40029">
        <ele>1072.7</ele>
        <time>2020-05-22T08:41:23.000Z</time>
      </trkpt>
      <trkpt lat="44.78748" lon="4.40013">
        <ele>1073.2</ele>
        <time>2020-05-22T08:41:26.000Z</time>
      </trkpt>
      <trkpt lat="44.78747" lon="4.39999">
        <ele>1073.6</ele>
        <time>2020-05-22T08:41:29.000Z</time>
      </trkpt>
      <trkpt lat="44.7875" lon="4.39986">
        <ele>1074</ele>
        <time>2020-05-22T08:41:32.000Z</time>
      </trkpt>
      <trkpt lat="44.78752" lon="4.3997">
        <ele>1074.5</ele>
        <time>2020-05-22T08:41:35.000Z</time>
      </trkpt>
      <trkpt lat="44.78753" lon="4.39955">
        <ele>1075</ele>
        <time>2020-05-22T08:41:38.000Z</time>
      </trkpt>
      <trkpt lat="44.78754" lon="4.39941">
        <ele>1075.5</ele>
        <time>2020-05-22T08:41:41.000Z</time>
      </trkpt>
      <trkpt lat="44.78755" lon="4.39926">
        <ele>1075.8</ele>
        <time>2020-05-22T08:41:44.000Z</time>
      </trkpt>
      <trkpt lat="44.78757" lon="4.39911">
        <ele>1076.2</ele>
        <time>2020-05-22T08:41:47.000Z</time>
      </trkpt>
      <trkpt lat="44.78759" lon="4.39897">
        <ele>1076.7</ele>
        <time>2020-05-22T08:41:50.000Z</time>
      </trkpt>
      <trkpt lat="44.7876" lon="4.39882">
        <ele>1077.1</ele>
        <time>2020-05-22T08:41:53.000Z</time>
      </trkpt>
      <trkpt lat="44.7876" lon="4.39867">
        <ele>1077.4</ele>
        <time>2020-05-22T08:41:56.000Z</time>
      </trkpt>
      <trkpt lat="44.78761" lon="4.39852">
        <ele>1077.7</ele>
        <time>2020-05-22T08:41:59.000Z</time>
      </trkpt>
      <trkpt lat="44.78762" lon="4.39838">
        <ele>1078.1</ele>
        <time>2020-05-22T08:42:02.000Z</time>
      </trkpt>
      <trkpt lat="44.78765" lon="4.39824">
        <ele>1078.4</ele>
        <time>2020-05-22T08:42:05.000Z</time>
      </trkpt>
      <trkpt lat="44.78768" lon="4.39811">
        <ele>1078.8</ele>
        <time>2020-05-22T08:42:08.000Z</time>
      </trkpt>
      <trkpt lat="44.78772" lon="4.39798">
        <ele>1079.2</ele>
        <time>2020-05-22T08:42:11.000Z</time>
      </trkpt>
      <trkpt lat="44.78775" lon="4.39784">
        <ele>1079.6</ele>
        <time>2020-05-22T08:42:14.000Z</time>
      </trkpt>
      <trkpt lat="44.78777" lon="4.39769">
        <ele>1079.9</ele>
        <time>2020-05-22T08:42:17.000Z</time>
      </trkpt>
      <trkpt lat="44.78779" lon="4.39752">
        <ele>1080.1</ele>
        <time>2020-05-22T08:42:20.000Z</time>
      </trkpt>
      <trkpt lat="44.7878" lon="4.39737">
        <ele>1080.4</ele>
        <time>2020-05-22T08:42:23.000Z</time>
      </trkpt>
      <trkpt lat="44.78781" lon="4.39722">
        <ele>1080.6</ele>
        <time>2020-05-22T08:42:26.000Z</time>
      </trkpt>
      <trkpt lat="44.78784" lon="4.39708">
        <ele>1080.9</ele>
        <time>2020-05-22T08:42:29.000Z</time>
      </trkpt>
      <trkpt lat="44.78786" lon="4.39692">
        <ele>1081.2</ele>
        <time>2020-05-22T08:42:32.000Z</time>
      </trkpt>
      <trkpt lat="44.78786" lon="4.39678">
        <ele>1081.6</ele>
        <time>2020-05-22T08:42:35.000Z</time>
      </trkpt>
      <trkpt lat="44.78788" lon="4.39664">
        <ele>1082</ele>
        <time>2020-05-22T08:42:38.000Z</time>
      </trkpt>
      <trkpt lat="44.78788" lon="4.39648">
        <ele>1082.4</ele>
        <time>2020-05-22T08:42:41.000Z</time>
      </trkpt>
      <trkpt lat="44.78787" lon="4.3963">
        <ele>1082.8</ele>
        <time>2020-05-22T08:42:44.000Z</time>
      </trkpt>
      <trkpt lat="44.78786" lon="4.39617">
        <ele>1083</ele>
        <time>2020-05-22T08:42:46.000Z</time>
      </trkpt>
      <trkpt lat="44.78785" lon="4.39599">
        <ele>1083.4</ele>
        <time>2020-05-22T08:42:49.000Z</time>
      </trkpt>
      <trkpt lat="44.78787" lon="4.39586">
        <ele>1083.7</ele>
        <time>2020-05-22T08:42:51.000Z</time>
      </trkpt>
      <trkpt lat="44.7879" lon="4.39569">
        <ele>1084.2</ele>
        <time>2020-05-22T08:42:54.000Z</time>
      </trkpt>
      <trkpt lat="44.78793" lon="4.39553">
        <ele>1084.7</ele>
        <time>2020-05-22T08:42:57.000Z</time>
      </trkpt>
      <trkpt lat="44.78796" lon="4.39539">
        <ele>1085.2</ele>
        <time>2020-05-22T08:43:00.000Z</time>
      </trkpt>
      <trkpt lat="44.788" lon="4.39523">
        <ele>1085.8</ele>
        <time>2020-05-22T08:43:03.000Z</time>
      </trkpt>
      <trkpt lat="44.78806" lon="4.39508">
        <ele>1086.4</ele>
        <time>2020-05-22T08:43:06.000Z</time>
      </trkpt>
      <trkpt lat="44.78812" lon="4.39494">
        <ele>1086.9</ele>
        <time>2020-05-22T08:43:09.000Z</time>
      </trkpt>
      <trkpt lat="44.78818" lon="4.39479">
        <ele>1087.3</ele>
        <time>2020-05-22T08:43:12.000Z</time>
      </trkpt>
      <trkpt lat="44.78826" lon="4.39465">
        <ele>1087.9</ele>
        <time>2020-05-22T08:43:15.000Z</time>
      </trkpt>
      <trkpt lat="44.78832" lon="4.39451">
        <ele>1088.5</ele>
        <time>2020-05-22T08:43:18.000Z</time>
      </trkpt>
      <trkpt lat="44.78837" lon="4.39435">
        <ele>1088.9</ele>
        <time>2020-05-22T08:43:21.000Z</time>
      </trkpt>
      <trkpt lat="44.78843" lon="4.39419">
        <ele>1089.4</ele>
        <time>2020-05-22T08:43:24.000Z</time>
      </trkpt>
      <trkpt lat="44.78848" lon="4.39403">
        <ele>1090</ele>
        <time>2020-05-22T08:43:27.000Z</time>
      </trkpt>
      <trkpt lat="44.78853" lon="4.39389">
        <ele>1090.6</ele>
        <time>2020-05-22T08:43:30.000Z</time>
      </trkpt>
      <trkpt lat="44.78858" lon="4.39376">
        <ele>1091</ele>
        <time>2020-05-22T08:43:33.000Z</time>
      </trkpt>
      <trkpt lat="44.78859" lon="4.39364">
        <ele>1091.4</ele>
        <time>2020-05-22T08:43:36.000Z</time>
      </trkpt>
      <trkpt lat="44.78862" lon="4.39348">
        <ele>1092</ele>
        <time>2020-05-22T08:43:40.000Z</time>
      </trkpt>
      <trkpt lat="44.78866" lon="4.39335">
        <ele>1092.5</ele>
        <time>2020-05-22T08:43:49.000Z</time>
      </trkpt>
      <trkpt lat="44.78874" lon="4.3933">
        <ele>1092.3</ele>
        <time>2020-05-22T08:43:54.000Z</time>
      </trkpt>
      <trkpt lat="44.78878" lon="4.39327">
        <ele>1091.2</ele>
        <time>2020-05-22T08:44:02.000Z</time>
      </trkpt>
      <trkpt lat="44.78878" lon="4.39332">
        <ele>1090.4</ele>
        <time>2020-05-22T09:05:28.000Z</time>
      </trkpt>
      <trkpt lat="44.78869" lon="4.3933">
        <ele>1089.6</ele>
        <time>2020-05-22T09:05:35.000Z</time>
      </trkpt>
      <trkpt lat="44.78861" lon="4.39321">
        <ele>1089</ele>
        <time>2020-05-22T09:05:40.000Z</time>
      </trkpt>
      <trkpt lat="44.78855" lon="4.39308">
        <ele>1089</ele>
        <time>2020-05-22T09:05:44.000Z</time>
      </trkpt>
      <trkpt lat="44.78849" lon="4.39297">
        <ele>1089.2</ele>
        <time>2020-05-22T09:05:47.000Z</time>
      </trkpt>
      <trkpt lat="44.78841" lon="4.39285">
        <ele>1089.5</ele>
        <time>2020-05-22T09:05:50.000Z</time>
      </trkpt>
      <trkpt lat="44.78835" lon="4.39274">
        <ele>1089.7</ele>
        <time>2020-05-22T09:05:53.000Z</time>
      </trkpt>
      <trkpt lat="44.78827" lon="4.39262">
        <ele>1090</ele>
        <time>2020-05-22T09:05:56.000Z</time>
      </trkpt>
      <trkpt lat="44.78819" lon="4.39253">
        <ele>1090.4</ele>
        <time>2020-05-22T09:05:59.000Z</time>
      </trkpt>
      <trkpt lat="44.7881" lon="4.39244">
        <ele>1090.7</ele>
        <time>2020-05-22T09:06:02.000Z</time>
      </trkpt>
      <trkpt lat="44.78801" lon="4.39235">
        <ele>1090.9</ele>
        <time>2020-05-22T09:06:05.000Z</time>
      </trkpt>
      <trkpt lat="44.78791" lon="4.39226">
        <ele>1091</ele>
        <time>2020-05-22T09:06:08.000Z</time>
      </trkpt>
      <trkpt lat="44.7878" lon="4.39217">
        <ele>1091.1</ele>
        <time>2020-05-22T09:06:11.000Z</time>
      </trkpt>
      <trkpt lat="44.78769" lon="4.39207">
        <ele>1091.2</ele>
        <time>2020-05-22T09:06:14.000Z</time>
      </trkpt>
      <trkpt lat="44.78759" lon="4.39198">
        <ele>1091.2</ele>
        <time>2020-05-22T09:06:17.000Z</time>
      </trkpt>
      <trkpt lat="44.78751" lon="4.39191">
        <ele>1091.2</ele>
        <time>2020-05-22T09:06:19.000Z</time>
      </trkpt>
      <trkpt lat="44.78743" lon="4.39184">
        <ele>1091.3</ele>
        <time>2020-05-22T09:06:21.000Z</time>
      </trkpt>
      <trkpt lat="44.78735" lon="4.39177">
        <ele>1091.3</ele>
        <time>2020-05-22T09:06:23.000Z</time>
      </trkpt>
      <trkpt lat="44.78725" lon="4.39169">
        <ele>1091.4</ele>
        <time>2020-05-22T09:06:26.000Z</time>
      </trkpt>
      <trkpt lat="44.78715" lon="4.3916">
        <ele>1091.6</ele>
        <time>2020-05-22T09:06:29.000Z</time>
      </trkpt>
      <trkpt lat="44.78705" lon="4.39148">
        <ele>1092</ele>
        <time>2020-05-22T09:06:32.000Z</time>
      </trkpt>
      <trkpt lat="44.78694" lon="4.39139">
        <ele>1092.4</ele>
        <time>2020-05-22T09:06:35.000Z</time>
      </trkpt>
      <trkpt lat="44.78683" lon="4.39128">
        <ele>1092.9</ele>
        <time>2020-05-22T09:06:38.000Z</time>
      </trkpt>
      <trkpt lat="44.78673" lon="4.39118">
        <ele>1093.3</ele>
        <time>2020-05-22T09:06:41.000Z</time>
      </trkpt>
      <trkpt lat="44.78668" lon="4.39107">
        <ele>1093.6</ele>
        <time>2020-05-22T09:06:43.000Z</time>
      </trkpt>
      <trkpt lat="44.78666" lon="4.39094">
        <ele>1093.9</ele>
        <time>2020-05-22T09:06:45.000Z</time>
      </trkpt>
      <trkpt lat="44.78669" lon="4.39081">
        <ele>1094.1</ele>
        <time>2020-05-22T09:06:47.000Z</time>
      </trkpt>
      <trkpt lat="44.78674" lon="4.39063">
        <ele>1094.4</ele>
        <time>2020-05-22T09:06:50.000Z</time>
      </trkpt>
      <trkpt lat="44.78676" lon="4.39051">
        <ele>1094.6</ele>
        <time>2020-05-22T09:06:52.000Z</time>
      </trkpt>
      <trkpt lat="44.78677" lon="4.39038">
        <ele>1094.9</ele>
        <time>2020-05-22T09:06:54.000Z</time>
      </trkpt>
      <trkpt lat="44.78677" lon="4.39024">
        <ele>1095.1</ele>
        <time>2020-05-22T09:06:56.000Z</time>
      </trkpt>
      <trkpt lat="44.78677" lon="4.39011">
        <ele>1095.3</ele>
        <time>2020-05-22T09:06:58.000Z</time>
      </trkpt>
      <trkpt lat="44.78676" lon="4.38998">
        <ele>1095.6</ele>
        <time>2020-05-22T09:07:00.000Z</time>
      </trkpt>
      <trkpt lat="44.78674" lon="4.38985">
        <ele>1095.8</ele>
        <time>2020-05-22T09:07:02.000Z</time>
      </trkpt>
      <trkpt lat="44.78673" lon="4.38972">
        <ele>1096</ele>
        <time>2020-05-22T09:07:04.000Z</time>
      </trkpt>
      <trkpt lat="44.7867" lon="4.38959">
        <ele>1096.3</ele>
        <time>2020-05-22T09:07:06.000Z</time>
      </trkpt>
      <trkpt lat="44.78668" lon="4.38947">
        <ele>1096.5</ele>
        <time>2020-05-22T09:07:08.000Z</time>
      </trkpt>
      <trkpt lat="44.78666" lon="4.38928">
        <ele>1096.7</ele>
        <time>2020-05-22T09:07:11.000Z</time>
      </trkpt>
      <trkpt lat="44.78662" lon="4.38911">
        <ele>1097</ele>
        <time>2020-05-22T09:07:14.000Z</time>
      </trkpt>
      <trkpt lat="44.78658" lon="4.38894">
        <ele>1097.2</ele>
        <time>2020-05-22T09:07:17.000Z</time>
      </trkpt>
      <trkpt lat="44.78652" lon="4.38876">
        <ele>1097.4</ele>
        <time>2020-05-22T09:07:20.000Z</time>
      </trkpt>
      <trkpt lat="44.78648" lon="4.38865">
        <ele>1097.4</ele>
        <time>2020-05-22T09:07:22.000Z</time>
      </trkpt>
      <trkpt lat="44.78642" lon="4.38848">
        <ele>1097.3</ele>
        <time>2020-05-22T09:07:25.000Z</time>
      </trkpt>
      <trkpt lat="44.78635" lon="4.38833">
        <ele>1097.2</ele>
        <time>2020-05-22T09:07:28.000Z</time>
      </trkpt>
      <trkpt lat="44.78628" lon="4.38817">
        <ele>1097.1</ele>
        <time>2020-05-22T09:07:31.000Z</time>
      </trkpt>
      <trkpt lat="44.78624" lon="4.38806">
        <ele>1097</ele>
        <time>2020-05-22T09:07:33.000Z</time>
      </trkpt>
      <trkpt lat="44.78618" lon="4.38795">
        <ele>1097</ele>
        <time>2020-05-22T09:07:35.000Z</time>
      </trkpt>
      <trkpt lat="44.78614" lon="4.38782">
        <ele>1096.9</ele>
        <time>2020-05-22T09:07:37.000Z</time>
      </trkpt>
      <trkpt lat="44.78611" lon="4.38769">
        <ele>1096.9</ele>
        <time>2020-05-22T09:07:39.000Z</time>
      </trkpt>
      <trkpt lat="44.78608" lon="4.38756">
        <ele>1096.9</ele>
        <time>2020-05-22T09:07:41.000Z</time>
      </trkpt>
      <trkpt lat="44.78604" lon="4.38743">
        <ele>1096.8</ele>
        <time>2020-05-22T09:07:43.000Z</time>
      </trkpt>
      <trkpt lat="44.78598" lon="4.38731">
        <ele>1096.7</ele>
        <time>2020-05-22T09:07:45.000Z</time>
      </trkpt>
      <trkpt lat="44.78592" lon="4.3872">
        <ele>1096.7</ele>
        <time>2020-05-22T09:07:47.000Z</time>
      </trkpt>
      <trkpt lat="44.78585" lon="4.3871">
        <ele>1096.7</ele>
        <time>2020-05-22T09:07:49.000Z</time>
      </trkpt>
      <trkpt lat="44.78578" lon="4.387">
        <ele>1096.6</ele>
        <time>2020-05-22T09:07:51.000Z</time>
      </trkpt>
      <trkpt lat="44.78572" lon="4.3869">
        <ele>1096.6</ele>
        <time>2020-05-22T09:07:53.000Z</time>
      </trkpt>
      <trkpt lat="44.78565" lon="4.38681">
        <ele>1096.6</ele>
        <time>2020-05-22T09:07:55.000Z</time>
      </trkpt>
      <trkpt lat="44.78559" lon="4.38671">
        <ele>1096.6</ele>
        <time>2020-05-22T09:07:57.000Z</time>
      </trkpt>
      <trkpt lat="44.78553" lon="4.38662">
        <ele>1096.6</ele>
        <time>2020-05-22T09:07:59.000Z</time>
      </trkpt>
      <trkpt lat="44.78546" lon="4.38653">
        <ele>1096.5</ele>
        <time>2020-05-22T09:08:01.000Z</time>
      </trkpt>
      <trkpt lat="44.78539" lon="4.38643">
        <ele>1096.5</ele>
        <time>2020-05-22T09:08:03.000Z</time>
      </trkpt>
      <trkpt lat="44.78531" lon="4.38636">
        <ele>1096.4</ele>
        <time>2020-05-22T09:08:05.000Z</time>
      </trkpt>
      <trkpt lat="44.78524" lon="4.38629">
        <ele>1096.4</ele>
        <time>2020-05-22T09:08:07.000Z</time>
      </trkpt>
      <trkpt lat="44.78513" lon="4.38618">
        <ele>1096.3</ele>
        <time>2020-05-22T09:08:10.000Z</time>
      </trkpt>
      <trkpt lat="44.78508" lon="4.38606">
        <ele>1096.2</ele>
        <time>2020-05-22T09:08:12.000Z</time>
      </trkpt>
      <trkpt lat="44.78507" lon="4.38591">
        <ele>1096.2</ele>
        <time>2020-05-22T09:08:14.000Z</time>
      </trkpt>
      <trkpt lat="44.78509" lon="4.38577">
        <ele>1096.2</ele>
        <time>2020-05-22T09:08:16.000Z</time>
      </trkpt>
      <trkpt lat="44.78514" lon="4.38564">
        <ele>1096.3</ele>
        <time>2020-05-22T09:08:18.000Z</time>
      </trkpt>
      <trkpt lat="44.7852" lon="4.38554">
        <ele>1096.4</ele>
        <time>2020-05-22T09:08:20.000Z</time>
      </trkpt>
      <trkpt lat="44.78525" lon="4.38541">
        <ele>1096.6</ele>
        <time>2020-05-22T09:08:22.000Z</time>
      </trkpt>
      <trkpt lat="44.78527" lon="4.38528">
        <ele>1096.7</ele>
        <time>2020-05-22T09:08:24.000Z</time>
      </trkpt>
      <trkpt lat="44.78527" lon="4.38513">
        <ele>1096.8</ele>
        <time>2020-05-22T09:08:26.000Z</time>
      </trkpt>
      <trkpt lat="44.78525" lon="4.38498">
        <ele>1097</ele>
        <time>2020-05-22T09:08:28.000Z</time>
      </trkpt>
      <trkpt lat="44.78523" lon="4.38484">
        <ele>1097.2</ele>
        <time>2020-05-22T09:08:30.000Z</time>
      </trkpt>
      <trkpt lat="44.78521" lon="4.3847">
        <ele>1097.3</ele>
        <time>2020-05-22T09:08:32.000Z</time>
      </trkpt>
      <trkpt lat="44.7852" lon="4.38456">
        <ele>1097.6</ele>
        <time>2020-05-22T09:08:34.000Z</time>
      </trkpt>
      <trkpt lat="44.7852" lon="4.38442">
        <ele>1097.9</ele>
        <time>2020-05-22T09:08:36.000Z</time>
      </trkpt>
      <trkpt lat="44.7852" lon="4.38429">
        <ele>1098.1</ele>
        <time>2020-05-22T09:08:38.000Z</time>
      </trkpt>
      <trkpt lat="44.78521" lon="4.38414">
        <ele>1098.5</ele>
        <time>2020-05-22T09:08:40.000Z</time>
      </trkpt>
      <trkpt lat="44.78522" lon="4.38401">
        <ele>1098.8</ele>
        <time>2020-05-22T09:08:42.000Z</time>
      </trkpt>
      <trkpt lat="44.78522" lon="4.38387">
        <ele>1099</ele>
        <time>2020-05-22T09:08:44.000Z</time>
      </trkpt>
      <trkpt lat="44.78521" lon="4.38373">
        <ele>1099.2</ele>
        <time>2020-05-22T09:08:46.000Z</time>
      </trkpt>
      <trkpt lat="44.78519" lon="4.38359">
        <ele>1099.4</ele>
        <time>2020-05-22T09:08:48.000Z</time>
      </trkpt>
      <trkpt lat="44.78516" lon="4.38346">
        <ele>1099.6</ele>
        <time>2020-05-22T09:08:50.000Z</time>
      </trkpt>
      <trkpt lat="44.78513" lon="4.38333">
        <ele>1099.8</ele>
        <time>2020-05-22T09:08:52.000Z</time>
      </trkpt>
      <trkpt lat="44.78508" lon="4.38321">
        <ele>1099.9</ele>
        <time>2020-05-22T09:08:54.000Z</time>
      </trkpt>
      <trkpt lat="44.78502" lon="4.38309">
        <ele>1100</ele>
        <time>2020-05-22T09:08:56.000Z</time>
      </trkpt>
      <trkpt lat="44.78496" lon="4.38297">
        <ele>1100.1</ele>
        <time>2020-05-22T09:08:58.000Z</time>
      </trkpt>
      <trkpt lat="44.78488" lon="4.38287">
        <ele>1100.1</ele>
        <time>2020-05-22T09:09:00.000Z</time>
      </trkpt>
      <trkpt lat="44.78482" lon="4.38277">
        <ele>1100.2</ele>
        <time>2020-05-22T09:09:02.000Z</time>
      </trkpt>
      <trkpt lat="44.78476" lon="4.38263">
        <ele>1100.3</ele>
        <time>2020-05-22T09:09:04.000Z</time>
      </trkpt>
      <trkpt lat="44.78473" lon="4.38249">
        <ele>1100.4</ele>
        <time>2020-05-22T09:09:06.000Z</time>
      </trkpt>
      <trkpt lat="44.7847" lon="4.38235">
        <ele>1100.4</ele>
        <time>2020-05-22T09:09:08.000Z</time>
      </trkpt>
      <trkpt lat="44.78466" lon="4.38222">
        <ele>1100.5</ele>
        <time>2020-05-22T09:09:10.000Z</time>
      </trkpt>
      <trkpt lat="44.78462" lon="4.38209">
        <ele>1100.6</ele>
        <time>2020-05-22T09:09:12.000Z</time>
      </trkpt>
      <trkpt lat="44.78459" lon="4.38196">
        <ele>1100.7</ele>
        <time>2020-05-22T09:09:14.000Z</time>
      </trkpt>
      <trkpt lat="44.78455" lon="4.38183">
        <ele>1100.8</ele>
        <time>2020-05-22T09:09:16.000Z</time>
      </trkpt>
      <trkpt lat="44.78451" lon="4.3817">
        <ele>1100.9</ele>
        <time>2020-05-22T09:09:18.000Z</time>
      </trkpt>
      <trkpt lat="44.78447" lon="4.38158">
        <ele>1100.9</ele>
        <time>2020-05-22T09:09:20.000Z</time>
      </trkpt>
      <trkpt lat="44.78442" lon="4.38146">
        <ele>1101</ele>
        <time>2020-05-22T09:09:22.000Z</time>
      </trkpt>
      <trkpt lat="44.78438" lon="4.38133">
        <ele>1101.1</ele>
        <time>2020-05-22T09:09:24.000Z</time>
      </trkpt>
      <trkpt lat="44.78435" lon="4.38121">
        <ele>1101.2</ele>
        <time>2020-05-22T09:09:26.000Z</time>
      </trkpt>
      <trkpt lat="44.78433" lon="4.38108">
        <ele>1101.3</ele>
        <time>2020-05-22T09:09:28.000Z</time>
      </trkpt>
      <trkpt lat="44.78431" lon="4.38096">
        <ele>1101.4</ele>
        <time>2020-05-22T09:09:30.000Z</time>
      </trkpt>
      <trkpt lat="44.78429" lon="4.38083">
        <ele>1101.6</ele>
        <time>2020-05-22T09:09:32.000Z</time>
      </trkpt>
      <trkpt lat="44.78429" lon="4.38068">
        <ele>1101.7</ele>
        <time>2020-05-22T09:09:34.000Z</time>
      </trkpt>
      <trkpt lat="44.7843" lon="4.38054">
        <ele>1102</ele>
        <time>2020-05-22T09:09:36.000Z</time>
      </trkpt>
      <trkpt lat="44.78431" lon="4.38041">
        <ele>1102.2</ele>
        <time>2020-05-22T09:09:38.000Z</time>
      </trkpt>
      <trkpt lat="44.78432" lon="4.38027">
        <ele>1102.4</ele>
        <time>2020-05-22T09:09:40.000Z</time>
      </trkpt>
      <trkpt lat="44.78433" lon="4.38013">
        <ele>1102.7</ele>
        <time>2020-05-22T09:09:42.000Z</time>
      </trkpt>
      <trkpt lat="44.78435" lon="4.37998">
        <ele>1103.1</ele>
        <time>2020-05-22T09:09:44.000Z</time>
      </trkpt>
      <trkpt lat="44.78438" lon="4.37983">
        <ele>1103.4</ele>
        <time>2020-05-22T09:09:46.000Z</time>
      </trkpt>
      <trkpt lat="44.78444" lon="4.37971">
        <ele>1103.6</ele>
        <time>2020-05-22T09:09:48.000Z</time>
      </trkpt>
      <trkpt lat="44.78451" lon="4.37961">
        <ele>1103.8</ele>
        <time>2020-05-22T09:09:50.000Z</time>
      </trkpt>
      <trkpt lat="44.78457" lon="4.37949">
        <ele>1104</ele>
        <time>2020-05-22T09:09:52.000Z</time>
      </trkpt>
      <trkpt lat="44.78463" lon="4.37938">
        <ele>1104.2</ele>
        <time>2020-05-22T09:09:54.000Z</time>
      </trkpt>
      <trkpt lat="44.78466" lon="4.37924">
        <ele>1104.4</ele>
        <time>2020-05-22T09:09:56.000Z</time>
      </trkpt>
      <trkpt lat="44.78464" lon="4.37908">
        <ele>1104.6</ele>
        <time>2020-05-22T09:09:58.000Z</time>
      </trkpt>
      <trkpt lat="44.78459" lon="4.37894">
        <ele>1104.8</ele>
        <time>2020-05-22T09:10:00.000Z</time>
      </trkpt>
      <trkpt lat="44.78455" lon="4.3788">
        <ele>1104.9</ele>
        <time>2020-05-22T09:10:02.000Z</time>
      </trkpt>
      <trkpt lat="44.78452" lon="4.37865">
        <ele>1104.9</ele>
        <time>2020-05-22T09:10:04.000Z</time>
      </trkpt>
      <trkpt lat="44.78449" lon="4.3785">
        <ele>1105</ele>
        <time>2020-05-22T09:10:06.000Z</time>
      </trkpt>
      <trkpt lat="44.78447" lon="4.37835">
        <ele>1105</ele>
        <time>2020-05-22T09:10:08.000Z</time>
      </trkpt>
      <trkpt lat="44.78447" lon="4.3782">
        <ele>1105.1</ele>
        <time>2020-05-22T09:10:10.000Z</time>
      </trkpt>
      <trkpt lat="44.78451" lon="4.37806">
        <ele>1105.2</ele>
        <time>2020-05-22T09:10:12.000Z</time>
      </trkpt>
      <trkpt lat="44.78458" lon="4.37794">
        <ele>1105.3</ele>
        <time>2020-05-22T09:10:14.000Z</time>
      </trkpt>
      <trkpt lat="44.78466" lon="4.37785">
        <ele>1105.4</ele>
        <time>2020-05-22T09:10:16.000Z</time>
      </trkpt>
      <trkpt lat="44.78476" lon="4.37777">
        <ele>1105.5</ele>
        <time>2020-05-22T09:10:18.000Z</time>
      </trkpt>
      <trkpt lat="44.78484" lon="4.37768">
        <ele>1105.5</ele>
        <time>2020-05-22T09:10:20.000Z</time>
      </trkpt>
      <trkpt lat="44.78491" lon="4.37759">
        <ele>1105.6</ele>
        <time>2020-05-22T09:10:22.000Z</time>
      </trkpt>
      <trkpt lat="44.78499" lon="4.37748">
        <ele>1105.8</ele>
        <time>2020-05-22T09:10:24.000Z</time>
      </trkpt>
      <trkpt lat="44.78507" lon="4.37738">
        <ele>1105.9</ele>
        <time>2020-05-22T09:10:26.000Z</time>
      </trkpt>
      <trkpt lat="44.78515" lon="4.37727">
        <ele>1106</ele>
        <time>2020-05-22T09:10:28.000Z</time>
      </trkpt>
      <trkpt lat="44.78523" lon="4.37715">
        <ele>1106</ele>
        <time>2020-05-22T09:10:30.000Z</time>
      </trkpt>
      <trkpt lat="44.78528" lon="4.37702">
        <ele>1106.1</ele>
        <time>2020-05-22T09:10:32.000Z</time>
      </trkpt>
      <trkpt lat="44.78533" lon="4.37688">
        <ele>1106.1</ele>
        <time>2020-05-22T09:10:34.000Z</time>
      </trkpt>
      <trkpt lat="44.78536" lon="4.37674">
        <ele>1106.1</ele>
        <time>2020-05-22T09:10:36.000Z</time>
      </trkpt>
      <trkpt lat="44.78539" lon="4.3766">
        <ele>1106.1</ele>
        <time>2020-05-22T09:10:38.000Z</time>
      </trkpt>
      <trkpt lat="44.7854" lon="4.37645">
        <ele>1106.2</ele>
        <time>2020-05-22T09:10:40.000Z</time>
      </trkpt>
      <trkpt lat="44.7854" lon="4.37631">
        <ele>1106.3</ele>
        <time>2020-05-22T09:10:42.000Z</time>
      </trkpt>
      <trkpt lat="44.7854" lon="4.37616">
        <ele>1106.5</ele>
        <time>2020-05-22T09:10:44.000Z</time>
      </trkpt>
      <trkpt lat="44.78539" lon="4.37602">
        <ele>1106.6</ele>
        <time>2020-05-22T09:10:46.000Z</time>
      </trkpt>
      <trkpt lat="44.78537" lon="4.37587">
        <ele>1106.7</ele>
        <time>2020-05-22T09:10:48.000Z</time>
      </trkpt>
      <trkpt lat="44.78534" lon="4.37572">
        <ele>1106.9</ele>
        <time>2020-05-22T09:10:50.000Z</time>
      </trkpt>
      <trkpt lat="44.78531" lon="4.37557">
        <ele>1107</ele>
        <time>2020-05-22T09:10:52.000Z</time>
      </trkpt>
      <trkpt lat="44.78528" lon="4.37543">
        <ele>1107</ele>
        <time>2020-05-22T09:10:54.000Z</time>
      </trkpt>
      <trkpt lat="44.78526" lon="4.37528">
        <ele>1107.1</ele>
        <time>2020-05-22T09:10:56.000Z</time>
      </trkpt>
      <trkpt lat="44.78523" lon="4.37514">
        <ele>1107.1</ele>
        <time>2020-05-22T09:10:58.000Z</time>
      </trkpt>
      <trkpt lat="44.78519" lon="4.37501">
        <ele>1107.1</ele>
        <time>2020-05-22T09:11:00.000Z</time>
      </trkpt>
      <trkpt lat="44.78515" lon="4.37487">
        <ele>1107.2</ele>
        <time>2020-05-22T09:11:02.000Z</time>
      </trkpt>
      <trkpt lat="44.78511" lon="4.37475">
        <ele>1107.2</ele>
        <time>2020-05-22T09:11:04.000Z</time>
      </trkpt>
      <trkpt lat="44.78506" lon="4.37462">
        <ele>1107.2</ele>
        <time>2020-05-22T09:11:06.000Z</time>
      </trkpt>
      <trkpt lat="44.78501" lon="4.3745">
        <ele>1107.2</ele>
        <time>2020-05-22T09:11:08.000Z</time>
      </trkpt>
      <trkpt lat="44.78496" lon="4.37438">
        <ele>1107.2</ele>
        <time>2020-05-22T09:11:10.000Z</time>
      </trkpt>
      <trkpt lat="44.7849" lon="4.37427">
        <ele>1107.2</ele>
        <time>2020-05-22T09:11:12.000Z</time>
      </trkpt>
      <trkpt lat="44.78484" lon="4.37415">
        <ele>1107.2</ele>
        <time>2020-05-22T09:11:14.000Z</time>
      </trkpt>
      <trkpt lat="44.78478" lon="4.37404">
        <ele>1107.1</ele>
        <time>2020-05-22T09:11:16.000Z</time>
      </trkpt>
      <trkpt lat="44.78471" lon="4.37392">
        <ele>1107</ele>
        <time>2020-05-22T09:11:18.000Z</time>
      </trkpt>
      <trkpt lat="44.78464" lon="4.3738">
        <ele>1106.9</ele>
        <time>2020-05-22T09:11:20.000Z</time>
      </trkpt>
      <trkpt lat="44.78458" lon="4.37368">
        <ele>1106.8</ele>
        <time>2020-05-22T09:11:22.000Z</time>
      </trkpt>
      <trkpt lat="44.78451" lon="4.37357">
        <ele>1106.8</ele>
        <time>2020-05-22T09:11:24.000Z</time>
      </trkpt>
      <trkpt lat="44.78447" lon="4.37344">
        <ele>1106.7</ele>
        <time>2020-05-22T09:11:26.000Z</time>
      </trkpt>
      <trkpt lat="44.78444" lon="4.3733">
        <ele>1106.7</ele>
        <time>2020-05-22T09:11:28.000Z</time>
      </trkpt>
      <trkpt lat="44.78443" lon="4.37317">
        <ele>1106.6</ele>
        <time>2020-05-22T09:11:30.000Z</time>
      </trkpt>
      <trkpt lat="44.78444" lon="4.37304">
        <ele>1106.7</ele>
        <time>2020-05-22T09:11:32.000Z</time>
      </trkpt>
      <trkpt lat="44.78448" lon="4.37289">
        <ele>1106.9</ele>
        <time>2020-05-22T09:11:34.000Z</time>
      </trkpt>
      <trkpt lat="44.78454" lon="4.37275">
        <ele>1107.2</ele>
        <time>2020-05-22T09:11:36.000Z</time>
      </trkpt>
      <trkpt lat="44.78462" lon="4.37266">
        <ele>1107.5</ele>
        <time>2020-05-22T09:11:38.000Z</time>
      </trkpt>
      <trkpt lat="44.78472" lon="4.3726">
        <ele>1107.6</ele>
        <time>2020-05-22T09:11:40.000Z</time>
      </trkpt>
      <trkpt lat="44.78483" lon="4.37256">
        <ele>1107.9</ele>
        <time>2020-05-22T09:11:42.000Z</time>
      </trkpt>
      <trkpt lat="44.78495" lon="4.37254">
        <ele>1108.1</ele>
        <time>2020-05-22T09:11:44.000Z</time>
      </trkpt>
      <trkpt lat="44.78508" lon="4.37252">
        <ele>1108.3</ele>
        <time>2020-05-22T09:11:46.000Z</time>
      </trkpt>
      <trkpt lat="44.78519" lon="4.37247">
        <ele>1108.3</ele>
        <time>2020-05-22T09:11:48.000Z</time>
      </trkpt>
      <trkpt lat="44.7853" lon="4.37243">
        <ele>1108.3</ele>
        <time>2020-05-22T09:11:50.000Z</time>
      </trkpt>
      <trkpt lat="44.78542" lon="4.37241">
        <ele>1108.3</ele>
        <time>2020-05-22T09:11:52.000Z</time>
      </trkpt>
      <trkpt lat="44.78551" lon="4.37238">
        <ele>1108.2</ele>
        <time>2020-05-22T09:11:54.000Z</time>
      </trkpt>
      <trkpt lat="44.78562" lon="4.37232">
        <ele>1108.2</ele>
        <time>2020-05-22T09:11:56.000Z</time>
      </trkpt>
      <trkpt lat="44.78575" lon="4.37221">
        <ele>1108.2</ele>
        <time>2020-05-22T09:11:58.000Z</time>
      </trkpt>
      <trkpt lat="44.78588" lon="4.3721">
        <ele>1108.2</ele>
        <time>2020-05-22T09:12:00.000Z</time>
      </trkpt>
      <trkpt lat="44.78597" lon="4.37194">
        <ele>1108.1</ele>
        <time>2020-05-22T09:12:02.000Z</time>
      </trkpt>
      <trkpt lat="44.78604" lon="4.37177">
        <ele>1108.1</ele>
        <time>2020-05-22T09:12:04.000Z</time>
      </trkpt>
      <trkpt lat="44.78605" lon="4.37162">
        <ele>1108</ele>
        <time>2020-05-22T09:12:06.000Z</time>
      </trkpt>
      <trkpt lat="44.78608" lon="4.37145">
        <ele>1107.8</ele>
        <time>2020-05-22T09:12:08.000Z</time>
      </trkpt>
      <trkpt lat="44.78611" lon="4.37128">
        <ele>1107.7</ele>
        <time>2020-05-22T09:12:10.000Z</time>
      </trkpt>
      <trkpt lat="44.78618" lon="4.37109">
        <ele>1107.7</ele>
        <time>2020-05-22T09:12:12.000Z</time>
      </trkpt>
      <trkpt lat="44.78624" lon="4.37089">
        <ele>1107.7</ele>
        <time>2020-05-22T09:12:14.000Z</time>
      </trkpt>
      <trkpt lat="44.78628" lon="4.37072">
        <ele>1107.7</ele>
        <time>2020-05-22T09:12:16.000Z</time>
      </trkpt>
      <trkpt lat="44.78632" lon="4.37054">
        <ele>1107.7</ele>
        <time>2020-05-22T09:12:18.000Z</time>
      </trkpt>
      <trkpt lat="44.78636" lon="4.37037">
        <ele>1107.8</ele>
        <time>2020-05-22T09:12:20.000Z</time>
      </trkpt>
      <trkpt lat="44.78642" lon="4.37021">
        <ele>1108</ele>
        <time>2020-05-22T09:12:22.000Z</time>
      </trkpt>
      <trkpt lat="44.78649" lon="4.37009">
        <ele>1108</ele>
        <time>2020-05-22T09:12:24.000Z</time>
      </trkpt>
      <trkpt lat="44.78656" lon="4.36995">
        <ele>1108.1</ele>
        <time>2020-05-22T09:12:26.000Z</time>
      </trkpt>
      <trkpt lat="44.78664" lon="4.36982">
        <ele>1108.1</ele>
        <time>2020-05-22T09:12:28.000Z</time>
      </trkpt>
      <trkpt lat="44.7867" lon="4.36969">
        <ele>1108.1</ele>
        <time>2020-05-22T09:12:30.000Z</time>
      </trkpt>
      <trkpt lat="44.78677" lon="4.36955">
        <ele>1108.1</ele>
        <time>2020-05-22T09:12:32.000Z</time>
      </trkpt>
      <trkpt lat="44.78683" lon="4.3694">
        <ele>1108.1</ele>
        <time>2020-05-22T09:12:34.000Z</time>
      </trkpt>
      <trkpt lat="44.78689" lon="4.36924">
        <ele>1108.1</ele>
        <time>2020-05-22T09:12:36.000Z</time>
      </trkpt>
      <trkpt lat="44.78696" lon="4.36908">
        <ele>1108.1</ele>
        <time>2020-05-22T09:12:38.000Z</time>
      </trkpt>
      <trkpt lat="44.78704" lon="4.36894">
        <ele>1108.1</ele>
        <time>2020-05-22T09:12:40.000Z</time>
      </trkpt>
      <trkpt lat="44.78709" lon="4.36878">
        <ele>1108.1</ele>
        <time>2020-05-22T09:12:42.000Z</time>
      </trkpt>
      <trkpt lat="44.78711" lon="4.36862">
        <ele>1108.1</ele>
        <time>2020-05-22T09:12:44.000Z</time>
      </trkpt>
      <trkpt lat="44.78713" lon="4.36848">
        <ele>1108.1</ele>
        <time>2020-05-22T09:12:46.000Z</time>
      </trkpt>
      <trkpt lat="44.78717" lon="4.36833">
        <ele>1108.1</ele>
        <time>2020-05-22T09:12:48.000Z</time>
      </trkpt>
      <trkpt lat="44.78721" lon="4.36818">
        <ele>1108</ele>
        <time>2020-05-22T09:12:50.000Z</time>
      </trkpt>
      <trkpt lat="44.78725" lon="4.36802">
        <ele>1108</ele>
        <time>2020-05-22T09:12:52.000Z</time>
      </trkpt>
      <trkpt lat="44.7873" lon="4.36785">
        <ele>1108</ele>
        <time>2020-05-22T09:12:54.000Z</time>
      </trkpt>
      <trkpt lat="44.78739" lon="4.36771">
        <ele>1107.9</ele>
        <time>2020-05-22T09:12:56.000Z</time>
      </trkpt>
      <trkpt lat="44.78746" lon="4.36761">
        <ele>1107.9</ele>
        <time>2020-05-22T09:12:58.000Z</time>
      </trkpt>
      <trkpt lat="44.78755" lon="4.3675">
        <ele>1107.9</ele>
        <time>2020-05-22T09:13:00.000Z</time>
      </trkpt>
      <trkpt lat="44.78765" lon="4.36741">
        <ele>1107.9</ele>
        <time>2020-05-22T09:13:02.000Z</time>
      </trkpt>
      <trkpt lat="44.78775" lon="4.36738">
        <ele>1107.9</ele>
        <time>2020-05-22T09:13:04.000Z</time>
      </trkpt>
      <trkpt lat="44.78788" lon="4.36741">
        <ele>1107.9</ele>
        <time>2020-05-22T09:13:06.000Z</time>
      </trkpt>
      <trkpt lat="44.788" lon="4.36746">
        <ele>1108</ele>
        <time>2020-05-22T09:13:08.000Z</time>
      </trkpt>
      <trkpt lat="44.78813" lon="4.3675">
        <ele>1108.1</ele>
        <time>2020-05-22T09:13:10.000Z</time>
      </trkpt>
      <trkpt lat="44.78824" lon="4.36758">
        <ele>1108.2</ele>
        <time>2020-05-22T09:13:12.000Z</time>
      </trkpt>
      <trkpt lat="44.78836" lon="4.36766">
        <ele>1108.2</ele>
        <time>2020-05-22T09:13:14.000Z</time>
      </trkpt>
      <trkpt lat="44.78847" lon="4.36775">
        <ele>1108.3</ele>
        <time>2020-05-22T09:13:16.000Z</time>
      </trkpt>
      <trkpt lat="44.78857" lon="4.36785">
        <ele>1108.4</ele>
        <time>2020-05-22T09:13:18.000Z</time>
      </trkpt>
      <trkpt lat="44.78866" lon="4.36797">
        <ele>1108.6</ele>
        <time>2020-05-22T09:13:20.000Z</time>
      </trkpt>
      <trkpt lat="44.78875" lon="4.36809">
        <ele>1108.7</ele>
        <time>2020-05-22T09:13:22.000Z</time>
      </trkpt>
      <trkpt lat="44.78885" lon="4.36822">
        <ele>1108.8</ele>
        <time>2020-05-22T09:13:24.000Z</time>
      </trkpt>
      <trkpt lat="44.78896" lon="4.36832">
        <ele>1108.9</ele>
        <time>2020-05-22T09:13:26.000Z</time>
      </trkpt>
      <trkpt lat="44.78907" lon="4.36832">
        <ele>1108.9</ele>
        <time>2020-05-22T09:13:28.000Z</time>
      </trkpt>
      <trkpt lat="44.78918" lon="4.36823">
        <ele>1108.8</ele>
        <time>2020-05-22T09:13:30.000Z</time>
      </trkpt>
      <trkpt lat="44.78925" lon="4.36809">
        <ele>1108.6</ele>
        <time>2020-05-22T09:13:32.000Z</time>
      </trkpt>
      <trkpt lat="44.78931" lon="4.36791">
        <ele>1108.4</ele>
        <time>2020-05-22T09:13:34.000Z</time>
      </trkpt>
      <trkpt lat="44.78936" lon="4.36773">
        <ele>1108.2</ele>
        <time>2020-05-22T09:13:36.000Z</time>
      </trkpt>
      <trkpt lat="44.78939" lon="4.36753">
        <ele>1108</ele>
        <time>2020-05-22T09:13:38.000Z</time>
      </trkpt>
      <trkpt lat="44.78942" lon="4.36734">
        <ele>1107.8</ele>
        <time>2020-05-22T09:13:40.000Z</time>
      </trkpt>
      <trkpt lat="44.78946" lon="4.36715">
        <ele>1107.8</ele>
        <time>2020-05-22T09:13:42.000Z</time>
      </trkpt>
      <trkpt lat="44.78951" lon="4.36697">
        <ele>1107.8</ele>
        <time>2020-05-22T09:13:44.000Z</time>
      </trkpt>
      <trkpt lat="44.78957" lon="4.36678">
        <ele>1107.8</ele>
        <time>2020-05-22T09:13:46.000Z</time>
      </trkpt>
      <trkpt lat="44.78963" lon="4.36662">
        <ele>1107.8</ele>
        <time>2020-05-22T09:13:48.000Z</time>
      </trkpt>
      <trkpt lat="44.78969" lon="4.36647">
        <ele>1107.8</ele>
        <time>2020-05-22T09:13:50.000Z</time>
      </trkpt>
      <trkpt lat="44.78978" lon="4.36631">
        <ele>1107.8</ele>
        <time>2020-05-22T09:13:52.000Z</time>
      </trkpt>
      <trkpt lat="44.78987" lon="4.36618">
        <ele>1107.9</ele>
        <time>2020-05-22T09:13:54.000Z</time>
      </trkpt>
      <trkpt lat="44.79" lon="4.36607">
        <ele>1108</ele>
        <time>2020-05-22T09:13:56.000Z</time>
      </trkpt>
      <trkpt lat="44.79012" lon="4.36596">
        <ele>1108.1</ele>
        <time>2020-05-22T09:13:58.000Z</time>
      </trkpt>
      <trkpt lat="44.79023" lon="4.36586">
        <ele>1108.2</ele>
        <time>2020-05-22T09:14:00.000Z</time>
      </trkpt>
      <trkpt lat="44.79034" lon="4.36575">
        <ele>1108.3</ele>
        <time>2020-05-22T09:14:02.000Z</time>
      </trkpt>
      <trkpt lat="44.79044" lon="4.36563">
        <ele>1108.3</ele>
        <time>2020-05-22T09:14:04.000Z</time>
      </trkpt>
      <trkpt lat="44.79051" lon="4.36547">
        <ele>1108.3</ele>
        <time>2020-05-22T09:14:06.000Z</time>
      </trkpt>
      <trkpt lat="44.79056" lon="4.36529">
        <ele>1108.2</ele>
        <time>2020-05-22T09:14:08.000Z</time>
      </trkpt>
      <trkpt lat="44.79058" lon="4.36511">
        <ele>1108.2</ele>
        <time>2020-05-22T09:14:10.000Z</time>
      </trkpt>
      <trkpt lat="44.79059" lon="4.36492">
        <ele>1108.1</ele>
        <time>2020-05-22T09:14:12.000Z</time>
      </trkpt>
      <trkpt lat="44.7906" lon="4.36474">
        <ele>1108</ele>
        <time>2020-05-22T09:14:14.000Z</time>
      </trkpt>
      <trkpt lat="44.7906" lon="4.36455">
        <ele>1108</ele>
        <time>2020-05-22T09:14:16.000Z</time>
      </trkpt>
      <trkpt lat="44.79062" lon="4.36436">
        <ele>1107.9</ele>
        <time>2020-05-22T09:14:18.000Z</time>
      </trkpt>
      <trkpt lat="44.79065" lon="4.36418">
        <ele>1107.9</ele>
        <time>2020-05-22T09:14:20.000Z</time>
      </trkpt>
      <trkpt lat="44.79068" lon="4.36401">
        <ele>1107.9</ele>
        <time>2020-05-22T09:14:22.000Z</time>
      </trkpt>
      <trkpt lat="44.79073" lon="4.36385">
        <ele>1108</ele>
        <time>2020-05-22T09:14:24.000Z</time>
      </trkpt>
      <trkpt lat="44.79078" lon="4.36368">
        <ele>1107.9</ele>
        <time>2020-05-22T09:14:26.000Z</time>
      </trkpt>
      <trkpt lat="44.79083" lon="4.36352">
        <ele>1107.7</ele>
        <time>2020-05-22T09:14:28.000Z</time>
      </trkpt>
      <trkpt lat="44.79088" lon="4.36335">
        <ele>1107.6</ele>
        <time>2020-05-22T09:14:30.000Z</time>
      </trkpt>
      <trkpt lat="44.79095" lon="4.3632">
        <ele>1107.4</ele>
        <time>2020-05-22T09:14:32.000Z</time>
      </trkpt>
      <trkpt lat="44.79102" lon="4.36305">
        <ele>1107.2</ele>
        <time>2020-05-22T09:14:34.000Z</time>
      </trkpt>
      <trkpt lat="44.79111" lon="4.36296">
        <ele>1107</ele>
        <time>2020-05-22T09:14:36.000Z</time>
      </trkpt>
      <trkpt lat="44.79124" lon="4.36298">
        <ele>1106.9</ele>
        <time>2020-05-22T09:14:38.000Z</time>
      </trkpt>
      <trkpt lat="44.79136" lon="4.36304">
        <ele>1106.8</ele>
        <time>2020-05-22T09:14:40.000Z</time>
      </trkpt>
      <trkpt lat="44.79148" lon="4.36309">
        <ele>1106.7</ele>
        <time>2020-05-22T09:14:42.000Z</time>
      </trkpt>
      <trkpt lat="44.7916" lon="4.36312">
        <ele>1106.6</ele>
        <time>2020-05-22T09:14:44.000Z</time>
      </trkpt>
      <trkpt lat="44.79172" lon="4.36314">
        <ele>1106.5</ele>
        <time>2020-05-22T09:14:46.000Z</time>
      </trkpt>
      <trkpt lat="44.79184" lon="4.3631">
        <ele>1106.5</ele>
        <time>2020-05-22T09:14:48.000Z</time>
      </trkpt>
      <trkpt lat="44.79196" lon="4.36305">
        <ele>1106.4</ele>
        <time>2020-05-22T09:14:50.000Z</time>
      </trkpt>
      <trkpt lat="44.79207" lon="4.36298">
        <ele>1106.4</ele>
        <time>2020-05-22T09:14:52.000Z</time>
      </trkpt>
      <trkpt lat="44.79218" lon="4.3629">
        <ele>1106.4</ele>
        <time>2020-05-22T09:14:54.000Z</time>
      </trkpt>
      <trkpt lat="44.79229" lon="4.3628">
        <ele>1106.2</ele>
        <time>2020-05-22T09:14:56.000Z</time>
      </trkpt>
      <trkpt lat="44.79239" lon="4.36269">
        <ele>1106.1</ele>
        <time>2020-05-22T09:14:58.000Z</time>
      </trkpt>
      <trkpt lat="44.79248" lon="4.36258">
        <ele>1106.1</ele>
        <time>2020-05-22T09:15:00.000Z</time>
      </trkpt>
      <trkpt lat="44.79257" lon="4.36245">
        <ele>1106</ele>
        <time>2020-05-22T09:15:02.000Z</time>
      </trkpt>
      <trkpt lat="44.79265" lon="4.36231">
        <ele>1105.9</ele>
        <time>2020-05-22T09:15:04.000Z</time>
      </trkpt>
      <trkpt lat="44.79274" lon="4.36216">
        <ele>1105.8</ele>
        <time>2020-05-22T09:15:06.000Z</time>
      </trkpt>
      <trkpt lat="44.79282" lon="4.36201">
        <ele>1105.8</ele>
        <time>2020-05-22T09:15:08.000Z</time>
      </trkpt>
      <trkpt lat="44.7929" lon="4.36185">
        <ele>1105.8</ele>
        <time>2020-05-22T09:15:10.000Z</time>
      </trkpt>
      <trkpt lat="44.79297" lon="4.36168">
        <ele>1105.8</ele>
        <time>2020-05-22T09:15:12.000Z</time>
      </trkpt>
      <trkpt lat="44.79304" lon="4.36152">
        <ele>1105.8</ele>
        <time>2020-05-22T09:15:14.000Z</time>
      </trkpt>
      <trkpt lat="44.79311" lon="4.36136">
        <ele>1105.9</ele>
        <time>2020-05-22T09:15:16.000Z</time>
      </trkpt>
      <trkpt lat="44.79318" lon="4.3612">
        <ele>1106</ele>
        <time>2020-05-22T09:15:18.000Z</time>
      </trkpt>
      <trkpt lat="44.79325" lon="4.36104">
        <ele>1106.2</ele>
        <time>2020-05-22T09:15:20.000Z</time>
      </trkpt>
      <trkpt lat="44.79332" lon="4.36088">
        <ele>1106.3</ele>
        <time>2020-05-22T09:15:22.000Z</time>
      </trkpt>
      <trkpt lat="44.79339" lon="4.36071">
        <ele>1106.4</ele>
        <time>2020-05-22T09:15:24.000Z</time>
      </trkpt>
      <trkpt lat="44.79346" lon="4.36056">
        <ele>1106.5</ele>
        <time>2020-05-22T09:15:26.000Z</time>
      </trkpt>
      <trkpt lat="44.79352" lon="4.3604">
        <ele>1106.6</ele>
        <time>2020-05-22T09:15:28.000Z</time>
      </trkpt>
      <trkpt lat="44.79359" lon="4.36025">
        <ele>1106.6</ele>
        <time>2020-05-22T09:15:30.000Z</time>
      </trkpt>
      <trkpt lat="44.79366" lon="4.3601">
        <ele>1106.7</ele>
        <time>2020-05-22T09:15:32.000Z</time>
      </trkpt>
      <trkpt lat="44.79372" lon="4.35996">
        <ele>1106.8</ele>
        <time>2020-05-22T09:15:34.000Z</time>
      </trkpt>
      <trkpt lat="44.79379" lon="4.35982">
        <ele>1106.9</ele>
        <time>2020-05-22T09:15:36.000Z</time>
      </trkpt>
      <trkpt lat="44.79385" lon="4.35968">
        <ele>1107</ele>
        <time>2020-05-22T09:15:38.000Z</time>
      </trkpt>
      <trkpt lat="44.79392" lon="4.35953">
        <ele>1107.1</ele>
        <time>2020-05-22T09:15:40.000Z</time>
      </trkpt>
      <trkpt lat="44.79398" lon="4.35938">
        <ele>1107.2</ele>
        <time>2020-05-22T09:15:42.000Z</time>
      </trkpt>
      <trkpt lat="44.79405" lon="4.35924">
        <ele>1107.4</ele>
        <time>2020-05-22T09:15:44.000Z</time>
      </trkpt>
      <trkpt lat="44.79414" lon="4.35911">
        <ele>1107.5</ele>
        <time>2020-05-22T09:15:46.000Z</time>
      </trkpt>
      <trkpt lat="44.79423" lon="4.35901">
        <ele>1107.6</ele>
        <time>2020-05-22T09:15:48.000Z</time>
      </trkpt>
      <trkpt lat="44.79434" lon="4.35893">
        <ele>1107.6</ele>
        <time>2020-05-22T09:15:50.000Z</time>
      </trkpt>
      <trkpt lat="44.79446" lon="4.35886">
        <ele>1107.6</ele>
        <time>2020-05-22T09:15:52.000Z</time>
      </trkpt>
      <trkpt lat="44.79459" lon="4.3588">
        <ele>1107.4</ele>
        <time>2020-05-22T09:15:54.000Z</time>
      </trkpt>
      <trkpt lat="44.79471" lon="4.35873">
        <ele>1107.2</ele>
        <time>2020-05-22T09:15:56.000Z</time>
      </trkpt>
      <trkpt lat="44.79483" lon="4.35867">
        <ele>1107</ele>
        <time>2020-05-22T09:15:58.000Z</time>
      </trkpt>
      <trkpt lat="44.79494" lon="4.35861">
        <ele>1106.8</ele>
        <time>2020-05-22T09:16:00.000Z</time>
      </trkpt>
      <trkpt lat="44.79506" lon="4.35854">
        <ele>1106.6</ele>
        <time>2020-05-22T09:16:02.000Z</time>
      </trkpt>
      <trkpt lat="44.79517" lon="4.35846">
        <ele>1106.3</ele>
        <time>2020-05-22T09:16:04.000Z</time>
      </trkpt>
      <trkpt lat="44.79527" lon="4.35836">
        <ele>1106.2</ele>
        <time>2020-05-22T09:16:06.000Z</time>
      </trkpt>
      <trkpt lat="44.79537" lon="4.35826">
        <ele>1106</ele>
        <time>2020-05-22T09:16:08.000Z</time>
      </trkpt>
      <trkpt lat="44.79545" lon="4.35815">
        <ele>1105.8</ele>
        <time>2020-05-22T09:16:10.000Z</time>
      </trkpt>
      <trkpt lat="44.79553" lon="4.35805">
        <ele>1105.6</ele>
        <time>2020-05-22T09:16:12.000Z</time>
      </trkpt>
      <trkpt lat="44.79561" lon="4.35792">
        <ele>1105.5</ele>
        <time>2020-05-22T09:16:14.000Z</time>
      </trkpt>
      <trkpt lat="44.79568" lon="4.35779">
        <ele>1105.4</ele>
        <time>2020-05-22T09:16:16.000Z</time>
      </trkpt>
      <trkpt lat="44.79577" lon="4.35767">
        <ele>1105.3</ele>
        <time>2020-05-22T09:16:18.000Z</time>
      </trkpt>
      <trkpt lat="44.79587" lon="4.35757">
        <ele>1105.2</ele>
        <time>2020-05-22T09:16:20.000Z</time>
      </trkpt>
      <trkpt lat="44.796" lon="4.3575">
        <ele>1105.1</ele>
        <time>2020-05-22T09:16:22.000Z</time>
      </trkpt>
      <trkpt lat="44.79613" lon="4.35744">
        <ele>1105</ele>
        <time>2020-05-22T09:16:24.000Z</time>
      </trkpt>
      <trkpt lat="44.79627" lon="4.3574">
        <ele>1104.9</ele>
        <time>2020-05-22T09:16:26.000Z</time>
      </trkpt>
      <trkpt lat="44.7964" lon="4.35735">
        <ele>1104.7</ele>
        <time>2020-05-22T09:16:28.000Z</time>
      </trkpt>
      <trkpt lat="44.79653" lon="4.35732">
        <ele>1104.6</ele>
        <time>2020-05-22T09:16:30.000Z</time>
      </trkpt>
      <trkpt lat="44.79667" lon="4.35728">
        <ele>1104.4</ele>
        <time>2020-05-22T09:16:32.000Z</time>
      </trkpt>
      <trkpt lat="44.7968" lon="4.35724">
        <ele>1104.1</ele>
        <time>2020-05-22T09:16:34.000Z</time>
      </trkpt>
      <trkpt lat="44.79693" lon="4.35721">
        <ele>1103.8</ele>
        <time>2020-05-22T09:16:36.000Z</time>
      </trkpt>
      <trkpt lat="44.79706" lon="4.35718">
        <ele>1103.4</ele>
        <time>2020-05-22T09:16:38.000Z</time>
      </trkpt>
      <trkpt lat="44.7972" lon="4.35713">
        <ele>1103.1</ele>
        <time>2020-05-22T09:16:40.000Z</time>
      </trkpt>
      <trkpt lat="44.79734" lon="4.35707">
        <ele>1102.8</ele>
        <time>2020-05-22T09:16:42.000Z</time>
      </trkpt>
      <trkpt lat="44.79748" lon="4.357">
        <ele>1102.5</ele>
        <time>2020-05-22T09:16:44.000Z</time>
      </trkpt>
      <trkpt lat="44.79761" lon="4.35693">
        <ele>1102.3</ele>
        <time>2020-05-22T09:16:46.000Z</time>
      </trkpt>
      <trkpt lat="44.79774" lon="4.35684">
        <ele>1102</ele>
        <time>2020-05-22T09:16:48.000Z</time>
      </trkpt>
      <trkpt lat="44.79787" lon="4.35675">
        <ele>1101.8</ele>
        <time>2020-05-22T09:16:50.000Z</time>
      </trkpt>
      <trkpt lat="44.798" lon="4.35666">
        <ele>1101.6</ele>
        <time>2020-05-22T09:16:52.000Z</time>
      </trkpt>
      <trkpt lat="44.79812" lon="4.35657">
        <ele>1101.3</ele>
        <time>2020-05-22T09:16:54.000Z</time>
      </trkpt>
      <trkpt lat="44.79825" lon="4.35648">
        <ele>1101.1</ele>
        <time>2020-05-22T09:16:56.000Z</time>
      </trkpt>
      <trkpt lat="44.79839" lon="4.35638">
        <ele>1101</ele>
        <time>2020-05-22T09:16:58.000Z</time>
      </trkpt>
      <trkpt lat="44.79853" lon="4.35628">
        <ele>1100.8</ele>
        <time>2020-05-22T09:17:00.000Z</time>
      </trkpt>
      <trkpt lat="44.79867" lon="4.35618">
        <ele>1100.7</ele>
        <time>2020-05-22T09:17:02.000Z</time>
      </trkpt>
      <trkpt lat="44.79883" lon="4.35608">
        <ele>1100.5</ele>
        <time>2020-05-22T09:17:04.000Z</time>
      </trkpt>
      <trkpt lat="44.79898" lon="4.356">
        <ele>1100.2</ele>
        <time>2020-05-22T09:17:06.000Z</time>
      </trkpt>
      <trkpt lat="44.79915" lon="4.35594">
        <ele>1100</ele>
        <time>2020-05-22T09:17:08.000Z</time>
      </trkpt>
      <trkpt lat="44.79932" lon="4.35591">
        <ele>1099.8</ele>
        <time>2020-05-22T09:17:10.000Z</time>
      </trkpt>
      <trkpt lat="44.79948" lon="4.35591">
        <ele>1099.5</ele>
        <time>2020-05-22T09:17:12.000Z</time>
      </trkpt>
      <trkpt lat="44.79965" lon="4.35596">
        <ele>1099.3</ele>
        <time>2020-05-22T09:17:14.000Z</time>
      </trkpt>
      <trkpt lat="44.79981" lon="4.35605">
        <ele>1098.9</ele>
        <time>2020-05-22T09:17:16.000Z</time>
      </trkpt>
      <trkpt lat="44.79996" lon="4.35616">
        <ele>1098.4</ele>
        <time>2020-05-22T09:17:18.000Z</time>
      </trkpt>
      <trkpt lat="44.80011" lon="4.35628">
        <ele>1097.8</ele>
        <time>2020-05-22T09:17:20.000Z</time>
      </trkpt>
      <trkpt lat="44.80025" lon="4.35641">
        <ele>1097.3</ele>
        <time>2020-05-22T09:17:22.000Z</time>
      </trkpt>
      <trkpt lat="44.80039" lon="4.35654">
        <ele>1096.8</ele>
        <time>2020-05-22T09:17:24.000Z</time>
      </trkpt>
      <trkpt lat="44.80053" lon="4.35667">
        <ele>1096.4</ele>
        <time>2020-05-22T09:17:26.000Z</time>
      </trkpt>
      <trkpt lat="44.80067" lon="4.35679">
        <ele>1095.8</ele>
        <time>2020-05-22T09:17:28.000Z</time>
      </trkpt>
      <trkpt lat="44.80082" lon="4.35689">
        <ele>1095.3</ele>
        <time>2020-05-22T09:17:30.000Z</time>
      </trkpt>
      <trkpt lat="44.80098" lon="4.35696">
        <ele>1094.9</ele>
        <time>2020-05-22T09:17:32.000Z</time>
      </trkpt>
      <trkpt lat="44.80114" lon="4.357">
        <ele>1094.5</ele>
        <time>2020-05-22T09:17:34.000Z</time>
      </trkpt>
      <trkpt lat="44.8013" lon="4.35698">
        <ele>1094.2</ele>
        <time>2020-05-22T09:17:36.000Z</time>
      </trkpt>
      <trkpt lat="44.80145" lon="4.35691">
        <ele>1093.9</ele>
        <time>2020-05-22T09:17:38.000Z</time>
      </trkpt>
      <trkpt lat="44.8016" lon="4.35682">
        <ele>1093.6</ele>
        <time>2020-05-22T09:17:40.000Z</time>
      </trkpt>
      <trkpt lat="44.80173" lon="4.3567">
        <ele>1093.3</ele>
        <time>2020-05-22T09:17:42.000Z</time>
      </trkpt>
      <trkpt lat="44.80187" lon="4.35659">
        <ele>1092.9</ele>
        <time>2020-05-22T09:17:44.000Z</time>
      </trkpt>
      <trkpt lat="44.80201" lon="4.35647">
        <ele>1092.6</ele>
        <time>2020-05-22T09:17:46.000Z</time>
      </trkpt>
      <trkpt lat="44.80214" lon="4.35635">
        <ele>1092.3</ele>
        <time>2020-05-22T09:17:48.000Z</time>
      </trkpt>
      <trkpt lat="44.80228" lon="4.35623">
        <ele>1091.9</ele>
        <time>2020-05-22T09:17:50.000Z</time>
      </trkpt>
      <trkpt lat="44.80242" lon="4.35611">
        <ele>1091.5</ele>
        <time>2020-05-22T09:17:52.000Z</time>
      </trkpt>
      <trkpt lat="44.80256" lon="4.35598">
        <ele>1091.2</ele>
        <time>2020-05-22T09:17:54.000Z</time>
      </trkpt>
      <trkpt lat="44.80269" lon="4.35586">
        <ele>1091</ele>
        <time>2020-05-22T09:17:56.000Z</time>
      </trkpt>
      <trkpt lat="44.80283" lon="4.35574">
        <ele>1090.7</ele>
        <time>2020-05-22T09:17:58.000Z</time>
      </trkpt>
      <trkpt lat="44.80295" lon="4.35562">
        <ele>1090.4</ele>
        <time>2020-05-22T09:18:00.000Z</time>
      </trkpt>
      <trkpt lat="44.80307" lon="4.3555">
        <ele>1090.2</ele>
        <time>2020-05-22T09:18:02.000Z</time>
      </trkpt>
      <trkpt lat="44.80318" lon="4.35536">
        <ele>1089.8</ele>
        <time>2020-05-22T09:18:04.000Z</time>
      </trkpt>
      <trkpt lat="44.80327" lon="4.3552">
        <ele>1089.5</ele>
        <time>2020-05-22T09:18:06.000Z</time>
      </trkpt>
      <trkpt lat="44.80334" lon="4.35502">
        <ele>1089.2</ele>
        <time>2020-05-22T09:18:08.000Z</time>
      </trkpt>
      <trkpt lat="44.80338" lon="4.35482">
        <ele>1088.9</ele>
        <time>2020-05-22T09:18:10.000Z</time>
      </trkpt>
      <trkpt lat="44.80341" lon="4.35462">
        <ele>1088.6</ele>
        <time>2020-05-22T09:18:12.000Z</time>
      </trkpt>
      <trkpt lat="44.80343" lon="4.35441">
        <ele>1088.3</ele>
        <time>2020-05-22T09:18:14.000Z</time>
      </trkpt>
      <trkpt lat="44.80345" lon="4.3542">
        <ele>1087.9</ele>
        <time>2020-05-22T09:18:16.000Z</time>
      </trkpt>
      <trkpt lat="44.80347" lon="4.35399">
        <ele>1087.4</ele>
        <time>2020-05-22T09:18:18.000Z</time>
      </trkpt>
      <trkpt lat="44.80351" lon="4.35378">
        <ele>1086.9</ele>
        <time>2020-05-22T09:18:20.000Z</time>
      </trkpt>
      <trkpt lat="44.80356" lon="4.35358">
        <ele>1086.5</ele>
        <time>2020-05-22T09:18:22.000Z</time>
      </trkpt>
      <trkpt lat="44.80364" lon="4.3534">
        <ele>1086.1</ele>
        <time>2020-05-22T09:18:24.000Z</time>
      </trkpt>
      <trkpt lat="44.80375" lon="4.35324">
        <ele>1085.6</ele>
        <time>2020-05-22T09:18:26.000Z</time>
      </trkpt>
      <trkpt lat="44.80387" lon="4.3531">
        <ele>1085.1</ele>
        <time>2020-05-22T09:18:28.000Z</time>
      </trkpt>
      <trkpt lat="44.80401" lon="4.35297">
        <ele>1084.7</ele>
        <time>2020-05-22T09:18:30.000Z</time>
      </trkpt>
      <trkpt lat="44.80414" lon="4.35284">
        <ele>1084.2</ele>
        <time>2020-05-22T09:18:32.000Z</time>
      </trkpt>
      <trkpt lat="44.80428" lon="4.3527">
        <ele>1083.8</ele>
        <time>2020-05-22T09:18:34.000Z</time>
      </trkpt>
      <trkpt lat="44.80442" lon="4.35257">
        <ele>1083.3</ele>
        <time>2020-05-22T09:18:36.000Z</time>
      </trkpt>
      <trkpt lat="44.80456" lon="4.35246">
        <ele>1082.9</ele>
        <time>2020-05-22T09:18:38.000Z</time>
      </trkpt>
      <trkpt lat="44.80466" lon="4.35238">
        <ele>1082.4</ele>
        <time>2020-05-22T09:18:40.000Z</time>
      </trkpt>
      <trkpt lat="44.80475" lon="4.35229">
        <ele>1082</ele>
        <time>2020-05-22T09:18:42.000Z</time>
      </trkpt>
      <trkpt lat="44.80485" lon="4.3522">
        <ele>1081.6</ele>
        <time>2020-05-22T09:18:44.000Z</time>
      </trkpt>
      <trkpt lat="44.80496" lon="4.35213">
        <ele>1081.4</ele>
        <time>2020-05-22T09:18:46.000Z</time>
      </trkpt>
      <trkpt lat="44.80508" lon="4.35209">
        <ele>1081.2</ele>
        <time>2020-05-22T09:18:48.000Z</time>
      </trkpt>
      <trkpt lat="44.80522" lon="4.35207">
        <ele>1081</ele>
        <time>2020-05-22T09:18:50.000Z</time>
      </trkpt>
      <trkpt lat="44.80537" lon="4.35208">
        <ele>1080.7</ele>
        <time>2020-05-22T09:18:52.000Z</time>
      </trkpt>
      <trkpt lat="44.80552" lon="4.3521">
        <ele>1080.5</ele>
        <time>2020-05-22T09:18:54.000Z</time>
      </trkpt>
      <trkpt lat="44.80567" lon="4.35211">
        <ele>1080.3</ele>
        <time>2020-05-22T09:18:56.000Z</time>
      </trkpt>
      <trkpt lat="44.80584" lon="4.35213">
        <ele>1079.9</ele>
        <time>2020-05-22T09:18:58.000Z</time>
      </trkpt>
      <trkpt lat="44.806" lon="4.35215">
        <ele>1079.6</ele>
        <time>2020-05-22T09:19:00.000Z</time>
      </trkpt>
      <trkpt lat="44.80617" lon="4.35217">
        <ele>1079</ele>
        <time>2020-05-22T09:19:02.000Z</time>
      </trkpt>
      <trkpt lat="44.80634" lon="4.35218">
        <ele>1078.5</ele>
        <time>2020-05-22T09:19:04.000Z</time>
      </trkpt>
      <trkpt lat="44.80652" lon="4.35219">
        <ele>1078</ele>
        <time>2020-05-22T09:19:06.000Z</time>
      </trkpt>
      <trkpt lat="44.80669" lon="4.35221">
        <ele>1077.5</ele>
        <time>2020-05-22T09:19:08.000Z</time>
      </trkpt>
      <trkpt lat="44.80687" lon="4.35223">
        <ele>1077.1</ele>
        <time>2020-05-22T09:19:10.000Z</time>
      </trkpt>
      <trkpt lat="44.80704" lon="4.35224">
        <ele>1076.7</ele>
        <time>2020-05-22T09:19:12.000Z</time>
      </trkpt>
      <trkpt lat="44.80721" lon="4.35217">
        <ele>1076.3</ele>
        <time>2020-05-22T09:19:14.000Z</time>
      </trkpt>
      <trkpt lat="44.80735" lon="4.35202">
        <ele>1076</ele>
        <time>2020-05-22T09:19:16.000Z</time>
      </trkpt>
      <trkpt lat="44.80744" lon="4.35182">
        <ele>1075.7</ele>
        <time>2020-05-22T09:19:18.000Z</time>
      </trkpt>
      <trkpt lat="44.80752" lon="4.35159">
        <ele>1075.4</ele>
        <time>2020-05-22T09:19:20.000Z</time>
      </trkpt>
      <trkpt lat="44.8076" lon="4.35137">
        <ele>1075</ele>
        <time>2020-05-22T09:19:22.000Z</time>
      </trkpt>
      <trkpt lat="44.80768" lon="4.35116">
        <ele>1074.5</ele>
        <time>2020-05-22T09:19:24.000Z</time>
      </trkpt>
      <trkpt lat="44.80776" lon="4.35094">
        <ele>1074</ele>
        <time>2020-05-22T09:19:26.000Z</time>
      </trkpt>
      <trkpt lat="44.80784" lon="4.35072">
        <ele>1073.5</ele>
        <time>2020-05-22T09:19:28.000Z</time>
      </trkpt>
      <trkpt lat="44.80792" lon="4.35051">
        <ele>1073.1</ele>
        <time>2020-05-22T09:19:30.000Z</time>
      </trkpt>
      <trkpt lat="44.808" lon="4.3503">
        <ele>1072.8</ele>
        <time>2020-05-22T09:19:32.000Z</time>
      </trkpt>
      <trkpt lat="44.80808" lon="4.35008">
        <ele>1072.3</ele>
        <time>2020-05-22T09:19:34.000Z</time>
      </trkpt>
      <trkpt lat="44.80812" lon="4.34996">
        <ele>1072.1</ele>
        <time>2020-05-22T09:19:35.000Z</time>
      </trkpt>
      <trkpt lat="44.80818" lon="4.34972">
        <ele>1071.6</ele>
        <time>2020-05-22T09:19:37.000Z</time>
      </trkpt>
      <trkpt lat="44.80818" lon="4.34948">
        <ele>1071.1</ele>
        <time>2020-05-22T09:19:39.000Z</time>
      </trkpt>
      <trkpt lat="44.80814" lon="4.34924">
        <ele>1070.7</ele>
        <time>2020-05-22T09:19:41.000Z</time>
      </trkpt>
      <trkpt lat="44.8081" lon="4.34901">
        <ele>1070.3</ele>
        <time>2020-05-22T09:19:43.000Z</time>
      </trkpt>
      <trkpt lat="44.80805" lon="4.34878">
        <ele>1069.9</ele>
        <time>2020-05-22T09:19:45.000Z</time>
      </trkpt>
      <trkpt lat="44.80801" lon="4.34854">
        <ele>1069.4</ele>
        <time>2020-05-22T09:19:47.000Z</time>
      </trkpt>
      <trkpt lat="44.80797" lon="4.34829">
        <ele>1068.7</ele>
        <time>2020-05-22T09:19:49.000Z</time>
      </trkpt>
      <trkpt lat="44.80795" lon="4.34816">
        <ele>1068.4</ele>
        <time>2020-05-22T09:19:50.000Z</time>
      </trkpt>
      <trkpt lat="44.80792" lon="4.34804">
        <ele>1068.1</ele>
        <time>2020-05-22T09:19:51.000Z</time>
      </trkpt>
      <trkpt lat="44.8079" lon="4.34791">
        <ele>1067.9</ele>
        <time>2020-05-22T09:19:52.000Z</time>
      </trkpt>
      <trkpt lat="44.80787" lon="4.34779">
        <ele>1067.6</ele>
        <time>2020-05-22T09:19:53.000Z</time>
      </trkpt>
      <trkpt lat="44.80785" lon="4.34766">
        <ele>1067.2</ele>
        <time>2020-05-22T09:19:54.000Z</time>
      </trkpt>
      <trkpt lat="44.80782" lon="4.34753">
        <ele>1066.9</ele>
        <time>2020-05-22T09:19:55.000Z</time>
      </trkpt>
      <trkpt lat="44.80779" lon="4.3473">
        <ele>1066.1</ele>
        <time>2020-05-22T09:19:57.000Z</time>
      </trkpt>
      <trkpt lat="44.80778" lon="4.34709">
        <ele>1065.5</ele>
        <time>2020-05-22T09:19:59.000Z</time>
      </trkpt>
      <trkpt lat="44.80779" lon="4.34688">
        <ele>1064.7</ele>
        <time>2020-05-22T09:20:01.000Z</time>
      </trkpt>
      <trkpt lat="44.80784" lon="4.34668">
        <ele>1064.1</ele>
        <time>2020-05-22T09:20:03.000Z</time>
      </trkpt>
      <trkpt lat="44.8079" lon="4.34649">
        <ele>1063.3</ele>
        <time>2020-05-22T09:20:05.000Z</time>
      </trkpt>
      <trkpt lat="44.80795" lon="4.34637">
        <ele>1062.7</ele>
        <time>2020-05-22T09:20:07.000Z</time>
      </trkpt>
      <trkpt lat="44.80799" lon="4.34619">
        <ele>1062</ele>
        <time>2020-05-22T09:20:10.000Z</time>
      </trkpt>
      <trkpt lat="44.80796" lon="4.34604">
        <ele>1061.6</ele>
        <time>2020-05-22T09:20:12.000Z</time>
      </trkpt>
      <trkpt lat="44.80789" lon="4.34592">
        <ele>1061.2</ele>
        <time>2020-05-22T09:20:14.000Z</time>
      </trkpt>
      <trkpt lat="44.80781" lon="4.34581">
        <ele>1061</ele>
        <time>2020-05-22T09:20:16.000Z</time>
      </trkpt>
      <trkpt lat="44.80773" lon="4.34571">
        <ele>1060.9</ele>
        <time>2020-05-22T09:20:18.000Z</time>
      </trkpt>
      <trkpt lat="44.80766" lon="4.34559">
        <ele>1060.9</ele>
        <time>2020-05-22T09:20:20.000Z</time>
      </trkpt>
      <trkpt lat="44.80759" lon="4.34549">
        <ele>1061.2</ele>
        <time>2020-05-22T09:20:22.000Z</time>
      </trkpt>
      <trkpt lat="44.80751" lon="4.34536">
        <ele>1061.8</ele>
        <time>2020-05-22T09:20:25.000Z</time>
      </trkpt>
      <trkpt lat="44.80744" lon="4.34523">
        <ele>1062.3</ele>
        <time>2020-05-22T09:20:28.000Z</time>
      </trkpt>
      <trkpt lat="44.80737" lon="4.34512">
        <ele>1062.8</ele>
        <time>2020-05-22T09:20:31.000Z</time>
      </trkpt>
      <trkpt lat="44.8073" lon="4.34501">
        <ele>1063.4</ele>
        <time>2020-05-22T09:20:34.000Z</time>
      </trkpt>
      <trkpt lat="44.80723" lon="4.3449">
        <ele>1064.2</ele>
        <time>2020-05-22T09:20:37.000Z</time>
      </trkpt>
      <trkpt lat="44.80716" lon="4.3448">
        <ele>1064.8</ele>
        <time>2020-05-22T09:20:40.000Z</time>
      </trkpt>
      <trkpt lat="44.8071" lon="4.34471">
        <ele>1065.4</ele>
        <time>2020-05-22T09:20:43.000Z</time>
      </trkpt>
      <trkpt lat="44.80701" lon="4.34459">
        <ele>1066.5</ele>
        <time>2020-05-22T09:20:47.000Z</time>
      </trkpt>
      <trkpt lat="44.80694" lon="4.34447">
        <ele>1067.3</ele>
        <time>2020-05-22T09:20:51.000Z</time>
      </trkpt>
      <trkpt lat="44.80688" lon="4.34436">
        <ele>1067.6</ele>
        <time>2020-05-22T09:20:54.000Z</time>
      </trkpt>
      <trkpt lat="44.80682" lon="4.34423">
        <ele>1068</ele>
        <time>2020-05-22T09:20:58.000Z</time>
      </trkpt>
      <trkpt lat="44.80676" lon="4.34408">
        <ele>1068.7</ele>
        <time>2020-05-22T09:21:02.000Z</time>
      </trkpt>
      <trkpt lat="44.80672" lon="4.34394">
        <ele>1069.3</ele>
        <time>2020-05-22T09:21:06.000Z</time>
      </trkpt>
      <trkpt lat="44.80667" lon="4.34379">
        <ele>1070</ele>
        <time>2020-05-22T09:21:10.000Z</time>
      </trkpt>
      <trkpt lat="44.80661" lon="4.34365">
        <ele>1070.6</ele>
        <time>2020-05-22T09:21:14.000Z</time>
      </trkpt>
      <trkpt lat="44.80655" lon="4.34351">
        <ele>1071.4</ele>
        <time>2020-05-22T09:21:18.000Z</time>
      </trkpt>
      <trkpt lat="44.80648" lon="4.34337">
        <ele>1072</ele>
        <time>2020-05-22T09:21:22.000Z</time>
      </trkpt>
      <trkpt lat="44.80642" lon="4.34326">
        <ele>1072.5</ele>
        <time>2020-05-22T09:21:25.000Z</time>
      </trkpt>
      <trkpt lat="44.80636" lon="4.34316">
        <ele>1073.2</ele>
        <time>2020-05-22T09:21:28.000Z</time>
      </trkpt>
      <trkpt lat="44.80631" lon="4.34305">
        <ele>1073.7</ele>
        <time>2020-05-22T09:21:31.000Z</time>
      </trkpt>
      <trkpt lat="44.80625" lon="4.34295">
        <ele>1074.5</ele>
        <time>2020-05-22T09:21:34.000Z</time>
      </trkpt>
      <trkpt lat="44.80619" lon="4.34284">
        <ele>1075.1</ele>
        <time>2020-05-22T09:21:37.000Z</time>
      </trkpt>
      <trkpt lat="44.80613" lon="4.34273">
        <ele>1075.8</ele>
        <time>2020-05-22T09:21:40.000Z</time>
      </trkpt>
      <trkpt lat="44.80608" lon="4.34262">
        <ele>1076.4</ele>
        <time>2020-05-22T09:21:43.000Z</time>
      </trkpt>
      <trkpt lat="44.80603" lon="4.34251">
        <ele>1077</ele>
        <time>2020-05-22T09:21:46.000Z</time>
      </trkpt>
      <trkpt lat="44.80599" lon="4.3424">
        <ele>1077.6</ele>
        <time>2020-05-22T09:21:49.000Z</time>
      </trkpt>
      <trkpt lat="44.80594" lon="4.34229">
        <ele>1078.4</ele>
        <time>2020-05-22T09:21:52.000Z</time>
      </trkpt>
      <trkpt lat="44.80589" lon="4.34218">
        <ele>1079</ele>
        <time>2020-05-22T09:21:55.000Z</time>
      </trkpt>
      <trkpt lat="44.80584" lon="4.34207">
        <ele>1079.6</ele>
        <time>2020-05-22T09:21:58.000Z</time>
      </trkpt>
      <trkpt lat="44.80579" lon="4.34195">
        <ele>1080.1</ele>
        <time>2020-05-22T09:22:01.000Z</time>
      </trkpt>
      <trkpt lat="44.80573" lon="4.34181">
        <ele>1081</ele>
        <time>2020-05-22T09:22:05.000Z</time>
      </trkpt>
      <trkpt lat="44.80568" lon="4.34167">
        <ele>1081.7</ele>
        <time>2020-05-22T09:22:09.000Z</time>
      </trkpt>
      <trkpt lat="44.80562" lon="4.34153">
        <ele>1082.2</ele>
        <time>2020-05-22T09:22:13.000Z</time>
      </trkpt>
      <trkpt lat="44.80557" lon="4.34141">
        <ele>1082.7</ele>
        <time>2020-05-22T09:22:16.000Z</time>
      </trkpt>
      <trkpt lat="44.80552" lon="4.3413">
        <ele>1083.2</ele>
        <time>2020-05-22T09:22:19.000Z</time>
      </trkpt>
      <trkpt lat="44.80547" lon="4.34115">
        <ele>1083.6</ele>
        <time>2020-05-22T09:22:23.000Z</time>
      </trkpt>
      <trkpt lat="44.80542" lon="4.341">
        <ele>1084.1</ele>
        <time>2020-05-22T09:22:27.000Z</time>
      </trkpt>
      <trkpt lat="44.80537" lon="4.34089">
        <ele>1084.7</ele>
        <time>2020-05-22T09:22:30.000Z</time>
      </trkpt>
      <trkpt lat="44.80533" lon="4.34073">
        <ele>1085.4</ele>
        <time>2020-05-22T09:22:34.000Z</time>
      </trkpt>
      <trkpt lat="44.8053" lon="4.34057">
        <ele>1085.8</ele>
        <time>2020-05-22T09:22:38.000Z</time>
      </trkpt>
      <trkpt lat="44.80528" lon="4.34042">
        <ele>1086.4</ele>
        <time>2020-05-22T09:22:42.000Z</time>
      </trkpt>
      <trkpt lat="44.80526" lon="4.34025">
        <ele>1087.2</ele>
        <time>2020-05-22T09:22:46.000Z</time>
      </trkpt>
      <trkpt lat="44.80523" lon="4.34009">
        <ele>1088</ele>
        <time>2020-05-22T09:22:50.000Z</time>
      </trkpt>
      <trkpt lat="44.80521" lon="4.33993">
        <ele>1088.6</ele>
        <time>2020-05-22T09:22:54.000Z</time>
      </trkpt>
      <trkpt lat="44.80518" lon="4.33977">
        <ele>1089.3</ele>
        <time>2020-05-22T09:22:58.000Z</time>
      </trkpt>
      <trkpt lat="44.80516" lon="4.33961">
        <ele>1089.9</ele>
        <time>2020-05-22T09:23:02.000Z</time>
      </trkpt>
      <trkpt lat="44.80513" lon="4.33945">
        <ele>1090.4</ele>
        <time>2020-05-22T09:23:06.000Z</time>
      </trkpt>
      <trkpt lat="44.80511" lon="4.33928">
        <ele>1090.9</ele>
        <time>2020-05-22T09:23:10.000Z</time>
      </trkpt>
      <trkpt lat="44.80507" lon="4.33912">
        <ele>1091.5</ele>
        <time>2020-05-22T09:23:14.000Z</time>
      </trkpt>
      <trkpt lat="44.80503" lon="4.33897">
        <ele>1092.1</ele>
        <time>2020-05-22T09:23:18.000Z</time>
      </trkpt>
      <trkpt lat="44.80498" lon="4.33882">
        <ele>1092.9</ele>
        <time>2020-05-22T09:23:22.000Z</time>
      </trkpt>
      <trkpt lat="44.80493" lon="4.33872">
        <ele>1093.5</ele>
        <time>2020-05-22T09:23:25.000Z</time>
      </trkpt>
      <trkpt lat="44.80485" lon="4.33859">
        <ele>1094.2</ele>
        <time>2020-05-22T09:23:29.000Z</time>
      </trkpt>
      <trkpt lat="44.80476" lon="4.33848">
        <ele>1095</ele>
        <time>2020-05-22T09:23:33.000Z</time>
      </trkpt>
      <trkpt lat="44.80468" lon="4.33841">
        <ele>1095.6</ele>
        <time>2020-05-22T09:23:36.000Z</time>
      </trkpt>
      <trkpt lat="44.80459" lon="4.33836">
        <ele>1096.1</ele>
        <time>2020-05-22T09:23:39.000Z</time>
      </trkpt>
      <trkpt lat="44.8045" lon="4.33833">
        <ele>1096.9</ele>
        <time>2020-05-22T09:23:42.000Z</time>
      </trkpt>
      <trkpt lat="44.8044" lon="4.33831">
        <ele>1097.5</ele>
        <time>2020-05-22T09:23:45.000Z</time>
      </trkpt>
      <trkpt lat="44.80431" lon="4.3383">
        <ele>1097.8</ele>
        <time>2020-05-22T09:23:48.000Z</time>
      </trkpt>
      <trkpt lat="44.80422" lon="4.3383">
        <ele>1098</ele>
        <time>2020-05-22T09:23:51.000Z</time>
      </trkpt>
      <trkpt lat="44.8041" lon="4.33828">
        <ele>1098.5</ele>
        <time>2020-05-22T09:23:55.000Z</time>
      </trkpt>
      <trkpt lat="44.80401" lon="4.33827">
        <ele>1098.9</ele>
        <time>2020-05-22T09:23:58.000Z</time>
      </trkpt>
      <trkpt lat="44.80389" lon="4.33826">
        <ele>1099.3</ele>
        <time>2020-05-22T09:24:02.000Z</time>
      </trkpt>
      <trkpt lat="44.80378" lon="4.33825">
        <ele>1100.2</ele>
        <time>2020-05-22T09:24:06.000Z</time>
      </trkpt>
      <trkpt lat="44.80366" lon="4.33824">
        <ele>1101</ele>
        <time>2020-05-22T09:24:10.000Z</time>
      </trkpt>
      <trkpt lat="44.80354" lon="4.33823">
        <ele>1101.7</ele>
        <time>2020-05-22T09:24:14.000Z</time>
      </trkpt>
      <trkpt lat="44.80342" lon="4.33823">
        <ele>1102.6</ele>
        <time>2020-05-22T09:24:18.000Z</time>
      </trkpt>
      <trkpt lat="44.80331" lon="4.33823">
        <ele>1103.2</ele>
        <time>2020-05-22T09:24:22.000Z</time>
      </trkpt>
      <trkpt lat="44.80319" lon="4.33823">
        <ele>1103.9</ele>
        <time>2020-05-22T09:24:26.000Z</time>
      </trkpt>
      <trkpt lat="44.80308" lon="4.33823">
        <ele>1104.6</ele>
        <time>2020-05-22T09:24:30.000Z</time>
      </trkpt>
      <trkpt lat="44.80296" lon="4.33822">
        <ele>1105.3</ele>
        <time>2020-05-22T09:24:34.000Z</time>
      </trkpt>
      <trkpt lat="44.80285" lon="4.33818">
        <ele>1105.9</ele>
        <time>2020-05-22T09:24:38.000Z</time>
      </trkpt>
      <trkpt lat="44.80276" lon="4.33814">
        <ele>1106.4</ele>
        <time>2020-05-22T09:24:41.000Z</time>
      </trkpt>
      <trkpt lat="44.80265" lon="4.33807">
        <ele>1107.1</ele>
        <time>2020-05-22T09:24:45.000Z</time>
      </trkpt>
      <trkpt lat="44.80254" lon="4.33799">
        <ele>1107.9</ele>
        <time>2020-05-22T09:24:49.000Z</time>
      </trkpt>
      <trkpt lat="44.80247" lon="4.33791">
        <ele>1108.4</ele>
        <time>2020-05-22T09:24:52.000Z</time>
      </trkpt>
      <trkpt lat="44.80239" lon="4.33784">
        <ele>1108.9</ele>
        <time>2020-05-22T09:24:55.000Z</time>
      </trkpt>
      <trkpt lat="44.8023" lon="4.33774">
        <ele>1109.7</ele>
        <time>2020-05-22T09:24:59.000Z</time>
      </trkpt>
      <trkpt lat="44.80223" lon="4.33766">
        <ele>1110.3</ele>
        <time>2020-05-22T09:25:02.000Z</time>
      </trkpt>
      <trkpt lat="44.80214" lon="4.33754">
        <ele>1110.8</ele>
        <time>2020-05-22T09:25:06.000Z</time>
      </trkpt>
      <trkpt lat="44.80206" lon="4.33742">
        <ele>1111.3</ele>
        <time>2020-05-22T09:25:10.000Z</time>
      </trkpt>
      <trkpt lat="44.80199" lon="4.3373">
        <ele>1112</ele>
        <time>2020-05-22T09:25:14.000Z</time>
      </trkpt>
      <trkpt lat="44.80192" lon="4.33717">
        <ele>1112.7</ele>
        <time>2020-05-22T09:25:18.000Z</time>
      </trkpt>
      <trkpt lat="44.80186" lon="4.33703">
        <ele>1113.5</ele>
        <time>2020-05-22T09:25:22.000Z</time>
      </trkpt>
      <trkpt lat="44.80182" lon="4.33688">
        <ele>1114.2</ele>
        <time>2020-05-22T09:25:26.000Z</time>
      </trkpt>
      <trkpt lat="44.80179" lon="4.33672">
        <ele>1115.2</ele>
        <time>2020-05-22T09:25:30.000Z</time>
      </trkpt>
      <trkpt lat="44.80177" lon="4.33657">
        <ele>1116</ele>
        <time>2020-05-22T09:25:34.000Z</time>
      </trkpt>
      <trkpt lat="44.80175" lon="4.33644">
        <ele>1116.4</ele>
        <time>2020-05-22T09:25:37.000Z</time>
      </trkpt>
      <trkpt lat="44.80174" lon="4.33628">
        <ele>1117</ele>
        <time>2020-05-22T09:25:41.000Z</time>
      </trkpt>
      <trkpt lat="44.80172" lon="4.33615">
        <ele>1117.4</ele>
        <time>2020-05-22T09:25:44.000Z</time>
      </trkpt>
      <trkpt lat="44.80172" lon="4.33603">
        <ele>1117.8</ele>
        <time>2020-05-22T09:25:47.000Z</time>
      </trkpt>
      <trkpt lat="44.80171" lon="4.33589">
        <ele>1118.4</ele>
        <time>2020-05-22T09:25:50.000Z</time>
      </trkpt>
      <trkpt lat="44.80174" lon="4.33576">
        <ele>1118.8</ele>
        <time>2020-05-22T09:25:53.000Z</time>
      </trkpt>
      <trkpt lat="44.80176" lon="4.33563">
        <ele>1119.3</ele>
        <time>2020-05-22T09:25:56.000Z</time>
      </trkpt>
      <trkpt lat="44.80178" lon="4.3355">
        <ele>1119.8</ele>
        <time>2020-05-22T09:25:59.000Z</time>
      </trkpt>
      <trkpt lat="44.80182" lon="4.33538">
        <ele>1120.4</ele>
        <time>2020-05-22T09:26:02.000Z</time>
      </trkpt>
      <trkpt lat="44.80185" lon="4.33525">
        <ele>1121</ele>
        <time>2020-05-22T09:26:05.000Z</time>
      </trkpt>
      <trkpt lat="44.80188" lon="4.33512">
        <ele>1121.6</ele>
        <time>2020-05-22T09:26:08.000Z</time>
      </trkpt>
      <trkpt lat="44.8019" lon="4.33496">
        <ele>1122.5</ele>
        <time>2020-05-22T09:26:12.000Z</time>
      </trkpt>
      <trkpt lat="44.8019" lon="4.33483">
        <ele>1123.1</ele>
        <time>2020-05-22T09:26:15.000Z</time>
      </trkpt>
      <trkpt lat="44.80188" lon="4.33466">
        <ele>1123.9</ele>
        <time>2020-05-22T09:26:19.000Z</time>
      </trkpt>
      <trkpt lat="44.80185" lon="4.33454">
        <ele>1124.6</ele>
        <time>2020-05-22T09:26:22.000Z</time>
      </trkpt>
      <trkpt lat="44.8018" lon="4.33443">
        <ele>1125.1</ele>
        <time>2020-05-22T09:26:25.000Z</time>
      </trkpt>
      <trkpt lat="44.80175" lon="4.33429">
        <ele>1125.9</ele>
        <time>2020-05-22T09:26:29.000Z</time>
      </trkpt>
      <trkpt lat="44.80168" lon="4.33415">
        <ele>1126.8</ele>
        <time>2020-05-22T09:26:33.000Z</time>
      </trkpt>
      <trkpt lat="44.80163" lon="4.33401">
        <ele>1127.3</ele>
        <time>2020-05-22T09:26:37.000Z</time>
      </trkpt>
      <trkpt lat="44.80158" lon="4.33386">
        <ele>1127.8</ele>
        <time>2020-05-22T09:26:41.000Z</time>
      </trkpt>
      <trkpt lat="44.80156" lon="4.33369">
        <ele>1128.2</ele>
        <time>2020-05-22T09:26:45.000Z</time>
      </trkpt>
      <trkpt lat="44.80156" lon="4.33353">
        <ele>1128.7</ele>
        <time>2020-05-22T09:26:49.000Z</time>
      </trkpt>
      <trkpt lat="44.80156" lon="4.3334">
        <ele>1129.2</ele>
        <time>2020-05-22T09:26:52.000Z</time>
      </trkpt>
      <trkpt lat="44.80155" lon="4.33324">
        <ele>1129.8</ele>
        <time>2020-05-22T09:26:56.000Z</time>
      </trkpt>
      <trkpt lat="44.80156" lon="4.33307">
        <ele>1130.5</ele>
        <time>2020-05-22T09:27:00.000Z</time>
      </trkpt>
      <trkpt lat="44.80155" lon="4.33295">
        <ele>1131.3</ele>
        <time>2020-05-22T09:27:03.000Z</time>
      </trkpt>
      <trkpt lat="44.80154" lon="4.33278">
        <ele>1132.1</ele>
        <time>2020-05-22T09:27:07.000Z</time>
      </trkpt>
      <trkpt lat="44.80151" lon="4.33262">
        <ele>1132.8</ele>
        <time>2020-05-22T09:27:11.000Z</time>
      </trkpt>
      <trkpt lat="44.80147" lon="4.33247">
        <ele>1133.5</ele>
        <time>2020-05-22T09:27:15.000Z</time>
      </trkpt>
      <trkpt lat="44.80142" lon="4.33232">
        <ele>1134.1</ele>
        <time>2020-05-22T09:27:19.000Z</time>
      </trkpt>
      <trkpt lat="44.80137" lon="4.3322">
        <ele>1134.6</ele>
        <time>2020-05-22T09:27:22.000Z</time>
      </trkpt>
      <trkpt lat="44.80133" lon="4.33209">
        <ele>1135.1</ele>
        <time>2020-05-22T09:27:25.000Z</time>
      </trkpt>
      <trkpt lat="44.80128" lon="4.33197">
        <ele>1135.5</ele>
        <time>2020-05-22T09:27:28.000Z</time>
      </trkpt>
      <trkpt lat="44.80124" lon="4.33186">
        <ele>1136</ele>
        <time>2020-05-22T09:27:31.000Z</time>
      </trkpt>
      <trkpt lat="44.80121" lon="4.33174">
        <ele>1136.6</ele>
        <time>2020-05-22T09:27:34.000Z</time>
      </trkpt>
      <trkpt lat="44.80117" lon="4.33158">
        <ele>1137.4</ele>
        <time>2020-05-22T09:27:38.000Z</time>
      </trkpt>
      <trkpt lat="44.80114" lon="4.33142">
        <ele>1138</ele>
        <time>2020-05-22T09:27:42.000Z</time>
      </trkpt>
      <trkpt lat="44.80112" lon="4.33126">
        <ele>1138.5</ele>
        <time>2020-05-22T09:27:46.000Z</time>
      </trkpt>
      <trkpt lat="44.80111" lon="4.3311">
        <ele>1139.2</ele>
        <time>2020-05-22T09:27:50.000Z</time>
      </trkpt>
      <trkpt lat="44.80111" lon="4.33093">
        <ele>1140</ele>
        <time>2020-05-22T09:27:54.000Z</time>
      </trkpt>
      <trkpt lat="44.80112" lon="4.33077">
        <ele>1140.6</ele>
        <time>2020-05-22T09:27:58.000Z</time>
      </trkpt>
      <trkpt lat="44.80113" lon="4.3306">
        <ele>1141.4</ele>
        <time>2020-05-22T09:28:02.000Z</time>
      </trkpt>
      <trkpt lat="44.80113" lon="4.33047">
        <ele>1141.8</ele>
        <time>2020-05-22T09:28:05.000Z</time>
      </trkpt>
      <trkpt lat="44.80114" lon="4.3303">
        <ele>1142.2</ele>
        <time>2020-05-22T09:28:09.000Z</time>
      </trkpt>
      <trkpt lat="44.80114" lon="4.33014">
        <ele>1142.7</ele>
        <time>2020-05-22T09:28:13.000Z</time>
      </trkpt>
      <trkpt lat="44.80114" lon="4.32998">
        <ele>1143.4</ele>
        <time>2020-05-22T09:28:17.000Z</time>
      </trkpt>
      <trkpt lat="44.80115" lon="4.32981">
        <ele>1144</ele>
        <time>2020-05-22T09:28:21.000Z</time>
      </trkpt>
      <trkpt lat="44.80115" lon="4.32964">
        <ele>1144.7</ele>
        <time>2020-05-22T09:28:25.000Z</time>
      </trkpt>
      <trkpt lat="44.80115" lon="4.32952">
        <ele>1145.3</ele>
        <time>2020-05-22T09:28:28.000Z</time>
      </trkpt>
      <trkpt lat="44.80115" lon="4.32938">
        <ele>1145.9</ele>
        <time>2020-05-22T09:28:31.000Z</time>
      </trkpt>
      <trkpt lat="44.80115" lon="4.32925">
        <ele>1146.5</ele>
        <time>2020-05-22T09:28:34.000Z</time>
      </trkpt>
      <trkpt lat="44.80116" lon="4.32912">
        <ele>1147.1</ele>
        <time>2020-05-22T09:28:37.000Z</time>
      </trkpt>
      <trkpt lat="44.80117" lon="4.32899">
        <ele>1147.7</ele>
        <time>2020-05-22T09:28:40.000Z</time>
      </trkpt>
      <trkpt lat="44.80119" lon="4.32886">
        <ele>1148.2</ele>
        <time>2020-05-22T09:28:43.000Z</time>
      </trkpt>
      <trkpt lat="44.80122" lon="4.3287">
        <ele>1148.8</ele>
        <time>2020-05-22T09:28:47.000Z</time>
      </trkpt>
      <trkpt lat="44.80125" lon="4.32855">
        <ele>1149.5</ele>
        <time>2020-05-22T09:28:51.000Z</time>
      </trkpt>
      <trkpt lat="44.8013" lon="4.32839">
        <ele>1150.2</ele>
        <time>2020-05-22T09:28:55.000Z</time>
      </trkpt>
      <trkpt lat="44.80133" lon="4.32826">
        <ele>1150.8</ele>
        <time>2020-05-22T09:28:58.000Z</time>
      </trkpt>
      <trkpt lat="44.80135" lon="4.32813">
        <ele>1151.2</ele>
        <time>2020-05-22T09:29:01.000Z</time>
      </trkpt>
      <trkpt lat="44.80137" lon="4.32801">
        <ele>1151.8</ele>
        <time>2020-05-22T09:29:04.000Z</time>
      </trkpt>
      <trkpt lat="44.80139" lon="4.32787">
        <ele>1152.5</ele>
        <time>2020-05-22T09:29:07.000Z</time>
      </trkpt>
      <trkpt lat="44.80141" lon="4.32771">
        <ele>1153.3</ele>
        <time>2020-05-22T09:29:11.000Z</time>
      </trkpt>
      <trkpt lat="44.80142" lon="4.32754">
        <ele>1154.1</ele>
        <time>2020-05-22T09:29:15.000Z</time>
      </trkpt>
      <trkpt lat="44.80144" lon="4.32738">
        <ele>1154.7</ele>
        <time>2020-05-22T09:29:19.000Z</time>
      </trkpt>
      <trkpt lat="44.80144" lon="4.32722">
        <ele>1155.2</ele>
        <time>2020-05-22T09:29:23.000Z</time>
      </trkpt>
      <trkpt lat="44.80145" lon="4.32706">
        <ele>1155.8</ele>
        <time>2020-05-22T09:29:27.000Z</time>
      </trkpt>
      <trkpt lat="44.80144" lon="4.32691">
        <ele>1156.3</ele>
        <time>2020-05-22T09:29:31.000Z</time>
      </trkpt>
      <trkpt lat="44.80143" lon="4.32678">
        <ele>1156.7</ele>
        <time>2020-05-22T09:29:34.000Z</time>
      </trkpt>
      <trkpt lat="44.80142" lon="4.32661">
        <ele>1157.3</ele>
        <time>2020-05-22T09:29:38.000Z</time>
      </trkpt>
      <trkpt lat="44.80142" lon="4.32645">
        <ele>1158</ele>
        <time>2020-05-22T09:29:42.000Z</time>
      </trkpt>
      <trkpt lat="44.80141" lon="4.32632">
        <ele>1158.4</ele>
        <time>2020-05-22T09:29:45.000Z</time>
      </trkpt>
      <trkpt lat="44.80142" lon="4.32619">
        <ele>1158.8</ele>
        <time>2020-05-22T09:29:48.000Z</time>
      </trkpt>
      <trkpt lat="44.80142" lon="4.32606">
        <ele>1159.2</ele>
        <time>2020-05-22T09:29:51.000Z</time>
      </trkpt>
      <trkpt lat="44.80143" lon="4.32594">
        <ele>1159.6</ele>
        <time>2020-05-22T09:29:54.000Z</time>
      </trkpt>
      <trkpt lat="44.80144" lon="4.32581">
        <ele>1160.1</ele>
        <time>2020-05-22T09:29:57.000Z</time>
      </trkpt>
      <trkpt lat="44.80145" lon="4.32568">
        <ele>1160.5</ele>
        <time>2020-05-22T09:30:00.000Z</time>
      </trkpt>
      <trkpt lat="44.80147" lon="4.32555">
        <ele>1161</ele>
        <time>2020-05-22T09:30:03.000Z</time>
      </trkpt>
      <trkpt lat="44.80149" lon="4.32539">
        <ele>1161.8</ele>
        <time>2020-05-22T09:30:07.000Z</time>
      </trkpt>
      <trkpt lat="44.80153" lon="4.32523">
        <ele>1162.5</ele>
        <time>2020-05-22T09:30:11.000Z</time>
      </trkpt>
      <trkpt lat="44.80156" lon="4.32507">
        <ele>1163.4</ele>
        <time>2020-05-22T09:30:15.000Z</time>
      </trkpt>
      <trkpt lat="44.80161" lon="4.32492">
        <ele>1164</ele>
        <time>2020-05-22T09:30:19.000Z</time>
      </trkpt>
      <trkpt lat="44.80165" lon="4.32477">
        <ele>1164.7</ele>
        <time>2020-05-22T09:30:23.000Z</time>
      </trkpt>
      <trkpt lat="44.80169" lon="4.32461">
        <ele>1165.5</ele>
        <time>2020-05-22T09:30:27.000Z</time>
      </trkpt>
      <trkpt lat="44.80171" lon="4.32449">
        <ele>1166.1</ele>
        <time>2020-05-22T09:30:30.000Z</time>
      </trkpt>
      <trkpt lat="44.80174" lon="4.32437">
        <ele>1166.7</ele>
        <time>2020-05-22T09:30:33.000Z</time>
      </trkpt>
      <trkpt lat="44.80176" lon="4.32424">
        <ele>1167.2</ele>
        <time>2020-05-22T09:30:36.000Z</time>
      </trkpt>
      <trkpt lat="44.80177" lon="4.32411">
        <ele>1167.8</ele>
        <time>2020-05-22T09:30:39.000Z</time>
      </trkpt>
      <trkpt lat="44.80178" lon="4.32398">
        <ele>1168.2</ele>
        <time>2020-05-22T09:30:42.000Z</time>
      </trkpt>
      <trkpt lat="44.80179" lon="4.32385">
        <ele>1168.7</ele>
        <time>2020-05-22T09:30:45.000Z</time>
      </trkpt>
      <trkpt lat="44.80177" lon="4.32372">
        <ele>1169.1</ele>
        <time>2020-05-22T09:30:48.000Z</time>
      </trkpt>
      <trkpt lat="44.80176" lon="4.32359">
        <ele>1169.6</ele>
        <time>2020-05-22T09:30:51.000Z</time>
      </trkpt>
      <trkpt lat="44.80173" lon="4.32346">
        <ele>1170.1</ele>
        <time>2020-05-22T09:30:54.000Z</time>
      </trkpt>
      <trkpt lat="44.8017" lon="4.32333">
        <ele>1170.7</ele>
        <time>2020-05-22T09:30:57.000Z</time>
      </trkpt>
      <trkpt lat="44.80167" lon="4.32321">
        <ele>1171.2</ele>
        <time>2020-05-22T09:31:00.000Z</time>
      </trkpt>
      <trkpt lat="44.80164" lon="4.32309">
        <ele>1171.5</ele>
        <time>2020-05-22T09:31:03.000Z</time>
      </trkpt>
      <trkpt lat="44.80163" lon="4.32296">
        <ele>1171.9</ele>
        <time>2020-05-22T09:31:06.000Z</time>
      </trkpt>
      <trkpt lat="44.80161" lon="4.32283">
        <ele>1172.3</ele>
        <time>2020-05-22T09:31:09.000Z</time>
      </trkpt>
      <trkpt lat="44.80159" lon="4.3227">
        <ele>1172.6</ele>
        <time>2020-05-22T09:31:12.000Z</time>
      </trkpt>
      <trkpt lat="44.80159" lon="4.32257">
        <ele>1172.9</ele>
        <time>2020-05-22T09:31:15.000Z</time>
      </trkpt>
      <trkpt lat="44.8016" lon="4.32244">
        <ele>1173.4</ele>
        <time>2020-05-22T09:31:18.000Z</time>
      </trkpt>
      <trkpt lat="44.80161" lon="4.3223">
        <ele>1174</ele>
        <time>2020-05-22T09:31:21.000Z</time>
      </trkpt>
      <trkpt lat="44.80164" lon="4.32217">
        <ele>1174.5</ele>
        <time>2020-05-22T09:31:24.000Z</time>
      </trkpt>
      <trkpt lat="44.80168" lon="4.32204">
        <ele>1175.1</ele>
        <time>2020-05-22T09:31:27.000Z</time>
      </trkpt>
      <trkpt lat="44.80175" lon="4.3219">
        <ele>1175.7</ele>
        <time>2020-05-22T09:31:31.000Z</time>
      </trkpt>
      <trkpt lat="44.8018" lon="4.32179">
        <ele>1176.3</ele>
        <time>2020-05-22T09:31:34.000Z</time>
      </trkpt>
      <trkpt lat="44.80187" lon="4.3217">
        <ele>1176.9</ele>
        <time>2020-05-22T09:31:37.000Z</time>
      </trkpt>
      <trkpt lat="44.80193" lon="4.3216">
        <ele>1177.6</ele>
        <time>2020-05-22T09:31:40.000Z</time>
      </trkpt>
      <trkpt lat="44.80199" lon="4.3215">
        <ele>1178.2</ele>
        <time>2020-05-22T09:31:43.000Z</time>
      </trkpt>
      <trkpt lat="44.80205" lon="4.3214">
        <ele>1178.7</ele>
        <time>2020-05-22T09:31:46.000Z</time>
      </trkpt>
      <trkpt lat="44.80213" lon="4.32129">
        <ele>1179.2</ele>
        <time>2020-05-22T09:31:49.000Z</time>
      </trkpt>
      <trkpt lat="44.8022" lon="4.32118">
        <ele>1179.5</ele>
        <time>2020-05-22T09:31:52.000Z</time>
      </trkpt>
      <trkpt lat="44.80227" lon="4.32107">
        <ele>1180</ele>
        <time>2020-05-22T09:31:55.000Z</time>
      </trkpt>
      <trkpt lat="44.80234" lon="4.32095">
        <ele>1180.4</ele>
        <time>2020-05-22T09:31:58.000Z</time>
      </trkpt>
      <trkpt lat="44.80241" lon="4.32084">
        <ele>1180.8</ele>
        <time>2020-05-22T09:32:01.000Z</time>
      </trkpt>
      <trkpt lat="44.80247" lon="4.32072">
        <ele>1181.3</ele>
        <time>2020-05-22T09:32:04.000Z</time>
      </trkpt>
      <trkpt lat="44.80252" lon="4.3206">
        <ele>1181.8</ele>
        <time>2020-05-22T09:32:07.000Z</time>
      </trkpt>
      <trkpt lat="44.80258" lon="4.32049">
        <ele>1182.4</ele>
        <time>2020-05-22T09:32:10.000Z</time>
      </trkpt>
      <trkpt lat="44.80263" lon="4.32037">
        <ele>1182.9</ele>
        <time>2020-05-22T09:32:13.000Z</time>
      </trkpt>
      <trkpt lat="44.80268" lon="4.32024">
        <ele>1183.1</ele>
        <time>2020-05-22T09:32:16.000Z</time>
      </trkpt>
      <trkpt lat="44.80274" lon="4.32012">
        <ele>1183.3</ele>
        <time>2020-05-22T09:32:19.000Z</time>
      </trkpt>
      <trkpt lat="44.80279" lon="4.31999">
        <ele>1183.5</ele>
        <time>2020-05-22T09:32:22.000Z</time>
      </trkpt>
      <trkpt lat="44.80284" lon="4.31987">
        <ele>1183.8</ele>
        <time>2020-05-22T09:32:25.000Z</time>
      </trkpt>
      <trkpt lat="44.80289" lon="4.31975">
        <ele>1184.1</ele>
        <time>2020-05-22T09:32:28.000Z</time>
      </trkpt>
      <trkpt lat="44.80295" lon="4.31963">
        <ele>1184.5</ele>
        <time>2020-05-22T09:32:31.000Z</time>
      </trkpt>
      <trkpt lat="44.803" lon="4.31952">
        <ele>1184.9</ele>
        <time>2020-05-22T09:32:34.000Z</time>
      </trkpt>
      <trkpt lat="44.80305" lon="4.31941">
        <ele>1185.4</ele>
        <time>2020-05-22T09:32:37.000Z</time>
      </trkpt>
      <trkpt lat="44.8031" lon="4.3193">
        <ele>1185.9</ele>
        <time>2020-05-22T09:32:40.000Z</time>
      </trkpt>
      <trkpt lat="44.80314" lon="4.31918">
        <ele>1186.5</ele>
        <time>2020-05-22T09:32:43.000Z</time>
      </trkpt>
      <trkpt lat="44.8032" lon="4.31903">
        <ele>1187.3</ele>
        <time>2020-05-22T09:32:47.000Z</time>
      </trkpt>
      <trkpt lat="44.80324" lon="4.31891">
        <ele>1187.9</ele>
        <time>2020-05-22T09:32:50.000Z</time>
      </trkpt>
      <trkpt lat="44.80327" lon="4.31879">
        <ele>1188.5</ele>
        <time>2020-05-22T09:32:53.000Z</time>
      </trkpt>
      <trkpt lat="44.80329" lon="4.31866">
        <ele>1189.1</ele>
        <time>2020-05-22T09:32:56.000Z</time>
      </trkpt>
      <trkpt lat="44.80331" lon="4.31854">
        <ele>1189.8</ele>
        <time>2020-05-22T09:32:59.000Z</time>
      </trkpt>
      <trkpt lat="44.80332" lon="4.3184">
        <ele>1190.2</ele>
        <time>2020-05-22T09:33:02.000Z</time>
      </trkpt>
      <trkpt lat="44.80333" lon="4.31827">
        <ele>1190.7</ele>
        <time>2020-05-22T09:33:05.000Z</time>
      </trkpt>
      <trkpt lat="44.80334" lon="4.31814">
        <ele>1191.1</ele>
        <time>2020-05-22T09:33:08.000Z</time>
      </trkpt>
      <trkpt lat="44.80335" lon="4.31801">
        <ele>1191.6</ele>
        <time>2020-05-22T09:33:11.000Z</time>
      </trkpt>
      <trkpt lat="44.80336" lon="4.31787">
        <ele>1192</ele>
        <time>2020-05-22T09:33:14.000Z</time>
      </trkpt>
      <trkpt lat="44.80337" lon="4.31774">
        <ele>1192.3</ele>
        <time>2020-05-22T09:33:17.000Z</time>
      </trkpt>
      <trkpt lat="44.80339" lon="4.31761">
        <ele>1192.8</ele>
        <time>2020-05-22T09:33:20.000Z</time>
      </trkpt>
      <trkpt lat="44.8034" lon="4.31748">
        <ele>1193</ele>
        <time>2020-05-22T09:33:23.000Z</time>
      </trkpt>
      <trkpt lat="44.80341" lon="4.31735">
        <ele>1193.3</ele>
        <time>2020-05-22T09:33:26.000Z</time>
      </trkpt>
      <trkpt lat="44.80342" lon="4.31722">
        <ele>1193.7</ele>
        <time>2020-05-22T09:33:29.000Z</time>
      </trkpt>
      <trkpt lat="44.80343" lon="4.31708">
        <ele>1194.2</ele>
        <time>2020-05-22T09:33:32.000Z</time>
      </trkpt>
      <trkpt lat="44.80344" lon="4.31695">
        <ele>1194.7</ele>
        <time>2020-05-22T09:33:35.000Z</time>
      </trkpt>
      <trkpt lat="44.80345" lon="4.31682">
        <ele>1195.2</ele>
        <time>2020-05-22T09:33:38.000Z</time>
      </trkpt>
      <trkpt lat="44.80346" lon="4.31668">
        <ele>1195.7</ele>
        <time>2020-05-22T09:33:41.000Z</time>
      </trkpt>
      <trkpt lat="44.80347" lon="4.31655">
        <ele>1196.3</ele>
        <time>2020-05-22T09:33:44.000Z</time>
      </trkpt>
      <trkpt lat="44.80346" lon="4.31642">
        <ele>1197.1</ele>
        <time>2020-05-22T09:33:47.000Z</time>
      </trkpt>
      <trkpt lat="44.80345" lon="4.31629">
        <ele>1197.7</ele>
        <time>2020-05-22T09:33:50.000Z</time>
      </trkpt>
      <trkpt lat="44.80343" lon="4.31616">
        <ele>1198.2</ele>
        <time>2020-05-22T09:33:53.000Z</time>
      </trkpt>
      <trkpt lat="44.80341" lon="4.31603">
        <ele>1198.7</ele>
        <time>2020-05-22T09:33:56.000Z</time>
      </trkpt>
      <trkpt lat="44.80337" lon="4.3159">
        <ele>1198.9</ele>
        <time>2020-05-22T09:33:59.000Z</time>
      </trkpt>
      <trkpt lat="44.80333" lon="4.31577">
        <ele>1199.1</ele>
        <time>2020-05-22T09:34:02.000Z</time>
      </trkpt>
      <trkpt lat="44.80329" lon="4.31562">
        <ele>1199.1</ele>
        <time>2020-05-22T09:34:05.000Z</time>
      </trkpt>
      <trkpt lat="44.80324" lon="4.31546">
        <ele>1199.3</ele>
        <time>2020-05-22T09:34:08.000Z</time>
      </trkpt>
      <trkpt lat="44.80319" lon="4.31531">
        <ele>1199.4</ele>
        <time>2020-05-22T09:34:11.000Z</time>
      </trkpt>
      <trkpt lat="44.80315" lon="4.31515">
        <ele>1199.5</ele>
        <time>2020-05-22T09:34:14.000Z</time>
      </trkpt>
      <trkpt lat="44.8031" lon="4.315">
        <ele>1199.7</ele>
        <time>2020-05-22T09:34:17.000Z</time>
      </trkpt>
      <trkpt lat="44.80306" lon="4.31485">
        <ele>1200</ele>
        <time>2020-05-22T09:34:20.000Z</time>
      </trkpt>
      <trkpt lat="44.80302" lon="4.3147">
        <ele>1200.4</ele>
        <time>2020-05-22T09:34:23.000Z</time>
      </trkpt>
      <trkpt lat="44.80298" lon="4.31456">
        <ele>1200.9</ele>
        <time>2020-05-22T09:34:26.000Z</time>
      </trkpt>
      <trkpt lat="44.80293" lon="4.31441">
        <ele>1201.3</ele>
        <time>2020-05-22T09:34:29.000Z</time>
      </trkpt>
      <trkpt lat="44.80289" lon="4.31426">
        <ele>1201.7</ele>
        <time>2020-05-22T09:34:32.000Z</time>
      </trkpt>
      <trkpt lat="44.80284" lon="4.31413">
        <ele>1202</ele>
        <time>2020-05-22T09:34:35.000Z</time>
      </trkpt>
      <trkpt lat="44.80281" lon="4.31397">
        <ele>1202.3</ele>
        <time>2020-05-22T09:34:38.000Z</time>
      </trkpt>
      <trkpt lat="44.80276" lon="4.31382">
        <ele>1202.5</ele>
        <time>2020-05-22T09:34:41.000Z</time>
      </trkpt>
      <trkpt lat="44.80272" lon="4.31365">
        <ele>1202.7</ele>
        <time>2020-05-22T09:34:44.000Z</time>
      </trkpt>
      <trkpt lat="44.80267" lon="4.31349">
        <ele>1203</ele>
        <time>2020-05-22T09:34:47.000Z</time>
      </trkpt>
      <trkpt lat="44.80263" lon="4.31332">
        <ele>1203.3</ele>
        <time>2020-05-22T09:34:50.000Z</time>
      </trkpt>
      <trkpt lat="44.80259" lon="4.31316">
        <ele>1203.7</ele>
        <time>2020-05-22T09:34:53.000Z</time>
      </trkpt>
      <trkpt lat="44.80257" lon="4.31299">
        <ele>1204.2</ele>
        <time>2020-05-22T09:34:56.000Z</time>
      </trkpt>
      <trkpt lat="44.80255" lon="4.31281">
        <ele>1204.6</ele>
        <time>2020-05-22T09:34:59.000Z</time>
      </trkpt>
      <trkpt lat="44.80255" lon="4.31262">
        <ele>1205.2</ele>
        <time>2020-05-22T09:35:02.000Z</time>
      </trkpt>
      <trkpt lat="44.80256" lon="4.31244">
        <ele>1205.8</ele>
        <time>2020-05-22T09:35:05.000Z</time>
      </trkpt>
      <trkpt lat="44.80259" lon="4.31228">
        <ele>1206.3</ele>
        <time>2020-05-22T09:35:08.000Z</time>
      </trkpt>
      <trkpt lat="44.80263" lon="4.31212">
        <ele>1206.9</ele>
        <time>2020-05-22T09:35:11.000Z</time>
      </trkpt>
      <trkpt lat="44.80268" lon="4.31197">
        <ele>1207.7</ele>
        <time>2020-05-22T09:35:14.000Z</time>
      </trkpt>
      <trkpt lat="44.80273" lon="4.31183">
        <ele>1208.2</ele>
        <time>2020-05-22T09:35:17.000Z</time>
      </trkpt>
      <trkpt lat="44.80279" lon="4.31169">
        <ele>1208.6</ele>
        <time>2020-05-22T09:35:20.000Z</time>
      </trkpt>
      <trkpt lat="44.80286" lon="4.31156">
        <ele>1209</ele>
        <time>2020-05-22T09:35:23.000Z</time>
      </trkpt>
      <trkpt lat="44.80291" lon="4.31142">
        <ele>1209.6</ele>
        <time>2020-05-22T09:35:26.000Z</time>
      </trkpt>
      <trkpt lat="44.80296" lon="4.31127">
        <ele>1210.3</ele>
        <time>2020-05-22T09:35:29.000Z</time>
      </trkpt>
      <trkpt lat="44.80299" lon="4.31113">
        <ele>1210.9</ele>
        <time>2020-05-22T09:35:32.000Z</time>
      </trkpt>
      <trkpt lat="44.80301" lon="4.31098">
        <ele>1211.5</ele>
        <time>2020-05-22T09:35:35.000Z</time>
      </trkpt>
      <trkpt lat="44.80301" lon="4.31083">
        <ele>1212</ele>
        <time>2020-05-22T09:35:38.000Z</time>
      </trkpt>
      <trkpt lat="44.80301" lon="4.31068">
        <ele>1212.3</ele>
        <time>2020-05-22T09:35:41.000Z</time>
      </trkpt>
      <trkpt lat="44.80301" lon="4.31053">
        <ele>1212.5</ele>
        <time>2020-05-22T09:35:44.000Z</time>
      </trkpt>
      <trkpt lat="44.80301" lon="4.31037">
        <ele>1212.7</ele>
        <time>2020-05-22T09:35:47.000Z</time>
      </trkpt>
      <trkpt lat="44.80301" lon="4.31022">
        <ele>1213</ele>
        <time>2020-05-22T09:35:50.000Z</time>
      </trkpt>
      <trkpt lat="44.80301" lon="4.31007">
        <ele>1213.5</ele>
        <time>2020-05-22T09:35:53.000Z</time>
      </trkpt>
      <trkpt lat="44.80303" lon="4.30991">
        <ele>1213.9</ele>
        <time>2020-05-22T09:35:56.000Z</time>
      </trkpt>
      <trkpt lat="44.80307" lon="4.30977">
        <ele>1214.2</ele>
        <time>2020-05-22T09:35:59.000Z</time>
      </trkpt>
      <trkpt lat="44.80311" lon="4.30963">
        <ele>1214.7</ele>
        <time>2020-05-22T09:36:02.000Z</time>
      </trkpt>
      <trkpt lat="44.80316" lon="4.3095">
        <ele>1215.2</ele>
        <time>2020-05-22T09:36:05.000Z</time>
      </trkpt>
      <trkpt lat="44.80322" lon="4.30937">
        <ele>1215.6</ele>
        <time>2020-05-22T09:36:08.000Z</time>
      </trkpt>
      <trkpt lat="44.80328" lon="4.30925">
        <ele>1216</ele>
        <time>2020-05-22T09:36:11.000Z</time>
      </trkpt>
      <trkpt lat="44.80336" lon="4.30915">
        <ele>1216.6</ele>
        <time>2020-05-22T09:36:14.000Z</time>
      </trkpt>
      <trkpt lat="44.80343" lon="4.30904">
        <ele>1217.2</ele>
        <time>2020-05-22T09:36:17.000Z</time>
      </trkpt>
      <trkpt lat="44.8035" lon="4.30893">
        <ele>1217.7</ele>
        <time>2020-05-22T09:36:20.000Z</time>
      </trkpt>
      <trkpt lat="44.80357" lon="4.30881">
        <ele>1218.2</ele>
        <time>2020-05-22T09:36:23.000Z</time>
      </trkpt>
      <trkpt lat="44.80365" lon="4.30869">
        <ele>1218.8</ele>
        <time>2020-05-22T09:36:26.000Z</time>
      </trkpt>
      <trkpt lat="44.80372" lon="4.30858">
        <ele>1219.4</ele>
        <time>2020-05-22T09:36:29.000Z</time>
      </trkpt>
      <trkpt lat="44.8038" lon="4.30846">
        <ele>1220</ele>
        <time>2020-05-22T09:36:32.000Z</time>
      </trkpt>
      <trkpt lat="44.80387" lon="4.30834">
        <ele>1220.5</ele>
        <time>2020-05-22T09:36:35.000Z</time>
      </trkpt>
      <trkpt lat="44.80394" lon="4.30823">
        <ele>1220.9</ele>
        <time>2020-05-22T09:36:38.000Z</time>
      </trkpt>
      <trkpt lat="44.80402" lon="4.30812">
        <ele>1221.2</ele>
        <time>2020-05-22T09:36:41.000Z</time>
      </trkpt>
      <trkpt lat="44.80412" lon="4.30802">
        <ele>1221.6</ele>
        <time>2020-05-22T09:36:44.000Z</time>
      </trkpt>
      <trkpt lat="44.80422" lon="4.30794">
        <ele>1222</ele>
        <time>2020-05-22T09:36:47.000Z</time>
      </trkpt>
      <trkpt lat="44.80433" lon="4.3079">
        <ele>1222.3</ele>
        <time>2020-05-22T09:36:50.000Z</time>
      </trkpt>
      <trkpt lat="44.80444" lon="4.30787">
        <ele>1222.8</ele>
        <time>2020-05-22T09:36:53.000Z</time>
      </trkpt>
      <trkpt lat="44.80454" lon="4.30782">
        <ele>1223.3</ele>
        <time>2020-05-22T09:36:56.000Z</time>
      </trkpt>
      <trkpt lat="44.80465" lon="4.30778">
        <ele>1223.7</ele>
        <time>2020-05-22T09:36:59.000Z</time>
      </trkpt>
      <trkpt lat="44.80475" lon="4.30771">
        <ele>1224.2</ele>
        <time>2020-05-22T09:37:02.000Z</time>
      </trkpt>
      <trkpt lat="44.80485" lon="4.30764">
        <ele>1224.7</ele>
        <time>2020-05-22T09:37:05.000Z</time>
      </trkpt>
      <trkpt lat="44.80495" lon="4.30757">
        <ele>1225.2</ele>
        <time>2020-05-22T09:37:08.000Z</time>
      </trkpt>
      <trkpt lat="44.80506" lon="4.30752">
        <ele>1225.4</ele>
        <time>2020-05-22T09:37:11.000Z</time>
      </trkpt>
      <trkpt lat="44.80517" lon="4.30747">
        <ele>1225.6</ele>
        <time>2020-05-22T09:37:14.000Z</time>
      </trkpt>
      <trkpt lat="44.80527" lon="4.30744">
        <ele>1225.9</ele>
        <time>2020-05-22T09:37:17.000Z</time>
      </trkpt>
      <trkpt lat="44.80539" lon="4.30742">
        <ele>1226.3</ele>
        <time>2020-05-22T09:37:20.000Z</time>
      </trkpt>
      <trkpt lat="44.8055" lon="4.3074">
        <ele>1226.6</ele>
        <time>2020-05-22T09:37:23.000Z</time>
      </trkpt>
      <trkpt lat="44.80562" lon="4.30738">
        <ele>1227</ele>
        <time>2020-05-22T09:37:26.000Z</time>
      </trkpt>
      <trkpt lat="44.80573" lon="4.30735">
        <ele>1227.4</ele>
        <time>2020-05-22T09:37:29.000Z</time>
      </trkpt>
      <trkpt lat="44.80584" lon="4.3073">
        <ele>1227.8</ele>
        <time>2020-05-22T09:37:32.000Z</time>
      </trkpt>
      <trkpt lat="44.80595" lon="4.30722">
        <ele>1228.2</ele>
        <time>2020-05-22T09:37:35.000Z</time>
      </trkpt>
      <trkpt lat="44.80604" lon="4.30712">
        <ele>1228.6</ele>
        <time>2020-05-22T09:37:38.000Z</time>
      </trkpt>
      <trkpt lat="44.80612" lon="4.30699">
        <ele>1229</ele>
        <time>2020-05-22T09:37:41.000Z</time>
      </trkpt>
      <trkpt lat="44.80622" lon="4.30686">
        <ele>1229.6</ele>
        <time>2020-05-22T09:37:44.000Z</time>
      </trkpt>
      <trkpt lat="44.8063" lon="4.30674">
        <ele>1230.3</ele>
        <time>2020-05-22T09:37:47.000Z</time>
      </trkpt>
      <trkpt lat="44.8064" lon="4.30664">
        <ele>1231</ele>
        <time>2020-05-22T09:37:50.000Z</time>
      </trkpt>
      <trkpt lat="44.8065" lon="4.30656">
        <ele>1231.5</ele>
        <time>2020-05-22T09:37:53.000Z</time>
      </trkpt>
      <trkpt lat="44.8066" lon="4.30648">
        <ele>1232</ele>
        <time>2020-05-22T09:37:56.000Z</time>
      </trkpt>
      <trkpt lat="44.80669" lon="4.30641">
        <ele>1232.5</ele>
        <time>2020-05-22T09:37:59.000Z</time>
      </trkpt>
      <trkpt lat="44.80679" lon="4.30634">
        <ele>1232.9</ele>
        <time>2020-05-22T09:38:02.000Z</time>
      </trkpt>
      <trkpt lat="44.80689" lon="4.30626">
        <ele>1233.3</ele>
        <time>2020-05-22T09:38:05.000Z</time>
      </trkpt>
      <trkpt lat="44.80698" lon="4.30618">
        <ele>1233.7</ele>
        <time>2020-05-22T09:38:08.000Z</time>
      </trkpt>
      <trkpt lat="44.80707" lon="4.30607">
        <ele>1234.1</ele>
        <time>2020-05-22T09:38:11.000Z</time>
      </trkpt>
      <trkpt lat="44.80717" lon="4.30595">
        <ele>1234.6</ele>
        <time>2020-05-22T09:38:14.000Z</time>
      </trkpt>
      <trkpt lat="44.80725" lon="4.30582">
        <ele>1235.1</ele>
        <time>2020-05-22T09:38:17.000Z</time>
      </trkpt>
      <trkpt lat="44.80732" lon="4.30569">
        <ele>1235.6</ele>
        <time>2020-05-22T09:38:20.000Z</time>
      </trkpt>
      <trkpt lat="44.80738" lon="4.30556">
        <ele>1236.1</ele>
        <time>2020-05-22T09:38:23.000Z</time>
      </trkpt>
      <trkpt lat="44.80745" lon="4.30544">
        <ele>1236.6</ele>
        <time>2020-05-22T09:38:26.000Z</time>
      </trkpt>
      <trkpt lat="44.80754" lon="4.30533">
        <ele>1237.1</ele>
        <time>2020-05-22T09:38:29.000Z</time>
      </trkpt>
      <trkpt lat="44.80763" lon="4.30523">
        <ele>1237.6</ele>
        <time>2020-05-22T09:38:32.000Z</time>
      </trkpt>
      <trkpt lat="44.80772" lon="4.30515">
        <ele>1238.1</ele>
        <time>2020-05-22T09:38:35.000Z</time>
      </trkpt>
      <trkpt lat="44.80782" lon="4.30508">
        <ele>1238.5</ele>
        <time>2020-05-22T09:38:38.000Z</time>
      </trkpt>
      <trkpt lat="44.80793" lon="4.305">
        <ele>1238.9</ele>
        <time>2020-05-22T09:38:41.000Z</time>
      </trkpt>
      <trkpt lat="44.80805" lon="4.30494">
        <ele>1239.3</ele>
        <time>2020-05-22T09:38:44.000Z</time>
      </trkpt>
      <trkpt lat="44.80816" lon="4.30489">
        <ele>1239.5</ele>
        <time>2020-05-22T09:38:47.000Z</time>
      </trkpt>
      <trkpt lat="44.80827" lon="4.30484">
        <ele>1239.8</ele>
        <time>2020-05-22T09:38:50.000Z</time>
      </trkpt>
      <trkpt lat="44.80838" lon="4.30479">
        <ele>1240.1</ele>
        <time>2020-05-22T09:38:53.000Z</time>
      </trkpt>
      <trkpt lat="44.80849" lon="4.30474">
        <ele>1240.5</ele>
        <time>2020-05-22T09:38:56.000Z</time>
      </trkpt>
      <trkpt lat="44.80859" lon="4.3047">
        <ele>1240.9</ele>
        <time>2020-05-22T09:38:59.000Z</time>
      </trkpt>
      <trkpt lat="44.8087" lon="4.30464">
        <ele>1241.3</ele>
        <time>2020-05-22T09:39:02.000Z</time>
      </trkpt>
      <trkpt lat="44.80881" lon="4.30458">
        <ele>1241.6</ele>
        <time>2020-05-22T09:39:05.000Z</time>
      </trkpt>
      <trkpt lat="44.80891" lon="4.3045">
        <ele>1242.1</ele>
        <time>2020-05-22T09:39:08.000Z</time>
      </trkpt>
      <trkpt lat="44.809" lon="4.3044">
        <ele>1242.4</ele>
        <time>2020-05-22T09:39:11.000Z</time>
      </trkpt>
      <trkpt lat="44.80909" lon="4.30429">
        <ele>1243</ele>
        <time>2020-05-22T09:39:14.000Z</time>
      </trkpt>
      <trkpt lat="44.80916" lon="4.30416">
        <ele>1243.6</ele>
        <time>2020-05-22T09:39:17.000Z</time>
      </trkpt>
      <trkpt lat="44.80921" lon="4.30402">
        <ele>1244.2</ele>
        <time>2020-05-22T09:39:20.000Z</time>
      </trkpt>
      <trkpt lat="44.80925" lon="4.30386">
        <ele>1244.7</ele>
        <time>2020-05-22T09:39:23.000Z</time>
      </trkpt>
      <trkpt lat="44.80925" lon="4.3037">
        <ele>1245.1</ele>
        <time>2020-05-22T09:39:26.000Z</time>
      </trkpt>
      <trkpt lat="44.80922" lon="4.30355">
        <ele>1245.5</ele>
        <time>2020-05-22T09:39:29.000Z</time>
      </trkpt>
      <trkpt lat="44.80918" lon="4.3034">
        <ele>1246</ele>
        <time>2020-05-22T09:39:32.000Z</time>
      </trkpt>
      <trkpt lat="44.80912" lon="4.30326">
        <ele>1246.5</ele>
        <time>2020-05-22T09:39:35.000Z</time>
      </trkpt>
      <trkpt lat="44.80905" lon="4.30314">
        <ele>1247.1</ele>
        <time>2020-05-22T09:39:38.000Z</time>
      </trkpt>
      <trkpt lat="44.80899" lon="4.30302">
        <ele>1247.6</ele>
        <time>2020-05-22T09:39:41.000Z</time>
      </trkpt>
      <trkpt lat="44.80892" lon="4.3029">
        <ele>1248.1</ele>
        <time>2020-05-22T09:39:44.000Z</time>
      </trkpt>
      <trkpt lat="44.80886" lon="4.30279">
        <ele>1248.3</ele>
        <time>2020-05-22T09:39:47.000Z</time>
      </trkpt>
      <trkpt lat="44.80881" lon="4.30268">
        <ele>1248.7</ele>
        <time>2020-05-22T09:39:50.000Z</time>
      </trkpt>
      <trkpt lat="44.80876" lon="4.30257">
        <ele>1249</ele>
        <time>2020-05-22T09:39:53.000Z</time>
      </trkpt>
      <trkpt lat="44.80871" lon="4.30246">
        <ele>1249.4</ele>
        <time>2020-05-22T09:39:56.000Z</time>
      </trkpt>
      <trkpt lat="44.80866" lon="4.30234">
        <ele>1249.7</ele>
        <time>2020-05-22T09:39:59.000Z</time>
      </trkpt>
      <trkpt lat="44.80861" lon="4.30223">
        <ele>1250.1</ele>
        <time>2020-05-22T09:40:02.000Z</time>
      </trkpt>
      <trkpt lat="44.80855" lon="4.30212">
        <ele>1250.4</ele>
        <time>2020-05-22T09:40:05.000Z</time>
      </trkpt>
      <trkpt lat="44.80849" lon="4.30199">
        <ele>1250.7</ele>
        <time>2020-05-22T09:40:08.000Z</time>
      </trkpt>
      <trkpt lat="44.80843" lon="4.30187">
        <ele>1251.1</ele>
        <time>2020-05-22T09:40:11.000Z</time>
      </trkpt>
      <trkpt lat="44.80837" lon="4.30173">
        <ele>1251.5</ele>
        <time>2020-05-22T09:40:14.000Z</time>
      </trkpt>
      <trkpt lat="44.8083" lon="4.30158">
        <ele>1251.8</ele>
        <time>2020-05-22T09:40:17.000Z</time>
      </trkpt>
      <trkpt lat="44.80824" lon="4.30144">
        <ele>1252.2</ele>
        <time>2020-05-22T09:40:20.000Z</time>
      </trkpt>
      <trkpt lat="44.80819" lon="4.3013">
        <ele>1252.6</ele>
        <time>2020-05-22T09:40:23.000Z</time>
      </trkpt>
      <trkpt lat="44.80815" lon="4.30115">
        <ele>1253.2</ele>
        <time>2020-05-22T09:40:26.000Z</time>
      </trkpt>
      <trkpt lat="44.80813" lon="4.30098">
        <ele>1253.7</ele>
        <time>2020-05-22T09:40:29.000Z</time>
      </trkpt>
      <trkpt lat="44.80815" lon="4.30079">
        <ele>1254.1</ele>
        <time>2020-05-22T09:40:32.000Z</time>
      </trkpt>
      <trkpt lat="44.80818" lon="4.30066">
        <ele>1254.2</ele>
        <time>2020-05-22T09:40:34.000Z</time>
      </trkpt>
      <trkpt lat="44.80822" lon="4.30053">
        <ele>1254.3</ele>
        <time>2020-05-22T09:40:36.000Z</time>
      </trkpt>
      <trkpt lat="44.80826" lon="4.3004">
        <ele>1254.4</ele>
        <time>2020-05-22T09:40:38.000Z</time>
      </trkpt>
      <trkpt lat="44.80831" lon="4.30027">
        <ele>1254.5</ele>
        <time>2020-05-22T09:40:40.000Z</time>
      </trkpt>
      <trkpt lat="44.80835" lon="4.30014">
        <ele>1254.6</ele>
        <time>2020-05-22T09:40:42.000Z</time>
      </trkpt>
      <trkpt lat="44.80839" lon="4.29999">
        <ele>1254.8</ele>
        <time>2020-05-22T09:40:44.000Z</time>
      </trkpt>
      <trkpt lat="44.80844" lon="4.29984">
        <ele>1254.8</ele>
        <time>2020-05-22T09:40:46.000Z</time>
      </trkpt>
      <trkpt lat="44.80848" lon="4.29969">
        <ele>1254.9</ele>
        <time>2020-05-22T09:40:48.000Z</time>
      </trkpt>
      <trkpt lat="44.80851" lon="4.29953">
        <ele>1254.9</ele>
        <time>2020-05-22T09:40:50.000Z</time>
      </trkpt>
      <trkpt lat="44.80852" lon="4.29936">
        <ele>1254.9</ele>
        <time>2020-05-22T09:40:52.000Z</time>
      </trkpt>
      <trkpt lat="44.80852" lon="4.2992">
        <ele>1254.9</ele>
        <time>2020-05-22T09:40:54.000Z</time>
      </trkpt>
      <trkpt lat="44.80851" lon="4.29904">
        <ele>1254.8</ele>
        <time>2020-05-22T09:40:56.000Z</time>
      </trkpt>
      <trkpt lat="44.80851" lon="4.29888">
        <ele>1254.7</ele>
        <time>2020-05-22T09:40:58.000Z</time>
      </trkpt>
      <trkpt lat="44.8085" lon="4.29871">
        <ele>1254.7</ele>
        <time>2020-05-22T09:41:00.000Z</time>
      </trkpt>
      <trkpt lat="44.8085" lon="4.29855">
        <ele>1254.7</ele>
        <time>2020-05-22T09:41:02.000Z</time>
      </trkpt>
      <trkpt lat="44.8085" lon="4.29838">
        <ele>1254.6</ele>
        <time>2020-05-22T09:41:04.000Z</time>
      </trkpt>
      <trkpt lat="44.80849" lon="4.2982">
        <ele>1254.6</ele>
        <time>2020-05-22T09:41:06.000Z</time>
      </trkpt>
      <trkpt lat="44.80849" lon="4.29801">
        <ele>1254.6</ele>
        <time>2020-05-22T09:41:08.000Z</time>
      </trkpt>
      <trkpt lat="44.80848" lon="4.29783">
        <ele>1254.5</ele>
        <time>2020-05-22T09:41:10.000Z</time>
      </trkpt>
      <trkpt lat="44.80847" lon="4.29765">
        <ele>1254.6</ele>
        <time>2020-05-22T09:41:12.000Z</time>
      </trkpt>
      <trkpt lat="44.80847" lon="4.29748">
        <ele>1254.6</ele>
        <time>2020-05-22T09:41:14.000Z</time>
      </trkpt>
      <trkpt lat="44.80847" lon="4.29731">
        <ele>1254.5</ele>
        <time>2020-05-22T09:41:16.000Z</time>
      </trkpt>
      <trkpt lat="44.80848" lon="4.29712">
        <ele>1254.3</ele>
        <time>2020-05-22T09:41:18.000Z</time>
      </trkpt>
      <trkpt lat="44.80851" lon="4.29692">
        <ele>1254.1</ele>
        <time>2020-05-22T09:41:20.000Z</time>
      </trkpt>
      <trkpt lat="44.80854" lon="4.29672">
        <ele>1253.8</ele>
        <time>2020-05-22T09:41:22.000Z</time>
      </trkpt>
      <trkpt lat="44.80857" lon="4.29654">
        <ele>1253.7</ele>
        <time>2020-05-22T09:41:24.000Z</time>
      </trkpt>
      <trkpt lat="44.80859" lon="4.29636">
        <ele>1253.5</ele>
        <time>2020-05-22T09:41:26.000Z</time>
      </trkpt>
      <trkpt lat="44.80859" lon="4.29618">
        <ele>1253.4</ele>
        <time>2020-05-22T09:41:28.000Z</time>
      </trkpt>
      <trkpt lat="44.80859" lon="4.296">
        <ele>1253.5</ele>
        <time>2020-05-22T09:41:30.000Z</time>
      </trkpt>
      <trkpt lat="44.80858" lon="4.29582">
        <ele>1253.5</ele>
        <time>2020-05-22T09:41:32.000Z</time>
      </trkpt>
      <trkpt lat="44.80856" lon="4.29564">
        <ele>1253.5</ele>
        <time>2020-05-22T09:41:34.000Z</time>
      </trkpt>
      <trkpt lat="44.80853" lon="4.29546">
        <ele>1253.5</ele>
        <time>2020-05-22T09:41:36.000Z</time>
      </trkpt>
      <trkpt lat="44.80849" lon="4.29529">
        <ele>1253.4</ele>
        <time>2020-05-22T09:41:38.000Z</time>
      </trkpt>
      <trkpt lat="44.80843" lon="4.29512">
        <ele>1253.4</ele>
        <time>2020-05-22T09:41:40.000Z</time>
      </trkpt>
      <trkpt lat="44.80837" lon="4.29494">
        <ele>1253.3</ele>
        <time>2020-05-22T09:41:42.000Z</time>
      </trkpt>
      <trkpt lat="44.8083" lon="4.29477">
        <ele>1253.3</ele>
        <time>2020-05-22T09:41:44.000Z</time>
      </trkpt>
      <trkpt lat="44.80825" lon="4.2946">
        <ele>1253.2</ele>
        <time>2020-05-22T09:41:46.000Z</time>
      </trkpt>
      <trkpt lat="44.8082" lon="4.29444">
        <ele>1253</ele>
        <time>2020-05-22T09:41:48.000Z</time>
      </trkpt>
      <trkpt lat="44.80817" lon="4.29428">
        <ele>1252.8</ele>
        <time>2020-05-22T09:41:50.000Z</time>
      </trkpt>
      <trkpt lat="44.80816" lon="4.29412">
        <ele>1252.5</ele>
        <time>2020-05-22T09:41:52.000Z</time>
      </trkpt>
      <trkpt lat="44.80818" lon="4.29396">
        <ele>1252.2</ele>
        <time>2020-05-22T09:41:54.000Z</time>
      </trkpt>
      <trkpt lat="44.80823" lon="4.2938">
        <ele>1252.1</ele>
        <time>2020-05-22T09:41:56.000Z</time>
      </trkpt>
      <trkpt lat="44.80829" lon="4.29365">
        <ele>1251.9</ele>
        <time>2020-05-22T09:41:58.000Z</time>
      </trkpt>
      <trkpt lat="44.80836" lon="4.29351">
        <ele>1251.9</ele>
        <time>2020-05-22T09:42:00.000Z</time>
      </trkpt>
      <trkpt lat="44.80843" lon="4.29338">
        <ele>1251.8</ele>
        <time>2020-05-22T09:42:02.000Z</time>
      </trkpt>
      <trkpt lat="44.8085" lon="4.29325">
        <ele>1251.6</ele>
        <time>2020-05-22T09:42:04.000Z</time>
      </trkpt>
      <trkpt lat="44.80856" lon="4.29313">
        <ele>1251.5</ele>
        <time>2020-05-22T09:42:06.000Z</time>
      </trkpt>
      <trkpt lat="44.80862" lon="4.29302">
        <ele>1251.5</ele>
        <time>2020-05-22T09:42:08.000Z</time>
      </trkpt>
      <trkpt lat="44.80868" lon="4.29289">
        <ele>1251.5</ele>
        <time>2020-05-22T09:42:10.000Z</time>
      </trkpt>
      <trkpt lat="44.80875" lon="4.29277">
        <ele>1251.5</ele>
        <time>2020-05-22T09:42:12.000Z</time>
      </trkpt>
      <trkpt lat="44.8088" lon="4.29266">
        <ele>1251.5</ele>
        <time>2020-05-22T09:42:14.000Z</time>
      </trkpt>
      <trkpt lat="44.80886" lon="4.29255">
        <ele>1251.8</ele>
        <time>2020-05-22T09:42:16.000Z</time>
      </trkpt>
      <trkpt lat="44.80893" lon="4.29242">
        <ele>1252.1</ele>
        <time>2020-05-22T09:42:19.000Z</time>
      </trkpt>
      <trkpt lat="44.80895" lon="4.29239">
        <ele>1252.7</ele>
        <time>2020-05-22T09:42:26.000Z</time>
      </trkpt>
      <trkpt lat="44.809" lon="4.29225">
        <ele>1251.9</ele>
        <time>2020-05-22T09:46:03.000Z</time>
      </trkpt>
      <trkpt lat="44.80905" lon="4.29212">
        <ele>1251.8</ele>
        <time>2020-05-22T09:46:06.000Z</time>
      </trkpt>
      <trkpt lat="44.80912" lon="4.29199">
        <ele>1251.8</ele>
        <time>2020-05-22T09:46:09.000Z</time>
      </trkpt>
      <trkpt lat="44.8092" lon="4.29185">
        <ele>1251.9</ele>
        <time>2020-05-22T09:46:12.000Z</time>
      </trkpt>
      <trkpt lat="44.80928" lon="4.29171">
        <ele>1252</ele>
        <time>2020-05-22T09:46:15.000Z</time>
      </trkpt>
      <trkpt lat="44.80935" lon="4.29157">
        <ele>1252.3</ele>
        <time>2020-05-22T09:46:18.000Z</time>
      </trkpt>
      <trkpt lat="44.80942" lon="4.29143">
        <ele>1252.6</ele>
        <time>2020-05-22T09:46:21.000Z</time>
      </trkpt>
      <trkpt lat="44.80948" lon="4.29132">
        <ele>1252.9</ele>
        <time>2020-05-22T09:46:24.000Z</time>
      </trkpt>
      <trkpt lat="44.80954" lon="4.2912">
        <ele>1253.4</ele>
        <time>2020-05-22T09:46:27.000Z</time>
      </trkpt>
      <trkpt lat="44.80959" lon="4.29109">
        <ele>1253.9</ele>
        <time>2020-05-22T09:46:30.000Z</time>
      </trkpt>
      <trkpt lat="44.80966" lon="4.29098">
        <ele>1254.5</ele>
        <time>2020-05-22T09:46:33.000Z</time>
      </trkpt>
      <trkpt lat="44.80971" lon="4.29088">
        <ele>1255.2</ele>
        <time>2020-05-22T09:46:36.000Z</time>
      </trkpt>
      <trkpt lat="44.80977" lon="4.29077">
        <ele>1256.1</ele>
        <time>2020-05-22T09:46:40.000Z</time>
      </trkpt>
      <trkpt lat="44.8098" lon="4.29073">
        <ele>1257.2</ele>
        <time>2020-05-22T09:46:48.000Z</time>
      </trkpt>
      <trkpt lat="44.80978" lon="4.2906">
        <ele>1257.4</ele>
        <time>2020-05-22T09:46:54.000Z</time>
      </trkpt>
      <trkpt lat="44.8097" lon="4.29051">
        <ele>1258</ele>
        <time>2020-05-22T09:47:00.000Z</time>
      </trkpt>
      <trkpt lat="44.8097" lon="4.2905">
        <ele>1258.5</ele>
        <time>2020-05-22T09:47:04.000Z</time>
      </trkpt>
      <trkpt lat="44.8097" lon="4.29051">
        <ele>1259</ele>
        <time>2020-05-22T09:47:10.000Z</time>
      </trkpt>
      <trkpt lat="44.80967" lon="4.29064">
        <ele>1258.8</ele>
        <time>2020-05-22T09:47:30.000Z</time>
      </trkpt>
      <trkpt lat="44.8098" lon="4.29056">
        <ele>1259.4</ele>
        <time>2020-05-22T10:06:33.000Z</time>
      </trkpt>
      <trkpt lat="44.80979" lon="4.29073">
        <ele>1259.3</ele>
        <time>2020-05-22T10:06:37.000Z</time>
      </trkpt>
      <trkpt lat="44.80974" lon="4.29084">
        <ele>1259.1</ele>
        <time>2020-05-22T10:06:39.000Z</time>
      </trkpt>
      <trkpt lat="44.80967" lon="4.29096">
        <ele>1258.9</ele>
        <time>2020-05-22T10:06:41.000Z</time>
      </trkpt>
      <trkpt lat="44.8096" lon="4.2911">
        <ele>1258.6</ele>
        <time>2020-05-22T10:06:43.000Z</time>
      </trkpt>
      <trkpt lat="44.80955" lon="4.29125">
        <ele>1258.3</ele>
        <time>2020-05-22T10:06:45.000Z</time>
      </trkpt>
      <trkpt lat="44.80946" lon="4.29141">
        <ele>1258</ele>
        <time>2020-05-22T10:06:47.000Z</time>
      </trkpt>
      <trkpt lat="44.80936" lon="4.29157">
        <ele>1257.7</ele>
        <time>2020-05-22T10:06:49.000Z</time>
      </trkpt>
      <trkpt lat="44.80927" lon="4.29175">
        <ele>1257.4</ele>
        <time>2020-05-22T10:06:51.000Z</time>
      </trkpt>
      <trkpt lat="44.80918" lon="4.29192">
        <ele>1257.1</ele>
        <time>2020-05-22T10:06:53.000Z</time>
      </trkpt>
      <trkpt lat="44.80909" lon="4.29209">
        <ele>1256.8</ele>
        <time>2020-05-22T10:06:55.000Z</time>
      </trkpt>
      <trkpt lat="44.809" lon="4.29226">
        <ele>1256.5</ele>
        <time>2020-05-22T10:06:57.000Z</time>
      </trkpt>
      <trkpt lat="44.80891" lon="4.29243">
        <ele>1256.2</ele>
        <time>2020-05-22T10:06:59.000Z</time>
      </trkpt>
      <trkpt lat="44.80883" lon="4.2926">
        <ele>1256</ele>
        <time>2020-05-22T10:07:01.000Z</time>
      </trkpt>
      <trkpt lat="44.80874" lon="4.29276">
        <ele>1255.8</ele>
        <time>2020-05-22T10:07:03.000Z</time>
      </trkpt>
      <trkpt lat="44.80866" lon="4.29292">
        <ele>1255.7</ele>
        <time>2020-05-22T10:07:05.000Z</time>
      </trkpt>
      <trkpt lat="44.80858" lon="4.29307">
        <ele>1255.6</ele>
        <time>2020-05-22T10:07:07.000Z</time>
      </trkpt>
      <trkpt lat="44.8085" lon="4.29322">
        <ele>1255.4</ele>
        <time>2020-05-22T10:07:09.000Z</time>
      </trkpt>
      <trkpt lat="44.80842" lon="4.29337">
        <ele>1255.3</ele>
        <time>2020-05-22T10:07:11.000Z</time>
      </trkpt>
      <trkpt lat="44.80834" lon="4.2935">
        <ele>1255.2</ele>
        <time>2020-05-22T10:07:13.000Z</time>
      </trkpt>
      <trkpt lat="44.80827" lon="4.29365">
        <ele>1255.2</ele>
        <time>2020-05-22T10:07:15.000Z</time>
      </trkpt>
      <trkpt lat="44.80821" lon="4.29379">
        <ele>1255.1</ele>
        <time>2020-05-22T10:07:17.000Z</time>
      </trkpt>
      <trkpt lat="44.80816" lon="4.29393">
        <ele>1255.1</ele>
        <time>2020-05-22T10:07:19.000Z</time>
      </trkpt>
      <trkpt lat="44.80815" lon="4.29409">
        <ele>1255</ele>
        <time>2020-05-22T10:07:21.000Z</time>
      </trkpt>
      <trkpt lat="44.80816" lon="4.29425">
        <ele>1255</ele>
        <time>2020-05-22T10:07:23.000Z</time>
      </trkpt>
      <trkpt lat="44.80819" lon="4.29442">
        <ele>1255</ele>
        <time>2020-05-22T10:07:25.000Z</time>
      </trkpt>
      <trkpt lat="44.80823" lon="4.29458">
        <ele>1255</ele>
        <time>2020-05-22T10:07:27.000Z</time>
      </trkpt>
      <trkpt lat="44.80829" lon="4.29473">
        <ele>1255</ele>
        <time>2020-05-22T10:07:29.000Z</time>
      </trkpt>
      <trkpt lat="44.80834" lon="4.29489">
        <ele>1254.9</ele>
        <time>2020-05-22T10:07:31.000Z</time>
      </trkpt>
      <trkpt lat="44.80839" lon="4.29506">
        <ele>1254.9</ele>
        <time>2020-05-22T10:07:33.000Z</time>
      </trkpt>
      <trkpt lat="44.80845" lon="4.29522">
        <ele>1254.8</ele>
        <time>2020-05-22T10:07:35.000Z</time>
      </trkpt>
      <trkpt lat="44.80849" lon="4.29538">
        <ele>1254.8</ele>
        <time>2020-05-22T10:07:37.000Z</time>
      </trkpt>
      <trkpt lat="44.80852" lon="4.29556">
        <ele>1254.7</ele>
        <time>2020-05-22T10:07:39.000Z</time>
      </trkpt>
      <trkpt lat="44.80854" lon="4.29573">
        <ele>1254.7</ele>
        <time>2020-05-22T10:07:41.000Z</time>
      </trkpt>
      <trkpt lat="44.80856" lon="4.2959">
        <ele>1254.8</ele>
        <time>2020-05-22T10:07:43.000Z</time>
      </trkpt>
      <trkpt lat="44.80856" lon="4.29607">
        <ele>1254.8</ele>
        <time>2020-05-22T10:07:45.000Z</time>
      </trkpt>
      <trkpt lat="44.80856" lon="4.29624">
        <ele>1254.9</ele>
        <time>2020-05-22T10:07:47.000Z</time>
      </trkpt>
      <trkpt lat="44.80855" lon="4.29641">
        <ele>1255</ele>
        <time>2020-05-22T10:07:49.000Z</time>
      </trkpt>
      <trkpt lat="44.80853" lon="4.29657">
        <ele>1255.1</ele>
        <time>2020-05-22T10:07:51.000Z</time>
      </trkpt>
      <trkpt lat="44.8085" lon="4.29674">
        <ele>1255.2</ele>
        <time>2020-05-22T10:07:53.000Z</time>
      </trkpt>
      <trkpt lat="44.80848" lon="4.2969">
        <ele>1255.2</ele>
        <time>2020-05-22T10:07:55.000Z</time>
      </trkpt>
      <trkpt lat="44.80846" lon="4.29707">
        <ele>1255.3</ele>
        <time>2020-05-22T10:07:57.000Z</time>
      </trkpt>
      <trkpt lat="44.80845" lon="4.29723">
        <ele>1255.1</ele>
        <time>2020-05-22T10:07:59.000Z</time>
      </trkpt>
      <trkpt lat="44.80844" lon="4.2974">
        <ele>1255.2</ele>
        <time>2020-05-22T10:08:01.000Z</time>
      </trkpt>
      <trkpt lat="44.80845" lon="4.29756">
        <ele>1255.3</ele>
        <time>2020-05-22T10:08:03.000Z</time>
      </trkpt>
      <trkpt lat="44.80845" lon="4.29772">
        <ele>1255.3</ele>
        <time>2020-05-22T10:08:05.000Z</time>
      </trkpt>
      <trkpt lat="44.80846" lon="4.29787">
        <ele>1255.4</ele>
        <time>2020-05-22T10:08:07.000Z</time>
      </trkpt>
      <trkpt lat="44.80846" lon="4.29804">
        <ele>1255.4</ele>
        <time>2020-05-22T10:08:09.000Z</time>
      </trkpt>
      <trkpt lat="44.80847" lon="4.29819">
        <ele>1255.5</ele>
        <time>2020-05-22T10:08:11.000Z</time>
      </trkpt>
      <trkpt lat="44.80847" lon="4.29834">
        <ele>1255.5</ele>
        <time>2020-05-22T10:08:13.000Z</time>
      </trkpt>
      <trkpt lat="44.80847" lon="4.2985">
        <ele>1255.5</ele>
        <time>2020-05-22T10:08:15.000Z</time>
      </trkpt>
      <trkpt lat="44.80847" lon="4.29866">
        <ele>1255.5</ele>
        <time>2020-05-22T10:08:17.000Z</time>
      </trkpt>
      <trkpt lat="44.80848" lon="4.29883">
        <ele>1255.5</ele>
        <time>2020-05-22T10:08:19.000Z</time>
      </trkpt>
      <trkpt lat="44.80848" lon="4.29899">
        <ele>1255.6</ele>
        <time>2020-05-22T10:08:21.000Z</time>
      </trkpt>
      <trkpt lat="44.80848" lon="4.29916">
        <ele>1255.6</ele>
        <time>2020-05-22T10:08:23.000Z</time>
      </trkpt>
      <trkpt lat="44.80848" lon="4.29933">
        <ele>1255.7</ele>
        <time>2020-05-22T10:08:25.000Z</time>
      </trkpt>
      <trkpt lat="44.80846" lon="4.2995">
        <ele>1255.7</ele>
        <time>2020-05-22T10:08:27.000Z</time>
      </trkpt>
      <trkpt lat="44.80843" lon="4.29966">
        <ele>1255.8</ele>
        <time>2020-05-22T10:08:29.000Z</time>
      </trkpt>
      <trkpt lat="44.80839" lon="4.29981">
        <ele>1255.8</ele>
        <time>2020-05-22T10:08:31.000Z</time>
      </trkpt>
      <trkpt lat="44.80834" lon="4.29996">
        <ele>1255.9</ele>
        <time>2020-05-22T10:08:33.000Z</time>
      </trkpt>
      <trkpt lat="44.8083" lon="4.3001">
        <ele>1256</ele>
        <time>2020-05-22T10:08:35.000Z</time>
      </trkpt>
      <trkpt lat="44.80825" lon="4.30024">
        <ele>1256.2</ele>
        <time>2020-05-22T10:08:37.000Z</time>
      </trkpt>
      <trkpt lat="44.80822" lon="4.30039">
        <ele>1256.3</ele>
        <time>2020-05-22T10:08:39.000Z</time>
      </trkpt>
      <trkpt lat="44.80817" lon="4.30054">
        <ele>1256.4</ele>
        <time>2020-05-22T10:08:41.000Z</time>
      </trkpt>
      <trkpt lat="44.80814" lon="4.30068">
        <ele>1256.6</ele>
        <time>2020-05-22T10:08:43.000Z</time>
      </trkpt>
      <trkpt lat="44.80812" lon="4.30084">
        <ele>1256.7</ele>
        <time>2020-05-22T10:08:45.000Z</time>
      </trkpt>
      <trkpt lat="44.80812" lon="4.30099">
        <ele>1256.8</ele>
        <time>2020-05-22T10:08:47.000Z</time>
      </trkpt>
      <trkpt lat="44.80814" lon="4.30115">
        <ele>1256.9</ele>
        <time>2020-05-22T10:08:49.000Z</time>
      </trkpt>
      <trkpt lat="44.80818" lon="4.30131">
        <ele>1257</ele>
        <time>2020-05-22T10:08:51.000Z</time>
      </trkpt>
      <trkpt lat="44.80825" lon="4.30147">
        <ele>1257</ele>
        <time>2020-05-22T10:08:53.000Z</time>
      </trkpt>
      <trkpt lat="44.80832" lon="4.30163">
        <ele>1256.8</ele>
        <time>2020-05-22T10:08:55.000Z</time>
      </trkpt>
      <trkpt lat="44.80839" lon="4.3018">
        <ele>1256.5</ele>
        <time>2020-05-22T10:08:57.000Z</time>
      </trkpt>
      <trkpt lat="44.80848" lon="4.30198">
        <ele>1256.2</ele>
        <time>2020-05-22T10:08:59.000Z</time>
      </trkpt>
      <trkpt lat="44.80856" lon="4.30216">
        <ele>1255.8</ele>
        <time>2020-05-22T10:09:01.000Z</time>
      </trkpt>
      <trkpt lat="44.80864" lon="4.30235">
        <ele>1255.4</ele>
        <time>2020-05-22T10:09:03.000Z</time>
      </trkpt>
      <trkpt lat="44.80873" lon="4.30255">
        <ele>1255</ele>
        <time>2020-05-22T10:09:05.000Z</time>
      </trkpt>
      <trkpt lat="44.80882" lon="4.30275">
        <ele>1254.7</ele>
        <time>2020-05-22T10:09:07.000Z</time>
      </trkpt>
      <trkpt lat="44.80892" lon="4.30292">
        <ele>1254.3</ele>
        <time>2020-05-22T10:09:09.000Z</time>
      </trkpt>
      <trkpt lat="44.809" lon="4.30309">
        <ele>1253.8</ele>
        <time>2020-05-22T10:09:11.000Z</time>
      </trkpt>
      <trkpt lat="44.80909" lon="4.30324">
        <ele>1253.3</ele>
        <time>2020-05-22T10:09:13.000Z</time>
      </trkpt>
      <trkpt lat="44.80915" lon="4.30336">
        <ele>1252.7</ele>
        <time>2020-05-22T10:09:15.000Z</time>
      </trkpt>
      <trkpt lat="44.80921" lon="4.30339">
        <ele>1250.4</ele>
        <time>2020-05-22T10:09:23.000Z</time>
      </trkpt>
      <trkpt lat="44.80918" lon="4.30354">
        <ele>1249.3</ele>
        <time>2020-05-22T10:10:31.000Z</time>
      </trkpt>
      <trkpt lat="44.80921" lon="4.30373">
        <ele>1249.2</ele>
        <time>2020-05-22T10:10:34.000Z</time>
      </trkpt>
      <trkpt lat="44.8092" lon="4.30387">
        <ele>1249</ele>
        <time>2020-05-22T10:10:36.000Z</time>
      </trkpt>
      <trkpt lat="44.80916" lon="4.30403">
        <ele>1248.7</ele>
        <time>2020-05-22T10:10:38.000Z</time>
      </trkpt>
      <trkpt lat="44.80909" lon="4.30418">
        <ele>1248.3</ele>
        <time>2020-05-22T10:10:40.000Z</time>
      </trkpt>
      <trkpt lat="44.80899" lon="4.30432">
        <ele>1248</ele>
        <time>2020-05-22T10:10:42.000Z</time>
      </trkpt>
      <trkpt lat="44.80888" lon="4.30444">
        <ele>1247.6</ele>
        <time>2020-05-22T10:10:44.000Z</time>
      </trkpt>
      <trkpt lat="44.80875" lon="4.30454">
        <ele>1247.1</ele>
        <time>2020-05-22T10:10:46.000Z</time>
      </trkpt>
      <trkpt lat="44.8086" lon="4.30462">
        <ele>1246.7</ele>
        <time>2020-05-22T10:10:48.000Z</time>
      </trkpt>
      <trkpt lat="44.80845" lon="4.30469">
        <ele>1246.3</ele>
        <time>2020-05-22T10:10:50.000Z</time>
      </trkpt>
      <trkpt lat="44.80829" lon="4.30476">
        <ele>1246</ele>
        <time>2020-05-22T10:10:52.000Z</time>
      </trkpt>
      <trkpt lat="44.80813" lon="4.30484">
        <ele>1245.5</ele>
        <time>2020-05-22T10:10:54.000Z</time>
      </trkpt>
      <trkpt lat="44.80797" lon="4.30492">
        <ele>1245.1</ele>
        <time>2020-05-22T10:10:56.000Z</time>
      </trkpt>
      <trkpt lat="44.80782" lon="4.30502">
        <ele>1244.6</ele>
        <time>2020-05-22T10:10:58.000Z</time>
      </trkpt>
      <trkpt lat="44.80768" lon="4.30514">
        <ele>1244.3</ele>
        <time>2020-05-22T10:11:00.000Z</time>
      </trkpt>
      <trkpt lat="44.80754" lon="4.30527">
        <ele>1244</ele>
        <time>2020-05-22T10:11:02.000Z</time>
      </trkpt>
      <trkpt lat="44.80742" lon="4.30545">
        <ele>1243.5</ele>
        <time>2020-05-22T10:11:04.000Z</time>
      </trkpt>
      <trkpt lat="44.80731" lon="4.30566">
        <ele>1242.9</ele>
        <time>2020-05-22T10:11:06.000Z</time>
      </trkpt>
      <trkpt lat="44.80725" lon="4.30576">
        <ele>1242.6</ele>
        <time>2020-05-22T10:11:07.000Z</time>
      </trkpt>
      <trkpt lat="44.80719" lon="4.30586">
        <ele>1242.3</ele>
        <time>2020-05-22T10:11:08.000Z</time>
      </trkpt>
      <trkpt lat="44.80712" lon="4.30596">
        <ele>1241.8</ele>
        <time>2020-05-22T10:11:09.000Z</time>
      </trkpt>
      <trkpt lat="44.80705" lon="4.30604">
        <ele>1241.3</ele>
        <time>2020-05-22T10:11:10.000Z</time>
      </trkpt>
      <trkpt lat="44.80698" lon="4.30613">
        <ele>1240.9</ele>
        <time>2020-05-22T10:11:11.000Z</time>
      </trkpt>
      <trkpt lat="44.8069" lon="4.3062">
        <ele>1240.6</ele>
        <time>2020-05-22T10:11:12.000Z</time>
      </trkpt>
      <trkpt lat="44.80681" lon="4.30628">
        <ele>1240.3</ele>
        <time>2020-05-22T10:11:13.000Z</time>
      </trkpt>
      <trkpt lat="44.80673" lon="4.30634">
        <ele>1239.9</ele>
        <time>2020-05-22T10:11:14.000Z</time>
      </trkpt>
      <trkpt lat="44.80664" lon="4.3064">
        <ele>1239.6</ele>
        <time>2020-05-22T10:11:15.000Z</time>
      </trkpt>
      <trkpt lat="44.80655" lon="4.30647">
        <ele>1239.2</ele>
        <time>2020-05-22T10:11:16.000Z</time>
      </trkpt>
      <trkpt lat="44.80647" lon="4.30653">
        <ele>1238.8</ele>
        <time>2020-05-22T10:11:17.000Z</time>
      </trkpt>
      <trkpt lat="44.80638" lon="4.30661">
        <ele>1238.5</ele>
        <time>2020-05-22T10:11:18.000Z</time>
      </trkpt>
      <trkpt lat="44.8063" lon="4.30671">
        <ele>1238.1</ele>
        <time>2020-05-22T10:11:19.000Z</time>
      </trkpt>
      <trkpt lat="44.80623" lon="4.3068">
        <ele>1237.7</ele>
        <time>2020-05-22T10:11:20.000Z</time>
      </trkpt>
      <trkpt lat="44.80616" lon="4.30691">
        <ele>1237.4</ele>
        <time>2020-05-22T10:11:21.000Z</time>
      </trkpt>
      <trkpt lat="44.80609" lon="4.30701">
        <ele>1237</ele>
        <time>2020-05-22T10:11:22.000Z</time>
      </trkpt>
      <trkpt lat="44.80601" lon="4.30711">
        <ele>1236.5</ele>
        <time>2020-05-22T10:11:23.000Z</time>
      </trkpt>
      <trkpt lat="44.80592" lon="4.3072">
        <ele>1236.1</ele>
        <time>2020-05-22T10:11:24.000Z</time>
      </trkpt>
      <trkpt lat="44.80583" lon="4.30726">
        <ele>1235.7</ele>
        <time>2020-05-22T10:11:25.000Z</time>
      </trkpt>
      <trkpt lat="44.80572" lon="4.3073">
        <ele>1235.3</ele>
        <time>2020-05-22T10:11:26.000Z</time>
      </trkpt>
      <trkpt lat="44.80562" lon="4.30733">
        <ele>1234.9</ele>
        <time>2020-05-22T10:11:27.000Z</time>
      </trkpt>
      <trkpt lat="44.80551" lon="4.30735">
        <ele>1234.6</ele>
        <time>2020-05-22T10:11:28.000Z</time>
      </trkpt>
      <trkpt lat="44.8054" lon="4.30736">
        <ele>1234.1</ele>
        <time>2020-05-22T10:11:29.000Z</time>
      </trkpt>
      <trkpt lat="44.80529" lon="4.30739">
        <ele>1233.7</ele>
        <time>2020-05-22T10:11:30.000Z</time>
      </trkpt>
      <trkpt lat="44.80518" lon="4.30742">
        <ele>1233.3</ele>
        <time>2020-05-22T10:11:31.000Z</time>
      </trkpt>
      <trkpt lat="44.80508" lon="4.30747">
        <ele>1232.9</ele>
        <time>2020-05-22T10:11:32.000Z</time>
      </trkpt>
      <trkpt lat="44.80498" lon="4.30753">
        <ele>1232.6</ele>
        <time>2020-05-22T10:11:33.000Z</time>
      </trkpt>
      <trkpt lat="44.80488" lon="4.3076">
        <ele>1232.2</ele>
        <time>2020-05-22T10:11:34.000Z</time>
      </trkpt>
      <trkpt lat="44.80478" lon="4.30767">
        <ele>1231.9</ele>
        <time>2020-05-22T10:11:35.000Z</time>
      </trkpt>
      <trkpt lat="44.80468" lon="4.30773">
        <ele>1231.6</ele>
        <time>2020-05-22T10:11:36.000Z</time>
      </trkpt>
      <trkpt lat="44.80458" lon="4.30778">
        <ele>1231.3</ele>
        <time>2020-05-22T10:11:37.000Z</time>
      </trkpt>
      <trkpt lat="44.80447" lon="4.30781">
        <ele>1231</ele>
        <time>2020-05-22T10:11:38.000Z</time>
      </trkpt>
      <trkpt lat="44.80437" lon="4.30784">
        <ele>1230.6</ele>
        <time>2020-05-22T10:11:39.000Z</time>
      </trkpt>
      <trkpt lat="44.80427" lon="4.30788">
        <ele>1230.3</ele>
        <time>2020-05-22T10:11:40.000Z</time>
      </trkpt>
      <trkpt lat="44.80417" lon="4.30794">
        <ele>1229.9</ele>
        <time>2020-05-22T10:11:41.000Z</time>
      </trkpt>
      <trkpt lat="44.80408" lon="4.30803">
        <ele>1229.4</ele>
        <time>2020-05-22T10:11:42.000Z</time>
      </trkpt>
      <trkpt lat="44.804" lon="4.30813">
        <ele>1229.1</ele>
        <time>2020-05-22T10:11:43.000Z</time>
      </trkpt>
      <trkpt lat="44.80392" lon="4.30824">
        <ele>1228.7</ele>
        <time>2020-05-22T10:11:44.000Z</time>
      </trkpt>
      <trkpt lat="44.80385" lon="4.30835">
        <ele>1228.4</ele>
        <time>2020-05-22T10:11:45.000Z</time>
      </trkpt>
      <trkpt lat="44.80377" lon="4.30847">
        <ele>1228</ele>
        <time>2020-05-22T10:11:46.000Z</time>
      </trkpt>
      <trkpt lat="44.8037" lon="4.30858">
        <ele>1227.7</ele>
        <time>2020-05-22T10:11:47.000Z</time>
      </trkpt>
      <trkpt lat="44.80363" lon="4.30868">
        <ele>1227.4</ele>
        <time>2020-05-22T10:11:48.000Z</time>
      </trkpt>
      <trkpt lat="44.80357" lon="4.30879">
        <ele>1227.1</ele>
        <time>2020-05-22T10:11:49.000Z</time>
      </trkpt>
      <trkpt lat="44.8035" lon="4.3089">
        <ele>1226.8</ele>
        <time>2020-05-22T10:11:50.000Z</time>
      </trkpt>
      <trkpt lat="44.80343" lon="4.30901">
        <ele>1226.5</ele>
        <time>2020-05-22T10:11:51.000Z</time>
      </trkpt>
      <trkpt lat="44.80336" lon="4.30911">
        <ele>1226.2</ele>
        <time>2020-05-22T10:11:52.000Z</time>
      </trkpt>
      <trkpt lat="44.80329" lon="4.30921">
        <ele>1225.9</ele>
        <time>2020-05-22T10:11:53.000Z</time>
      </trkpt>
      <trkpt lat="44.80323" lon="4.30932">
        <ele>1225.6</ele>
        <time>2020-05-22T10:11:54.000Z</time>
      </trkpt>
      <trkpt lat="44.80317" lon="4.30943">
        <ele>1225.3</ele>
        <time>2020-05-22T10:11:55.000Z</time>
      </trkpt>
      <trkpt lat="44.80312" lon="4.30954">
        <ele>1224.9</ele>
        <time>2020-05-22T10:11:56.000Z</time>
      </trkpt>
      <trkpt lat="44.80307" lon="4.30966">
        <ele>1224.5</ele>
        <time>2020-05-22T10:11:57.000Z</time>
      </trkpt>
      <trkpt lat="44.80304" lon="4.30979">
        <ele>1224</ele>
        <time>2020-05-22T10:11:58.000Z</time>
      </trkpt>
      <trkpt lat="44.80301" lon="4.30993">
        <ele>1223.5</ele>
        <time>2020-05-22T10:11:59.000Z</time>
      </trkpt>
      <trkpt lat="44.80299" lon="4.31007">
        <ele>1223</ele>
        <time>2020-05-22T10:12:00.000Z</time>
      </trkpt>
      <trkpt lat="44.80299" lon="4.31021">
        <ele>1222.5</ele>
        <time>2020-05-22T10:12:01.000Z</time>
      </trkpt>
      <trkpt lat="44.80298" lon="4.31035">
        <ele>1222.1</ele>
        <time>2020-05-22T10:12:02.000Z</time>
      </trkpt>
      <trkpt lat="44.80298" lon="4.3105">
        <ele>1221.7</ele>
        <time>2020-05-22T10:12:03.000Z</time>
      </trkpt>
      <trkpt lat="44.80298" lon="4.31064">
        <ele>1221.2</ele>
        <time>2020-05-22T10:12:04.000Z</time>
      </trkpt>
      <trkpt lat="44.80298" lon="4.31078">
        <ele>1220.9</ele>
        <time>2020-05-22T10:12:05.000Z</time>
      </trkpt>
      <trkpt lat="44.80296" lon="4.31093">
        <ele>1220.5</ele>
        <time>2020-05-22T10:12:06.000Z</time>
      </trkpt>
      <trkpt lat="44.80294" lon="4.31107">
        <ele>1220.2</ele>
        <time>2020-05-22T10:12:07.000Z</time>
      </trkpt>
      <trkpt lat="44.80292" lon="4.3112">
        <ele>1219.9</ele>
        <time>2020-05-22T10:12:08.000Z</time>
      </trkpt>
      <trkpt lat="44.80288" lon="4.31134">
        <ele>1219.4</ele>
        <time>2020-05-22T10:12:09.000Z</time>
      </trkpt>
      <trkpt lat="44.80284" lon="4.31146">
        <ele>1219</ele>
        <time>2020-05-22T10:12:10.000Z</time>
      </trkpt>
      <trkpt lat="44.80279" lon="4.31159">
        <ele>1218.6</ele>
        <time>2020-05-22T10:12:11.000Z</time>
      </trkpt>
      <trkpt lat="44.80273" lon="4.31171">
        <ele>1218.2</ele>
        <time>2020-05-22T10:12:12.000Z</time>
      </trkpt>
      <trkpt lat="44.80268" lon="4.31183">
        <ele>1217.6</ele>
        <time>2020-05-22T10:12:13.000Z</time>
      </trkpt>
      <trkpt lat="44.80264" lon="4.31196">
        <ele>1217.1</ele>
        <time>2020-05-22T10:12:14.000Z</time>
      </trkpt>
      <trkpt lat="44.8026" lon="4.31209">
        <ele>1216.7</ele>
        <time>2020-05-22T10:12:15.000Z</time>
      </trkpt>
      <trkpt lat="44.80257" lon="4.31223">
        <ele>1216.2</ele>
        <time>2020-05-22T10:12:16.000Z</time>
      </trkpt>
      <trkpt lat="44.80254" lon="4.31236">
        <ele>1215.8</ele>
        <time>2020-05-22T10:12:17.000Z</time>
      </trkpt>
      <trkpt lat="44.80251" lon="4.3125">
        <ele>1215.3</ele>
        <time>2020-05-22T10:12:18.000Z</time>
      </trkpt>
      <trkpt lat="44.80251" lon="4.31265">
        <ele>1215</ele>
        <time>2020-05-22T10:12:19.000Z</time>
      </trkpt>
      <trkpt lat="44.80251" lon="4.31279">
        <ele>1214.7</ele>
        <time>2020-05-22T10:12:20.000Z</time>
      </trkpt>
      <trkpt lat="44.80252" lon="4.31293">
        <ele>1214.4</ele>
        <time>2020-05-22T10:12:21.000Z</time>
      </trkpt>
      <trkpt lat="44.80255" lon="4.31306">
        <ele>1214.1</ele>
        <time>2020-05-22T10:12:22.000Z</time>
      </trkpt>
      <trkpt lat="44.80257" lon="4.3132">
        <ele>1213.8</ele>
        <time>2020-05-22T10:12:23.000Z</time>
      </trkpt>
      <trkpt lat="44.8026" lon="4.31334">
        <ele>1213.5</ele>
        <time>2020-05-22T10:12:24.000Z</time>
      </trkpt>
      <trkpt lat="44.80263" lon="4.31347">
        <ele>1213.2</ele>
        <time>2020-05-22T10:12:25.000Z</time>
      </trkpt>
      <trkpt lat="44.80266" lon="4.31361">
        <ele>1212.8</ele>
        <time>2020-05-22T10:12:26.000Z</time>
      </trkpt>
      <trkpt lat="44.80269" lon="4.31374">
        <ele>1212.5</ele>
        <time>2020-05-22T10:12:27.000Z</time>
      </trkpt>
      <trkpt lat="44.80273" lon="4.31387">
        <ele>1212.2</ele>
        <time>2020-05-22T10:12:28.000Z</time>
      </trkpt>
      <trkpt lat="44.80277" lon="4.314">
        <ele>1211.8</ele>
        <time>2020-05-22T10:12:29.000Z</time>
      </trkpt>
      <trkpt lat="44.8028" lon="4.31412">
        <ele>1211.4</ele>
        <time>2020-05-22T10:12:30.000Z</time>
      </trkpt>
      <trkpt lat="44.80283" lon="4.31425">
        <ele>1211</ele>
        <time>2020-05-22T10:12:31.000Z</time>
      </trkpt>
      <trkpt lat="44.80287" lon="4.31437">
        <ele>1210.7</ele>
        <time>2020-05-22T10:12:32.000Z</time>
      </trkpt>
      <trkpt lat="44.8029" lon="4.3145">
        <ele>1210.4</ele>
        <time>2020-05-22T10:12:33.000Z</time>
      </trkpt>
      <trkpt lat="44.80294" lon="4.31462">
        <ele>1210.2</ele>
        <time>2020-05-22T10:12:34.000Z</time>
      </trkpt>
      <trkpt lat="44.80297" lon="4.31475">
        <ele>1209.8</ele>
        <time>2020-05-22T10:12:35.000Z</time>
      </trkpt>
      <trkpt lat="44.803" lon="4.31487">
        <ele>1209.5</ele>
        <time>2020-05-22T10:12:36.000Z</time>
      </trkpt>
      <trkpt lat="44.80304" lon="4.315">
        <ele>1209.3</ele>
        <time>2020-05-22T10:12:37.000Z</time>
      </trkpt>
      <trkpt lat="44.80307" lon="4.31513">
        <ele>1209</ele>
        <time>2020-05-22T10:12:38.000Z</time>
      </trkpt>
      <trkpt lat="44.80311" lon="4.31525">
        <ele>1208.7</ele>
        <time>2020-05-22T10:12:39.000Z</time>
      </trkpt>
      <trkpt lat="44.80315" lon="4.31538">
        <ele>1208.5</ele>
        <time>2020-05-22T10:12:40.000Z</time>
      </trkpt>
      <trkpt lat="44.80319" lon="4.3155">
        <ele>1208.2</ele>
        <time>2020-05-22T10:12:41.000Z</time>
      </trkpt>
      <trkpt lat="44.80322" lon="4.31563">
        <ele>1207.9</ele>
        <time>2020-05-22T10:12:42.000Z</time>
      </trkpt>
      <trkpt lat="44.80326" lon="4.31575">
        <ele>1207.6</ele>
        <time>2020-05-22T10:12:43.000Z</time>
      </trkpt>
      <trkpt lat="44.8033" lon="4.31586">
        <ele>1207.3</ele>
        <time>2020-05-22T10:12:44.000Z</time>
      </trkpt>
      <trkpt lat="44.80336" lon="4.3161">
        <ele>1206.9</ele>
        <time>2020-05-22T10:12:46.000Z</time>
      </trkpt>
      <trkpt lat="44.80339" lon="4.31634">
        <ele>1206.5</ele>
        <time>2020-05-22T10:12:48.000Z</time>
      </trkpt>
      <trkpt lat="44.80341" lon="4.31659">
        <ele>1206.3</ele>
        <time>2020-05-22T10:12:50.000Z</time>
      </trkpt>
      <trkpt lat="44.80341" lon="4.31684">
        <ele>1206</ele>
        <time>2020-05-22T10:12:52.000Z</time>
      </trkpt>
      <trkpt lat="44.8034" lon="4.31698">
        <ele>1205.8</ele>
        <time>2020-05-22T10:12:53.000Z</time>
      </trkpt>
      <trkpt lat="44.80338" lon="4.31712">
        <ele>1205.5</ele>
        <time>2020-05-22T10:12:54.000Z</time>
      </trkpt>
      <trkpt lat="44.80337" lon="4.31726">
        <ele>1205.1</ele>
        <time>2020-05-22T10:12:55.000Z</time>
      </trkpt>
      <trkpt lat="44.80336" lon="4.3174">
        <ele>1204.7</ele>
        <time>2020-05-22T10:12:56.000Z</time>
      </trkpt>
      <trkpt lat="44.80335" lon="4.31754">
        <ele>1204.3</ele>
        <time>2020-05-22T10:12:57.000Z</time>
      </trkpt>
      <trkpt lat="44.80334" lon="4.31769">
        <ele>1204</ele>
        <time>2020-05-22T10:12:58.000Z</time>
      </trkpt>
      <trkpt lat="44.80333" lon="4.31783">
        <ele>1203.6</ele>
        <time>2020-05-22T10:12:59.000Z</time>
      </trkpt>
      <trkpt lat="44.80332" lon="4.31797">
        <ele>1203.2</ele>
        <time>2020-05-22T10:13:00.000Z</time>
      </trkpt>
      <trkpt lat="44.80331" lon="4.31812">
        <ele>1202.7</ele>
        <time>2020-05-22T10:13:01.000Z</time>
      </trkpt>
      <trkpt lat="44.8033" lon="4.31826">
        <ele>1202.3</ele>
        <time>2020-05-22T10:13:02.000Z</time>
      </trkpt>
      <trkpt lat="44.80329" lon="4.3184">
        <ele>1201.9</ele>
        <time>2020-05-22T10:13:03.000Z</time>
      </trkpt>
      <trkpt lat="44.80328" lon="4.31854">
        <ele>1201.4</ele>
        <time>2020-05-22T10:13:04.000Z</time>
      </trkpt>
      <trkpt lat="44.80325" lon="4.31868">
        <ele>1200.9</ele>
        <time>2020-05-22T10:13:05.000Z</time>
      </trkpt>
      <trkpt lat="44.80322" lon="4.31882">
        <ele>1200.3</ele>
        <time>2020-05-22T10:13:06.000Z</time>
      </trkpt>
      <trkpt lat="44.80319" lon="4.31896">
        <ele>1199.7</ele>
        <time>2020-05-22T10:13:07.000Z</time>
      </trkpt>
      <trkpt lat="44.80314" lon="4.31908">
        <ele>1199</ele>
        <time>2020-05-22T10:13:08.000Z</time>
      </trkpt>
      <trkpt lat="44.80308" lon="4.31921">
        <ele>1198.3</ele>
        <time>2020-05-22T10:13:09.000Z</time>
      </trkpt>
      <trkpt lat="44.80303" lon="4.31934">
        <ele>1197.6</ele>
        <time>2020-05-22T10:13:10.000Z</time>
      </trkpt>
      <trkpt lat="44.80298" lon="4.31947">
        <ele>1197</ele>
        <time>2020-05-22T10:13:11.000Z</time>
      </trkpt>
      <trkpt lat="44.80292" lon="4.3196">
        <ele>1196.4</ele>
        <time>2020-05-22T10:13:12.000Z</time>
      </trkpt>
      <trkpt lat="44.80287" lon="4.31973">
        <ele>1195.8</ele>
        <time>2020-05-22T10:13:13.000Z</time>
      </trkpt>
      <trkpt lat="44.80281" lon="4.31986">
        <ele>1195.2</ele>
        <time>2020-05-22T10:13:14.000Z</time>
      </trkpt>
      <trkpt lat="44.80275" lon="4.31999">
        <ele>1194.6</ele>
        <time>2020-05-22T10:13:15.000Z</time>
      </trkpt>
      <trkpt lat="44.8027" lon="4.32012">
        <ele>1194</ele>
        <time>2020-05-22T10:13:16.000Z</time>
      </trkpt>
      <trkpt lat="44.80264" lon="4.32025">
        <ele>1193.3</ele>
        <time>2020-05-22T10:13:17.000Z</time>
      </trkpt>
      <trkpt lat="44.80259" lon="4.32038">
        <ele>1192.7</ele>
        <time>2020-05-22T10:13:18.000Z</time>
      </trkpt>
      <trkpt lat="44.80254" lon="4.3205">
        <ele>1192.2</ele>
        <time>2020-05-22T10:13:19.000Z</time>
      </trkpt>
      <trkpt lat="44.80248" lon="4.32062">
        <ele>1191.6</ele>
        <time>2020-05-22T10:13:20.000Z</time>
      </trkpt>
      <trkpt lat="44.80242" lon="4.32073">
        <ele>1191.1</ele>
        <time>2020-05-22T10:13:21.000Z</time>
      </trkpt>
      <trkpt lat="44.80236" lon="4.32085">
        <ele>1190.7</ele>
        <time>2020-05-22T10:13:22.000Z</time>
      </trkpt>
      <trkpt lat="44.8023" lon="4.32096">
        <ele>1190.3</ele>
        <time>2020-05-22T10:13:23.000Z</time>
      </trkpt>
      <trkpt lat="44.80223" lon="4.32106">
        <ele>1190</ele>
        <time>2020-05-22T10:13:24.000Z</time>
      </trkpt>
      <trkpt lat="44.80216" lon="4.32116">
        <ele>1189.6</ele>
        <time>2020-05-22T10:13:25.000Z</time>
      </trkpt>
      <trkpt lat="44.8021" lon="4.32127">
        <ele>1189.2</ele>
        <time>2020-05-22T10:13:26.000Z</time>
      </trkpt>
      <trkpt lat="44.80203" lon="4.32137">
        <ele>1188.8</ele>
        <time>2020-05-22T10:13:27.000Z</time>
      </trkpt>
      <trkpt lat="44.80197" lon="4.32147">
        <ele>1188.3</ele>
        <time>2020-05-22T10:13:28.000Z</time>
      </trkpt>
      <trkpt lat="44.8019" lon="4.32157">
        <ele>1187.9</ele>
        <time>2020-05-22T10:13:29.000Z</time>
      </trkpt>
      <trkpt lat="44.80184" lon="4.32167">
        <ele>1187.5</ele>
        <time>2020-05-22T10:13:30.000Z</time>
      </trkpt>
      <trkpt lat="44.80178" lon="4.32177">
        <ele>1187.1</ele>
        <time>2020-05-22T10:13:31.000Z</time>
      </trkpt>
      <trkpt lat="44.80172" lon="4.32188">
        <ele>1186.6</ele>
        <time>2020-05-22T10:13:32.000Z</time>
      </trkpt>
      <trkpt lat="44.80168" lon="4.322">
        <ele>1186.2</ele>
        <time>2020-05-22T10:13:33.000Z</time>
      </trkpt>
      <trkpt lat="44.80164" lon="4.32213">
        <ele>1185.6</ele>
        <time>2020-05-22T10:13:34.000Z</time>
      </trkpt>
      <trkpt lat="44.80161" lon="4.32226">
        <ele>1185.1</ele>
        <time>2020-05-22T10:13:35.000Z</time>
      </trkpt>
      <trkpt lat="44.80159" lon="4.3224">
        <ele>1184.7</ele>
        <time>2020-05-22T10:13:36.000Z</time>
      </trkpt>
      <trkpt lat="44.80158" lon="4.32254">
        <ele>1184.1</ele>
        <time>2020-05-22T10:13:37.000Z</time>
      </trkpt>
      <trkpt lat="44.80158" lon="4.32268">
        <ele>1183.6</ele>
        <time>2020-05-22T10:13:38.000Z</time>
      </trkpt>
      <trkpt lat="44.80159" lon="4.32283">
        <ele>1183</ele>
        <time>2020-05-22T10:13:39.000Z</time>
      </trkpt>
      <trkpt lat="44.80161" lon="4.32298">
        <ele>1182.5</ele>
        <time>2020-05-22T10:13:40.000Z</time>
      </trkpt>
      <trkpt lat="44.80164" lon="4.32312">
        <ele>1181.9</ele>
        <time>2020-05-22T10:13:41.000Z</time>
      </trkpt>
      <trkpt lat="44.80167" lon="4.32327">
        <ele>1181.3</ele>
        <time>2020-05-22T10:13:42.000Z</time>
      </trkpt>
      <trkpt lat="44.80171" lon="4.32342">
        <ele>1180.7</ele>
        <time>2020-05-22T10:13:43.000Z</time>
      </trkpt>
      <trkpt lat="44.80174" lon="4.32357">
        <ele>1180.3</ele>
        <time>2020-05-22T10:13:44.000Z</time>
      </trkpt>
      <trkpt lat="44.80176" lon="4.32373">
        <ele>1179.7</ele>
        <time>2020-05-22T10:13:45.000Z</time>
      </trkpt>
      <trkpt lat="44.80177" lon="4.32389">
        <ele>1179.1</ele>
        <time>2020-05-22T10:13:46.000Z</time>
      </trkpt>
      <trkpt lat="44.80176" lon="4.32406">
        <ele>1178.4</ele>
        <time>2020-05-22T10:13:47.000Z</time>
      </trkpt>
      <trkpt lat="44.80175" lon="4.32422">
        <ele>1177.7</ele>
        <time>2020-05-22T10:13:48.000Z</time>
      </trkpt>
      <trkpt lat="44.80172" lon="4.32438">
        <ele>1177.1</ele>
        <time>2020-05-22T10:13:49.000Z</time>
      </trkpt>
      <trkpt lat="44.80169" lon="4.32454">
        <ele>1176.5</ele>
        <time>2020-05-22T10:13:50.000Z</time>
      </trkpt>
      <trkpt lat="44.80165" lon="4.3247">
        <ele>1176.1</ele>
        <time>2020-05-22T10:13:51.000Z</time>
      </trkpt>
      <trkpt lat="44.8016" lon="4.32486">
        <ele>1175.5</ele>
        <time>2020-05-22T10:13:52.000Z</time>
      </trkpt>
      <trkpt lat="44.80156" lon="4.32501">
        <ele>1175</ele>
        <time>2020-05-22T10:13:53.000Z</time>
      </trkpt>
      <trkpt lat="44.80152" lon="4.32517">
        <ele>1174.4</ele>
        <time>2020-05-22T10:13:54.000Z</time>
      </trkpt>
      <trkpt lat="44.80148" lon="4.32533">
        <ele>1173.9</ele>
        <time>2020-05-22T10:13:55.000Z</time>
      </trkpt>
      <trkpt lat="44.80145" lon="4.32549">
        <ele>1173.4</ele>
        <time>2020-05-22T10:13:56.000Z</time>
      </trkpt>
      <trkpt lat="44.80143" lon="4.32566">
        <ele>1172.8</ele>
        <time>2020-05-22T10:13:57.000Z</time>
      </trkpt>
      <trkpt lat="44.80141" lon="4.32583">
        <ele>1172.1</ele>
        <time>2020-05-22T10:13:58.000Z</time>
      </trkpt>
      <trkpt lat="44.8014" lon="4.326">
        <ele>1171.5</ele>
        <time>2020-05-22T10:13:59.000Z</time>
      </trkpt>
      <trkpt lat="44.8014" lon="4.32617">
        <ele>1170.8</ele>
        <time>2020-05-22T10:14:00.000Z</time>
      </trkpt>
      <trkpt lat="44.8014" lon="4.32635">
        <ele>1170.1</ele>
        <time>2020-05-22T10:14:01.000Z</time>
      </trkpt>
      <trkpt lat="44.80142" lon="4.32652">
        <ele>1169.4</ele>
        <time>2020-05-22T10:14:02.000Z</time>
      </trkpt>
      <trkpt lat="44.80142" lon="4.32669">
        <ele>1168.7</ele>
        <time>2020-05-22T10:14:03.000Z</time>
      </trkpt>
      <trkpt lat="44.80143" lon="4.32687">
        <ele>1167.9</ele>
        <time>2020-05-22T10:14:04.000Z</time>
      </trkpt>
      <trkpt lat="44.80143" lon="4.32704">
        <ele>1167.3</ele>
        <time>2020-05-22T10:14:05.000Z</time>
      </trkpt>
      <trkpt lat="44.80142" lon="4.32722">
        <ele>1166.6</ele>
        <time>2020-05-22T10:14:06.000Z</time>
      </trkpt>
      <trkpt lat="44.80141" lon="4.3274">
        <ele>1165.8</ele>
        <time>2020-05-22T10:14:07.000Z</time>
      </trkpt>
      <trkpt lat="44.80139" lon="4.32758">
        <ele>1165.1</ele>
        <time>2020-05-22T10:14:08.000Z</time>
      </trkpt>
      <trkpt lat="44.80137" lon="4.32776">
        <ele>1164.4</ele>
        <time>2020-05-22T10:14:09.000Z</time>
      </trkpt>
      <trkpt lat="44.80135" lon="4.32794">
        <ele>1163.6</ele>
        <time>2020-05-22T10:14:10.000Z</time>
      </trkpt>
      <trkpt lat="44.80132" lon="4.32811">
        <ele>1162.9</ele>
        <time>2020-05-22T10:14:11.000Z</time>
      </trkpt>
      <trkpt lat="44.80128" lon="4.32829">
        <ele>1162.2</ele>
        <time>2020-05-22T10:14:12.000Z</time>
      </trkpt>
      <trkpt lat="44.80124" lon="4.32846">
        <ele>1161.4</ele>
        <time>2020-05-22T10:14:13.000Z</time>
      </trkpt>
      <trkpt lat="44.80121" lon="4.32863">
        <ele>1160.6</ele>
        <time>2020-05-22T10:14:14.000Z</time>
      </trkpt>
      <trkpt lat="44.80118" lon="4.32879">
        <ele>1159.8</ele>
        <time>2020-05-22T10:14:15.000Z</time>
      </trkpt>
      <trkpt lat="44.80115" lon="4.32895">
        <ele>1159</ele>
        <time>2020-05-22T10:14:16.000Z</time>
      </trkpt>
      <trkpt lat="44.80115" lon="4.32911">
        <ele>1158.2</ele>
        <time>2020-05-22T10:14:17.000Z</time>
      </trkpt>
      <trkpt lat="44.80114" lon="4.32928">
        <ele>1157.5</ele>
        <time>2020-05-22T10:14:18.000Z</time>
      </trkpt>
      <trkpt lat="44.80114" lon="4.32945">
        <ele>1156.8</ele>
        <time>2020-05-22T10:14:19.000Z</time>
      </trkpt>
      <trkpt lat="44.80113" lon="4.32961">
        <ele>1156.1</ele>
        <time>2020-05-22T10:14:20.000Z</time>
      </trkpt>
      <trkpt lat="44.80113" lon="4.32978">
        <ele>1155.4</ele>
        <time>2020-05-22T10:14:21.000Z</time>
      </trkpt>
      <trkpt lat="44.80113" lon="4.32995">
        <ele>1154.7</ele>
        <time>2020-05-22T10:14:22.000Z</time>
      </trkpt>
      <trkpt lat="44.80112" lon="4.33012">
        <ele>1154</ele>
        <time>2020-05-22T10:14:23.000Z</time>
      </trkpt>
      <trkpt lat="44.80111" lon="4.33029">
        <ele>1153.3</ele>
        <time>2020-05-22T10:14:24.000Z</time>
      </trkpt>
      <trkpt lat="44.8011" lon="4.33046">
        <ele>1152.7</ele>
        <time>2020-05-22T10:14:25.000Z</time>
      </trkpt>
      <trkpt lat="44.80109" lon="4.33063">
        <ele>1152</ele>
        <time>2020-05-22T10:14:26.000Z</time>
      </trkpt>
      <trkpt lat="44.80108" lon="4.3308">
        <ele>1151.2</ele>
        <time>2020-05-22T10:14:27.000Z</time>
      </trkpt>
      <trkpt lat="44.80108" lon="4.33097">
        <ele>1150.5</ele>
        <time>2020-05-22T10:14:28.000Z</time>
      </trkpt>
      <trkpt lat="44.80108" lon="4.33114">
        <ele>1149.7</ele>
        <time>2020-05-22T10:14:29.000Z</time>
      </trkpt>
      <trkpt lat="44.8011" lon="4.33131">
        <ele>1148.9</ele>
        <time>2020-05-22T10:14:30.000Z</time>
      </trkpt>
      <trkpt lat="44.80113" lon="4.33147">
        <ele>1148.2</ele>
        <time>2020-05-22T10:14:31.000Z</time>
      </trkpt>
      <trkpt lat="44.80116" lon="4.33164">
        <ele>1147.5</ele>
        <time>2020-05-22T10:14:32.000Z</time>
      </trkpt>
      <trkpt lat="44.80121" lon="4.33181">
        <ele>1146.8</ele>
        <time>2020-05-22T10:14:33.000Z</time>
      </trkpt>
      <trkpt lat="44.80126" lon="4.33197">
        <ele>1146</ele>
        <time>2020-05-22T10:14:34.000Z</time>
      </trkpt>
      <trkpt lat="44.80132" lon="4.33213">
        <ele>1145.2</ele>
        <time>2020-05-22T10:14:35.000Z</time>
      </trkpt>
      <trkpt lat="44.80138" lon="4.33228">
        <ele>1144.4</ele>
        <time>2020-05-22T10:14:36.000Z</time>
      </trkpt>
      <trkpt lat="44.80144" lon="4.33245">
        <ele>1143.7</ele>
        <time>2020-05-22T10:14:37.000Z</time>
      </trkpt>
      <trkpt lat="44.80149" lon="4.33262">
        <ele>1142.9</ele>
        <time>2020-05-22T10:14:38.000Z</time>
      </trkpt>
      <trkpt lat="44.80151" lon="4.3328">
        <ele>1142.2</ele>
        <time>2020-05-22T10:14:39.000Z</time>
      </trkpt>
      <trkpt lat="44.80152" lon="4.33298">
        <ele>1141.5</ele>
        <time>2020-05-22T10:14:40.000Z</time>
      </trkpt>
      <trkpt lat="44.80152" lon="4.33317">
        <ele>1141</ele>
        <time>2020-05-22T10:14:41.000Z</time>
      </trkpt>
      <trkpt lat="44.80152" lon="4.33335">
        <ele>1140.3</ele>
        <time>2020-05-22T10:14:42.000Z</time>
      </trkpt>
      <trkpt lat="44.80152" lon="4.33352">
        <ele>1139.8</ele>
        <time>2020-05-22T10:14:43.000Z</time>
      </trkpt>
      <trkpt lat="44.80152" lon="4.33368">
        <ele>1139.1</ele>
        <time>2020-05-22T10:14:44.000Z</time>
      </trkpt>
      <trkpt lat="44.80155" lon="4.33384">
        <ele>1138.4</ele>
        <time>2020-05-22T10:14:45.000Z</time>
      </trkpt>
      <trkpt lat="44.80159" lon="4.33399">
        <ele>1137.7</ele>
        <time>2020-05-22T10:14:46.000Z</time>
      </trkpt>
      <trkpt lat="44.80165" lon="4.33413">
        <ele>1137</ele>
        <time>2020-05-22T10:14:47.000Z</time>
      </trkpt>
      <trkpt lat="44.80172" lon="4.33427">
        <ele>1136.3</ele>
        <time>2020-05-22T10:14:48.000Z</time>
      </trkpt>
      <trkpt lat="44.80178" lon="4.33442">
        <ele>1135.6</ele>
        <time>2020-05-22T10:14:49.000Z</time>
      </trkpt>
      <trkpt lat="44.80183" lon="4.33458">
        <ele>1134.9</ele>
        <time>2020-05-22T10:14:50.000Z</time>
      </trkpt>
      <trkpt lat="44.80185" lon="4.33474">
        <ele>1134.3</ele>
        <time>2020-05-22T10:14:51.000Z</time>
      </trkpt>
      <trkpt lat="44.80185" lon="4.33491">
        <ele>1133.6</ele>
        <time>2020-05-22T10:14:52.000Z</time>
      </trkpt>
      <trkpt lat="44.80183" lon="4.33508">
        <ele>1132.9</ele>
        <time>2020-05-22T10:14:53.000Z</time>
      </trkpt>
      <trkpt lat="44.8018" lon="4.33525">
        <ele>1132.2</ele>
        <time>2020-05-22T10:14:54.000Z</time>
      </trkpt>
      <trkpt lat="44.80176" lon="4.33541">
        <ele>1131.5</ele>
        <time>2020-05-22T10:14:55.000Z</time>
      </trkpt>
      <trkpt lat="44.80172" lon="4.33557">
        <ele>1130.8</ele>
        <time>2020-05-22T10:14:56.000Z</time>
      </trkpt>
      <trkpt lat="44.8017" lon="4.33573">
        <ele>1130.1</ele>
        <time>2020-05-22T10:14:57.000Z</time>
      </trkpt>
      <trkpt lat="44.80169" lon="4.3359">
        <ele>1129.4</ele>
        <time>2020-05-22T10:14:58.000Z</time>
      </trkpt>
      <trkpt lat="44.80169" lon="4.33607">
        <ele>1128.7</ele>
        <time>2020-05-22T10:14:59.000Z</time>
      </trkpt>
      <trkpt lat="44.8017" lon="4.33624">
        <ele>1128</ele>
        <time>2020-05-22T10:15:00.000Z</time>
      </trkpt>
      <trkpt lat="44.80171" lon="4.33641">
        <ele>1127.2</ele>
        <time>2020-05-22T10:15:01.000Z</time>
      </trkpt>
      <trkpt lat="44.80172" lon="4.33658">
        <ele>1126.4</ele>
        <time>2020-05-22T10:15:02.000Z</time>
      </trkpt>
      <trkpt lat="44.80174" lon="4.33674">
        <ele>1125.6</ele>
        <time>2020-05-22T10:15:03.000Z</time>
      </trkpt>
      <trkpt lat="44.80177" lon="4.33689">
        <ele>1124.8</ele>
        <time>2020-05-22T10:15:04.000Z</time>
      </trkpt>
      <trkpt lat="44.80182" lon="4.33703">
        <ele>1124</ele>
        <time>2020-05-22T10:15:05.000Z</time>
      </trkpt>
      <trkpt lat="44.80188" lon="4.33718">
        <ele>1123.1</ele>
        <time>2020-05-22T10:15:06.000Z</time>
      </trkpt>
      <trkpt lat="44.80195" lon="4.33731">
        <ele>1122.4</ele>
        <time>2020-05-22T10:15:07.000Z</time>
      </trkpt>
      <trkpt lat="44.80202" lon="4.33744">
        <ele>1121.7</ele>
        <time>2020-05-22T10:15:08.000Z</time>
      </trkpt>
      <trkpt lat="44.8021" lon="4.33756">
        <ele>1121.1</ele>
        <time>2020-05-22T10:15:09.000Z</time>
      </trkpt>
      <trkpt lat="44.80219" lon="4.33768">
        <ele>1120.3</ele>
        <time>2020-05-22T10:15:10.000Z</time>
      </trkpt>
      <trkpt lat="44.80228" lon="4.33779">
        <ele>1119.6</ele>
        <time>2020-05-22T10:15:11.000Z</time>
      </trkpt>
      <trkpt lat="44.80238" lon="4.3379">
        <ele>1118.8</ele>
        <time>2020-05-22T10:15:12.000Z</time>
      </trkpt>
      <trkpt lat="44.80249" lon="4.33799">
        <ele>1118.2</ele>
        <time>2020-05-22T10:15:13.000Z</time>
      </trkpt>
      <trkpt lat="44.8026" lon="4.33808">
        <ele>1117.4</ele>
        <time>2020-05-22T10:15:14.000Z</time>
      </trkpt>
      <trkpt lat="44.80272" lon="4.33815">
        <ele>1116.8</ele>
        <time>2020-05-22T10:15:15.000Z</time>
      </trkpt>
      <trkpt lat="44.80284" lon="4.33821">
        <ele>1116.2</ele>
        <time>2020-05-22T10:15:16.000Z</time>
      </trkpt>
      <trkpt lat="44.80296" lon="4.33824">
        <ele>1115.5</ele>
        <time>2020-05-22T10:15:17.000Z</time>
      </trkpt>
      <trkpt lat="44.80309" lon="4.33825">
        <ele>1114.8</ele>
        <time>2020-05-22T10:15:18.000Z</time>
      </trkpt>
      <trkpt lat="44.80322" lon="4.33825">
        <ele>1114.1</ele>
        <time>2020-05-22T10:15:19.000Z</time>
      </trkpt>
      <trkpt lat="44.80335" lon="4.33826">
        <ele>1113.4</ele>
        <time>2020-05-22T10:15:20.000Z</time>
      </trkpt>
      <trkpt lat="44.80349" lon="4.33826">
        <ele>1112.7</ele>
        <time>2020-05-22T10:15:21.000Z</time>
      </trkpt>
      <trkpt lat="44.80362" lon="4.33827">
        <ele>1112.1</ele>
        <time>2020-05-22T10:15:22.000Z</time>
      </trkpt>
      <trkpt lat="44.80376" lon="4.33828">
        <ele>1111.4</ele>
        <time>2020-05-22T10:15:23.000Z</time>
      </trkpt>
      <trkpt lat="44.8039" lon="4.33829">
        <ele>1110.7</ele>
        <time>2020-05-22T10:15:24.000Z</time>
      </trkpt>
      <trkpt lat="44.80403" lon="4.3383">
        <ele>1110</ele>
        <time>2020-05-22T10:15:25.000Z</time>
      </trkpt>
      <trkpt lat="44.80417" lon="4.33831">
        <ele>1109.3</ele>
        <time>2020-05-22T10:15:26.000Z</time>
      </trkpt>
      <trkpt lat="44.80429" lon="4.33833">
        <ele>1108.5</ele>
        <time>2020-05-22T10:15:27.000Z</time>
      </trkpt>
      <trkpt lat="44.80441" lon="4.33835">
        <ele>1107.8</ele>
        <time>2020-05-22T10:15:28.000Z</time>
      </trkpt>
      <trkpt lat="44.80451" lon="4.33837">
        <ele>1107</ele>
        <time>2020-05-22T10:15:29.000Z</time>
      </trkpt>
      <trkpt lat="44.80461" lon="4.33841">
        <ele>1106.1</ele>
        <time>2020-05-22T10:15:30.000Z</time>
      </trkpt>
      <trkpt lat="44.80471" lon="4.33847">
        <ele>1105.3</ele>
        <time>2020-05-22T10:15:31.000Z</time>
      </trkpt>
      <trkpt lat="44.80479" lon="4.33856">
        <ele>1104.6</ele>
        <time>2020-05-22T10:15:32.000Z</time>
      </trkpt>
      <trkpt lat="44.80487" lon="4.33867">
        <ele>1103.9</ele>
        <time>2020-05-22T10:15:33.000Z</time>
      </trkpt>
      <trkpt lat="44.80493" lon="4.33879">
        <ele>1103.2</ele>
        <time>2020-05-22T10:15:34.000Z</time>
      </trkpt>
      <trkpt lat="44.80499" lon="4.33893">
        <ele>1102.6</ele>
        <time>2020-05-22T10:15:35.000Z</time>
      </trkpt>
      <trkpt lat="44.80503" lon="4.33908">
        <ele>1101.9</ele>
        <time>2020-05-22T10:15:36.000Z</time>
      </trkpt>
      <trkpt lat="44.80506" lon="4.33924">
        <ele>1101.3</ele>
        <time>2020-05-22T10:15:37.000Z</time>
      </trkpt>
      <trkpt lat="44.80509" lon="4.3394">
        <ele>1100.6</ele>
        <time>2020-05-22T10:15:38.000Z</time>
      </trkpt>
      <trkpt lat="44.80512" lon="4.33956">
        <ele>1100</ele>
        <time>2020-05-22T10:15:39.000Z</time>
      </trkpt>
      <trkpt lat="44.80514" lon="4.33972">
        <ele>1099.3</ele>
        <time>2020-05-22T10:15:40.000Z</time>
      </trkpt>
      <trkpt lat="44.80516" lon="4.33988">
        <ele>1098.6</ele>
        <time>2020-05-22T10:15:41.000Z</time>
      </trkpt>
      <trkpt lat="44.80518" lon="4.34005">
        <ele>1098</ele>
        <time>2020-05-22T10:15:42.000Z</time>
      </trkpt>
      <trkpt lat="44.8052" lon="4.34022">
        <ele>1097.3</ele>
        <time>2020-05-22T10:15:43.000Z</time>
      </trkpt>
      <trkpt lat="44.80522" lon="4.34039">
        <ele>1096.7</ele>
        <time>2020-05-22T10:15:44.000Z</time>
      </trkpt>
      <trkpt lat="44.80525" lon="4.34055">
        <ele>1096</ele>
        <time>2020-05-22T10:15:45.000Z</time>
      </trkpt>
      <trkpt lat="44.80529" lon="4.34071">
        <ele>1095.3</ele>
        <time>2020-05-22T10:15:46.000Z</time>
      </trkpt>
      <trkpt lat="44.80533" lon="4.34087">
        <ele>1094.7</ele>
        <time>2020-05-22T10:15:47.000Z</time>
      </trkpt>
      <trkpt lat="44.80538" lon="4.34103">
        <ele>1094.1</ele>
        <time>2020-05-22T10:15:48.000Z</time>
      </trkpt>
      <trkpt lat="44.80543" lon="4.34118">
        <ele>1093.3</ele>
        <time>2020-05-22T10:15:49.000Z</time>
      </trkpt>
      <trkpt lat="44.80549" lon="4.34132">
        <ele>1092.7</ele>
        <time>2020-05-22T10:15:50.000Z</time>
      </trkpt>
      <trkpt lat="44.80555" lon="4.34146">
        <ele>1091.9</ele>
        <time>2020-05-22T10:15:51.000Z</time>
      </trkpt>
      <trkpt lat="44.80561" lon="4.3416">
        <ele>1091.3</ele>
        <time>2020-05-22T10:15:52.000Z</time>
      </trkpt>
      <trkpt lat="44.80567" lon="4.34174">
        <ele>1090.6</ele>
        <time>2020-05-22T10:15:53.000Z</time>
      </trkpt>
      <trkpt lat="44.80573" lon="4.34189">
        <ele>1090</ele>
        <time>2020-05-22T10:15:54.000Z</time>
      </trkpt>
      <trkpt lat="44.80579" lon="4.34203">
        <ele>1089.4</ele>
        <time>2020-05-22T10:15:55.000Z</time>
      </trkpt>
      <trkpt lat="44.80586" lon="4.34218">
        <ele>1088.7</ele>
        <time>2020-05-22T10:15:56.000Z</time>
      </trkpt>
      <trkpt lat="44.80592" lon="4.34233">
        <ele>1088.1</ele>
        <time>2020-05-22T10:15:57.000Z</time>
      </trkpt>
      <trkpt lat="44.80599" lon="4.34248">
        <ele>1087.6</ele>
        <time>2020-05-22T10:15:58.000Z</time>
      </trkpt>
      <trkpt lat="44.80605" lon="4.34261">
        <ele>1087.1</ele>
        <time>2020-05-22T10:15:59.000Z</time>
      </trkpt>
      <trkpt lat="44.80612" lon="4.34274">
        <ele>1086.6</ele>
        <time>2020-05-22T10:16:00.000Z</time>
      </trkpt>
      <trkpt lat="44.80618" lon="4.34286">
        <ele>1086.2</ele>
        <time>2020-05-22T10:16:01.000Z</time>
      </trkpt>
      <trkpt lat="44.80625" lon="4.34299">
        <ele>1085.7</ele>
        <time>2020-05-22T10:16:02.000Z</time>
      </trkpt>
      <trkpt lat="44.80632" lon="4.34312">
        <ele>1085.1</ele>
        <time>2020-05-22T10:16:03.000Z</time>
      </trkpt>
      <trkpt lat="44.80639" lon="4.34325">
        <ele>1084.5</ele>
        <time>2020-05-22T10:16:04.000Z</time>
      </trkpt>
      <trkpt lat="44.80646" lon="4.34338">
        <ele>1083.9</ele>
        <time>2020-05-22T10:16:05.000Z</time>
      </trkpt>
      <trkpt lat="44.80652" lon="4.34352">
        <ele>1083.4</ele>
        <time>2020-05-22T10:16:06.000Z</time>
      </trkpt>
      <trkpt lat="44.80657" lon="4.34367">
        <ele>1082.8</ele>
        <time>2020-05-22T10:16:07.000Z</time>
      </trkpt>
      <trkpt lat="44.80662" lon="4.34383">
        <ele>1082.2</ele>
        <time>2020-05-22T10:16:08.000Z</time>
      </trkpt>
      <trkpt lat="44.80667" lon="4.34398">
        <ele>1081.4</ele>
        <time>2020-05-22T10:16:09.000Z</time>
      </trkpt>
      <trkpt lat="44.80673" lon="4.34414">
        <ele>1080.6</ele>
        <time>2020-05-22T10:16:10.000Z</time>
      </trkpt>
      <trkpt lat="44.8068" lon="4.34428">
        <ele>1079.7</ele>
        <time>2020-05-22T10:16:11.000Z</time>
      </trkpt>
      <trkpt lat="44.80688" lon="4.34443">
        <ele>1078.9</ele>
        <time>2020-05-22T10:16:12.000Z</time>
      </trkpt>
      <trkpt lat="44.80696" lon="4.34456">
        <ele>1078.1</ele>
        <time>2020-05-22T10:16:13.000Z</time>
      </trkpt>
      <trkpt lat="44.80705" lon="4.3447">
        <ele>1077.3</ele>
        <time>2020-05-22T10:16:14.000Z</time>
      </trkpt>
      <trkpt lat="44.80714" lon="4.34484">
        <ele>1076.4</ele>
        <time>2020-05-22T10:16:15.000Z</time>
      </trkpt>
      <trkpt lat="44.80724" lon="4.34497">
        <ele>1075.5</ele>
        <time>2020-05-22T10:16:16.000Z</time>
      </trkpt>
      <trkpt lat="44.80732" lon="4.3451">
        <ele>1074.7</ele>
        <time>2020-05-22T10:16:17.000Z</time>
      </trkpt>
      <trkpt lat="44.8074" lon="4.34522">
        <ele>1073.8</ele>
        <time>2020-05-22T10:16:18.000Z</time>
      </trkpt>
      <trkpt lat="44.80747" lon="4.34534">
        <ele>1073</ele>
        <time>2020-05-22T10:16:19.000Z</time>
      </trkpt>
      <trkpt lat="44.80754" lon="4.34544">
        <ele>1072.1</ele>
        <time>2020-05-22T10:16:20.000Z</time>
      </trkpt>
      <trkpt lat="44.8076" lon="4.34554">
        <ele>1071.1</ele>
        <time>2020-05-22T10:16:21.000Z</time>
      </trkpt>
      <trkpt lat="44.80766" lon="4.34564">
        <ele>1070.3</ele>
        <time>2020-05-22T10:16:22.000Z</time>
      </trkpt>
      <trkpt lat="44.80778" lon="4.34582">
        <ele>1068.6</ele>
        <time>2020-05-22T10:16:24.000Z</time>
      </trkpt>
      <trkpt lat="44.80785" lon="4.34597">
        <ele>1067</ele>
        <time>2020-05-22T10:16:26.000Z</time>
      </trkpt>
      <trkpt lat="44.80788" lon="4.34613">
        <ele>1065.8</ele>
        <time>2020-05-22T10:16:28.000Z</time>
      </trkpt>
      <trkpt lat="44.80787" lon="4.34629">
        <ele>1064.8</ele>
        <time>2020-05-22T10:16:30.000Z</time>
      </trkpt>
      <trkpt lat="44.80786" lon="4.34644">
        <ele>1064.1</ele>
        <time>2020-05-22T10:16:32.000Z</time>
      </trkpt>
      <trkpt lat="44.80781" lon="4.34658">
        <ele>1063.6</ele>
        <time>2020-05-22T10:16:34.000Z</time>
      </trkpt>
      <trkpt lat="44.80778" lon="4.34671">
        <ele>1063.3</ele>
        <time>2020-05-22T10:16:36.000Z</time>
      </trkpt>
      <trkpt lat="44.80776" lon="4.34685">
        <ele>1063.1</ele>
        <time>2020-05-22T10:16:38.000Z</time>
      </trkpt>
      <trkpt lat="44.80776" lon="4.34698">
        <ele>1062.9</ele>
        <time>2020-05-22T10:16:40.000Z</time>
      </trkpt>
      <trkpt lat="44.80776" lon="4.34712">
        <ele>1062.8</ele>
        <time>2020-05-22T10:16:42.000Z</time>
      </trkpt>
      <trkpt lat="44.80777" lon="4.34725">
        <ele>1062.8</ele>
        <time>2020-05-22T10:16:44.000Z</time>
      </trkpt>
      <trkpt lat="44.80778" lon="4.34738">
        <ele>1062.9</ele>
        <time>2020-05-22T10:16:46.000Z</time>
      </trkpt>
      <trkpt lat="44.8078" lon="4.34752">
        <ele>1063</ele>
        <time>2020-05-22T10:16:48.000Z</time>
      </trkpt>
      <trkpt lat="44.80782" lon="4.34765">
        <ele>1063.1</ele>
        <time>2020-05-22T10:16:50.000Z</time>
      </trkpt>
      <trkpt lat="44.80785" lon="4.34778">
        <ele>1063.2</ele>
        <time>2020-05-22T10:16:52.000Z</time>
      </trkpt>
      <trkpt lat="44.80788" lon="4.3479">
        <ele>1063.4</ele>
        <time>2020-05-22T10:16:54.000Z</time>
      </trkpt>
      <trkpt lat="44.80791" lon="4.34803">
        <ele>1063.6</ele>
        <time>2020-05-22T10:16:56.000Z</time>
      </trkpt>
      <trkpt lat="44.80795" lon="4.3482">
        <ele>1064</ele>
        <time>2020-05-22T10:16:59.000Z</time>
      </trkpt>
      <trkpt lat="44.80798" lon="4.34836">
        <ele>1064.3</ele>
        <time>2020-05-22T10:17:02.000Z</time>
      </trkpt>
      <trkpt lat="44.80804" lon="4.34851">
        <ele>1064.7</ele>
        <time>2020-05-22T10:17:05.000Z</time>
      </trkpt>
      <trkpt lat="44.80808" lon="4.34867">
        <ele>1065.2</ele>
        <time>2020-05-22T10:17:08.000Z</time>
      </trkpt>
      <trkpt lat="44.80811" lon="4.34882">
        <ele>1065.7</ele>
        <time>2020-05-22T10:17:11.000Z</time>
      </trkpt>
      <trkpt lat="44.80814" lon="4.34897">
        <ele>1066.3</ele>
        <time>2020-05-22T10:17:14.000Z</time>
      </trkpt>
      <trkpt lat="44.80817" lon="4.34911">
        <ele>1067</ele>
        <time>2020-05-22T10:17:17.000Z</time>
      </trkpt>
      <trkpt lat="44.80821" lon="4.34924">
        <ele>1067.8</ele>
        <time>2020-05-22T10:17:20.000Z</time>
      </trkpt>
      <trkpt lat="44.80825" lon="4.34937">
        <ele>1068.5</ele>
        <time>2020-05-22T10:17:23.000Z</time>
      </trkpt>
      <trkpt lat="44.80829" lon="4.34951">
        <ele>1069.1</ele>
        <time>2020-05-22T10:17:26.000Z</time>
      </trkpt>
      <trkpt lat="44.80832" lon="4.34964">
        <ele>1069.7</ele>
        <time>2020-05-22T10:17:29.000Z</time>
      </trkpt>
      <trkpt lat="44.80835" lon="4.34977">
        <ele>1070.2</ele>
        <time>2020-05-22T10:17:32.000Z</time>
      </trkpt>
      <trkpt lat="44.80837" lon="4.34991">
        <ele>1070.6</ele>
        <time>2020-05-22T10:17:35.000Z</time>
      </trkpt>
      <trkpt lat="44.80836" lon="4.35005">
        <ele>1071.1</ele>
        <time>2020-05-22T10:17:38.000Z</time>
      </trkpt>
      <trkpt lat="44.80833" lon="4.35018">
        <ele>1071.6</ele>
        <time>2020-05-22T10:17:41.000Z</time>
      </trkpt>
      <trkpt lat="44.8083" lon="4.35031">
        <ele>1072.1</ele>
        <time>2020-05-22T10:17:44.000Z</time>
      </trkpt>
      <trkpt lat="44.80825" lon="4.35046">
        <ele>1072.8</ele>
        <time>2020-05-22T10:17:48.000Z</time>
      </trkpt>
      <trkpt lat="44.8082" lon="4.35061">
        <ele>1073.6</ele>
        <time>2020-05-22T10:17:52.000Z</time>
      </trkpt>
      <trkpt lat="44.80815" lon="4.35076">
        <ele>1074.3</ele>
        <time>2020-05-22T10:17:56.000Z</time>
      </trkpt>
      <trkpt lat="44.8081" lon="4.35089">
        <ele>1075</ele>
        <time>2020-05-22T10:18:00.000Z</time>
      </trkpt>
      <trkpt lat="44.80806" lon="4.35104">
        <ele>1075.8</ele>
        <time>2020-05-22T10:18:04.000Z</time>
      </trkpt>
      <trkpt lat="44.80804" lon="4.35119">
        <ele>1074.5</ele>
        <time>2020-05-22T10:18:08.000Z</time>
      </trkpt>
      <trkpt lat="44.80802" lon="4.35135">
        <ele>1076.5</ele>
        <time>2020-05-22T10:18:12.000Z</time>
      </trkpt>
      <trkpt lat="44.80799" lon="4.3515">
        <ele>1077.4</ele>
        <time>2020-05-22T10:18:16.000Z</time>
      </trkpt>
      <trkpt lat="44.80796" lon="4.35165">
        <ele>1078.1</ele>
        <time>2020-05-22T10:18:20.000Z</time>
      </trkpt>
      <trkpt lat="44.80795" lon="4.35178">
        <ele>1078.7</ele>
        <time>2020-05-22T10:18:23.000Z</time>
      </trkpt>
      <trkpt lat="44.80792" lon="4.35193">
        <ele>1079.3</ele>
        <time>2020-05-22T10:18:27.000Z</time>
      </trkpt>
      <trkpt lat="44.8079" lon="4.35206">
        <ele>1079.6</ele>
        <time>2020-05-22T10:18:30.000Z</time>
      </trkpt>
      <trkpt lat="44.80786" lon="4.35218">
        <ele>1079.9</ele>
        <time>2020-05-22T10:18:33.000Z</time>
      </trkpt>
      <trkpt lat="44.80782" lon="4.35234">
        <ele>1080.2</ele>
        <time>2020-05-22T10:18:37.000Z</time>
      </trkpt>
      <trkpt lat="44.80776" lon="4.35249">
        <ele>1080.4</ele>
        <time>2020-05-22T10:18:41.000Z</time>
      </trkpt>
      <trkpt lat="44.8077" lon="4.35262">
        <ele>1080.9</ele>
        <time>2020-05-22T10:18:45.000Z</time>
      </trkpt>
      <trkpt lat="44.80769" lon="4.35278">
        <ele>1081.4</ele>
        <time>2020-05-22T10:18:49.000Z</time>
      </trkpt>
      <trkpt lat="44.80776" lon="4.35288">
        <ele>1082.2</ele>
        <time>2020-05-22T10:18:53.000Z</time>
      </trkpt>
      <trkpt lat="44.80786" lon="4.35295">
        <ele>1082.8</ele>
        <time>2020-05-22T10:18:57.000Z</time>
      </trkpt>
      <trkpt lat="44.80797" lon="4.353">
        <ele>1083.5</ele>
        <time>2020-05-22T10:19:01.000Z</time>
      </trkpt>
      <trkpt lat="44.80805" lon="4.35308">
        <ele>1084.3</ele>
        <time>2020-05-22T10:19:05.000Z</time>
      </trkpt>
      <trkpt lat="44.80813" lon="4.35315">
        <ele>1084.8</ele>
        <time>2020-05-22T10:19:08.000Z</time>
      </trkpt>
      <trkpt lat="44.8082" lon="4.35323">
        <ele>1085.3</ele>
        <time>2020-05-22T10:19:11.000Z</time>
      </trkpt>
      <trkpt lat="44.80827" lon="4.35332">
        <ele>1085.7</ele>
        <time>2020-05-22T10:19:14.000Z</time>
      </trkpt>
      <trkpt lat="44.80834" lon="4.35341">
        <ele>1086.1</ele>
        <time>2020-05-22T10:19:17.000Z</time>
      </trkpt>
      <trkpt lat="44.80842" lon="4.35351">
        <ele>1086.6</ele>
        <time>2020-05-22T10:19:20.000Z</time>
      </trkpt>
      <trkpt lat="44.80851" lon="4.3536">
        <ele>1087</ele>
        <time>2020-05-22T10:19:23.000Z</time>
      </trkpt>
      <trkpt lat="44.8086" lon="4.35369">
        <ele>1087.3</ele>
        <time>2020-05-22T10:19:26.000Z</time>
      </trkpt>
      <trkpt lat="44.80869" lon="4.35378">
        <ele>1087.6</ele>
        <time>2020-05-22T10:19:29.000Z</time>
      </trkpt>
      <trkpt lat="44.80877" lon="4.35389">
        <ele>1087.8</ele>
        <time>2020-05-22T10:19:32.000Z</time>
      </trkpt>
      <trkpt lat="44.80886" lon="4.35402">
        <ele>1088</ele>
        <time>2020-05-22T10:19:35.000Z</time>
      </trkpt>
      <trkpt lat="44.80892" lon="4.35412">
        <ele>1088</ele>
        <time>2020-05-22T10:19:37.000Z</time>
      </trkpt>
      <trkpt lat="44.80897" lon="4.35423">
        <ele>1088</ele>
        <time>2020-05-22T10:19:39.000Z</time>
      </trkpt>
      <trkpt lat="44.80903" lon="4.35434">
        <ele>1088</ele>
        <time>2020-05-22T10:19:41.000Z</time>
      </trkpt>
      <trkpt lat="44.80909" lon="4.35445">
        <ele>1088</ele>
        <time>2020-05-22T10:19:43.000Z</time>
      </trkpt>
      <trkpt lat="44.80916" lon="4.35456">
        <ele>1087.9</ele>
        <time>2020-05-22T10:19:45.000Z</time>
      </trkpt>
      <trkpt lat="44.80924" lon="4.35466">
        <ele>1087.7</ele>
        <time>2020-05-22T10:19:47.000Z</time>
      </trkpt>
      <trkpt lat="44.80933" lon="4.35477">
        <ele>1087.5</ele>
        <time>2020-05-22T10:19:49.000Z</time>
      </trkpt>
      <trkpt lat="44.80944" lon="4.35488">
        <ele>1087.3</ele>
        <time>2020-05-22T10:19:51.000Z</time>
      </trkpt>
      <trkpt lat="44.80955" lon="4.35499">
        <ele>1086.9</ele>
        <time>2020-05-22T10:19:53.000Z</time>
      </trkpt>
      <trkpt lat="44.80967" lon="4.35513">
        <ele>1086.5</ele>
        <time>2020-05-22T10:19:55.000Z</time>
      </trkpt>
      <trkpt lat="44.80979" lon="4.35528">
        <ele>1086.2</ele>
        <time>2020-05-22T10:19:57.000Z</time>
      </trkpt>
      <trkpt lat="44.80991" lon="4.35543">
        <ele>1085.7</ele>
        <time>2020-05-22T10:19:59.000Z</time>
      </trkpt>
      <trkpt lat="44.81003" lon="4.35557">
        <ele>1085.2</ele>
        <time>2020-05-22T10:20:01.000Z</time>
      </trkpt>
      <trkpt lat="44.81016" lon="4.35571">
        <ele>1084.7</ele>
        <time>2020-05-22T10:20:03.000Z</time>
      </trkpt>
      <trkpt lat="44.8103" lon="4.35584">
        <ele>1084.1</ele>
        <time>2020-05-22T10:20:05.000Z</time>
      </trkpt>
      <trkpt lat="44.81044" lon="4.35598">
        <ele>1083.6</ele>
        <time>2020-05-22T10:20:07.000Z</time>
      </trkpt>
      <trkpt lat="44.81058" lon="4.35611">
        <ele>1082.9</ele>
        <time>2020-05-22T10:20:09.000Z</time>
      </trkpt>
      <trkpt lat="44.81066" lon="4.35619">
        <ele>1082.5</ele>
        <time>2020-05-22T10:20:10.000Z</time>
      </trkpt>
      <trkpt lat="44.81074" lon="4.35626">
        <ele>1082.1</ele>
        <time>2020-05-22T10:20:11.000Z</time>
      </trkpt>
      <trkpt lat="44.81082" lon="4.35634">
        <ele>1081.7</ele>
        <time>2020-05-22T10:20:12.000Z</time>
      </trkpt>
      <trkpt lat="44.81089" lon="4.35642">
        <ele>1081.2</ele>
        <time>2020-05-22T10:20:13.000Z</time>
      </trkpt>
      <trkpt lat="44.81097" lon="4.35649">
        <ele>1080.8</ele>
        <time>2020-05-22T10:20:14.000Z</time>
      </trkpt>
      <trkpt lat="44.81104" lon="4.35657">
        <ele>1080.4</ele>
        <time>2020-05-22T10:20:15.000Z</time>
      </trkpt>
      <trkpt lat="44.81111" lon="4.35666">
        <ele>1079.9</ele>
        <time>2020-05-22T10:20:16.000Z</time>
      </trkpt>
      <trkpt lat="44.81124" lon="4.35683">
        <ele>1078.8</ele>
        <time>2020-05-22T10:20:18.000Z</time>
      </trkpt>
      <trkpt lat="44.81131" lon="4.35692">
        <ele>1078.4</ele>
        <time>2020-05-22T10:20:19.000Z</time>
      </trkpt>
      <trkpt lat="44.81138" lon="4.357">
        <ele>1077.9</ele>
        <time>2020-05-22T10:20:20.000Z</time>
      </trkpt>
      <trkpt lat="44.81145" lon="4.35708">
        <ele>1077.4</ele>
        <time>2020-05-22T10:20:21.000Z</time>
      </trkpt>
      <trkpt lat="44.81153" lon="4.35714">
        <ele>1076.8</ele>
        <time>2020-05-22T10:20:22.000Z</time>
      </trkpt>
      <trkpt lat="44.81163" lon="4.3572">
        <ele>1076.3</ele>
        <time>2020-05-22T10:20:23.000Z</time>
      </trkpt>
      <trkpt lat="44.81172" lon="4.35724">
        <ele>1075.7</ele>
        <time>2020-05-22T10:20:24.000Z</time>
      </trkpt>
      <trkpt lat="44.81181" lon="4.35728">
        <ele>1075.2</ele>
        <time>2020-05-22T10:20:25.000Z</time>
      </trkpt>
      <trkpt lat="44.8119" lon="4.3573">
        <ele>1074.6</ele>
        <time>2020-05-22T10:20:26.000Z</time>
      </trkpt>
      <trkpt lat="44.81208" lon="4.35736">
        <ele>1073.4</ele>
        <time>2020-05-22T10:20:28.000Z</time>
      </trkpt>
      <trkpt lat="44.81217" lon="4.35738">
        <ele>1072.9</ele>
        <time>2020-05-22T10:20:29.000Z</time>
      </trkpt>
      <trkpt lat="44.81226" lon="4.35741">
        <ele>1072.4</ele>
        <time>2020-05-22T10:20:30.000Z</time>
      </trkpt>
      <trkpt lat="44.81235" lon="4.35745">
        <ele>1071.9</ele>
        <time>2020-05-22T10:20:31.000Z</time>
      </trkpt>
      <trkpt lat="44.81251" lon="4.35753">
        <ele>1071</ele>
        <time>2020-05-22T10:20:33.000Z</time>
      </trkpt>
      <trkpt lat="44.81266" lon="4.35759">
        <ele>1070.4</ele>
        <time>2020-05-22T10:20:35.000Z</time>
      </trkpt>
      <trkpt lat="44.8128" lon="4.35763">
        <ele>1070</ele>
        <time>2020-05-22T10:20:37.000Z</time>
      </trkpt>
      <trkpt lat="44.81293" lon="4.35763">
        <ele>1069.8</ele>
        <time>2020-05-22T10:20:39.000Z</time>
      </trkpt>
      <trkpt lat="44.81305" lon="4.35759">
        <ele>1069.7</ele>
        <time>2020-05-22T10:20:41.000Z</time>
      </trkpt>
      <trkpt lat="44.81316" lon="4.35749">
        <ele>1069.7</ele>
        <time>2020-05-22T10:20:43.000Z</time>
      </trkpt>
      <trkpt lat="44.81323" lon="4.35734">
        <ele>1069.8</ele>
        <time>2020-05-22T10:20:45.000Z</time>
      </trkpt>
      <trkpt lat="44.81328" lon="4.35715">
        <ele>1069.9</ele>
        <time>2020-05-22T10:20:47.000Z</time>
      </trkpt>
      <trkpt lat="44.81331" lon="4.35693">
        <ele>1069.9</ele>
        <time>2020-05-22T10:20:49.000Z</time>
      </trkpt>
      <trkpt lat="44.81335" lon="4.35668">
        <ele>1069.6</ele>
        <time>2020-05-22T10:20:51.000Z</time>
      </trkpt>
      <trkpt lat="44.81337" lon="4.35656">
        <ele>1069.4</ele>
        <time>2020-05-22T10:20:52.000Z</time>
      </trkpt>
      <trkpt lat="44.81341" lon="4.35644">
        <ele>1069.2</ele>
        <time>2020-05-22T10:20:53.000Z</time>
      </trkpt>
      <trkpt lat="44.81344" lon="4.35632">
        <ele>1068.9</ele>
        <time>2020-05-22T10:20:54.000Z</time>
      </trkpt>
      <trkpt lat="44.81349" lon="4.3562">
        <ele>1068.6</ele>
        <time>2020-05-22T10:20:55.000Z</time>
      </trkpt>
      <trkpt lat="44.81354" lon="4.35609">
        <ele>1068.3</ele>
        <time>2020-05-22T10:20:56.000Z</time>
      </trkpt>
      <trkpt lat="44.8136" lon="4.356">
        <ele>1068.1</ele>
        <time>2020-05-22T10:20:57.000Z</time>
      </trkpt>
      <trkpt lat="44.81372" lon="4.35583">
        <ele>1067.9</ele>
        <time>2020-05-22T10:20:59.000Z</time>
      </trkpt>
      <trkpt lat="44.81384" lon="4.35567">
        <ele>1067.8</ele>
        <time>2020-05-22T10:21:01.000Z</time>
      </trkpt>
      <trkpt lat="44.81395" lon="4.35551">
        <ele>1067.7</ele>
        <time>2020-05-22T10:21:03.000Z</time>
      </trkpt>
      <trkpt lat="44.81406" lon="4.35533">
        <ele>1067.6</ele>
        <time>2020-05-22T10:21:05.000Z</time>
      </trkpt>
      <trkpt lat="44.8142" lon="4.35519">
        <ele>1067.5</ele>
        <time>2020-05-22T10:21:07.000Z</time>
      </trkpt>
      <trkpt lat="44.81431" lon="4.35505">
        <ele>1067.3</ele>
        <time>2020-05-22T10:21:09.000Z</time>
      </trkpt>
      <trkpt lat="44.81441" lon="4.35493">
        <ele>1067</ele>
        <time>2020-05-22T10:21:11.000Z</time>
      </trkpt>
      <trkpt lat="44.81452" lon="4.35482">
        <ele>1066.8</ele>
        <time>2020-05-22T10:21:13.000Z</time>
      </trkpt>
      <trkpt lat="44.81461" lon="4.35474">
        <ele>1066.5</ele>
        <time>2020-05-22T10:21:15.000Z</time>
      </trkpt>
      <trkpt lat="44.8148" lon="4.3547">
        <ele>1065</ele>
        <time>2020-05-22T10:21:18.000Z</time>
      </trkpt>
      <trkpt lat="44.81503" lon="4.35457">
        <ele>1065.5</ele>
        <time>2020-05-22T10:21:21.000Z</time>
      </trkpt>
      <trkpt lat="44.81511" lon="4.35452">
        <ele>1064.2</ele>
        <time>2020-05-22T10:21:22.000Z</time>
      </trkpt>
      <trkpt lat="44.81521" lon="4.35446">
        <ele>1064</ele>
        <time>2020-05-22T10:21:23.000Z</time>
      </trkpt>
      <trkpt lat="44.81531" lon="4.35441">
        <ele>1063.7</ele>
        <time>2020-05-22T10:21:24.000Z</time>
      </trkpt>
      <trkpt lat="44.81541" lon="4.35436">
        <ele>1063.5</ele>
        <time>2020-05-22T10:21:25.000Z</time>
      </trkpt>
      <trkpt lat="44.81551" lon="4.35432">
        <ele>1063.3</ele>
        <time>2020-05-22T10:21:26.000Z</time>
      </trkpt>
      <trkpt lat="44.81575" lon="4.3542">
        <ele>1062</ele>
        <time>2020-05-22T10:21:29.000Z</time>
      </trkpt>
      <trkpt lat="44.81597" lon="4.35411">
        <ele>1061.8</ele>
        <time>2020-05-22T10:21:32.000Z</time>
      </trkpt>
      <trkpt lat="44.81612" lon="4.35409">
        <ele>1061.3</ele>
        <time>2020-05-22T10:21:34.000Z</time>
      </trkpt>
      <trkpt lat="44.81626" lon="4.35409">
        <ele>1060.7</ele>
        <time>2020-05-22T10:21:36.000Z</time>
      </trkpt>
      <trkpt lat="44.81639" lon="4.35407">
        <ele>1060</ele>
        <time>2020-05-22T10:21:38.000Z</time>
      </trkpt>
      <trkpt lat="44.81651" lon="4.35403">
        <ele>1059.2</ele>
        <time>2020-05-22T10:21:40.000Z</time>
      </trkpt>
      <trkpt lat="44.81665" lon="4.354">
        <ele>1058.6</ele>
        <time>2020-05-22T10:21:42.000Z</time>
      </trkpt>
      <trkpt lat="44.81678" lon="4.35397">
        <ele>1058.1</ele>
        <time>2020-05-22T10:21:44.000Z</time>
      </trkpt>
      <trkpt lat="44.81691" lon="4.35394">
        <ele>1057.7</ele>
        <time>2020-05-22T10:21:46.000Z</time>
      </trkpt>
      <trkpt lat="44.81703" lon="4.35389">
        <ele>1057.3</ele>
        <time>2020-05-22T10:21:48.000Z</time>
      </trkpt>
      <trkpt lat="44.81715" lon="4.35387">
        <ele>1057.1</ele>
        <time>2020-05-22T10:21:50.000Z</time>
      </trkpt>
      <trkpt lat="44.81728" lon="4.35387">
        <ele>1056.9</ele>
        <time>2020-05-22T10:21:52.000Z</time>
      </trkpt>
      <trkpt lat="44.81741" lon="4.35388">
        <ele>1056.8</ele>
        <time>2020-05-22T10:21:54.000Z</time>
      </trkpt>
      <trkpt lat="44.81752" lon="4.35393">
        <ele>1056.8</ele>
        <time>2020-05-22T10:21:56.000Z</time>
      </trkpt>
      <trkpt lat="44.81763" lon="4.35398">
        <ele>1056.7</ele>
        <time>2020-05-22T10:21:58.000Z</time>
      </trkpt>
      <trkpt lat="44.81772" lon="4.35403">
        <ele>1056.8</ele>
        <time>2020-05-22T10:22:00.000Z</time>
      </trkpt>
      <trkpt lat="44.81781" lon="4.35407">
        <ele>1057</ele>
        <time>2020-05-22T10:22:02.000Z</time>
      </trkpt>
      <trkpt lat="44.81791" lon="4.3541">
        <ele>1057.5</ele>
        <time>2020-05-22T10:22:04.000Z</time>
      </trkpt>
      <trkpt lat="44.81804" lon="4.35413">
        <ele>1058.3</ele>
        <time>2020-05-22T10:22:07.000Z</time>
      </trkpt>
      <trkpt lat="44.81813" lon="4.35412">
        <ele>1058.9</ele>
        <time>2020-05-22T10:22:09.000Z</time>
      </trkpt>
      <trkpt lat="44.81824" lon="4.35408">
        <ele>1059.2</ele>
        <time>2020-05-22T10:22:11.000Z</time>
      </trkpt>
      <trkpt lat="44.81835" lon="4.354">
        <ele>1059.3</ele>
        <time>2020-05-22T10:22:13.000Z</time>
      </trkpt>
      <trkpt lat="44.81849" lon="4.35389">
        <ele>1059</ele>
        <time>2020-05-22T10:22:15.000Z</time>
      </trkpt>
      <trkpt lat="44.81864" lon="4.35376">
        <ele>1058.3</ele>
        <time>2020-05-22T10:22:17.000Z</time>
      </trkpt>
      <trkpt lat="44.81873" lon="4.35371">
        <ele>1057.9</ele>
        <time>2020-05-22T10:22:18.000Z</time>
      </trkpt>
      <trkpt lat="44.81882" lon="4.35367">
        <ele>1057.5</ele>
        <time>2020-05-22T10:22:19.000Z</time>
      </trkpt>
      <trkpt lat="44.81891" lon="4.35365">
        <ele>1057.2</ele>
        <time>2020-05-22T10:22:20.000Z</time>
      </trkpt>
      <trkpt lat="44.819" lon="4.35365">
        <ele>1057</ele>
        <time>2020-05-22T10:22:21.000Z</time>
      </trkpt>
      <trkpt lat="44.81909" lon="4.35367">
        <ele>1056.7</ele>
        <time>2020-05-22T10:22:22.000Z</time>
      </trkpt>
      <trkpt lat="44.81918" lon="4.3537">
        <ele>1056.6</ele>
        <time>2020-05-22T10:22:23.000Z</time>
      </trkpt>
      <trkpt lat="44.81934" lon="4.35377">
        <ele>1056.2</ele>
        <time>2020-05-22T10:22:25.000Z</time>
      </trkpt>
      <trkpt lat="44.8195" lon="4.35384">
        <ele>1055.9</ele>
        <time>2020-05-22T10:22:27.000Z</time>
      </trkpt>
      <trkpt lat="44.81967" lon="4.35387">
        <ele>1055.6</ele>
        <time>2020-05-22T10:22:29.000Z</time>
      </trkpt>
      <trkpt lat="44.81984" lon="4.35387">
        <ele>1055.3</ele>
        <time>2020-05-22T10:22:31.000Z</time>
      </trkpt>
      <trkpt lat="44.82" lon="4.35394">
        <ele>1054.9</ele>
        <time>2020-05-22T10:22:33.000Z</time>
      </trkpt>
      <trkpt lat="44.82008" lon="4.35402">
        <ele>1054.7</ele>
        <time>2020-05-22T10:22:34.000Z</time>
      </trkpt>
      <trkpt lat="44.82014" lon="4.35413">
        <ele>1054.5</ele>
        <time>2020-05-22T10:22:35.000Z</time>
      </trkpt>
      <trkpt lat="44.82022" lon="4.35434">
        <ele>1054.2</ele>
        <time>2020-05-22T10:22:37.000Z</time>
      </trkpt>
      <trkpt lat="44.82026" lon="4.35454">
        <ele>1053.9</ele>
        <time>2020-05-22T10:22:39.000Z</time>
      </trkpt>
      <trkpt lat="44.82028" lon="4.35474">
        <ele>1053.6</ele>
        <time>2020-05-22T10:22:41.000Z</time>
      </trkpt>
      <trkpt lat="44.82029" lon="4.35492">
        <ele>1053.4</ele>
        <time>2020-05-22T10:22:43.000Z</time>
      </trkpt>
      <trkpt lat="44.82033" lon="4.35508">
        <ele>1053.2</ele>
        <time>2020-05-22T10:22:45.000Z</time>
      </trkpt>
      <trkpt lat="44.82036" lon="4.35526">
        <ele>1053.1</ele>
        <time>2020-05-22T10:22:47.000Z</time>
      </trkpt>
      <trkpt lat="44.82039" lon="4.35545">
        <ele>1053.1</ele>
        <time>2020-05-22T10:22:49.000Z</time>
      </trkpt>
      <trkpt lat="44.82042" lon="4.35563">
        <ele>1053</ele>
        <time>2020-05-22T10:22:51.000Z</time>
      </trkpt>
      <trkpt lat="44.82049" lon="4.3558">
        <ele>1053</ele>
        <time>2020-05-22T10:22:53.000Z</time>
      </trkpt>
      <trkpt lat="44.82059" lon="4.35592">
        <ele>1052.8</ele>
        <time>2020-05-22T10:22:55.000Z</time>
      </trkpt>
      <trkpt lat="44.82072" lon="4.35589">
        <ele>1052.7</ele>
        <time>2020-05-22T10:22:57.000Z</time>
      </trkpt>
      <trkpt lat="44.82082" lon="4.35576">
        <ele>1052.6</ele>
        <time>2020-05-22T10:22:59.000Z</time>
      </trkpt>
      <trkpt lat="44.82093" lon="4.35563">
        <ele>1052.6</ele>
        <time>2020-05-22T10:23:01.000Z</time>
      </trkpt>
      <trkpt lat="44.82103" lon="4.35552">
        <ele>1052.6</ele>
        <time>2020-05-22T10:23:03.000Z</time>
      </trkpt>
      <trkpt lat="44.82115" lon="4.35546">
        <ele>1052.5</ele>
        <time>2020-05-22T10:23:05.000Z</time>
      </trkpt>
      <trkpt lat="44.82124" lon="4.35544">
        <ele>1052.5</ele>
        <time>2020-05-22T10:23:07.000Z</time>
      </trkpt>
      <trkpt lat="44.82139" lon="4.35548">
        <ele>1052.5</ele>
        <time>2020-05-22T10:23:09.000Z</time>
      </trkpt>
      <trkpt lat="44.82151" lon="4.35554">
        <ele>1052.6</ele>
        <time>2020-05-22T10:23:11.000Z</time>
      </trkpt>
      <trkpt lat="44.82166" lon="4.35559">
        <ele>1052.7</ele>
        <time>2020-05-22T10:23:13.000Z</time>
      </trkpt>
      <trkpt lat="44.82178" lon="4.35566">
        <ele>1052.7</ele>
        <time>2020-05-22T10:23:15.000Z</time>
      </trkpt>
      <trkpt lat="44.82188" lon="4.35574">
        <ele>1052.7</ele>
        <time>2020-05-22T10:23:17.000Z</time>
      </trkpt>
      <trkpt lat="44.82197" lon="4.35578">
        <ele>1052.8</ele>
        <time>2020-05-22T10:23:19.000Z</time>
      </trkpt>
      <trkpt lat="44.82206" lon="4.35585">
        <ele>1052.8</ele>
        <time>2020-05-22T10:23:21.000Z</time>
      </trkpt>
      <trkpt lat="44.82217" lon="4.3559">
        <ele>1053</ele>
        <time>2020-05-22T10:23:23.000Z</time>
      </trkpt>
      <trkpt lat="44.82227" lon="4.35598">
        <ele>1053.3</ele>
        <time>2020-05-22T10:23:25.000Z</time>
      </trkpt>
      <trkpt lat="44.82241" lon="4.35606">
        <ele>1053.5</ele>
        <time>2020-05-22T10:23:27.000Z</time>
      </trkpt>
      <trkpt lat="44.82251" lon="4.3562">
        <ele>1054.1</ele>
        <time>2020-05-22T10:23:30.000Z</time>
      </trkpt>
      <trkpt lat="44.82262" lon="4.35636">
        <ele>1054.4</ele>
        <time>2020-05-22T10:23:32.000Z</time>
      </trkpt>
      <trkpt lat="44.82263" lon="4.35649">
        <ele>1054.8</ele>
        <time>2020-05-22T10:23:34.000Z</time>
      </trkpt>
      <trkpt lat="44.82264" lon="4.35663">
        <ele>1055.3</ele>
        <time>2020-05-22T10:23:37.000Z</time>
      </trkpt>
      <trkpt lat="44.82258" lon="4.35681">
        <ele>1055.7</ele>
        <time>2020-05-22T10:23:40.000Z</time>
      </trkpt>
      <trkpt lat="44.82256" lon="4.35695">
        <ele>1056</ele>
        <time>2020-05-22T10:23:42.000Z</time>
      </trkpt>
      <trkpt lat="44.82256" lon="4.35708">
        <ele>1056.3</ele>
        <time>2020-05-22T10:23:44.000Z</time>
      </trkpt>
      <trkpt lat="44.82255" lon="4.35721">
        <ele>1056.6</ele>
        <time>2020-05-22T10:23:46.000Z</time>
      </trkpt>
      <trkpt lat="44.82253" lon="4.35736">
        <ele>1056.8</ele>
        <time>2020-05-22T10:23:48.000Z</time>
      </trkpt>
      <trkpt lat="44.82254" lon="4.35749">
        <ele>1057</ele>
        <time>2020-05-22T10:23:50.000Z</time>
      </trkpt>
      <trkpt lat="44.82253" lon="4.35763">
        <ele>1057.2</ele>
        <time>2020-05-22T10:23:52.000Z</time>
      </trkpt>
      <trkpt lat="44.82249" lon="4.3578">
        <ele>1057.4</ele>
        <time>2020-05-22T10:23:54.000Z</time>
      </trkpt>
      <trkpt lat="44.82247" lon="4.35795">
        <ele>1057.5</ele>
        <time>2020-05-22T10:23:56.000Z</time>
      </trkpt>
      <trkpt lat="44.82244" lon="4.35811">
        <ele>1057.6</ele>
        <time>2020-05-22T10:23:58.000Z</time>
      </trkpt>
      <trkpt lat="44.8224" lon="4.35827">
        <ele>1057.6</ele>
        <time>2020-05-22T10:24:00.000Z</time>
      </trkpt>
      <trkpt lat="44.82236" lon="4.35844">
        <ele>1057.5</ele>
        <time>2020-05-22T10:24:02.000Z</time>
      </trkpt>
      <trkpt lat="44.82233" lon="4.35859">
        <ele>1057.4</ele>
        <time>2020-05-22T10:24:04.000Z</time>
      </trkpt>
      <trkpt lat="44.82231" lon="4.35873">
        <ele>1057.3</ele>
        <time>2020-05-22T10:24:06.000Z</time>
      </trkpt>
      <trkpt lat="44.82229" lon="4.35888">
        <ele>1057.2</ele>
        <time>2020-05-22T10:24:08.000Z</time>
      </trkpt>
      <trkpt lat="44.82226" lon="4.35902">
        <ele>1057.1</ele>
        <time>2020-05-22T10:24:10.000Z</time>
      </trkpt>
      <trkpt lat="44.82225" lon="4.35916">
        <ele>1057.1</ele>
        <time>2020-05-22T10:24:12.000Z</time>
      </trkpt>
      <trkpt lat="44.82223" lon="4.35931">
        <ele>1057</ele>
        <time>2020-05-22T10:24:14.000Z</time>
      </trkpt>
      <trkpt lat="44.82221" lon="4.35946">
        <ele>1057</ele>
        <time>2020-05-22T10:24:16.000Z</time>
      </trkpt>
      <trkpt lat="44.82218" lon="4.35962">
        <ele>1057</ele>
        <time>2020-05-22T10:24:18.000Z</time>
      </trkpt>
      <trkpt lat="44.82216" lon="4.35977">
        <ele>1057</ele>
        <time>2020-05-22T10:24:20.000Z</time>
      </trkpt>
      <trkpt lat="44.82215" lon="4.35992">
        <ele>1057</ele>
        <time>2020-05-22T10:24:22.000Z</time>
      </trkpt>
      <trkpt lat="44.82216" lon="4.36007">
        <ele>1057</ele>
        <time>2020-05-22T10:24:24.000Z</time>
      </trkpt>
      <trkpt lat="44.82221" lon="4.36021">
        <ele>1057</ele>
        <time>2020-05-22T10:24:26.000Z</time>
      </trkpt>
      <trkpt lat="44.82225" lon="4.36034">
        <ele>1057</ele>
        <time>2020-05-22T10:24:28.000Z</time>
      </trkpt>
      <trkpt lat="44.82232" lon="4.36043">
        <ele>1057.1</ele>
        <time>2020-05-22T10:24:30.000Z</time>
      </trkpt>
      <trkpt lat="44.82243" lon="4.36051">
        <ele>1057.2</ele>
        <time>2020-05-22T10:24:33.000Z</time>
      </trkpt>
      <trkpt lat="44.82253" lon="4.36053">
        <ele>1057.4</ele>
        <time>2020-05-22T10:24:35.000Z</time>
      </trkpt>
      <trkpt lat="44.82265" lon="4.36052">
        <ele>1057.6</ele>
        <time>2020-05-22T10:24:37.000Z</time>
      </trkpt>
      <trkpt lat="44.82277" lon="4.3605">
        <ele>1057.8</ele>
        <time>2020-05-22T10:24:39.000Z</time>
      </trkpt>
      <trkpt lat="44.82288" lon="4.36049">
        <ele>1058</ele>
        <time>2020-05-22T10:24:41.000Z</time>
      </trkpt>
      <trkpt lat="44.82298" lon="4.36045">
        <ele>1058.3</ele>
        <time>2020-05-22T10:24:43.000Z</time>
      </trkpt>
      <trkpt lat="44.82308" lon="4.3604">
        <ele>1058.6</ele>
        <time>2020-05-22T10:24:45.000Z</time>
      </trkpt>
      <trkpt lat="44.82317" lon="4.36033">
        <ele>1058.8</ele>
        <time>2020-05-22T10:24:47.000Z</time>
      </trkpt>
      <trkpt lat="44.82326" lon="4.36024">
        <ele>1059</ele>
        <time>2020-05-22T10:24:49.000Z</time>
      </trkpt>
      <trkpt lat="44.82333" lon="4.36015">
        <ele>1059.2</ele>
        <time>2020-05-22T10:24:51.000Z</time>
      </trkpt>
      <trkpt lat="44.8234" lon="4.36006">
        <ele>1059.4</ele>
        <time>2020-05-22T10:24:53.000Z</time>
      </trkpt>
      <trkpt lat="44.82348" lon="4.36">
        <ele>1059.6</ele>
        <time>2020-05-22T10:24:55.000Z</time>
      </trkpt>
      <trkpt lat="44.8236" lon="4.35994">
        <ele>1060</ele>
        <time>2020-05-22T10:24:58.000Z</time>
      </trkpt>
      <trkpt lat="44.8237" lon="4.35989">
        <ele>1060.6</ele>
        <time>2020-05-22T10:25:01.000Z</time>
      </trkpt>
      <trkpt lat="44.82383" lon="4.35988">
        <ele>1061.2</ele>
        <time>2020-05-22T10:25:04.000Z</time>
      </trkpt>
      <trkpt lat="44.82397" lon="4.35995">
        <ele>1061.4</ele>
        <time>2020-05-22T10:25:06.000Z</time>
      </trkpt>
      <trkpt lat="44.82406" lon="4.36006">
        <ele>1061.6</ele>
        <time>2020-05-22T10:25:08.000Z</time>
      </trkpt>
      <trkpt lat="44.82412" lon="4.36019">
        <ele>1061.6</ele>
        <time>2020-05-22T10:25:10.000Z</time>
      </trkpt>
      <trkpt lat="44.82417" lon="4.36035">
        <ele>1061.7</ele>
        <time>2020-05-22T10:25:12.000Z</time>
      </trkpt>
      <trkpt lat="44.82419" lon="4.3605">
        <ele>1061.6</ele>
        <time>2020-05-22T10:25:14.000Z</time>
      </trkpt>
      <trkpt lat="44.8242" lon="4.36064">
        <ele>1061.5</ele>
        <time>2020-05-22T10:25:16.000Z</time>
      </trkpt>
      <trkpt lat="44.82421" lon="4.36079">
        <ele>1061.4</ele>
        <time>2020-05-22T10:25:18.000Z</time>
      </trkpt>
      <trkpt lat="44.82419" lon="4.36096">
        <ele>1061.2</ele>
        <time>2020-05-22T10:25:20.000Z</time>
      </trkpt>
      <trkpt lat="44.82418" lon="4.36113">
        <ele>1060.9</ele>
        <time>2020-05-22T10:25:22.000Z</time>
      </trkpt>
      <trkpt lat="44.82418" lon="4.36129">
        <ele>1060.8</ele>
        <time>2020-05-22T10:25:24.000Z</time>
      </trkpt>
      <trkpt lat="44.8242" lon="4.36144">
        <ele>1060.6</ele>
        <time>2020-05-22T10:25:26.000Z</time>
      </trkpt>
      <trkpt lat="44.82423" lon="4.36161">
        <ele>1060.4</ele>
        <time>2020-05-22T10:25:28.000Z</time>
      </trkpt>
      <trkpt lat="44.82429" lon="4.36177">
        <ele>1060.3</ele>
        <time>2020-05-22T10:25:30.000Z</time>
      </trkpt>
      <trkpt lat="44.82437" lon="4.3619">
        <ele>1060.2</ele>
        <time>2020-05-22T10:25:32.000Z</time>
      </trkpt>
      <trkpt lat="44.82448" lon="4.36199">
        <ele>1060</ele>
        <time>2020-05-22T10:25:34.000Z</time>
      </trkpt>
      <trkpt lat="44.82459" lon="4.36206">
        <ele>1059.9</ele>
        <time>2020-05-22T10:25:36.000Z</time>
      </trkpt>
      <trkpt lat="44.8247" lon="4.36211">
        <ele>1059.8</ele>
        <time>2020-05-22T10:25:38.000Z</time>
      </trkpt>
      <trkpt lat="44.8248" lon="4.36214">
        <ele>1059.6</ele>
        <time>2020-05-22T10:25:40.000Z</time>
      </trkpt>
      <trkpt lat="44.82493" lon="4.36215">
        <ele>1059.3</ele>
        <time>2020-05-22T10:25:42.000Z</time>
      </trkpt>
      <trkpt lat="44.82502" lon="4.36217">
        <ele>1059.3</ele>
        <time>2020-05-22T10:25:43.000Z</time>
      </trkpt>
      <trkpt lat="44.82511" lon="4.36221">
        <ele>1059.2</ele>
        <time>2020-05-22T10:25:44.000Z</time>
      </trkpt>
      <trkpt lat="44.82524" lon="4.36236">
        <ele>1059</ele>
        <time>2020-05-22T10:25:46.000Z</time>
      </trkpt>
      <trkpt lat="44.82537" lon="4.36251">
        <ele>1058.8</ele>
        <time>2020-05-22T10:25:48.000Z</time>
      </trkpt>
      <trkpt lat="44.8255" lon="4.36264">
        <ele>1058.7</ele>
        <time>2020-05-22T10:25:50.000Z</time>
      </trkpt>
      <trkpt lat="44.82564" lon="4.36274">
        <ele>1058.4</ele>
        <time>2020-05-22T10:25:52.000Z</time>
      </trkpt>
      <trkpt lat="44.82578" lon="4.36284">
        <ele>1058</ele>
        <time>2020-05-22T10:25:54.000Z</time>
      </trkpt>
      <trkpt lat="44.82591" lon="4.36294">
        <ele>1057.8</ele>
        <time>2020-05-22T10:25:56.000Z</time>
      </trkpt>
      <trkpt lat="44.82604" lon="4.36303">
        <ele>1057.5</ele>
        <time>2020-05-22T10:25:58.000Z</time>
      </trkpt>
      <trkpt lat="44.82618" lon="4.3631">
        <ele>1057.2</ele>
        <time>2020-05-22T10:26:00.000Z</time>
      </trkpt>
      <trkpt lat="44.82633" lon="4.36319">
        <ele>1057</ele>
        <time>2020-05-22T10:26:02.000Z</time>
      </trkpt>
      <trkpt lat="44.82645" lon="4.36333">
        <ele>1056.7</ele>
        <time>2020-05-22T10:26:04.000Z</time>
      </trkpt>
      <trkpt lat="44.82656" lon="4.36351">
        <ele>1056.3</ele>
        <time>2020-05-22T10:26:06.000Z</time>
      </trkpt>
      <trkpt lat="44.82663" lon="4.36371">
        <ele>1056</ele>
        <time>2020-05-22T10:26:08.000Z</time>
      </trkpt>
      <trkpt lat="44.82668" lon="4.36392">
        <ele>1055.6</ele>
        <time>2020-05-22T10:26:10.000Z</time>
      </trkpt>
      <trkpt lat="44.8267" lon="4.36415">
        <ele>1055.3</ele>
        <time>2020-05-22T10:26:12.000Z</time>
      </trkpt>
      <trkpt lat="44.82671" lon="4.36437">
        <ele>1055</ele>
        <time>2020-05-22T10:26:14.000Z</time>
      </trkpt>
      <trkpt lat="44.8267" lon="4.36459">
        <ele>1054.6</ele>
        <time>2020-05-22T10:26:16.000Z</time>
      </trkpt>
      <trkpt lat="44.82667" lon="4.36481">
        <ele>1054.3</ele>
        <time>2020-05-22T10:26:18.000Z</time>
      </trkpt>
      <trkpt lat="44.82662" lon="4.36502">
        <ele>1053.8</ele>
        <time>2020-05-22T10:26:20.000Z</time>
      </trkpt>
      <trkpt lat="44.82659" lon="4.36525">
        <ele>1053.4</ele>
        <time>2020-05-22T10:26:22.000Z</time>
      </trkpt>
      <trkpt lat="44.82656" lon="4.36548">
        <ele>1052.6</ele>
        <time>2020-05-22T10:26:24.000Z</time>
      </trkpt>
      <trkpt lat="44.82657" lon="4.36572">
        <ele>1051.8</ele>
        <time>2020-05-22T10:26:26.000Z</time>
      </trkpt>
      <trkpt lat="44.82658" lon="4.36596">
        <ele>1051</ele>
        <time>2020-05-22T10:26:28.000Z</time>
      </trkpt>
      <trkpt lat="44.82661" lon="4.36619">
        <ele>1050.3</ele>
        <time>2020-05-22T10:26:30.000Z</time>
      </trkpt>
      <trkpt lat="44.82667" lon="4.36629">
        <ele>1049.9</ele>
        <time>2020-05-22T10:26:31.000Z</time>
      </trkpt>
      <trkpt lat="44.82677" lon="4.36649">
        <ele>1049.3</ele>
        <time>2020-05-22T10:26:33.000Z</time>
      </trkpt>
      <trkpt lat="44.82683" lon="4.36658">
        <ele>1049</ele>
        <time>2020-05-22T10:26:34.000Z</time>
      </trkpt>
      <trkpt lat="44.82695" lon="4.36677">
        <ele>1048.5</ele>
        <time>2020-05-22T10:26:36.000Z</time>
      </trkpt>
      <trkpt lat="44.82702" lon="4.36686">
        <ele>1048.2</ele>
        <time>2020-05-22T10:26:37.000Z</time>
      </trkpt>
      <trkpt lat="44.82715" lon="4.36702">
        <ele>1047.8</ele>
        <time>2020-05-22T10:26:39.000Z</time>
      </trkpt>
      <trkpt lat="44.8273" lon="4.36716">
        <ele>1047.3</ele>
        <time>2020-05-22T10:26:41.000Z</time>
      </trkpt>
      <trkpt lat="44.82744" lon="4.36728">
        <ele>1046.8</ele>
        <time>2020-05-22T10:26:43.000Z</time>
      </trkpt>
      <trkpt lat="44.82756" lon="4.36737">
        <ele>1046.2</ele>
        <time>2020-05-22T10:26:45.000Z</time>
      </trkpt>
      <trkpt lat="44.82768" lon="4.36748">
        <ele>1045.6</ele>
        <time>2020-05-22T10:26:47.000Z</time>
      </trkpt>
      <trkpt lat="44.82777" lon="4.36758">
        <ele>1045.1</ele>
        <time>2020-05-22T10:26:49.000Z</time>
      </trkpt>
      <trkpt lat="44.82783" lon="4.3677">
        <ele>1044.5</ele>
        <time>2020-05-22T10:26:51.000Z</time>
      </trkpt>
      <trkpt lat="44.82788" lon="4.36783">
        <ele>1043.9</ele>
        <time>2020-05-22T10:26:53.000Z</time>
      </trkpt>
      <trkpt lat="44.82791" lon="4.36798">
        <ele>1043.5</ele>
        <time>2020-05-22T10:26:55.000Z</time>
      </trkpt>
      <trkpt lat="44.82792" lon="4.36813">
        <ele>1043.2</ele>
        <time>2020-05-22T10:26:57.000Z</time>
      </trkpt>
      <trkpt lat="44.82791" lon="4.36829">
        <ele>1043</ele>
        <time>2020-05-22T10:26:59.000Z</time>
      </trkpt>
      <trkpt lat="44.8279" lon="4.36846">
        <ele>1042.8</ele>
        <time>2020-05-22T10:27:01.000Z</time>
      </trkpt>
      <trkpt lat="44.82788" lon="4.36864">
        <ele>1042.6</ele>
        <time>2020-05-22T10:27:03.000Z</time>
      </trkpt>
      <trkpt lat="44.82784" lon="4.36882">
        <ele>1042.5</ele>
        <time>2020-05-22T10:27:05.000Z</time>
      </trkpt>
      <trkpt lat="44.8278" lon="4.36899">
        <ele>1042.3</ele>
        <time>2020-05-22T10:27:07.000Z</time>
      </trkpt>
      <trkpt lat="44.82777" lon="4.36916">
        <ele>1042</ele>
        <time>2020-05-22T10:27:09.000Z</time>
      </trkpt>
      <trkpt lat="44.82775" lon="4.36934">
        <ele>1041.8</ele>
        <time>2020-05-22T10:27:11.000Z</time>
      </trkpt>
      <trkpt lat="44.82773" lon="4.36952">
        <ele>1041.5</ele>
        <time>2020-05-22T10:27:13.000Z</time>
      </trkpt>
      <trkpt lat="44.82769" lon="4.36971">
        <ele>1041.2</ele>
        <time>2020-05-22T10:27:15.000Z</time>
      </trkpt>
      <trkpt lat="44.82763" lon="4.36989">
        <ele>1040.9</ele>
        <time>2020-05-22T10:27:17.000Z</time>
      </trkpt>
      <trkpt lat="44.82756" lon="4.37009">
        <ele>1040.5</ele>
        <time>2020-05-22T10:27:19.000Z</time>
      </trkpt>
      <trkpt lat="44.82752" lon="4.37028">
        <ele>1040</ele>
        <time>2020-05-22T10:27:21.000Z</time>
      </trkpt>
      <trkpt lat="44.82752" lon="4.37048">
        <ele>1039.5</ele>
        <time>2020-05-22T10:27:23.000Z</time>
      </trkpt>
      <trkpt lat="44.82758" lon="4.37066">
        <ele>1039</ele>
        <time>2020-05-22T10:27:25.000Z</time>
      </trkpt>
      <trkpt lat="44.82768" lon="4.3708">
        <ele>1038.6</ele>
        <time>2020-05-22T10:27:27.000Z</time>
      </trkpt>
      <trkpt lat="44.82779" lon="4.37093">
        <ele>1038.2</ele>
        <time>2020-05-22T10:27:29.000Z</time>
      </trkpt>
      <trkpt lat="44.82791" lon="4.37106">
        <ele>1037.9</ele>
        <time>2020-05-22T10:27:31.000Z</time>
      </trkpt>
      <trkpt lat="44.82802" lon="4.37117">
        <ele>1037.5</ele>
        <time>2020-05-22T10:27:33.000Z</time>
      </trkpt>
      <trkpt lat="44.82815" lon="4.37126">
        <ele>1037.2</ele>
        <time>2020-05-22T10:27:35.000Z</time>
      </trkpt>
      <trkpt lat="44.82828" lon="4.37135">
        <ele>1037</ele>
        <time>2020-05-22T10:27:37.000Z</time>
      </trkpt>
      <trkpt lat="44.8284" lon="4.37145">
        <ele>1036.8</ele>
        <time>2020-05-22T10:27:39.000Z</time>
      </trkpt>
      <trkpt lat="44.82852" lon="4.37157">
        <ele>1036.6</ele>
        <time>2020-05-22T10:27:41.000Z</time>
      </trkpt>
      <trkpt lat="44.82862" lon="4.3717">
        <ele>1036.5</ele>
        <time>2020-05-22T10:27:43.000Z</time>
      </trkpt>
      <trkpt lat="44.82872" lon="4.37185">
        <ele>1036.3</ele>
        <time>2020-05-22T10:27:45.000Z</time>
      </trkpt>
      <trkpt lat="44.82881" lon="4.37198">
        <ele>1036.1</ele>
        <time>2020-05-22T10:27:47.000Z</time>
      </trkpt>
      <trkpt lat="44.82891" lon="4.37212">
        <ele>1035.9</ele>
        <time>2020-05-22T10:27:49.000Z</time>
      </trkpt>
      <trkpt lat="44.82898" lon="4.37224">
        <ele>1035.6</ele>
        <time>2020-05-22T10:27:51.000Z</time>
      </trkpt>
      <trkpt lat="44.82904" lon="4.37235">
        <ele>1035</ele>
        <time>2020-05-22T10:27:54.000Z</time>
      </trkpt>
      <trkpt lat="44.82905" lon="4.37237">
        <ele>1034</ele>
        <time>2020-05-22T10:27:59.000Z</time>
      </trkpt>
      <trkpt lat="44.82912" lon="4.37248">
        <ele>1033.3</ele>
        <time>2020-05-22T10:29:40.000Z</time>
      </trkpt>
      <trkpt lat="44.82917" lon="4.37261">
        <ele>1033.3</ele>
        <time>2020-05-22T10:29:43.000Z</time>
      </trkpt>
      <trkpt lat="44.82923" lon="4.37271">
        <ele>1033.3</ele>
        <time>2020-05-22T10:29:45.000Z</time>
      </trkpt>
      <trkpt lat="44.8293" lon="4.37284">
        <ele>1033.3</ele>
        <time>2020-05-22T10:29:47.000Z</time>
      </trkpt>
      <trkpt lat="44.82935" lon="4.37295">
        <ele>1033.3</ele>
        <time>2020-05-22T10:29:49.000Z</time>
      </trkpt>
      <trkpt lat="44.82942" lon="4.37307">
        <ele>1033.1</ele>
        <time>2020-05-22T10:29:51.000Z</time>
      </trkpt>
      <trkpt lat="44.8295" lon="4.37319">
        <ele>1033</ele>
        <time>2020-05-22T10:29:53.000Z</time>
      </trkpt>
      <trkpt lat="44.82958" lon="4.37332">
        <ele>1032.9</ele>
        <time>2020-05-22T10:29:55.000Z</time>
      </trkpt>
      <trkpt lat="44.82966" lon="4.37344">
        <ele>1032.7</ele>
        <time>2020-05-22T10:29:57.000Z</time>
      </trkpt>
      <trkpt lat="44.82974" lon="4.37356">
        <ele>1032.6</ele>
        <time>2020-05-22T10:29:59.000Z</time>
      </trkpt>
      <trkpt lat="44.82981" lon="4.37368">
        <ele>1032.4</ele>
        <time>2020-05-22T10:30:01.000Z</time>
      </trkpt>
      <trkpt lat="44.82989" lon="4.3738">
        <ele>1032.3</ele>
        <time>2020-05-22T10:30:03.000Z</time>
      </trkpt>
      <trkpt lat="44.82997" lon="4.37392">
        <ele>1032.2</ele>
        <time>2020-05-22T10:30:05.000Z</time>
      </trkpt>
      <trkpt lat="44.83005" lon="4.37404">
        <ele>1032</ele>
        <time>2020-05-22T10:30:07.000Z</time>
      </trkpt>
      <trkpt lat="44.83013" lon="4.37416">
        <ele>1031.8</ele>
        <time>2020-05-22T10:30:09.000Z</time>
      </trkpt>
      <trkpt lat="44.83021" lon="4.37428">
        <ele>1031.7</ele>
        <time>2020-05-22T10:30:11.000Z</time>
      </trkpt>
      <trkpt lat="44.83028" lon="4.3744">
        <ele>1031.5</ele>
        <time>2020-05-22T10:30:13.000Z</time>
      </trkpt>
      <trkpt lat="44.83035" lon="4.37451">
        <ele>1031.3</ele>
        <time>2020-05-22T10:30:15.000Z</time>
      </trkpt>
      <trkpt lat="44.83042" lon="4.37461">
        <ele>1031.1</ele>
        <time>2020-05-22T10:30:17.000Z</time>
      </trkpt>
      <trkpt lat="44.83049" lon="4.37472">
        <ele>1031.1</ele>
        <time>2020-05-22T10:30:19.000Z</time>
      </trkpt>
      <trkpt lat="44.83056" lon="4.37484">
        <ele>1031.1</ele>
        <time>2020-05-22T10:30:21.000Z</time>
      </trkpt>
      <trkpt lat="44.83063" lon="4.37496">
        <ele>1031.2</ele>
        <time>2020-05-22T10:30:23.000Z</time>
      </trkpt>
      <trkpt lat="44.8307" lon="4.37508">
        <ele>1031.4</ele>
        <time>2020-05-22T10:30:25.000Z</time>
      </trkpt>
      <trkpt lat="44.83077" lon="4.37519">
        <ele>1031.5</ele>
        <time>2020-05-22T10:30:27.000Z</time>
      </trkpt>
      <trkpt lat="44.83085" lon="4.37531">
        <ele>1031.8</ele>
        <time>2020-05-22T10:30:29.000Z</time>
      </trkpt>
      <trkpt lat="44.83092" lon="4.37543">
        <ele>1032</ele>
        <time>2020-05-22T10:30:31.000Z</time>
      </trkpt>
      <trkpt lat="44.83099" lon="4.37555">
        <ele>1032.1</ele>
        <time>2020-05-22T10:30:33.000Z</time>
      </trkpt>
      <trkpt lat="44.83106" lon="4.37566">
        <ele>1032.2</ele>
        <time>2020-05-22T10:30:35.000Z</time>
      </trkpt>
      <trkpt lat="44.83113" lon="4.37578">
        <ele>1032.3</ele>
        <time>2020-05-22T10:30:37.000Z</time>
      </trkpt>
      <trkpt lat="44.83121" lon="4.3759">
        <ele>1032.3</ele>
        <time>2020-05-22T10:30:39.000Z</time>
      </trkpt>
      <trkpt lat="44.83129" lon="4.376">
        <ele>1032.3</ele>
        <time>2020-05-22T10:30:41.000Z</time>
      </trkpt>
      <trkpt lat="44.83137" lon="4.3761">
        <ele>1032.4</ele>
        <time>2020-05-22T10:30:43.000Z</time>
      </trkpt>
      <trkpt lat="44.83146" lon="4.3762">
        <ele>1032.4</ele>
        <time>2020-05-22T10:30:45.000Z</time>
      </trkpt>
      <trkpt lat="44.83156" lon="4.3763">
        <ele>1032.5</ele>
        <time>2020-05-22T10:30:47.000Z</time>
      </trkpt>
      <trkpt lat="44.83167" lon="4.37639">
        <ele>1032.5</ele>
        <time>2020-05-22T10:30:49.000Z</time>
      </trkpt>
      <trkpt lat="44.83177" lon="4.37647">
        <ele>1032.5</ele>
        <time>2020-05-22T10:30:51.000Z</time>
      </trkpt>
      <trkpt lat="44.83188" lon="4.37653">
        <ele>1032.5</ele>
        <time>2020-05-22T10:30:53.000Z</time>
      </trkpt>
      <trkpt lat="44.83199" lon="4.37657">
        <ele>1032.5</ele>
        <time>2020-05-22T10:30:55.000Z</time>
      </trkpt>
      <trkpt lat="44.83211" lon="4.37659">
        <ele>1032.4</ele>
        <time>2020-05-22T10:30:57.000Z</time>
      </trkpt>
      <trkpt lat="44.83222" lon="4.37659">
        <ele>1032.4</ele>
        <time>2020-05-22T10:30:59.000Z</time>
      </trkpt>
      <trkpt lat="44.83234" lon="4.37658">
        <ele>1032.4</ele>
        <time>2020-05-22T10:31:01.000Z</time>
      </trkpt>
      <trkpt lat="44.83245" lon="4.37655">
        <ele>1032.5</ele>
        <time>2020-05-22T10:31:03.000Z</time>
      </trkpt>
      <trkpt lat="44.83257" lon="4.3765">
        <ele>1032.5</ele>
        <time>2020-05-22T10:31:05.000Z</time>
      </trkpt>
      <trkpt lat="44.83268" lon="4.37645">
        <ele>1032.4</ele>
        <time>2020-05-22T10:31:07.000Z</time>
      </trkpt>
      <trkpt lat="44.8328" lon="4.37638">
        <ele>1032.4</ele>
        <time>2020-05-22T10:31:09.000Z</time>
      </trkpt>
      <trkpt lat="44.83291" lon="4.37631">
        <ele>1032.4</ele>
        <time>2020-05-22T10:31:11.000Z</time>
      </trkpt>
      <trkpt lat="44.83302" lon="4.37624">
        <ele>1032.3</ele>
        <time>2020-05-22T10:31:13.000Z</time>
      </trkpt>
      <trkpt lat="44.83312" lon="4.37617">
        <ele>1032.3</ele>
        <time>2020-05-22T10:31:15.000Z</time>
      </trkpt>
      <trkpt lat="44.83323" lon="4.3761">
        <ele>1032.3</ele>
        <time>2020-05-22T10:31:17.000Z</time>
      </trkpt>
      <trkpt lat="44.83333" lon="4.37604">
        <ele>1032.4</ele>
        <time>2020-05-22T10:31:19.000Z</time>
      </trkpt>
      <trkpt lat="44.83344" lon="4.37597">
        <ele>1032.5</ele>
        <time>2020-05-22T10:31:21.000Z</time>
      </trkpt>
      <trkpt lat="44.83355" lon="4.3759">
        <ele>1032.6</ele>
        <time>2020-05-22T10:31:23.000Z</time>
      </trkpt>
      <trkpt lat="44.83365" lon="4.37582">
        <ele>1032.7</ele>
        <time>2020-05-22T10:31:25.000Z</time>
      </trkpt>
      <trkpt lat="44.83375" lon="4.37572">
        <ele>1032.8</ele>
        <time>2020-05-22T10:31:27.000Z</time>
      </trkpt>
      <trkpt lat="44.83385" lon="4.37561">
        <ele>1032.9</ele>
        <time>2020-05-22T10:31:29.000Z</time>
      </trkpt>
      <trkpt lat="44.83394" lon="4.37551">
        <ele>1033</ele>
        <time>2020-05-22T10:31:31.000Z</time>
      </trkpt>
      <trkpt lat="44.83402" lon="4.37539">
        <ele>1033.1</ele>
        <time>2020-05-22T10:31:33.000Z</time>
      </trkpt>
      <trkpt lat="44.8341" lon="4.37527">
        <ele>1033.2</ele>
        <time>2020-05-22T10:31:35.000Z</time>
      </trkpt>
      <trkpt lat="44.83418" lon="4.37515">
        <ele>1033.3</ele>
        <time>2020-05-22T10:31:37.000Z</time>
      </trkpt>
      <trkpt lat="44.83425" lon="4.37502">
        <ele>1033.5</ele>
        <time>2020-05-22T10:31:39.000Z</time>
      </trkpt>
      <trkpt lat="44.83432" lon="4.3749">
        <ele>1033.6</ele>
        <time>2020-05-22T10:31:41.000Z</time>
      </trkpt>
      <trkpt lat="44.83439" lon="4.37478">
        <ele>1033.8</ele>
        <time>2020-05-22T10:31:43.000Z</time>
      </trkpt>
      <trkpt lat="44.83445" lon="4.37466">
        <ele>1033.9</ele>
        <time>2020-05-22T10:31:45.000Z</time>
      </trkpt>
      <trkpt lat="44.83451" lon="4.37453">
        <ele>1034</ele>
        <time>2020-05-22T10:31:47.000Z</time>
      </trkpt>
      <trkpt lat="44.83456" lon="4.3744">
        <ele>1034</ele>
        <time>2020-05-22T10:31:49.000Z</time>
      </trkpt>
      <trkpt lat="44.8346" lon="4.37426">
        <ele>1034.1</ele>
        <time>2020-05-22T10:31:51.000Z</time>
      </trkpt>
      <trkpt lat="44.83466" lon="4.37414">
        <ele>1034.1</ele>
        <time>2020-05-22T10:31:53.000Z</time>
      </trkpt>
      <trkpt lat="44.83473" lon="4.37404">
        <ele>1034.1</ele>
        <time>2020-05-22T10:31:55.000Z</time>
      </trkpt>
      <trkpt lat="44.83482" lon="4.37396">
        <ele>1034</ele>
        <time>2020-05-22T10:31:57.000Z</time>
      </trkpt>
      <trkpt lat="44.83492" lon="4.3739">
        <ele>1034</ele>
        <time>2020-05-22T10:31:59.000Z</time>
      </trkpt>
      <trkpt lat="44.83502" lon="4.37384">
        <ele>1034</ele>
        <time>2020-05-22T10:32:01.000Z</time>
      </trkpt>
      <trkpt lat="44.83512" lon="4.37378">
        <ele>1033.9</ele>
        <time>2020-05-22T10:32:04.000Z</time>
      </trkpt>
      <trkpt lat="44.83515" lon="4.37378">
        <ele>1033.7</ele>
        <time>2020-05-22T10:32:10.000Z</time>
      </trkpt>
      <trkpt lat="44.83525" lon="4.37384">
        <ele>1033.7</ele>
        <time>2020-05-22T10:34:02.000Z</time>
      </trkpt>
      <trkpt lat="44.83536" lon="4.37388">
        <ele>1033.8</ele>
        <time>2020-05-22T10:34:05.000Z</time>
      </trkpt>
      <trkpt lat="44.83545" lon="4.37389">
        <ele>1033.8</ele>
        <time>2020-05-22T10:34:07.000Z</time>
      </trkpt>
      <trkpt lat="44.83555" lon="4.3739">
        <ele>1033.8</ele>
        <time>2020-05-22T10:34:09.000Z</time>
      </trkpt>
      <trkpt lat="44.83566" lon="4.3739">
        <ele>1033.8</ele>
        <time>2020-05-22T10:34:11.000Z</time>
      </trkpt>
      <trkpt lat="44.83577" lon="4.3739">
        <ele>1033.8</ele>
        <time>2020-05-22T10:34:13.000Z</time>
      </trkpt>
      <trkpt lat="44.83588" lon="4.37392">
        <ele>1033.8</ele>
        <time>2020-05-22T10:34:15.000Z</time>
      </trkpt>
      <trkpt lat="44.83599" lon="4.37397">
        <ele>1033.9</ele>
        <time>2020-05-22T10:34:17.000Z</time>
      </trkpt>
      <trkpt lat="44.83609" lon="4.37403">
        <ele>1034</ele>
        <time>2020-05-22T10:34:19.000Z</time>
      </trkpt>
      <trkpt lat="44.83619" lon="4.3741">
        <ele>1034.1</ele>
        <time>2020-05-22T10:34:21.000Z</time>
      </trkpt>
      <trkpt lat="44.8363" lon="4.37416">
        <ele>1034.1</ele>
        <time>2020-05-22T10:34:23.000Z</time>
      </trkpt>
      <trkpt lat="44.83642" lon="4.3742">
        <ele>1034.2</ele>
        <time>2020-05-22T10:34:25.000Z</time>
      </trkpt>
      <trkpt lat="44.83654" lon="4.3742">
        <ele>1034.2</ele>
        <time>2020-05-22T10:34:27.000Z</time>
      </trkpt>
      <trkpt lat="44.83665" lon="4.37419">
        <ele>1034.3</ele>
        <time>2020-05-22T10:34:29.000Z</time>
      </trkpt>
      <trkpt lat="44.83677" lon="4.37417">
        <ele>1034.3</ele>
        <time>2020-05-22T10:34:31.000Z</time>
      </trkpt>
      <trkpt lat="44.83688" lon="4.37416">
        <ele>1034.3</ele>
        <time>2020-05-22T10:34:33.000Z</time>
      </trkpt>
      <trkpt lat="44.837" lon="4.37416">
        <ele>1034.2</ele>
        <time>2020-05-22T10:34:35.000Z</time>
      </trkpt>
      <trkpt lat="44.83712" lon="4.3742">
        <ele>1034.3</ele>
        <time>2020-05-22T10:34:37.000Z</time>
      </trkpt>
      <trkpt lat="44.83724" lon="4.37423">
        <ele>1034.3</ele>
        <time>2020-05-22T10:34:39.000Z</time>
      </trkpt>
      <trkpt lat="44.83736" lon="4.37422">
        <ele>1034.4</ele>
        <time>2020-05-22T10:34:41.000Z</time>
      </trkpt>
      <trkpt lat="44.83747" lon="4.37419">
        <ele>1034.5</ele>
        <time>2020-05-22T10:34:43.000Z</time>
      </trkpt>
      <trkpt lat="44.83759" lon="4.37414">
        <ele>1034.6</ele>
        <time>2020-05-22T10:34:45.000Z</time>
      </trkpt>
      <trkpt lat="44.83771" lon="4.37409">
        <ele>1034.6</ele>
        <time>2020-05-22T10:34:47.000Z</time>
      </trkpt>
      <trkpt lat="44.83782" lon="4.37403">
        <ele>1034.8</ele>
        <time>2020-05-22T10:34:49.000Z</time>
      </trkpt>
      <trkpt lat="44.83793" lon="4.37398">
        <ele>1034.9</ele>
        <time>2020-05-22T10:34:51.000Z</time>
      </trkpt>
      <trkpt lat="44.83804" lon="4.37393">
        <ele>1035.1</ele>
        <time>2020-05-22T10:34:53.000Z</time>
      </trkpt>
      <trkpt lat="44.83816" lon="4.37389">
        <ele>1035.2</ele>
        <time>2020-05-22T10:34:55.000Z</time>
      </trkpt>
      <trkpt lat="44.83828" lon="4.37388">
        <ele>1035.2</ele>
        <time>2020-05-22T10:34:57.000Z</time>
      </trkpt>
      <trkpt lat="44.83842" lon="4.37392">
        <ele>1035.2</ele>
        <time>2020-05-22T10:34:59.000Z</time>
      </trkpt>
      <trkpt lat="44.83854" lon="4.37398">
        <ele>1035.2</ele>
        <time>2020-05-22T10:35:01.000Z</time>
      </trkpt>
      <trkpt lat="44.83865" lon="4.37403">
        <ele>1035.2</ele>
        <time>2020-05-22T10:35:03.000Z</time>
      </trkpt>
      <trkpt lat="44.83877" lon="4.37407">
        <ele>1035.1</ele>
        <time>2020-05-22T10:35:05.000Z</time>
      </trkpt>
      <trkpt lat="44.83888" lon="4.3741">
        <ele>1035.1</ele>
        <time>2020-05-22T10:35:07.000Z</time>
      </trkpt>
      <trkpt lat="44.83897" lon="4.37417">
        <ele>1035.1</ele>
        <time>2020-05-22T10:35:10.000Z</time>
      </trkpt>
      <trkpt lat="44.83888" lon="4.37425">
        <ele>1034.8</ele>
        <time>2020-05-22T10:35:15.000Z</time>
      </trkpt>
      <trkpt lat="44.83876" lon="4.37428">
        <ele>1034.5</ele>
        <time>2020-05-22T10:35:18.000Z</time>
      </trkpt>
      <trkpt lat="44.83864" lon="4.37433">
        <ele>1034.5</ele>
        <time>2020-05-22T10:35:21.000Z</time>
      </trkpt>
      <trkpt lat="44.83852" lon="4.37439">
        <ele>1034.7</ele>
        <time>2020-05-22T10:35:24.000Z</time>
      </trkpt>
      <trkpt lat="44.83841" lon="4.37447">
        <ele>1035</ele>
        <time>2020-05-22T10:35:27.000Z</time>
      </trkpt>
      <trkpt lat="44.83829" lon="4.37454">
        <ele>1035.4</ele>
        <time>2020-05-22T10:35:30.000Z</time>
      </trkpt>
      <trkpt lat="44.83818" lon="4.37461">
        <ele>1035.7</ele>
        <time>2020-05-22T10:35:33.000Z</time>
      </trkpt>
      <trkpt lat="44.83809" lon="4.37467">
        <ele>1035.9</ele>
        <time>2020-05-22T10:35:35.000Z</time>
      </trkpt>
      <trkpt lat="44.83799" lon="4.37475">
        <ele>1036.1</ele>
        <time>2020-05-22T10:35:38.000Z</time>
      </trkpt>
      <trkpt lat="44.83789" lon="4.37481">
        <ele>1036.1</ele>
        <time>2020-05-22T10:35:40.000Z</time>
      </trkpt>
      <trkpt lat="44.8378" lon="4.37487">
        <ele>1036.2</ele>
        <time>2020-05-22T10:35:42.000Z</time>
      </trkpt>
      <trkpt lat="44.83769" lon="4.37497">
        <ele>1036.4</ele>
        <time>2020-05-22T10:35:45.000Z</time>
      </trkpt>
      <trkpt lat="44.83762" lon="4.37504">
        <ele>1036.5</ele>
        <time>2020-05-22T10:35:47.000Z</time>
      </trkpt>
      <trkpt lat="44.83753" lon="4.37518">
        <ele>1036.7</ele>
        <time>2020-05-22T10:35:50.000Z</time>
      </trkpt>
      <trkpt lat="44.83747" lon="4.3753">
        <ele>1036.7</ele>
        <time>2020-05-22T10:35:52.000Z</time>
      </trkpt>
      <trkpt lat="44.83744" lon="4.37544">
        <ele>1036.8</ele>
        <time>2020-05-22T10:35:54.000Z</time>
      </trkpt>
      <trkpt lat="44.8374" lon="4.37559">
        <ele>1036.9</ele>
        <time>2020-05-22T10:35:56.000Z</time>
      </trkpt>
      <trkpt lat="44.83739" lon="4.37573">
        <ele>1037.1</ele>
        <time>2020-05-22T10:35:58.000Z</time>
      </trkpt>
      <trkpt lat="44.8374" lon="4.37587">
        <ele>1037.3</ele>
        <time>2020-05-22T10:36:00.000Z</time>
      </trkpt>
      <trkpt lat="44.83742" lon="4.37606">
        <ele>1037.6</ele>
        <time>2020-05-22T10:36:03.000Z</time>
      </trkpt>
      <trkpt lat="44.83747" lon="4.37618">
        <ele>1037.8</ele>
        <time>2020-05-22T10:36:05.000Z</time>
      </trkpt>
      <trkpt lat="44.83751" lon="4.37632">
        <ele>1037.9</ele>
        <time>2020-05-22T10:36:07.000Z</time>
      </trkpt>
      <trkpt lat="44.83756" lon="4.37645">
        <ele>1037.9</ele>
        <time>2020-05-22T10:36:09.000Z</time>
      </trkpt>
      <trkpt lat="44.83761" lon="4.37659">
        <ele>1037.9</ele>
        <time>2020-05-22T10:36:11.000Z</time>
      </trkpt>
      <trkpt lat="44.83766" lon="4.37678">
        <ele>1037.8</ele>
        <time>2020-05-22T10:36:14.000Z</time>
      </trkpt>
      <trkpt lat="44.8377" lon="4.37692">
        <ele>1037.7</ele>
        <time>2020-05-22T10:36:16.000Z</time>
      </trkpt>
      <trkpt lat="44.8377" lon="4.37708">
        <ele>1037.6</ele>
        <time>2020-05-22T10:36:18.000Z</time>
      </trkpt>
      <trkpt lat="44.83765" lon="4.37721">
        <ele>1037.6</ele>
        <time>2020-05-22T10:36:20.000Z</time>
      </trkpt>
      <trkpt lat="44.83756" lon="4.3773">
        <ele>1037.5</ele>
        <time>2020-05-22T10:36:22.000Z</time>
      </trkpt>
      <trkpt lat="44.83748" lon="4.37736">
        <ele>1037.4</ele>
        <time>2020-05-22T10:36:24.000Z</time>
      </trkpt>
      <trkpt lat="44.83737" lon="4.37742">
        <ele>1037.2</ele>
        <time>2020-05-22T10:36:26.000Z</time>
      </trkpt>
      <trkpt lat="44.83726" lon="4.37747">
        <ele>1037</ele>
        <time>2020-05-22T10:36:28.000Z</time>
      </trkpt>
      <trkpt lat="44.83713" lon="4.37749">
        <ele>1036.8</ele>
        <time>2020-05-22T10:36:30.000Z</time>
      </trkpt>
      <trkpt lat="44.837" lon="4.37751">
        <ele>1036.5</ele>
        <time>2020-05-22T10:36:32.000Z</time>
      </trkpt>
      <trkpt lat="44.83687" lon="4.37756">
        <ele>1036.2</ele>
        <time>2020-05-22T10:36:34.000Z</time>
      </trkpt>
      <trkpt lat="44.83679" lon="4.37762">
        <ele>1035.9</ele>
        <time>2020-05-22T10:36:36.000Z</time>
      </trkpt>
      <trkpt lat="44.83669" lon="4.3777">
        <ele>1035.8</ele>
        <time>2020-05-22T10:36:38.000Z</time>
      </trkpt>
      <trkpt lat="44.83661" lon="4.37782">
        <ele>1035.5</ele>
        <time>2020-05-22T10:36:41.000Z</time>
      </trkpt>
      <trkpt lat="44.83652" lon="4.37789">
        <ele>1035.2</ele>
        <time>2020-05-22T10:36:43.000Z</time>
      </trkpt>
      <trkpt lat="44.8364" lon="4.37796">
        <ele>1034.9</ele>
        <time>2020-05-22T10:36:45.000Z</time>
      </trkpt>
      <trkpt lat="44.83628" lon="4.37803">
        <ele>1034.7</ele>
        <time>2020-05-22T10:36:47.000Z</time>
      </trkpt>
      <trkpt lat="44.83618" lon="4.37809">
        <ele>1034.6</ele>
        <time>2020-05-22T10:36:49.000Z</time>
      </trkpt>
      <trkpt lat="44.83606" lon="4.37813">
        <ele>1034.5</ele>
        <time>2020-05-22T10:36:51.000Z</time>
      </trkpt>
      <trkpt lat="44.83597" lon="4.37819">
        <ele>1034.5</ele>
        <time>2020-05-22T10:36:53.000Z</time>
      </trkpt>
      <trkpt lat="44.83587" lon="4.37826">
        <ele>1034.5</ele>
        <time>2020-05-22T10:36:56.000Z</time>
      </trkpt>
      <trkpt lat="44.83576" lon="4.37832">
        <ele>1034.8</ele>
        <time>2020-05-22T10:36:59.000Z</time>
      </trkpt>
      <trkpt lat="44.83569" lon="4.37843">
        <ele>1034.9</ele>
        <time>2020-05-22T10:37:01.000Z</time>
      </trkpt>
      <trkpt lat="44.83563" lon="4.37856">
        <ele>1035.1</ele>
        <time>2020-05-22T10:37:04.000Z</time>
      </trkpt>
      <trkpt lat="44.83557" lon="4.37866">
        <ele>1035.1</ele>
        <time>2020-05-22T10:37:06.000Z</time>
      </trkpt>
      <trkpt lat="44.8355" lon="4.37878">
        <ele>1035</ele>
        <time>2020-05-22T10:37:08.000Z</time>
      </trkpt>
      <trkpt lat="44.83546" lon="4.37892">
        <ele>1034.8</ele>
        <time>2020-05-22T10:37:10.000Z</time>
      </trkpt>
      <trkpt lat="44.83541" lon="4.37906">
        <ele>1034.5</ele>
        <time>2020-05-22T10:37:12.000Z</time>
      </trkpt>
      <trkpt lat="44.83537" lon="4.37919">
        <ele>1034.2</ele>
        <time>2020-05-22T10:37:14.000Z</time>
      </trkpt>
      <trkpt lat="44.8353" lon="4.37931">
        <ele>1033.9</ele>
        <time>2020-05-22T10:37:16.000Z</time>
      </trkpt>
      <trkpt lat="44.83522" lon="4.37944">
        <ele>1033.7</ele>
        <time>2020-05-22T10:37:18.000Z</time>
      </trkpt>
      <trkpt lat="44.83512" lon="4.37957">
        <ele>1033.6</ele>
        <time>2020-05-22T10:37:20.000Z</time>
      </trkpt>
      <trkpt lat="44.83505" lon="4.37971">
        <ele>1033.4</ele>
        <time>2020-05-22T10:37:22.000Z</time>
      </trkpt>
      <trkpt lat="44.83497" lon="4.37985">
        <ele>1033.3</ele>
        <time>2020-05-22T10:37:24.000Z</time>
      </trkpt>
      <trkpt lat="44.83489" lon="4.38002">
        <ele>1033.2</ele>
        <time>2020-05-22T10:37:26.000Z</time>
      </trkpt>
      <trkpt lat="44.83483" lon="4.38019">
        <ele>1032.9</ele>
        <time>2020-05-22T10:37:28.000Z</time>
      </trkpt>
      <trkpt lat="44.83475" lon="4.38037">
        <ele>1032.7</ele>
        <time>2020-05-22T10:37:30.000Z</time>
      </trkpt>
      <trkpt lat="44.83471" lon="4.38055">
        <ele>1032.4</ele>
        <time>2020-05-22T10:37:32.000Z</time>
      </trkpt>
      <trkpt lat="44.83462" lon="4.38072">
        <ele>1032.2</ele>
        <time>2020-05-22T10:37:34.000Z</time>
      </trkpt>
      <trkpt lat="44.83458" lon="4.3809">
        <ele>1032.1</ele>
        <time>2020-05-22T10:37:36.000Z</time>
      </trkpt>
      <trkpt lat="44.8345" lon="4.38109">
        <ele>1031.9</ele>
        <time>2020-05-22T10:37:38.000Z</time>
      </trkpt>
      <trkpt lat="44.83446" lon="4.38126">
        <ele>1031.8</ele>
        <time>2020-05-22T10:37:40.000Z</time>
      </trkpt>
      <trkpt lat="44.83446" lon="4.38142">
        <ele>1031.8</ele>
        <time>2020-05-22T10:37:42.000Z</time>
      </trkpt>
      <trkpt lat="44.8345" lon="4.38158">
        <ele>1031.8</ele>
        <time>2020-05-22T10:37:44.000Z</time>
      </trkpt>
      <trkpt lat="44.83455" lon="4.38173">
        <ele>1031.9</ele>
        <time>2020-05-22T10:37:46.000Z</time>
      </trkpt>
      <trkpt lat="44.83461" lon="4.38189">
        <ele>1032</ele>
        <time>2020-05-22T10:37:48.000Z</time>
      </trkpt>
      <trkpt lat="44.83466" lon="4.38205">
        <ele>1032.1</ele>
        <time>2020-05-22T10:37:50.000Z</time>
      </trkpt>
      <trkpt lat="44.8347" lon="4.38219">
        <ele>1032.2</ele>
        <time>2020-05-22T10:37:52.000Z</time>
      </trkpt>
      <trkpt lat="44.83475" lon="4.38234">
        <ele>1032.3</ele>
        <time>2020-05-22T10:37:54.000Z</time>
      </trkpt>
      <trkpt lat="44.83481" lon="4.38248">
        <ele>1032.4</ele>
        <time>2020-05-22T10:37:56.000Z</time>
      </trkpt>
      <trkpt lat="44.83489" lon="4.38259">
        <ele>1032.4</ele>
        <time>2020-05-22T10:37:58.000Z</time>
      </trkpt>
      <trkpt lat="44.83498" lon="4.38268">
        <ele>1032.4</ele>
        <time>2020-05-22T10:38:00.000Z</time>
      </trkpt>
      <trkpt lat="44.83505" lon="4.38278">
        <ele>1032.4</ele>
        <time>2020-05-22T10:38:02.000Z</time>
      </trkpt>
      <trkpt lat="44.83512" lon="4.38289">
        <ele>1032.3</ele>
        <time>2020-05-22T10:38:04.000Z</time>
      </trkpt>
      <trkpt lat="44.83516" lon="4.38303">
        <ele>1032.2</ele>
        <time>2020-05-22T10:38:06.000Z</time>
      </trkpt>
      <trkpt lat="44.83516" lon="4.38319">
        <ele>1032.1</ele>
        <time>2020-05-22T10:38:08.000Z</time>
      </trkpt>
      <trkpt lat="44.83514" lon="4.38336">
        <ele>1032</ele>
        <time>2020-05-22T10:38:10.000Z</time>
      </trkpt>
      <trkpt lat="44.8351" lon="4.38354">
        <ele>1032</ele>
        <time>2020-05-22T10:38:12.000Z</time>
      </trkpt>
      <trkpt lat="44.83501" lon="4.38371">
        <ele>1031.9</ele>
        <time>2020-05-22T10:38:14.000Z</time>
      </trkpt>
      <trkpt lat="44.83498" lon="4.38389">
        <ele>1031.6</ele>
        <time>2020-05-22T10:38:16.000Z</time>
      </trkpt>
      <trkpt lat="44.83497" lon="4.38407">
        <ele>1031.3</ele>
        <time>2020-05-22T10:38:18.000Z</time>
      </trkpt>
      <trkpt lat="44.83497" lon="4.38426">
        <ele>1031.1</ele>
        <time>2020-05-22T10:38:20.000Z</time>
      </trkpt>
      <trkpt lat="44.83497" lon="4.38445">
        <ele>1030.8</ele>
        <time>2020-05-22T10:38:22.000Z</time>
      </trkpt>
      <trkpt lat="44.83496" lon="4.38463">
        <ele>1030.5</ele>
        <time>2020-05-22T10:38:24.000Z</time>
      </trkpt>
      <trkpt lat="44.83496" lon="4.38482">
        <ele>1030.3</ele>
        <time>2020-05-22T10:38:26.000Z</time>
      </trkpt>
      <trkpt lat="44.83498" lon="4.385">
        <ele>1030.2</ele>
        <time>2020-05-22T10:38:28.000Z</time>
      </trkpt>
      <trkpt lat="44.83499" lon="4.38519">
        <ele>1030</ele>
        <time>2020-05-22T10:38:30.000Z</time>
      </trkpt>
      <trkpt lat="44.835" lon="4.38538">
        <ele>1029.9</ele>
        <time>2020-05-22T10:38:32.000Z</time>
      </trkpt>
      <trkpt lat="44.83502" lon="4.38558">
        <ele>1029.9</ele>
        <time>2020-05-22T10:38:34.000Z</time>
      </trkpt>
      <trkpt lat="44.83505" lon="4.38577">
        <ele>1029.8</ele>
        <time>2020-05-22T10:38:36.000Z</time>
      </trkpt>
      <trkpt lat="44.83507" lon="4.38596">
        <ele>1029.5</ele>
        <time>2020-05-22T10:38:38.000Z</time>
      </trkpt>
      <trkpt lat="44.83508" lon="4.38613">
        <ele>1029.4</ele>
        <time>2020-05-22T10:38:40.000Z</time>
      </trkpt>
      <trkpt lat="44.83511" lon="4.38629">
        <ele>1029.4</ele>
        <time>2020-05-22T10:38:42.000Z</time>
      </trkpt>
      <trkpt lat="44.83517" lon="4.38644">
        <ele>1029.4</ele>
        <time>2020-05-22T10:38:44.000Z</time>
      </trkpt>
      <trkpt lat="44.83525" lon="4.3866">
        <ele>1029.4</ele>
        <time>2020-05-22T10:38:46.000Z</time>
      </trkpt>
      <trkpt lat="44.83536" lon="4.38675">
        <ele>1029</ele>
        <time>2020-05-22T10:38:48.000Z</time>
      </trkpt>
      <trkpt lat="44.83548" lon="4.38688">
        <ele>1028.6</ele>
        <time>2020-05-22T10:38:50.000Z</time>
      </trkpt>
      <trkpt lat="44.83561" lon="4.387">
        <ele>1027.6</ele>
        <time>2020-05-22T10:38:52.000Z</time>
      </trkpt>
      <trkpt lat="44.83573" lon="4.3871">
        <ele>1026.6</ele>
        <time>2020-05-22T10:38:54.000Z</time>
      </trkpt>
      <trkpt lat="44.83584" lon="4.38719">
        <ele>1025.4</ele>
        <time>2020-05-22T10:38:56.000Z</time>
      </trkpt>
      <trkpt lat="44.83596" lon="4.38727">
        <ele>1024.3</ele>
        <time>2020-05-22T10:38:58.000Z</time>
      </trkpt>
      <trkpt lat="44.83605" lon="4.38732">
        <ele>1023.1</ele>
        <time>2020-05-22T10:39:00.000Z</time>
      </trkpt>
      <trkpt lat="44.83619" lon="4.38737">
        <ele>1021.4</ele>
        <time>2020-05-22T10:39:03.000Z</time>
      </trkpt>
      <trkpt lat="44.83633" lon="4.38739">
        <ele>1020.5</ele>
        <time>2020-05-22T10:39:05.000Z</time>
      </trkpt>
      <trkpt lat="44.83646" lon="4.3874">
        <ele>1019.5</ele>
        <time>2020-05-22T10:39:07.000Z</time>
      </trkpt>
      <trkpt lat="44.83662" lon="4.38741">
        <ele>1018.5</ele>
        <time>2020-05-22T10:39:09.000Z</time>
      </trkpt>
      <trkpt lat="44.83679" lon="4.38741">
        <ele>1017.6</ele>
        <time>2020-05-22T10:39:11.000Z</time>
      </trkpt>
      <trkpt lat="44.83696" lon="4.38744">
        <ele>1016.8</ele>
        <time>2020-05-22T10:39:13.000Z</time>
      </trkpt>
      <trkpt lat="44.8371" lon="4.3875">
        <ele>1016.1</ele>
        <time>2020-05-22T10:39:15.000Z</time>
      </trkpt>
      <trkpt lat="44.83721" lon="4.38758">
        <ele>1015.5</ele>
        <time>2020-05-22T10:39:17.000Z</time>
      </trkpt>
      <trkpt lat="44.8373" lon="4.38764">
        <ele>1015</ele>
        <time>2020-05-22T10:39:19.000Z</time>
      </trkpt>
      <trkpt lat="44.8374" lon="4.38774">
        <ele>1014.5</ele>
        <time>2020-05-22T10:39:21.000Z</time>
      </trkpt>
      <trkpt lat="44.83749" lon="4.38785">
        <ele>1013.9</ele>
        <time>2020-05-22T10:39:23.000Z</time>
      </trkpt>
      <trkpt lat="44.83758" lon="4.38796">
        <ele>1013.4</ele>
        <time>2020-05-22T10:39:25.000Z</time>
      </trkpt>
      <trkpt lat="44.83766" lon="4.38809">
        <ele>1012.7</ele>
        <time>2020-05-22T10:39:27.000Z</time>
      </trkpt>
      <trkpt lat="44.83771" lon="4.38826">
        <ele>1012.2</ele>
        <time>2020-05-22T10:39:29.000Z</time>
      </trkpt>
      <trkpt lat="44.83777" lon="4.38844">
        <ele>1011.8</ele>
        <time>2020-05-22T10:39:31.000Z</time>
      </trkpt>
      <trkpt lat="44.83784" lon="4.38862">
        <ele>1011.4</ele>
        <time>2020-05-22T10:39:33.000Z</time>
      </trkpt>
      <trkpt lat="44.83792" lon="4.38873">
        <ele>1011.3</ele>
        <time>2020-05-22T10:39:34.000Z</time>
      </trkpt>
      <trkpt lat="44.83797" lon="4.38894">
        <ele>1011</ele>
        <time>2020-05-22T10:39:36.000Z</time>
      </trkpt>
      <trkpt lat="44.838" lon="4.38914">
        <ele>1010.6</ele>
        <time>2020-05-22T10:39:38.000Z</time>
      </trkpt>
      <trkpt lat="44.83802" lon="4.38935">
        <ele>1010.3</ele>
        <time>2020-05-22T10:39:40.000Z</time>
      </trkpt>
      <trkpt lat="44.83802" lon="4.38953">
        <ele>1010</ele>
        <time>2020-05-22T10:39:42.000Z</time>
      </trkpt>
      <trkpt lat="44.83803" lon="4.38973">
        <ele>1009.8</ele>
        <time>2020-05-22T10:39:44.000Z</time>
      </trkpt>
      <trkpt lat="44.83801" lon="4.38993">
        <ele>1009.5</ele>
        <time>2020-05-22T10:39:46.000Z</time>
      </trkpt>
      <trkpt lat="44.83798" lon="4.39012">
        <ele>1009.2</ele>
        <time>2020-05-22T10:39:48.000Z</time>
      </trkpt>
      <trkpt lat="44.83798" lon="4.39026">
        <ele>1008.7</ele>
        <time>2020-05-22T10:39:50.000Z</time>
      </trkpt>
      <trkpt lat="44.83798" lon="4.39041">
        <ele>1008</ele>
        <time>2020-05-22T10:39:52.000Z</time>
      </trkpt>
      <trkpt lat="44.83794" lon="4.39057">
        <ele>1007.2</ele>
        <time>2020-05-22T10:39:54.000Z</time>
      </trkpt>
      <trkpt lat="44.8379" lon="4.39076">
        <ele>1006.5</ele>
        <time>2020-05-22T10:39:56.000Z</time>
      </trkpt>
      <trkpt lat="44.83789" lon="4.39095">
        <ele>1005.7</ele>
        <time>2020-05-22T10:39:58.000Z</time>
      </trkpt>
      <trkpt lat="44.83786" lon="4.39118">
        <ele>1004.8</ele>
        <time>2020-05-22T10:40:00.000Z</time>
      </trkpt>
      <trkpt lat="44.83787" lon="4.3914">
        <ele>1003.8</ele>
        <time>2020-05-22T10:40:02.000Z</time>
      </trkpt>
      <trkpt lat="44.83785" lon="4.39163">
        <ele>1002.8</ele>
        <time>2020-05-22T10:40:04.000Z</time>
      </trkpt>
      <trkpt lat="44.83785" lon="4.39188">
        <ele>1001.6</ele>
        <time>2020-05-22T10:40:06.000Z</time>
      </trkpt>
      <trkpt lat="44.83785" lon="4.39201">
        <ele>1000.9</ele>
        <time>2020-05-22T10:40:07.000Z</time>
      </trkpt>
      <trkpt lat="44.83785" lon="4.39216">
        <ele>1000.3</ele>
        <time>2020-05-22T10:40:08.000Z</time>
      </trkpt>
      <trkpt lat="44.83783" lon="4.39239">
        <ele>999.4</ele>
        <time>2020-05-22T10:40:10.000Z</time>
      </trkpt>
      <trkpt lat="44.8378" lon="4.3926">
        <ele>998.8</ele>
        <time>2020-05-22T10:40:12.000Z</time>
      </trkpt>
      <trkpt lat="44.83777" lon="4.39278">
        <ele>998.2</ele>
        <time>2020-05-22T10:40:14.000Z</time>
      </trkpt>
      <trkpt lat="44.83775" lon="4.39298">
        <ele>997.4</ele>
        <time>2020-05-22T10:40:16.000Z</time>
      </trkpt>
      <trkpt lat="44.83772" lon="4.39319">
        <ele>996.4</ele>
        <time>2020-05-22T10:40:18.000Z</time>
      </trkpt>
      <trkpt lat="44.83771" lon="4.39342">
        <ele>995.1</ele>
        <time>2020-05-22T10:40:20.000Z</time>
      </trkpt>
      <trkpt lat="44.83771" lon="4.39366">
        <ele>993.8</ele>
        <time>2020-05-22T10:40:22.000Z</time>
      </trkpt>
      <trkpt lat="44.83772" lon="4.3939">
        <ele>992.4</ele>
        <time>2020-05-22T10:40:24.000Z</time>
      </trkpt>
      <trkpt lat="44.83773" lon="4.39415">
        <ele>991.4</ele>
        <time>2020-05-22T10:40:26.000Z</time>
      </trkpt>
      <trkpt lat="44.83774" lon="4.39439">
        <ele>990.7</ele>
        <time>2020-05-22T10:40:28.000Z</time>
      </trkpt>
      <trkpt lat="44.83777" lon="4.39462">
        <ele>989.9</ele>
        <time>2020-05-22T10:40:30.000Z</time>
      </trkpt>
      <trkpt lat="44.83782" lon="4.39484">
        <ele>989.2</ele>
        <time>2020-05-22T10:40:32.000Z</time>
      </trkpt>
      <trkpt lat="44.83788" lon="4.39505">
        <ele>988.4</ele>
        <time>2020-05-22T10:40:34.000Z</time>
      </trkpt>
      <trkpt lat="44.83795" lon="4.39526">
        <ele>987.9</ele>
        <time>2020-05-22T10:40:36.000Z</time>
      </trkpt>
      <trkpt lat="44.83801" lon="4.39545">
        <ele>987.4</ele>
        <time>2020-05-22T10:40:38.000Z</time>
      </trkpt>
      <trkpt lat="44.83805" lon="4.39566">
        <ele>987.1</ele>
        <time>2020-05-22T10:40:40.000Z</time>
      </trkpt>
      <trkpt lat="44.83809" lon="4.39587">
        <ele>986.9</ele>
        <time>2020-05-22T10:40:42.000Z</time>
      </trkpt>
      <trkpt lat="44.83815" lon="4.39607">
        <ele>986.5</ele>
        <time>2020-05-22T10:40:44.000Z</time>
      </trkpt>
      <trkpt lat="44.83821" lon="4.39625">
        <ele>985.8</ele>
        <time>2020-05-22T10:40:46.000Z</time>
      </trkpt>
      <trkpt lat="44.83828" lon="4.39642">
        <ele>985.2</ele>
        <time>2020-05-22T10:40:48.000Z</time>
      </trkpt>
      <trkpt lat="44.83833" lon="4.39659">
        <ele>984.8</ele>
        <time>2020-05-22T10:40:50.000Z</time>
      </trkpt>
      <trkpt lat="44.83835" lon="4.39678">
        <ele>984.6</ele>
        <time>2020-05-22T10:40:52.000Z</time>
      </trkpt>
      <trkpt lat="44.83835" lon="4.39699">
        <ele>984.5</ele>
        <time>2020-05-22T10:40:54.000Z</time>
      </trkpt>
      <trkpt lat="44.83836" lon="4.39719">
        <ele>984.1</ele>
        <time>2020-05-22T10:40:56.000Z</time>
      </trkpt>
      <trkpt lat="44.8384" lon="4.39738">
        <ele>983.5</ele>
        <time>2020-05-22T10:40:58.000Z</time>
      </trkpt>
      <trkpt lat="44.83846" lon="4.39759">
        <ele>982.8</ele>
        <time>2020-05-22T10:41:00.000Z</time>
      </trkpt>
      <trkpt lat="44.83857" lon="4.39778">
        <ele>981.8</ele>
        <time>2020-05-22T10:41:02.000Z</time>
      </trkpt>
      <trkpt lat="44.8387" lon="4.39795">
        <ele>980.6</ele>
        <time>2020-05-22T10:41:04.000Z</time>
      </trkpt>
      <trkpt lat="44.83878" lon="4.39803">
        <ele>980</ele>
        <time>2020-05-22T10:41:05.000Z</time>
      </trkpt>
      <trkpt lat="44.83885" lon="4.39811">
        <ele>979.4</ele>
        <time>2020-05-22T10:41:06.000Z</time>
      </trkpt>
      <trkpt lat="44.83893" lon="4.39819">
        <ele>978.7</ele>
        <time>2020-05-22T10:41:07.000Z</time>
      </trkpt>
      <trkpt lat="44.83901" lon="4.39828">
        <ele>978</ele>
        <time>2020-05-22T10:41:08.000Z</time>
      </trkpt>
      <trkpt lat="44.83909" lon="4.39837">
        <ele>977.3</ele>
        <time>2020-05-22T10:41:09.000Z</time>
      </trkpt>
      <trkpt lat="44.83918" lon="4.39846">
        <ele>976.6</ele>
        <time>2020-05-22T10:41:10.000Z</time>
      </trkpt>
      <trkpt lat="44.83927" lon="4.39855">
        <ele>976</ele>
        <time>2020-05-22T10:41:11.000Z</time>
      </trkpt>
      <trkpt lat="44.83935" lon="4.39864">
        <ele>975.4</ele>
        <time>2020-05-22T10:41:12.000Z</time>
      </trkpt>
      <trkpt lat="44.83941" lon="4.39874">
        <ele>974.7</ele>
        <time>2020-05-22T10:41:13.000Z</time>
      </trkpt>
      <trkpt lat="44.83946" lon="4.39885">
        <ele>974</ele>
        <time>2020-05-22T10:41:14.000Z</time>
      </trkpt>
      <trkpt lat="44.83952" lon="4.39896">
        <ele>973.1</ele>
        <time>2020-05-22T10:41:15.000Z</time>
      </trkpt>
      <trkpt lat="44.83958" lon="4.39908">
        <ele>972.2</ele>
        <time>2020-05-22T10:41:16.000Z</time>
      </trkpt>
      <trkpt lat="44.83963" lon="4.3992">
        <ele>971.2</ele>
        <time>2020-05-22T10:41:17.000Z</time>
      </trkpt>
      <trkpt lat="44.83968" lon="4.39933">
        <ele>970.2</ele>
        <time>2020-05-22T10:41:18.000Z</time>
      </trkpt>
      <trkpt lat="44.83972" lon="4.39946">
        <ele>969.4</ele>
        <time>2020-05-22T10:41:19.000Z</time>
      </trkpt>
      <trkpt lat="44.83977" lon="4.39959">
        <ele>968.5</ele>
        <time>2020-05-22T10:41:20.000Z</time>
      </trkpt>
      <trkpt lat="44.83982" lon="4.39972">
        <ele>967.8</ele>
        <time>2020-05-22T10:41:21.000Z</time>
      </trkpt>
      <trkpt lat="44.83988" lon="4.39984">
        <ele>967.2</ele>
        <time>2020-05-22T10:41:22.000Z</time>
      </trkpt>
      <trkpt lat="44.83994" lon="4.39997">
        <ele>966.5</ele>
        <time>2020-05-22T10:41:23.000Z</time>
      </trkpt>
      <trkpt lat="44.84" lon="4.40009">
        <ele>965.9</ele>
        <time>2020-05-22T10:41:24.000Z</time>
      </trkpt>
      <trkpt lat="44.84005" lon="4.40021">
        <ele>965.3</ele>
        <time>2020-05-22T10:41:25.000Z</time>
      </trkpt>
      <trkpt lat="44.84011" lon="4.40033">
        <ele>964.8</ele>
        <time>2020-05-22T10:41:26.000Z</time>
      </trkpt>
      <trkpt lat="44.84016" lon="4.40045">
        <ele>964.4</ele>
        <time>2020-05-22T10:41:27.000Z</time>
      </trkpt>
      <trkpt lat="44.84021" lon="4.40056">
        <ele>963.9</ele>
        <time>2020-05-22T10:41:28.000Z</time>
      </trkpt>
      <trkpt lat="44.84026" lon="4.40068">
        <ele>963.5</ele>
        <time>2020-05-22T10:41:29.000Z</time>
      </trkpt>
      <trkpt lat="44.84032" lon="4.40079">
        <ele>963.2</ele>
        <time>2020-05-22T10:41:30.000Z</time>
      </trkpt>
      <trkpt lat="44.84038" lon="4.4009">
        <ele>963</ele>
        <time>2020-05-22T10:41:31.000Z</time>
      </trkpt>
      <trkpt lat="44.84043" lon="4.40101">
        <ele>962.7</ele>
        <time>2020-05-22T10:41:32.000Z</time>
      </trkpt>
      <trkpt lat="44.84048" lon="4.40112">
        <ele>962.4</ele>
        <time>2020-05-22T10:41:33.000Z</time>
      </trkpt>
      <trkpt lat="44.84053" lon="4.40123">
        <ele>962.2</ele>
        <time>2020-05-22T10:41:34.000Z</time>
      </trkpt>
      <trkpt lat="44.84058" lon="4.40134">
        <ele>962</ele>
        <time>2020-05-22T10:41:35.000Z</time>
      </trkpt>
      <trkpt lat="44.84067" lon="4.40154">
        <ele>961.8</ele>
        <time>2020-05-22T10:41:37.000Z</time>
      </trkpt>
      <trkpt lat="44.84075" lon="4.40174">
        <ele>961.6</ele>
        <time>2020-05-22T10:41:39.000Z</time>
      </trkpt>
      <trkpt lat="44.84081" lon="4.40196">
        <ele>961.5</ele>
        <time>2020-05-22T10:41:41.000Z</time>
      </trkpt>
      <trkpt lat="44.84087" lon="4.40217">
        <ele>961.3</ele>
        <time>2020-05-22T10:41:43.000Z</time>
      </trkpt>
      <trkpt lat="44.84093" lon="4.40235">
        <ele>961.2</ele>
        <time>2020-05-22T10:41:45.000Z</time>
      </trkpt>
      <trkpt lat="44.84098" lon="4.40248">
        <ele>961</ele>
        <time>2020-05-22T10:41:47.000Z</time>
      </trkpt>
      <trkpt lat="44.84103" lon="4.40264">
        <ele>960.9</ele>
        <time>2020-05-22T10:41:50.000Z</time>
      </trkpt>
      <trkpt lat="44.84107" lon="4.40273">
        <ele>962.2</ele>
        <time>2020-05-22T10:41:59.000Z</time>
      </trkpt>
      <trkpt lat="44.84109" lon="4.40285">
        <ele>962.7</ele>
        <time>2020-05-22T10:43:19.000Z</time>
      </trkpt>
      <trkpt lat="44.84113" lon="4.40297">
        <ele>962.7</ele>
        <time>2020-05-22T10:43:22.000Z</time>
      </trkpt>
      <trkpt lat="44.84119" lon="4.40312">
        <ele>962.8</ele>
        <time>2020-05-22T10:43:25.000Z</time>
      </trkpt>
      <trkpt lat="44.84126" lon="4.40327">
        <ele>963</ele>
        <time>2020-05-22T10:43:28.000Z</time>
      </trkpt>
      <trkpt lat="44.84131" lon="4.40338">
        <ele>963.1</ele>
        <time>2020-05-22T10:43:30.000Z</time>
      </trkpt>
      <trkpt lat="44.84136" lon="4.40349">
        <ele>963.1</ele>
        <time>2020-05-22T10:43:32.000Z</time>
      </trkpt>
      <trkpt lat="44.84143" lon="4.40365">
        <ele>963.4</ele>
        <time>2020-05-22T10:43:35.000Z</time>
      </trkpt>
      <trkpt lat="44.84148" lon="4.40376">
        <ele>963.6</ele>
        <time>2020-05-22T10:43:37.000Z</time>
      </trkpt>
      <trkpt lat="44.84154" lon="4.40389">
        <ele>963.7</ele>
        <time>2020-05-22T10:43:39.000Z</time>
      </trkpt>
      <trkpt lat="44.84159" lon="4.40402">
        <ele>963.8</ele>
        <time>2020-05-22T10:43:41.000Z</time>
      </trkpt>
      <trkpt lat="44.84164" lon="4.40416">
        <ele>963.7</ele>
        <time>2020-05-22T10:43:43.000Z</time>
      </trkpt>
      <trkpt lat="44.8417" lon="4.4043">
        <ele>963.5</ele>
        <time>2020-05-22T10:43:45.000Z</time>
      </trkpt>
      <trkpt lat="44.84175" lon="4.40443">
        <ele>963.4</ele>
        <time>2020-05-22T10:43:47.000Z</time>
      </trkpt>
      <trkpt lat="44.84182" lon="4.40457">
        <ele>963.1</ele>
        <time>2020-05-22T10:43:49.000Z</time>
      </trkpt>
      <trkpt lat="44.84188" lon="4.4047">
        <ele>962.8</ele>
        <time>2020-05-22T10:43:51.000Z</time>
      </trkpt>
      <trkpt lat="44.84193" lon="4.40484">
        <ele>962.6</ele>
        <time>2020-05-22T10:43:53.000Z</time>
      </trkpt>
      <trkpt lat="44.84199" lon="4.40499">
        <ele>962.4</ele>
        <time>2020-05-22T10:43:55.000Z</time>
      </trkpt>
      <trkpt lat="44.84205" lon="4.40513">
        <ele>962.3</ele>
        <time>2020-05-22T10:43:57.000Z</time>
      </trkpt>
      <trkpt lat="44.84212" lon="4.40527">
        <ele>962.1</ele>
        <time>2020-05-22T10:43:59.000Z</time>
      </trkpt>
      <trkpt lat="44.84219" lon="4.40541">
        <ele>962</ele>
        <time>2020-05-22T10:44:01.000Z</time>
      </trkpt>
      <trkpt lat="44.84226" lon="4.40554">
        <ele>961.8</ele>
        <time>2020-05-22T10:44:03.000Z</time>
      </trkpt>
      <trkpt lat="44.84232" lon="4.4057">
        <ele>961.6</ele>
        <time>2020-05-22T10:44:05.000Z</time>
      </trkpt>
      <trkpt lat="44.84238" lon="4.40587">
        <ele>961.3</ele>
        <time>2020-05-22T10:44:07.000Z</time>
      </trkpt>
      <trkpt lat="44.84243" lon="4.40607">
        <ele>960.7</ele>
        <time>2020-05-22T10:44:09.000Z</time>
      </trkpt>
      <trkpt lat="44.84247" lon="4.40628">
        <ele>960.2</ele>
        <time>2020-05-22T10:44:11.000Z</time>
      </trkpt>
      <trkpt lat="44.84252" lon="4.40651">
        <ele>959.5</ele>
        <time>2020-05-22T10:44:13.000Z</time>
      </trkpt>
      <trkpt lat="44.84258" lon="4.40674">
        <ele>958.9</ele>
        <time>2020-05-22T10:44:15.000Z</time>
      </trkpt>
      <trkpt lat="44.84263" lon="4.40697">
        <ele>958.1</ele>
        <time>2020-05-22T10:44:17.000Z</time>
      </trkpt>
      <trkpt lat="44.84268" lon="4.40719">
        <ele>957.2</ele>
        <time>2020-05-22T10:44:19.000Z</time>
      </trkpt>
      <trkpt lat="44.84272" lon="4.40742">
        <ele>956.2</ele>
        <time>2020-05-22T10:44:21.000Z</time>
      </trkpt>
      <trkpt lat="44.84274" lon="4.40755">
        <ele>955.6</ele>
        <time>2020-05-22T10:44:22.000Z</time>
      </trkpt>
      <trkpt lat="44.84276" lon="4.40768">
        <ele>955</ele>
        <time>2020-05-22T10:44:23.000Z</time>
      </trkpt>
      <trkpt lat="44.84278" lon="4.40782">
        <ele>954.3</ele>
        <time>2020-05-22T10:44:24.000Z</time>
      </trkpt>
      <trkpt lat="44.84279" lon="4.40796">
        <ele>953.8</ele>
        <time>2020-05-22T10:44:25.000Z</time>
      </trkpt>
      <trkpt lat="44.84281" lon="4.4081">
        <ele>953.3</ele>
        <time>2020-05-22T10:44:26.000Z</time>
      </trkpt>
      <trkpt lat="44.84283" lon="4.40823">
        <ele>952.8</ele>
        <time>2020-05-22T10:44:27.000Z</time>
      </trkpt>
      <trkpt lat="44.84285" lon="4.40837">
        <ele>952.3</ele>
        <time>2020-05-22T10:44:28.000Z</time>
      </trkpt>
      <trkpt lat="44.84288" lon="4.40852">
        <ele>951.6</ele>
        <time>2020-05-22T10:44:29.000Z</time>
      </trkpt>
      <trkpt lat="44.8429" lon="4.40866">
        <ele>950.9</ele>
        <time>2020-05-22T10:44:30.000Z</time>
      </trkpt>
      <trkpt lat="44.84293" lon="4.40881">
        <ele>950.3</ele>
        <time>2020-05-22T10:44:31.000Z</time>
      </trkpt>
      <trkpt lat="44.84296" lon="4.40895">
        <ele>949.6</ele>
        <time>2020-05-22T10:44:32.000Z</time>
      </trkpt>
      <trkpt lat="44.84298" lon="4.40909">
        <ele>949</ele>
        <time>2020-05-22T10:44:33.000Z</time>
      </trkpt>
      <trkpt lat="44.843" lon="4.40922">
        <ele>948.4</ele>
        <time>2020-05-22T10:44:34.000Z</time>
      </trkpt>
      <trkpt lat="44.84301" lon="4.40935">
        <ele>947.8</ele>
        <time>2020-05-22T10:44:35.000Z</time>
      </trkpt>
      <trkpt lat="44.843" lon="4.40958">
        <ele>946.9</ele>
        <time>2020-05-22T10:44:37.000Z</time>
      </trkpt>
      <trkpt lat="44.84298" lon="4.40977">
        <ele>946.4</ele>
        <time>2020-05-22T10:44:39.000Z</time>
      </trkpt>
      <trkpt lat="44.84295" lon="4.40994">
        <ele>946</ele>
        <time>2020-05-22T10:44:41.000Z</time>
      </trkpt>
      <trkpt lat="44.84291" lon="4.4101">
        <ele>945.8</ele>
        <time>2020-05-22T10:44:43.000Z</time>
      </trkpt>
      <trkpt lat="44.84285" lon="4.41024">
        <ele>945.7</ele>
        <time>2020-05-22T10:44:45.000Z</time>
      </trkpt>
      <trkpt lat="44.8428" lon="4.41037">
        <ele>945.8</ele>
        <time>2020-05-22T10:44:47.000Z</time>
      </trkpt>
      <trkpt lat="44.84274" lon="4.4105">
        <ele>946</ele>
        <time>2020-05-22T10:44:49.000Z</time>
      </trkpt>
      <trkpt lat="44.8427" lon="4.41064">
        <ele>946.2</ele>
        <time>2020-05-22T10:44:51.000Z</time>
      </trkpt>
      <trkpt lat="44.84265" lon="4.41077">
        <ele>946.4</ele>
        <time>2020-05-22T10:44:53.000Z</time>
      </trkpt>
      <trkpt lat="44.8426" lon="4.41089">
        <ele>946.7</ele>
        <time>2020-05-22T10:44:55.000Z</time>
      </trkpt>
      <trkpt lat="44.84256" lon="4.41107">
        <ele>947.1</ele>
        <time>2020-05-22T10:44:58.000Z</time>
      </trkpt>
      <trkpt lat="44.84251" lon="4.41123">
        <ele>947.5</ele>
        <time>2020-05-22T10:45:01.000Z</time>
      </trkpt>
      <trkpt lat="44.84248" lon="4.4114">
        <ele>947.9</ele>
        <time>2020-05-22T10:45:04.000Z</time>
      </trkpt>
      <trkpt lat="44.84246" lon="4.41157">
        <ele>948.3</ele>
        <time>2020-05-22T10:45:07.000Z</time>
      </trkpt>
      <trkpt lat="44.84245" lon="4.41175">
        <ele>948.5</ele>
        <time>2020-05-22T10:45:10.000Z</time>
      </trkpt>
      <trkpt lat="44.84242" lon="4.41192">
        <ele>948.7</ele>
        <time>2020-05-22T10:45:13.000Z</time>
      </trkpt>
      <trkpt lat="44.8424" lon="4.41209">
        <ele>948.8</ele>
        <time>2020-05-22T10:45:16.000Z</time>
      </trkpt>
      <trkpt lat="44.84235" lon="4.41226">
        <ele>948.9</ele>
        <time>2020-05-22T10:45:19.000Z</time>
      </trkpt>
      <trkpt lat="44.84231" lon="4.41242">
        <ele>949.4</ele>
        <time>2020-05-22T10:45:22.000Z</time>
      </trkpt>
      <trkpt lat="44.84228" lon="4.41259">
        <ele>949.7</ele>
        <time>2020-05-22T10:45:25.000Z</time>
      </trkpt>
      <trkpt lat="44.84223" lon="4.41276">
        <ele>950.1</ele>
        <time>2020-05-22T10:45:28.000Z</time>
      </trkpt>
      <trkpt lat="44.84221" lon="4.41293">
        <ele>950.6</ele>
        <time>2020-05-22T10:45:31.000Z</time>
      </trkpt>
      <trkpt lat="44.8422" lon="4.41309">
        <ele>951</ele>
        <time>2020-05-22T10:45:34.000Z</time>
      </trkpt>
      <trkpt lat="44.8422" lon="4.41322">
        <ele>951.6</ele>
        <time>2020-05-22T10:45:37.000Z</time>
      </trkpt>
      <trkpt lat="44.84219" lon="4.41339">
        <ele>952.7</ele>
        <time>2020-05-22T10:45:41.000Z</time>
      </trkpt>
      <trkpt lat="44.84218" lon="4.41353">
        <ele>953.9</ele>
        <time>2020-05-22T10:45:45.000Z</time>
      </trkpt>
      <trkpt lat="44.84218" lon="4.41369">
        <ele>955.3</ele>
        <time>2020-05-22T10:45:49.000Z</time>
      </trkpt>
      <trkpt lat="44.84218" lon="4.41382">
        <ele>956.2</ele>
        <time>2020-05-22T10:45:52.000Z</time>
      </trkpt>
      <trkpt lat="44.84217" lon="4.41396">
        <ele>956.8</ele>
        <time>2020-05-22T10:45:55.000Z</time>
      </trkpt>
      <trkpt lat="44.84215" lon="4.41408">
        <ele>957.2</ele>
        <time>2020-05-22T10:45:58.000Z</time>
      </trkpt>
      <trkpt lat="44.84211" lon="4.41421">
        <ele>957.5</ele>
        <time>2020-05-22T10:46:01.000Z</time>
      </trkpt>
      <trkpt lat="44.84203" lon="4.41436">
        <ele>957.7</ele>
        <time>2020-05-22T10:46:04.000Z</time>
      </trkpt>
      <trkpt lat="44.84196" lon="4.41451">
        <ele>957.7</ele>
        <time>2020-05-22T10:46:07.000Z</time>
      </trkpt>
      <trkpt lat="44.84193" lon="4.41468">
        <ele>957.8</ele>
        <time>2020-05-22T10:46:10.000Z</time>
      </trkpt>
      <trkpt lat="44.84187" lon="4.41485">
        <ele>957.9</ele>
        <time>2020-05-22T10:46:13.000Z</time>
      </trkpt>
      <trkpt lat="44.84182" lon="4.41499">
        <ele>957.9</ele>
        <time>2020-05-22T10:46:15.000Z</time>
      </trkpt>
      <trkpt lat="44.84178" lon="4.41511">
        <ele>957.8</ele>
        <time>2020-05-22T10:46:17.000Z</time>
      </trkpt>
      <trkpt lat="44.84174" lon="4.41527">
        <ele>957.8</ele>
        <time>2020-05-22T10:46:20.000Z</time>
      </trkpt>
      <trkpt lat="44.84169" lon="4.41541">
        <ele>957.8</ele>
        <time>2020-05-22T10:46:23.000Z</time>
      </trkpt>
      <trkpt lat="44.84166" lon="4.41555">
        <ele>958.1</ele>
        <time>2020-05-22T10:46:26.000Z</time>
      </trkpt>
      <trkpt lat="44.84166" lon="4.41571">
        <ele>958.9</ele>
        <time>2020-05-22T10:46:30.000Z</time>
      </trkpt>
      <trkpt lat="44.84168" lon="4.41584">
        <ele>959.7</ele>
        <time>2020-05-22T10:46:33.000Z</time>
      </trkpt>
      <trkpt lat="44.84169" lon="4.41597">
        <ele>960.5</ele>
        <time>2020-05-22T10:46:36.000Z</time>
      </trkpt>
      <trkpt lat="44.8417" lon="4.41613">
        <ele>961.7</ele>
        <time>2020-05-22T10:46:40.000Z</time>
      </trkpt>
      <trkpt lat="44.84171" lon="4.41628">
        <ele>962.8</ele>
        <time>2020-05-22T10:46:44.000Z</time>
      </trkpt>
      <trkpt lat="44.84172" lon="4.4164">
        <ele>963.5</ele>
        <time>2020-05-22T10:46:47.000Z</time>
      </trkpt>
      <trkpt lat="44.84174" lon="4.41656">
        <ele>964.6</ele>
        <time>2020-05-22T10:46:52.000Z</time>
      </trkpt>
      <trkpt lat="44.84175" lon="4.41669">
        <ele>965.4</ele>
        <time>2020-05-22T10:46:56.000Z</time>
      </trkpt>
      <trkpt lat="44.84179" lon="4.41681">
        <ele>966.2</ele>
        <time>2020-05-22T10:47:00.000Z</time>
      </trkpt>
      <trkpt lat="44.84181" lon="4.41695">
        <ele>967.4</ele>
        <time>2020-05-22T10:47:05.000Z</time>
      </trkpt>
      <trkpt lat="44.84185" lon="4.41709">
        <ele>968.7</ele>
        <time>2020-05-22T10:47:10.000Z</time>
      </trkpt>
      <trkpt lat="44.84188" lon="4.41723">
        <ele>969.8</ele>
        <time>2020-05-22T10:47:15.000Z</time>
      </trkpt>
      <trkpt lat="44.8419" lon="4.41736">
        <ele>971</ele>
        <time>2020-05-22T10:47:20.000Z</time>
      </trkpt>
      <trkpt lat="44.84192" lon="4.41751">
        <ele>972.7</ele>
        <time>2020-05-22T10:47:26.000Z</time>
      </trkpt>
      <trkpt lat="44.84195" lon="4.41763">
        <ele>974</ele>
        <time>2020-05-22T10:47:31.000Z</time>
      </trkpt>
      <trkpt lat="44.84197" lon="4.41776">
        <ele>975.2</ele>
        <time>2020-05-22T10:47:36.000Z</time>
      </trkpt>
      <trkpt lat="44.84199" lon="4.41789">
        <ele>976.7</ele>
        <time>2020-05-22T10:47:41.000Z</time>
      </trkpt>
      <trkpt lat="44.84201" lon="4.41802">
        <ele>977.9</ele>
        <time>2020-05-22T10:47:46.000Z</time>
      </trkpt>
      <trkpt lat="44.84203" lon="4.41816">
        <ele>978.8</ele>
        <time>2020-05-22T10:47:51.000Z</time>
      </trkpt>
      <trkpt lat="44.84206" lon="4.4183">
        <ele>979.7</ele>
        <time>2020-05-22T10:47:56.000Z</time>
      </trkpt>
      <trkpt lat="44.8421" lon="4.41844">
        <ele>980.4</ele>
        <time>2020-05-22T10:48:01.000Z</time>
      </trkpt>
      <trkpt lat="44.84215" lon="4.41857">
        <ele>980.9</ele>
        <time>2020-05-22T10:48:06.000Z</time>
      </trkpt>
      <trkpt lat="44.84219" lon="4.41869">
        <ele>981.4</ele>
        <time>2020-05-22T10:48:10.000Z</time>
      </trkpt>
      <trkpt lat="44.84224" lon="4.41882">
        <ele>981.7</ele>
        <time>2020-05-22T10:48:14.000Z</time>
      </trkpt>
      <trkpt lat="44.84231" lon="4.41896">
        <ele>981.9</ele>
        <time>2020-05-22T10:48:18.000Z</time>
      </trkpt>
      <trkpt lat="44.84237" lon="4.4191">
        <ele>982.3</ele>
        <time>2020-05-22T10:48:22.000Z</time>
      </trkpt>
      <trkpt lat="44.84243" lon="4.4192">
        <ele>982.7</ele>
        <time>2020-05-22T10:48:25.000Z</time>
      </trkpt>
      <trkpt lat="44.84251" lon="4.41933">
        <ele>983.3</ele>
        <time>2020-05-22T10:48:29.000Z</time>
      </trkpt>
      <trkpt lat="44.84258" lon="4.41945">
        <ele>983.9</ele>
        <time>2020-05-22T10:48:33.000Z</time>
      </trkpt>
      <trkpt lat="44.84265" lon="4.41954">
        <ele>984.2</ele>
        <time>2020-05-22T10:48:36.000Z</time>
      </trkpt>
      <trkpt lat="44.84272" lon="4.41963">
        <ele>984.6</ele>
        <time>2020-05-22T10:48:39.000Z</time>
      </trkpt>
      <trkpt lat="44.84279" lon="4.41973">
        <ele>984.8</ele>
        <time>2020-05-22T10:48:42.000Z</time>
      </trkpt>
      <trkpt lat="44.84286" lon="4.41986">
        <ele>984.9</ele>
        <time>2020-05-22T10:48:45.000Z</time>
      </trkpt>
      <trkpt lat="44.84293" lon="4.41996">
        <ele>985.2</ele>
        <time>2020-05-22T10:48:48.000Z</time>
      </trkpt>
      <trkpt lat="44.843" lon="4.42007">
        <ele>985.5</ele>
        <time>2020-05-22T10:48:51.000Z</time>
      </trkpt>
      <trkpt lat="44.84307" lon="4.42018">
        <ele>985.9</ele>
        <time>2020-05-22T10:48:54.000Z</time>
      </trkpt>
      <trkpt lat="44.84316" lon="4.42027">
        <ele>986.2</ele>
        <time>2020-05-22T10:48:57.000Z</time>
      </trkpt>
      <trkpt lat="44.84322" lon="4.42037">
        <ele>986.5</ele>
        <time>2020-05-22T10:49:00.000Z</time>
      </trkpt>
      <trkpt lat="44.84332" lon="4.42046">
        <ele>986.7</ele>
        <time>2020-05-22T10:49:03.000Z</time>
      </trkpt>
      <trkpt lat="44.84342" lon="4.42053">
        <ele>987</ele>
        <time>2020-05-22T10:49:06.000Z</time>
      </trkpt>
      <trkpt lat="44.84352" lon="4.42061">
        <ele>987.3</ele>
        <time>2020-05-22T10:49:09.000Z</time>
      </trkpt>
      <trkpt lat="44.84361" lon="4.42068">
        <ele>987.7</ele>
        <time>2020-05-22T10:49:12.000Z</time>
      </trkpt>
      <trkpt lat="44.84369" lon="4.42075">
        <ele>988.2</ele>
        <time>2020-05-22T10:49:15.000Z</time>
      </trkpt>
      <trkpt lat="44.84377" lon="4.42082">
        <ele>988.9</ele>
        <time>2020-05-22T10:49:18.000Z</time>
      </trkpt>
      <trkpt lat="44.84385" lon="4.4209">
        <ele>989.6</ele>
        <time>2020-05-22T10:49:21.000Z</time>
      </trkpt>
      <trkpt lat="44.84392" lon="4.42098">
        <ele>990.2</ele>
        <time>2020-05-22T10:49:24.000Z</time>
      </trkpt>
      <trkpt lat="44.844" lon="4.42105">
        <ele>990.8</ele>
        <time>2020-05-22T10:49:27.000Z</time>
      </trkpt>
      <trkpt lat="44.84408" lon="4.42114">
        <ele>991.3</ele>
        <time>2020-05-22T10:49:30.000Z</time>
      </trkpt>
      <trkpt lat="44.84419" lon="4.42119">
        <ele>991.5</ele>
        <time>2020-05-22T10:49:33.000Z</time>
      </trkpt>
      <trkpt lat="44.8443" lon="4.4212">
        <ele>991.5</ele>
        <time>2020-05-22T10:49:36.000Z</time>
      </trkpt>
      <trkpt lat="44.8444" lon="4.4212">
        <ele>991.5</ele>
        <time>2020-05-22T10:49:39.000Z</time>
      </trkpt>
      <trkpt lat="44.8445" lon="4.42122">
        <ele>991.9</ele>
        <time>2020-05-22T10:49:42.000Z</time>
      </trkpt>
      <trkpt lat="44.84459" lon="4.42125">
        <ele>992.4</ele>
        <time>2020-05-22T10:49:45.000Z</time>
      </trkpt>
      <trkpt lat="44.84468" lon="4.42128">
        <ele>992.8</ele>
        <time>2020-05-22T10:49:48.000Z</time>
      </trkpt>
      <trkpt lat="44.84478" lon="4.42133">
        <ele>993.2</ele>
        <time>2020-05-22T10:49:51.000Z</time>
      </trkpt>
      <trkpt lat="44.84488" lon="4.42138">
        <ele>993.6</ele>
        <time>2020-05-22T10:49:54.000Z</time>
      </trkpt>
      <trkpt lat="44.84498" lon="4.42146">
        <ele>994</ele>
        <time>2020-05-22T10:49:57.000Z</time>
      </trkpt>
      <trkpt lat="44.84508" lon="4.42152">
        <ele>994.3</ele>
        <time>2020-05-22T10:50:00.000Z</time>
      </trkpt>
      <trkpt lat="44.84517" lon="4.42158">
        <ele>994.7</ele>
        <time>2020-05-22T10:50:03.000Z</time>
      </trkpt>
      <trkpt lat="44.84526" lon="4.42163">
        <ele>995.3</ele>
        <time>2020-05-22T10:50:06.000Z</time>
      </trkpt>
      <trkpt lat="44.84535" lon="4.42169">
        <ele>995.9</ele>
        <time>2020-05-22T10:50:09.000Z</time>
      </trkpt>
      <trkpt lat="44.84545" lon="4.42175">
        <ele>996.3</ele>
        <time>2020-05-22T10:50:12.000Z</time>
      </trkpt>
      <trkpt lat="44.84554" lon="4.4218">
        <ele>996.6</ele>
        <time>2020-05-22T10:50:15.000Z</time>
      </trkpt>
      <trkpt lat="44.84564" lon="4.42187">
        <ele>996.9</ele>
        <time>2020-05-22T10:50:18.000Z</time>
      </trkpt>
      <trkpt lat="44.84575" lon="4.42193">
        <ele>997.3</ele>
        <time>2020-05-22T10:50:21.000Z</time>
      </trkpt>
      <trkpt lat="44.84585" lon="4.42198">
        <ele>997.7</ele>
        <time>2020-05-22T10:50:24.000Z</time>
      </trkpt>
      <trkpt lat="44.84594" lon="4.42203">
        <ele>998.1</ele>
        <time>2020-05-22T10:50:27.000Z</time>
      </trkpt>
      <trkpt lat="44.84604" lon="4.42207">
        <ele>998.6</ele>
        <time>2020-05-22T10:50:30.000Z</time>
      </trkpt>
      <trkpt lat="44.84615" lon="4.42211">
        <ele>999</ele>
        <time>2020-05-22T10:50:33.000Z</time>
      </trkpt>
      <trkpt lat="44.84627" lon="4.42216">
        <ele>999.3</ele>
        <time>2020-05-22T10:50:36.000Z</time>
      </trkpt>
      <trkpt lat="44.8464" lon="4.42221">
        <ele>999.5</ele>
        <time>2020-05-22T10:50:39.000Z</time>
      </trkpt>
      <trkpt lat="44.84649" lon="4.42225">
        <ele>999.6</ele>
        <time>2020-05-22T10:50:41.000Z</time>
      </trkpt>
      <trkpt lat="44.84658" lon="4.42228">
        <ele>999.7</ele>
        <time>2020-05-22T10:50:43.000Z</time>
      </trkpt>
      <trkpt lat="44.84671" lon="4.42233">
        <ele>999.8</ele>
        <time>2020-05-22T10:50:46.000Z</time>
      </trkpt>
      <trkpt lat="44.84683" lon="4.4224">
        <ele>999.9</ele>
        <time>2020-05-22T10:50:49.000Z</time>
      </trkpt>
      <trkpt lat="44.84692" lon="4.42245">
        <ele>999.8</ele>
        <time>2020-05-22T10:50:51.000Z</time>
      </trkpt>
      <trkpt lat="44.847" lon="4.4225">
        <ele>999.8</ele>
        <time>2020-05-22T10:50:53.000Z</time>
      </trkpt>
      <trkpt lat="44.84711" lon="4.42257">
        <ele>999.5</ele>
        <time>2020-05-22T10:50:55.000Z</time>
      </trkpt>
      <trkpt lat="44.84723" lon="4.42266">
        <ele>999.1</ele>
        <time>2020-05-22T10:50:57.000Z</time>
      </trkpt>
      <trkpt lat="44.84735" lon="4.42277">
        <ele>998.5</ele>
        <time>2020-05-22T10:50:59.000Z</time>
      </trkpt>
      <trkpt lat="44.84745" lon="4.42286">
        <ele>997.6</ele>
        <time>2020-05-22T10:51:01.000Z</time>
      </trkpt>
      <trkpt lat="44.84755" lon="4.42296">
        <ele>996.7</ele>
        <time>2020-05-22T10:51:03.000Z</time>
      </trkpt>
      <trkpt lat="44.84762" lon="4.42309">
        <ele>995.7</ele>
        <time>2020-05-22T10:51:05.000Z</time>
      </trkpt>
      <trkpt lat="44.84763" lon="4.42323">
        <ele>994.8</ele>
        <time>2020-05-22T10:51:07.000Z</time>
      </trkpt>
      <trkpt lat="44.84758" lon="4.42336">
        <ele>993.8</ele>
        <time>2020-05-22T10:51:09.000Z</time>
      </trkpt>
      <trkpt lat="44.84747" lon="4.42343">
        <ele>992.7</ele>
        <time>2020-05-22T10:51:11.000Z</time>
      </trkpt>
      <trkpt lat="44.84735" lon="4.42347">
        <ele>991.5</ele>
        <time>2020-05-22T10:51:13.000Z</time>
      </trkpt>
      <trkpt lat="44.84725" lon="4.42351">
        <ele>990.5</ele>
        <time>2020-05-22T10:51:15.000Z</time>
      </trkpt>
      <trkpt lat="44.84715" lon="4.42359">
        <ele>989.6</ele>
        <time>2020-05-22T10:51:17.000Z</time>
      </trkpt>
      <trkpt lat="44.84706" lon="4.42368">
        <ele>988.9</ele>
        <time>2020-05-22T10:51:19.000Z</time>
      </trkpt>
      <trkpt lat="44.84697" lon="4.42377">
        <ele>988.2</ele>
        <time>2020-05-22T10:51:21.000Z</time>
      </trkpt>
      <trkpt lat="44.84685" lon="4.42386">
        <ele>987.2</ele>
        <time>2020-05-22T10:51:23.000Z</time>
      </trkpt>
      <trkpt lat="44.84675" lon="4.42392">
        <ele>986.3</ele>
        <time>2020-05-22T10:51:25.000Z</time>
      </trkpt>
      <trkpt lat="44.84668" lon="4.424">
        <ele>985.4</ele>
        <time>2020-05-22T10:51:27.000Z</time>
      </trkpt>
      <trkpt lat="44.84661" lon="4.42414">
        <ele>984.4</ele>
        <time>2020-05-22T10:51:30.000Z</time>
      </trkpt>
      <trkpt lat="44.84656" lon="4.4243">
        <ele>983.9</ele>
        <time>2020-05-22T10:51:33.000Z</time>
      </trkpt>
      <trkpt lat="44.84653" lon="4.42447">
        <ele>983.8</ele>
        <time>2020-05-22T10:51:36.000Z</time>
      </trkpt>
      <trkpt lat="44.84649" lon="4.42463">
        <ele>983.8</ele>
        <time>2020-05-22T10:51:39.000Z</time>
      </trkpt>
      <trkpt lat="44.84645" lon="4.42481">
        <ele>984</ele>
        <time>2020-05-22T10:51:42.000Z</time>
      </trkpt>
      <trkpt lat="44.84642" lon="4.42496">
        <ele>984.3</ele>
        <time>2020-05-22T10:51:45.000Z</time>
      </trkpt>
      <trkpt lat="44.84639" lon="4.4251">
        <ele>984.6</ele>
        <time>2020-05-22T10:51:48.000Z</time>
      </trkpt>
      <trkpt lat="44.84636" lon="4.42525">
        <ele>985</ele>
        <time>2020-05-22T10:51:51.000Z</time>
      </trkpt>
      <trkpt lat="44.84632" lon="4.4254">
        <ele>985.3</ele>
        <time>2020-05-22T10:51:54.000Z</time>
      </trkpt>
      <trkpt lat="44.84625" lon="4.42555">
        <ele>985.5</ele>
        <time>2020-05-22T10:51:57.000Z</time>
      </trkpt>
      <trkpt lat="44.84616" lon="4.42569">
        <ele>985.7</ele>
        <time>2020-05-22T10:52:00.000Z</time>
      </trkpt>
      <trkpt lat="44.8461" lon="4.42578">
        <ele>985.8</ele>
        <time>2020-05-22T10:52:02.000Z</time>
      </trkpt>
      <trkpt lat="44.84602" lon="4.42586">
        <ele>985.9</ele>
        <time>2020-05-22T10:52:04.000Z</time>
      </trkpt>
      <trkpt lat="44.84592" lon="4.42597">
        <ele>986</ele>
        <time>2020-05-22T10:52:07.000Z</time>
      </trkpt>
      <trkpt lat="44.84581" lon="4.42607">
        <ele>986</ele>
        <time>2020-05-22T10:52:10.000Z</time>
      </trkpt>
      <trkpt lat="44.84573" lon="4.42613">
        <ele>986</ele>
        <time>2020-05-22T10:52:12.000Z</time>
      </trkpt>
      <trkpt lat="44.84565" lon="4.4262">
        <ele>986</ele>
        <time>2020-05-22T10:52:14.000Z</time>
      </trkpt>
      <trkpt lat="44.84557" lon="4.42627">
        <ele>986.1</ele>
        <time>2020-05-22T10:52:16.000Z</time>
      </trkpt>
      <trkpt lat="44.84548" lon="4.42635">
        <ele>986.1</ele>
        <time>2020-05-22T10:52:18.000Z</time>
      </trkpt>
      <trkpt lat="44.84539" lon="4.42643">
        <ele>986.1</ele>
        <time>2020-05-22T10:52:20.000Z</time>
      </trkpt>
      <trkpt lat="44.84531" lon="4.42654">
        <ele>986.1</ele>
        <time>2020-05-22T10:52:22.000Z</time>
      </trkpt>
      <trkpt lat="44.84524" lon="4.42667">
        <ele>986</ele>
        <time>2020-05-22T10:52:24.000Z</time>
      </trkpt>
      <trkpt lat="44.84519" lon="4.42681">
        <ele>985.9</ele>
        <time>2020-05-22T10:52:26.000Z</time>
      </trkpt>
      <trkpt lat="44.84516" lon="4.42695">
        <ele>985.7</ele>
        <time>2020-05-22T10:52:28.000Z</time>
      </trkpt>
      <trkpt lat="44.84514" lon="4.4271">
        <ele>985.6</ele>
        <time>2020-05-22T10:52:30.000Z</time>
      </trkpt>
      <trkpt lat="44.84513" lon="4.42726">
        <ele>985.6</ele>
        <time>2020-05-22T10:52:32.000Z</time>
      </trkpt>
      <trkpt lat="44.84512" lon="4.42741">
        <ele>985.5</ele>
        <time>2020-05-22T10:52:34.000Z</time>
      </trkpt>
      <trkpt lat="44.84512" lon="4.42756">
        <ele>985.5</ele>
        <time>2020-05-22T10:52:36.000Z</time>
      </trkpt>
      <trkpt lat="44.84514" lon="4.42771">
        <ele>985.5</ele>
        <time>2020-05-22T10:52:38.000Z</time>
      </trkpt>
      <trkpt lat="44.84514" lon="4.42786">
        <ele>985.5</ele>
        <time>2020-05-22T10:52:40.000Z</time>
      </trkpt>
      <trkpt lat="44.84514" lon="4.42801">
        <ele>985.5</ele>
        <time>2020-05-22T10:52:42.000Z</time>
      </trkpt>
      <trkpt lat="44.84515" lon="4.42816">
        <ele>985.6</ele>
        <time>2020-05-22T10:52:44.000Z</time>
      </trkpt>
      <trkpt lat="44.84516" lon="4.42831">
        <ele>985.6</ele>
        <time>2020-05-22T10:52:46.000Z</time>
      </trkpt>
      <trkpt lat="44.84517" lon="4.42846">
        <ele>985.7</ele>
        <time>2020-05-22T10:52:48.000Z</time>
      </trkpt>
      <trkpt lat="44.84518" lon="4.42862">
        <ele>985.8</ele>
        <time>2020-05-22T10:52:50.000Z</time>
      </trkpt>
      <trkpt lat="44.84519" lon="4.42877">
        <ele>985.9</ele>
        <time>2020-05-22T10:52:52.000Z</time>
      </trkpt>
      <trkpt lat="44.84518" lon="4.42892">
        <ele>985.9</ele>
        <time>2020-05-22T10:52:54.000Z</time>
      </trkpt>
      <trkpt lat="44.84517" lon="4.42907">
        <ele>986</ele>
        <time>2020-05-22T10:52:56.000Z</time>
      </trkpt>
      <trkpt lat="44.84515" lon="4.42923">
        <ele>986.1</ele>
        <time>2020-05-22T10:52:58.000Z</time>
      </trkpt>
      <trkpt lat="44.84514" lon="4.42939">
        <ele>986.2</ele>
        <time>2020-05-22T10:53:00.000Z</time>
      </trkpt>
      <trkpt lat="44.84512" lon="4.42954">
        <ele>986.3</ele>
        <time>2020-05-22T10:53:02.000Z</time>
      </trkpt>
      <trkpt lat="44.84509" lon="4.4297">
        <ele>986.4</ele>
        <time>2020-05-22T10:53:04.000Z</time>
      </trkpt>
      <trkpt lat="44.84507" lon="4.42986">
        <ele>986.4</ele>
        <time>2020-05-22T10:53:06.000Z</time>
      </trkpt>
      <trkpt lat="44.84504" lon="4.43002">
        <ele>986.4</ele>
        <time>2020-05-22T10:53:08.000Z</time>
      </trkpt>
      <trkpt lat="44.84503" lon="4.43019">
        <ele>986.4</ele>
        <time>2020-05-22T10:53:10.000Z</time>
      </trkpt>
      <trkpt lat="44.84502" lon="4.43036">
        <ele>986.4</ele>
        <time>2020-05-22T10:53:12.000Z</time>
      </trkpt>
      <trkpt lat="44.84501" lon="4.43054">
        <ele>986.3</ele>
        <time>2020-05-22T10:53:14.000Z</time>
      </trkpt>
      <trkpt lat="44.84502" lon="4.43072">
        <ele>986.2</ele>
        <time>2020-05-22T10:53:16.000Z</time>
      </trkpt>
      <trkpt lat="44.84502" lon="4.4309">
        <ele>986</ele>
        <time>2020-05-22T10:53:18.000Z</time>
      </trkpt>
      <trkpt lat="44.84503" lon="4.43109">
        <ele>985.8</ele>
        <time>2020-05-22T10:53:20.000Z</time>
      </trkpt>
      <trkpt lat="44.84505" lon="4.43128">
        <ele>985.7</ele>
        <time>2020-05-22T10:53:22.000Z</time>
      </trkpt>
      <trkpt lat="44.84509" lon="4.43146">
        <ele>985.4</ele>
        <time>2020-05-22T10:53:24.000Z</time>
      </trkpt>
      <trkpt lat="44.84515" lon="4.43164">
        <ele>985.2</ele>
        <time>2020-05-22T10:53:26.000Z</time>
      </trkpt>
      <trkpt lat="44.84522" lon="4.43181">
        <ele>984.9</ele>
        <time>2020-05-22T10:53:28.000Z</time>
      </trkpt>
      <trkpt lat="44.8453" lon="4.43197">
        <ele>984.7</ele>
        <time>2020-05-22T10:53:30.000Z</time>
      </trkpt>
      <trkpt lat="44.84539" lon="4.43213">
        <ele>984.5</ele>
        <time>2020-05-22T10:53:32.000Z</time>
      </trkpt>
      <trkpt lat="44.84547" lon="4.43228">
        <ele>984.2</ele>
        <time>2020-05-22T10:53:34.000Z</time>
      </trkpt>
      <trkpt lat="44.84554" lon="4.43244">
        <ele>983.7</ele>
        <time>2020-05-22T10:53:36.000Z</time>
      </trkpt>
      <trkpt lat="44.84559" lon="4.4326">
        <ele>983.3</ele>
        <time>2020-05-22T10:53:38.000Z</time>
      </trkpt>
      <trkpt lat="44.84562" lon="4.43276">
        <ele>983</ele>
        <time>2020-05-22T10:53:40.000Z</time>
      </trkpt>
      <trkpt lat="44.84565" lon="4.43291">
        <ele>982.6</ele>
        <time>2020-05-22T10:53:42.000Z</time>
      </trkpt>
      <trkpt lat="44.84568" lon="4.43308">
        <ele>982.3</ele>
        <time>2020-05-22T10:53:44.000Z</time>
      </trkpt>
      <trkpt lat="44.84571" lon="4.43325">
        <ele>982.1</ele>
        <time>2020-05-22T10:53:46.000Z</time>
      </trkpt>
      <trkpt lat="44.84572" lon="4.43341">
        <ele>981.9</ele>
        <time>2020-05-22T10:53:48.000Z</time>
      </trkpt>
      <trkpt lat="44.84572" lon="4.43358">
        <ele>981.8</ele>
        <time>2020-05-22T10:53:50.000Z</time>
      </trkpt>
      <trkpt lat="44.84573" lon="4.43375">
        <ele>981.8</ele>
        <time>2020-05-22T10:53:52.000Z</time>
      </trkpt>
      <trkpt lat="44.84574" lon="4.43393">
        <ele>981.7</ele>
        <time>2020-05-22T10:53:54.000Z</time>
      </trkpt>
      <trkpt lat="44.84579" lon="4.43409">
        <ele>981.5</ele>
        <time>2020-05-22T10:53:56.000Z</time>
      </trkpt>
      <trkpt lat="44.84587" lon="4.43423">
        <ele>981.5</ele>
        <time>2020-05-22T10:53:58.000Z</time>
      </trkpt>
      <trkpt lat="44.84595" lon="4.43436">
        <ele>981.4</ele>
        <time>2020-05-22T10:54:00.000Z</time>
      </trkpt>
      <trkpt lat="44.84601" lon="4.43448">
        <ele>981.4</ele>
        <time>2020-05-22T10:54:02.000Z</time>
      </trkpt>
      <trkpt lat="44.8461" lon="4.43461">
        <ele>981.5</ele>
        <time>2020-05-22T10:54:04.000Z</time>
      </trkpt>
      <trkpt lat="44.84618" lon="4.43476">
        <ele>981.5</ele>
        <time>2020-05-22T10:54:06.000Z</time>
      </trkpt>
      <trkpt lat="44.84624" lon="4.43494">
        <ele>981.4</ele>
        <time>2020-05-22T10:54:08.000Z</time>
      </trkpt>
      <trkpt lat="44.84628" lon="4.4351">
        <ele>981.3</ele>
        <time>2020-05-22T10:54:10.000Z</time>
      </trkpt>
      <trkpt lat="44.84632" lon="4.43527">
        <ele>981.2</ele>
        <time>2020-05-22T10:54:12.000Z</time>
      </trkpt>
      <trkpt lat="44.84634" lon="4.43544">
        <ele>981.1</ele>
        <time>2020-05-22T10:54:14.000Z</time>
      </trkpt>
      <trkpt lat="44.84635" lon="4.43559">
        <ele>981.2</ele>
        <time>2020-05-22T10:54:16.000Z</time>
      </trkpt>
      <trkpt lat="44.84637" lon="4.43575">
        <ele>981.2</ele>
        <time>2020-05-22T10:54:18.000Z</time>
      </trkpt>
      <trkpt lat="44.8464" lon="4.43592">
        <ele>981.3</ele>
        <time>2020-05-22T10:54:20.000Z</time>
      </trkpt>
      <trkpt lat="44.84643" lon="4.43609">
        <ele>981.3</ele>
        <time>2020-05-22T10:54:22.000Z</time>
      </trkpt>
      <trkpt lat="44.84647" lon="4.43626">
        <ele>981.2</ele>
        <time>2020-05-22T10:54:24.000Z</time>
      </trkpt>
      <trkpt lat="44.84651" lon="4.43641">
        <ele>980.9</ele>
        <time>2020-05-22T10:54:26.000Z</time>
      </trkpt>
      <trkpt lat="44.84654" lon="4.43656">
        <ele>980.6</ele>
        <time>2020-05-22T10:54:28.000Z</time>
      </trkpt>
      <trkpt lat="44.8466" lon="4.43673">
        <ele>980.5</ele>
        <time>2020-05-22T10:54:30.000Z</time>
      </trkpt>
      <trkpt lat="44.84666" lon="4.43691">
        <ele>980.3</ele>
        <time>2020-05-22T10:54:32.000Z</time>
      </trkpt>
      <trkpt lat="44.84674" lon="4.43709">
        <ele>980.2</ele>
        <time>2020-05-22T10:54:34.000Z</time>
      </trkpt>
      <trkpt lat="44.84677" lon="4.43726">
        <ele>980.1</ele>
        <time>2020-05-22T10:54:36.000Z</time>
      </trkpt>
      <trkpt lat="44.84674" lon="4.43745">
        <ele>979.8</ele>
        <time>2020-05-22T10:54:38.000Z</time>
      </trkpt>
      <trkpt lat="44.84666" lon="4.43762">
        <ele>979.4</ele>
        <time>2020-05-22T10:54:40.000Z</time>
      </trkpt>
      <trkpt lat="44.84654" lon="4.43774">
        <ele>979</ele>
        <time>2020-05-22T10:54:42.000Z</time>
      </trkpt>
      <trkpt lat="44.84641" lon="4.43784">
        <ele>978.4</ele>
        <time>2020-05-22T10:54:44.000Z</time>
      </trkpt>
      <trkpt lat="44.84627" lon="4.43795">
        <ele>977.9</ele>
        <time>2020-05-22T10:54:46.000Z</time>
      </trkpt>
      <trkpt lat="44.84617" lon="4.43813">
        <ele>977.3</ele>
        <time>2020-05-22T10:54:48.000Z</time>
      </trkpt>
      <trkpt lat="44.84611" lon="4.43834">
        <ele>976.8</ele>
        <time>2020-05-22T10:54:50.000Z</time>
      </trkpt>
      <trkpt lat="44.84607" lon="4.43857">
        <ele>976.2</ele>
        <time>2020-05-22T10:54:52.000Z</time>
      </trkpt>
      <trkpt lat="44.84607" lon="4.4387">
        <ele>976</ele>
        <time>2020-05-22T10:54:53.000Z</time>
      </trkpt>
      <trkpt lat="44.84607" lon="4.43884">
        <ele>975.7</ele>
        <time>2020-05-22T10:54:54.000Z</time>
      </trkpt>
      <trkpt lat="44.84608" lon="4.43897">
        <ele>975.5</ele>
        <time>2020-05-22T10:54:55.000Z</time>
      </trkpt>
      <trkpt lat="44.84609" lon="4.43911">
        <ele>975.2</ele>
        <time>2020-05-22T10:54:56.000Z</time>
      </trkpt>
      <trkpt lat="44.84608" lon="4.43924">
        <ele>974.9</ele>
        <time>2020-05-22T10:54:57.000Z</time>
      </trkpt>
      <trkpt lat="44.84605" lon="4.43938">
        <ele>974.6</ele>
        <time>2020-05-22T10:54:58.000Z</time>
      </trkpt>
      <trkpt lat="44.84602" lon="4.43951">
        <ele>974.2</ele>
        <time>2020-05-22T10:54:59.000Z</time>
      </trkpt>
      <trkpt lat="44.84596" lon="4.43961">
        <ele>973.7</ele>
        <time>2020-05-22T10:55:00.000Z</time>
      </trkpt>
      <trkpt lat="44.8459" lon="4.43971">
        <ele>973.3</ele>
        <time>2020-05-22T10:55:01.000Z</time>
      </trkpt>
      <trkpt lat="44.84583" lon="4.43981">
        <ele>972.9</ele>
        <time>2020-05-22T10:55:02.000Z</time>
      </trkpt>
      <trkpt lat="44.84576" lon="4.4399">
        <ele>972.7</ele>
        <time>2020-05-22T10:55:03.000Z</time>
      </trkpt>
      <trkpt lat="44.8457" lon="4.43999">
        <ele>972.3</ele>
        <time>2020-05-22T10:55:04.000Z</time>
      </trkpt>
      <trkpt lat="44.84564" lon="4.44008">
        <ele>972</ele>
        <time>2020-05-22T10:55:05.000Z</time>
      </trkpt>
      <trkpt lat="44.84558" lon="4.44018">
        <ele>971.7</ele>
        <time>2020-05-22T10:55:06.000Z</time>
      </trkpt>
      <trkpt lat="44.84547" lon="4.44037">
        <ele>971</ele>
        <time>2020-05-22T10:55:08.000Z</time>
      </trkpt>
      <trkpt lat="44.84536" lon="4.44056">
        <ele>970.2</ele>
        <time>2020-05-22T10:55:10.000Z</time>
      </trkpt>
      <trkpt lat="44.84526" lon="4.44075">
        <ele>969.6</ele>
        <time>2020-05-22T10:55:12.000Z</time>
      </trkpt>
      <trkpt lat="44.84516" lon="4.44092">
        <ele>969.1</ele>
        <time>2020-05-22T10:55:14.000Z</time>
      </trkpt>
      <trkpt lat="44.84507" lon="4.44109">
        <ele>968.5</ele>
        <time>2020-05-22T10:55:16.000Z</time>
      </trkpt>
      <trkpt lat="44.84498" lon="4.44125">
        <ele>967.8</ele>
        <time>2020-05-22T10:55:18.000Z</time>
      </trkpt>
      <trkpt lat="44.84491" lon="4.44142">
        <ele>967.3</ele>
        <time>2020-05-22T10:55:20.000Z</time>
      </trkpt>
      <trkpt lat="44.84489" lon="4.44161">
        <ele>966.9</ele>
        <time>2020-05-22T10:55:22.000Z</time>
      </trkpt>
      <trkpt lat="44.8449" lon="4.4418">
        <ele>966.9</ele>
        <time>2020-05-22T10:55:24.000Z</time>
      </trkpt>
      <trkpt lat="44.84492" lon="4.44198">
        <ele>966.8</ele>
        <time>2020-05-22T10:55:26.000Z</time>
      </trkpt>
      <trkpt lat="44.84495" lon="4.44212">
        <ele>966.5</ele>
        <time>2020-05-22T10:55:28.000Z</time>
      </trkpt>
      <trkpt lat="44.84505" lon="4.44225">
        <ele>966</ele>
        <time>2020-05-22T10:55:31.000Z</time>
      </trkpt>
      <trkpt lat="44.84515" lon="4.44229">
        <ele>965.6</ele>
        <time>2020-05-22T10:55:33.000Z</time>
      </trkpt>
      <trkpt lat="44.84528" lon="4.4423">
        <ele>965</ele>
        <time>2020-05-22T10:55:35.000Z</time>
      </trkpt>
      <trkpt lat="44.84542" lon="4.44233">
        <ele>964.3</ele>
        <time>2020-05-22T10:55:37.000Z</time>
      </trkpt>
      <trkpt lat="44.84557" lon="4.44241">
        <ele>963.7</ele>
        <time>2020-05-22T10:55:39.000Z</time>
      </trkpt>
      <trkpt lat="44.8457" lon="4.44254">
        <ele>963</ele>
        <time>2020-05-22T10:55:41.000Z</time>
      </trkpt>
      <trkpt lat="44.8458" lon="4.44271">
        <ele>962.3</ele>
        <time>2020-05-22T10:55:43.000Z</time>
      </trkpt>
      <trkpt lat="44.84591" lon="4.44288">
        <ele>961.6</ele>
        <time>2020-05-22T10:55:45.000Z</time>
      </trkpt>
      <trkpt lat="44.84604" lon="4.44306">
        <ele>960.7</ele>
        <time>2020-05-22T10:55:47.000Z</time>
      </trkpt>
      <trkpt lat="44.8461" lon="4.44315">
        <ele>960.3</ele>
        <time>2020-05-22T10:55:48.000Z</time>
      </trkpt>
      <trkpt lat="44.84616" lon="4.44325">
        <ele>959.9</ele>
        <time>2020-05-22T10:55:49.000Z</time>
      </trkpt>
      <trkpt lat="44.84621" lon="4.44336">
        <ele>959.5</ele>
        <time>2020-05-22T10:55:50.000Z</time>
      </trkpt>
      <trkpt lat="44.84627" lon="4.44358">
        <ele>958.5</ele>
        <time>2020-05-22T10:55:52.000Z</time>
      </trkpt>
      <trkpt lat="44.84628" lon="4.44379">
        <ele>957.4</ele>
        <time>2020-05-22T10:55:54.000Z</time>
      </trkpt>
      <trkpt lat="44.84628" lon="4.44396">
        <ele>956.2</ele>
        <time>2020-05-22T10:55:56.000Z</time>
      </trkpt>
      <trkpt lat="44.84632" lon="4.44411">
        <ele>955.2</ele>
        <time>2020-05-22T10:55:58.000Z</time>
      </trkpt>
      <trkpt lat="44.84639" lon="4.44425">
        <ele>954.1</ele>
        <time>2020-05-22T10:56:00.000Z</time>
      </trkpt>
      <trkpt lat="44.84642" lon="4.44443">
        <ele>953.3</ele>
        <time>2020-05-22T10:56:02.000Z</time>
      </trkpt>
      <trkpt lat="44.84643" lon="4.44464">
        <ele>952.2</ele>
        <time>2020-05-22T10:56:04.000Z</time>
      </trkpt>
      <trkpt lat="44.84643" lon="4.44486">
        <ele>951.5</ele>
        <time>2020-05-22T10:56:06.000Z</time>
      </trkpt>
      <trkpt lat="44.84643" lon="4.44508">
        <ele>950.7</ele>
        <time>2020-05-22T10:56:08.000Z</time>
      </trkpt>
      <trkpt lat="44.84642" lon="4.44531">
        <ele>949.8</ele>
        <time>2020-05-22T10:56:10.000Z</time>
      </trkpt>
      <trkpt lat="44.84644" lon="4.44555">
        <ele>949</ele>
        <time>2020-05-22T10:56:12.000Z</time>
      </trkpt>
      <trkpt lat="44.84651" lon="4.44578">
        <ele>948.2</ele>
        <time>2020-05-22T10:56:14.000Z</time>
      </trkpt>
      <trkpt lat="44.8466" lon="4.44598">
        <ele>947.5</ele>
        <time>2020-05-22T10:56:16.000Z</time>
      </trkpt>
      <trkpt lat="44.8467" lon="4.44615">
        <ele>946.9</ele>
        <time>2020-05-22T10:56:18.000Z</time>
      </trkpt>
      <trkpt lat="44.84682" lon="4.4463">
        <ele>946.5</ele>
        <time>2020-05-22T10:56:20.000Z</time>
      </trkpt>
      <trkpt lat="44.84696" lon="4.44643">
        <ele>946</ele>
        <time>2020-05-22T10:56:22.000Z</time>
      </trkpt>
      <trkpt lat="44.84708" lon="4.44656">
        <ele>945.4</ele>
        <time>2020-05-22T10:56:24.000Z</time>
      </trkpt>
      <trkpt lat="44.8472" lon="4.44668">
        <ele>945</ele>
        <time>2020-05-22T10:56:26.000Z</time>
      </trkpt>
      <trkpt lat="44.84732" lon="4.44679">
        <ele>944.5</ele>
        <time>2020-05-22T10:56:28.000Z</time>
      </trkpt>
      <trkpt lat="44.84741" lon="4.44689">
        <ele>944</ele>
        <time>2020-05-22T10:56:30.000Z</time>
      </trkpt>
      <trkpt lat="44.84751" lon="4.44699">
        <ele>943.8</ele>
        <time>2020-05-22T10:56:32.000Z</time>
      </trkpt>
      <trkpt lat="44.84757" lon="4.44712">
        <ele>943.6</ele>
        <time>2020-05-22T10:56:34.000Z</time>
      </trkpt>
      <trkpt lat="44.84758" lon="4.44727">
        <ele>943.3</ele>
        <time>2020-05-22T10:56:36.000Z</time>
      </trkpt>
      <trkpt lat="44.84758" lon="4.44743">
        <ele>942.6</ele>
        <time>2020-05-22T10:56:38.000Z</time>
      </trkpt>
      <trkpt lat="44.84756" lon="4.44761">
        <ele>942</ele>
        <time>2020-05-22T10:56:40.000Z</time>
      </trkpt>
      <trkpt lat="44.84753" lon="4.44777">
        <ele>941.3</ele>
        <time>2020-05-22T10:56:42.000Z</time>
      </trkpt>
      <trkpt lat="44.84751" lon="4.44792">
        <ele>940.5</ele>
        <time>2020-05-22T10:56:44.000Z</time>
      </trkpt>
      <trkpt lat="44.84747" lon="4.44808">
        <ele>939.7</ele>
        <time>2020-05-22T10:56:46.000Z</time>
      </trkpt>
      <trkpt lat="44.84744" lon="4.44828">
        <ele>938.5</ele>
        <time>2020-05-22T10:56:49.000Z</time>
      </trkpt>
      <trkpt lat="44.84737" lon="4.44841">
        <ele>937.8</ele>
        <time>2020-05-22T10:56:51.000Z</time>
      </trkpt>
      <trkpt lat="44.8473" lon="4.44858">
        <ele>937.3</ele>
        <time>2020-05-22T10:56:53.000Z</time>
      </trkpt>
      <trkpt lat="44.8472" lon="4.44879">
        <ele>936.5</ele>
        <time>2020-05-22T10:56:55.000Z</time>
      </trkpt>
      <trkpt lat="44.84712" lon="4.44898">
        <ele>935.7</ele>
        <time>2020-05-22T10:56:57.000Z</time>
      </trkpt>
      <trkpt lat="44.84705" lon="4.44918">
        <ele>934.7</ele>
        <time>2020-05-22T10:56:59.000Z</time>
      </trkpt>
      <trkpt lat="44.84699" lon="4.44937">
        <ele>933.8</ele>
        <time>2020-05-22T10:57:01.000Z</time>
      </trkpt>
      <trkpt lat="44.84695" lon="4.44958">
        <ele>933</ele>
        <time>2020-05-22T10:57:03.000Z</time>
      </trkpt>
      <trkpt lat="44.84696" lon="4.44979">
        <ele>932.2</ele>
        <time>2020-05-22T10:57:05.000Z</time>
      </trkpt>
      <trkpt lat="44.84699" lon="4.45001">
        <ele>931.4</ele>
        <time>2020-05-22T10:57:07.000Z</time>
      </trkpt>
      <trkpt lat="44.847" lon="4.45014">
        <ele>931.1</ele>
        <time>2020-05-22T10:57:08.000Z</time>
      </trkpt>
      <trkpt lat="44.847" lon="4.45034">
        <ele>930.3</ele>
        <time>2020-05-22T10:57:10.000Z</time>
      </trkpt>
      <trkpt lat="44.84703" lon="4.45052">
        <ele>929.4</ele>
        <time>2020-05-22T10:57:13.000Z</time>
      </trkpt>
      <trkpt lat="44.84703" lon="4.45076">
        <ele>928.9</ele>
        <time>2020-05-22T10:57:15.000Z</time>
      </trkpt>
      <trkpt lat="44.84708" lon="4.45092">
        <ele>928.7</ele>
        <time>2020-05-22T10:57:16.000Z</time>
      </trkpt>
      <trkpt lat="44.84707" lon="4.45113">
        <ele>928.3</ele>
        <time>2020-05-22T10:57:18.000Z</time>
      </trkpt>
      <trkpt lat="44.84703" lon="4.45132">
        <ele>927.8</ele>
        <time>2020-05-22T10:57:20.000Z</time>
      </trkpt>
      <trkpt lat="44.847" lon="4.45151">
        <ele>927.3</ele>
        <time>2020-05-22T10:57:22.000Z</time>
      </trkpt>
      <trkpt lat="44.84696" lon="4.45173">
        <ele>926.8</ele>
        <time>2020-05-22T10:57:24.000Z</time>
      </trkpt>
      <trkpt lat="44.84696" lon="4.45187">
        <ele>926.6</ele>
        <time>2020-05-22T10:57:25.000Z</time>
      </trkpt>
      <trkpt lat="44.84696" lon="4.45202">
        <ele>926.4</ele>
        <time>2020-05-22T10:57:26.000Z</time>
      </trkpt>
      <trkpt lat="44.84692" lon="4.45224">
        <ele>925.9</ele>
        <time>2020-05-22T10:57:28.000Z</time>
      </trkpt>
      <trkpt lat="44.84688" lon="4.45243">
        <ele>924.9</ele>
        <time>2020-05-22T10:57:30.000Z</time>
      </trkpt>
      <trkpt lat="44.8469" lon="4.45269">
        <ele>923</ele>
        <time>2020-05-22T10:57:33.000Z</time>
      </trkpt>
      <trkpt lat="44.84691" lon="4.45299">
        <ele>922.5</ele>
        <time>2020-05-22T10:57:36.000Z</time>
      </trkpt>
      <trkpt lat="44.84692" lon="4.45317">
        <ele>921</ele>
        <time>2020-05-22T10:57:38.000Z</time>
      </trkpt>
      <trkpt lat="44.84695" lon="4.4534">
        <ele>920.3</ele>
        <time>2020-05-22T10:57:41.000Z</time>
      </trkpt>
      <trkpt lat="44.84707" lon="4.45359">
        <ele>919.8</ele>
        <time>2020-05-22T10:57:43.000Z</time>
      </trkpt>
      <trkpt lat="44.84751" lon="4.454">
        <ele>919</ele>
        <time>2020-05-22T10:57:48.000Z</time>
      </trkpt>
      <trkpt lat="44.84783" lon="4.45413">
        <ele>918.8</ele>
        <time>2020-05-22T10:57:53.000Z</time>
      </trkpt>
      <trkpt lat="44.84792" lon="4.45416">
        <ele>918.5</ele>
        <time>2020-05-22T10:57:56.000Z</time>
      </trkpt>
      <trkpt lat="44.84803" lon="4.45418">
        <ele>918.3</ele>
        <time>2020-05-22T10:57:58.000Z</time>
      </trkpt>
      <trkpt lat="44.84812" lon="4.45421">
        <ele>918.2</ele>
        <time>2020-05-22T10:58:00.000Z</time>
      </trkpt>
      <trkpt lat="44.84822" lon="4.4542">
        <ele>918.1</ele>
        <time>2020-05-22T10:58:02.000Z</time>
      </trkpt>
      <trkpt lat="44.84832" lon="4.45422">
        <ele>918</ele>
        <time>2020-05-22T10:58:04.000Z</time>
      </trkpt>
      <trkpt lat="44.84843" lon="4.45422">
        <ele>917.8</ele>
        <time>2020-05-22T10:58:06.000Z</time>
      </trkpt>
      <trkpt lat="44.84854" lon="4.45423">
        <ele>917.5</ele>
        <time>2020-05-22T10:58:08.000Z</time>
      </trkpt>
      <trkpt lat="44.84865" lon="4.45423">
        <ele>917.1</ele>
        <time>2020-05-22T10:58:10.000Z</time>
      </trkpt>
      <trkpt lat="44.84876" lon="4.45422">
        <ele>916.7</ele>
        <time>2020-05-22T10:58:12.000Z</time>
      </trkpt>
      <trkpt lat="44.84887" lon="4.45422">
        <ele>916.4</ele>
        <time>2020-05-22T10:58:14.000Z</time>
      </trkpt>
      <trkpt lat="44.849" lon="4.45425">
        <ele>915.9</ele>
        <time>2020-05-22T10:58:16.000Z</time>
      </trkpt>
      <trkpt lat="44.84913" lon="4.45431">
        <ele>915.5</ele>
        <time>2020-05-22T10:58:18.000Z</time>
      </trkpt>
      <trkpt lat="44.84924" lon="4.45438">
        <ele>915</ele>
        <time>2020-05-22T10:58:20.000Z</time>
      </trkpt>
      <trkpt lat="44.84933" lon="4.45441">
        <ele>914.7</ele>
        <time>2020-05-22T10:58:22.000Z</time>
      </trkpt>
      <trkpt lat="44.84943" lon="4.45448">
        <ele>914.2</ele>
        <time>2020-05-22T10:58:24.000Z</time>
      </trkpt>
      <trkpt lat="44.84953" lon="4.45465">
        <ele>913.2</ele>
        <time>2020-05-22T10:58:27.000Z</time>
      </trkpt>
      <trkpt lat="44.84959" lon="4.45482">
        <ele>912.5</ele>
        <time>2020-05-22T10:58:29.000Z</time>
      </trkpt>
      <trkpt lat="44.84959" lon="4.45498">
        <ele>911.8</ele>
        <time>2020-05-22T10:58:31.000Z</time>
      </trkpt>
      <trkpt lat="44.84956" lon="4.45513">
        <ele>911.2</ele>
        <time>2020-05-22T10:58:33.000Z</time>
      </trkpt>
      <trkpt lat="44.84948" lon="4.45524">
        <ele>910.5</ele>
        <time>2020-05-22T10:58:35.000Z</time>
      </trkpt>
      <trkpt lat="44.84939" lon="4.45537">
        <ele>909.9</ele>
        <time>2020-05-22T10:58:37.000Z</time>
      </trkpt>
      <trkpt lat="44.84934" lon="4.45556">
        <ele>909.5</ele>
        <time>2020-05-22T10:58:39.000Z</time>
      </trkpt>
      <trkpt lat="44.84934" lon="4.45577">
        <ele>909.1</ele>
        <time>2020-05-22T10:58:41.000Z</time>
      </trkpt>
      <trkpt lat="44.84935" lon="4.45591">
        <ele>908.5</ele>
        <time>2020-05-22T10:58:43.000Z</time>
      </trkpt>
      <trkpt lat="44.84934" lon="4.45611">
        <ele>907.9</ele>
        <time>2020-05-22T10:58:45.000Z</time>
      </trkpt>
      <trkpt lat="44.84936" lon="4.45632">
        <ele>907.4</ele>
        <time>2020-05-22T10:58:47.000Z</time>
      </trkpt>
      <trkpt lat="44.84938" lon="4.45653">
        <ele>906.8</ele>
        <time>2020-05-22T10:58:49.000Z</time>
      </trkpt>
      <trkpt lat="44.84943" lon="4.45671">
        <ele>906</ele>
        <time>2020-05-22T10:58:51.000Z</time>
      </trkpt>
      <trkpt lat="44.84945" lon="4.4569">
        <ele>905.4</ele>
        <time>2020-05-22T10:58:53.000Z</time>
      </trkpt>
      <trkpt lat="44.84944" lon="4.4571">
        <ele>904.8</ele>
        <time>2020-05-22T10:58:55.000Z</time>
      </trkpt>
      <trkpt lat="44.84947" lon="4.45733">
        <ele>904.1</ele>
        <time>2020-05-22T10:58:57.000Z</time>
      </trkpt>
      <trkpt lat="44.84953" lon="4.45755">
        <ele>903.6</ele>
        <time>2020-05-22T10:58:59.000Z</time>
      </trkpt>
      <trkpt lat="44.84958" lon="4.45778">
        <ele>903</ele>
        <time>2020-05-22T10:59:01.000Z</time>
      </trkpt>
      <trkpt lat="44.8496" lon="4.45794">
        <ele>902.5</ele>
        <time>2020-05-22T10:59:03.000Z</time>
      </trkpt>
      <trkpt lat="44.84958" lon="4.45811">
        <ele>902.2</ele>
        <time>2020-05-22T10:59:05.000Z</time>
      </trkpt>
      <trkpt lat="44.84959" lon="4.45832">
        <ele>902</ele>
        <time>2020-05-22T10:59:07.000Z</time>
      </trkpt>
      <trkpt lat="44.84957" lon="4.45846">
        <ele>901.9</ele>
        <time>2020-05-22T10:59:09.000Z</time>
      </trkpt>
      <trkpt lat="44.84954" lon="4.45859">
        <ele>901.9</ele>
        <time>2020-05-22T10:59:11.000Z</time>
      </trkpt>
      <trkpt lat="44.84954" lon="4.45876">
        <ele>902</ele>
        <time>2020-05-22T10:59:13.000Z</time>
      </trkpt>
      <trkpt lat="44.84954" lon="4.4589">
        <ele>902.1</ele>
        <time>2020-05-22T10:59:15.000Z</time>
      </trkpt>
      <trkpt lat="44.84956" lon="4.45909">
        <ele>902.5</ele>
        <time>2020-05-22T10:59:18.000Z</time>
      </trkpt>
      <trkpt lat="44.84958" lon="4.45923">
        <ele>902.6</ele>
        <time>2020-05-22T10:59:20.000Z</time>
      </trkpt>
      <trkpt lat="44.84958" lon="4.45938">
        <ele>903</ele>
        <time>2020-05-22T10:59:23.000Z</time>
      </trkpt>
      <trkpt lat="44.84956" lon="4.45955">
        <ele>903.6</ele>
        <time>2020-05-22T10:59:26.000Z</time>
      </trkpt>
      <trkpt lat="44.84954" lon="4.45972">
        <ele>904.4</ele>
        <time>2020-05-22T10:59:29.000Z</time>
      </trkpt>
      <trkpt lat="44.84952" lon="4.45988">
        <ele>905.5</ele>
        <time>2020-05-22T10:59:33.000Z</time>
      </trkpt>
      <trkpt lat="44.84951" lon="4.46001">
        <ele>906.8</ele>
        <time>2020-05-22T10:59:37.000Z</time>
      </trkpt>
      <trkpt lat="44.8495" lon="4.46015">
        <ele>908</ele>
        <time>2020-05-22T10:59:42.000Z</time>
      </trkpt>
      <trkpt lat="44.8495" lon="4.46031">
        <ele>909.3</ele>
        <time>2020-05-22T10:59:48.000Z</time>
      </trkpt>
      <trkpt lat="44.84949" lon="4.46046">
        <ele>910.7</ele>
        <time>2020-05-22T10:59:54.000Z</time>
      </trkpt>
      <trkpt lat="44.84948" lon="4.4606">
        <ele>911.9</ele>
        <time>2020-05-22T10:59:59.000Z</time>
      </trkpt>
      <trkpt lat="44.84949" lon="4.46074">
        <ele>913.5</ele>
        <time>2020-05-22T11:00:05.000Z</time>
      </trkpt>
      <trkpt lat="44.84949" lon="4.46088">
        <ele>915.5</ele>
        <time>2020-05-22T11:00:11.000Z</time>
      </trkpt>
      <trkpt lat="44.84948" lon="4.46102">
        <ele>916.8</ele>
        <time>2020-05-22T11:00:16.000Z</time>
      </trkpt>
      <trkpt lat="44.84941" lon="4.46112">
        <ele>917.7</ele>
        <time>2020-05-22T11:00:20.000Z</time>
      </trkpt>
      <trkpt lat="44.84935" lon="4.46124">
        <ele>918.5</ele>
        <time>2020-05-22T11:00:25.000Z</time>
      </trkpt>
      <trkpt lat="44.84933" lon="4.46139">
        <ele>919.5</ele>
        <time>2020-05-22T11:00:31.000Z</time>
      </trkpt>
      <trkpt lat="44.84934" lon="4.46153">
        <ele>920.2</ele>
        <time>2020-05-22T11:00:36.000Z</time>
      </trkpt>
      <trkpt lat="44.84932" lon="4.46165">
        <ele>920.8</ele>
        <time>2020-05-22T11:00:40.000Z</time>
      </trkpt>
      <trkpt lat="44.8493" lon="4.4618">
        <ele>921.8</ele>
        <time>2020-05-22T11:00:45.000Z</time>
      </trkpt>
      <trkpt lat="44.84929" lon="4.46194">
        <ele>922.4</ele>
        <time>2020-05-22T11:00:50.000Z</time>
      </trkpt>
      <trkpt lat="44.84926" lon="4.46207">
        <ele>922.9</ele>
        <time>2020-05-22T11:00:55.000Z</time>
      </trkpt>
      <trkpt lat="44.84923" lon="4.46221">
        <ele>923.6</ele>
        <time>2020-05-22T11:01:00.000Z</time>
      </trkpt>
      <trkpt lat="44.84921" lon="4.46237">
        <ele>924.3</ele>
        <time>2020-05-22T11:01:05.000Z</time>
      </trkpt>
      <trkpt lat="44.84919" lon="4.4625">
        <ele>924.9</ele>
        <time>2020-05-22T11:01:09.000Z</time>
      </trkpt>
      <trkpt lat="44.84918" lon="4.46264">
        <ele>925.2</ele>
        <time>2020-05-22T11:01:13.000Z</time>
      </trkpt>
      <trkpt lat="44.84917" lon="4.46277">
        <ele>925.7</ele>
        <time>2020-05-22T11:01:17.000Z</time>
      </trkpt>
      <trkpt lat="44.84916" lon="4.46291">
        <ele>926.2</ele>
        <time>2020-05-22T11:01:21.000Z</time>
      </trkpt>
      <trkpt lat="44.84915" lon="4.46306">
        <ele>926.6</ele>
        <time>2020-05-22T11:01:25.000Z</time>
      </trkpt>
      <trkpt lat="44.84912" lon="4.4632">
        <ele>927.1</ele>
        <time>2020-05-22T11:01:29.000Z</time>
      </trkpt>
      <trkpt lat="44.8491" lon="4.46335">
        <ele>927.6</ele>
        <time>2020-05-22T11:01:33.000Z</time>
      </trkpt>
      <trkpt lat="44.84908" lon="4.4635">
        <ele>928</ele>
        <time>2020-05-22T11:01:37.000Z</time>
      </trkpt>
      <trkpt lat="44.84907" lon="4.46364">
        <ele>928.2</ele>
        <time>2020-05-22T11:01:40.000Z</time>
      </trkpt>
      <trkpt lat="44.84906" lon="4.46378">
        <ele>928.5</ele>
        <time>2020-05-22T11:01:43.000Z</time>
      </trkpt>
      <trkpt lat="44.84905" lon="4.46394">
        <ele>928.6</ele>
        <time>2020-05-22T11:01:46.000Z</time>
      </trkpt>
      <trkpt lat="44.84904" lon="4.46409">
        <ele>928.8</ele>
        <time>2020-05-22T11:01:49.000Z</time>
      </trkpt>
      <trkpt lat="44.84904" lon="4.46424">
        <ele>929</ele>
        <time>2020-05-22T11:01:52.000Z</time>
      </trkpt>
      <trkpt lat="44.84905" lon="4.46442">
        <ele>929.2</ele>
        <time>2020-05-22T11:01:55.000Z</time>
      </trkpt>
      <trkpt lat="44.84905" lon="4.46459">
        <ele>929.3</ele>
        <time>2020-05-22T11:01:58.000Z</time>
      </trkpt>
      <trkpt lat="44.84906" lon="4.46476">
        <ele>929.3</ele>
        <time>2020-05-22T11:02:01.000Z</time>
      </trkpt>
      <trkpt lat="44.84907" lon="4.46494">
        <ele>929</ele>
        <time>2020-05-22T11:02:04.000Z</time>
      </trkpt>
      <trkpt lat="44.84908" lon="4.46508">
        <ele>928.8</ele>
        <time>2020-05-22T11:02:06.000Z</time>
      </trkpt>
      <trkpt lat="44.8491" lon="4.46521">
        <ele>928.7</ele>
        <time>2020-05-22T11:02:08.000Z</time>
      </trkpt>
      <trkpt lat="44.84912" lon="4.46535">
        <ele>928.6</ele>
        <time>2020-05-22T11:02:10.000Z</time>
      </trkpt>
      <trkpt lat="44.84913" lon="4.46551">
        <ele>928.5</ele>
        <time>2020-05-22T11:02:12.000Z</time>
      </trkpt>
      <trkpt lat="44.84915" lon="4.46567">
        <ele>928.5</ele>
        <time>2020-05-22T11:02:14.000Z</time>
      </trkpt>
      <trkpt lat="44.84918" lon="4.46583">
        <ele>928.3</ele>
        <time>2020-05-22T11:02:16.000Z</time>
      </trkpt>
      <trkpt lat="44.8492" lon="4.466">
        <ele>928.1</ele>
        <time>2020-05-22T11:02:18.000Z</time>
      </trkpt>
      <trkpt lat="44.84923" lon="4.46615">
        <ele>927.9</ele>
        <time>2020-05-22T11:02:20.000Z</time>
      </trkpt>
      <trkpt lat="44.84925" lon="4.4663">
        <ele>927.8</ele>
        <time>2020-05-22T11:02:22.000Z</time>
      </trkpt>
      <trkpt lat="44.84928" lon="4.46644">
        <ele>927.7</ele>
        <time>2020-05-22T11:02:24.000Z</time>
      </trkpt>
      <trkpt lat="44.8493" lon="4.46658">
        <ele>927.6</ele>
        <time>2020-05-22T11:02:26.000Z</time>
      </trkpt>
      <trkpt lat="44.84933" lon="4.46672">
        <ele>927.6</ele>
        <time>2020-05-22T11:02:28.000Z</time>
      </trkpt>
      <trkpt lat="44.84934" lon="4.46686">
        <ele>927.5</ele>
        <time>2020-05-22T11:02:30.000Z</time>
      </trkpt>
      <trkpt lat="44.84936" lon="4.46701">
        <ele>927.6</ele>
        <time>2020-05-22T11:02:32.000Z</time>
      </trkpt>
      <trkpt lat="44.84939" lon="4.46715">
        <ele>927.6</ele>
        <time>2020-05-22T11:02:34.000Z</time>
      </trkpt>
      <trkpt lat="44.84941" lon="4.46729">
        <ele>927.7</ele>
        <time>2020-05-22T11:02:36.000Z</time>
      </trkpt>
      <trkpt lat="44.84943" lon="4.46743">
        <ele>927.8</ele>
        <time>2020-05-22T11:02:38.000Z</time>
      </trkpt>
      <trkpt lat="44.84945" lon="4.46756">
        <ele>927.9</ele>
        <time>2020-05-22T11:02:40.000Z</time>
      </trkpt>
      <trkpt lat="44.84947" lon="4.46769">
        <ele>928.1</ele>
        <time>2020-05-22T11:02:42.000Z</time>
      </trkpt>
      <trkpt lat="44.84949" lon="4.46786">
        <ele>928.5</ele>
        <time>2020-05-22T11:02:45.000Z</time>
      </trkpt>
      <trkpt lat="44.84952" lon="4.46803">
        <ele>928.9</ele>
        <time>2020-05-22T11:02:48.000Z</time>
      </trkpt>
      <trkpt lat="44.84953" lon="4.46818">
        <ele>929.6</ele>
        <time>2020-05-22T11:02:51.000Z</time>
      </trkpt>
      <trkpt lat="44.84954" lon="4.46833">
        <ele>930.2</ele>
        <time>2020-05-22T11:02:54.000Z</time>
      </trkpt>
      <trkpt lat="44.84956" lon="4.46848">
        <ele>930.9</ele>
        <time>2020-05-22T11:02:57.000Z</time>
      </trkpt>
      <trkpt lat="44.84956" lon="4.46862">
        <ele>931.4</ele>
        <time>2020-05-22T11:03:00.000Z</time>
      </trkpt>
      <trkpt lat="44.84956" lon="4.46877">
        <ele>931.9</ele>
        <time>2020-05-22T11:03:03.000Z</time>
      </trkpt>
      <trkpt lat="44.84956" lon="4.46892">
        <ele>932.5</ele>
        <time>2020-05-22T11:03:06.000Z</time>
      </trkpt>
      <trkpt lat="44.84956" lon="4.46906">
        <ele>933.1</ele>
        <time>2020-05-22T11:03:09.000Z</time>
      </trkpt>
      <trkpt lat="44.84957" lon="4.46921">
        <ele>933.7</ele>
        <time>2020-05-22T11:03:12.000Z</time>
      </trkpt>
      <trkpt lat="44.84956" lon="4.46934">
        <ele>934.3</ele>
        <time>2020-05-22T11:03:15.000Z</time>
      </trkpt>
      <trkpt lat="44.84957" lon="4.46947">
        <ele>934.9</ele>
        <time>2020-05-22T11:03:18.000Z</time>
      </trkpt>
      <trkpt lat="44.84957" lon="4.46963">
        <ele>935.7</ele>
        <time>2020-05-22T11:03:22.000Z</time>
      </trkpt>
      <trkpt lat="44.84956" lon="4.4698">
        <ele>936.3</ele>
        <time>2020-05-22T11:03:26.000Z</time>
      </trkpt>
      <trkpt lat="44.84955" lon="4.46993">
        <ele>936.8</ele>
        <time>2020-05-22T11:03:29.000Z</time>
      </trkpt>
      <trkpt lat="44.84955" lon="4.47006">
        <ele>937.5</ele>
        <time>2020-05-22T11:03:32.000Z</time>
      </trkpt>
      <trkpt lat="44.84956" lon="4.4702">
        <ele>938.2</ele>
        <time>2020-05-22T11:03:35.000Z</time>
      </trkpt>
      <trkpt lat="44.84958" lon="4.47033">
        <ele>938.8</ele>
        <time>2020-05-22T11:03:38.000Z</time>
      </trkpt>
      <trkpt lat="44.84961" lon="4.47045">
        <ele>939.5</ele>
        <time>2020-05-22T11:03:41.000Z</time>
      </trkpt>
      <trkpt lat="44.84964" lon="4.47061">
        <ele>940.3</ele>
        <time>2020-05-22T11:03:45.000Z</time>
      </trkpt>
      <trkpt lat="44.84967" lon="4.47075">
        <ele>941.1</ele>
        <time>2020-05-22T11:03:49.000Z</time>
      </trkpt>
      <trkpt lat="44.84971" lon="4.47091">
        <ele>941.8</ele>
        <time>2020-05-22T11:03:53.000Z</time>
      </trkpt>
      <trkpt lat="44.84975" lon="4.47107">
        <ele>942.4</ele>
        <time>2020-05-22T11:03:57.000Z</time>
      </trkpt>
      <trkpt lat="44.84978" lon="4.47123">
        <ele>943</ele>
        <time>2020-05-22T11:04:01.000Z</time>
      </trkpt>
      <trkpt lat="44.8498" lon="4.47136">
        <ele>943.4</ele>
        <time>2020-05-22T11:04:04.000Z</time>
      </trkpt>
      <trkpt lat="44.84982" lon="4.47149">
        <ele>943.9</ele>
        <time>2020-05-22T11:04:07.000Z</time>
      </trkpt>
      <trkpt lat="44.84984" lon="4.47162">
        <ele>944.4</ele>
        <time>2020-05-22T11:04:10.000Z</time>
      </trkpt>
      <trkpt lat="44.84986" lon="4.47176">
        <ele>945</ele>
        <time>2020-05-22T11:04:13.000Z</time>
      </trkpt>
      <trkpt lat="44.84988" lon="4.47189">
        <ele>945.4</ele>
        <time>2020-05-22T11:04:16.000Z</time>
      </trkpt>
      <trkpt lat="44.84991" lon="4.47202">
        <ele>945.8</ele>
        <time>2020-05-22T11:04:19.000Z</time>
      </trkpt>
      <trkpt lat="44.84993" lon="4.47214">
        <ele>946.3</ele>
        <time>2020-05-22T11:04:22.000Z</time>
      </trkpt>
      <trkpt lat="44.84997" lon="4.47227">
        <ele>946.8</ele>
        <time>2020-05-22T11:04:25.000Z</time>
      </trkpt>
      <trkpt lat="44.84999" lon="4.4724">
        <ele>947.2</ele>
        <time>2020-05-22T11:04:28.000Z</time>
      </trkpt>
      <trkpt lat="44.85002" lon="4.47255">
        <ele>947.6</ele>
        <time>2020-05-22T11:04:31.000Z</time>
      </trkpt>
      <trkpt lat="44.85006" lon="4.4727">
        <ele>947.9</ele>
        <time>2020-05-22T11:04:34.000Z</time>
      </trkpt>
      <trkpt lat="44.85007" lon="4.47286">
        <ele>948.3</ele>
        <time>2020-05-22T11:04:37.000Z</time>
      </trkpt>
      <trkpt lat="44.85009" lon="4.47301">
        <ele>948.9</ele>
        <time>2020-05-22T11:04:40.000Z</time>
      </trkpt>
      <trkpt lat="44.85009" lon="4.47316">
        <ele>949.4</ele>
        <time>2020-05-22T11:04:43.000Z</time>
      </trkpt>
      <trkpt lat="44.85008" lon="4.47331">
        <ele>949.8</ele>
        <time>2020-05-22T11:04:46.000Z</time>
      </trkpt>
      <trkpt lat="44.85007" lon="4.47346">
        <ele>950.3</ele>
        <time>2020-05-22T11:04:49.000Z</time>
      </trkpt>
      <trkpt lat="44.85007" lon="4.47361">
        <ele>950.8</ele>
        <time>2020-05-22T11:04:52.000Z</time>
      </trkpt>
      <trkpt lat="44.85006" lon="4.47376">
        <ele>951.1</ele>
        <time>2020-05-22T11:04:55.000Z</time>
      </trkpt>
      <trkpt lat="44.85006" lon="4.47391">
        <ele>951.5</ele>
        <time>2020-05-22T11:04:58.000Z</time>
      </trkpt>
      <trkpt lat="44.85006" lon="4.47407">
        <ele>951.9</ele>
        <time>2020-05-22T11:05:01.000Z</time>
      </trkpt>
      <trkpt lat="44.85006" lon="4.47422">
        <ele>952.3</ele>
        <time>2020-05-22T11:05:04.000Z</time>
      </trkpt>
      <trkpt lat="44.85006" lon="4.47437">
        <ele>952.7</ele>
        <time>2020-05-22T11:05:07.000Z</time>
      </trkpt>
      <trkpt lat="44.85007" lon="4.47453">
        <ele>953.1</ele>
        <time>2020-05-22T11:05:10.000Z</time>
      </trkpt>
      <trkpt lat="44.85008" lon="4.4747">
        <ele>953.6</ele>
        <time>2020-05-22T11:05:13.000Z</time>
      </trkpt>
      <trkpt lat="44.85008" lon="4.47485">
        <ele>954.2</ele>
        <time>2020-05-22T11:05:16.000Z</time>
      </trkpt>
      <trkpt lat="44.85009" lon="4.475">
        <ele>954.7</ele>
        <time>2020-05-22T11:05:19.000Z</time>
      </trkpt>
      <trkpt lat="44.85009" lon="4.47514">
        <ele>955</ele>
        <time>2020-05-22T11:05:22.000Z</time>
      </trkpt>
      <trkpt lat="44.8501" lon="4.47529">
        <ele>955.3</ele>
        <time>2020-05-22T11:05:25.000Z</time>
      </trkpt>
      <trkpt lat="44.85011" lon="4.47544">
        <ele>955.7</ele>
        <time>2020-05-22T11:05:28.000Z</time>
      </trkpt>
      <trkpt lat="44.85014" lon="4.4756">
        <ele>956.1</ele>
        <time>2020-05-22T11:05:31.000Z</time>
      </trkpt>
      <trkpt lat="44.85018" lon="4.47575">
        <ele>956.6</ele>
        <time>2020-05-22T11:05:34.000Z</time>
      </trkpt>
      <trkpt lat="44.85025" lon="4.47593">
        <ele>956.9</ele>
        <time>2020-05-22T11:05:37.000Z</time>
      </trkpt>
      <trkpt lat="44.85029" lon="4.47605">
        <ele>956.9</ele>
        <time>2020-05-22T11:05:39.000Z</time>
      </trkpt>
      <trkpt lat="44.85034" lon="4.47617">
        <ele>956.9</ele>
        <time>2020-05-22T11:05:41.000Z</time>
      </trkpt>
      <trkpt lat="44.8504" lon="4.47631">
        <ele>956.8</ele>
        <time>2020-05-22T11:05:43.000Z</time>
      </trkpt>
      <trkpt lat="44.85045" lon="4.47646">
        <ele>956.5</ele>
        <time>2020-05-22T11:05:45.000Z</time>
      </trkpt>
      <trkpt lat="44.85052" lon="4.47662">
        <ele>956.3</ele>
        <time>2020-05-22T11:05:47.000Z</time>
      </trkpt>
      <trkpt lat="44.85058" lon="4.47679">
        <ele>956.1</ele>
        <time>2020-05-22T11:05:49.000Z</time>
      </trkpt>
      <trkpt lat="44.85065" lon="4.47696">
        <ele>955.9</ele>
        <time>2020-05-22T11:05:51.000Z</time>
      </trkpt>
      <trkpt lat="44.85071" lon="4.47715">
        <ele>955.5</ele>
        <time>2020-05-22T11:05:53.000Z</time>
      </trkpt>
      <trkpt lat="44.85078" lon="4.47734">
        <ele>955.1</ele>
        <time>2020-05-22T11:05:55.000Z</time>
      </trkpt>
      <trkpt lat="44.85084" lon="4.47753">
        <ele>954.8</ele>
        <time>2020-05-22T11:05:57.000Z</time>
      </trkpt>
      <trkpt lat="44.85088" lon="4.47772">
        <ele>954.5</ele>
        <time>2020-05-22T11:05:59.000Z</time>
      </trkpt>
      <trkpt lat="44.85092" lon="4.4779">
        <ele>954.3</ele>
        <time>2020-05-22T11:06:01.000Z</time>
      </trkpt>
      <trkpt lat="44.85094" lon="4.47807">
        <ele>954.1</ele>
        <time>2020-05-22T11:06:03.000Z</time>
      </trkpt>
      <trkpt lat="44.85095" lon="4.47823">
        <ele>953.9</ele>
        <time>2020-05-22T11:06:05.000Z</time>
      </trkpt>
      <trkpt lat="44.85094" lon="4.47837">
        <ele>954</ele>
        <time>2020-05-22T11:06:07.000Z</time>
      </trkpt>
      <trkpt lat="44.85094" lon="4.47851">
        <ele>954.1</ele>
        <time>2020-05-22T11:06:09.000Z</time>
      </trkpt>
      <trkpt lat="44.85092" lon="4.47864">
        <ele>954.2</ele>
        <time>2020-05-22T11:06:11.000Z</time>
      </trkpt>
      <trkpt lat="44.8509" lon="4.4788">
        <ele>954.5</ele>
        <time>2020-05-22T11:06:14.000Z</time>
      </trkpt>
      <trkpt lat="44.85088" lon="4.47893">
        <ele>954.9</ele>
        <time>2020-05-22T11:06:17.000Z</time>
      </trkpt>
      <trkpt lat="44.85086" lon="4.4791">
        <ele>955.7</ele>
        <time>2020-05-22T11:06:21.000Z</time>
      </trkpt>
      <trkpt lat="44.85083" lon="4.47926">
        <ele>956.5</ele>
        <time>2020-05-22T11:06:25.000Z</time>
      </trkpt>
      <trkpt lat="44.85079" lon="4.47941">
        <ele>957.6</ele>
        <time>2020-05-22T11:06:29.000Z</time>
      </trkpt>
      <trkpt lat="44.85074" lon="4.47955">
        <ele>958.6</ele>
        <time>2020-05-22T11:06:33.000Z</time>
      </trkpt>
      <trkpt lat="44.8507" lon="4.47969">
        <ele>959.6</ele>
        <time>2020-05-22T11:06:37.000Z</time>
      </trkpt>
      <trkpt lat="44.85065" lon="4.47983">
        <ele>960.7</ele>
        <time>2020-05-22T11:06:41.000Z</time>
      </trkpt>
      <trkpt lat="44.85061" lon="4.47998">
        <ele>961.8</ele>
        <time>2020-05-22T11:06:45.000Z</time>
      </trkpt>
      <trkpt lat="44.85057" lon="4.48012">
        <ele>963</ele>
        <time>2020-05-22T11:06:49.000Z</time>
      </trkpt>
      <trkpt lat="44.85053" lon="4.48025">
        <ele>963.9</ele>
        <time>2020-05-22T11:06:53.000Z</time>
      </trkpt>
      <trkpt lat="44.8505" lon="4.4804">
        <ele>964.7</ele>
        <time>2020-05-22T11:06:57.000Z</time>
      </trkpt>
      <trkpt lat="44.85047" lon="4.48056">
        <ele>965.4</ele>
        <time>2020-05-22T11:07:01.000Z</time>
      </trkpt>
      <trkpt lat="44.85044" lon="4.48072">
        <ele>965.8</ele>
        <time>2020-05-22T11:07:05.000Z</time>
      </trkpt>
      <trkpt lat="44.85042" lon="4.48088">
        <ele>966.2</ele>
        <time>2020-05-22T11:07:09.000Z</time>
      </trkpt>
      <trkpt lat="44.8504" lon="4.48105">
        <ele>966.8</ele>
        <time>2020-05-22T11:07:13.000Z</time>
      </trkpt>
      <trkpt lat="44.85037" lon="4.48117">
        <ele>967.2</ele>
        <time>2020-05-22T11:07:16.000Z</time>
      </trkpt>
      <trkpt lat="44.85034" lon="4.48133">
        <ele>967.7</ele>
        <time>2020-05-22T11:07:20.000Z</time>
      </trkpt>
      <trkpt lat="44.85032" lon="4.48146">
        <ele>968</ele>
        <time>2020-05-22T11:07:23.000Z</time>
      </trkpt>
      <trkpt lat="44.8503" lon="4.48158">
        <ele>968.3</ele>
        <time>2020-05-22T11:07:26.000Z</time>
      </trkpt>
      <trkpt lat="44.85027" lon="4.48171">
        <ele>968.6</ele>
        <time>2020-05-22T11:07:29.000Z</time>
      </trkpt>
      <trkpt lat="44.85024" lon="4.48185">
        <ele>968.9</ele>
        <time>2020-05-22T11:07:32.000Z</time>
      </trkpt>
      <trkpt lat="44.8502" lon="4.48199">
        <ele>969.1</ele>
        <time>2020-05-22T11:07:35.000Z</time>
      </trkpt>
      <trkpt lat="44.85016" lon="4.48214">
        <ele>969.3</ele>
        <time>2020-05-22T11:07:38.000Z</time>
      </trkpt>
      <trkpt lat="44.85012" lon="4.48231">
        <ele>969.4</ele>
        <time>2020-05-22T11:07:41.000Z</time>
      </trkpt>
      <trkpt lat="44.8501" lon="4.48243">
        <ele>969.4</ele>
        <time>2020-05-22T11:07:43.000Z</time>
      </trkpt>
      <trkpt lat="44.85008" lon="4.48257">
        <ele>969.4</ele>
        <time>2020-05-22T11:07:45.000Z</time>
      </trkpt>
      <trkpt lat="44.85006" lon="4.4827">
        <ele>969.4</ele>
        <time>2020-05-22T11:07:47.000Z</time>
      </trkpt>
      <trkpt lat="44.85005" lon="4.48284">
        <ele>969.6</ele>
        <time>2020-05-22T11:07:49.000Z</time>
      </trkpt>
      <trkpt lat="44.85004" lon="4.48297">
        <ele>969.8</ele>
        <time>2020-05-22T11:07:51.000Z</time>
      </trkpt>
      <trkpt lat="44.85002" lon="4.4831">
        <ele>970</ele>
        <time>2020-05-22T11:07:53.000Z</time>
      </trkpt>
      <trkpt lat="44.85001" lon="4.48323">
        <ele>970.2</ele>
        <time>2020-05-22T11:07:55.000Z</time>
      </trkpt>
      <trkpt lat="44.85001" lon="4.48336">
        <ele>970.2</ele>
        <time>2020-05-22T11:07:57.000Z</time>
      </trkpt>
      <trkpt lat="44.85" lon="4.48355">
        <ele>970.4</ele>
        <time>2020-05-22T11:08:00.000Z</time>
      </trkpt>
      <trkpt lat="44.84998" lon="4.48373">
        <ele>970.5</ele>
        <time>2020-05-22T11:08:03.000Z</time>
      </trkpt>
      <trkpt lat="44.84997" lon="4.48391">
        <ele>970.7</ele>
        <time>2020-05-22T11:08:06.000Z</time>
      </trkpt>
      <trkpt lat="44.84996" lon="4.48409">
        <ele>970.9</ele>
        <time>2020-05-22T11:08:09.000Z</time>
      </trkpt>
      <trkpt lat="44.84995" lon="4.48427">
        <ele>971</ele>
        <time>2020-05-22T11:08:12.000Z</time>
      </trkpt>
      <trkpt lat="44.84994" lon="4.48444">
        <ele>971.2</ele>
        <time>2020-05-22T11:08:15.000Z</time>
      </trkpt>
      <trkpt lat="44.84992" lon="4.48461">
        <ele>971.4</ele>
        <time>2020-05-22T11:08:18.000Z</time>
      </trkpt>
      <trkpt lat="44.84991" lon="4.48479">
        <ele>971.7</ele>
        <time>2020-05-22T11:08:21.000Z</time>
      </trkpt>
      <trkpt lat="44.8499" lon="4.48495">
        <ele>972</ele>
        <time>2020-05-22T11:08:24.000Z</time>
      </trkpt>
      <trkpt lat="44.84989" lon="4.48512">
        <ele>972.5</ele>
        <time>2020-05-22T11:08:27.000Z</time>
      </trkpt>
      <trkpt lat="44.84988" lon="4.48528">
        <ele>973.1</ele>
        <time>2020-05-22T11:08:30.000Z</time>
      </trkpt>
      <trkpt lat="44.84987" lon="4.48545">
        <ele>973.6</ele>
        <time>2020-05-22T11:08:33.000Z</time>
      </trkpt>
      <trkpt lat="44.84987" lon="4.48563">
        <ele>974</ele>
        <time>2020-05-22T11:08:36.000Z</time>
      </trkpt>
      <trkpt lat="44.84986" lon="4.4858">
        <ele>974.6</ele>
        <time>2020-05-22T11:08:39.000Z</time>
      </trkpt>
      <trkpt lat="44.84987" lon="4.48597">
        <ele>975.2</ele>
        <time>2020-05-22T11:08:42.000Z</time>
      </trkpt>
      <trkpt lat="44.84986" lon="4.48613">
        <ele>975.7</ele>
        <time>2020-05-22T11:08:45.000Z</time>
      </trkpt>
      <trkpt lat="44.84986" lon="4.4863">
        <ele>975.9</ele>
        <time>2020-05-22T11:08:48.000Z</time>
      </trkpt>
      <trkpt lat="44.84984" lon="4.48647">
        <ele>976.1</ele>
        <time>2020-05-22T11:08:51.000Z</time>
      </trkpt>
      <trkpt lat="44.84982" lon="4.48665">
        <ele>976.1</ele>
        <time>2020-05-22T11:08:54.000Z</time>
      </trkpt>
      <trkpt lat="44.8498" lon="4.48677">
        <ele>976.2</ele>
        <time>2020-05-22T11:08:56.000Z</time>
      </trkpt>
      <trkpt lat="44.84978" lon="4.48696">
        <ele>976.4</ele>
        <time>2020-05-22T11:08:59.000Z</time>
      </trkpt>
      <trkpt lat="44.84978" lon="4.4871">
        <ele>976.6</ele>
        <time>2020-05-22T11:09:01.000Z</time>
      </trkpt>
      <trkpt lat="44.84978" lon="4.48723">
        <ele>976.7</ele>
        <time>2020-05-22T11:09:03.000Z</time>
      </trkpt>
      <trkpt lat="44.84981" lon="4.48741">
        <ele>976.9</ele>
        <time>2020-05-22T11:09:06.000Z</time>
      </trkpt>
      <trkpt lat="44.84982" lon="4.48754">
        <ele>977</ele>
        <time>2020-05-22T11:09:08.000Z</time>
      </trkpt>
      <trkpt lat="44.84985" lon="4.48771">
        <ele>977.2</ele>
        <time>2020-05-22T11:09:11.000Z</time>
      </trkpt>
      <trkpt lat="44.8499" lon="4.48787">
        <ele>977.5</ele>
        <time>2020-05-22T11:09:14.000Z</time>
      </trkpt>
      <trkpt lat="44.84995" lon="4.48803">
        <ele>977.9</ele>
        <time>2020-05-22T11:09:17.000Z</time>
      </trkpt>
      <trkpt lat="44.85" lon="4.48815">
        <ele>978</ele>
        <time>2020-05-22T11:09:19.000Z</time>
      </trkpt>
      <trkpt lat="44.85004" lon="4.48828">
        <ele>978</ele>
        <time>2020-05-22T11:09:21.000Z</time>
      </trkpt>
      <trkpt lat="44.85009" lon="4.48843">
        <ele>977.9</ele>
        <time>2020-05-22T11:09:23.000Z</time>
      </trkpt>
      <trkpt lat="44.85013" lon="4.48859">
        <ele>977.9</ele>
        <time>2020-05-22T11:09:25.000Z</time>
      </trkpt>
      <trkpt lat="44.85016" lon="4.48875">
        <ele>977.6</ele>
        <time>2020-05-22T11:09:27.000Z</time>
      </trkpt>
      <trkpt lat="44.85018" lon="4.48891">
        <ele>977.5</ele>
        <time>2020-05-22T11:09:29.000Z</time>
      </trkpt>
      <trkpt lat="44.8502" lon="4.48906">
        <ele>977.4</ele>
        <time>2020-05-22T11:09:31.000Z</time>
      </trkpt>
      <trkpt lat="44.85021" lon="4.48921">
        <ele>977.4</ele>
        <time>2020-05-22T11:09:33.000Z</time>
      </trkpt>
      <trkpt lat="44.85022" lon="4.48934">
        <ele>977.4</ele>
        <time>2020-05-22T11:09:35.000Z</time>
      </trkpt>
      <trkpt lat="44.85023" lon="4.48947">
        <ele>977.4</ele>
        <time>2020-05-22T11:09:37.000Z</time>
      </trkpt>
      <trkpt lat="44.85023" lon="4.48961">
        <ele>977.5</ele>
        <time>2020-05-22T11:09:39.000Z</time>
      </trkpt>
      <trkpt lat="44.85023" lon="4.48975">
        <ele>977.7</ele>
        <time>2020-05-22T11:09:41.000Z</time>
      </trkpt>
      <trkpt lat="44.85023" lon="4.48988">
        <ele>978</ele>
        <time>2020-05-22T11:09:43.000Z</time>
      </trkpt>
      <trkpt lat="44.85023" lon="4.49002">
        <ele>978.2</ele>
        <time>2020-05-22T11:09:45.000Z</time>
      </trkpt>
      <trkpt lat="44.85023" lon="4.49015">
        <ele>978.6</ele>
        <time>2020-05-22T11:09:47.000Z</time>
      </trkpt>
      <trkpt lat="44.85021" lon="4.49033">
        <ele>979.1</ele>
        <time>2020-05-22T11:09:50.000Z</time>
      </trkpt>
      <trkpt lat="44.85019" lon="4.49052">
        <ele>979.5</ele>
        <time>2020-05-22T11:09:53.000Z</time>
      </trkpt>
      <trkpt lat="44.85017" lon="4.49066">
        <ele>979.5</ele>
        <time>2020-05-22T11:09:55.000Z</time>
      </trkpt>
      <trkpt lat="44.85014" lon="4.49081">
        <ele>979.4</ele>
        <time>2020-05-22T11:09:57.000Z</time>
      </trkpt>
      <trkpt lat="44.85012" lon="4.49097">
        <ele>979.2</ele>
        <time>2020-05-22T11:09:59.000Z</time>
      </trkpt>
      <trkpt lat="44.85009" lon="4.49113">
        <ele>978.9</ele>
        <time>2020-05-22T11:10:01.000Z</time>
      </trkpt>
      <trkpt lat="44.85005" lon="4.4913">
        <ele>978.7</ele>
        <time>2020-05-22T11:10:03.000Z</time>
      </trkpt>
      <trkpt lat="44.84999" lon="4.49147">
        <ele>978.6</ele>
        <time>2020-05-22T11:10:05.000Z</time>
      </trkpt>
      <trkpt lat="44.84994" lon="4.49166">
        <ele>978.4</ele>
        <time>2020-05-22T11:10:07.000Z</time>
      </trkpt>
      <trkpt lat="44.84986" lon="4.49186">
        <ele>978.1</ele>
        <time>2020-05-22T11:10:09.000Z</time>
      </trkpt>
      <trkpt lat="44.84978" lon="4.49206">
        <ele>977.6</ele>
        <time>2020-05-22T11:10:11.000Z</time>
      </trkpt>
      <trkpt lat="44.8497" lon="4.49227">
        <ele>977.1</ele>
        <time>2020-05-22T11:10:13.000Z</time>
      </trkpt>
      <trkpt lat="44.84963" lon="4.49248">
        <ele>976.6</ele>
        <time>2020-05-22T11:10:15.000Z</time>
      </trkpt>
      <trkpt lat="44.84956" lon="4.4927">
        <ele>976.1</ele>
        <time>2020-05-22T11:10:17.000Z</time>
      </trkpt>
      <trkpt lat="44.84951" lon="4.49292">
        <ele>975.5</ele>
        <time>2020-05-22T11:10:19.000Z</time>
      </trkpt>
      <trkpt lat="44.84948" lon="4.49313">
        <ele>974.6</ele>
        <time>2020-05-22T11:10:21.000Z</time>
      </trkpt>
      <trkpt lat="44.84945" lon="4.49335">
        <ele>973.7</ele>
        <time>2020-05-22T11:10:23.000Z</time>
      </trkpt>
      <trkpt lat="44.84942" lon="4.49356">
        <ele>972.9</ele>
        <time>2020-05-22T11:10:25.000Z</time>
      </trkpt>
      <trkpt lat="44.8494" lon="4.49376">
        <ele>971.9</ele>
        <time>2020-05-22T11:10:27.000Z</time>
      </trkpt>
      <trkpt lat="44.84938" lon="4.49397">
        <ele>970.9</ele>
        <time>2020-05-22T11:10:29.000Z</time>
      </trkpt>
      <trkpt lat="44.84938" lon="4.49417">
        <ele>969.8</ele>
        <time>2020-05-22T11:10:31.000Z</time>
      </trkpt>
      <trkpt lat="44.84942" lon="4.49439">
        <ele>969</ele>
        <time>2020-05-22T11:10:33.000Z</time>
      </trkpt>
      <trkpt lat="44.84948" lon="4.49457">
        <ele>967.8</ele>
        <time>2020-05-22T11:10:35.000Z</time>
      </trkpt>
      <trkpt lat="44.84954" lon="4.49478">
        <ele>966.2</ele>
        <time>2020-05-22T11:10:37.000Z</time>
      </trkpt>
      <trkpt lat="44.8496" lon="4.495">
        <ele>964.7</ele>
        <time>2020-05-22T11:10:39.000Z</time>
      </trkpt>
      <trkpt lat="44.84964" lon="4.49521">
        <ele>963.1</ele>
        <time>2020-05-22T11:10:41.000Z</time>
      </trkpt>
      <trkpt lat="44.84967" lon="4.49544">
        <ele>961.5</ele>
        <time>2020-05-22T11:10:43.000Z</time>
      </trkpt>
      <trkpt lat="44.84965" lon="4.49568">
        <ele>960</ele>
        <time>2020-05-22T11:10:45.000Z</time>
      </trkpt>
      <trkpt lat="44.84965" lon="4.49583">
        <ele>959.3</ele>
        <time>2020-05-22T11:10:46.000Z</time>
      </trkpt>
      <trkpt lat="44.84964" lon="4.49596">
        <ele>958.7</ele>
        <time>2020-05-22T11:10:47.000Z</time>
      </trkpt>
      <trkpt lat="44.84962" lon="4.4962">
        <ele>957.4</ele>
        <time>2020-05-22T11:10:49.000Z</time>
      </trkpt>
      <trkpt lat="44.84958" lon="4.49641">
        <ele>956.3</ele>
        <time>2020-05-22T11:10:51.000Z</time>
      </trkpt>
      <trkpt lat="44.84951" lon="4.4966">
        <ele>955.3</ele>
        <time>2020-05-22T11:10:53.000Z</time>
      </trkpt>
      <trkpt lat="44.84944" lon="4.49677">
        <ele>954.5</ele>
        <time>2020-05-22T11:10:55.000Z</time>
      </trkpt>
      <trkpt lat="44.84939" lon="4.49697">
        <ele>953.8</ele>
        <time>2020-05-22T11:10:57.000Z</time>
      </trkpt>
      <trkpt lat="44.84937" lon="4.49716">
        <ele>953.2</ele>
        <time>2020-05-22T11:10:59.000Z</time>
      </trkpt>
      <trkpt lat="44.84935" lon="4.49735">
        <ele>952.7</ele>
        <time>2020-05-22T11:11:01.000Z</time>
      </trkpt>
      <trkpt lat="44.84931" lon="4.49752">
        <ele>952.2</ele>
        <time>2020-05-22T11:11:03.000Z</time>
      </trkpt>
      <trkpt lat="44.84927" lon="4.49769">
        <ele>951.8</ele>
        <time>2020-05-22T11:11:05.000Z</time>
      </trkpt>
      <trkpt lat="44.84923" lon="4.49785">
        <ele>951.4</ele>
        <time>2020-05-22T11:11:07.000Z</time>
      </trkpt>
      <trkpt lat="44.84918" lon="4.498">
        <ele>951.2</ele>
        <time>2020-05-22T11:11:09.000Z</time>
      </trkpt>
      <trkpt lat="44.84914" lon="4.49814">
        <ele>951</ele>
        <time>2020-05-22T11:11:11.000Z</time>
      </trkpt>
      <trkpt lat="44.84911" lon="4.49827">
        <ele>950.8</ele>
        <time>2020-05-22T11:11:13.000Z</time>
      </trkpt>
      <trkpt lat="44.84907" lon="4.4984">
        <ele>950.7</ele>
        <time>2020-05-22T11:11:15.000Z</time>
      </trkpt>
      <trkpt lat="44.84903" lon="4.49853">
        <ele>950.5</ele>
        <time>2020-05-22T11:11:17.000Z</time>
      </trkpt>
      <trkpt lat="44.84897" lon="4.49867">
        <ele>950.3</ele>
        <time>2020-05-22T11:11:19.000Z</time>
      </trkpt>
      <trkpt lat="44.84891" lon="4.49881">
        <ele>950.1</ele>
        <time>2020-05-22T11:11:21.000Z</time>
      </trkpt>
      <trkpt lat="44.84883" lon="4.49894">
        <ele>949.8</ele>
        <time>2020-05-22T11:11:23.000Z</time>
      </trkpt>
      <trkpt lat="44.84875" lon="4.49907">
        <ele>949.5</ele>
        <time>2020-05-22T11:11:25.000Z</time>
      </trkpt>
      <trkpt lat="44.84867" lon="4.49924">
        <ele>949.2</ele>
        <time>2020-05-22T11:11:27.000Z</time>
      </trkpt>
      <trkpt lat="44.84857" lon="4.49939">
        <ele>948.8</ele>
        <time>2020-05-22T11:11:29.000Z</time>
      </trkpt>
      <trkpt lat="44.84846" lon="4.49956">
        <ele>948.4</ele>
        <time>2020-05-22T11:11:31.000Z</time>
      </trkpt>
      <trkpt lat="44.84836" lon="4.49972">
        <ele>948.1</ele>
        <time>2020-05-22T11:11:33.000Z</time>
      </trkpt>
      <trkpt lat="44.84824" lon="4.49988">
        <ele>947.6</ele>
        <time>2020-05-22T11:11:35.000Z</time>
      </trkpt>
      <trkpt lat="44.84812" lon="4.50003">
        <ele>947</ele>
        <time>2020-05-22T11:11:37.000Z</time>
      </trkpt>
      <trkpt lat="44.84801" lon="4.50019">
        <ele>946</ele>
        <time>2020-05-22T11:11:39.000Z</time>
      </trkpt>
      <trkpt lat="44.8479" lon="4.50034">
        <ele>945.2</ele>
        <time>2020-05-22T11:11:41.000Z</time>
      </trkpt>
      <trkpt lat="44.84783" lon="4.50049">
        <ele>944.4</ele>
        <time>2020-05-22T11:11:43.000Z</time>
      </trkpt>
      <trkpt lat="44.84774" lon="4.50065">
        <ele>943.5</ele>
        <time>2020-05-22T11:11:45.000Z</time>
      </trkpt>
      <trkpt lat="44.84765" lon="4.50083">
        <ele>942.7</ele>
        <time>2020-05-22T11:11:47.000Z</time>
      </trkpt>
      <trkpt lat="44.84756" lon="4.50103">
        <ele>941.6</ele>
        <time>2020-05-22T11:11:49.000Z</time>
      </trkpt>
      <trkpt lat="44.84747" lon="4.50122">
        <ele>940.5</ele>
        <time>2020-05-22T11:11:51.000Z</time>
      </trkpt>
      <trkpt lat="44.84741" lon="4.50143">
        <ele>939.3</ele>
        <time>2020-05-22T11:11:53.000Z</time>
      </trkpt>
      <trkpt lat="44.84737" lon="4.50164">
        <ele>937.9</ele>
        <time>2020-05-22T11:11:55.000Z</time>
      </trkpt>
      <trkpt lat="44.84735" lon="4.50177">
        <ele>937.2</ele>
        <time>2020-05-22T11:11:56.000Z</time>
      </trkpt>
      <trkpt lat="44.84732" lon="4.50189">
        <ele>936.5</ele>
        <time>2020-05-22T11:11:57.000Z</time>
      </trkpt>
      <trkpt lat="44.84726" lon="4.50211">
        <ele>935.1</ele>
        <time>2020-05-22T11:11:59.000Z</time>
      </trkpt>
      <trkpt lat="44.84722" lon="4.50224">
        <ele>934.4</ele>
        <time>2020-05-22T11:12:00.000Z</time>
      </trkpt>
      <trkpt lat="44.84723" lon="4.50244">
        <ele>932.8</ele>
        <time>2020-05-22T11:12:02.000Z</time>
      </trkpt>
      <trkpt lat="44.84731" lon="4.50263">
        <ele>931.3</ele>
        <time>2020-05-22T11:12:04.000Z</time>
      </trkpt>
      <trkpt lat="44.84742" lon="4.50282">
        <ele>930.1</ele>
        <time>2020-05-22T11:12:06.000Z</time>
      </trkpt>
      <trkpt lat="44.84751" lon="4.50302">
        <ele>928.8</ele>
        <time>2020-05-22T11:12:08.000Z</time>
      </trkpt>
      <trkpt lat="44.8476" lon="4.5032">
        <ele>927.5</ele>
        <time>2020-05-22T11:12:10.000Z</time>
      </trkpt>
      <trkpt lat="44.84768" lon="4.50333">
        <ele>926.4</ele>
        <time>2020-05-22T11:12:12.000Z</time>
      </trkpt>
      <trkpt lat="44.84779" lon="4.50345">
        <ele>925.1</ele>
        <time>2020-05-22T11:12:14.000Z</time>
      </trkpt>
      <trkpt lat="44.84791" lon="4.50361">
        <ele>923.8</ele>
        <time>2020-05-22T11:12:16.000Z</time>
      </trkpt>
      <trkpt lat="44.84802" lon="4.50376">
        <ele>922.7</ele>
        <time>2020-05-22T11:12:18.000Z</time>
      </trkpt>
      <trkpt lat="44.84813" lon="4.50392">
        <ele>921.6</ele>
        <time>2020-05-22T11:12:20.000Z</time>
      </trkpt>
      <trkpt lat="44.84826" lon="4.50406">
        <ele>920.5</ele>
        <time>2020-05-22T11:12:22.000Z</time>
      </trkpt>
      <trkpt lat="44.84838" lon="4.50424">
        <ele>919.6</ele>
        <time>2020-05-22T11:12:24.000Z</time>
      </trkpt>
      <trkpt lat="44.84847" lon="4.50436">
        <ele>919.2</ele>
        <time>2020-05-22T11:12:25.000Z</time>
      </trkpt>
      <trkpt lat="44.84855" lon="4.50447">
        <ele>918.7</ele>
        <time>2020-05-22T11:12:26.000Z</time>
      </trkpt>
      <trkpt lat="44.84861" lon="4.50457">
        <ele>918.2</ele>
        <time>2020-05-22T11:12:27.000Z</time>
      </trkpt>
      <trkpt lat="44.84872" lon="4.50474">
        <ele>917</ele>
        <time>2020-05-22T11:12:29.000Z</time>
      </trkpt>
      <trkpt lat="44.84883" lon="4.50491">
        <ele>916.2</ele>
        <time>2020-05-22T11:12:31.000Z</time>
      </trkpt>
      <trkpt lat="44.84894" lon="4.50505">
        <ele>915.5</ele>
        <time>2020-05-22T11:12:33.000Z</time>
      </trkpt>
      <trkpt lat="44.84906" lon="4.50521">
        <ele>914.6</ele>
        <time>2020-05-22T11:12:35.000Z</time>
      </trkpt>
      <trkpt lat="44.84916" lon="4.50539">
        <ele>913.8</ele>
        <time>2020-05-22T11:12:37.000Z</time>
      </trkpt>
      <trkpt lat="44.84921" lon="4.50552">
        <ele>913.1</ele>
        <time>2020-05-22T11:12:39.000Z</time>
      </trkpt>
      <trkpt lat="44.84923" lon="4.50565">
        <ele>911.5</ele>
        <time>2020-05-22T11:12:42.000Z</time>
      </trkpt>
      <trkpt lat="44.84922" lon="4.50569">
        <ele>907.4</ele>
        <time>2020-05-22T11:12:49.000Z</time>
      </trkpt>
      <trkpt lat="44.84921" lon="4.50583">
        <ele>903.1</ele>
        <time>2020-05-22T11:15:44.000Z</time>
      </trkpt>
      <trkpt lat="44.84921" lon="4.50599">
        <ele>903.1</ele>
        <time>2020-05-22T11:15:47.000Z</time>
      </trkpt>
      <trkpt lat="44.8492" lon="4.50614">
        <ele>903</ele>
        <time>2020-05-22T11:15:49.000Z</time>
      </trkpt>
      <trkpt lat="44.8492" lon="4.50629">
        <ele>902.9</ele>
        <time>2020-05-22T11:15:51.000Z</time>
      </trkpt>
      <trkpt lat="44.84918" lon="4.50647">
        <ele>902.7</ele>
        <time>2020-05-22T11:15:53.000Z</time>
      </trkpt>
      <trkpt lat="44.84915" lon="4.50665">
        <ele>902.3</ele>
        <time>2020-05-22T11:15:55.000Z</time>
      </trkpt>
      <trkpt lat="44.84913" lon="4.50684">
        <ele>901.8</ele>
        <time>2020-05-22T11:15:57.000Z</time>
      </trkpt>
      <trkpt lat="44.84911" lon="4.50703">
        <ele>901.2</ele>
        <time>2020-05-22T11:15:59.000Z</time>
      </trkpt>
      <trkpt lat="44.8491" lon="4.50722">
        <ele>900.4</ele>
        <time>2020-05-22T11:16:01.000Z</time>
      </trkpt>
      <trkpt lat="44.84909" lon="4.50743">
        <ele>899.7</ele>
        <time>2020-05-22T11:16:03.000Z</time>
      </trkpt>
      <trkpt lat="44.84909" lon="4.50762">
        <ele>898.9</ele>
        <time>2020-05-22T11:16:05.000Z</time>
      </trkpt>
      <trkpt lat="44.84912" lon="4.50782">
        <ele>898.1</ele>
        <time>2020-05-22T11:16:07.000Z</time>
      </trkpt>
      <trkpt lat="44.8492" lon="4.50801">
        <ele>897.2</ele>
        <time>2020-05-22T11:16:09.000Z</time>
      </trkpt>
      <trkpt lat="44.8493" lon="4.50818">
        <ele>896.3</ele>
        <time>2020-05-22T11:16:11.000Z</time>
      </trkpt>
      <trkpt lat="44.84943" lon="4.5083">
        <ele>895.3</ele>
        <time>2020-05-22T11:16:13.000Z</time>
      </trkpt>
      <trkpt lat="44.84958" lon="4.5084">
        <ele>894.5</ele>
        <time>2020-05-22T11:16:15.000Z</time>
      </trkpt>
      <trkpt lat="44.84973" lon="4.50851">
        <ele>893.6</ele>
        <time>2020-05-22T11:16:17.000Z</time>
      </trkpt>
      <trkpt lat="44.84988" lon="4.50865">
        <ele>892.8</ele>
        <time>2020-05-22T11:16:19.000Z</time>
      </trkpt>
      <trkpt lat="44.85001" lon="4.50881">
        <ele>892</ele>
        <time>2020-05-22T11:16:21.000Z</time>
      </trkpt>
      <trkpt lat="44.85011" lon="4.50898">
        <ele>891.3</ele>
        <time>2020-05-22T11:16:23.000Z</time>
      </trkpt>
      <trkpt lat="44.85021" lon="4.50917">
        <ele>890.5</ele>
        <time>2020-05-22T11:16:25.000Z</time>
      </trkpt>
      <trkpt lat="44.85031" lon="4.50934">
        <ele>889.7</ele>
        <time>2020-05-22T11:16:27.000Z</time>
      </trkpt>
      <trkpt lat="44.85043" lon="4.50947">
        <ele>888.9</ele>
        <time>2020-05-22T11:16:29.000Z</time>
      </trkpt>
      <trkpt lat="44.85054" lon="4.50961">
        <ele>888.2</ele>
        <time>2020-05-22T11:16:31.000Z</time>
      </trkpt>
      <trkpt lat="44.85063" lon="4.50977">
        <ele>887.3</ele>
        <time>2020-05-22T11:16:33.000Z</time>
      </trkpt>
      <trkpt lat="44.85071" lon="4.50995">
        <ele>886.6</ele>
        <time>2020-05-22T11:16:35.000Z</time>
      </trkpt>
      <trkpt lat="44.85078" lon="4.51014">
        <ele>885.8</ele>
        <time>2020-05-22T11:16:37.000Z</time>
      </trkpt>
      <trkpt lat="44.85075" lon="4.51036">
        <ele>885.1</ele>
        <time>2020-05-22T11:16:39.000Z</time>
      </trkpt>
      <trkpt lat="44.85068" lon="4.51057">
        <ele>884.3</ele>
        <time>2020-05-22T11:16:41.000Z</time>
      </trkpt>
      <trkpt lat="44.8506" lon="4.51079">
        <ele>883.5</ele>
        <time>2020-05-22T11:16:43.000Z</time>
      </trkpt>
      <trkpt lat="44.8505" lon="4.51098">
        <ele>882.4</ele>
        <time>2020-05-22T11:16:45.000Z</time>
      </trkpt>
      <trkpt lat="44.85042" lon="4.51106">
        <ele>881.9</ele>
        <time>2020-05-22T11:16:46.000Z</time>
      </trkpt>
      <trkpt lat="44.85034" lon="4.51114">
        <ele>881.4</ele>
        <time>2020-05-22T11:16:47.000Z</time>
      </trkpt>
      <trkpt lat="44.85026" lon="4.51122">
        <ele>880.9</ele>
        <time>2020-05-22T11:16:48.000Z</time>
      </trkpt>
      <trkpt lat="44.85019" lon="4.51131">
        <ele>880.4</ele>
        <time>2020-05-22T11:16:49.000Z</time>
      </trkpt>
      <trkpt lat="44.85013" lon="4.5114">
        <ele>879.9</ele>
        <time>2020-05-22T11:16:50.000Z</time>
      </trkpt>
      <trkpt lat="44.85001" lon="4.51158">
        <ele>878.8</ele>
        <time>2020-05-22T11:16:52.000Z</time>
      </trkpt>
      <trkpt lat="44.84991" lon="4.51175">
        <ele>877.6</ele>
        <time>2020-05-22T11:16:54.000Z</time>
      </trkpt>
      <trkpt lat="44.84979" lon="4.51189">
        <ele>876.2</ele>
        <time>2020-05-22T11:16:56.000Z</time>
      </trkpt>
      <trkpt lat="44.84964" lon="4.512">
        <ele>874.7</ele>
        <time>2020-05-22T11:16:58.000Z</time>
      </trkpt>
      <trkpt lat="44.84948" lon="4.5121">
        <ele>873.3</ele>
        <time>2020-05-22T11:17:00.000Z</time>
      </trkpt>
      <trkpt lat="44.84931" lon="4.51217">
        <ele>872.1</ele>
        <time>2020-05-22T11:17:02.000Z</time>
      </trkpt>
      <trkpt lat="44.84915" lon="4.51225">
        <ele>870.9</ele>
        <time>2020-05-22T11:17:04.000Z</time>
      </trkpt>
      <trkpt lat="44.84898" lon="4.51234">
        <ele>869.7</ele>
        <time>2020-05-22T11:17:06.000Z</time>
      </trkpt>
      <trkpt lat="44.84889" lon="4.51237">
        <ele>869.1</ele>
        <time>2020-05-22T11:17:07.000Z</time>
      </trkpt>
      <trkpt lat="44.8488" lon="4.51239">
        <ele>868.5</ele>
        <time>2020-05-22T11:17:08.000Z</time>
      </trkpt>
      <trkpt lat="44.84871" lon="4.51241">
        <ele>867.8</ele>
        <time>2020-05-22T11:17:09.000Z</time>
      </trkpt>
      <trkpt lat="44.84854" lon="4.51241">
        <ele>866.7</ele>
        <time>2020-05-22T11:17:11.000Z</time>
      </trkpt>
      <trkpt lat="44.84839" lon="4.51234">
        <ele>865.5</ele>
        <time>2020-05-22T11:17:13.000Z</time>
      </trkpt>
      <trkpt lat="44.84826" lon="4.51226">
        <ele>864.2</ele>
        <time>2020-05-22T11:17:15.000Z</time>
      </trkpt>
      <trkpt lat="44.84812" lon="4.51221">
        <ele>863</ele>
        <time>2020-05-22T11:17:17.000Z</time>
      </trkpt>
      <trkpt lat="44.84798" lon="4.51222">
        <ele>862</ele>
        <time>2020-05-22T11:17:19.000Z</time>
      </trkpt>
      <trkpt lat="44.84782" lon="4.51229">
        <ele>861.2</ele>
        <time>2020-05-22T11:17:21.000Z</time>
      </trkpt>
      <trkpt lat="44.84766" lon="4.5124">
        <ele>860.2</ele>
        <time>2020-05-22T11:17:23.000Z</time>
      </trkpt>
      <trkpt lat="44.84757" lon="4.51246">
        <ele>859.8</ele>
        <time>2020-05-22T11:17:24.000Z</time>
      </trkpt>
      <trkpt lat="44.84748" lon="4.51253">
        <ele>859.3</ele>
        <time>2020-05-22T11:17:25.000Z</time>
      </trkpt>
      <trkpt lat="44.84739" lon="4.5126">
        <ele>858.7</ele>
        <time>2020-05-22T11:17:26.000Z</time>
      </trkpt>
      <trkpt lat="44.84725" lon="4.51273">
        <ele>857.6</ele>
        <time>2020-05-22T11:17:28.000Z</time>
      </trkpt>
      <trkpt lat="44.84715" lon="4.51288">
        <ele>855.8</ele>
        <time>2020-05-22T11:17:30.000Z</time>
      </trkpt>
      <trkpt lat="44.84715" lon="4.51308">
        <ele>854.4</ele>
        <time>2020-05-22T11:17:32.000Z</time>
      </trkpt>
      <trkpt lat="44.84721" lon="4.51325">
        <ele>853.2</ele>
        <time>2020-05-22T11:17:34.000Z</time>
      </trkpt>
      <trkpt lat="44.84732" lon="4.51339">
        <ele>852.3</ele>
        <time>2020-05-22T11:17:36.000Z</time>
      </trkpt>
      <trkpt lat="44.84748" lon="4.51351">
        <ele>851.2</ele>
        <time>2020-05-22T11:17:38.000Z</time>
      </trkpt>
      <trkpt lat="44.8476" lon="4.51363">
        <ele>850</ele>
        <time>2020-05-22T11:17:40.000Z</time>
      </trkpt>
      <trkpt lat="44.84764" lon="4.51382">
        <ele>848.8</ele>
        <time>2020-05-22T11:17:42.000Z</time>
      </trkpt>
      <trkpt lat="44.84761" lon="4.51404">
        <ele>847.6</ele>
        <time>2020-05-22T11:17:44.000Z</time>
      </trkpt>
      <trkpt lat="44.84762" lon="4.51426">
        <ele>846.3</ele>
        <time>2020-05-22T11:17:46.000Z</time>
      </trkpt>
      <trkpt lat="44.84765" lon="4.51449">
        <ele>845</ele>
        <time>2020-05-22T11:17:48.000Z</time>
      </trkpt>
      <trkpt lat="44.84767" lon="4.51462">
        <ele>844.3</ele>
        <time>2020-05-22T11:17:49.000Z</time>
      </trkpt>
      <trkpt lat="44.84769" lon="4.51475">
        <ele>843.6</ele>
        <time>2020-05-22T11:17:50.000Z</time>
      </trkpt>
      <trkpt lat="44.84771" lon="4.51488">
        <ele>842.9</ele>
        <time>2020-05-22T11:17:51.000Z</time>
      </trkpt>
      <trkpt lat="44.84775" lon="4.51501">
        <ele>842.2</ele>
        <time>2020-05-22T11:17:52.000Z</time>
      </trkpt>
      <trkpt lat="44.84778" lon="4.51512">
        <ele>841.6</ele>
        <time>2020-05-22T11:17:53.000Z</time>
      </trkpt>
      <trkpt lat="44.84784" lon="4.51524">
        <ele>841</ele>
        <time>2020-05-22T11:17:54.000Z</time>
      </trkpt>
      <trkpt lat="44.8479" lon="4.51534">
        <ele>840.4</ele>
        <time>2020-05-22T11:17:55.000Z</time>
      </trkpt>
      <trkpt lat="44.84803" lon="4.51548">
        <ele>839.2</ele>
        <time>2020-05-22T11:17:57.000Z</time>
      </trkpt>
      <trkpt lat="44.84818" lon="4.51556">
        <ele>837.8</ele>
        <time>2020-05-22T11:17:59.000Z</time>
      </trkpt>
      <trkpt lat="44.84827" lon="4.51561">
        <ele>837.1</ele>
        <time>2020-05-22T11:18:00.000Z</time>
      </trkpt>
      <trkpt lat="44.84838" lon="4.51578">
        <ele>835.7</ele>
        <time>2020-05-22T11:18:02.000Z</time>
      </trkpt>
      <trkpt lat="44.84843" lon="4.51601">
        <ele>834.4</ele>
        <time>2020-05-22T11:18:04.000Z</time>
      </trkpt>
      <trkpt lat="44.84844" lon="4.51614">
        <ele>833.8</ele>
        <time>2020-05-22T11:18:05.000Z</time>
      </trkpt>
      <trkpt lat="44.84844" lon="4.51626">
        <ele>833.2</ele>
        <time>2020-05-22T11:18:06.000Z</time>
      </trkpt>
      <trkpt lat="44.84842" lon="4.5165">
        <ele>831.9</ele>
        <time>2020-05-22T11:18:08.000Z</time>
      </trkpt>
      <trkpt lat="44.84839" lon="4.51672">
        <ele>830.7</ele>
        <time>2020-05-22T11:18:10.000Z</time>
      </trkpt>
      <trkpt lat="44.84835" lon="4.51694">
        <ele>829.2</ele>
        <time>2020-05-22T11:18:12.000Z</time>
      </trkpt>
      <trkpt lat="44.84831" lon="4.51714">
        <ele>827.7</ele>
        <time>2020-05-22T11:18:14.000Z</time>
      </trkpt>
      <trkpt lat="44.84822" lon="4.51733">
        <ele>826</ele>
        <time>2020-05-22T11:18:16.000Z</time>
      </trkpt>
      <trkpt lat="44.84812" lon="4.51751">
        <ele>824.6</ele>
        <time>2020-05-22T11:18:18.000Z</time>
      </trkpt>
      <trkpt lat="44.84801" lon="4.51771">
        <ele>823.5</ele>
        <time>2020-05-22T11:18:20.000Z</time>
      </trkpt>
      <trkpt lat="44.8479" lon="4.51789">
        <ele>822.5</ele>
        <time>2020-05-22T11:18:22.000Z</time>
      </trkpt>
      <trkpt lat="44.84779" lon="4.51807">
        <ele>821.4</ele>
        <time>2020-05-22T11:18:24.000Z</time>
      </trkpt>
      <trkpt lat="44.84772" lon="4.51825">
        <ele>820</ele>
        <time>2020-05-22T11:18:26.000Z</time>
      </trkpt>
      <trkpt lat="44.84772" lon="4.51846">
        <ele>818.7</ele>
        <time>2020-05-22T11:18:28.000Z</time>
      </trkpt>
      <trkpt lat="44.84777" lon="4.51866">
        <ele>817.3</ele>
        <time>2020-05-22T11:18:30.000Z</time>
      </trkpt>
      <trkpt lat="44.84785" lon="4.51888">
        <ele>816</ele>
        <time>2020-05-22T11:18:32.000Z</time>
      </trkpt>
      <trkpt lat="44.84789" lon="4.51899">
        <ele>815.4</ele>
        <time>2020-05-22T11:18:33.000Z</time>
      </trkpt>
      <trkpt lat="44.84793" lon="4.5191">
        <ele>814.8</ele>
        <time>2020-05-22T11:18:34.000Z</time>
      </trkpt>
      <trkpt lat="44.848" lon="4.51931">
        <ele>813.5</ele>
        <time>2020-05-22T11:18:36.000Z</time>
      </trkpt>
      <trkpt lat="44.84806" lon="4.51953">
        <ele>812.3</ele>
        <time>2020-05-22T11:18:38.000Z</time>
      </trkpt>
      <trkpt lat="44.84813" lon="4.51974">
        <ele>811</ele>
        <time>2020-05-22T11:18:40.000Z</time>
      </trkpt>
      <trkpt lat="44.84822" lon="4.51991">
        <ele>809.6</ele>
        <time>2020-05-22T11:18:42.000Z</time>
      </trkpt>
      <trkpt lat="44.84834" lon="4.52004">
        <ele>808.2</ele>
        <time>2020-05-22T11:18:44.000Z</time>
      </trkpt>
      <trkpt lat="44.84849" lon="4.52013">
        <ele>806.8</ele>
        <time>2020-05-22T11:18:46.000Z</time>
      </trkpt>
      <trkpt lat="44.84864" lon="4.52026">
        <ele>805.8</ele>
        <time>2020-05-22T11:18:48.000Z</time>
      </trkpt>
      <trkpt lat="44.84876" lon="4.52042">
        <ele>804.6</ele>
        <time>2020-05-22T11:18:50.000Z</time>
      </trkpt>
      <trkpt lat="44.84887" lon="4.5206">
        <ele>803.4</ele>
        <time>2020-05-22T11:18:52.000Z</time>
      </trkpt>
      <trkpt lat="44.84891" lon="4.52083">
        <ele>802.3</ele>
        <time>2020-05-22T11:18:54.000Z</time>
      </trkpt>
      <trkpt lat="44.84891" lon="4.52096">
        <ele>801.8</ele>
        <time>2020-05-22T11:18:55.000Z</time>
      </trkpt>
      <trkpt lat="44.8489" lon="4.52108">
        <ele>801.3</ele>
        <time>2020-05-22T11:18:56.000Z</time>
      </trkpt>
      <trkpt lat="44.84891" lon="4.5213">
        <ele>800.1</ele>
        <time>2020-05-22T11:18:58.000Z</time>
      </trkpt>
      <trkpt lat="44.84898" lon="4.52149">
        <ele>798.6</ele>
        <time>2020-05-22T11:19:00.000Z</time>
      </trkpt>
      <trkpt lat="44.84908" lon="4.52167">
        <ele>797.1</ele>
        <time>2020-05-22T11:19:02.000Z</time>
      </trkpt>
      <trkpt lat="44.84919" lon="4.52182">
        <ele>795.6</ele>
        <time>2020-05-22T11:19:04.000Z</time>
      </trkpt>
      <trkpt lat="44.84924" lon="4.52197">
        <ele>794.2</ele>
        <time>2020-05-22T11:19:06.000Z</time>
      </trkpt>
      <trkpt lat="44.84918" lon="4.5221">
        <ele>792.9</ele>
        <time>2020-05-22T11:19:08.000Z</time>
      </trkpt>
      <trkpt lat="44.84906" lon="4.52214">
        <ele>791.6</ele>
        <time>2020-05-22T11:19:10.000Z</time>
      </trkpt>
      <trkpt lat="44.84891" lon="4.52215">
        <ele>790.5</ele>
        <time>2020-05-22T11:19:12.000Z</time>
      </trkpt>
      <trkpt lat="44.84878" lon="4.5222">
        <ele>789.4</ele>
        <time>2020-05-22T11:19:14.000Z</time>
      </trkpt>
      <trkpt lat="44.8487" lon="4.52234">
        <ele>788.2</ele>
        <time>2020-05-22T11:19:16.000Z</time>
      </trkpt>
      <trkpt lat="44.84869" lon="4.52254">
        <ele>786.9</ele>
        <time>2020-05-22T11:19:18.000Z</time>
      </trkpt>
      <trkpt lat="44.84873" lon="4.52275">
        <ele>785.6</ele>
        <time>2020-05-22T11:19:20.000Z</time>
      </trkpt>
      <trkpt lat="44.84876" lon="4.52297">
        <ele>784.4</ele>
        <time>2020-05-22T11:19:22.000Z</time>
      </trkpt>
      <trkpt lat="44.84874" lon="4.52321">
        <ele>783.3</ele>
        <time>2020-05-22T11:19:24.000Z</time>
      </trkpt>
      <trkpt lat="44.8487" lon="4.52345">
        <ele>782.3</ele>
        <time>2020-05-22T11:19:26.000Z</time>
      </trkpt>
      <trkpt lat="44.84868" lon="4.52368">
        <ele>781.4</ele>
        <time>2020-05-22T11:19:28.000Z</time>
      </trkpt>
      <trkpt lat="44.84866" lon="4.52391">
        <ele>780.3</ele>
        <time>2020-05-22T11:19:30.000Z</time>
      </trkpt>
      <trkpt lat="44.84863" lon="4.52413">
        <ele>779</ele>
        <time>2020-05-22T11:19:32.000Z</time>
      </trkpt>
      <trkpt lat="44.84861" lon="4.52435">
        <ele>777.9</ele>
        <time>2020-05-22T11:19:34.000Z</time>
      </trkpt>
      <trkpt lat="44.84859" lon="4.52459">
        <ele>776.9</ele>
        <time>2020-05-22T11:19:36.000Z</time>
      </trkpt>
      <trkpt lat="44.84858" lon="4.5248">
        <ele>775.8</ele>
        <time>2020-05-22T11:19:38.000Z</time>
      </trkpt>
      <trkpt lat="44.84858" lon="4.52501">
        <ele>774.8</ele>
        <time>2020-05-22T11:19:40.000Z</time>
      </trkpt>
      <trkpt lat="44.8486" lon="4.52519">
        <ele>773.7</ele>
        <time>2020-05-22T11:19:42.000Z</time>
      </trkpt>
      <trkpt lat="44.84855" lon="4.52531">
        <ele>771.9</ele>
        <time>2020-05-22T11:19:45.000Z</time>
      </trkpt>
      <trkpt lat="44.84849" lon="4.52521">
        <ele>770.1</ele>
        <time>2020-05-22T11:19:48.000Z</time>
      </trkpt>
      <trkpt lat="44.84847" lon="4.52503">
        <ele>768.5</ele>
        <time>2020-05-22T11:19:51.000Z</time>
      </trkpt>
      <trkpt lat="44.84844" lon="4.5249">
        <ele>767.7</ele>
        <time>2020-05-22T11:19:53.000Z</time>
      </trkpt>
      <trkpt lat="44.84841" lon="4.52477">
        <ele>766.9</ele>
        <time>2020-05-22T11:19:55.000Z</time>
      </trkpt>
      <trkpt lat="44.84838" lon="4.52463">
        <ele>766.3</ele>
        <time>2020-05-22T11:19:57.000Z</time>
      </trkpt>
      <trkpt lat="44.84835" lon="4.5245">
        <ele>765.8</ele>
        <time>2020-05-22T11:19:59.000Z</time>
      </trkpt>
      <trkpt lat="44.84832" lon="4.52436">
        <ele>765.5</ele>
        <time>2020-05-22T11:20:01.000Z</time>
      </trkpt>
      <trkpt lat="44.84828" lon="4.52423">
        <ele>765.2</ele>
        <time>2020-05-22T11:20:03.000Z</time>
      </trkpt>
      <trkpt lat="44.84824" lon="4.52406">
        <ele>765</ele>
        <time>2020-05-22T11:20:06.000Z</time>
      </trkpt>
      <trkpt lat="44.8482" lon="4.52389">
        <ele>764.7</ele>
        <time>2020-05-22T11:20:09.000Z</time>
      </trkpt>
      <trkpt lat="44.84818" lon="4.52377">
        <ele>765</ele>
        <time>2020-05-22T11:20:11.000Z</time>
      </trkpt>
      <trkpt lat="44.84816" lon="4.52363">
        <ele>765.1</ele>
        <time>2020-05-22T11:20:13.000Z</time>
      </trkpt>
      <trkpt lat="44.84814" lon="4.52348">
        <ele>765.1</ele>
        <time>2020-05-22T11:20:15.000Z</time>
      </trkpt>
      <trkpt lat="44.84811" lon="4.52333">
        <ele>765</ele>
        <time>2020-05-22T11:20:17.000Z</time>
      </trkpt>
      <trkpt lat="44.84807" lon="4.52318">
        <ele>764.5</ele>
        <time>2020-05-22T11:20:20.000Z</time>
      </trkpt>
      <trkpt lat="44.84796" lon="4.52318">
        <ele>764.1</ele>
        <time>2020-05-22T11:20:23.000Z</time>
      </trkpt>
      <trkpt lat="44.84784" lon="4.52326">
        <ele>763.6</ele>
        <time>2020-05-22T11:20:26.000Z</time>
      </trkpt>
      <trkpt lat="44.84774" lon="4.5233">
        <ele>763.2</ele>
        <time>2020-05-22T11:20:28.000Z</time>
      </trkpt>
      <trkpt lat="44.84764" lon="4.52334">
        <ele>762.7</ele>
        <time>2020-05-22T11:20:30.000Z</time>
      </trkpt>
      <trkpt lat="44.84754" lon="4.52338">
        <ele>762.4</ele>
        <time>2020-05-22T11:20:32.000Z</time>
      </trkpt>
      <trkpt lat="44.84744" lon="4.52342">
        <ele>762.2</ele>
        <time>2020-05-22T11:20:34.000Z</time>
      </trkpt>
      <trkpt lat="44.84735" lon="4.52344">
        <ele>761.8</ele>
        <time>2020-05-22T11:20:36.000Z</time>
      </trkpt>
      <trkpt lat="44.84725" lon="4.52348">
        <ele>761.1</ele>
        <time>2020-05-22T11:20:39.000Z</time>
      </trkpt>
      <trkpt lat="44.84713" lon="4.52348">
        <ele>760.5</ele>
        <time>2020-05-22T11:20:42.000Z</time>
      </trkpt>
      <trkpt lat="44.84704" lon="4.52345">
        <ele>759.3</ele>
        <time>2020-05-22T11:20:47.000Z</time>
      </trkpt>
      <trkpt lat="44.84704" lon="4.52346">
        <ele>758</ele>
        <time>2020-05-22T11:20:53.000Z</time>
      </trkpt>
      <trkpt lat="44.84695" lon="4.52335">
        <ele>757</ele>
        <time>2020-05-22T11:21:10.000Z</time>
      </trkpt>
      <trkpt lat="44.84687" lon="4.5232">
        <ele>756.9</ele>
        <time>2020-05-22T11:21:13.000Z</time>
      </trkpt>
      <trkpt lat="44.84682" lon="4.52308">
        <ele>756.7</ele>
        <time>2020-05-22T11:21:15.000Z</time>
      </trkpt>
      <trkpt lat="44.84677" lon="4.52295">
        <ele>756.6</ele>
        <time>2020-05-22T11:21:17.000Z</time>
      </trkpt>
      <trkpt lat="44.84669" lon="4.52278">
        <ele>756.2</ele>
        <time>2020-05-22T11:21:20.000Z</time>
      </trkpt>
      <trkpt lat="44.84664" lon="4.52262">
        <ele>756</ele>
        <time>2020-05-22T11:21:22.000Z</time>
      </trkpt>
      <trkpt lat="44.84662" lon="4.52245">
        <ele>755.5</ele>
        <time>2020-05-22T11:21:24.000Z</time>
      </trkpt>
      <trkpt lat="44.84659" lon="4.52228">
        <ele>755.1</ele>
        <time>2020-05-22T11:21:26.000Z</time>
      </trkpt>
      <trkpt lat="44.84657" lon="4.5221">
        <ele>754.6</ele>
        <time>2020-05-22T11:21:28.000Z</time>
      </trkpt>
      <trkpt lat="44.84655" lon="4.52193">
        <ele>754.1</ele>
        <time>2020-05-22T11:21:30.000Z</time>
      </trkpt>
      <trkpt lat="44.84653" lon="4.52175">
        <ele>753.8</ele>
        <time>2020-05-22T11:21:32.000Z</time>
      </trkpt>
      <trkpt lat="44.84651" lon="4.52158">
        <ele>753.5</ele>
        <time>2020-05-22T11:21:34.000Z</time>
      </trkpt>
      <trkpt lat="44.84648" lon="4.52141">
        <ele>753.2</ele>
        <time>2020-05-22T11:21:36.000Z</time>
      </trkpt>
      <trkpt lat="44.84646" lon="4.52125">
        <ele>753</ele>
        <time>2020-05-22T11:21:38.000Z</time>
      </trkpt>
      <trkpt lat="44.84644" lon="4.52109">
        <ele>752.9</ele>
        <time>2020-05-22T11:21:40.000Z</time>
      </trkpt>
      <trkpt lat="44.84642" lon="4.52094">
        <ele>752.8</ele>
        <time>2020-05-22T11:21:42.000Z</time>
      </trkpt>
      <trkpt lat="44.84639" lon="4.52078">
        <ele>752.6</ele>
        <time>2020-05-22T11:21:44.000Z</time>
      </trkpt>
      <trkpt lat="44.84635" lon="4.52062">
        <ele>752.3</ele>
        <time>2020-05-22T11:21:46.000Z</time>
      </trkpt>
      <trkpt lat="44.84628" lon="4.52047">
        <ele>752.2</ele>
        <time>2020-05-22T11:21:48.000Z</time>
      </trkpt>
      <trkpt lat="44.84621" lon="4.52035">
        <ele>751.9</ele>
        <time>2020-05-22T11:21:50.000Z</time>
      </trkpt>
      <trkpt lat="44.84612" lon="4.52022">
        <ele>751.7</ele>
        <time>2020-05-22T11:21:52.000Z</time>
      </trkpt>
      <trkpt lat="44.84605" lon="4.5201">
        <ele>751.6</ele>
        <time>2020-05-22T11:21:54.000Z</time>
      </trkpt>
      <trkpt lat="44.84597" lon="4.51997">
        <ele>751.5</ele>
        <time>2020-05-22T11:21:56.000Z</time>
      </trkpt>
      <trkpt lat="44.8459" lon="4.51985">
        <ele>751.5</ele>
        <time>2020-05-22T11:21:58.000Z</time>
      </trkpt>
      <trkpt lat="44.84582" lon="4.51971">
        <ele>751.4</ele>
        <time>2020-05-22T11:22:00.000Z</time>
      </trkpt>
      <trkpt lat="44.84574" lon="4.51956">
        <ele>751.3</ele>
        <time>2020-05-22T11:22:02.000Z</time>
      </trkpt>
      <trkpt lat="44.84567" lon="4.51939">
        <ele>751.1</ele>
        <time>2020-05-22T11:22:04.000Z</time>
      </trkpt>
      <trkpt lat="44.84562" lon="4.51922">
        <ele>750.7</ele>
        <time>2020-05-22T11:22:06.000Z</time>
      </trkpt>
      <trkpt lat="44.84555" lon="4.51904">
        <ele>749.3</ele>
        <time>2020-05-22T11:22:08.000Z</time>
      </trkpt>
      <trkpt lat="44.84547" lon="4.51888">
        <ele>749.2</ele>
        <time>2020-05-22T11:22:10.000Z</time>
      </trkpt>
      <trkpt lat="44.84537" lon="4.51874">
        <ele>749.1</ele>
        <time>2020-05-22T11:22:12.000Z</time>
      </trkpt>
      <trkpt lat="44.84526" lon="4.51863">
        <ele>748.9</ele>
        <time>2020-05-22T11:22:14.000Z</time>
      </trkpt>
      <trkpt lat="44.84516" lon="4.51852">
        <ele>748.7</ele>
        <time>2020-05-22T11:22:16.000Z</time>
      </trkpt>
      <trkpt lat="44.84505" lon="4.5184">
        <ele>748.4</ele>
        <time>2020-05-22T11:22:18.000Z</time>
      </trkpt>
      <trkpt lat="44.84494" lon="4.51828">
        <ele>748.2</ele>
        <time>2020-05-22T11:22:20.000Z</time>
      </trkpt>
      <trkpt lat="44.84482" lon="4.51815">
        <ele>748</ele>
        <time>2020-05-22T11:22:22.000Z</time>
      </trkpt>
      <trkpt lat="44.84471" lon="4.51803">
        <ele>747.6</ele>
        <time>2020-05-22T11:22:24.000Z</time>
      </trkpt>
      <trkpt lat="44.84459" lon="4.5179">
        <ele>747.3</ele>
        <time>2020-05-22T11:22:26.000Z</time>
      </trkpt>
      <trkpt lat="44.84446" lon="4.51781">
        <ele>746.8</ele>
        <time>2020-05-22T11:22:28.000Z</time>
      </trkpt>
      <trkpt lat="44.84432" lon="4.51775">
        <ele>746.2</ele>
        <time>2020-05-22T11:22:30.000Z</time>
      </trkpt>
      <trkpt lat="44.84417" lon="4.51773">
        <ele>745.7</ele>
        <time>2020-05-22T11:22:32.000Z</time>
      </trkpt>
      <trkpt lat="44.84402" lon="4.5177">
        <ele>745.3</ele>
        <time>2020-05-22T11:22:34.000Z</time>
      </trkpt>
      <trkpt lat="44.84387" lon="4.51767">
        <ele>745</ele>
        <time>2020-05-22T11:22:36.000Z</time>
      </trkpt>
      <trkpt lat="44.84373" lon="4.51763">
        <ele>744.6</ele>
        <time>2020-05-22T11:22:38.000Z</time>
      </trkpt>
      <trkpt lat="44.84359" lon="4.51759">
        <ele>744.3</ele>
        <time>2020-05-22T11:22:40.000Z</time>
      </trkpt>
      <trkpt lat="44.84346" lon="4.51756">
        <ele>744</ele>
        <time>2020-05-22T11:22:42.000Z</time>
      </trkpt>
      <trkpt lat="44.84332" lon="4.51753">
        <ele>743.7</ele>
        <time>2020-05-22T11:22:44.000Z</time>
      </trkpt>
      <trkpt lat="44.84319" lon="4.51753">
        <ele>743.5</ele>
        <time>2020-05-22T11:22:46.000Z</time>
      </trkpt>
      <trkpt lat="44.84305" lon="4.51757">
        <ele>743.2</ele>
        <time>2020-05-22T11:22:48.000Z</time>
      </trkpt>
      <trkpt lat="44.84292" lon="4.51767">
        <ele>742.9</ele>
        <time>2020-05-22T11:22:50.000Z</time>
      </trkpt>
      <trkpt lat="44.84281" lon="4.51781">
        <ele>742.6</ele>
        <time>2020-05-22T11:22:52.000Z</time>
      </trkpt>
      <trkpt lat="44.84272" lon="4.51797">
        <ele>742.1</ele>
        <time>2020-05-22T11:22:54.000Z</time>
      </trkpt>
      <trkpt lat="44.84267" lon="4.51814">
        <ele>741.6</ele>
        <time>2020-05-22T11:22:56.000Z</time>
      </trkpt>
      <trkpt lat="44.84265" lon="4.51833">
        <ele>741.1</ele>
        <time>2020-05-22T11:22:58.000Z</time>
      </trkpt>
      <trkpt lat="44.84262" lon="4.51852">
        <ele>740.5</ele>
        <time>2020-05-22T11:23:00.000Z</time>
      </trkpt>
      <trkpt lat="44.84261" lon="4.51871">
        <ele>740.1</ele>
        <time>2020-05-22T11:23:02.000Z</time>
      </trkpt>
      <trkpt lat="44.84259" lon="4.5189">
        <ele>739.8</ele>
        <time>2020-05-22T11:23:04.000Z</time>
      </trkpt>
      <trkpt lat="44.84255" lon="4.51909">
        <ele>739.5</ele>
        <time>2020-05-22T11:23:06.000Z</time>
      </trkpt>
      <trkpt lat="44.84245" lon="4.51925">
        <ele>739.2</ele>
        <time>2020-05-22T11:23:08.000Z</time>
      </trkpt>
      <trkpt lat="44.84232" lon="4.51937">
        <ele>739</ele>
        <time>2020-05-22T11:23:10.000Z</time>
      </trkpt>
      <trkpt lat="44.84218" lon="4.51946">
        <ele>738.9</ele>
        <time>2020-05-22T11:23:12.000Z</time>
      </trkpt>
      <trkpt lat="44.84204" lon="4.51957">
        <ele>738.8</ele>
        <time>2020-05-22T11:23:14.000Z</time>
      </trkpt>
      <trkpt lat="44.84191" lon="4.51968">
        <ele>738.6</ele>
        <time>2020-05-22T11:23:16.000Z</time>
      </trkpt>
      <trkpt lat="44.84177" lon="4.5198">
        <ele>738.3</ele>
        <time>2020-05-22T11:23:18.000Z</time>
      </trkpt>
      <trkpt lat="44.84165" lon="4.51993">
        <ele>738.1</ele>
        <time>2020-05-22T11:23:20.000Z</time>
      </trkpt>
      <trkpt lat="44.84152" lon="4.52006">
        <ele>737.7</ele>
        <time>2020-05-22T11:23:22.000Z</time>
      </trkpt>
      <trkpt lat="44.84138" lon="4.52018">
        <ele>737.4</ele>
        <time>2020-05-22T11:23:24.000Z</time>
      </trkpt>
      <trkpt lat="44.84124" lon="4.52028">
        <ele>737.2</ele>
        <time>2020-05-22T11:23:26.000Z</time>
      </trkpt>
      <trkpt lat="44.84107" lon="4.52038">
        <ele>736.9</ele>
        <time>2020-05-22T11:23:28.000Z</time>
      </trkpt>
      <trkpt lat="44.84099" lon="4.52043">
        <ele>736.7</ele>
        <time>2020-05-22T11:23:29.000Z</time>
      </trkpt>
      <trkpt lat="44.8409" lon="4.52048">
        <ele>736.4</ele>
        <time>2020-05-22T11:23:30.000Z</time>
      </trkpt>
      <trkpt lat="44.84082" lon="4.52054">
        <ele>736.2</ele>
        <time>2020-05-22T11:23:31.000Z</time>
      </trkpt>
      <trkpt lat="44.84074" lon="4.52062">
        <ele>736</ele>
        <time>2020-05-22T11:23:32.000Z</time>
      </trkpt>
      <trkpt lat="44.84067" lon="4.5207">
        <ele>735.7</ele>
        <time>2020-05-22T11:23:33.000Z</time>
      </trkpt>
      <trkpt lat="44.84061" lon="4.5208">
        <ele>735.4</ele>
        <time>2020-05-22T11:23:34.000Z</time>
      </trkpt>
      <trkpt lat="44.8405" lon="4.52099">
        <ele>734.7</ele>
        <time>2020-05-22T11:23:36.000Z</time>
      </trkpt>
      <trkpt lat="44.84035" lon="4.52111">
        <ele>734.1</ele>
        <time>2020-05-22T11:23:38.000Z</time>
      </trkpt>
      <trkpt lat="44.84019" lon="4.5212">
        <ele>733.5</ele>
        <time>2020-05-22T11:23:40.000Z</time>
      </trkpt>
      <trkpt lat="44.8401" lon="4.52125">
        <ele>733.2</ele>
        <time>2020-05-22T11:23:41.000Z</time>
      </trkpt>
      <trkpt lat="44.84001" lon="4.52129">
        <ele>732.9</ele>
        <time>2020-05-22T11:23:42.000Z</time>
      </trkpt>
      <trkpt lat="44.8399" lon="4.52135">
        <ele>732.6</ele>
        <time>2020-05-22T11:23:43.000Z</time>
      </trkpt>
      <trkpt lat="44.8398" lon="4.52138">
        <ele>732.3</ele>
        <time>2020-05-22T11:23:44.000Z</time>
      </trkpt>
      <trkpt lat="44.83971" lon="4.52142">
        <ele>732</ele>
        <time>2020-05-22T11:23:45.000Z</time>
      </trkpt>
      <trkpt lat="44.83961" lon="4.52147">
        <ele>731.6</ele>
        <time>2020-05-22T11:23:46.000Z</time>
      </trkpt>
      <trkpt lat="44.83952" lon="4.52152">
        <ele>731.2</ele>
        <time>2020-05-22T11:23:47.000Z</time>
      </trkpt>
      <trkpt lat="44.83944" lon="4.52158">
        <ele>730.9</ele>
        <time>2020-05-22T11:23:48.000Z</time>
      </trkpt>
      <trkpt lat="44.83935" lon="4.52164">
        <ele>730.5</ele>
        <time>2020-05-22T11:23:49.000Z</time>
      </trkpt>
      <trkpt lat="44.83927" lon="4.52171">
        <ele>730.2</ele>
        <time>2020-05-22T11:23:50.000Z</time>
      </trkpt>
      <trkpt lat="44.83919" lon="4.52178">
        <ele>729.9</ele>
        <time>2020-05-22T11:23:51.000Z</time>
      </trkpt>
      <trkpt lat="44.83912" lon="4.52185">
        <ele>729.6</ele>
        <time>2020-05-22T11:23:52.000Z</time>
      </trkpt>
      <trkpt lat="44.83904" lon="4.52192">
        <ele>729.3</ele>
        <time>2020-05-22T11:23:53.000Z</time>
      </trkpt>
      <trkpt lat="44.83896" lon="4.52199">
        <ele>729</ele>
        <time>2020-05-22T11:23:54.000Z</time>
      </trkpt>
      <trkpt lat="44.83889" lon="4.52207">
        <ele>728.6</ele>
        <time>2020-05-22T11:23:55.000Z</time>
      </trkpt>
      <trkpt lat="44.83881" lon="4.52216">
        <ele>728.3</ele>
        <time>2020-05-22T11:23:56.000Z</time>
      </trkpt>
      <trkpt lat="44.83875" lon="4.52225">
        <ele>728</ele>
        <time>2020-05-22T11:23:57.000Z</time>
      </trkpt>
      <trkpt lat="44.83868" lon="4.52235">
        <ele>727.7</ele>
        <time>2020-05-22T11:23:58.000Z</time>
      </trkpt>
      <trkpt lat="44.83862" lon="4.52245">
        <ele>727.4</ele>
        <time>2020-05-22T11:23:59.000Z</time>
      </trkpt>
      <trkpt lat="44.83855" lon="4.52254">
        <ele>727</ele>
        <time>2020-05-22T11:24:00.000Z</time>
      </trkpt>
      <trkpt lat="44.83849" lon="4.52264">
        <ele>726.7</ele>
        <time>2020-05-22T11:24:01.000Z</time>
      </trkpt>
      <trkpt lat="44.83842" lon="4.52273">
        <ele>726.3</ele>
        <time>2020-05-22T11:24:02.000Z</time>
      </trkpt>
      <trkpt lat="44.83835" lon="4.52283">
        <ele>726</ele>
        <time>2020-05-22T11:24:03.000Z</time>
      </trkpt>
      <trkpt lat="44.83829" lon="4.52293">
        <ele>725.7</ele>
        <time>2020-05-22T11:24:04.000Z</time>
      </trkpt>
      <trkpt lat="44.83822" lon="4.52303">
        <ele>725.4</ele>
        <time>2020-05-22T11:24:05.000Z</time>
      </trkpt>
      <trkpt lat="44.83815" lon="4.52313">
        <ele>725</ele>
        <time>2020-05-22T11:24:06.000Z</time>
      </trkpt>
      <trkpt lat="44.83808" lon="4.52322">
        <ele>724.7</ele>
        <time>2020-05-22T11:24:07.000Z</time>
      </trkpt>
      <trkpt lat="44.83801" lon="4.52333">
        <ele>724.3</ele>
        <time>2020-05-22T11:24:08.000Z</time>
      </trkpt>
      <trkpt lat="44.83794" lon="4.52343">
        <ele>723.9</ele>
        <time>2020-05-22T11:24:09.000Z</time>
      </trkpt>
      <trkpt lat="44.83787" lon="4.52352">
        <ele>723.4</ele>
        <time>2020-05-22T11:24:10.000Z</time>
      </trkpt>
      <trkpt lat="44.8378" lon="4.52361">
        <ele>723</ele>
        <time>2020-05-22T11:24:11.000Z</time>
      </trkpt>
      <trkpt lat="44.83773" lon="4.52371">
        <ele>722.7</ele>
        <time>2020-05-22T11:24:12.000Z</time>
      </trkpt>
      <trkpt lat="44.83766" lon="4.52382">
        <ele>722.3</ele>
        <time>2020-05-22T11:24:13.000Z</time>
      </trkpt>
      <trkpt lat="44.83759" lon="4.52392">
        <ele>722</ele>
        <time>2020-05-22T11:24:14.000Z</time>
      </trkpt>
      <trkpt lat="44.83753" lon="4.52403">
        <ele>721.5</ele>
        <time>2020-05-22T11:24:15.000Z</time>
      </trkpt>
      <trkpt lat="44.83746" lon="4.52413">
        <ele>721.1</ele>
        <time>2020-05-22T11:24:16.000Z</time>
      </trkpt>
      <trkpt lat="44.8374" lon="4.52423">
        <ele>720.7</ele>
        <time>2020-05-22T11:24:17.000Z</time>
      </trkpt>
      <trkpt lat="44.83728" lon="4.5244">
        <ele>719.7</ele>
        <time>2020-05-22T11:24:19.000Z</time>
      </trkpt>
      <trkpt lat="44.83716" lon="4.52455">
        <ele>718.6</ele>
        <time>2020-05-22T11:24:21.000Z</time>
      </trkpt>
      <trkpt lat="44.83702" lon="4.52469">
        <ele>717.6</ele>
        <time>2020-05-22T11:24:23.000Z</time>
      </trkpt>
      <trkpt lat="44.83687" lon="4.52484">
        <ele>716.6</ele>
        <time>2020-05-22T11:24:25.000Z</time>
      </trkpt>
      <trkpt lat="44.83679" lon="4.52492">
        <ele>716.1</ele>
        <time>2020-05-22T11:24:26.000Z</time>
      </trkpt>
      <trkpt lat="44.83671" lon="4.52499">
        <ele>715.6</ele>
        <time>2020-05-22T11:24:27.000Z</time>
      </trkpt>
      <trkpt lat="44.83663" lon="4.52506">
        <ele>715.1</ele>
        <time>2020-05-22T11:24:28.000Z</time>
      </trkpt>
      <trkpt lat="44.83655" lon="4.52513">
        <ele>714.6</ele>
        <time>2020-05-22T11:24:29.000Z</time>
      </trkpt>
      <trkpt lat="44.83638" lon="4.52522">
        <ele>713.5</ele>
        <time>2020-05-22T11:24:31.000Z</time>
      </trkpt>
      <trkpt lat="44.83622" lon="4.52532">
        <ele>712.5</ele>
        <time>2020-05-22T11:24:33.000Z</time>
      </trkpt>
      <trkpt lat="44.83607" lon="4.52541">
        <ele>711.5</ele>
        <time>2020-05-22T11:24:35.000Z</time>
      </trkpt>
      <trkpt lat="44.83598" lon="4.52545">
        <ele>710.9</ele>
        <time>2020-05-22T11:24:36.000Z</time>
      </trkpt>
      <trkpt lat="44.83589" lon="4.52548">
        <ele>710.3</ele>
        <time>2020-05-22T11:24:37.000Z</time>
      </trkpt>
      <trkpt lat="44.83579" lon="4.5255">
        <ele>709.6</ele>
        <time>2020-05-22T11:24:38.000Z</time>
      </trkpt>
      <trkpt lat="44.83569" lon="4.52547">
        <ele>708.9</ele>
        <time>2020-05-22T11:24:39.000Z</time>
      </trkpt>
      <trkpt lat="44.8356" lon="4.52542">
        <ele>708.3</ele>
        <time>2020-05-22T11:24:40.000Z</time>
      </trkpt>
      <trkpt lat="44.83552" lon="4.52534">
        <ele>707.6</ele>
        <time>2020-05-22T11:24:41.000Z</time>
      </trkpt>
      <trkpt lat="44.83544" lon="4.52524">
        <ele>706.9</ele>
        <time>2020-05-22T11:24:42.000Z</time>
      </trkpt>
      <trkpt lat="44.83536" lon="4.52515">
        <ele>706.2</ele>
        <time>2020-05-22T11:24:43.000Z</time>
      </trkpt>
      <trkpt lat="44.83528" lon="4.52506">
        <ele>705.4</ele>
        <time>2020-05-22T11:24:44.000Z</time>
      </trkpt>
      <trkpt lat="44.83518" lon="4.52487">
        <ele>703.6</ele>
        <time>2020-05-22T11:24:46.000Z</time>
      </trkpt>
      <trkpt lat="44.83516" lon="4.52463">
        <ele>701.8</ele>
        <time>2020-05-22T11:24:48.000Z</time>
      </trkpt>
      <trkpt lat="44.83515" lon="4.52449">
        <ele>700.7</ele>
        <time>2020-05-22T11:24:49.000Z</time>
      </trkpt>
      <trkpt lat="44.83513" lon="4.52435">
        <ele>699.5</ele>
        <time>2020-05-22T11:24:50.000Z</time>
      </trkpt>
      <trkpt lat="44.83509" lon="4.52422">
        <ele>698.5</ele>
        <time>2020-05-22T11:24:51.000Z</time>
      </trkpt>
      <trkpt lat="44.83503" lon="4.52409">
        <ele>697.6</ele>
        <time>2020-05-22T11:24:52.000Z</time>
      </trkpt>
      <trkpt lat="44.83499" lon="4.52397">
        <ele>696.8</ele>
        <time>2020-05-22T11:24:53.000Z</time>
      </trkpt>
      <trkpt lat="44.83497" lon="4.52373">
        <ele>695.3</ele>
        <time>2020-05-22T11:24:55.000Z</time>
      </trkpt>
      <trkpt lat="44.83499" lon="4.5236">
        <ele>694.4</ele>
        <time>2020-05-22T11:24:56.000Z</time>
      </trkpt>
      <trkpt lat="44.83502" lon="4.52346">
        <ele>693.6</ele>
        <time>2020-05-22T11:24:57.000Z</time>
      </trkpt>
      <trkpt lat="44.83506" lon="4.52332">
        <ele>692.8</ele>
        <time>2020-05-22T11:24:58.000Z</time>
      </trkpt>
      <trkpt lat="44.8351" lon="4.52319">
        <ele>691.9</ele>
        <time>2020-05-22T11:24:59.000Z</time>
      </trkpt>
      <trkpt lat="44.83514" lon="4.52306">
        <ele>691</ele>
        <time>2020-05-22T11:25:00.000Z</time>
      </trkpt>
      <trkpt lat="44.8352" lon="4.52296">
        <ele>690.2</ele>
        <time>2020-05-22T11:25:01.000Z</time>
      </trkpt>
      <trkpt lat="44.83534" lon="4.52283">
        <ele>688.4</ele>
        <time>2020-05-22T11:25:03.000Z</time>
      </trkpt>
      <trkpt lat="44.8355" lon="4.52282">
        <ele>686.5</ele>
        <time>2020-05-22T11:25:05.000Z</time>
      </trkpt>
      <trkpt lat="44.83567" lon="4.5229">
        <ele>684.7</ele>
        <time>2020-05-22T11:25:07.000Z</time>
      </trkpt>
      <trkpt lat="44.83576" lon="4.52294">
        <ele>683.8</ele>
        <time>2020-05-22T11:25:08.000Z</time>
      </trkpt>
      <trkpt lat="44.83593" lon="4.5229">
        <ele>682.1</ele>
        <time>2020-05-22T11:25:10.000Z</time>
      </trkpt>
      <trkpt lat="44.83602" lon="4.52284">
        <ele>681.3</ele>
        <time>2020-05-22T11:25:11.000Z</time>
      </trkpt>
      <trkpt lat="44.8361" lon="4.52276">
        <ele>680.6</ele>
        <time>2020-05-22T11:25:12.000Z</time>
      </trkpt>
      <trkpt lat="44.83619" lon="4.52268">
        <ele>679.9</ele>
        <time>2020-05-22T11:25:13.000Z</time>
      </trkpt>
      <trkpt lat="44.83627" lon="4.52259">
        <ele>679.1</ele>
        <time>2020-05-22T11:25:14.000Z</time>
      </trkpt>
      <trkpt lat="44.83636" lon="4.5225">
        <ele>678.5</ele>
        <time>2020-05-22T11:25:15.000Z</time>
      </trkpt>
      <trkpt lat="44.83644" lon="4.5224">
        <ele>677.8</ele>
        <time>2020-05-22T11:25:16.000Z</time>
      </trkpt>
      <trkpt lat="44.83652" lon="4.52228">
        <ele>677.1</ele>
        <time>2020-05-22T11:25:17.000Z</time>
      </trkpt>
      <trkpt lat="44.83659" lon="4.52216">
        <ele>676.4</ele>
        <time>2020-05-22T11:25:18.000Z</time>
      </trkpt>
      <trkpt lat="44.83666" lon="4.52203">
        <ele>675.7</ele>
        <time>2020-05-22T11:25:19.000Z</time>
      </trkpt>
      <trkpt lat="44.83672" lon="4.5219">
        <ele>674.9</ele>
        <time>2020-05-22T11:25:20.000Z</time>
      </trkpt>
      <trkpt lat="44.83677" lon="4.52177">
        <ele>674.2</ele>
        <time>2020-05-22T11:25:21.000Z</time>
      </trkpt>
      <trkpt lat="44.83681" lon="4.52163">
        <ele>673.4</ele>
        <time>2020-05-22T11:25:22.000Z</time>
      </trkpt>
      <trkpt lat="44.83685" lon="4.5215">
        <ele>672.6</ele>
        <time>2020-05-22T11:25:23.000Z</time>
      </trkpt>
      <trkpt lat="44.8369" lon="4.52136">
        <ele>671.7</ele>
        <time>2020-05-22T11:25:24.000Z</time>
      </trkpt>
      <trkpt lat="44.83695" lon="4.52121">
        <ele>670.9</ele>
        <time>2020-05-22T11:25:25.000Z</time>
      </trkpt>
      <trkpt lat="44.837" lon="4.52106">
        <ele>669.9</ele>
        <time>2020-05-22T11:25:26.000Z</time>
      </trkpt>
      <trkpt lat="44.83705" lon="4.52091">
        <ele>668.9</ele>
        <time>2020-05-22T11:25:27.000Z</time>
      </trkpt>
      <trkpt lat="44.8371" lon="4.52076">
        <ele>667.7</ele>
        <time>2020-05-22T11:25:28.000Z</time>
      </trkpt>
      <trkpt lat="44.83717" lon="4.52063">
        <ele>666.5</ele>
        <time>2020-05-22T11:25:29.000Z</time>
      </trkpt>
      <trkpt lat="44.83724" lon="4.52054">
        <ele>665.3</ele>
        <time>2020-05-22T11:25:30.000Z</time>
      </trkpt>
      <trkpt lat="44.83732" lon="4.52046">
        <ele>664.1</ele>
        <time>2020-05-22T11:25:31.000Z</time>
      </trkpt>
      <trkpt lat="44.83746" lon="4.52034">
        <ele>661.9</ele>
        <time>2020-05-22T11:25:33.000Z</time>
      </trkpt>
      <trkpt lat="44.83755" lon="4.52013">
        <ele>659.8</ele>
        <time>2020-05-22T11:25:35.000Z</time>
      </trkpt>
      <trkpt lat="44.83756" lon="4.52">
        <ele>658.9</ele>
        <time>2020-05-22T11:25:36.000Z</time>
      </trkpt>
      <trkpt lat="44.83756" lon="4.51985">
        <ele>658</ele>
        <time>2020-05-22T11:25:37.000Z</time>
      </trkpt>
      <trkpt lat="44.83756" lon="4.51971">
        <ele>657.1</ele>
        <time>2020-05-22T11:25:38.000Z</time>
      </trkpt>
      <trkpt lat="44.83755" lon="4.51958">
        <ele>656.2</ele>
        <time>2020-05-22T11:25:39.000Z</time>
      </trkpt>
      <trkpt lat="44.83753" lon="4.51932">
        <ele>654.4</ele>
        <time>2020-05-22T11:25:41.000Z</time>
      </trkpt>
      <trkpt lat="44.83751" lon="4.51918">
        <ele>653.6</ele>
        <time>2020-05-22T11:25:42.000Z</time>
      </trkpt>
      <trkpt lat="44.83749" lon="4.51904">
        <ele>652.7</ele>
        <time>2020-05-22T11:25:43.000Z</time>
      </trkpt>
      <trkpt lat="44.83746" lon="4.51891">
        <ele>651.7</ele>
        <time>2020-05-22T11:25:44.000Z</time>
      </trkpt>
      <trkpt lat="44.83742" lon="4.51878">
        <ele>650.7</ele>
        <time>2020-05-22T11:25:45.000Z</time>
      </trkpt>
      <trkpt lat="44.83734" lon="4.51856">
        <ele>648.4</ele>
        <time>2020-05-22T11:25:47.000Z</time>
      </trkpt>
      <trkpt lat="44.83729" lon="4.51845">
        <ele>647.4</ele>
        <time>2020-05-22T11:25:48.000Z</time>
      </trkpt>
      <trkpt lat="44.83724" lon="4.51834">
        <ele>646.3</ele>
        <time>2020-05-22T11:25:49.000Z</time>
      </trkpt>
      <trkpt lat="44.83717" lon="4.51822">
        <ele>645.2</ele>
        <time>2020-05-22T11:25:50.000Z</time>
      </trkpt>
      <trkpt lat="44.8371" lon="4.5181">
        <ele>644.2</ele>
        <time>2020-05-22T11:25:51.000Z</time>
      </trkpt>
      <trkpt lat="44.83703" lon="4.51797">
        <ele>643.1</ele>
        <time>2020-05-22T11:25:52.000Z</time>
      </trkpt>
      <trkpt lat="44.83696" lon="4.51784">
        <ele>642</ele>
        <time>2020-05-22T11:25:53.000Z</time>
      </trkpt>
      <trkpt lat="44.83688" lon="4.51771">
        <ele>640.9</ele>
        <time>2020-05-22T11:25:54.000Z</time>
      </trkpt>
      <trkpt lat="44.83681" lon="4.51759">
        <ele>639.8</ele>
        <time>2020-05-22T11:25:55.000Z</time>
      </trkpt>
      <trkpt lat="44.83674" lon="4.51747">
        <ele>638.7</ele>
        <time>2020-05-22T11:25:56.000Z</time>
      </trkpt>
      <trkpt lat="44.83668" lon="4.51735">
        <ele>637.5</ele>
        <time>2020-05-22T11:25:57.000Z</time>
      </trkpt>
      <trkpt lat="44.83662" lon="4.51724">
        <ele>636.4</ele>
        <time>2020-05-22T11:25:58.000Z</time>
      </trkpt>
      <trkpt lat="44.83657" lon="4.51713">
        <ele>635.2</ele>
        <time>2020-05-22T11:25:59.000Z</time>
      </trkpt>
      <trkpt lat="44.83652" lon="4.51701">
        <ele>634.1</ele>
        <time>2020-05-22T11:26:00.000Z</time>
      </trkpt>
      <trkpt lat="44.83649" lon="4.51689">
        <ele>633</ele>
        <time>2020-05-22T11:26:01.000Z</time>
      </trkpt>
      <trkpt lat="44.83643" lon="4.51667">
        <ele>631.1</ele>
        <time>2020-05-22T11:26:03.000Z</time>
      </trkpt>
      <trkpt lat="44.83639" lon="4.51646">
        <ele>629.2</ele>
        <time>2020-05-22T11:26:05.000Z</time>
      </trkpt>
      <trkpt lat="44.83634" lon="4.51624">
        <ele>627.3</ele>
        <time>2020-05-22T11:26:07.000Z</time>
      </trkpt>
      <trkpt lat="44.83632" lon="4.51603">
        <ele>625.5</ele>
        <time>2020-05-22T11:26:09.000Z</time>
      </trkpt>
      <trkpt lat="44.83635" lon="4.51583">
        <ele>623.8</ele>
        <time>2020-05-22T11:26:11.000Z</time>
      </trkpt>
      <trkpt lat="44.83643" lon="4.51567">
        <ele>622.4</ele>
        <time>2020-05-22T11:26:13.000Z</time>
      </trkpt>
      <trkpt lat="44.83654" lon="4.51552">
        <ele>621.1</ele>
        <time>2020-05-22T11:26:15.000Z</time>
      </trkpt>
      <trkpt lat="44.83664" lon="4.51535">
        <ele>619.9</ele>
        <time>2020-05-22T11:26:17.000Z</time>
      </trkpt>
      <trkpt lat="44.83676" lon="4.51519">
        <ele>619</ele>
        <time>2020-05-22T11:26:19.000Z</time>
      </trkpt>
      <trkpt lat="44.83688" lon="4.51501">
        <ele>618.1</ele>
        <time>2020-05-22T11:26:21.000Z</time>
      </trkpt>
      <trkpt lat="44.83694" lon="4.51491">
        <ele>617.6</ele>
        <time>2020-05-22T11:26:22.000Z</time>
      </trkpt>
      <trkpt lat="44.837" lon="4.51482">
        <ele>617.2</ele>
        <time>2020-05-22T11:26:23.000Z</time>
      </trkpt>
      <trkpt lat="44.83713" lon="4.51466">
        <ele>616.6</ele>
        <time>2020-05-22T11:26:25.000Z</time>
      </trkpt>
      <trkpt lat="44.83729" lon="4.51457">
        <ele>616</ele>
        <time>2020-05-22T11:26:27.000Z</time>
      </trkpt>
      <trkpt lat="44.83745" lon="4.51453">
        <ele>615.4</ele>
        <time>2020-05-22T11:26:29.000Z</time>
      </trkpt>
      <trkpt lat="44.83761" lon="4.51444">
        <ele>614.7</ele>
        <time>2020-05-22T11:26:31.000Z</time>
      </trkpt>
      <trkpt lat="44.83768" lon="4.51426">
        <ele>613.9</ele>
        <time>2020-05-22T11:26:33.000Z</time>
      </trkpt>
      <trkpt lat="44.83767" lon="4.51405">
        <ele>613.2</ele>
        <time>2020-05-22T11:26:35.000Z</time>
      </trkpt>
      <trkpt lat="44.83765" lon="4.51385">
        <ele>612.7</ele>
        <time>2020-05-22T11:26:37.000Z</time>
      </trkpt>
      <trkpt lat="44.83765" lon="4.51363">
        <ele>611.7</ele>
        <time>2020-05-22T11:26:39.000Z</time>
      </trkpt>
      <trkpt lat="44.83764" lon="4.51342">
        <ele>610.6</ele>
        <time>2020-05-22T11:26:41.000Z</time>
      </trkpt>
      <trkpt lat="44.83764" lon="4.5132">
        <ele>609.7</ele>
        <time>2020-05-22T11:26:43.000Z</time>
      </trkpt>
      <trkpt lat="44.83764" lon="4.51298">
        <ele>608.9</ele>
        <time>2020-05-22T11:26:45.000Z</time>
      </trkpt>
      <trkpt lat="44.83765" lon="4.51276">
        <ele>608.2</ele>
        <time>2020-05-22T11:26:47.000Z</time>
      </trkpt>
      <trkpt lat="44.83765" lon="4.51252">
        <ele>607.5</ele>
        <time>2020-05-22T11:26:49.000Z</time>
      </trkpt>
      <trkpt lat="44.83765" lon="4.51229">
        <ele>606.7</ele>
        <time>2020-05-22T11:26:51.000Z</time>
      </trkpt>
      <trkpt lat="44.83765" lon="4.51209">
        <ele>606.1</ele>
        <time>2020-05-22T11:26:53.000Z</time>
      </trkpt>
      <trkpt lat="44.83765" lon="4.5119">
        <ele>605.6</ele>
        <time>2020-05-22T11:26:55.000Z</time>
      </trkpt>
      <trkpt lat="44.83766" lon="4.51172">
        <ele>605</ele>
        <time>2020-05-22T11:26:57.000Z</time>
      </trkpt>
      <trkpt lat="44.83766" lon="4.51152">
        <ele>604.2</ele>
        <time>2020-05-22T11:26:59.000Z</time>
      </trkpt>
      <trkpt lat="44.83765" lon="4.51132">
        <ele>603.2</ele>
        <time>2020-05-22T11:27:01.000Z</time>
      </trkpt>
      <trkpt lat="44.83766" lon="4.51112">
        <ele>602.1</ele>
        <time>2020-05-22T11:27:03.000Z</time>
      </trkpt>
      <trkpt lat="44.83768" lon="4.51091">
        <ele>600.9</ele>
        <time>2020-05-22T11:27:05.000Z</time>
      </trkpt>
      <trkpt lat="44.83769" lon="4.51069">
        <ele>599.8</ele>
        <time>2020-05-22T11:27:07.000Z</time>
      </trkpt>
      <trkpt lat="44.83775" lon="4.51049">
        <ele>598.6</ele>
        <time>2020-05-22T11:27:09.000Z</time>
      </trkpt>
      <trkpt lat="44.83786" lon="4.51029">
        <ele>597.5</ele>
        <time>2020-05-22T11:27:11.000Z</time>
      </trkpt>
      <trkpt lat="44.83796" lon="4.51009">
        <ele>596.3</ele>
        <time>2020-05-22T11:27:13.000Z</time>
      </trkpt>
      <trkpt lat="44.83807" lon="4.50988">
        <ele>594.9</ele>
        <time>2020-05-22T11:27:15.000Z</time>
      </trkpt>
      <trkpt lat="44.83813" lon="4.50978">
        <ele>594.3</ele>
        <time>2020-05-22T11:27:16.000Z</time>
      </trkpt>
      <trkpt lat="44.8382" lon="4.50969">
        <ele>593.5</ele>
        <time>2020-05-22T11:27:17.000Z</time>
      </trkpt>
      <trkpt lat="44.83828" lon="4.5096">
        <ele>592.8</ele>
        <time>2020-05-22T11:27:18.000Z</time>
      </trkpt>
      <trkpt lat="44.83836" lon="4.50954">
        <ele>592</ele>
        <time>2020-05-22T11:27:19.000Z</time>
      </trkpt>
      <trkpt lat="44.83845" lon="4.50948">
        <ele>591.3</ele>
        <time>2020-05-22T11:27:20.000Z</time>
      </trkpt>
      <trkpt lat="44.83854" lon="4.50945">
        <ele>590.5</ele>
        <time>2020-05-22T11:27:21.000Z</time>
      </trkpt>
      <trkpt lat="44.83864" lon="4.50944">
        <ele>589.8</ele>
        <time>2020-05-22T11:27:22.000Z</time>
      </trkpt>
      <trkpt lat="44.83874" lon="4.50944">
        <ele>589.1</ele>
        <time>2020-05-22T11:27:23.000Z</time>
      </trkpt>
      <trkpt lat="44.83885" lon="4.50943">
        <ele>588.3</ele>
        <time>2020-05-22T11:27:24.000Z</time>
      </trkpt>
      <trkpt lat="44.83896" lon="4.50942">
        <ele>587.6</ele>
        <time>2020-05-22T11:27:25.000Z</time>
      </trkpt>
      <trkpt lat="44.83906" lon="4.5094">
        <ele>586.9</ele>
        <time>2020-05-22T11:27:26.000Z</time>
      </trkpt>
      <trkpt lat="44.83916" lon="4.50939">
        <ele>586.2</ele>
        <time>2020-05-22T11:27:27.000Z</time>
      </trkpt>
      <trkpt lat="44.83925" lon="4.50938">
        <ele>585.5</ele>
        <time>2020-05-22T11:27:28.000Z</time>
      </trkpt>
      <trkpt lat="44.83935" lon="4.50938">
        <ele>584.8</ele>
        <time>2020-05-22T11:27:29.000Z</time>
      </trkpt>
      <trkpt lat="44.83945" lon="4.50938">
        <ele>584.2</ele>
        <time>2020-05-22T11:27:30.000Z</time>
      </trkpt>
      <trkpt lat="44.83962" lon="4.50942">
        <ele>582.8</ele>
        <time>2020-05-22T11:27:32.000Z</time>
      </trkpt>
      <trkpt lat="44.83978" lon="4.5095">
        <ele>581.2</ele>
        <time>2020-05-22T11:27:34.000Z</time>
      </trkpt>
      <trkpt lat="44.83986" lon="4.50955">
        <ele>580.5</ele>
        <time>2020-05-22T11:27:35.000Z</time>
      </trkpt>
      <trkpt lat="44.84001" lon="4.50963">
        <ele>579.2</ele>
        <time>2020-05-22T11:27:37.000Z</time>
      </trkpt>
      <trkpt lat="44.84014" lon="4.5096">
        <ele>578</ele>
        <time>2020-05-22T11:27:39.000Z</time>
      </trkpt>
      <trkpt lat="44.84021" lon="4.50948">
        <ele>576.8</ele>
        <time>2020-05-22T11:27:41.000Z</time>
      </trkpt>
      <trkpt lat="44.84019" lon="4.50931">
        <ele>575.9</ele>
        <time>2020-05-22T11:27:43.000Z</time>
      </trkpt>
      <trkpt lat="44.8401" lon="4.50916">
        <ele>574.9</ele>
        <time>2020-05-22T11:27:45.000Z</time>
      </trkpt>
      <trkpt lat="44.83997" lon="4.50901">
        <ele>574</ele>
        <time>2020-05-22T11:27:47.000Z</time>
      </trkpt>
      <trkpt lat="44.83984" lon="4.50885">
        <ele>572.9</ele>
        <time>2020-05-22T11:27:49.000Z</time>
      </trkpt>
      <trkpt lat="44.83976" lon="4.50876">
        <ele>572.2</ele>
        <time>2020-05-22T11:27:50.000Z</time>
      </trkpt>
      <trkpt lat="44.83962" lon="4.50859">
        <ele>570</ele>
        <time>2020-05-22T11:27:52.000Z</time>
      </trkpt>
      <trkpt lat="44.83946" lon="4.5083">
        <ele>569.2</ele>
        <time>2020-05-22T11:27:55.000Z</time>
      </trkpt>
      <trkpt lat="44.83943" lon="4.50817">
        <ele>568.5</ele>
        <time>2020-05-22T11:27:56.000Z</time>
      </trkpt>
      <trkpt lat="44.8394" lon="4.50803">
        <ele>567.7</ele>
        <time>2020-05-22T11:27:57.000Z</time>
      </trkpt>
      <trkpt lat="44.83937" lon="4.50788">
        <ele>566.9</ele>
        <time>2020-05-22T11:27:58.000Z</time>
      </trkpt>
      <trkpt lat="44.83933" lon="4.50774">
        <ele>566.1</ele>
        <time>2020-05-22T11:27:59.000Z</time>
      </trkpt>
      <trkpt lat="44.8393" lon="4.50758">
        <ele>565.2</ele>
        <time>2020-05-22T11:28:00.000Z</time>
      </trkpt>
      <trkpt lat="44.83926" lon="4.50743">
        <ele>564.3</ele>
        <time>2020-05-22T11:28:01.000Z</time>
      </trkpt>
      <trkpt lat="44.83922" lon="4.50728">
        <ele>563.4</ele>
        <time>2020-05-22T11:28:02.000Z</time>
      </trkpt>
      <trkpt lat="44.83918" lon="4.50714">
        <ele>562.5</ele>
        <time>2020-05-22T11:28:03.000Z</time>
      </trkpt>
      <trkpt lat="44.83914" lon="4.507">
        <ele>561.6</ele>
        <time>2020-05-22T11:28:04.000Z</time>
      </trkpt>
      <trkpt lat="44.83904" lon="4.50676">
        <ele>559</ele>
        <time>2020-05-22T11:28:06.000Z</time>
      </trkpt>
      <trkpt lat="44.83888" lon="4.50641">
        <ele>556.9</ele>
        <time>2020-05-22T11:28:09.000Z</time>
      </trkpt>
      <trkpt lat="44.8388" lon="4.50622">
        <ele>555.4</ele>
        <time>2020-05-22T11:28:11.000Z</time>
      </trkpt>
      <trkpt lat="44.83869" lon="4.50611">
        <ele>554.1</ele>
        <time>2020-05-22T11:28:13.000Z</time>
      </trkpt>
      <trkpt lat="44.83859" lon="4.50616">
        <ele>552.9</ele>
        <time>2020-05-22T11:28:15.000Z</time>
      </trkpt>
      <trkpt lat="44.83853" lon="4.50643">
        <ele>550</ele>
        <time>2020-05-22T11:28:18.000Z</time>
      </trkpt>
      <trkpt lat="44.83848" lon="4.50674">
        <ele>550.3</ele>
        <time>2020-05-22T11:28:21.000Z</time>
      </trkpt>
      <trkpt lat="44.83836" lon="4.5069">
        <ele>549.5</ele>
        <time>2020-05-22T11:28:23.000Z</time>
      </trkpt>
      <trkpt lat="44.83821" lon="4.50694">
        <ele>548.6</ele>
        <time>2020-05-22T11:28:25.000Z</time>
      </trkpt>
      <trkpt lat="44.83812" lon="4.50694">
        <ele>548.1</ele>
        <time>2020-05-22T11:28:26.000Z</time>
      </trkpt>
      <trkpt lat="44.83794" lon="4.50696">
        <ele>547.1</ele>
        <time>2020-05-22T11:28:28.000Z</time>
      </trkpt>
      <trkpt lat="44.83777" lon="4.50702">
        <ele>546.2</ele>
        <time>2020-05-22T11:28:30.000Z</time>
      </trkpt>
      <trkpt lat="44.83768" lon="4.50705">
        <ele>545.7</ele>
        <time>2020-05-22T11:28:31.000Z</time>
      </trkpt>
      <trkpt lat="44.83759" lon="4.50708">
        <ele>545.2</ele>
        <time>2020-05-22T11:28:32.000Z</time>
      </trkpt>
      <trkpt lat="44.8375" lon="4.5071">
        <ele>544.8</ele>
        <time>2020-05-22T11:28:33.000Z</time>
      </trkpt>
      <trkpt lat="44.8374" lon="4.5071">
        <ele>544.4</ele>
        <time>2020-05-22T11:28:34.000Z</time>
      </trkpt>
      <trkpt lat="44.83731" lon="4.50709">
        <ele>544</ele>
        <time>2020-05-22T11:28:35.000Z</time>
      </trkpt>
      <trkpt lat="44.83722" lon="4.50707">
        <ele>543.5</ele>
        <time>2020-05-22T11:28:36.000Z</time>
      </trkpt>
      <trkpt lat="44.83704" lon="4.507">
        <ele>542.8</ele>
        <time>2020-05-22T11:28:38.000Z</time>
      </trkpt>
      <trkpt lat="44.83695" lon="4.50696">
        <ele>542.3</ele>
        <time>2020-05-22T11:28:39.000Z</time>
      </trkpt>
      <trkpt lat="44.83686" lon="4.50693">
        <ele>541.9</ele>
        <time>2020-05-22T11:28:40.000Z</time>
      </trkpt>
      <trkpt lat="44.83678" lon="4.50689">
        <ele>541.5</ele>
        <time>2020-05-22T11:28:41.000Z</time>
      </trkpt>
      <trkpt lat="44.83668" lon="4.50684">
        <ele>541.2</ele>
        <time>2020-05-22T11:28:42.000Z</time>
      </trkpt>
      <trkpt lat="44.83659" lon="4.50679">
        <ele>540.7</ele>
        <time>2020-05-22T11:28:43.000Z</time>
      </trkpt>
      <trkpt lat="44.83651" lon="4.50675">
        <ele>540.2</ele>
        <time>2020-05-22T11:28:44.000Z</time>
      </trkpt>
      <trkpt lat="44.83635" lon="4.50664">
        <ele>539.2</ele>
        <time>2020-05-22T11:28:46.000Z</time>
      </trkpt>
      <trkpt lat="44.83623" lon="4.50646">
        <ele>538</ele>
        <time>2020-05-22T11:28:48.000Z</time>
      </trkpt>
      <trkpt lat="44.83618" lon="4.50635">
        <ele>537.4</ele>
        <time>2020-05-22T11:28:49.000Z</time>
      </trkpt>
      <trkpt lat="44.83613" lon="4.50623">
        <ele>536.7</ele>
        <time>2020-05-22T11:28:50.000Z</time>
      </trkpt>
      <trkpt lat="44.83608" lon="4.5061">
        <ele>536</ele>
        <time>2020-05-22T11:28:51.000Z</time>
      </trkpt>
      <trkpt lat="44.83603" lon="4.50597">
        <ele>535.4</ele>
        <time>2020-05-22T11:28:52.000Z</time>
      </trkpt>
      <trkpt lat="44.83598" lon="4.50584">
        <ele>534.7</ele>
        <time>2020-05-22T11:28:53.000Z</time>
      </trkpt>
      <trkpt lat="44.83593" lon="4.5057">
        <ele>534.1</ele>
        <time>2020-05-22T11:28:54.000Z</time>
      </trkpt>
      <trkpt lat="44.83588" lon="4.50558">
        <ele>533.4</ele>
        <time>2020-05-22T11:28:55.000Z</time>
      </trkpt>
      <trkpt lat="44.8358" lon="4.50538">
        <ele>532</ele>
        <time>2020-05-22T11:28:57.000Z</time>
      </trkpt>
      <trkpt lat="44.8357" lon="4.50523">
        <ele>530.6</ele>
        <time>2020-05-22T11:28:59.000Z</time>
      </trkpt>
      <trkpt lat="44.83556" lon="4.50522">
        <ele>529.2</ele>
        <time>2020-05-22T11:29:01.000Z</time>
      </trkpt>
      <trkpt lat="44.83545" lon="4.50535">
        <ele>527.9</ele>
        <time>2020-05-22T11:29:03.000Z</time>
      </trkpt>
      <trkpt lat="44.83539" lon="4.50567">
        <ele>526</ele>
        <time>2020-05-22T11:29:06.000Z</time>
      </trkpt>
      <trkpt lat="44.8353" lon="4.50598">
        <ele>524.8</ele>
        <time>2020-05-22T11:29:09.000Z</time>
      </trkpt>
      <trkpt lat="44.83518" lon="4.50612">
        <ele>523.9</ele>
        <time>2020-05-22T11:29:11.000Z</time>
      </trkpt>
      <trkpt lat="44.83504" lon="4.50614">
        <ele>523.3</ele>
        <time>2020-05-22T11:29:13.000Z</time>
      </trkpt>
      <trkpt lat="44.83489" lon="4.5061">
        <ele>522.6</ele>
        <time>2020-05-22T11:29:15.000Z</time>
      </trkpt>
      <trkpt lat="44.83475" lon="4.50604">
        <ele>521.3</ele>
        <time>2020-05-22T11:29:17.000Z</time>
      </trkpt>
      <trkpt lat="44.8346" lon="4.50599">
        <ele>520</ele>
        <time>2020-05-22T11:29:19.000Z</time>
      </trkpt>
      <trkpt lat="44.83445" lon="4.50594">
        <ele>519.2</ele>
        <time>2020-05-22T11:29:21.000Z</time>
      </trkpt>
      <trkpt lat="44.83431" lon="4.50588">
        <ele>518.5</ele>
        <time>2020-05-22T11:29:23.000Z</time>
      </trkpt>
      <trkpt lat="44.83418" lon="4.50578">
        <ele>518</ele>
        <time>2020-05-22T11:29:25.000Z</time>
      </trkpt>
      <trkpt lat="44.83408" lon="4.50565">
        <ele>517.7</ele>
        <time>2020-05-22T11:29:27.000Z</time>
      </trkpt>
      <trkpt lat="44.83396" lon="4.50555">
        <ele>517.5</ele>
        <time>2020-05-22T11:29:29.000Z</time>
      </trkpt>
      <trkpt lat="44.83383" lon="4.50554">
        <ele>517.4</ele>
        <time>2020-05-22T11:29:31.000Z</time>
      </trkpt>
      <trkpt lat="44.8337" lon="4.5056">
        <ele>517.3</ele>
        <time>2020-05-22T11:29:33.000Z</time>
      </trkpt>
      <trkpt lat="44.83357" lon="4.50566">
        <ele>517.2</ele>
        <time>2020-05-22T11:29:35.000Z</time>
      </trkpt>
      <trkpt lat="44.83343" lon="4.50572">
        <ele>517</ele>
        <time>2020-05-22T11:29:37.000Z</time>
      </trkpt>
      <trkpt lat="44.83329" lon="4.50579">
        <ele>516.6</ele>
        <time>2020-05-22T11:29:39.000Z</time>
      </trkpt>
      <trkpt lat="44.83316" lon="4.50588">
        <ele>516.3</ele>
        <time>2020-05-22T11:29:41.000Z</time>
      </trkpt>
      <trkpt lat="44.83304" lon="4.50594">
        <ele>516</ele>
        <time>2020-05-22T11:29:43.000Z</time>
      </trkpt>
      <trkpt lat="44.8329" lon="4.50592">
        <ele>515.7</ele>
        <time>2020-05-22T11:29:45.000Z</time>
      </trkpt>
      <trkpt lat="44.83279" lon="4.50581">
        <ele>515.3</ele>
        <time>2020-05-22T11:29:47.000Z</time>
      </trkpt>
      <trkpt lat="44.83269" lon="4.50568">
        <ele>515.1</ele>
        <time>2020-05-22T11:29:49.000Z</time>
      </trkpt>
      <trkpt lat="44.83258" lon="4.50554">
        <ele>514.9</ele>
        <time>2020-05-22T11:29:51.000Z</time>
      </trkpt>
      <trkpt lat="44.83246" lon="4.50541">
        <ele>514.7</ele>
        <time>2020-05-22T11:29:53.000Z</time>
      </trkpt>
      <trkpt lat="44.83233" lon="4.50529">
        <ele>514.3</ele>
        <time>2020-05-22T11:29:55.000Z</time>
      </trkpt>
      <trkpt lat="44.83218" lon="4.50522">
        <ele>513.9</ele>
        <time>2020-05-22T11:29:57.000Z</time>
      </trkpt>
      <trkpt lat="44.83202" lon="4.50522">
        <ele>513.2</ele>
        <time>2020-05-22T11:29:59.000Z</time>
      </trkpt>
      <trkpt lat="44.83186" lon="4.50524">
        <ele>512.8</ele>
        <time>2020-05-22T11:30:01.000Z</time>
      </trkpt>
      <trkpt lat="44.83169" lon="4.50529">
        <ele>512.3</ele>
        <time>2020-05-22T11:30:03.000Z</time>
      </trkpt>
      <trkpt lat="44.83153" lon="4.50539">
        <ele>511.8</ele>
        <time>2020-05-22T11:30:05.000Z</time>
      </trkpt>
      <trkpt lat="44.83145" lon="4.50546">
        <ele>511.4</ele>
        <time>2020-05-22T11:30:06.000Z</time>
      </trkpt>
      <trkpt lat="44.83137" lon="4.50554">
        <ele>510.9</ele>
        <time>2020-05-22T11:30:07.000Z</time>
      </trkpt>
      <trkpt lat="44.83129" lon="4.50561">
        <ele>510.5</ele>
        <time>2020-05-22T11:30:08.000Z</time>
      </trkpt>
      <trkpt lat="44.83121" lon="4.50568">
        <ele>510</ele>
        <time>2020-05-22T11:30:09.000Z</time>
      </trkpt>
      <trkpt lat="44.83106" lon="4.50578">
        <ele>509.1</ele>
        <time>2020-05-22T11:30:11.000Z</time>
      </trkpt>
      <trkpt lat="44.83093" lon="4.50575">
        <ele>508.1</ele>
        <time>2020-05-22T11:30:13.000Z</time>
      </trkpt>
      <trkpt lat="44.83089" lon="4.50556">
        <ele>507</ele>
        <time>2020-05-22T11:30:15.000Z</time>
      </trkpt>
      <trkpt lat="44.83091" lon="4.50535">
        <ele>506</ele>
        <time>2020-05-22T11:30:17.000Z</time>
      </trkpt>
      <trkpt lat="44.83095" lon="4.50513">
        <ele>505</ele>
        <time>2020-05-22T11:30:19.000Z</time>
      </trkpt>
      <trkpt lat="44.83099" lon="4.5049">
        <ele>503.9</ele>
        <time>2020-05-22T11:30:21.000Z</time>
      </trkpt>
      <trkpt lat="44.83102" lon="4.50467">
        <ele>502.7</ele>
        <time>2020-05-22T11:30:23.000Z</time>
      </trkpt>
      <trkpt lat="44.83101" lon="4.50443">
        <ele>501.5</ele>
        <time>2020-05-22T11:30:25.000Z</time>
      </trkpt>
      <trkpt lat="44.83099" lon="4.5043">
        <ele>501</ele>
        <time>2020-05-22T11:30:26.000Z</time>
      </trkpt>
      <trkpt lat="44.83098" lon="4.50417">
        <ele>500.3</ele>
        <time>2020-05-22T11:30:27.000Z</time>
      </trkpt>
      <trkpt lat="44.83095" lon="4.50404">
        <ele>499.7</ele>
        <time>2020-05-22T11:30:28.000Z</time>
      </trkpt>
      <trkpt lat="44.83093" lon="4.50392">
        <ele>499.1</ele>
        <time>2020-05-22T11:30:29.000Z</time>
      </trkpt>
      <trkpt lat="44.8309" lon="4.50379">
        <ele>498.7</ele>
        <time>2020-05-22T11:30:30.000Z</time>
      </trkpt>
      <trkpt lat="44.83087" lon="4.50367">
        <ele>498.4</ele>
        <time>2020-05-22T11:30:31.000Z</time>
      </trkpt>
      <trkpt lat="44.83082" lon="4.50354">
        <ele>498.1</ele>
        <time>2020-05-22T11:30:32.000Z</time>
      </trkpt>
      <trkpt lat="44.83077" lon="4.50343">
        <ele>497.8</ele>
        <time>2020-05-22T11:30:33.000Z</time>
      </trkpt>
      <trkpt lat="44.8307" lon="4.50332">
        <ele>497.4</ele>
        <time>2020-05-22T11:30:34.000Z</time>
      </trkpt>
      <trkpt lat="44.83063" lon="4.50322">
        <ele>497</ele>
        <time>2020-05-22T11:30:35.000Z</time>
      </trkpt>
      <trkpt lat="44.83056" lon="4.50312">
        <ele>496.7</ele>
        <time>2020-05-22T11:30:36.000Z</time>
      </trkpt>
      <trkpt lat="44.8305" lon="4.50301">
        <ele>496.3</ele>
        <time>2020-05-22T11:30:37.000Z</time>
      </trkpt>
      <trkpt lat="44.83046" lon="4.50288">
        <ele>496</ele>
        <time>2020-05-22T11:30:38.000Z</time>
      </trkpt>
      <trkpt lat="44.83043" lon="4.50273">
        <ele>495.6</ele>
        <time>2020-05-22T11:30:39.000Z</time>
      </trkpt>
      <trkpt lat="44.83042" lon="4.50259">
        <ele>495.1</ele>
        <time>2020-05-22T11:30:40.000Z</time>
      </trkpt>
      <trkpt lat="44.83042" lon="4.50244">
        <ele>494.7</ele>
        <time>2020-05-22T11:30:41.000Z</time>
      </trkpt>
      <trkpt lat="44.83044" lon="4.5023">
        <ele>494.2</ele>
        <time>2020-05-22T11:30:42.000Z</time>
      </trkpt>
      <trkpt lat="44.83047" lon="4.50215">
        <ele>493.6</ele>
        <time>2020-05-22T11:30:43.000Z</time>
      </trkpt>
      <trkpt lat="44.83051" lon="4.50201">
        <ele>492.9</ele>
        <time>2020-05-22T11:30:44.000Z</time>
      </trkpt>
      <trkpt lat="44.83055" lon="4.5019">
        <ele>492.4</ele>
        <time>2020-05-22T11:30:45.000Z</time>
      </trkpt>
      <trkpt lat="44.8306" lon="4.50178">
        <ele>491.8</ele>
        <time>2020-05-22T11:30:46.000Z</time>
      </trkpt>
      <trkpt lat="44.83065" lon="4.50167">
        <ele>491.2</ele>
        <time>2020-05-22T11:30:47.000Z</time>
      </trkpt>
      <trkpt lat="44.83071" lon="4.50155">
        <ele>490.6</ele>
        <time>2020-05-22T11:30:48.000Z</time>
      </trkpt>
      <trkpt lat="44.83076" lon="4.50143">
        <ele>490</ele>
        <time>2020-05-22T11:30:49.000Z</time>
      </trkpt>
      <trkpt lat="44.83081" lon="4.5013">
        <ele>489.5</ele>
        <time>2020-05-22T11:30:50.000Z</time>
      </trkpt>
      <trkpt lat="44.83086" lon="4.50118">
        <ele>489</ele>
        <time>2020-05-22T11:30:51.000Z</time>
      </trkpt>
      <trkpt lat="44.83092" lon="4.50105">
        <ele>488.5</ele>
        <time>2020-05-22T11:30:52.000Z</time>
      </trkpt>
      <trkpt lat="44.83097" lon="4.50093">
        <ele>487.9</ele>
        <time>2020-05-22T11:30:53.000Z</time>
      </trkpt>
      <trkpt lat="44.83103" lon="4.50082">
        <ele>487.4</ele>
        <time>2020-05-22T11:30:54.000Z</time>
      </trkpt>
      <trkpt lat="44.83108" lon="4.50071">
        <ele>486.9</ele>
        <time>2020-05-22T11:30:55.000Z</time>
      </trkpt>
      <trkpt lat="44.83111" lon="4.50059">
        <ele>486.3</ele>
        <time>2020-05-22T11:30:56.000Z</time>
      </trkpt>
      <trkpt lat="44.83119" lon="4.50037">
        <ele>485.1</ele>
        <time>2020-05-22T11:30:58.000Z</time>
      </trkpt>
      <trkpt lat="44.83123" lon="4.50025">
        <ele>484.5</ele>
        <time>2020-05-22T11:30:59.000Z</time>
      </trkpt>
      <trkpt lat="44.83135" lon="4.50006">
        <ele>483.4</ele>
        <time>2020-05-22T11:31:01.000Z</time>
      </trkpt>
      <trkpt lat="44.83149" lon="4.49991">
        <ele>482.4</ele>
        <time>2020-05-22T11:31:03.000Z</time>
      </trkpt>
      <trkpt lat="44.83158" lon="4.49974">
        <ele>481.4</ele>
        <time>2020-05-22T11:31:05.000Z</time>
      </trkpt>
      <trkpt lat="44.83154" lon="4.49952">
        <ele>480.5</ele>
        <time>2020-05-22T11:31:07.000Z</time>
      </trkpt>
      <trkpt lat="44.83143" lon="4.49932">
        <ele>479.6</ele>
        <time>2020-05-22T11:31:09.000Z</time>
      </trkpt>
      <trkpt lat="44.83135" lon="4.49911">
        <ele>478.9</ele>
        <time>2020-05-22T11:31:11.000Z</time>
      </trkpt>
      <trkpt lat="44.83131" lon="4.499">
        <ele>478.5</ele>
        <time>2020-05-22T11:31:12.000Z</time>
      </trkpt>
      <trkpt lat="44.83127" lon="4.49888">
        <ele>478.2</ele>
        <time>2020-05-22T11:31:13.000Z</time>
      </trkpt>
      <trkpt lat="44.83123" lon="4.49875">
        <ele>477.9</ele>
        <time>2020-05-22T11:31:14.000Z</time>
      </trkpt>
      <trkpt lat="44.83119" lon="4.49862">
        <ele>477.6</ele>
        <time>2020-05-22T11:31:15.000Z</time>
      </trkpt>
      <trkpt lat="44.83115" lon="4.4985">
        <ele>477.2</ele>
        <time>2020-05-22T11:31:16.000Z</time>
      </trkpt>
      <trkpt lat="44.83106" lon="4.4983">
        <ele>476.4</ele>
        <time>2020-05-22T11:31:18.000Z</time>
      </trkpt>
      <trkpt lat="44.83091" lon="4.49825">
        <ele>475.5</ele>
        <time>2020-05-22T11:31:20.000Z</time>
      </trkpt>
      <trkpt lat="44.8308" lon="4.49836">
        <ele>474.8</ele>
        <time>2020-05-22T11:31:22.000Z</time>
      </trkpt>
      <trkpt lat="44.83075" lon="4.49854">
        <ele>474.3</ele>
        <time>2020-05-22T11:31:24.000Z</time>
      </trkpt>
      <trkpt lat="44.83073" lon="4.49873">
        <ele>474</ele>
        <time>2020-05-22T11:31:26.000Z</time>
      </trkpt>
      <trkpt lat="44.8307" lon="4.49895">
        <ele>473.7</ele>
        <time>2020-05-22T11:31:28.000Z</time>
      </trkpt>
      <trkpt lat="44.83065" lon="4.49916">
        <ele>473.2</ele>
        <time>2020-05-22T11:31:30.000Z</time>
      </trkpt>
      <trkpt lat="44.83059" lon="4.49937">
        <ele>472.7</ele>
        <time>2020-05-22T11:31:32.000Z</time>
      </trkpt>
      <trkpt lat="44.83053" lon="4.49959">
        <ele>472.2</ele>
        <time>2020-05-22T11:31:34.000Z</time>
      </trkpt>
      <trkpt lat="44.83045" lon="4.4998">
        <ele>471.6</ele>
        <time>2020-05-22T11:31:36.000Z</time>
      </trkpt>
      <trkpt lat="44.83033" lon="4.49999">
        <ele>471</ele>
        <time>2020-05-22T11:31:38.000Z</time>
      </trkpt>
      <trkpt lat="44.83027" lon="4.50009">
        <ele>470.7</ele>
        <time>2020-05-22T11:31:39.000Z</time>
      </trkpt>
      <trkpt lat="44.83021" lon="4.50019">
        <ele>470.4</ele>
        <time>2020-05-22T11:31:40.000Z</time>
      </trkpt>
      <trkpt lat="44.8301" lon="4.50038">
        <ele>469.8</ele>
        <time>2020-05-22T11:31:42.000Z</time>
      </trkpt>
      <trkpt lat="44.83004" lon="4.50048">
        <ele>469.4</ele>
        <time>2020-05-22T11:31:43.000Z</time>
      </trkpt>
      <trkpt lat="44.82996" lon="4.50058">
        <ele>469</ele>
        <time>2020-05-22T11:31:44.000Z</time>
      </trkpt>
      <trkpt lat="44.82988" lon="4.50065">
        <ele>468.6</ele>
        <time>2020-05-22T11:31:45.000Z</time>
      </trkpt>
      <trkpt lat="44.82979" lon="4.50073">
        <ele>468.2</ele>
        <time>2020-05-22T11:31:46.000Z</time>
      </trkpt>
      <trkpt lat="44.8297" lon="4.50081">
        <ele>467.8</ele>
        <time>2020-05-22T11:31:47.000Z</time>
      </trkpt>
      <trkpt lat="44.82961" lon="4.50088">
        <ele>467.3</ele>
        <time>2020-05-22T11:31:48.000Z</time>
      </trkpt>
      <trkpt lat="44.82952" lon="4.50096">
        <ele>466.9</ele>
        <time>2020-05-22T11:31:49.000Z</time>
      </trkpt>
      <trkpt lat="44.82943" lon="4.50103">
        <ele>466.4</ele>
        <time>2020-05-22T11:31:50.000Z</time>
      </trkpt>
      <trkpt lat="44.82934" lon="4.5011">
        <ele>465.8</ele>
        <time>2020-05-22T11:31:51.000Z</time>
      </trkpt>
      <trkpt lat="44.82925" lon="4.50118">
        <ele>465.3</ele>
        <time>2020-05-22T11:31:52.000Z</time>
      </trkpt>
      <trkpt lat="44.82915" lon="4.50125">
        <ele>464.8</ele>
        <time>2020-05-22T11:31:53.000Z</time>
      </trkpt>
      <trkpt lat="44.82905" lon="4.50131">
        <ele>464.3</ele>
        <time>2020-05-22T11:31:54.000Z</time>
      </trkpt>
      <trkpt lat="44.82894" lon="4.50138">
        <ele>463.9</ele>
        <time>2020-05-22T11:31:55.000Z</time>
      </trkpt>
      <trkpt lat="44.82885" lon="4.50145">
        <ele>463.3</ele>
        <time>2020-05-22T11:31:56.000Z</time>
      </trkpt>
      <trkpt lat="44.82875" lon="4.50154">
        <ele>462.8</ele>
        <time>2020-05-22T11:31:57.000Z</time>
      </trkpt>
      <trkpt lat="44.82867" lon="4.50161">
        <ele>462.3</ele>
        <time>2020-05-22T11:31:58.000Z</time>
      </trkpt>
      <trkpt lat="44.82852" lon="4.50176">
        <ele>461.3</ele>
        <time>2020-05-22T11:32:00.000Z</time>
      </trkpt>
      <trkpt lat="44.82839" lon="4.50193">
        <ele>460.3</ele>
        <time>2020-05-22T11:32:02.000Z</time>
      </trkpt>
      <trkpt lat="44.82833" lon="4.50215">
        <ele>459.4</ele>
        <time>2020-05-22T11:32:04.000Z</time>
      </trkpt>
      <trkpt lat="44.82833" lon="4.50236">
        <ele>458.7</ele>
        <time>2020-05-22T11:32:06.000Z</time>
      </trkpt>
      <trkpt lat="44.82835" lon="4.50255">
        <ele>458.2</ele>
        <time>2020-05-22T11:32:08.000Z</time>
      </trkpt>
      <trkpt lat="44.82839" lon="4.50274">
        <ele>457.9</ele>
        <time>2020-05-22T11:32:10.000Z</time>
      </trkpt>
      <trkpt lat="44.82844" lon="4.50292">
        <ele>457.6</ele>
        <time>2020-05-22T11:32:12.000Z</time>
      </trkpt>
      <trkpt lat="44.82847" lon="4.50308">
        <ele>457.4</ele>
        <time>2020-05-22T11:32:14.000Z</time>
      </trkpt>
      <trkpt lat="44.82843" lon="4.50324">
        <ele>457</ele>
        <time>2020-05-22T11:32:16.000Z</time>
      </trkpt>
      <trkpt lat="44.82832" lon="4.50331">
        <ele>456.8</ele>
        <time>2020-05-22T11:32:18.000Z</time>
      </trkpt>
      <trkpt lat="44.82819" lon="4.50326">
        <ele>456.4</ele>
        <time>2020-05-22T11:32:20.000Z</time>
      </trkpt>
      <trkpt lat="44.82805" lon="4.5032">
        <ele>455.9</ele>
        <time>2020-05-22T11:32:22.000Z</time>
      </trkpt>
      <trkpt lat="44.82789" lon="4.50315">
        <ele>455.3</ele>
        <time>2020-05-22T11:32:24.000Z</time>
      </trkpt>
      <trkpt lat="44.82772" lon="4.5031">
        <ele>454.5</ele>
        <time>2020-05-22T11:32:26.000Z</time>
      </trkpt>
      <trkpt lat="44.82763" lon="4.50307">
        <ele>454</ele>
        <time>2020-05-22T11:32:27.000Z</time>
      </trkpt>
      <trkpt lat="44.82746" lon="4.50302">
        <ele>453.4</ele>
        <time>2020-05-22T11:32:29.000Z</time>
      </trkpt>
      <trkpt lat="44.82732" lon="4.50291">
        <ele>452.6</ele>
        <time>2020-05-22T11:32:31.000Z</time>
      </trkpt>
      <trkpt lat="44.82722" lon="4.50271">
        <ele>452</ele>
        <time>2020-05-22T11:32:33.000Z</time>
      </trkpt>
      <trkpt lat="44.82717" lon="4.50247">
        <ele>451.4</ele>
        <time>2020-05-22T11:32:35.000Z</time>
      </trkpt>
      <trkpt lat="44.82715" lon="4.50234">
        <ele>451.1</ele>
        <time>2020-05-22T11:32:36.000Z</time>
      </trkpt>
      <trkpt lat="44.82714" lon="4.5022">
        <ele>450.6</ele>
        <time>2020-05-22T11:32:37.000Z</time>
      </trkpt>
      <trkpt lat="44.82712" lon="4.50207">
        <ele>450.1</ele>
        <time>2020-05-22T11:32:38.000Z</time>
      </trkpt>
      <trkpt lat="44.82711" lon="4.50194">
        <ele>449.6</ele>
        <time>2020-05-22T11:32:39.000Z</time>
      </trkpt>
      <trkpt lat="44.8271" lon="4.50181">
        <ele>449.1</ele>
        <time>2020-05-22T11:32:40.000Z</time>
      </trkpt>
      <trkpt lat="44.82708" lon="4.50167">
        <ele>448.5</ele>
        <time>2020-05-22T11:32:41.000Z</time>
      </trkpt>
      <trkpt lat="44.82707" lon="4.50154">
        <ele>448</ele>
        <time>2020-05-22T11:32:42.000Z</time>
      </trkpt>
      <trkpt lat="44.82704" lon="4.50142">
        <ele>447.1</ele>
        <time>2020-05-22T11:32:43.000Z</time>
      </trkpt>
      <trkpt lat="44.82702" lon="4.50129">
        <ele>446.1</ele>
        <time>2020-05-22T11:32:44.000Z</time>
      </trkpt>
      <trkpt lat="44.82699" lon="4.50116">
        <ele>445.3</ele>
        <time>2020-05-22T11:32:45.000Z</time>
      </trkpt>
      <trkpt lat="44.82693" lon="4.50092">
        <ele>444.4</ele>
        <time>2020-05-22T11:32:47.000Z</time>
      </trkpt>
      <trkpt lat="44.8269" lon="4.5008">
        <ele>444</ele>
        <time>2020-05-22T11:32:48.000Z</time>
      </trkpt>
      <trkpt lat="44.82684" lon="4.50057">
        <ele>443.3</ele>
        <time>2020-05-22T11:32:50.000Z</time>
      </trkpt>
      <trkpt lat="44.82677" lon="4.50035">
        <ele>442.6</ele>
        <time>2020-05-22T11:32:52.000Z</time>
      </trkpt>
      <trkpt lat="44.82672" lon="4.50016">
        <ele>441.9</ele>
        <time>2020-05-22T11:32:54.000Z</time>
      </trkpt>
      <trkpt lat="44.82664" lon="4.49998">
        <ele>441.2</ele>
        <time>2020-05-22T11:32:56.000Z</time>
      </trkpt>
      <trkpt lat="44.82656" lon="4.49982">
        <ele>440.5</ele>
        <time>2020-05-22T11:32:58.000Z</time>
      </trkpt>
      <trkpt lat="44.82647" lon="4.49967">
        <ele>440</ele>
        <time>2020-05-22T11:33:00.000Z</time>
      </trkpt>
      <trkpt lat="44.82639" lon="4.4995">
        <ele>439.5</ele>
        <time>2020-05-22T11:33:02.000Z</time>
      </trkpt>
      <trkpt lat="44.8263" lon="4.49933">
        <ele>439.1</ele>
        <time>2020-05-22T11:33:04.000Z</time>
      </trkpt>
      <trkpt lat="44.82624" lon="4.49918">
        <ele>438.8</ele>
        <time>2020-05-22T11:33:06.000Z</time>
      </trkpt>
      <trkpt lat="44.82619" lon="4.49906">
        <ele>438.3</ele>
        <time>2020-05-22T11:33:08.000Z</time>
      </trkpt>
      <trkpt lat="44.82614" lon="4.49905">
        <ele>436.8</ele>
        <time>2020-05-22T11:33:15.000Z</time>
      </trkpt>
      <trkpt lat="44.82615" lon="4.49921">
        <ele>434.4</ele>
        <time>2020-05-22T11:33:43.000Z</time>
      </trkpt>
      <trkpt lat="44.82623" lon="4.49937">
        <ele>434.7</ele>
        <time>2020-05-22T11:33:46.000Z</time>
      </trkpt>
      <trkpt lat="44.8263" lon="4.49947">
        <ele>434.8</ele>
        <time>2020-05-22T11:33:48.000Z</time>
      </trkpt>
      <trkpt lat="44.82636" lon="4.49959">
        <ele>434.8</ele>
        <time>2020-05-22T11:33:50.000Z</time>
      </trkpt>
      <trkpt lat="44.82642" lon="4.49971">
        <ele>434.9</ele>
        <time>2020-05-22T11:33:52.000Z</time>
      </trkpt>
      <trkpt lat="44.82647" lon="4.49984">
        <ele>434.1</ele>
        <time>2020-05-22T11:33:54.000Z</time>
      </trkpt>
      <trkpt lat="44.82653" lon="4.49997">
        <ele>434.5</ele>
        <time>2020-05-22T11:33:56.000Z</time>
      </trkpt>
      <trkpt lat="44.82659" lon="4.50011">
        <ele>434.9</ele>
        <time>2020-05-22T11:33:58.000Z</time>
      </trkpt>
      <trkpt lat="44.82664" lon="4.50024">
        <ele>435</ele>
        <time>2020-05-22T11:34:00.000Z</time>
      </trkpt>
      <trkpt lat="44.82668" lon="4.50038">
        <ele>435</ele>
        <time>2020-05-22T11:34:02.000Z</time>
      </trkpt>
      <trkpt lat="44.82672" lon="4.50053">
        <ele>434.9</ele>
        <time>2020-05-22T11:34:04.000Z</time>
      </trkpt>
      <trkpt lat="44.82676" lon="4.50069">
        <ele>434.9</ele>
        <time>2020-05-22T11:34:06.000Z</time>
      </trkpt>
      <trkpt lat="44.8268" lon="4.50087">
        <ele>434.7</ele>
        <time>2020-05-22T11:34:08.000Z</time>
      </trkpt>
      <trkpt lat="44.82683" lon="4.50105">
        <ele>434.6</ele>
        <time>2020-05-22T11:34:10.000Z</time>
      </trkpt>
      <trkpt lat="44.82685" lon="4.50124">
        <ele>434.2</ele>
        <time>2020-05-22T11:34:12.000Z</time>
      </trkpt>
      <trkpt lat="44.82685" lon="4.50144">
        <ele>434</ele>
        <time>2020-05-22T11:34:14.000Z</time>
      </trkpt>
      <trkpt lat="44.82682" lon="4.50165">
        <ele>433.8</ele>
        <time>2020-05-22T11:34:16.000Z</time>
      </trkpt>
      <trkpt lat="44.82677" lon="4.50185">
        <ele>433.7</ele>
        <time>2020-05-22T11:34:18.000Z</time>
      </trkpt>
      <trkpt lat="44.82674" lon="4.50205">
        <ele>433.6</ele>
        <time>2020-05-22T11:34:20.000Z</time>
      </trkpt>
      <trkpt lat="44.82673" lon="4.50226">
        <ele>433.5</ele>
        <time>2020-05-22T11:34:22.000Z</time>
      </trkpt>
      <trkpt lat="44.82674" lon="4.50248">
        <ele>433.5</ele>
        <time>2020-05-22T11:34:24.000Z</time>
      </trkpt>
      <trkpt lat="44.82675" lon="4.5027">
        <ele>433.4</ele>
        <time>2020-05-22T11:34:26.000Z</time>
      </trkpt>
      <trkpt lat="44.82675" lon="4.50292">
        <ele>433.3</ele>
        <time>2020-05-22T11:34:28.000Z</time>
      </trkpt>
      <trkpt lat="44.82677" lon="4.50315">
        <ele>433.3</ele>
        <time>2020-05-22T11:34:30.000Z</time>
      </trkpt>
      <trkpt lat="44.82684" lon="4.50336">
        <ele>433.2</ele>
        <time>2020-05-22T11:34:32.000Z</time>
      </trkpt>
      <trkpt lat="44.82697" lon="4.50351">
        <ele>433</ele>
        <time>2020-05-22T11:34:34.000Z</time>
      </trkpt>
      <trkpt lat="44.82712" lon="4.50358">
        <ele>432.8</ele>
        <time>2020-05-22T11:34:36.000Z</time>
      </trkpt>
      <trkpt lat="44.82729" lon="4.50363">
        <ele>432.6</ele>
        <time>2020-05-22T11:34:38.000Z</time>
      </trkpt>
      <trkpt lat="44.82745" lon="4.50368">
        <ele>432.4</ele>
        <time>2020-05-22T11:34:40.000Z</time>
      </trkpt>
      <trkpt lat="44.82761" lon="4.50378">
        <ele>432.1</ele>
        <time>2020-05-22T11:34:42.000Z</time>
      </trkpt>
      <trkpt lat="44.82774" lon="4.50394">
        <ele>431.9</ele>
        <time>2020-05-22T11:34:44.000Z</time>
      </trkpt>
      <trkpt lat="44.82784" lon="4.50413">
        <ele>431.6</ele>
        <time>2020-05-22T11:34:46.000Z</time>
      </trkpt>
      <trkpt lat="44.82793" lon="4.50432">
        <ele>431.3</ele>
        <time>2020-05-22T11:34:48.000Z</time>
      </trkpt>
      <trkpt lat="44.82803" lon="4.50449">
        <ele>431</ele>
        <time>2020-05-22T11:34:50.000Z</time>
      </trkpt>
      <trkpt lat="44.82812" lon="4.50467">
        <ele>430.7</ele>
        <time>2020-05-22T11:34:52.000Z</time>
      </trkpt>
      <trkpt lat="44.8282" lon="4.50487">
        <ele>430.3</ele>
        <time>2020-05-22T11:34:54.000Z</time>
      </trkpt>
      <trkpt lat="44.82828" lon="4.50506">
        <ele>429.8</ele>
        <time>2020-05-22T11:34:56.000Z</time>
      </trkpt>
      <trkpt lat="44.82841" lon="4.50519">
        <ele>429.4</ele>
        <time>2020-05-22T11:34:58.000Z</time>
      </trkpt>
      <trkpt lat="44.82856" lon="4.50519">
        <ele>429</ele>
        <time>2020-05-22T11:35:00.000Z</time>
      </trkpt>
      <trkpt lat="44.82871" lon="4.50515">
        <ele>428.6</ele>
        <time>2020-05-22T11:35:02.000Z</time>
      </trkpt>
      <trkpt lat="44.82884" lon="4.50525">
        <ele>428.3</ele>
        <time>2020-05-22T11:35:04.000Z</time>
      </trkpt>
      <trkpt lat="44.82891" lon="4.50544">
        <ele>428</ele>
        <time>2020-05-22T11:35:06.000Z</time>
      </trkpt>
      <trkpt lat="44.82893" lon="4.50567">
        <ele>427.8</ele>
        <time>2020-05-22T11:35:08.000Z</time>
      </trkpt>
      <trkpt lat="44.82894" lon="4.50601">
        <ele>427</ele>
        <time>2020-05-22T11:35:11.000Z</time>
      </trkpt>
      <trkpt lat="44.82891" lon="4.50635">
        <ele>427.1</ele>
        <time>2020-05-22T11:35:14.000Z</time>
      </trkpt>
      <trkpt lat="44.82884" lon="4.50654">
        <ele>426.8</ele>
        <time>2020-05-22T11:35:16.000Z</time>
      </trkpt>
      <trkpt lat="44.82882" lon="4.50671">
        <ele>426.4</ele>
        <time>2020-05-22T11:35:18.000Z</time>
      </trkpt>
      <trkpt lat="44.82882" lon="4.50691">
        <ele>426</ele>
        <time>2020-05-22T11:35:20.000Z</time>
      </trkpt>
      <trkpt lat="44.82885" lon="4.50711">
        <ele>425.6</ele>
        <time>2020-05-22T11:35:22.000Z</time>
      </trkpt>
      <trkpt lat="44.82891" lon="4.50732">
        <ele>425.1</ele>
        <time>2020-05-22T11:35:24.000Z</time>
      </trkpt>
      <trkpt lat="44.82898" lon="4.50754">
        <ele>424.8</ele>
        <time>2020-05-22T11:35:26.000Z</time>
      </trkpt>
      <trkpt lat="44.82905" lon="4.50777">
        <ele>424.4</ele>
        <time>2020-05-22T11:35:28.000Z</time>
      </trkpt>
      <trkpt lat="44.82915" lon="4.50797">
        <ele>424</ele>
        <time>2020-05-22T11:35:30.000Z</time>
      </trkpt>
      <trkpt lat="44.82925" lon="4.50816">
        <ele>423.6</ele>
        <time>2020-05-22T11:35:32.000Z</time>
      </trkpt>
      <trkpt lat="44.82935" lon="4.50834">
        <ele>423.3</ele>
        <time>2020-05-22T11:35:34.000Z</time>
      </trkpt>
      <trkpt lat="44.82947" lon="4.50851">
        <ele>423</ele>
        <time>2020-05-22T11:35:36.000Z</time>
      </trkpt>
      <trkpt lat="44.82959" lon="4.50868">
        <ele>422.7</ele>
        <time>2020-05-22T11:35:38.000Z</time>
      </trkpt>
      <trkpt lat="44.8297" lon="4.50887">
        <ele>422.3</ele>
        <time>2020-05-22T11:35:40.000Z</time>
      </trkpt>
      <trkpt lat="44.8298" lon="4.50906">
        <ele>422.1</ele>
        <time>2020-05-22T11:35:42.000Z</time>
      </trkpt>
      <trkpt lat="44.82978" lon="4.50928">
        <ele>421.9</ele>
        <time>2020-05-22T11:35:44.000Z</time>
      </trkpt>
      <trkpt lat="44.82973" lon="4.50949">
        <ele>421.5</ele>
        <time>2020-05-22T11:35:46.000Z</time>
      </trkpt>
      <trkpt lat="44.82973" lon="4.50971">
        <ele>421.2</ele>
        <time>2020-05-22T11:35:48.000Z</time>
      </trkpt>
      <trkpt lat="44.82976" lon="4.50993">
        <ele>420.9</ele>
        <time>2020-05-22T11:35:50.000Z</time>
      </trkpt>
      <trkpt lat="44.8298" lon="4.51016">
        <ele>420.5</ele>
        <time>2020-05-22T11:35:52.000Z</time>
      </trkpt>
      <trkpt lat="44.8298" lon="4.51039">
        <ele>419.9</ele>
        <time>2020-05-22T11:35:54.000Z</time>
      </trkpt>
      <trkpt lat="44.82976" lon="4.51061">
        <ele>419.4</ele>
        <time>2020-05-22T11:35:56.000Z</time>
      </trkpt>
      <trkpt lat="44.8297" lon="4.51084">
        <ele>418.8</ele>
        <time>2020-05-22T11:35:58.000Z</time>
      </trkpt>
      <trkpt lat="44.82963" lon="4.51107">
        <ele>418.3</ele>
        <time>2020-05-22T11:36:00.000Z</time>
      </trkpt>
      <trkpt lat="44.82952" lon="4.51126">
        <ele>417.7</ele>
        <time>2020-05-22T11:36:02.000Z</time>
      </trkpt>
      <trkpt lat="44.82939" lon="4.51143">
        <ele>417.2</ele>
        <time>2020-05-22T11:36:04.000Z</time>
      </trkpt>
      <trkpt lat="44.82934" lon="4.51153">
        <ele>417</ele>
        <time>2020-05-22T11:36:05.000Z</time>
      </trkpt>
      <trkpt lat="44.82929" lon="4.51164">
        <ele>416.7</ele>
        <time>2020-05-22T11:36:06.000Z</time>
      </trkpt>
      <trkpt lat="44.82923" lon="4.51175">
        <ele>416.5</ele>
        <time>2020-05-22T11:36:07.000Z</time>
      </trkpt>
      <trkpt lat="44.82918" lon="4.51186">
        <ele>416.4</ele>
        <time>2020-05-22T11:36:08.000Z</time>
      </trkpt>
      <trkpt lat="44.82913" lon="4.51197">
        <ele>416.2</ele>
        <time>2020-05-22T11:36:09.000Z</time>
      </trkpt>
      <trkpt lat="44.82907" lon="4.51208">
        <ele>416</ele>
        <time>2020-05-22T11:36:10.000Z</time>
      </trkpt>
      <trkpt lat="44.82903" lon="4.51219">
        <ele>415.9</ele>
        <time>2020-05-22T11:36:11.000Z</time>
      </trkpt>
      <trkpt lat="44.82899" lon="4.51231">
        <ele>415.7</ele>
        <time>2020-05-22T11:36:12.000Z</time>
      </trkpt>
      <trkpt lat="44.82897" lon="4.51244">
        <ele>415.6</ele>
        <time>2020-05-22T11:36:13.000Z</time>
      </trkpt>
      <trkpt lat="44.82896" lon="4.51257">
        <ele>415.4</ele>
        <time>2020-05-22T11:36:14.000Z</time>
      </trkpt>
      <trkpt lat="44.82896" lon="4.51283">
        <ele>415.1</ele>
        <time>2020-05-22T11:36:16.000Z</time>
      </trkpt>
      <trkpt lat="44.82897" lon="4.51296">
        <ele>414.9</ele>
        <time>2020-05-22T11:36:17.000Z</time>
      </trkpt>
      <trkpt lat="44.82899" lon="4.51309">
        <ele>414.8</ele>
        <time>2020-05-22T11:36:18.000Z</time>
      </trkpt>
      <trkpt lat="44.82903" lon="4.5132">
        <ele>414.5</ele>
        <time>2020-05-22T11:36:19.000Z</time>
      </trkpt>
      <trkpt lat="44.82911" lon="4.51328">
        <ele>414.3</ele>
        <time>2020-05-22T11:36:20.000Z</time>
      </trkpt>
      <trkpt lat="44.82919" lon="4.51333">
        <ele>414.1</ele>
        <time>2020-05-22T11:36:21.000Z</time>
      </trkpt>
      <trkpt lat="44.82927" lon="4.51337">
        <ele>413.9</ele>
        <time>2020-05-22T11:36:22.000Z</time>
      </trkpt>
      <trkpt lat="44.82937" lon="4.5134">
        <ele>413.8</ele>
        <time>2020-05-22T11:36:23.000Z</time>
      </trkpt>
      <trkpt lat="44.82954" lon="4.51345">
        <ele>413.5</ele>
        <time>2020-05-22T11:36:25.000Z</time>
      </trkpt>
      <trkpt lat="44.8297" lon="4.51354">
        <ele>413.2</ele>
        <time>2020-05-22T11:36:27.000Z</time>
      </trkpt>
      <trkpt lat="44.82982" lon="4.51371">
        <ele>412.9</ele>
        <time>2020-05-22T11:36:29.000Z</time>
      </trkpt>
      <trkpt lat="44.82986" lon="4.51394">
        <ele>412.5</ele>
        <time>2020-05-22T11:36:31.000Z</time>
      </trkpt>
      <trkpt lat="44.82991" lon="4.51417">
        <ele>412.2</ele>
        <time>2020-05-22T11:36:33.000Z</time>
      </trkpt>
      <trkpt lat="44.83" lon="4.51436">
        <ele>412</ele>
        <time>2020-05-22T11:36:35.000Z</time>
      </trkpt>
      <trkpt lat="44.8301" lon="4.51454">
        <ele>411.8</ele>
        <time>2020-05-22T11:36:37.000Z</time>
      </trkpt>
      <trkpt lat="44.83018" lon="4.51474">
        <ele>411.6</ele>
        <time>2020-05-22T11:36:39.000Z</time>
      </trkpt>
      <trkpt lat="44.83022" lon="4.51496">
        <ele>411.2</ele>
        <time>2020-05-22T11:36:41.000Z</time>
      </trkpt>
      <trkpt lat="44.83022" lon="4.51518">
        <ele>410.8</ele>
        <time>2020-05-22T11:36:43.000Z</time>
      </trkpt>
      <trkpt lat="44.83019" lon="4.5154">
        <ele>410.2</ele>
        <time>2020-05-22T11:36:45.000Z</time>
      </trkpt>
      <trkpt lat="44.83015" lon="4.51562">
        <ele>409.8</ele>
        <time>2020-05-22T11:36:47.000Z</time>
      </trkpt>
      <trkpt lat="44.83006" lon="4.51579">
        <ele>409.5</ele>
        <time>2020-05-22T11:36:49.000Z</time>
      </trkpt>
      <trkpt lat="44.82991" lon="4.51587">
        <ele>409.2</ele>
        <time>2020-05-22T11:36:51.000Z</time>
      </trkpt>
      <trkpt lat="44.82976" lon="4.51589">
        <ele>408.8</ele>
        <time>2020-05-22T11:36:53.000Z</time>
      </trkpt>
      <trkpt lat="44.82961" lon="4.51595">
        <ele>408.4</ele>
        <time>2020-05-22T11:36:55.000Z</time>
      </trkpt>
      <trkpt lat="44.82947" lon="4.51604">
        <ele>408.1</ele>
        <time>2020-05-22T11:36:57.000Z</time>
      </trkpt>
      <trkpt lat="44.82931" lon="4.51606">
        <ele>407.8</ele>
        <time>2020-05-22T11:36:59.000Z</time>
      </trkpt>
      <trkpt lat="44.82915" lon="4.51603">
        <ele>407.6</ele>
        <time>2020-05-22T11:37:01.000Z</time>
      </trkpt>
      <trkpt lat="44.829" lon="4.51605">
        <ele>407.3</ele>
        <time>2020-05-22T11:37:03.000Z</time>
      </trkpt>
      <trkpt lat="44.82889" lon="4.51621">
        <ele>407.1</ele>
        <time>2020-05-22T11:37:05.000Z</time>
      </trkpt>
      <trkpt lat="44.82887" lon="4.51643">
        <ele>406.8</ele>
        <time>2020-05-22T11:37:07.000Z</time>
      </trkpt>
      <trkpt lat="44.82891" lon="4.51664">
        <ele>406.7</ele>
        <time>2020-05-22T11:37:09.000Z</time>
      </trkpt>
      <trkpt lat="44.82897" lon="4.51685">
        <ele>406.3</ele>
        <time>2020-05-22T11:37:11.000Z</time>
      </trkpt>
      <trkpt lat="44.82907" lon="4.51704">
        <ele>406.1</ele>
        <time>2020-05-22T11:37:13.000Z</time>
      </trkpt>
      <trkpt lat="44.82918" lon="4.5172">
        <ele>405.9</ele>
        <time>2020-05-22T11:37:15.000Z</time>
      </trkpt>
      <trkpt lat="44.8293" lon="4.51734">
        <ele>405.6</ele>
        <time>2020-05-22T11:37:17.000Z</time>
      </trkpt>
      <trkpt lat="44.82942" lon="4.51748">
        <ele>405.3</ele>
        <time>2020-05-22T11:37:19.000Z</time>
      </trkpt>
      <trkpt lat="44.82951" lon="4.51765">
        <ele>404.9</ele>
        <time>2020-05-22T11:37:21.000Z</time>
      </trkpt>
      <trkpt lat="44.82959" lon="4.51782">
        <ele>404.5</ele>
        <time>2020-05-22T11:37:23.000Z</time>
      </trkpt>
      <trkpt lat="44.82967" lon="4.51799">
        <ele>404.2</ele>
        <time>2020-05-22T11:37:25.000Z</time>
      </trkpt>
      <trkpt lat="44.82978" lon="4.51814">
        <ele>404</ele>
        <time>2020-05-22T11:37:27.000Z</time>
      </trkpt>
      <trkpt lat="44.82989" lon="4.51829">
        <ele>403.8</ele>
        <time>2020-05-22T11:37:29.000Z</time>
      </trkpt>
      <trkpt lat="44.82998" lon="4.51847">
        <ele>403.6</ele>
        <time>2020-05-22T11:37:31.000Z</time>
      </trkpt>
      <trkpt lat="44.83004" lon="4.51868">
        <ele>403.3</ele>
        <time>2020-05-22T11:37:33.000Z</time>
      </trkpt>
      <trkpt lat="44.83007" lon="4.51891">
        <ele>402.8</ele>
        <time>2020-05-22T11:37:35.000Z</time>
      </trkpt>
      <trkpt lat="44.8301" lon="4.51914">
        <ele>402.2</ele>
        <time>2020-05-22T11:37:37.000Z</time>
      </trkpt>
      <trkpt lat="44.83011" lon="4.51937">
        <ele>401.6</ele>
        <time>2020-05-22T11:37:39.000Z</time>
      </trkpt>
      <trkpt lat="44.83005" lon="4.51959">
        <ele>401.2</ele>
        <time>2020-05-22T11:37:41.000Z</time>
      </trkpt>
      <trkpt lat="44.82994" lon="4.51978">
        <ele>400.7</ele>
        <time>2020-05-22T11:37:43.000Z</time>
      </trkpt>
      <trkpt lat="44.82983" lon="4.51996">
        <ele>400</ele>
        <time>2020-05-22T11:37:45.000Z</time>
      </trkpt>
      <trkpt lat="44.82972" lon="4.52015">
        <ele>399.6</ele>
        <time>2020-05-22T11:37:47.000Z</time>
      </trkpt>
      <trkpt lat="44.82961" lon="4.52033">
        <ele>399.2</ele>
        <time>2020-05-22T11:37:49.000Z</time>
      </trkpt>
      <trkpt lat="44.8295" lon="4.52052">
        <ele>398.6</ele>
        <time>2020-05-22T11:37:51.000Z</time>
      </trkpt>
      <trkpt lat="44.82938" lon="4.52069">
        <ele>398.3</ele>
        <time>2020-05-22T11:37:53.000Z</time>
      </trkpt>
      <trkpt lat="44.82925" lon="4.52087">
        <ele>397.8</ele>
        <time>2020-05-22T11:37:55.000Z</time>
      </trkpt>
      <trkpt lat="44.82913" lon="4.52104">
        <ele>397.5</ele>
        <time>2020-05-22T11:37:57.000Z</time>
      </trkpt>
      <trkpt lat="44.82901" lon="4.52121">
        <ele>397.2</ele>
        <time>2020-05-22T11:37:59.000Z</time>
      </trkpt>
      <trkpt lat="44.82889" lon="4.52138">
        <ele>396.7</ele>
        <time>2020-05-22T11:38:01.000Z</time>
      </trkpt>
      <trkpt lat="44.82877" lon="4.52156">
        <ele>396.4</ele>
        <time>2020-05-22T11:38:03.000Z</time>
      </trkpt>
      <trkpt lat="44.82864" lon="4.52173">
        <ele>396</ele>
        <time>2020-05-22T11:38:05.000Z</time>
      </trkpt>
      <trkpt lat="44.82852" lon="4.5219">
        <ele>395.5</ele>
        <time>2020-05-22T11:38:07.000Z</time>
      </trkpt>
      <trkpt lat="44.82842" lon="4.52209">
        <ele>395.1</ele>
        <time>2020-05-22T11:38:09.000Z</time>
      </trkpt>
      <trkpt lat="44.82837" lon="4.52231">
        <ele>394.9</ele>
        <time>2020-05-22T11:38:11.000Z</time>
      </trkpt>
      <trkpt lat="44.82841" lon="4.52253">
        <ele>394.5</ele>
        <time>2020-05-22T11:38:13.000Z</time>
      </trkpt>
      <trkpt lat="44.82854" lon="4.52269">
        <ele>394.1</ele>
        <time>2020-05-22T11:38:15.000Z</time>
      </trkpt>
      <trkpt lat="44.82869" lon="4.5228">
        <ele>393.6</ele>
        <time>2020-05-22T11:38:17.000Z</time>
      </trkpt>
      <trkpt lat="44.82884" lon="4.52291">
        <ele>393.2</ele>
        <time>2020-05-22T11:38:19.000Z</time>
      </trkpt>
      <trkpt lat="44.82899" lon="4.52303">
        <ele>392.8</ele>
        <time>2020-05-22T11:38:21.000Z</time>
      </trkpt>
      <trkpt lat="44.82914" lon="4.52313">
        <ele>392.4</ele>
        <time>2020-05-22T11:38:23.000Z</time>
      </trkpt>
      <trkpt lat="44.82927" lon="4.52323">
        <ele>392.1</ele>
        <time>2020-05-22T11:38:25.000Z</time>
      </trkpt>
      <trkpt lat="44.82941" lon="4.52333">
        <ele>391.8</ele>
        <time>2020-05-22T11:38:27.000Z</time>
      </trkpt>
      <trkpt lat="44.82951" lon="4.52352">
        <ele>391.4</ele>
        <time>2020-05-22T11:38:29.000Z</time>
      </trkpt>
      <trkpt lat="44.82956" lon="4.52376">
        <ele>390.9</ele>
        <time>2020-05-22T11:38:31.000Z</time>
      </trkpt>
      <trkpt lat="44.82955" lon="4.524">
        <ele>390.5</ele>
        <time>2020-05-22T11:38:33.000Z</time>
      </trkpt>
      <trkpt lat="44.8295" lon="4.52425">
        <ele>390.2</ele>
        <time>2020-05-22T11:38:35.000Z</time>
      </trkpt>
      <trkpt lat="44.82947" lon="4.52448">
        <ele>390</ele>
        <time>2020-05-22T11:38:37.000Z</time>
      </trkpt>
      <trkpt lat="44.82949" lon="4.5247">
        <ele>389.6</ele>
        <time>2020-05-22T11:38:39.000Z</time>
      </trkpt>
      <trkpt lat="44.82951" lon="4.52494">
        <ele>389.3</ele>
        <time>2020-05-22T11:38:41.000Z</time>
      </trkpt>
      <trkpt lat="44.82942" lon="4.52513">
        <ele>388.8</ele>
        <time>2020-05-22T11:38:43.000Z</time>
      </trkpt>
      <trkpt lat="44.82928" lon="4.52528">
        <ele>388.4</ele>
        <time>2020-05-22T11:38:45.000Z</time>
      </trkpt>
      <trkpt lat="44.82918" lon="4.52546">
        <ele>388.1</ele>
        <time>2020-05-22T11:38:47.000Z</time>
      </trkpt>
      <trkpt lat="44.82907" lon="4.52564">
        <ele>387.8</ele>
        <time>2020-05-22T11:38:49.000Z</time>
      </trkpt>
      <trkpt lat="44.82891" lon="4.52572">
        <ele>387.5</ele>
        <time>2020-05-22T11:38:51.000Z</time>
      </trkpt>
      <trkpt lat="44.82876" lon="4.52567">
        <ele>387.1</ele>
        <time>2020-05-22T11:38:53.000Z</time>
      </trkpt>
      <trkpt lat="44.8286" lon="4.52559">
        <ele>386.7</ele>
        <time>2020-05-22T11:38:55.000Z</time>
      </trkpt>
      <trkpt lat="44.82843" lon="4.52557">
        <ele>386.4</ele>
        <time>2020-05-22T11:38:57.000Z</time>
      </trkpt>
      <trkpt lat="44.82827" lon="4.52561">
        <ele>386.1</ele>
        <time>2020-05-22T11:38:59.000Z</time>
      </trkpt>
      <trkpt lat="44.8281" lon="4.52562">
        <ele>385.8</ele>
        <time>2020-05-22T11:39:01.000Z</time>
      </trkpt>
      <trkpt lat="44.82793" lon="4.52555">
        <ele>385.4</ele>
        <time>2020-05-22T11:39:03.000Z</time>
      </trkpt>
      <trkpt lat="44.82776" lon="4.52554">
        <ele>385</ele>
        <time>2020-05-22T11:39:05.000Z</time>
      </trkpt>
      <trkpt lat="44.8276" lon="4.52559">
        <ele>384.6</ele>
        <time>2020-05-22T11:39:07.000Z</time>
      </trkpt>
      <trkpt lat="44.82744" lon="4.52564">
        <ele>384.2</ele>
        <time>2020-05-22T11:39:09.000Z</time>
      </trkpt>
      <trkpt lat="44.82727" lon="4.5257">
        <ele>383.9</ele>
        <time>2020-05-22T11:39:11.000Z</time>
      </trkpt>
      <trkpt lat="44.82711" lon="4.52576">
        <ele>383.5</ele>
        <time>2020-05-22T11:39:13.000Z</time>
      </trkpt>
      <trkpt lat="44.82697" lon="4.52589">
        <ele>383.1</ele>
        <time>2020-05-22T11:39:15.000Z</time>
      </trkpt>
      <trkpt lat="44.82689" lon="4.52611">
        <ele>382.7</ele>
        <time>2020-05-22T11:39:17.000Z</time>
      </trkpt>
      <trkpt lat="44.82692" lon="4.52633">
        <ele>382.3</ele>
        <time>2020-05-22T11:39:19.000Z</time>
      </trkpt>
      <trkpt lat="44.82699" lon="4.52653">
        <ele>382</ele>
        <time>2020-05-22T11:39:21.000Z</time>
      </trkpt>
      <trkpt lat="44.82708" lon="4.52673">
        <ele>381.6</ele>
        <time>2020-05-22T11:39:23.000Z</time>
      </trkpt>
      <trkpt lat="44.82717" lon="4.52694">
        <ele>381</ele>
        <time>2020-05-22T11:39:25.000Z</time>
      </trkpt>
      <trkpt lat="44.82725" lon="4.52714">
        <ele>380.6</ele>
        <time>2020-05-22T11:39:27.000Z</time>
      </trkpt>
      <trkpt lat="44.82734" lon="4.52734">
        <ele>380.1</ele>
        <time>2020-05-22T11:39:29.000Z</time>
      </trkpt>
      <trkpt lat="44.82742" lon="4.52754">
        <ele>379.5</ele>
        <time>2020-05-22T11:39:31.000Z</time>
      </trkpt>
      <trkpt lat="44.82748" lon="4.52775">
        <ele>379</ele>
        <time>2020-05-22T11:39:33.000Z</time>
      </trkpt>
      <trkpt lat="44.82747" lon="4.52797">
        <ele>378.5</ele>
        <time>2020-05-22T11:39:35.000Z</time>
      </trkpt>
      <trkpt lat="44.82737" lon="4.52813">
        <ele>377.9</ele>
        <time>2020-05-22T11:39:37.000Z</time>
      </trkpt>
      <trkpt lat="44.82722" lon="4.52821">
        <ele>377.3</ele>
        <time>2020-05-22T11:39:39.000Z</time>
      </trkpt>
      <trkpt lat="44.82706" lon="4.52827">
        <ele>376.8</ele>
        <time>2020-05-22T11:39:41.000Z</time>
      </trkpt>
      <trkpt lat="44.82691" lon="4.52836">
        <ele>376.3</ele>
        <time>2020-05-22T11:39:43.000Z</time>
      </trkpt>
      <trkpt lat="44.8268" lon="4.52852">
        <ele>376</ele>
        <time>2020-05-22T11:39:45.000Z</time>
      </trkpt>
      <trkpt lat="44.82672" lon="4.52873">
        <ele>375.7</ele>
        <time>2020-05-22T11:39:47.000Z</time>
      </trkpt>
      <trkpt lat="44.82663" lon="4.52893">
        <ele>375.4</ele>
        <time>2020-05-22T11:39:49.000Z</time>
      </trkpt>
      <trkpt lat="44.82649" lon="4.5291">
        <ele>375.1</ele>
        <time>2020-05-22T11:39:51.000Z</time>
      </trkpt>
      <trkpt lat="44.82641" lon="4.52917">
        <ele>374.9</ele>
        <time>2020-05-22T11:39:52.000Z</time>
      </trkpt>
      <trkpt lat="44.82633" lon="4.52923">
        <ele>374.8</ele>
        <time>2020-05-22T11:39:53.000Z</time>
      </trkpt>
      <trkpt lat="44.82618" lon="4.52936">
        <ele>374.5</ele>
        <time>2020-05-22T11:39:55.000Z</time>
      </trkpt>
      <trkpt lat="44.82607" lon="4.52952">
        <ele>374.3</ele>
        <time>2020-05-22T11:39:57.000Z</time>
      </trkpt>
      <trkpt lat="44.82599" lon="4.52973">
        <ele>374.1</ele>
        <time>2020-05-22T11:39:59.000Z</time>
      </trkpt>
      <trkpt lat="44.82594" lon="4.52996">
        <ele>373.8</ele>
        <time>2020-05-22T11:40:01.000Z</time>
      </trkpt>
      <trkpt lat="44.8259" lon="4.53021">
        <ele>373.6</ele>
        <time>2020-05-22T11:40:03.000Z</time>
      </trkpt>
      <trkpt lat="44.82592" lon="4.53045">
        <ele>373.4</ele>
        <time>2020-05-22T11:40:05.000Z</time>
      </trkpt>
      <trkpt lat="44.82595" lon="4.53058">
        <ele>373.2</ele>
        <time>2020-05-22T11:40:06.000Z</time>
      </trkpt>
      <trkpt lat="44.82599" lon="4.53071">
        <ele>373.1</ele>
        <time>2020-05-22T11:40:07.000Z</time>
      </trkpt>
      <trkpt lat="44.82603" lon="4.53084">
        <ele>372.9</ele>
        <time>2020-05-22T11:40:08.000Z</time>
      </trkpt>
      <trkpt lat="44.82607" lon="4.53096">
        <ele>372.8</ele>
        <time>2020-05-22T11:40:09.000Z</time>
      </trkpt>
      <trkpt lat="44.82612" lon="4.53108">
        <ele>372.6</ele>
        <time>2020-05-22T11:40:10.000Z</time>
      </trkpt>
      <trkpt lat="44.82617" lon="4.5312">
        <ele>372.5</ele>
        <time>2020-05-22T11:40:11.000Z</time>
      </trkpt>
      <trkpt lat="44.82622" lon="4.53131">
        <ele>372.2</ele>
        <time>2020-05-22T11:40:12.000Z</time>
      </trkpt>
      <trkpt lat="44.82627" lon="4.53141">
        <ele>372</ele>
        <time>2020-05-22T11:40:13.000Z</time>
      </trkpt>
      <trkpt lat="44.8264" lon="4.53158">
        <ele>371.5</ele>
        <time>2020-05-22T11:40:15.000Z</time>
      </trkpt>
      <trkpt lat="44.82661" lon="4.53179">
        <ele>370</ele>
        <time>2020-05-22T11:40:18.000Z</time>
      </trkpt>
      <trkpt lat="44.82686" lon="4.53195">
        <ele>370.2</ele>
        <time>2020-05-22T11:40:21.000Z</time>
      </trkpt>
      <trkpt lat="44.827" lon="4.53207">
        <ele>369.9</ele>
        <time>2020-05-22T11:40:23.000Z</time>
      </trkpt>
      <trkpt lat="44.82712" lon="4.53225">
        <ele>369.5</ele>
        <time>2020-05-22T11:40:25.000Z</time>
      </trkpt>
      <trkpt lat="44.82719" lon="4.53248">
        <ele>369</ele>
        <time>2020-05-22T11:40:27.000Z</time>
      </trkpt>
      <trkpt lat="44.82722" lon="4.53269">
        <ele>368.7</ele>
        <time>2020-05-22T11:40:29.000Z</time>
      </trkpt>
      <trkpt lat="44.82722" lon="4.53291">
        <ele>368.5</ele>
        <time>2020-05-22T11:40:31.000Z</time>
      </trkpt>
      <trkpt lat="44.82722" lon="4.53314">
        <ele>368.5</ele>
        <time>2020-05-22T11:40:33.000Z</time>
      </trkpt>
      <trkpt lat="44.82724" lon="4.53337">
        <ele>368.4</ele>
        <time>2020-05-22T11:40:35.000Z</time>
      </trkpt>
      <trkpt lat="44.82725" lon="4.53351">
        <ele>368.4</ele>
        <time>2020-05-22T11:40:36.000Z</time>
      </trkpt>
      <trkpt lat="44.82725" lon="4.53364">
        <ele>368.4</ele>
        <time>2020-05-22T11:40:37.000Z</time>
      </trkpt>
      <trkpt lat="44.82726" lon="4.53377">
        <ele>368.3</ele>
        <time>2020-05-22T11:40:38.000Z</time>
      </trkpt>
      <trkpt lat="44.82726" lon="4.5339">
        <ele>368.2</ele>
        <time>2020-05-22T11:40:39.000Z</time>
      </trkpt>
      <trkpt lat="44.82726" lon="4.53404">
        <ele>368.1</ele>
        <time>2020-05-22T11:40:40.000Z</time>
      </trkpt>
      <trkpt lat="44.82726" lon="4.53417">
        <ele>368</ele>
        <time>2020-05-22T11:40:41.000Z</time>
      </trkpt>
      <trkpt lat="44.82725" lon="4.5343">
        <ele>367.9</ele>
        <time>2020-05-22T11:40:42.000Z</time>
      </trkpt>
      <trkpt lat="44.82725" lon="4.53443">
        <ele>367.8</ele>
        <time>2020-05-22T11:40:43.000Z</time>
      </trkpt>
      <trkpt lat="44.82724" lon="4.53457">
        <ele>367.6</ele>
        <time>2020-05-22T11:40:44.000Z</time>
      </trkpt>
      <trkpt lat="44.82724" lon="4.53469">
        <ele>367.3</ele>
        <time>2020-05-22T11:40:45.000Z</time>
      </trkpt>
      <trkpt lat="44.82724" lon="4.53483">
        <ele>367.1</ele>
        <time>2020-05-22T11:40:46.000Z</time>
      </trkpt>
      <trkpt lat="44.82724" lon="4.53496">
        <ele>366.8</ele>
        <time>2020-05-22T11:40:47.000Z</time>
      </trkpt>
      <trkpt lat="44.82724" lon="4.5351">
        <ele>366.6</ele>
        <time>2020-05-22T11:40:48.000Z</time>
      </trkpt>
      <trkpt lat="44.82723" lon="4.53523">
        <ele>366.4</ele>
        <time>2020-05-22T11:40:49.000Z</time>
      </trkpt>
      <trkpt lat="44.82722" lon="4.53536">
        <ele>366.3</ele>
        <time>2020-05-22T11:40:50.000Z</time>
      </trkpt>
      <trkpt lat="44.8272" lon="4.53561">
        <ele>366</ele>
        <time>2020-05-22T11:40:52.000Z</time>
      </trkpt>
      <trkpt lat="44.82718" lon="4.53586">
        <ele>365.7</ele>
        <time>2020-05-22T11:40:54.000Z</time>
      </trkpt>
      <trkpt lat="44.82714" lon="4.53611">
        <ele>365.1</ele>
        <time>2020-05-22T11:40:56.000Z</time>
      </trkpt>
      <trkpt lat="44.82711" lon="4.53623">
        <ele>364.9</ele>
        <time>2020-05-22T11:40:57.000Z</time>
      </trkpt>
      <trkpt lat="44.82708" lon="4.53636">
        <ele>364.7</ele>
        <time>2020-05-22T11:40:58.000Z</time>
      </trkpt>
      <trkpt lat="44.82705" lon="4.53649">
        <ele>364.4</ele>
        <time>2020-05-22T11:40:59.000Z</time>
      </trkpt>
      <trkpt lat="44.82701" lon="4.5366">
        <ele>364.2</ele>
        <time>2020-05-22T11:41:00.000Z</time>
      </trkpt>
      <trkpt lat="44.82696" lon="4.53672">
        <ele>364.1</ele>
        <time>2020-05-22T11:41:01.000Z</time>
      </trkpt>
      <trkpt lat="44.82691" lon="4.53683">
        <ele>363.9</ele>
        <time>2020-05-22T11:41:02.000Z</time>
      </trkpt>
      <trkpt lat="44.82685" lon="4.53695">
        <ele>363.7</ele>
        <time>2020-05-22T11:41:03.000Z</time>
      </trkpt>
      <trkpt lat="44.8268" lon="4.53706">
        <ele>363.6</ele>
        <time>2020-05-22T11:41:04.000Z</time>
      </trkpt>
      <trkpt lat="44.82674" lon="4.53717">
        <ele>363.4</ele>
        <time>2020-05-22T11:41:05.000Z</time>
      </trkpt>
      <trkpt lat="44.82668" lon="4.53728">
        <ele>363.3</ele>
        <time>2020-05-22T11:41:06.000Z</time>
      </trkpt>
      <trkpt lat="44.82663" lon="4.53739">
        <ele>363.1</ele>
        <time>2020-05-22T11:41:07.000Z</time>
      </trkpt>
      <trkpt lat="44.82653" lon="4.53759">
        <ele>362.8</ele>
        <time>2020-05-22T11:41:09.000Z</time>
      </trkpt>
      <trkpt lat="44.82648" lon="4.5377">
        <ele>362.7</ele>
        <time>2020-05-22T11:41:10.000Z</time>
      </trkpt>
      <trkpt lat="44.82643" lon="4.53781">
        <ele>362.5</ele>
        <time>2020-05-22T11:41:11.000Z</time>
      </trkpt>
      <trkpt lat="44.82638" lon="4.53792">
        <ele>362.3</ele>
        <time>2020-05-22T11:41:12.000Z</time>
      </trkpt>
      <trkpt lat="44.82633" lon="4.53804">
        <ele>362.2</ele>
        <time>2020-05-22T11:41:13.000Z</time>
      </trkpt>
      <trkpt lat="44.82628" lon="4.53815">
        <ele>362</ele>
        <time>2020-05-22T11:41:14.000Z</time>
      </trkpt>
      <trkpt lat="44.82623" lon="4.53826">
        <ele>361.8</ele>
        <time>2020-05-22T11:41:15.000Z</time>
      </trkpt>
      <trkpt lat="44.82618" lon="4.53838">
        <ele>361.6</ele>
        <time>2020-05-22T11:41:16.000Z</time>
      </trkpt>
      <trkpt lat="44.82614" lon="4.53849">
        <ele>361.4</ele>
        <time>2020-05-22T11:41:17.000Z</time>
      </trkpt>
      <trkpt lat="44.8261" lon="4.53873">
        <ele>361</ele>
        <time>2020-05-22T11:41:19.000Z</time>
      </trkpt>
      <trkpt lat="44.82611" lon="4.53896">
        <ele>360.6</ele>
        <time>2020-05-22T11:41:21.000Z</time>
      </trkpt>
      <trkpt lat="44.82615" lon="4.53908">
        <ele>360.5</ele>
        <time>2020-05-22T11:41:22.000Z</time>
      </trkpt>
      <trkpt lat="44.82627" lon="4.53926">
        <ele>360</ele>
        <time>2020-05-22T11:41:24.000Z</time>
      </trkpt>
      <trkpt lat="44.82641" lon="4.53942">
        <ele>359.6</ele>
        <time>2020-05-22T11:41:26.000Z</time>
      </trkpt>
      <trkpt lat="44.82648" lon="4.53951">
        <ele>359.3</ele>
        <time>2020-05-22T11:41:27.000Z</time>
      </trkpt>
      <trkpt lat="44.82654" lon="4.53962">
        <ele>359</ele>
        <time>2020-05-22T11:41:28.000Z</time>
      </trkpt>
      <trkpt lat="44.82659" lon="4.53973">
        <ele>358.8</ele>
        <time>2020-05-22T11:41:29.000Z</time>
      </trkpt>
      <trkpt lat="44.82665" lon="4.53984">
        <ele>358.5</ele>
        <time>2020-05-22T11:41:30.000Z</time>
      </trkpt>
      <trkpt lat="44.82671" lon="4.53995">
        <ele>358.3</ele>
        <time>2020-05-22T11:41:31.000Z</time>
      </trkpt>
      <trkpt lat="44.82676" lon="4.54007">
        <ele>358.1</ele>
        <time>2020-05-22T11:41:32.000Z</time>
      </trkpt>
      <trkpt lat="44.82681" lon="4.54019">
        <ele>357.9</ele>
        <time>2020-05-22T11:41:33.000Z</time>
      </trkpt>
      <trkpt lat="44.82685" lon="4.54031">
        <ele>357.6</ele>
        <time>2020-05-22T11:41:34.000Z</time>
      </trkpt>
      <trkpt lat="44.8269" lon="4.54043">
        <ele>357.5</ele>
        <time>2020-05-22T11:41:35.000Z</time>
      </trkpt>
      <trkpt lat="44.82695" lon="4.54055">
        <ele>357.3</ele>
        <time>2020-05-22T11:41:36.000Z</time>
      </trkpt>
      <trkpt lat="44.82699" lon="4.54067">
        <ele>357.1</ele>
        <time>2020-05-22T11:41:37.000Z</time>
      </trkpt>
      <trkpt lat="44.82703" lon="4.5408">
        <ele>357</ele>
        <time>2020-05-22T11:41:38.000Z</time>
      </trkpt>
      <trkpt lat="44.82704" lon="4.54093">
        <ele>356.8</ele>
        <time>2020-05-22T11:41:39.000Z</time>
      </trkpt>
      <trkpt lat="44.82701" lon="4.5412">
        <ele>356.5</ele>
        <time>2020-05-22T11:41:41.000Z</time>
      </trkpt>
      <trkpt lat="44.82698" lon="4.54133">
        <ele>356.3</ele>
        <time>2020-05-22T11:41:42.000Z</time>
      </trkpt>
      <trkpt lat="44.82696" lon="4.54147">
        <ele>356.1</ele>
        <time>2020-05-22T11:41:43.000Z</time>
      </trkpt>
      <trkpt lat="44.82694" lon="4.5416">
        <ele>355.8</ele>
        <time>2020-05-22T11:41:44.000Z</time>
      </trkpt>
      <trkpt lat="44.82692" lon="4.54174">
        <ele>355.6</ele>
        <time>2020-05-22T11:41:45.000Z</time>
      </trkpt>
      <trkpt lat="44.8269" lon="4.54188">
        <ele>355.4</ele>
        <time>2020-05-22T11:41:46.000Z</time>
      </trkpt>
      <trkpt lat="44.82688" lon="4.54202">
        <ele>355.2</ele>
        <time>2020-05-22T11:41:47.000Z</time>
      </trkpt>
      <trkpt lat="44.82687" lon="4.54216">
        <ele>355</ele>
        <time>2020-05-22T11:41:48.000Z</time>
      </trkpt>
      <trkpt lat="44.82684" lon="4.54229">
        <ele>354.8</ele>
        <time>2020-05-22T11:41:49.000Z</time>
      </trkpt>
      <trkpt lat="44.82681" lon="4.54242">
        <ele>354.6</ele>
        <time>2020-05-22T11:41:50.000Z</time>
      </trkpt>
      <trkpt lat="44.82678" lon="4.54255">
        <ele>354.5</ele>
        <time>2020-05-22T11:41:51.000Z</time>
      </trkpt>
      <trkpt lat="44.82676" lon="4.54268">
        <ele>354.3</ele>
        <time>2020-05-22T11:41:52.000Z</time>
      </trkpt>
      <trkpt lat="44.82675" lon="4.54281">
        <ele>354.1</ele>
        <time>2020-05-22T11:41:53.000Z</time>
      </trkpt>
      <trkpt lat="44.82674" lon="4.54295">
        <ele>353.8</ele>
        <time>2020-05-22T11:41:54.000Z</time>
      </trkpt>
      <trkpt lat="44.82674" lon="4.54308">
        <ele>353.5</ele>
        <time>2020-05-22T11:41:55.000Z</time>
      </trkpt>
      <trkpt lat="44.82674" lon="4.54321">
        <ele>353.3</ele>
        <time>2020-05-22T11:41:56.000Z</time>
      </trkpt>
      <trkpt lat="44.82674" lon="4.54334">
        <ele>353</ele>
        <time>2020-05-22T11:41:57.000Z</time>
      </trkpt>
      <trkpt lat="44.82674" lon="4.54347">
        <ele>352.6</ele>
        <time>2020-05-22T11:41:58.000Z</time>
      </trkpt>
      <trkpt lat="44.82675" lon="4.5436">
        <ele>352.3</ele>
        <time>2020-05-22T11:41:59.000Z</time>
      </trkpt>
      <trkpt lat="44.82681" lon="4.54383">
        <ele>351.6</ele>
        <time>2020-05-22T11:42:01.000Z</time>
      </trkpt>
      <trkpt lat="44.82709" lon="4.54419">
        <ele>349</ele>
        <time>2020-05-22T11:42:05.000Z</time>
      </trkpt>
      <trkpt lat="44.82752" lon="4.5445">
        <ele>348.8</ele>
        <time>2020-05-22T11:42:10.000Z</time>
      </trkpt>
      <trkpt lat="44.82761" lon="4.54454">
        <ele>348.6</ele>
        <time>2020-05-22T11:42:11.000Z</time>
      </trkpt>
      <trkpt lat="44.82771" lon="4.54457">
        <ele>348.4</ele>
        <time>2020-05-22T11:42:12.000Z</time>
      </trkpt>
      <trkpt lat="44.8278" lon="4.54461">
        <ele>348.2</ele>
        <time>2020-05-22T11:42:13.000Z</time>
      </trkpt>
      <trkpt lat="44.8279" lon="4.54464">
        <ele>348.1</ele>
        <time>2020-05-22T11:42:14.000Z</time>
      </trkpt>
      <trkpt lat="44.828" lon="4.54467">
        <ele>347.9</ele>
        <time>2020-05-22T11:42:15.000Z</time>
      </trkpt>
      <trkpt lat="44.82811" lon="4.5447">
        <ele>347.7</ele>
        <time>2020-05-22T11:42:16.000Z</time>
      </trkpt>
      <trkpt lat="44.82821" lon="4.54472">
        <ele>347.5</ele>
        <time>2020-05-22T11:42:17.000Z</time>
      </trkpt>
      <trkpt lat="44.82841" lon="4.54473">
        <ele>347</ele>
        <time>2020-05-22T11:42:19.000Z</time>
      </trkpt>
      <trkpt lat="44.82871" lon="4.54475">
        <ele>346.7</ele>
        <time>2020-05-22T11:42:22.000Z</time>
      </trkpt>
      <trkpt lat="44.8288" lon="4.54473">
        <ele>346.5</ele>
        <time>2020-05-22T11:42:23.000Z</time>
      </trkpt>
      <trkpt lat="44.8289" lon="4.54469">
        <ele>346.3</ele>
        <time>2020-05-22T11:42:24.000Z</time>
      </trkpt>
      <trkpt lat="44.82899" lon="4.54464">
        <ele>346.1</ele>
        <time>2020-05-22T11:42:25.000Z</time>
      </trkpt>
      <trkpt lat="44.82908" lon="4.54458">
        <ele>345.9</ele>
        <time>2020-05-22T11:42:26.000Z</time>
      </trkpt>
      <trkpt lat="44.82917" lon="4.54452">
        <ele>345.7</ele>
        <time>2020-05-22T11:42:27.000Z</time>
      </trkpt>
      <trkpt lat="44.82927" lon="4.54447">
        <ele>345.4</ele>
        <time>2020-05-22T11:42:28.000Z</time>
      </trkpt>
      <trkpt lat="44.82936" lon="4.54442">
        <ele>345.2</ele>
        <time>2020-05-22T11:42:29.000Z</time>
      </trkpt>
      <trkpt lat="44.82944" lon="4.54436">
        <ele>344.9</ele>
        <time>2020-05-22T11:42:30.000Z</time>
      </trkpt>
      <trkpt lat="44.82952" lon="4.54427">
        <ele>344.7</ele>
        <time>2020-05-22T11:42:31.000Z</time>
      </trkpt>
      <trkpt lat="44.82959" lon="4.54418">
        <ele>344.5</ele>
        <time>2020-05-22T11:42:32.000Z</time>
      </trkpt>
      <trkpt lat="44.82966" lon="4.54409">
        <ele>344.3</ele>
        <time>2020-05-22T11:42:33.000Z</time>
      </trkpt>
      <trkpt lat="44.82974" lon="4.544">
        <ele>344</ele>
        <time>2020-05-22T11:42:34.000Z</time>
      </trkpt>
      <trkpt lat="44.82981" lon="4.54392">
        <ele>343.8</ele>
        <time>2020-05-22T11:42:35.000Z</time>
      </trkpt>
      <trkpt lat="44.82987" lon="4.5438">
        <ele>343.5</ele>
        <time>2020-05-22T11:42:36.000Z</time>
      </trkpt>
      <trkpt lat="44.82992" lon="4.54368">
        <ele>343.2</ele>
        <time>2020-05-22T11:42:37.000Z</time>
      </trkpt>
      <trkpt lat="44.82997" lon="4.54356">
        <ele>342.7</ele>
        <time>2020-05-22T11:42:38.000Z</time>
      </trkpt>
      <trkpt lat="44.83002" lon="4.54345">
        <ele>342.3</ele>
        <time>2020-05-22T11:42:39.000Z</time>
      </trkpt>
      <trkpt lat="44.83007" lon="4.54333">
        <ele>342</ele>
        <time>2020-05-22T11:42:40.000Z</time>
      </trkpt>
      <trkpt lat="44.83011" lon="4.5432">
        <ele>341.6</ele>
        <time>2020-05-22T11:42:41.000Z</time>
      </trkpt>
      <trkpt lat="44.83013" lon="4.54307">
        <ele>341.2</ele>
        <time>2020-05-22T11:42:42.000Z</time>
      </trkpt>
      <trkpt lat="44.83013" lon="4.54294">
        <ele>340.8</ele>
        <time>2020-05-22T11:42:43.000Z</time>
      </trkpt>
      <trkpt lat="44.83013" lon="4.5428">
        <ele>340.4</ele>
        <time>2020-05-22T11:42:44.000Z</time>
      </trkpt>
      <trkpt lat="44.83013" lon="4.54267">
        <ele>340</ele>
        <time>2020-05-22T11:42:45.000Z</time>
      </trkpt>
      <trkpt lat="44.83013" lon="4.54252">
        <ele>339.6</ele>
        <time>2020-05-22T11:42:46.000Z</time>
      </trkpt>
      <trkpt lat="44.83013" lon="4.54239">
        <ele>339.1</ele>
        <time>2020-05-22T11:42:47.000Z</time>
      </trkpt>
      <trkpt lat="44.83014" lon="4.54225">
        <ele>338.7</ele>
        <time>2020-05-22T11:42:48.000Z</time>
      </trkpt>
      <trkpt lat="44.83015" lon="4.54211">
        <ele>338.3</ele>
        <time>2020-05-22T11:42:49.000Z</time>
      </trkpt>
      <trkpt lat="44.83019" lon="4.542">
        <ele>337.9</ele>
        <time>2020-05-22T11:42:50.000Z</time>
      </trkpt>
      <trkpt lat="44.83024" lon="4.5419">
        <ele>337.6</ele>
        <time>2020-05-22T11:42:51.000Z</time>
      </trkpt>
      <trkpt lat="44.83034" lon="4.54189">
        <ele>337.2</ele>
        <time>2020-05-22T11:42:52.000Z</time>
      </trkpt>
      <trkpt lat="44.8305" lon="4.54183">
        <ele>336.6</ele>
        <time>2020-05-22T11:42:54.000Z</time>
      </trkpt>
      <trkpt lat="44.83068" lon="4.54181">
        <ele>336.1</ele>
        <time>2020-05-22T11:42:56.000Z</time>
      </trkpt>
      <trkpt lat="44.83077" lon="4.54184">
        <ele>335.9</ele>
        <time>2020-05-22T11:42:57.000Z</time>
      </trkpt>
      <trkpt lat="44.83086" lon="4.54189">
        <ele>335.6</ele>
        <time>2020-05-22T11:42:58.000Z</time>
      </trkpt>
      <trkpt lat="44.831" lon="4.54205">
        <ele>335.2</ele>
        <time>2020-05-22T11:43:00.000Z</time>
      </trkpt>
      <trkpt lat="44.83105" lon="4.54231">
        <ele>334.8</ele>
        <time>2020-05-22T11:43:02.000Z</time>
      </trkpt>
      <trkpt lat="44.83108" lon="4.54244">
        <ele>334.7</ele>
        <time>2020-05-22T11:43:03.000Z</time>
      </trkpt>
      <trkpt lat="44.83111" lon="4.54258">
        <ele>334.5</ele>
        <time>2020-05-22T11:43:04.000Z</time>
      </trkpt>
      <trkpt lat="44.83113" lon="4.54271">
        <ele>334.3</ele>
        <time>2020-05-22T11:43:05.000Z</time>
      </trkpt>
      <trkpt lat="44.83116" lon="4.54285">
        <ele>334.1</ele>
        <time>2020-05-22T11:43:06.000Z</time>
      </trkpt>
      <trkpt lat="44.83118" lon="4.54299">
        <ele>333.9</ele>
        <time>2020-05-22T11:43:07.000Z</time>
      </trkpt>
      <trkpt lat="44.8312" lon="4.54312">
        <ele>333.7</ele>
        <time>2020-05-22T11:43:08.000Z</time>
      </trkpt>
      <trkpt lat="44.83121" lon="4.54326">
        <ele>333.5</ele>
        <time>2020-05-22T11:43:09.000Z</time>
      </trkpt>
      <trkpt lat="44.8312" lon="4.5434">
        <ele>333.3</ele>
        <time>2020-05-22T11:43:10.000Z</time>
      </trkpt>
      <trkpt lat="44.8312" lon="4.54353">
        <ele>333.1</ele>
        <time>2020-05-22T11:43:11.000Z</time>
      </trkpt>
      <trkpt lat="44.8312" lon="4.54366">
        <ele>332.8</ele>
        <time>2020-05-22T11:43:12.000Z</time>
      </trkpt>
      <trkpt lat="44.83121" lon="4.5438">
        <ele>332.5</ele>
        <time>2020-05-22T11:43:13.000Z</time>
      </trkpt>
      <trkpt lat="44.83122" lon="4.54393">
        <ele>332.3</ele>
        <time>2020-05-22T11:43:14.000Z</time>
      </trkpt>
      <trkpt lat="44.83123" lon="4.54407">
        <ele>332</ele>
        <time>2020-05-22T11:43:15.000Z</time>
      </trkpt>
      <trkpt lat="44.83124" lon="4.5442">
        <ele>331.7</ele>
        <time>2020-05-22T11:43:16.000Z</time>
      </trkpt>
      <trkpt lat="44.83126" lon="4.54433">
        <ele>331.4</ele>
        <time>2020-05-22T11:43:17.000Z</time>
      </trkpt>
      <trkpt lat="44.83127" lon="4.54446">
        <ele>331.1</ele>
        <time>2020-05-22T11:43:18.000Z</time>
      </trkpt>
      <trkpt lat="44.83129" lon="4.54459">
        <ele>330.8</ele>
        <time>2020-05-22T11:43:19.000Z</time>
      </trkpt>
      <trkpt lat="44.83132" lon="4.54471">
        <ele>330.5</ele>
        <time>2020-05-22T11:43:20.000Z</time>
      </trkpt>
      <trkpt lat="44.83135" lon="4.54484">
        <ele>330.2</ele>
        <time>2020-05-22T11:43:21.000Z</time>
      </trkpt>
      <trkpt lat="44.83141" lon="4.54496">
        <ele>329.9</ele>
        <time>2020-05-22T11:43:22.000Z</time>
      </trkpt>
      <trkpt lat="44.83155" lon="4.54512">
        <ele>329.3</ele>
        <time>2020-05-22T11:43:24.000Z</time>
      </trkpt>
      <trkpt lat="44.83188" lon="4.5455">
        <ele>327</ele>
        <time>2020-05-22T11:43:29.000Z</time>
      </trkpt>
      <trkpt lat="44.83235" lon="4.54604">
        <ele>325</ele>
        <time>2020-05-22T11:43:35.000Z</time>
      </trkpt>
      <trkpt lat="44.83262" lon="4.54656">
        <ele>324.5</ele>
        <time>2020-05-22T11:43:40.000Z</time>
      </trkpt>
      <trkpt lat="44.83268" lon="4.54668">
        <ele>324.2</ele>
        <time>2020-05-22T11:43:41.000Z</time>
      </trkpt>
      <trkpt lat="44.83275" lon="4.5468">
        <ele>324</ele>
        <time>2020-05-22T11:43:42.000Z</time>
      </trkpt>
      <trkpt lat="44.83283" lon="4.54689">
        <ele>323.7</ele>
        <time>2020-05-22T11:43:43.000Z</time>
      </trkpt>
      <trkpt lat="44.83293" lon="4.54697">
        <ele>323.5</ele>
        <time>2020-05-22T11:43:44.000Z</time>
      </trkpt>
      <trkpt lat="44.83302" lon="4.54704">
        <ele>323.1</ele>
        <time>2020-05-22T11:43:45.000Z</time>
      </trkpt>
      <trkpt lat="44.8331" lon="4.54712">
        <ele>322.9</ele>
        <time>2020-05-22T11:43:46.000Z</time>
      </trkpt>
      <trkpt lat="44.83318" lon="4.54723">
        <ele>322.5</ele>
        <time>2020-05-22T11:43:47.000Z</time>
      </trkpt>
      <trkpt lat="44.83324" lon="4.54736">
        <ele>322.2</ele>
        <time>2020-05-22T11:43:48.000Z</time>
      </trkpt>
      <trkpt lat="44.83329" lon="4.54749">
        <ele>321.9</ele>
        <time>2020-05-22T11:43:49.000Z</time>
      </trkpt>
      <trkpt lat="44.83333" lon="4.54762">
        <ele>321.5</ele>
        <time>2020-05-22T11:43:50.000Z</time>
      </trkpt>
      <trkpt lat="44.83337" lon="4.54775">
        <ele>321.2</ele>
        <time>2020-05-22T11:43:51.000Z</time>
      </trkpt>
      <trkpt lat="44.83344" lon="4.54787">
        <ele>320.9</ele>
        <time>2020-05-22T11:43:52.000Z</time>
      </trkpt>
      <trkpt lat="44.83349" lon="4.548">
        <ele>320.6</ele>
        <time>2020-05-22T11:43:53.000Z</time>
      </trkpt>
      <trkpt lat="44.83354" lon="4.54812">
        <ele>320.3</ele>
        <time>2020-05-22T11:43:54.000Z</time>
      </trkpt>
      <trkpt lat="44.8336" lon="4.54825">
        <ele>320</ele>
        <time>2020-05-22T11:43:55.000Z</time>
      </trkpt>
      <trkpt lat="44.83365" lon="4.54839">
        <ele>319.8</ele>
        <time>2020-05-22T11:43:56.000Z</time>
      </trkpt>
      <trkpt lat="44.8337" lon="4.54852">
        <ele>319.5</ele>
        <time>2020-05-22T11:43:57.000Z</time>
      </trkpt>
      <trkpt lat="44.83375" lon="4.54866">
        <ele>319.3</ele>
        <time>2020-05-22T11:43:58.000Z</time>
      </trkpt>
      <trkpt lat="44.8338" lon="4.54879">
        <ele>319</ele>
        <time>2020-05-22T11:43:59.000Z</time>
      </trkpt>
      <trkpt lat="44.83386" lon="4.54891">
        <ele>318.8</ele>
        <time>2020-05-22T11:44:00.000Z</time>
      </trkpt>
      <trkpt lat="44.83392" lon="4.54903">
        <ele>318.6</ele>
        <time>2020-05-22T11:44:01.000Z</time>
      </trkpt>
      <trkpt lat="44.83399" lon="4.54915">
        <ele>318.3</ele>
        <time>2020-05-22T11:44:02.000Z</time>
      </trkpt>
      <trkpt lat="44.83406" lon="4.54925">
        <ele>318</ele>
        <time>2020-05-22T11:44:03.000Z</time>
      </trkpt>
      <trkpt lat="44.83414" lon="4.54935">
        <ele>317.7</ele>
        <time>2020-05-22T11:44:04.000Z</time>
      </trkpt>
      <trkpt lat="44.83422" lon="4.54944">
        <ele>317.4</ele>
        <time>2020-05-22T11:44:05.000Z</time>
      </trkpt>
      <trkpt lat="44.83431" lon="4.54952">
        <ele>317.1</ele>
        <time>2020-05-22T11:44:06.000Z</time>
      </trkpt>
      <trkpt lat="44.8344" lon="4.54959">
        <ele>316.8</ele>
        <time>2020-05-22T11:44:07.000Z</time>
      </trkpt>
      <trkpt lat="44.83449" lon="4.54966">
        <ele>316.5</ele>
        <time>2020-05-22T11:44:08.000Z</time>
      </trkpt>
      <trkpt lat="44.83458" lon="4.54973">
        <ele>316.3</ele>
        <time>2020-05-22T11:44:09.000Z</time>
      </trkpt>
      <trkpt lat="44.83467" lon="4.54979">
        <ele>316</ele>
        <time>2020-05-22T11:44:10.000Z</time>
      </trkpt>
      <trkpt lat="44.83476" lon="4.54986">
        <ele>315.8</ele>
        <time>2020-05-22T11:44:11.000Z</time>
      </trkpt>
      <trkpt lat="44.83485" lon="4.54993">
        <ele>315.5</ele>
        <time>2020-05-22T11:44:12.000Z</time>
      </trkpt>
      <trkpt lat="44.83494" lon="4.55001">
        <ele>315.2</ele>
        <time>2020-05-22T11:44:13.000Z</time>
      </trkpt>
      <trkpt lat="44.83502" lon="4.55011">
        <ele>314.9</ele>
        <time>2020-05-22T11:44:14.000Z</time>
      </trkpt>
      <trkpt lat="44.83509" lon="4.55022">
        <ele>314.7</ele>
        <time>2020-05-22T11:44:15.000Z</time>
      </trkpt>
      <trkpt lat="44.83511" lon="4.55035">
        <ele>314.5</ele>
        <time>2020-05-22T11:44:16.000Z</time>
      </trkpt>
      <trkpt lat="44.83511" lon="4.55051">
        <ele>314.2</ele>
        <time>2020-05-22T11:44:17.000Z</time>
      </trkpt>
      <trkpt lat="44.83511" lon="4.55065">
        <ele>314</ele>
        <time>2020-05-22T11:44:18.000Z</time>
      </trkpt>
      <trkpt lat="44.83511" lon="4.55079">
        <ele>313.7</ele>
        <time>2020-05-22T11:44:19.000Z</time>
      </trkpt>
      <trkpt lat="44.8351" lon="4.55093">
        <ele>313.4</ele>
        <time>2020-05-22T11:44:20.000Z</time>
      </trkpt>
      <trkpt lat="44.8351" lon="4.55106">
        <ele>313.2</ele>
        <time>2020-05-22T11:44:21.000Z</time>
      </trkpt>
      <trkpt lat="44.8351" lon="4.5512">
        <ele>313</ele>
        <time>2020-05-22T11:44:22.000Z</time>
      </trkpt>
      <trkpt lat="44.83509" lon="4.55133">
        <ele>311.5</ele>
        <time>2020-05-22T11:44:23.000Z</time>
      </trkpt>
      <trkpt lat="44.83509" lon="4.55146">
        <ele>311.5</ele>
        <time>2020-05-22T11:44:24.000Z</time>
      </trkpt>
      <trkpt lat="44.83509" lon="4.55159">
        <ele>311.6</ele>
        <time>2020-05-22T11:44:25.000Z</time>
      </trkpt>
      <trkpt lat="44.83508" lon="4.55172">
        <ele>311.5</ele>
        <time>2020-05-22T11:44:26.000Z</time>
      </trkpt>
      <trkpt lat="44.83507" lon="4.55186">
        <ele>311.4</ele>
        <time>2020-05-22T11:44:27.000Z</time>
      </trkpt>
      <trkpt lat="44.83506" lon="4.55199">
        <ele>311.2</ele>
        <time>2020-05-22T11:44:28.000Z</time>
      </trkpt>
      <trkpt lat="44.83505" lon="4.55213">
        <ele>311</ele>
        <time>2020-05-22T11:44:29.000Z</time>
      </trkpt>
      <trkpt lat="44.83503" lon="4.55226">
        <ele>310.8</ele>
        <time>2020-05-22T11:44:30.000Z</time>
      </trkpt>
      <trkpt lat="44.83501" lon="4.55239">
        <ele>310.6</ele>
        <time>2020-05-22T11:44:31.000Z</time>
      </trkpt>
      <trkpt lat="44.835" lon="4.55253">
        <ele>310.2</ele>
        <time>2020-05-22T11:44:32.000Z</time>
      </trkpt>
      <trkpt lat="44.83498" lon="4.55266">
        <ele>309.9</ele>
        <time>2020-05-22T11:44:33.000Z</time>
      </trkpt>
      <trkpt lat="44.83497" lon="4.55279">
        <ele>309.6</ele>
        <time>2020-05-22T11:44:34.000Z</time>
      </trkpt>
      <trkpt lat="44.83496" lon="4.55293">
        <ele>309.3</ele>
        <time>2020-05-22T11:44:35.000Z</time>
      </trkpt>
      <trkpt lat="44.83495" lon="4.55306">
        <ele>308.9</ele>
        <time>2020-05-22T11:44:36.000Z</time>
      </trkpt>
      <trkpt lat="44.83493" lon="4.5532">
        <ele>308.7</ele>
        <time>2020-05-22T11:44:37.000Z</time>
      </trkpt>
      <trkpt lat="44.83493" lon="4.55334">
        <ele>308.4</ele>
        <time>2020-05-22T11:44:38.000Z</time>
      </trkpt>
      <trkpt lat="44.83493" lon="4.55348">
        <ele>308.2</ele>
        <time>2020-05-22T11:44:39.000Z</time>
      </trkpt>
      <trkpt lat="44.83493" lon="4.55362">
        <ele>308.1</ele>
        <time>2020-05-22T11:44:40.000Z</time>
      </trkpt>
      <trkpt lat="44.83495" lon="4.55376">
        <ele>307.9</ele>
        <time>2020-05-22T11:44:41.000Z</time>
      </trkpt>
      <trkpt lat="44.83497" lon="4.55389">
        <ele>307.7</ele>
        <time>2020-05-22T11:44:42.000Z</time>
      </trkpt>
      <trkpt lat="44.83502" lon="4.55401">
        <ele>307.4</ele>
        <time>2020-05-22T11:44:43.000Z</time>
      </trkpt>
      <trkpt lat="44.83507" lon="4.55413">
        <ele>307.1</ele>
        <time>2020-05-22T11:44:44.000Z</time>
      </trkpt>
      <trkpt lat="44.83513" lon="4.55425">
        <ele>306.9</ele>
        <time>2020-05-22T11:44:45.000Z</time>
      </trkpt>
      <trkpt lat="44.83529" lon="4.55437">
        <ele>306.6</ele>
        <time>2020-05-22T11:44:47.000Z</time>
      </trkpt>
      <trkpt lat="44.83539" lon="4.55439">
        <ele>306.4</ele>
        <time>2020-05-22T11:44:48.000Z</time>
      </trkpt>
      <trkpt lat="44.83549" lon="4.5544">
        <ele>306.3</ele>
        <time>2020-05-22T11:44:49.000Z</time>
      </trkpt>
      <trkpt lat="44.83558" lon="4.55437">
        <ele>306.1</ele>
        <time>2020-05-22T11:44:50.000Z</time>
      </trkpt>
      <trkpt lat="44.83566" lon="4.55431">
        <ele>305.9</ele>
        <time>2020-05-22T11:44:51.000Z</time>
      </trkpt>
      <trkpt lat="44.83579" lon="4.55414">
        <ele>305.4</ele>
        <time>2020-05-22T11:44:53.000Z</time>
      </trkpt>
      <trkpt lat="44.83586" lon="4.55406">
        <ele>305.2</ele>
        <time>2020-05-22T11:44:54.000Z</time>
      </trkpt>
      <trkpt lat="44.83594" lon="4.55399">
        <ele>304.9</ele>
        <time>2020-05-22T11:44:55.000Z</time>
      </trkpt>
      <trkpt lat="44.83603" lon="4.55394">
        <ele>304.6</ele>
        <time>2020-05-22T11:44:56.000Z</time>
      </trkpt>
      <trkpt lat="44.83612" lon="4.5539">
        <ele>304.3</ele>
        <time>2020-05-22T11:44:57.000Z</time>
      </trkpt>
      <trkpt lat="44.83621" lon="4.55382">
        <ele>304</ele>
        <time>2020-05-22T11:44:58.000Z</time>
      </trkpt>
      <trkpt lat="44.83629" lon="4.55374">
        <ele>303.8</ele>
        <time>2020-05-22T11:44:59.000Z</time>
      </trkpt>
      <trkpt lat="44.83637" lon="4.55367">
        <ele>303.5</ele>
        <time>2020-05-22T11:45:00.000Z</time>
      </trkpt>
      <trkpt lat="44.83646" lon="4.5536">
        <ele>303.2</ele>
        <time>2020-05-22T11:45:01.000Z</time>
      </trkpt>
      <trkpt lat="44.83654" lon="4.55355">
        <ele>302.9</ele>
        <time>2020-05-22T11:45:02.000Z</time>
      </trkpt>
      <trkpt lat="44.83663" lon="4.55351">
        <ele>302.5</ele>
        <time>2020-05-22T11:45:03.000Z</time>
      </trkpt>
      <trkpt lat="44.83672" lon="4.5535">
        <ele>302.2</ele>
        <time>2020-05-22T11:45:04.000Z</time>
      </trkpt>
      <trkpt lat="44.83682" lon="4.5535">
        <ele>301.9</ele>
        <time>2020-05-22T11:45:05.000Z</time>
      </trkpt>
      <trkpt lat="44.83693" lon="4.55353">
        <ele>301.5</ele>
        <time>2020-05-22T11:45:06.000Z</time>
      </trkpt>
      <trkpt lat="44.83702" lon="4.55359">
        <ele>301.2</ele>
        <time>2020-05-22T11:45:07.000Z</time>
      </trkpt>
      <trkpt lat="44.83707" lon="4.55373">
        <ele>300.9</ele>
        <time>2020-05-22T11:45:08.000Z</time>
      </trkpt>
      <trkpt lat="44.83718" lon="4.55392">
        <ele>300.2</ele>
        <time>2020-05-22T11:45:10.000Z</time>
      </trkpt>
      <trkpt lat="44.83728" lon="4.55411">
        <ele>299.5</ele>
        <time>2020-05-22T11:45:12.000Z</time>
      </trkpt>
      <trkpt lat="44.83729" lon="4.55434">
        <ele>298</ele>
        <time>2020-05-22T11:45:14.000Z</time>
      </trkpt>
      <trkpt lat="44.8373" lon="4.55469">
        <ele>297.9</ele>
        <time>2020-05-22T11:45:17.000Z</time>
      </trkpt>
      <trkpt lat="44.83729" lon="4.55493">
        <ele>297.6</ele>
        <time>2020-05-22T11:45:19.000Z</time>
      </trkpt>
      <trkpt lat="44.83723" lon="4.55516">
        <ele>297.3</ele>
        <time>2020-05-22T11:45:21.000Z</time>
      </trkpt>
      <trkpt lat="44.83717" lon="4.55539">
        <ele>297.1</ele>
        <time>2020-05-22T11:45:23.000Z</time>
      </trkpt>
      <trkpt lat="44.8371" lon="4.55562">
        <ele>296.8</ele>
        <time>2020-05-22T11:45:25.000Z</time>
      </trkpt>
      <trkpt lat="44.83706" lon="4.55574">
        <ele>296.7</ele>
        <time>2020-05-22T11:45:26.000Z</time>
      </trkpt>
      <trkpt lat="44.83703" lon="4.55586">
        <ele>296.5</ele>
        <time>2020-05-22T11:45:27.000Z</time>
      </trkpt>
      <trkpt lat="44.837" lon="4.55598">
        <ele>296.3</ele>
        <time>2020-05-22T11:45:28.000Z</time>
      </trkpt>
      <trkpt lat="44.83695" lon="4.55622">
        <ele>296.1</ele>
        <time>2020-05-22T11:45:30.000Z</time>
      </trkpt>
      <trkpt lat="44.83691" lon="4.55647">
        <ele>295.6</ele>
        <time>2020-05-22T11:45:32.000Z</time>
      </trkpt>
      <trkpt lat="44.83687" lon="4.55671">
        <ele>295</ele>
        <time>2020-05-22T11:45:34.000Z</time>
      </trkpt>
      <trkpt lat="44.83684" lon="4.55696">
        <ele>294.5</ele>
        <time>2020-05-22T11:45:36.000Z</time>
      </trkpt>
      <trkpt lat="44.83683" lon="4.5572">
        <ele>294.1</ele>
        <time>2020-05-22T11:45:38.000Z</time>
      </trkpt>
      <trkpt lat="44.83684" lon="4.55744">
        <ele>293.7</ele>
        <time>2020-05-22T11:45:40.000Z</time>
      </trkpt>
      <trkpt lat="44.83685" lon="4.55769">
        <ele>293.5</ele>
        <time>2020-05-22T11:45:42.000Z</time>
      </trkpt>
      <trkpt lat="44.83684" lon="4.55781">
        <ele>293.4</ele>
        <time>2020-05-22T11:45:43.000Z</time>
      </trkpt>
      <trkpt lat="44.83682" lon="4.55794">
        <ele>293.3</ele>
        <time>2020-05-22T11:45:44.000Z</time>
      </trkpt>
      <trkpt lat="44.83676" lon="4.55819">
        <ele>293.2</ele>
        <time>2020-05-22T11:45:46.000Z</time>
      </trkpt>
      <trkpt lat="44.83672" lon="4.5583">
        <ele>293.1</ele>
        <time>2020-05-22T11:45:47.000Z</time>
      </trkpt>
      <trkpt lat="44.83667" lon="4.55842">
        <ele>292.9</ele>
        <time>2020-05-22T11:45:48.000Z</time>
      </trkpt>
      <trkpt lat="44.83661" lon="4.55852">
        <ele>292.8</ele>
        <time>2020-05-22T11:45:49.000Z</time>
      </trkpt>
      <trkpt lat="44.83654" lon="4.55862">
        <ele>292.6</ele>
        <time>2020-05-22T11:45:50.000Z</time>
      </trkpt>
      <trkpt lat="44.83647" lon="4.55871">
        <ele>292.4</ele>
        <time>2020-05-22T11:45:51.000Z</time>
      </trkpt>
      <trkpt lat="44.83639" lon="4.55879">
        <ele>292.2</ele>
        <time>2020-05-22T11:45:52.000Z</time>
      </trkpt>
      <trkpt lat="44.83631" lon="4.55887">
        <ele>291.8</ele>
        <time>2020-05-22T11:45:53.000Z</time>
      </trkpt>
      <trkpt lat="44.83623" lon="4.55893">
        <ele>291.5</ele>
        <time>2020-05-22T11:45:54.000Z</time>
      </trkpt>
      <trkpt lat="44.83614" lon="4.55899">
        <ele>291.1</ele>
        <time>2020-05-22T11:45:55.000Z</time>
      </trkpt>
      <trkpt lat="44.83606" lon="4.55904">
        <ele>290.8</ele>
        <time>2020-05-22T11:45:56.000Z</time>
      </trkpt>
      <trkpt lat="44.83597" lon="4.55908">
        <ele>290.4</ele>
        <time>2020-05-22T11:45:57.000Z</time>
      </trkpt>
      <trkpt lat="44.83588" lon="4.55913">
        <ele>290</ele>
        <time>2020-05-22T11:45:58.000Z</time>
      </trkpt>
      <trkpt lat="44.8358" lon="4.55917">
        <ele>289.6</ele>
        <time>2020-05-22T11:45:59.000Z</time>
      </trkpt>
      <trkpt lat="44.83571" lon="4.55922">
        <ele>289.2</ele>
        <time>2020-05-22T11:46:00.000Z</time>
      </trkpt>
      <trkpt lat="44.83563" lon="4.55927">
        <ele>288.9</ele>
        <time>2020-05-22T11:46:01.000Z</time>
      </trkpt>
      <trkpt lat="44.83555" lon="4.55933">
        <ele>288.6</ele>
        <time>2020-05-22T11:46:02.000Z</time>
      </trkpt>
      <trkpt lat="44.83547" lon="4.55941">
        <ele>288.3</ele>
        <time>2020-05-22T11:46:03.000Z</time>
      </trkpt>
      <trkpt lat="44.83541" lon="4.5595">
        <ele>288.1</ele>
        <time>2020-05-22T11:46:04.000Z</time>
      </trkpt>
      <trkpt lat="44.83534" lon="4.5596">
        <ele>287.8</ele>
        <time>2020-05-22T11:46:05.000Z</time>
      </trkpt>
      <trkpt lat="44.83527" lon="4.55969">
        <ele>287.5</ele>
        <time>2020-05-22T11:46:06.000Z</time>
      </trkpt>
      <trkpt lat="44.83519" lon="4.55976">
        <ele>287.3</ele>
        <time>2020-05-22T11:46:07.000Z</time>
      </trkpt>
      <trkpt lat="44.83511" lon="4.55984">
        <ele>287</ele>
        <time>2020-05-22T11:46:08.000Z</time>
      </trkpt>
      <trkpt lat="44.83503" lon="4.55992">
        <ele>286.7</ele>
        <time>2020-05-22T11:46:09.000Z</time>
      </trkpt>
      <trkpt lat="44.83496" lon="4.56001">
        <ele>286.4</ele>
        <time>2020-05-22T11:46:10.000Z</time>
      </trkpt>
      <trkpt lat="44.83487" lon="4.56008">
        <ele>286.2</ele>
        <time>2020-05-22T11:46:11.000Z</time>
      </trkpt>
      <trkpt lat="44.83479" lon="4.56014">
        <ele>285.9</ele>
        <time>2020-05-22T11:46:12.000Z</time>
      </trkpt>
      <trkpt lat="44.8347" lon="4.56018">
        <ele>285.7</ele>
        <time>2020-05-22T11:46:13.000Z</time>
      </trkpt>
      <trkpt lat="44.83461" lon="4.5602">
        <ele>285.4</ele>
        <time>2020-05-22T11:46:14.000Z</time>
      </trkpt>
      <trkpt lat="44.83452" lon="4.56021">
        <ele>285.1</ele>
        <time>2020-05-22T11:46:15.000Z</time>
      </trkpt>
      <trkpt lat="44.83442" lon="4.56022">
        <ele>284.8</ele>
        <time>2020-05-22T11:46:16.000Z</time>
      </trkpt>
      <trkpt lat="44.83433" lon="4.56026">
        <ele>284.5</ele>
        <time>2020-05-22T11:46:17.000Z</time>
      </trkpt>
      <trkpt lat="44.83424" lon="4.5603">
        <ele>284.2</ele>
        <time>2020-05-22T11:46:18.000Z</time>
      </trkpt>
      <trkpt lat="44.83415" lon="4.56034">
        <ele>283.9</ele>
        <time>2020-05-22T11:46:19.000Z</time>
      </trkpt>
      <trkpt lat="44.83406" lon="4.56039">
        <ele>283.6</ele>
        <time>2020-05-22T11:46:20.000Z</time>
      </trkpt>
      <trkpt lat="44.83397" lon="4.56044">
        <ele>283.3</ele>
        <time>2020-05-22T11:46:21.000Z</time>
      </trkpt>
      <trkpt lat="44.83388" lon="4.56048">
        <ele>283</ele>
        <time>2020-05-22T11:46:22.000Z</time>
      </trkpt>
      <trkpt lat="44.83379" lon="4.56053">
        <ele>282.7</ele>
        <time>2020-05-22T11:46:23.000Z</time>
      </trkpt>
      <trkpt lat="44.8337" lon="4.56059">
        <ele>282.4</ele>
        <time>2020-05-22T11:46:24.000Z</time>
      </trkpt>
      <trkpt lat="44.83363" lon="4.56068">
        <ele>282</ele>
        <time>2020-05-22T11:46:25.000Z</time>
      </trkpt>
      <trkpt lat="44.83356" lon="4.56078">
        <ele>281.7</ele>
        <time>2020-05-22T11:46:26.000Z</time>
      </trkpt>
      <trkpt lat="44.8335" lon="4.56087">
        <ele>281.4</ele>
        <time>2020-05-22T11:46:27.000Z</time>
      </trkpt>
      <trkpt lat="44.83343" lon="4.56096">
        <ele>281.1</ele>
        <time>2020-05-22T11:46:28.000Z</time>
      </trkpt>
      <trkpt lat="44.83336" lon="4.56106">
        <ele>280.8</ele>
        <time>2020-05-22T11:46:29.000Z</time>
      </trkpt>
      <trkpt lat="44.83329" lon="4.56116">
        <ele>280.5</ele>
        <time>2020-05-22T11:46:30.000Z</time>
      </trkpt>
      <trkpt lat="44.83322" lon="4.56126">
        <ele>280.2</ele>
        <time>2020-05-22T11:46:31.000Z</time>
      </trkpt>
      <trkpt lat="44.83316" lon="4.56135">
        <ele>280</ele>
        <time>2020-05-22T11:46:32.000Z</time>
      </trkpt>
      <trkpt lat="44.83309" lon="4.56145">
        <ele>279.7</ele>
        <time>2020-05-22T11:46:33.000Z</time>
      </trkpt>
      <trkpt lat="44.83303" lon="4.56154">
        <ele>279.4</ele>
        <time>2020-05-22T11:46:34.000Z</time>
      </trkpt>
      <trkpt lat="44.83297" lon="4.56164">
        <ele>279.1</ele>
        <time>2020-05-22T11:46:35.000Z</time>
      </trkpt>
      <trkpt lat="44.83282" lon="4.56175">
        <ele>278.6</ele>
        <time>2020-05-22T11:46:37.000Z</time>
      </trkpt>
      <trkpt lat="44.83265" lon="4.5618">
        <ele>278.3</ele>
        <time>2020-05-22T11:46:39.000Z</time>
      </trkpt>
      <trkpt lat="44.83248" lon="4.56186">
        <ele>277.8</ele>
        <time>2020-05-22T11:46:41.000Z</time>
      </trkpt>
      <trkpt lat="44.83232" lon="4.56194">
        <ele>277.1</ele>
        <time>2020-05-22T11:46:43.000Z</time>
      </trkpt>
      <trkpt lat="44.83215" lon="4.56202">
        <ele>276.5</ele>
        <time>2020-05-22T11:46:45.000Z</time>
      </trkpt>
      <trkpt lat="44.83206" lon="4.56206">
        <ele>276.2</ele>
        <time>2020-05-22T11:46:46.000Z</time>
      </trkpt>
      <trkpt lat="44.83197" lon="4.56211">
        <ele>275.9</ele>
        <time>2020-05-22T11:46:47.000Z</time>
      </trkpt>
      <trkpt lat="44.83189" lon="4.56216">
        <ele>275.6</ele>
        <time>2020-05-22T11:46:48.000Z</time>
      </trkpt>
      <trkpt lat="44.83172" lon="4.56225">
        <ele>275.1</ele>
        <time>2020-05-22T11:46:50.000Z</time>
      </trkpt>
      <trkpt lat="44.83155" lon="4.56233">
        <ele>274.4</ele>
        <time>2020-05-22T11:46:52.000Z</time>
      </trkpt>
      <trkpt lat="44.83139" lon="4.5624">
        <ele>273.6</ele>
        <time>2020-05-22T11:46:54.000Z</time>
      </trkpt>
      <trkpt lat="44.83122" lon="4.56249">
        <ele>272.9</ele>
        <time>2020-05-22T11:46:56.000Z</time>
      </trkpt>
      <trkpt lat="44.83106" lon="4.56257">
        <ele>272.3</ele>
        <time>2020-05-22T11:46:58.000Z</time>
      </trkpt>
      <trkpt lat="44.83093" lon="4.56271">
        <ele>271.6</ele>
        <time>2020-05-22T11:47:00.000Z</time>
      </trkpt>
      <trkpt lat="44.83083" lon="4.56289">
        <ele>271.1</ele>
        <time>2020-05-22T11:47:02.000Z</time>
      </trkpt>
      <trkpt lat="44.83071" lon="4.56304">
        <ele>270.7</ele>
        <time>2020-05-22T11:47:04.000Z</time>
      </trkpt>
      <trkpt lat="44.83055" lon="4.56312">
        <ele>270.4</ele>
        <time>2020-05-22T11:47:06.000Z</time>
      </trkpt>
      <trkpt lat="44.8304" lon="4.56319">
        <ele>270.2</ele>
        <time>2020-05-22T11:47:08.000Z</time>
      </trkpt>
      <trkpt lat="44.83024" lon="4.56324">
        <ele>269.9</ele>
        <time>2020-05-22T11:47:10.000Z</time>
      </trkpt>
      <trkpt lat="44.83007" lon="4.56328">
        <ele>269.6</ele>
        <time>2020-05-22T11:47:12.000Z</time>
      </trkpt>
      <trkpt lat="44.82991" lon="4.56332">
        <ele>269.2</ele>
        <time>2020-05-22T11:47:14.000Z</time>
      </trkpt>
      <trkpt lat="44.82974" lon="4.56336">
        <ele>268.7</ele>
        <time>2020-05-22T11:47:16.000Z</time>
      </trkpt>
      <trkpt lat="44.82957" lon="4.56343">
        <ele>268.1</ele>
        <time>2020-05-22T11:47:18.000Z</time>
      </trkpt>
      <trkpt lat="44.82948" lon="4.56348">
        <ele>267.9</ele>
        <time>2020-05-22T11:47:19.000Z</time>
      </trkpt>
      <trkpt lat="44.8294" lon="4.56352">
        <ele>267.6</ele>
        <time>2020-05-22T11:47:20.000Z</time>
      </trkpt>
      <trkpt lat="44.82931" lon="4.56357">
        <ele>267.4</ele>
        <time>2020-05-22T11:47:21.000Z</time>
      </trkpt>
      <trkpt lat="44.82923" lon="4.56363">
        <ele>267.2</ele>
        <time>2020-05-22T11:47:22.000Z</time>
      </trkpt>
      <trkpt lat="44.82915" lon="4.56369">
        <ele>266.9</ele>
        <time>2020-05-22T11:47:23.000Z</time>
      </trkpt>
      <trkpt lat="44.82901" lon="4.56383">
        <ele>266.4</ele>
        <time>2020-05-22T11:47:25.000Z</time>
      </trkpt>
      <trkpt lat="44.82889" lon="4.564">
        <ele>266</ele>
        <time>2020-05-22T11:47:27.000Z</time>
      </trkpt>
      <trkpt lat="44.82875" lon="4.56415">
        <ele>265.7</ele>
        <time>2020-05-22T11:47:29.000Z</time>
      </trkpt>
      <trkpt lat="44.82861" lon="4.5643">
        <ele>265.3</ele>
        <time>2020-05-22T11:47:31.000Z</time>
      </trkpt>
      <trkpt lat="44.82849" lon="4.56448">
        <ele>265</ele>
        <time>2020-05-22T11:47:33.000Z</time>
      </trkpt>
      <trkpt lat="44.82835" lon="4.56462">
        <ele>264.7</ele>
        <time>2020-05-22T11:47:35.000Z</time>
      </trkpt>
      <trkpt lat="44.82818" lon="4.56468">
        <ele>264.2</ele>
        <time>2020-05-22T11:47:37.000Z</time>
      </trkpt>
      <trkpt lat="44.828" lon="4.56467">
        <ele>263.5</ele>
        <time>2020-05-22T11:47:39.000Z</time>
      </trkpt>
      <trkpt lat="44.82783" lon="4.56463">
        <ele>262.9</ele>
        <time>2020-05-22T11:47:41.000Z</time>
      </trkpt>
      <trkpt lat="44.82765" lon="4.56459">
        <ele>262.3</ele>
        <time>2020-05-22T11:47:43.000Z</time>
      </trkpt>
      <trkpt lat="44.82756" lon="4.56456">
        <ele>262.1</ele>
        <time>2020-05-22T11:47:44.000Z</time>
      </trkpt>
      <trkpt lat="44.82739" lon="4.56451">
        <ele>260</ele>
        <time>2020-05-22T11:47:46.000Z</time>
      </trkpt>
      <trkpt lat="44.82704" lon="4.56433">
        <ele>259</ele>
        <time>2020-05-22T11:47:50.000Z</time>
      </trkpt>
      <trkpt lat="44.82669" lon="4.56411">
        <ele>258</ele>
        <time>2020-05-22T11:47:54.000Z</time>
      </trkpt>
      <trkpt lat="44.82641" lon="4.56398">
        <ele>258.4</ele>
        <time>2020-05-22T11:47:57.000Z</time>
      </trkpt>
      <trkpt lat="44.82632" lon="4.56393">
        <ele>258.1</ele>
        <time>2020-05-22T11:47:58.000Z</time>
      </trkpt>
      <trkpt lat="44.82624" lon="4.56388">
        <ele>257.8</ele>
        <time>2020-05-22T11:47:59.000Z</time>
      </trkpt>
      <trkpt lat="44.82615" lon="4.56385">
        <ele>257.6</ele>
        <time>2020-05-22T11:48:00.000Z</time>
      </trkpt>
      <trkpt lat="44.82606" lon="4.56382">
        <ele>257.3</ele>
        <time>2020-05-22T11:48:01.000Z</time>
      </trkpt>
      <trkpt lat="44.82596" lon="4.56382">
        <ele>257</ele>
        <time>2020-05-22T11:48:02.000Z</time>
      </trkpt>
      <trkpt lat="44.82586" lon="4.56384">
        <ele>256.8</ele>
        <time>2020-05-22T11:48:03.000Z</time>
      </trkpt>
      <trkpt lat="44.82576" lon="4.56388">
        <ele>256.5</ele>
        <time>2020-05-22T11:48:04.000Z</time>
      </trkpt>
      <trkpt lat="44.82567" lon="4.56393">
        <ele>256.3</ele>
        <time>2020-05-22T11:48:05.000Z</time>
      </trkpt>
      <trkpt lat="44.82558" lon="4.56397">
        <ele>256</ele>
        <time>2020-05-22T11:48:06.000Z</time>
      </trkpt>
      <trkpt lat="44.82548" lon="4.56401">
        <ele>255.9</ele>
        <time>2020-05-22T11:48:07.000Z</time>
      </trkpt>
      <trkpt lat="44.82538" lon="4.56404">
        <ele>255.6</ele>
        <time>2020-05-22T11:48:08.000Z</time>
      </trkpt>
      <trkpt lat="44.82528" lon="4.56408">
        <ele>255.4</ele>
        <time>2020-05-22T11:48:09.000Z</time>
      </trkpt>
      <trkpt lat="44.82519" lon="4.56412">
        <ele>255.2</ele>
        <time>2020-05-22T11:48:10.000Z</time>
      </trkpt>
      <trkpt lat="44.82508" lon="4.56417">
        <ele>254.9</ele>
        <time>2020-05-22T11:48:11.000Z</time>
      </trkpt>
      <trkpt lat="44.825" lon="4.56423">
        <ele>254.7</ele>
        <time>2020-05-22T11:48:12.000Z</time>
      </trkpt>
      <trkpt lat="44.82491" lon="4.5643">
        <ele>254.6</ele>
        <time>2020-05-22T11:48:13.000Z</time>
      </trkpt>
      <trkpt lat="44.82482" lon="4.56434">
        <ele>254.4</ele>
        <time>2020-05-22T11:48:14.000Z</time>
      </trkpt>
      <trkpt lat="44.82472" lon="4.56436">
        <ele>254.1</ele>
        <time>2020-05-22T11:48:15.000Z</time>
      </trkpt>
      <trkpt lat="44.82463" lon="4.56433">
        <ele>253.9</ele>
        <time>2020-05-22T11:48:16.000Z</time>
      </trkpt>
      <trkpt lat="44.82456" lon="4.56424">
        <ele>253.6</ele>
        <time>2020-05-22T11:48:17.000Z</time>
      </trkpt>
      <trkpt lat="44.82449" lon="4.56415">
        <ele>253.4</ele>
        <time>2020-05-22T11:48:18.000Z</time>
      </trkpt>
      <trkpt lat="44.82443" lon="4.56403">
        <ele>253.1</ele>
        <time>2020-05-22T11:48:19.000Z</time>
      </trkpt>
      <trkpt lat="44.82438" lon="4.56391">
        <ele>252.9</ele>
        <time>2020-05-22T11:48:20.000Z</time>
      </trkpt>
      <trkpt lat="44.82433" lon="4.56379">
        <ele>252.7</ele>
        <time>2020-05-22T11:48:21.000Z</time>
      </trkpt>
      <trkpt lat="44.8243" lon="4.56365">
        <ele>252.4</ele>
        <time>2020-05-22T11:48:22.000Z</time>
      </trkpt>
      <trkpt lat="44.82428" lon="4.56351">
        <ele>252.1</ele>
        <time>2020-05-22T11:48:23.000Z</time>
      </trkpt>
      <trkpt lat="44.82428" lon="4.56336">
        <ele>251.8</ele>
        <time>2020-05-22T11:48:24.000Z</time>
      </trkpt>
      <trkpt lat="44.82429" lon="4.56322">
        <ele>251.5</ele>
        <time>2020-05-22T11:48:25.000Z</time>
      </trkpt>
      <trkpt lat="44.82429" lon="4.56308">
        <ele>251.3</ele>
        <time>2020-05-22T11:48:26.000Z</time>
      </trkpt>
      <trkpt lat="44.82429" lon="4.56294">
        <ele>251</ele>
        <time>2020-05-22T11:48:27.000Z</time>
      </trkpt>
      <trkpt lat="44.82429" lon="4.56279">
        <ele>250.7</ele>
        <time>2020-05-22T11:48:28.000Z</time>
      </trkpt>
      <trkpt lat="44.82428" lon="4.56265">
        <ele>250.4</ele>
        <time>2020-05-22T11:48:29.000Z</time>
      </trkpt>
      <trkpt lat="44.82426" lon="4.56252">
        <ele>250.1</ele>
        <time>2020-05-22T11:48:30.000Z</time>
      </trkpt>
      <trkpt lat="44.82423" lon="4.56238">
        <ele>249.8</ele>
        <time>2020-05-22T11:48:31.000Z</time>
      </trkpt>
      <trkpt lat="44.8242" lon="4.56225">
        <ele>249.5</ele>
        <time>2020-05-22T11:48:32.000Z</time>
      </trkpt>
      <trkpt lat="44.82416" lon="4.56213">
        <ele>249.3</ele>
        <time>2020-05-22T11:48:33.000Z</time>
      </trkpt>
      <trkpt lat="44.82409" lon="4.56205">
        <ele>249</ele>
        <time>2020-05-22T11:48:34.000Z</time>
      </trkpt>
      <trkpt lat="44.82402" lon="4.56197">
        <ele>248.7</ele>
        <time>2020-05-22T11:48:35.000Z</time>
      </trkpt>
      <trkpt lat="44.82395" lon="4.56188">
        <ele>248.5</ele>
        <time>2020-05-22T11:48:36.000Z</time>
      </trkpt>
      <trkpt lat="44.82389" lon="4.56178">
        <ele>248.2</ele>
        <time>2020-05-22T11:48:37.000Z</time>
      </trkpt>
      <trkpt lat="44.82384" lon="4.56168">
        <ele>248</ele>
        <time>2020-05-22T11:48:38.000Z</time>
      </trkpt>
      <trkpt lat="44.82377" lon="4.56159">
        <ele>247.8</ele>
        <time>2020-05-22T11:48:39.000Z</time>
      </trkpt>
      <trkpt lat="44.82369" lon="4.56153">
        <ele>247.5</ele>
        <time>2020-05-22T11:48:40.000Z</time>
      </trkpt>
      <trkpt lat="44.82352" lon="4.56144">
        <ele>246</ele>
        <time>2020-05-22T11:48:42.000Z</time>
      </trkpt>
      <trkpt lat="44.82327" lon="4.56135">
        <ele>246.5</ele>
        <time>2020-05-22T11:48:45.000Z</time>
      </trkpt>
      <trkpt lat="44.82317" lon="4.56135">
        <ele>246.2</ele>
        <time>2020-05-22T11:48:46.000Z</time>
      </trkpt>
      <trkpt lat="44.82308" lon="4.56138">
        <ele>246</ele>
        <time>2020-05-22T11:48:47.000Z</time>
      </trkpt>
      <trkpt lat="44.82298" lon="4.56142">
        <ele>245.7</ele>
        <time>2020-05-22T11:48:48.000Z</time>
      </trkpt>
      <trkpt lat="44.8229" lon="4.56148">
        <ele>245.4</ele>
        <time>2020-05-22T11:48:49.000Z</time>
      </trkpt>
      <trkpt lat="44.82281" lon="4.56154">
        <ele>245.2</ele>
        <time>2020-05-22T11:48:50.000Z</time>
      </trkpt>
      <trkpt lat="44.82272" lon="4.56158">
        <ele>245.1</ele>
        <time>2020-05-22T11:48:51.000Z</time>
      </trkpt>
      <trkpt lat="44.82263" lon="4.56162">
        <ele>244.9</ele>
        <time>2020-05-22T11:48:52.000Z</time>
      </trkpt>
      <trkpt lat="44.82254" lon="4.56167">
        <ele>244.7</ele>
        <time>2020-05-22T11:48:53.000Z</time>
      </trkpt>
      <trkpt lat="44.82246" lon="4.56173">
        <ele>244.4</ele>
        <time>2020-05-22T11:48:54.000Z</time>
      </trkpt>
      <trkpt lat="44.82238" lon="4.56181">
        <ele>244.2</ele>
        <time>2020-05-22T11:48:55.000Z</time>
      </trkpt>
      <trkpt lat="44.82231" lon="4.56188">
        <ele>244</ele>
        <time>2020-05-22T11:48:56.000Z</time>
      </trkpt>
      <trkpt lat="44.82224" lon="4.56197">
        <ele>243.8</ele>
        <time>2020-05-22T11:48:57.000Z</time>
      </trkpt>
      <trkpt lat="44.82217" lon="4.5622">
        <ele>243.5</ele>
        <time>2020-05-22T11:48:59.000Z</time>
      </trkpt>
      <trkpt lat="44.82216" lon="4.56232">
        <ele>243.3</ele>
        <time>2020-05-22T11:49:00.000Z</time>
      </trkpt>
      <trkpt lat="44.82216" lon="4.56246">
        <ele>243.1</ele>
        <time>2020-05-22T11:49:01.000Z</time>
      </trkpt>
      <trkpt lat="44.8222" lon="4.56272">
        <ele>242</ele>
        <time>2020-05-22T11:49:03.000Z</time>
      </trkpt>
      <trkpt lat="44.82229" lon="4.56331">
        <ele>240</ele>
        <time>2020-05-22T11:49:07.000Z</time>
      </trkpt>
      <trkpt lat="44.82234" lon="4.56391">
        <ele>239.9</ele>
        <time>2020-05-22T11:49:12.000Z</time>
      </trkpt>
      <trkpt lat="44.82235" lon="4.56403">
        <ele>239.6</ele>
        <time>2020-05-22T11:49:13.000Z</time>
      </trkpt>
      <trkpt lat="44.82237" lon="4.56417">
        <ele>239.3</ele>
        <time>2020-05-22T11:49:14.000Z</time>
      </trkpt>
      <trkpt lat="44.82238" lon="4.5643">
        <ele>238.9</ele>
        <time>2020-05-22T11:49:15.000Z</time>
      </trkpt>
      <trkpt lat="44.8224" lon="4.56443">
        <ele>238.6</ele>
        <time>2020-05-22T11:49:16.000Z</time>
      </trkpt>
      <trkpt lat="44.82243" lon="4.56456">
        <ele>238.3</ele>
        <time>2020-05-22T11:49:17.000Z</time>
      </trkpt>
      <trkpt lat="44.82243" lon="4.56469">
        <ele>238.1</ele>
        <time>2020-05-22T11:49:18.000Z</time>
      </trkpt>
      <trkpt lat="44.82242" lon="4.56483">
        <ele>237.8</ele>
        <time>2020-05-22T11:49:19.000Z</time>
      </trkpt>
      <trkpt lat="44.82239" lon="4.56495">
        <ele>237.6</ele>
        <time>2020-05-22T11:49:20.000Z</time>
      </trkpt>
      <trkpt lat="44.82234" lon="4.56506">
        <ele>237.5</ele>
        <time>2020-05-22T11:49:21.000Z</time>
      </trkpt>
      <trkpt lat="44.82227" lon="4.56516">
        <ele>237.3</ele>
        <time>2020-05-22T11:49:22.000Z</time>
      </trkpt>
      <trkpt lat="44.8222" lon="4.56525">
        <ele>237.1</ele>
        <time>2020-05-22T11:49:23.000Z</time>
      </trkpt>
      <trkpt lat="44.82213" lon="4.56534">
        <ele>236.9</ele>
        <time>2020-05-22T11:49:24.000Z</time>
      </trkpt>
      <trkpt lat="44.82205" lon="4.56543">
        <ele>236.8</ele>
        <time>2020-05-22T11:49:25.000Z</time>
      </trkpt>
      <trkpt lat="44.82197" lon="4.56551">
        <ele>236.6</ele>
        <time>2020-05-22T11:49:26.000Z</time>
      </trkpt>
      <trkpt lat="44.82188" lon="4.56558">
        <ele>236.4</ele>
        <time>2020-05-22T11:49:27.000Z</time>
      </trkpt>
      <trkpt lat="44.82179" lon="4.56563">
        <ele>236.2</ele>
        <time>2020-05-22T11:49:28.000Z</time>
      </trkpt>
      <trkpt lat="44.8217" lon="4.56568">
        <ele>236</ele>
        <time>2020-05-22T11:49:29.000Z</time>
      </trkpt>
      <trkpt lat="44.8216" lon="4.56572">
        <ele>235.9</ele>
        <time>2020-05-22T11:49:30.000Z</time>
      </trkpt>
      <trkpt lat="44.82151" lon="4.56576">
        <ele>235.7</ele>
        <time>2020-05-22T11:49:31.000Z</time>
      </trkpt>
      <trkpt lat="44.82141" lon="4.56581">
        <ele>235.6</ele>
        <time>2020-05-22T11:49:32.000Z</time>
      </trkpt>
      <trkpt lat="44.82132" lon="4.56586">
        <ele>235.4</ele>
        <time>2020-05-22T11:49:33.000Z</time>
      </trkpt>
      <trkpt lat="44.82123" lon="4.56591">
        <ele>235.1</ele>
        <time>2020-05-22T11:49:34.000Z</time>
      </trkpt>
      <trkpt lat="44.82115" lon="4.56597">
        <ele>234.7</ele>
        <time>2020-05-22T11:49:35.000Z</time>
      </trkpt>
      <trkpt lat="44.82106" lon="4.56606">
        <ele>234.4</ele>
        <time>2020-05-22T11:49:36.000Z</time>
      </trkpt>
      <trkpt lat="44.82098" lon="4.56615">
        <ele>234.2</ele>
        <time>2020-05-22T11:49:37.000Z</time>
      </trkpt>
      <trkpt lat="44.8209" lon="4.56623">
        <ele>234</ele>
        <time>2020-05-22T11:49:38.000Z</time>
      </trkpt>
      <trkpt lat="44.82083" lon="4.56632">
        <ele>233.7</ele>
        <time>2020-05-22T11:49:39.000Z</time>
      </trkpt>
      <trkpt lat="44.82076" lon="4.56642">
        <ele>233.5</ele>
        <time>2020-05-22T11:49:40.000Z</time>
      </trkpt>
      <trkpt lat="44.8207" lon="4.56652">
        <ele>233.2</ele>
        <time>2020-05-22T11:49:41.000Z</time>
      </trkpt>
      <trkpt lat="44.82067" lon="4.56665">
        <ele>232.7</ele>
        <time>2020-05-22T11:49:42.000Z</time>
      </trkpt>
      <trkpt lat="44.82064" lon="4.56678">
        <ele>232.5</ele>
        <time>2020-05-22T11:49:43.000Z</time>
      </trkpt>
      <trkpt lat="44.82065" lon="4.56702">
        <ele>232.1</ele>
        <time>2020-05-22T11:49:45.000Z</time>
      </trkpt>
      <trkpt lat="44.82065" lon="4.56715">
        <ele>231.8</ele>
        <time>2020-05-22T11:49:46.000Z</time>
      </trkpt>
      <trkpt lat="44.82063" lon="4.56729">
        <ele>231.6</ele>
        <time>2020-05-22T11:49:47.000Z</time>
      </trkpt>
      <trkpt lat="44.82064" lon="4.56742">
        <ele>231.3</ele>
        <time>2020-05-22T11:49:48.000Z</time>
      </trkpt>
      <trkpt lat="44.8207" lon="4.56766">
        <ele>231</ele>
        <time>2020-05-22T11:49:50.000Z</time>
      </trkpt>
      <trkpt lat="44.82073" lon="4.56778">
        <ele>230.8</ele>
        <time>2020-05-22T11:49:51.000Z</time>
      </trkpt>
      <trkpt lat="44.82081" lon="4.56801">
        <ele>230</ele>
        <time>2020-05-22T11:49:53.000Z</time>
      </trkpt>
      <trkpt lat="44.821" lon="4.56829">
        <ele>229.8</ele>
        <time>2020-05-22T11:49:56.000Z</time>
      </trkpt>
      <trkpt lat="44.82111" lon="4.56834">
        <ele>229.6</ele>
        <time>2020-05-22T11:49:57.000Z</time>
      </trkpt>
      <trkpt lat="44.82121" lon="4.56838">
        <ele>229.4</ele>
        <time>2020-05-22T11:49:58.000Z</time>
      </trkpt>
      <trkpt lat="44.8213" lon="4.56842">
        <ele>229.2</ele>
        <time>2020-05-22T11:49:59.000Z</time>
      </trkpt>
      <trkpt lat="44.8214" lon="4.56846">
        <ele>229</ele>
        <time>2020-05-22T11:50:00.000Z</time>
      </trkpt>
      <trkpt lat="44.82149" lon="4.5685">
        <ele>228.8</ele>
        <time>2020-05-22T11:50:01.000Z</time>
      </trkpt>
      <trkpt lat="44.82158" lon="4.56852">
        <ele>228.6</ele>
        <time>2020-05-22T11:50:02.000Z</time>
      </trkpt>
      <trkpt lat="44.82168" lon="4.56852">
        <ele>228.4</ele>
        <time>2020-05-22T11:50:03.000Z</time>
      </trkpt>
      <trkpt lat="44.82177" lon="4.56849">
        <ele>228.2</ele>
        <time>2020-05-22T11:50:04.000Z</time>
      </trkpt>
      <trkpt lat="44.82186" lon="4.56846">
        <ele>228.1</ele>
        <time>2020-05-22T11:50:05.000Z</time>
      </trkpt>
      <trkpt lat="44.82196" lon="4.56843">
        <ele>227.9</ele>
        <time>2020-05-22T11:50:06.000Z</time>
      </trkpt>
      <trkpt lat="44.82205" lon="4.56842">
        <ele>227.7</ele>
        <time>2020-05-22T11:50:07.000Z</time>
      </trkpt>
      <trkpt lat="44.82222" lon="4.56846">
        <ele>227.2</ele>
        <time>2020-05-22T11:50:09.000Z</time>
      </trkpt>
      <trkpt lat="44.82235" lon="4.56862">
        <ele>226.6</ele>
        <time>2020-05-22T11:50:11.000Z</time>
      </trkpt>
      <trkpt lat="44.82236" lon="4.56887">
        <ele>226</ele>
        <time>2020-05-22T11:50:13.000Z</time>
      </trkpt>
      <trkpt lat="44.82234" lon="4.569">
        <ele>225.6</ele>
        <time>2020-05-22T11:50:14.000Z</time>
      </trkpt>
      <trkpt lat="44.82231" lon="4.56913">
        <ele>225.2</ele>
        <time>2020-05-22T11:50:15.000Z</time>
      </trkpt>
      <trkpt lat="44.82228" lon="4.56926">
        <ele>224.9</ele>
        <time>2020-05-22T11:50:16.000Z</time>
      </trkpt>
      <trkpt lat="44.82224" lon="4.56938">
        <ele>224.5</ele>
        <time>2020-05-22T11:50:17.000Z</time>
      </trkpt>
      <trkpt lat="44.82221" lon="4.56951">
        <ele>224.3</ele>
        <time>2020-05-22T11:50:18.000Z</time>
      </trkpt>
      <trkpt lat="44.82216" lon="4.56965">
        <ele>224</ele>
        <time>2020-05-22T11:50:19.000Z</time>
      </trkpt>
      <trkpt lat="44.82212" lon="4.56978">
        <ele>223.7</ele>
        <time>2020-05-22T11:50:20.000Z</time>
      </trkpt>
      <trkpt lat="44.82207" lon="4.5699">
        <ele>223.4</ele>
        <time>2020-05-22T11:50:21.000Z</time>
      </trkpt>
      <trkpt lat="44.82201" lon="4.57002">
        <ele>223.1</ele>
        <time>2020-05-22T11:50:22.000Z</time>
      </trkpt>
      <trkpt lat="44.82196" lon="4.57015">
        <ele>222.8</ele>
        <time>2020-05-22T11:50:23.000Z</time>
      </trkpt>
      <trkpt lat="44.82191" lon="4.57028">
        <ele>222.5</ele>
        <time>2020-05-22T11:50:24.000Z</time>
      </trkpt>
      <trkpt lat="44.82186" lon="4.5704">
        <ele>222.1</ele>
        <time>2020-05-22T11:50:25.000Z</time>
      </trkpt>
      <trkpt lat="44.82182" lon="4.57053">
        <ele>221.8</ele>
        <time>2020-05-22T11:50:26.000Z</time>
      </trkpt>
      <trkpt lat="44.82177" lon="4.57066">
        <ele>221.5</ele>
        <time>2020-05-22T11:50:27.000Z</time>
      </trkpt>
      <trkpt lat="44.82172" lon="4.5708">
        <ele>221.2</ele>
        <time>2020-05-22T11:50:28.000Z</time>
      </trkpt>
      <trkpt lat="44.82167" lon="4.57093">
        <ele>221</ele>
        <time>2020-05-22T11:50:29.000Z</time>
      </trkpt>
      <trkpt lat="44.82162" lon="4.57106">
        <ele>220.8</ele>
        <time>2020-05-22T11:50:30.000Z</time>
      </trkpt>
      <trkpt lat="44.82158" lon="4.57119">
        <ele>220.5</ele>
        <time>2020-05-22T11:50:31.000Z</time>
      </trkpt>
      <trkpt lat="44.82154" lon="4.57133">
        <ele>220.3</ele>
        <time>2020-05-22T11:50:32.000Z</time>
      </trkpt>
      <trkpt lat="44.82151" lon="4.57146">
        <ele>220.1</ele>
        <time>2020-05-22T11:50:33.000Z</time>
      </trkpt>
      <trkpt lat="44.82149" lon="4.57159">
        <ele>220</ele>
        <time>2020-05-22T11:50:34.000Z</time>
      </trkpt>
      <trkpt lat="44.8215" lon="4.57186">
        <ele>219</ele>
        <time>2020-05-22T11:50:36.000Z</time>
      </trkpt>
      <trkpt lat="44.82171" lon="4.5724">
        <ele>218</ele>
        <time>2020-05-22T11:50:41.000Z</time>
      </trkpt>
      <trkpt lat="44.82188" lon="4.57272">
        <ele>218.2</ele>
        <time>2020-05-22T11:50:44.000Z</time>
      </trkpt>
      <trkpt lat="44.82194" lon="4.57283">
        <ele>217.9</ele>
        <time>2020-05-22T11:50:45.000Z</time>
      </trkpt>
      <trkpt lat="44.82198" lon="4.57295">
        <ele>217.4</ele>
        <time>2020-05-22T11:50:46.000Z</time>
      </trkpt>
      <trkpt lat="44.82202" lon="4.57307">
        <ele>216.9</ele>
        <time>2020-05-22T11:50:47.000Z</time>
      </trkpt>
      <trkpt lat="44.82204" lon="4.5732">
        <ele>216.5</ele>
        <time>2020-05-22T11:50:48.000Z</time>
      </trkpt>
      <trkpt lat="44.82205" lon="4.57334">
        <ele>216</ele>
        <time>2020-05-22T11:50:49.000Z</time>
      </trkpt>
      <trkpt lat="44.82203" lon="4.57346">
        <ele>215.6</ele>
        <time>2020-05-22T11:50:50.000Z</time>
      </trkpt>
      <trkpt lat="44.82192" lon="4.57365">
        <ele>215</ele>
        <time>2020-05-22T11:50:52.000Z</time>
      </trkpt>
      <trkpt lat="44.82185" lon="4.57372">
        <ele>214.8</ele>
        <time>2020-05-22T11:50:53.000Z</time>
      </trkpt>
      <trkpt lat="44.82177" lon="4.5738">
        <ele>214.6</ele>
        <time>2020-05-22T11:50:54.000Z</time>
      </trkpt>
      <trkpt lat="44.8217" lon="4.57388">
        <ele>214.4</ele>
        <time>2020-05-22T11:50:55.000Z</time>
      </trkpt>
      <trkpt lat="44.82155" lon="4.57403">
        <ele>214.1</ele>
        <time>2020-05-22T11:50:57.000Z</time>
      </trkpt>
      <trkpt lat="44.82146" lon="4.57408">
        <ele>213.9</ele>
        <time>2020-05-22T11:50:58.000Z</time>
      </trkpt>
      <trkpt lat="44.82136" lon="4.57409">
        <ele>213.7</ele>
        <time>2020-05-22T11:50:59.000Z</time>
      </trkpt>
      <trkpt lat="44.82127" lon="4.57406">
        <ele>213.5</ele>
        <time>2020-05-22T11:51:00.000Z</time>
      </trkpt>
      <trkpt lat="44.82119" lon="4.574">
        <ele>213.3</ele>
        <time>2020-05-22T11:51:01.000Z</time>
      </trkpt>
      <trkpt lat="44.82104" lon="4.57387">
        <ele>212.9</ele>
        <time>2020-05-22T11:51:03.000Z</time>
      </trkpt>
      <trkpt lat="44.82088" lon="4.5738">
        <ele>212.6</ele>
        <time>2020-05-22T11:51:05.000Z</time>
      </trkpt>
      <trkpt lat="44.82073" lon="4.57388">
        <ele>212.3</ele>
        <time>2020-05-22T11:51:07.000Z</time>
      </trkpt>
      <trkpt lat="44.82061" lon="4.57405">
        <ele>211.7</ele>
        <time>2020-05-22T11:51:09.000Z</time>
      </trkpt>
      <trkpt lat="44.82051" lon="4.57426">
        <ele>210.9</ele>
        <time>2020-05-22T11:51:11.000Z</time>
      </trkpt>
      <trkpt lat="44.82048" lon="4.57438">
        <ele>210.5</ele>
        <time>2020-05-22T11:51:12.000Z</time>
      </trkpt>
      <trkpt lat="44.82045" lon="4.57451">
        <ele>210</ele>
        <time>2020-05-22T11:51:13.000Z</time>
      </trkpt>
      <trkpt lat="44.82042" lon="4.57464">
        <ele>209.5</ele>
        <time>2020-05-22T11:51:14.000Z</time>
      </trkpt>
      <trkpt lat="44.82039" lon="4.57478">
        <ele>209</ele>
        <time>2020-05-22T11:51:15.000Z</time>
      </trkpt>
      <trkpt lat="44.82036" lon="4.57491">
        <ele>208.4</ele>
        <time>2020-05-22T11:51:16.000Z</time>
      </trkpt>
      <trkpt lat="44.82033" lon="4.57504">
        <ele>207.9</ele>
        <time>2020-05-22T11:51:17.000Z</time>
      </trkpt>
      <trkpt lat="44.82029" lon="4.57517">
        <ele>207.5</ele>
        <time>2020-05-22T11:51:18.000Z</time>
      </trkpt>
      <trkpt lat="44.82027" lon="4.5753">
        <ele>207.1</ele>
        <time>2020-05-22T11:51:19.000Z</time>
      </trkpt>
      <trkpt lat="44.82024" lon="4.57543">
        <ele>206.7</ele>
        <time>2020-05-22T11:51:20.000Z</time>
      </trkpt>
      <trkpt lat="44.82021" lon="4.57557">
        <ele>206.4</ele>
        <time>2020-05-22T11:51:21.000Z</time>
      </trkpt>
      <trkpt lat="44.82018" lon="4.5757">
        <ele>205.9</ele>
        <time>2020-05-22T11:51:22.000Z</time>
      </trkpt>
      <trkpt lat="44.82015" lon="4.57583">
        <ele>205.5</ele>
        <time>2020-05-22T11:51:23.000Z</time>
      </trkpt>
      <trkpt lat="44.82012" lon="4.57607">
        <ele>204.9</ele>
        <time>2020-05-22T11:51:25.000Z</time>
      </trkpt>
      <trkpt lat="44.82009" lon="4.57631">
        <ele>204.3</ele>
        <time>2020-05-22T11:51:27.000Z</time>
      </trkpt>
      <trkpt lat="44.82008" lon="4.57655">
        <ele>203.7</ele>
        <time>2020-05-22T11:51:29.000Z</time>
      </trkpt>
      <trkpt lat="44.82011" lon="4.57678">
        <ele>203.3</ele>
        <time>2020-05-22T11:51:31.000Z</time>
      </trkpt>
      <trkpt lat="44.82016" lon="4.57702">
        <ele>202.7</ele>
        <time>2020-05-22T11:51:33.000Z</time>
      </trkpt>
      <trkpt lat="44.82024" lon="4.57724">
        <ele>202.1</ele>
        <time>2020-05-22T11:51:35.000Z</time>
      </trkpt>
      <trkpt lat="44.82029" lon="4.57734">
        <ele>201.8</ele>
        <time>2020-05-22T11:51:36.000Z</time>
      </trkpt>
      <trkpt lat="44.8204" lon="4.57754">
        <ele>201.2</ele>
        <time>2020-05-22T11:51:38.000Z</time>
      </trkpt>
      <trkpt lat="44.82051" lon="4.57773">
        <ele>200.6</ele>
        <time>2020-05-22T11:51:40.000Z</time>
      </trkpt>
      <trkpt lat="44.82062" lon="4.57792">
        <ele>200</ele>
        <time>2020-05-22T11:51:42.000Z</time>
      </trkpt>
      <trkpt lat="44.82072" lon="4.5781">
        <ele>199.5</ele>
        <time>2020-05-22T11:51:44.000Z</time>
      </trkpt>
      <trkpt lat="44.82082" lon="4.57827">
        <ele>199.2</ele>
        <time>2020-05-22T11:51:46.000Z</time>
      </trkpt>
      <trkpt lat="44.82091" lon="4.57843">
        <ele>199</ele>
        <time>2020-05-22T11:51:48.000Z</time>
      </trkpt>
      <trkpt lat="44.82101" lon="4.57858">
        <ele>198.8</ele>
        <time>2020-05-22T11:51:50.000Z</time>
      </trkpt>
      <trkpt lat="44.82109" lon="4.57873">
        <ele>198.7</ele>
        <time>2020-05-22T11:51:52.000Z</time>
      </trkpt>
      <trkpt lat="44.82118" lon="4.57888">
        <ele>198.5</ele>
        <time>2020-05-22T11:51:54.000Z</time>
      </trkpt>
      <trkpt lat="44.82127" lon="4.57905">
        <ele>198.4</ele>
        <time>2020-05-22T11:51:56.000Z</time>
      </trkpt>
      <trkpt lat="44.82135" lon="4.5792">
        <ele>198.3</ele>
        <time>2020-05-22T11:51:58.000Z</time>
      </trkpt>
      <trkpt lat="44.82143" lon="4.57934">
        <ele>198.3</ele>
        <time>2020-05-22T11:52:00.000Z</time>
      </trkpt>
      <trkpt lat="44.82152" lon="4.57948">
        <ele>198.2</ele>
        <time>2020-05-22T11:52:02.000Z</time>
      </trkpt>
      <trkpt lat="44.8216" lon="4.57964">
        <ele>198.1</ele>
        <time>2020-05-22T11:52:04.000Z</time>
      </trkpt>
      <trkpt lat="44.82167" lon="4.5798">
        <ele>198</ele>
        <time>2020-05-22T11:52:06.000Z</time>
      </trkpt>
      <trkpt lat="44.82175" lon="4.57995">
        <ele>198</ele>
        <time>2020-05-22T11:52:08.000Z</time>
      </trkpt>
      <trkpt lat="44.82182" lon="4.5801">
        <ele>197.7</ele>
        <time>2020-05-22T11:52:10.000Z</time>
      </trkpt>
      <trkpt lat="44.82188" lon="4.58026">
        <ele>197.5</ele>
        <time>2020-05-22T11:52:12.000Z</time>
      </trkpt>
      <trkpt lat="44.82193" lon="4.58042">
        <ele>197.4</ele>
        <time>2020-05-22T11:52:14.000Z</time>
      </trkpt>
      <trkpt lat="44.82195" lon="4.58057">
        <ele>197.3</ele>
        <time>2020-05-22T11:52:16.000Z</time>
      </trkpt>
      <trkpt lat="44.82201" lon="4.58066">
        <ele>196</ele>
        <time>2020-05-22T11:52:27.000Z</time>
      </trkpt>
      <trkpt lat="44.82201" lon="4.58068">
        <ele>196.5</ele>
        <time>2020-05-22T11:52:31.000Z</time>
      </trkpt>
      <trkpt lat="44.82195" lon="4.58071">
        <ele>196</ele>
        <time>2020-05-22T11:52:40.000Z</time>
      </trkpt>
      <trkpt lat="44.82193" lon="4.58074">
        <ele>196</ele>
        <time>2020-05-22T11:52:53.000Z</time>
      </trkpt>
      <trkpt lat="44.82198" lon="4.58088">
        <ele>196.9</ele>
        <time>2020-05-22T11:53:11.000Z</time>
      </trkpt>
      <trkpt lat="44.82196" lon="4.58106">
        <ele>197</ele>
        <time>2020-05-22T11:53:14.000Z</time>
      </trkpt>
      <trkpt lat="44.82195" lon="4.58119">
        <ele>197</ele>
        <time>2020-05-22T11:53:16.000Z</time>
      </trkpt>
      <trkpt lat="44.82194" lon="4.58132">
        <ele>196.9</ele>
        <time>2020-05-22T11:53:18.000Z</time>
      </trkpt>
      <trkpt lat="44.82192" lon="4.58147">
        <ele>196.9</ele>
        <time>2020-05-22T11:53:20.000Z</time>
      </trkpt>
      <trkpt lat="44.82189" lon="4.58163">
        <ele>196.8</ele>
        <time>2020-05-22T11:53:22.000Z</time>
      </trkpt>
      <trkpt lat="44.82186" lon="4.58181">
        <ele>196.8</ele>
        <time>2020-05-22T11:53:24.000Z</time>
      </trkpt>
      <trkpt lat="44.82184" lon="4.582">
        <ele>196.8</ele>
        <time>2020-05-22T11:53:26.000Z</time>
      </trkpt>
      <trkpt lat="44.82181" lon="4.58219">
        <ele>196.8</ele>
        <time>2020-05-22T11:53:28.000Z</time>
      </trkpt>
      <trkpt lat="44.82179" lon="4.58238">
        <ele>196.7</ele>
        <time>2020-05-22T11:53:30.000Z</time>
      </trkpt>
      <trkpt lat="44.82177" lon="4.58257">
        <ele>196.5</ele>
        <time>2020-05-22T11:53:32.000Z</time>
      </trkpt>
      <trkpt lat="44.82175" lon="4.58279">
        <ele>196.3</ele>
        <time>2020-05-22T11:53:34.000Z</time>
      </trkpt>
      <trkpt lat="44.82172" lon="4.583">
        <ele>196.2</ele>
        <time>2020-05-22T11:53:36.000Z</time>
      </trkpt>
      <trkpt lat="44.82171" lon="4.5832">
        <ele>196</ele>
        <time>2020-05-22T11:53:38.000Z</time>
      </trkpt>
      <trkpt lat="44.82169" lon="4.58341">
        <ele>195.7</ele>
        <time>2020-05-22T11:53:40.000Z</time>
      </trkpt>
      <trkpt lat="44.82165" lon="4.58373">
        <ele>195</ele>
        <time>2020-05-22T11:53:43.000Z</time>
      </trkpt>
      <trkpt lat="44.82162" lon="4.58404">
        <ele>195</ele>
        <time>2020-05-22T11:53:46.000Z</time>
      </trkpt>
      <trkpt lat="44.82159" lon="4.58424">
        <ele>194.8</ele>
        <time>2020-05-22T11:53:48.000Z</time>
      </trkpt>
      <trkpt lat="44.82157" lon="4.58445">
        <ele>194.7</ele>
        <time>2020-05-22T11:53:50.000Z</time>
      </trkpt>
      <trkpt lat="44.82154" lon="4.58466">
        <ele>194.6</ele>
        <time>2020-05-22T11:53:52.000Z</time>
      </trkpt>
      <trkpt lat="44.82152" lon="4.58487">
        <ele>194.6</ele>
        <time>2020-05-22T11:53:54.000Z</time>
      </trkpt>
      <trkpt lat="44.82149" lon="4.58509">
        <ele>194.5</ele>
        <time>2020-05-22T11:53:56.000Z</time>
      </trkpt>
      <trkpt lat="44.82147" lon="4.5853">
        <ele>194.3</ele>
        <time>2020-05-22T11:53:58.000Z</time>
      </trkpt>
      <trkpt lat="44.82144" lon="4.58551">
        <ele>194.1</ele>
        <time>2020-05-22T11:54:00.000Z</time>
      </trkpt>
      <trkpt lat="44.82142" lon="4.58573">
        <ele>193.8</ele>
        <time>2020-05-22T11:54:02.000Z</time>
      </trkpt>
      <trkpt lat="44.82139" lon="4.58593">
        <ele>193.4</ele>
        <time>2020-05-22T11:54:04.000Z</time>
      </trkpt>
      <trkpt lat="44.82135" lon="4.58614">
        <ele>192.9</ele>
        <time>2020-05-22T11:54:06.000Z</time>
      </trkpt>
      <trkpt lat="44.8213" lon="4.58635">
        <ele>192.6</ele>
        <time>2020-05-22T11:54:08.000Z</time>
      </trkpt>
      <trkpt lat="44.82123" lon="4.58655">
        <ele>192.1</ele>
        <time>2020-05-22T11:54:10.000Z</time>
      </trkpt>
      <trkpt lat="44.82115" lon="4.58675">
        <ele>191.6</ele>
        <time>2020-05-22T11:54:12.000Z</time>
      </trkpt>
      <trkpt lat="44.82105" lon="4.58695">
        <ele>191.3</ele>
        <time>2020-05-22T11:54:14.000Z</time>
      </trkpt>
      <trkpt lat="44.82093" lon="4.58713">
        <ele>191.2</ele>
        <time>2020-05-22T11:54:16.000Z</time>
      </trkpt>
      <trkpt lat="44.82087" lon="4.58722">
        <ele>191.1</ele>
        <time>2020-05-22T11:54:17.000Z</time>
      </trkpt>
      <trkpt lat="44.82074" lon="4.5874">
        <ele>190.9</ele>
        <time>2020-05-22T11:54:19.000Z</time>
      </trkpt>
      <trkpt lat="44.82062" lon="4.58757">
        <ele>190.6</ele>
        <time>2020-05-22T11:54:21.000Z</time>
      </trkpt>
      <trkpt lat="44.8205" lon="4.58774">
        <ele>190.4</ele>
        <time>2020-05-22T11:54:23.000Z</time>
      </trkpt>
      <trkpt lat="44.82038" lon="4.58791">
        <ele>190.2</ele>
        <time>2020-05-22T11:54:25.000Z</time>
      </trkpt>
      <trkpt lat="44.82027" lon="4.58808">
        <ele>190</ele>
        <time>2020-05-22T11:54:27.000Z</time>
      </trkpt>
      <trkpt lat="44.82016" lon="4.58827">
        <ele>189.9</ele>
        <time>2020-05-22T11:54:29.000Z</time>
      </trkpt>
      <trkpt lat="44.82008" lon="4.58848">
        <ele>189.8</ele>
        <time>2020-05-22T11:54:31.000Z</time>
      </trkpt>
      <trkpt lat="44.82" lon="4.58869">
        <ele>189.7</ele>
        <time>2020-05-22T11:54:33.000Z</time>
      </trkpt>
      <trkpt lat="44.81993" lon="4.58891">
        <ele>189.7</ele>
        <time>2020-05-22T11:54:35.000Z</time>
      </trkpt>
      <trkpt lat="44.81987" lon="4.58912">
        <ele>189.6</ele>
        <time>2020-05-22T11:54:37.000Z</time>
      </trkpt>
      <trkpt lat="44.8198" lon="4.58933">
        <ele>189.6</ele>
        <time>2020-05-22T11:54:39.000Z</time>
      </trkpt>
      <trkpt lat="44.81974" lon="4.58953">
        <ele>189.5</ele>
        <time>2020-05-22T11:54:41.000Z</time>
      </trkpt>
      <trkpt lat="44.81968" lon="4.58973">
        <ele>189.5</ele>
        <time>2020-05-22T11:54:43.000Z</time>
      </trkpt>
      <trkpt lat="44.81962" lon="4.58993">
        <ele>189.4</ele>
        <time>2020-05-22T11:54:45.000Z</time>
      </trkpt>
      <trkpt lat="44.81956" lon="4.59013">
        <ele>189.3</ele>
        <time>2020-05-22T11:54:47.000Z</time>
      </trkpt>
      <trkpt lat="44.81951" lon="4.59035">
        <ele>189.1</ele>
        <time>2020-05-22T11:54:49.000Z</time>
      </trkpt>
      <trkpt lat="44.81945" lon="4.59056">
        <ele>189.1</ele>
        <time>2020-05-22T11:54:51.000Z</time>
      </trkpt>
      <trkpt lat="44.81939" lon="4.59076">
        <ele>189</ele>
        <time>2020-05-22T11:54:53.000Z</time>
      </trkpt>
      <trkpt lat="44.81934" lon="4.59096">
        <ele>188.9</ele>
        <time>2020-05-22T11:54:55.000Z</time>
      </trkpt>
      <trkpt lat="44.81929" lon="4.59115">
        <ele>188.7</ele>
        <time>2020-05-22T11:54:57.000Z</time>
      </trkpt>
      <trkpt lat="44.81923" lon="4.59134">
        <ele>188.6</ele>
        <time>2020-05-22T11:54:59.000Z</time>
      </trkpt>
      <trkpt lat="44.81918" lon="4.59152">
        <ele>188.5</ele>
        <time>2020-05-22T11:55:01.000Z</time>
      </trkpt>
      <trkpt lat="44.81914" lon="4.59171">
        <ele>188.5</ele>
        <time>2020-05-22T11:55:03.000Z</time>
      </trkpt>
      <trkpt lat="44.81909" lon="4.5919">
        <ele>188.6</ele>
        <time>2020-05-22T11:55:05.000Z</time>
      </trkpt>
      <trkpt lat="44.81904" lon="4.59208">
        <ele>188.7</ele>
        <time>2020-05-22T11:55:07.000Z</time>
      </trkpt>
      <trkpt lat="44.819" lon="4.59226">
        <ele>188.7</ele>
        <time>2020-05-22T11:55:09.000Z</time>
      </trkpt>
      <trkpt lat="44.81895" lon="4.59244">
        <ele>188.6</ele>
        <time>2020-05-22T11:55:11.000Z</time>
      </trkpt>
      <trkpt lat="44.81891" lon="4.59263">
        <ele>188.4</ele>
        <time>2020-05-22T11:55:13.000Z</time>
      </trkpt>
      <trkpt lat="44.81885" lon="4.59282">
        <ele>188.3</ele>
        <time>2020-05-22T11:55:15.000Z</time>
      </trkpt>
      <trkpt lat="44.81881" lon="4.593">
        <ele>188.3</ele>
        <time>2020-05-22T11:55:17.000Z</time>
      </trkpt>
      <trkpt lat="44.81876" lon="4.59319">
        <ele>188.3</ele>
        <time>2020-05-22T11:55:19.000Z</time>
      </trkpt>
      <trkpt lat="44.81872" lon="4.59337">
        <ele>188.3</ele>
        <time>2020-05-22T11:55:21.000Z</time>
      </trkpt>
      <trkpt lat="44.81867" lon="4.59355">
        <ele>188</ele>
        <time>2020-05-22T11:55:23.000Z</time>
      </trkpt>
      <trkpt lat="44.81862" lon="4.59372">
        <ele>187.8</ele>
        <time>2020-05-22T11:55:25.000Z</time>
      </trkpt>
      <trkpt lat="44.81857" lon="4.5939">
        <ele>187.7</ele>
        <time>2020-05-22T11:55:27.000Z</time>
      </trkpt>
      <trkpt lat="44.81854" lon="4.59407">
        <ele>187.6</ele>
        <time>2020-05-22T11:55:29.000Z</time>
      </trkpt>
      <trkpt lat="44.81853" lon="4.59424">
        <ele>187.6</ele>
        <time>2020-05-22T11:55:31.000Z</time>
      </trkpt>
      <trkpt lat="44.81854" lon="4.5944">
        <ele>187.5</ele>
        <time>2020-05-22T11:55:33.000Z</time>
      </trkpt>
      <trkpt lat="44.81852" lon="4.59455">
        <ele>187.4</ele>
        <time>2020-05-22T11:55:35.000Z</time>
      </trkpt>
      <trkpt lat="44.81849" lon="4.59468">
        <ele>187.5</ele>
        <time>2020-05-22T11:55:37.000Z</time>
      </trkpt>
      <trkpt lat="44.81845" lon="4.59474">
        <ele>187</ele>
        <time>2020-05-22T11:55:41.000Z</time>
      </trkpt>
    </trkseg>
  </trk>
</gpx>